<?xml version='1.0' encoding='UTF-8'?><gpx version="1.1" creator="JPX - https://github.com/jenetics/jpx" xmlns="http://www.topografix.com/GPX/1/1"><trk><trkseg><trkpt lat="43.770899" lon="11.1843415"><ele>39.0</ele><time>2026-04-26T07:06:29.572Z</time></trkpt><trkpt lat="43.7707908" lon="11.1844744"><ele>39.0</ele><time>2026-04-26T07:06:30.582Z</time></trkpt><trkpt lat="43.7706801" lon="11.1846075"><ele>39.0</ele><time>2026-04-26T07:06:31.583Z</time></trkpt><trkpt lat="43.7705585" lon="11.1847244"><ele>39.0</ele><time>2026-04-26T07:06:32.573Z</time></trkpt><trkpt lat="43.7704246" lon="11.1848287"><ele>38.75</ele><time>2026-04-26T07:06:33.577Z</time></trkpt><trkpt lat="43.7702946" lon="11.1849206"><ele>38.5</ele><time>2026-04-26T07:06:34.578Z</time></trkpt><trkpt lat="43.7701675" lon="11.185039"><ele>38.25</ele><time>2026-04-26T07:06:35.574Z</time></trkpt><trkpt lat="43.7700442" lon="11.1851553"><ele>38.0</ele><time>2026-04-26T07:06:36.587Z</time></trkpt><trkpt lat="43.7699138" lon="11.1852959"><ele>38.33333333333333</ele><time>2026-04-26T07:06:37.577Z</time></trkpt><trkpt lat="43.7697843" lon="11.1854624"><ele>38.666666666666664</ele><time>2026-04-26T07:06:38.581Z</time></trkpt><trkpt lat="43.7696579" lon="11.1856273"><ele>39.0</ele><time>2026-04-26T07:06:39.581Z</time></trkpt><trkpt lat="43.769528" lon="11.1857933"><ele>39.0</ele><time>2026-04-26T07:06:40.581Z</time></trkpt><trkpt lat="43.7693927" lon="11.1859691"><ele>39.0</ele><time>2026-04-26T07:06:41.581Z</time></trkpt><trkpt lat="43.7692583" lon="11.1861362"><ele>39.0</ele><time>2026-04-26T07:06:42.572Z</time></trkpt><trkpt lat="43.7691249" lon="11.1863104"><ele>38.666666666666664</ele><time>2026-04-26T07:06:43.577Z</time></trkpt><trkpt lat="43.7689936" lon="11.1864754"><ele>38.33333333333333</ele><time>2026-04-26T07:06:44.578Z</time></trkpt><trkpt lat="43.7688604" lon="11.1866345"><ele>38.0</ele><time>2026-04-26T07:06:45.591Z</time></trkpt><trkpt lat="43.7687338" lon="11.1867792"><ele>38.0</ele><time>2026-04-26T07:06:46.582Z</time></trkpt><trkpt lat="43.7686165" lon="11.1869175"><ele>38.0</ele><time>2026-04-26T07:06:47.582Z</time></trkpt><trkpt lat="43.7684928" lon="11.1870588"><ele>38.0</ele><time>2026-04-26T07:06:48.579Z</time></trkpt><trkpt lat="43.7683763" lon="11.1871937"><ele>38.4</ele><time>2026-04-26T07:06:49.597Z</time></trkpt><trkpt lat="43.7682811" lon="11.1873111"><ele>38.8</ele><time>2026-04-26T07:06:50.596Z</time></trkpt><trkpt lat="43.7681932" lon="11.1873946"><ele>39.2</ele><time>2026-04-26T07:06:51.606Z</time></trkpt><trkpt lat="43.7681118" lon="11.1874752"><ele>39.6</ele><time>2026-04-26T07:06:52.603Z</time></trkpt><trkpt lat="43.7680535" lon="11.1875625"><ele>40.0</ele><time>2026-04-26T07:06:53.604Z</time></trkpt><trkpt lat="43.7679983" lon="11.1876185"><ele>40.0</ele><time>2026-04-26T07:06:54.589Z</time></trkpt><trkpt lat="43.7679207" lon="11.1877088"><ele>40.0</ele><time>2026-04-26T07:06:56.593Z</time></trkpt><trkpt lat="43.767874" lon="11.1877752"><ele>40.0</ele><time>2026-04-26T07:07:20.59Z</time></trkpt><trkpt lat="43.7678143" lon="11.1878418"><ele>40.0</ele><time>2026-04-26T07:07:22.592Z</time></trkpt><trkpt lat="43.7677386" lon="11.187888"><ele>40.0</ele><time>2026-04-26T07:07:24.609Z</time></trkpt><trkpt lat="43.7676566" lon="11.1877724"><ele>40.0</ele><time>2026-04-26T07:07:26.585Z</time></trkpt><trkpt lat="43.7676173" lon="11.1876789"><ele>40.0</ele><time>2026-04-26T07:07:27.595Z</time></trkpt><trkpt lat="43.7675726" lon="11.187567"><ele>40.0</ele><time>2026-04-26T07:07:28.598Z</time></trkpt><trkpt lat="43.7675227" lon="11.1874608"><ele>40.0</ele><time>2026-04-26T07:07:29.58Z</time></trkpt><trkpt lat="43.7674658" lon="11.1873541"><ele>40.0</ele><time>2026-04-26T07:07:30.596Z</time></trkpt><trkpt lat="43.7674006" lon="11.1872526"><ele>40.0</ele><time>2026-04-26T07:07:31.611Z</time></trkpt><trkpt lat="43.7673412" lon="11.1871382"><ele>39.5</ele><time>2026-04-26T07:07:32.6Z</time></trkpt><trkpt lat="43.7672708" lon="11.1870081"><ele>39.0</ele><time>2026-04-26T07:07:33.612Z</time></trkpt><trkpt lat="43.7671966" lon="11.186864"><ele>38.5</ele><time>2026-04-26T07:07:34.591Z</time></trkpt><trkpt lat="43.7671244" lon="11.1867101"><ele>38.0</ele><time>2026-04-26T07:07:35.593Z</time></trkpt><trkpt lat="43.7670482" lon="11.1865545"><ele>38.5</ele><time>2026-04-26T07:07:36.599Z</time></trkpt><trkpt lat="43.7669649" lon="11.1864015"><ele>39.0</ele><time>2026-04-26T07:07:37.624Z</time></trkpt><trkpt lat="43.7668814" lon="11.1862428"><ele>39.5</ele><time>2026-04-26T07:07:38.602Z</time></trkpt><trkpt lat="43.7667899" lon="11.1860763"><ele>40.0</ele><time>2026-04-26T07:07:39.587Z</time></trkpt><trkpt lat="43.7667031" lon="11.185896"><ele>40.0</ele><time>2026-04-26T07:07:40.591Z</time></trkpt><trkpt lat="43.7666153" lon="11.1857162"><ele>40.0</ele><time>2026-04-26T07:07:41.585Z</time></trkpt><trkpt lat="43.7665183" lon="11.1855377"><ele>40.0</ele><time>2026-04-26T07:07:42.581Z</time></trkpt><trkpt lat="43.7664142" lon="11.1853503"><ele>40.0</ele><time>2026-04-26T07:07:43.585Z</time></trkpt><trkpt lat="43.7663135" lon="11.1851577"><ele>40.0</ele><time>2026-04-26T07:07:44.598Z</time></trkpt><trkpt lat="43.7662242" lon="11.184957"><ele>40.0</ele><time>2026-04-26T07:07:45.579Z</time></trkpt><trkpt lat="43.7661461" lon="11.1847457"><ele>40.333333333333336</ele><time>2026-04-26T07:07:46.585Z</time></trkpt><trkpt lat="43.7660762" lon="11.1845269"><ele>40.666666666666664</ele><time>2026-04-26T07:07:47.603Z</time></trkpt><trkpt lat="43.7660136" lon="11.1843077"><ele>41.0</ele><time>2026-04-26T07:07:48.588Z</time></trkpt><trkpt lat="43.7659566" lon="11.1840829"><ele>41.0</ele><time>2026-04-26T07:07:49.606Z</time></trkpt><trkpt lat="43.7659123" lon="11.1838457"><ele>41.0</ele><time>2026-04-26T07:07:50.627Z</time></trkpt><trkpt lat="43.7658725" lon="11.1836056"><ele>41.0</ele><time>2026-04-26T07:07:51.564Z</time></trkpt><trkpt lat="43.7658322" lon="11.1833712"><ele>41.0</ele><time>2026-04-26T07:07:52.587Z</time></trkpt><trkpt lat="43.7657859" lon="11.1831327"><ele>41.0</ele><time>2026-04-26T07:07:53.588Z</time></trkpt><trkpt lat="43.7657374" lon="11.1828935"><ele>41.0</ele><time>2026-04-26T07:07:54.585Z</time></trkpt><trkpt lat="43.7656923" lon="11.1826564"><ele>41.0</ele><time>2026-04-26T07:07:55.603Z</time></trkpt><trkpt lat="43.7656505" lon="11.182408"><ele>41.0</ele><time>2026-04-26T07:07:56.6Z</time></trkpt><trkpt lat="43.7656048" lon="11.1821634"><ele>41.0</ele><time>2026-04-26T07:07:57.587Z</time></trkpt><trkpt lat="43.7655632" lon="11.1819108"><ele>40.33333333333333</ele><time>2026-04-26T07:07:58.588Z</time></trkpt><trkpt lat="43.76552" lon="11.1816626"><ele>39.666666666666664</ele><time>2026-04-26T07:07:59.587Z</time></trkpt><trkpt lat="43.7654751" lon="11.181415"><ele>39.0</ele><time>2026-04-26T07:08:00.601Z</time></trkpt><trkpt lat="43.7654335" lon="11.1811822"><ele>38.666666666666664</ele><time>2026-04-26T07:08:01.596Z</time></trkpt><trkpt lat="43.7653976" lon="11.1809561"><ele>38.33333333333333</ele><time>2026-04-26T07:08:02.593Z</time></trkpt><trkpt lat="43.7653706" lon="11.18074"><ele>38.0</ele><time>2026-04-26T07:08:03.603Z</time></trkpt><trkpt lat="43.7653374" lon="11.1805395"><ele>38.5</ele><time>2026-04-26T07:08:04.581Z</time></trkpt><trkpt lat="43.7653009" lon="11.1803526"><ele>39.0</ele><time>2026-04-26T07:08:05.574Z</time></trkpt><trkpt lat="43.7652802" lon="11.1801877"><ele>39.5</ele><time>2026-04-26T07:08:06.583Z</time></trkpt><trkpt lat="43.7652674" lon="11.1800269"><ele>40.0</ele><time>2026-04-26T07:08:07.586Z</time></trkpt><trkpt lat="43.7652751" lon="11.1798725"><ele>39.8</ele><time>2026-04-26T07:08:08.579Z</time></trkpt><trkpt lat="43.7652936" lon="11.1797182"><ele>39.6</ele><time>2026-04-26T07:08:09.596Z</time></trkpt><trkpt lat="43.7653202" lon="11.1795907"><ele>39.4</ele><time>2026-04-26T07:08:10.587Z</time></trkpt><trkpt lat="43.7653659" lon="11.1794775"><ele>39.2</ele><time>2026-04-26T07:08:11.604Z</time></trkpt><trkpt lat="43.7654064" lon="11.1793727"><ele>39.0</ele><time>2026-04-26T07:08:12.587Z</time></trkpt><trkpt lat="43.7654241" lon="11.1792794"><ele>39.0</ele><time>2026-04-26T07:08:13.577Z</time></trkpt><trkpt lat="43.7653684" lon="11.1791318"><ele>39.0</ele><time>2026-04-26T07:08:15.58Z</time></trkpt><trkpt lat="43.7653082" lon="11.1790877"><ele>39.0</ele><time>2026-04-26T07:08:16.612Z</time></trkpt><trkpt lat="43.7652318" lon="11.1790469"><ele>39.0</ele><time>2026-04-26T07:08:17.575Z</time></trkpt><trkpt lat="43.765159" lon="11.1789883"><ele>39.0</ele><time>2026-04-26T07:08:18.576Z</time></trkpt><trkpt lat="43.765102" lon="11.1789133"><ele>39.0</ele><time>2026-04-26T07:08:19.586Z</time></trkpt><trkpt lat="43.7650598" lon="11.1788107"><ele>39.6</ele><time>2026-04-26T07:08:20.566Z</time></trkpt><trkpt lat="43.7650322" lon="11.1786776"><ele>40.2</ele><time>2026-04-26T07:08:21.578Z</time></trkpt><trkpt lat="43.7650134" lon="11.1785428"><ele>40.800000000000004</ele><time>2026-04-26T07:08:22.571Z</time></trkpt><trkpt lat="43.7649839" lon="11.1784042"><ele>41.4</ele><time>2026-04-26T07:08:23.586Z</time></trkpt><trkpt lat="43.7649444" lon="11.1782475"><ele>42.0</ele><time>2026-04-26T07:08:24.588Z</time></trkpt><trkpt lat="43.7649074" lon="11.1780722"><ele>42.5</ele><time>2026-04-26T07:08:25.594Z</time></trkpt><trkpt lat="43.7648751" lon="11.1779027"><ele>43.0</ele><time>2026-04-26T07:08:26.587Z</time></trkpt><trkpt lat="43.7648493" lon="11.1777377"><ele>43.5</ele><time>2026-04-26T07:08:27.587Z</time></trkpt><trkpt lat="43.7648225" lon="11.1775761"><ele>44.0</ele><time>2026-04-26T07:08:28.578Z</time></trkpt><trkpt lat="43.7647961" lon="11.1774109"><ele>43.5</ele><time>2026-04-26T07:08:29.576Z</time></trkpt><trkpt lat="43.7647686" lon="11.1772439"><ele>43.0</ele><time>2026-04-26T07:08:30.594Z</time></trkpt><trkpt lat="43.764743" lon="11.1770742"><ele>42.5</ele><time>2026-04-26T07:08:31.589Z</time></trkpt><trkpt lat="43.764722" lon="11.1769076"><ele>42.0</ele><time>2026-04-26T07:08:32.596Z</time></trkpt><trkpt lat="43.7647068" lon="11.1767489"><ele>42.0</ele><time>2026-04-26T07:08:33.583Z</time></trkpt><trkpt lat="43.7646969" lon="11.1765988"><ele>42.0</ele><time>2026-04-26T07:08:34.588Z</time></trkpt><trkpt lat="43.7646715" lon="11.1764656"><ele>42.0</ele><time>2026-04-26T07:08:35.589Z</time></trkpt><trkpt lat="43.7646611" lon="11.1763489"><ele>42.0</ele><time>2026-04-26T07:08:36.591Z</time></trkpt><trkpt lat="43.7646402" lon="11.1762382"><ele>42.0</ele><time>2026-04-26T07:08:37.581Z</time></trkpt><trkpt lat="43.7646274" lon="11.1761345"><ele>41.833333333333336</ele><time>2026-04-26T07:08:38.589Z</time></trkpt><trkpt lat="43.7646322" lon="11.1760252"><ele>41.666666666666664</ele><time>2026-04-26T07:08:39.578Z</time></trkpt><trkpt lat="43.7646522" lon="11.1759181"><ele>41.5</ele><time>2026-04-26T07:08:40.59Z</time></trkpt><trkpt lat="43.7646684" lon="11.1758145"><ele>41.33333333333333</ele><time>2026-04-26T07:08:41.57Z</time></trkpt><trkpt lat="43.7646536" lon="11.1757295"><ele>41.166666666666664</ele><time>2026-04-26T07:08:42.573Z</time></trkpt><trkpt lat="43.7645527" lon="11.1756871"><ele>41.0</ele><time>2026-04-26T07:08:44.58Z</time></trkpt><trkpt lat="43.7644882" lon="11.1757644"><ele>41.0</ele><time>2026-04-26T07:08:45.571Z</time></trkpt><trkpt lat="43.7644613" lon="11.1758556"><ele>41.0</ele><time>2026-04-26T07:08:46.586Z</time></trkpt><trkpt lat="43.7644173" lon="11.1759565"><ele>41.0</ele><time>2026-04-26T07:08:47.576Z</time></trkpt><trkpt lat="43.7643744" lon="11.1760353"><ele>41.0</ele><time>2026-04-26T07:08:48.577Z</time></trkpt><trkpt lat="43.7642813" lon="11.1760653"><ele>41.0</ele><time>2026-04-26T07:08:49.595Z</time></trkpt><trkpt lat="43.764169" lon="11.1760882"><ele>41.0</ele><time>2026-04-26T07:08:50.57Z</time></trkpt><trkpt lat="43.7640565" lon="11.1760559"><ele>41.199999999999996</ele><time>2026-04-26T07:08:51.581Z</time></trkpt><trkpt lat="43.763952" lon="11.1760255"><ele>41.4</ele><time>2026-04-26T07:08:52.579Z</time></trkpt><trkpt lat="43.7638632" lon="11.1760009"><ele>41.6</ele><time>2026-04-26T07:08:53.582Z</time></trkpt><trkpt lat="43.7637883" lon="11.1759872"><ele>41.8</ele><time>2026-04-26T07:08:54.585Z</time></trkpt><trkpt lat="43.7637231" lon="11.1758671"><ele>42.0</ele><time>2026-04-26T07:08:56.599Z</time></trkpt><trkpt lat="43.7637457" lon="11.1757472"><ele>41.8</ele><time>2026-04-26T07:08:57.58Z</time></trkpt><trkpt lat="43.7637794" lon="11.1756407"><ele>41.6</ele><time>2026-04-26T07:08:58.591Z</time></trkpt><trkpt lat="43.7638151" lon="11.1755173"><ele>41.4</ele><time>2026-04-26T07:08:59.589Z</time></trkpt><trkpt lat="43.7638412" lon="11.1753844"><ele>41.199999999999996</ele><time>2026-04-26T07:09:00.598Z</time></trkpt><trkpt lat="43.7638586" lon="11.1752338"><ele>41.0</ele><time>2026-04-26T07:09:01.575Z</time></trkpt><trkpt lat="43.7638721" lon="11.1750817"><ele>41.0</ele><time>2026-04-26T07:09:02.595Z</time></trkpt><trkpt lat="43.7638814" lon="11.1749112"><ele>41.0</ele><time>2026-04-26T07:09:03.59Z</time></trkpt><trkpt lat="43.7638833" lon="11.1747416"><ele>41.0</ele><time>2026-04-26T07:09:04.569Z</time></trkpt><trkpt lat="43.7638851" lon="11.174564"><ele>41.0</ele><time>2026-04-26T07:09:05.577Z</time></trkpt><trkpt lat="43.7638953" lon="11.174389"><ele>41.0</ele><time>2026-04-26T07:09:06.585Z</time></trkpt><trkpt lat="43.7639055" lon="11.1742107"><ele>41.0</ele><time>2026-04-26T07:09:07.579Z</time></trkpt><trkpt lat="43.7639077" lon="11.1740227"><ele>41.0</ele><time>2026-04-26T07:09:08.584Z</time></trkpt><trkpt lat="43.7639201" lon="11.1738413"><ele>41.0</ele><time>2026-04-26T07:09:09.581Z</time></trkpt><trkpt lat="43.7639354" lon="11.17367"><ele>41.0</ele><time>2026-04-26T07:09:10.586Z</time></trkpt><trkpt lat="43.7639623" lon="11.1734969"><ele>41.0</ele><time>2026-04-26T07:09:11.571Z</time></trkpt><trkpt lat="43.7639874" lon="11.1733257"><ele>41.0</ele><time>2026-04-26T07:09:12.582Z</time></trkpt><trkpt lat="43.764016" lon="11.1731699"><ele>41.0</ele><time>2026-04-26T07:09:13.594Z</time></trkpt><trkpt lat="43.7640406" lon="11.1730152"><ele>41.0</ele><time>2026-04-26T07:09:14.568Z</time></trkpt><trkpt lat="43.7640675" lon="11.172887"><ele>41.0</ele><time>2026-04-26T07:09:15.575Z</time></trkpt><trkpt lat="43.7640925" lon="11.1727707"><ele>41.0</ele><time>2026-04-26T07:09:16.571Z</time></trkpt><trkpt lat="43.7641038" lon="11.1726708"><ele>41.0</ele><time>2026-04-26T07:09:17.584Z</time></trkpt><trkpt lat="43.7641157" lon="11.1725759"><ele>41.0</ele><time>2026-04-26T07:09:18.576Z</time></trkpt><trkpt lat="43.7641074" lon="11.1724726"><ele>41.0</ele><time>2026-04-26T07:09:19.574Z</time></trkpt><trkpt lat="43.7640994" lon="11.1723477"><ele>41.199999999999996</ele><time>2026-04-26T07:09:20.567Z</time></trkpt><trkpt lat="43.7640984" lon="11.1722174"><ele>41.4</ele><time>2026-04-26T07:09:21.585Z</time></trkpt><trkpt lat="43.7641074" lon="11.1721015"><ele>41.6</ele><time>2026-04-26T07:09:22.572Z</time></trkpt><trkpt lat="43.7641123" lon="11.1719652"><ele>41.8</ele><time>2026-04-26T07:09:24.581Z</time></trkpt><trkpt lat="43.7641128" lon="11.1718377"><ele>42.0</ele><time>2026-04-26T07:09:40.564Z</time></trkpt><trkpt lat="43.7640451" lon="11.1717199"><ele>42.0</ele><time>2026-04-26T07:09:42.588Z</time></trkpt><trkpt lat="43.7639976" lon="11.1716564"><ele>42.0</ele><time>2026-04-26T07:09:43.583Z</time></trkpt><trkpt lat="43.7639328" lon="11.1716017"><ele>42.0</ele><time>2026-04-26T07:09:44.574Z</time></trkpt><trkpt lat="43.7638566" lon="11.171549"><ele>42.0</ele><time>2026-04-26T07:09:45.578Z</time></trkpt><trkpt lat="43.7637788" lon="11.1714907"><ele>42.0</ele><time>2026-04-26T07:09:46.581Z</time></trkpt><trkpt lat="43.7637044" lon="11.1714306"><ele>42.0</ele><time>2026-04-26T07:09:47.579Z</time></trkpt><trkpt lat="43.7636339" lon="11.1713653"><ele>42.166666666666664</ele><time>2026-04-26T07:09:48.576Z</time></trkpt><trkpt lat="43.7635689" lon="11.1712863"><ele>42.333333333333336</ele><time>2026-04-26T07:09:49.58Z</time></trkpt><trkpt lat="43.7635002" lon="11.1712052"><ele>42.5</ele><time>2026-04-26T07:09:50.595Z</time></trkpt><trkpt lat="43.7634245" lon="11.1711271"><ele>42.66666666666667</ele><time>2026-04-26T07:09:51.593Z</time></trkpt><trkpt lat="43.7633558" lon="11.1710518"><ele>42.833333333333336</ele><time>2026-04-26T07:09:52.579Z</time></trkpt><trkpt lat="43.7632852" lon="11.1709755"><ele>43.0</ele><time>2026-04-26T07:09:53.587Z</time></trkpt><trkpt lat="43.7632186" lon="11.1708893"><ele>42.5</ele><time>2026-04-26T07:09:54.576Z</time></trkpt><trkpt lat="43.7631585" lon="11.1708003"><ele>42.0</ele><time>2026-04-26T07:09:55.588Z</time></trkpt><trkpt lat="43.7630964" lon="11.1707198"><ele>41.5</ele><time>2026-04-26T07:09:56.585Z</time></trkpt><trkpt lat="43.7630277" lon="11.1706493"><ele>41.0</ele><time>2026-04-26T07:09:57.568Z</time></trkpt><trkpt lat="43.7629758" lon="11.1705966"><ele>40.5</ele><time>2026-04-26T07:09:58.582Z</time></trkpt><trkpt lat="43.7629432" lon="11.1704603"><ele>40.0</ele><time>2026-04-26T07:10:00.579Z</time></trkpt><trkpt lat="43.7629889" lon="11.1703148"><ele>40.0</ele><time>2026-04-26T07:10:02.582Z</time></trkpt><trkpt lat="43.7630333" lon="11.1702334"><ele>40.0</ele><time>2026-04-26T07:10:03.561Z</time></trkpt><trkpt lat="43.7630849" lon="11.1701509"><ele>40.0</ele><time>2026-04-26T07:10:04.592Z</time></trkpt><trkpt lat="43.7631396" lon="11.1700537"><ele>40.0</ele><time>2026-04-26T07:10:05.577Z</time></trkpt><trkpt lat="43.763201" lon="11.1699579"><ele>40.0</ele><time>2026-04-26T07:10:06.579Z</time></trkpt><trkpt lat="43.7632738" lon="11.1698655"><ele>40.0</ele><time>2026-04-26T07:10:07.596Z</time></trkpt><trkpt lat="43.7633562" lon="11.1697606"><ele>40.2</ele><time>2026-04-26T07:10:08.589Z</time></trkpt><trkpt lat="43.7634357" lon="11.1696564"><ele>40.4</ele><time>2026-04-26T07:10:09.566Z</time></trkpt><trkpt lat="43.7635122" lon="11.1695575"><ele>40.599999999999994</ele><time>2026-04-26T07:10:10.581Z</time></trkpt><trkpt lat="43.7636017" lon="11.1694651"><ele>40.8</ele><time>2026-04-26T07:10:11.584Z</time></trkpt><trkpt lat="43.7637007" lon="11.1693932"><ele>41.0</ele><time>2026-04-26T07:10:12.578Z</time></trkpt><trkpt lat="43.7638116" lon="11.1693325"><ele>40.25</ele><time>2026-04-26T07:10:13.59Z</time></trkpt><trkpt lat="43.7639259" lon="11.1692706"><ele>39.5</ele><time>2026-04-26T07:10:14.57Z</time></trkpt><trkpt lat="43.7640462" lon="11.1692177"><ele>38.75</ele><time>2026-04-26T07:10:15.576Z</time></trkpt><trkpt lat="43.7641647" lon="11.1691585"><ele>38.0</ele><time>2026-04-26T07:10:16.586Z</time></trkpt><trkpt lat="43.7642776" lon="11.1690865"><ele>38.5</ele><time>2026-04-26T07:10:17.594Z</time></trkpt><trkpt lat="43.7644022" lon="11.1690121"><ele>39.0</ele><time>2026-04-26T07:10:18.586Z</time></trkpt><trkpt lat="43.7645231" lon="11.1689374"><ele>39.5</ele><time>2026-04-26T07:10:19.601Z</time></trkpt><trkpt lat="43.7646289" lon="11.1688669"><ele>40.0</ele><time>2026-04-26T07:10:20.579Z</time></trkpt><trkpt lat="43.7647269" lon="11.1688057"><ele>40.0</ele><time>2026-04-26T07:10:21.588Z</time></trkpt><trkpt lat="43.7648231" lon="11.1687456"><ele>40.0</ele><time>2026-04-26T07:10:22.592Z</time></trkpt><trkpt lat="43.7649038" lon="11.1686984"><ele>40.0</ele><time>2026-04-26T07:10:23.578Z</time></trkpt><trkpt lat="43.764978" lon="11.1686704"><ele>40.0</ele><time>2026-04-26T07:10:24.583Z</time></trkpt><trkpt lat="43.765056" lon="11.1686664"><ele>40.0</ele><time>2026-04-26T07:10:25.59Z</time></trkpt><trkpt lat="43.7651284" lon="11.1686976"><ele>40.0</ele><time>2026-04-26T07:10:26.585Z</time></trkpt><trkpt lat="43.7651904" lon="11.1687607"><ele>40.16666666666667</ele><time>2026-04-26T07:10:27.577Z</time></trkpt><trkpt lat="43.7652191" lon="11.168858"><ele>40.333333333333336</ele><time>2026-04-26T07:10:28.576Z</time></trkpt><trkpt lat="43.7652225" lon="11.1689663"><ele>40.5</ele><time>2026-04-26T07:10:29.587Z</time></trkpt><trkpt lat="43.7652391" lon="11.1690757"><ele>40.666666666666664</ele><time>2026-04-26T07:10:30.579Z</time></trkpt><trkpt lat="43.7652401" lon="11.1691947"><ele>40.83333333333333</ele><time>2026-04-26T07:10:31.572Z</time></trkpt><trkpt lat="43.7652397" lon="11.1693239"><ele>41.0</ele><time>2026-04-26T07:10:32.582Z</time></trkpt><trkpt lat="43.7652452" lon="11.1694767"><ele>41.25</ele><time>2026-04-26T07:10:33.577Z</time></trkpt><trkpt lat="43.7652451" lon="11.1696284"><ele>41.5</ele><time>2026-04-26T07:10:34.581Z</time></trkpt><trkpt lat="43.7652439" lon="11.1697953"><ele>41.75</ele><time>2026-04-26T07:10:35.586Z</time></trkpt><trkpt lat="43.7652417" lon="11.1699647"><ele>42.0</ele><time>2026-04-26T07:10:36.57Z</time></trkpt><trkpt lat="43.7652309" lon="11.1701419"><ele>41.75</ele><time>2026-04-26T07:10:37.583Z</time></trkpt><trkpt lat="43.7652139" lon="11.1703059"><ele>41.5</ele><time>2026-04-26T07:10:38.574Z</time></trkpt><trkpt lat="43.7651813" lon="11.1704584"><ele>41.25</ele><time>2026-04-26T07:10:39.586Z</time></trkpt><trkpt lat="43.7651368" lon="11.1706001"><ele>41.0</ele><time>2026-04-26T07:10:40.586Z</time></trkpt><trkpt lat="43.765086" lon="11.1707393"><ele>41.0</ele><time>2026-04-26T07:10:41.584Z</time></trkpt><trkpt lat="43.7650294" lon="11.1708869"><ele>41.0</ele><time>2026-04-26T07:10:42.594Z</time></trkpt><trkpt lat="43.7649661" lon="11.1710358"><ele>41.0</ele><time>2026-04-26T07:10:43.573Z</time></trkpt><trkpt lat="43.7648965" lon="11.1711907"><ele>41.0</ele><time>2026-04-26T07:10:44.57Z</time></trkpt><trkpt lat="43.7648129" lon="11.1713442"><ele>41.0</ele><time>2026-04-26T07:10:45.587Z</time></trkpt><trkpt lat="43.764728" lon="11.1714937"><ele>41.0</ele><time>2026-04-26T07:10:46.583Z</time></trkpt><trkpt lat="43.7646469" lon="11.1716512"><ele>41.0</ele><time>2026-04-26T07:10:47.583Z</time></trkpt><trkpt lat="43.764565" lon="11.1718108"><ele>41.0</ele><time>2026-04-26T07:10:48.59Z</time></trkpt><trkpt lat="43.7644806" lon="11.1719572"><ele>41.0</ele><time>2026-04-26T07:10:49.575Z</time></trkpt><trkpt lat="43.7644024" lon="11.1720874"><ele>41.0</ele><time>2026-04-26T07:10:50.574Z</time></trkpt><trkpt lat="43.7643237" lon="11.1722225"><ele>41.0</ele><time>2026-04-26T07:10:51.582Z</time></trkpt><trkpt lat="43.7642427" lon="11.1723674"><ele>41.0</ele><time>2026-04-26T07:10:52.581Z</time></trkpt><trkpt lat="43.7641725" lon="11.1725042"><ele>41.0</ele><time>2026-04-26T07:10:53.584Z</time></trkpt><trkpt lat="43.7641069" lon="11.1726451"><ele>41.0</ele><time>2026-04-26T07:10:54.572Z</time></trkpt><trkpt lat="43.7640551" lon="11.1727873"><ele>41.0</ele><time>2026-04-26T07:10:55.577Z</time></trkpt><trkpt lat="43.7640173" lon="11.1729504"><ele>41.0</ele><time>2026-04-26T07:10:56.602Z</time></trkpt><trkpt lat="43.7639841" lon="11.1731256"><ele>40.75</ele><time>2026-04-26T07:10:57.568Z</time></trkpt><trkpt lat="43.7639593" lon="11.1733104"><ele>40.5</ele><time>2026-04-26T07:10:58.582Z</time></trkpt><trkpt lat="43.7639343" lon="11.1734969"><ele>40.25</ele><time>2026-04-26T07:10:59.575Z</time></trkpt><trkpt lat="43.7639074" lon="11.1736786"><ele>40.0</ele><time>2026-04-26T07:11:00.583Z</time></trkpt><trkpt lat="43.7638787" lon="11.173866"><ele>40.25</ele><time>2026-04-26T07:11:01.587Z</time></trkpt><trkpt lat="43.76386" lon="11.1740474"><ele>40.5</ele><time>2026-04-26T07:11:02.581Z</time></trkpt><trkpt lat="43.7638493" lon="11.1742198"><ele>40.75</ele><time>2026-04-26T07:11:03.582Z</time></trkpt><trkpt lat="43.7638379" lon="11.1743969"><ele>41.0</ele><time>2026-04-26T07:11:04.575Z</time></trkpt><trkpt lat="43.7638251" lon="11.1745638"><ele>41.0</ele><time>2026-04-26T07:11:05.582Z</time></trkpt><trkpt lat="43.7638123" lon="11.1747262"><ele>41.0</ele><time>2026-04-26T07:11:06.589Z</time></trkpt><trkpt lat="43.7638015" lon="11.1748836"><ele>41.0</ele><time>2026-04-26T07:11:07.585Z</time></trkpt><trkpt lat="43.7637968" lon="11.1750397"><ele>41.0</ele><time>2026-04-26T07:11:08.594Z</time></trkpt><trkpt lat="43.7637849" lon="11.1751777"><ele>41.0</ele><time>2026-04-26T07:11:09.587Z</time></trkpt><trkpt lat="43.7637756" lon="11.1753124"><ele>41.0</ele><time>2026-04-26T07:11:10.593Z</time></trkpt><trkpt lat="43.7637632" lon="11.17543"><ele>41.0</ele><time>2026-04-26T07:11:11.579Z</time></trkpt><trkpt lat="43.763759" lon="11.1755394"><ele>41.0</ele><time>2026-04-26T07:11:12.581Z</time></trkpt><trkpt lat="43.7637497" lon="11.1756673"><ele>41.0</ele><time>2026-04-26T07:11:14.583Z</time></trkpt><trkpt lat="43.7637451" lon="11.1757869"><ele>41.0</ele><time>2026-04-26T07:11:36.572Z</time></trkpt><trkpt lat="43.7637333" lon="11.1759287"><ele>41.0</ele><time>2026-04-26T07:11:38.58Z</time></trkpt><trkpt lat="43.7637122" lon="11.1761087"><ele>41.199999999999996</ele><time>2026-04-26T07:11:40.566Z</time></trkpt><trkpt lat="43.7637072" lon="11.1762363"><ele>41.4</ele><time>2026-04-26T07:11:41.581Z</time></trkpt><trkpt lat="43.7637088" lon="11.1763667"><ele>41.6</ele><time>2026-04-26T07:11:42.596Z</time></trkpt><trkpt lat="43.7637138" lon="11.1765079"><ele>41.8</ele><time>2026-04-26T07:11:43.588Z</time></trkpt><trkpt lat="43.7637233" lon="11.1766476"><ele>42.0</ele><time>2026-04-26T07:11:44.569Z</time></trkpt><trkpt lat="43.7637404" lon="11.1768055"><ele>42.5</ele><time>2026-04-26T07:11:45.582Z</time></trkpt><trkpt lat="43.7637629" lon="11.176963"><ele>43.0</ele><time>2026-04-26T07:11:46.587Z</time></trkpt><trkpt lat="43.7637903" lon="11.1771358"><ele>43.5</ele><time>2026-04-26T07:11:47.581Z</time></trkpt><trkpt lat="43.763822" lon="11.1773048"><ele>44.0</ele><time>2026-04-26T07:11:48.587Z</time></trkpt><trkpt lat="43.7638537" lon="11.1774777"><ele>44.0</ele><time>2026-04-26T07:11:49.572Z</time></trkpt><trkpt lat="43.7638929" lon="11.1776508"><ele>44.0</ele><time>2026-04-26T07:11:50.585Z</time></trkpt><trkpt lat="43.7639266" lon="11.177825"><ele>44.0</ele><time>2026-04-26T07:11:51.576Z</time></trkpt><trkpt lat="43.7639627" lon="11.1780078"><ele>44.0</ele><time>2026-04-26T07:11:52.577Z</time></trkpt><trkpt lat="43.7639987" lon="11.1781917"><ele>44.0</ele><time>2026-04-26T07:11:53.585Z</time></trkpt><trkpt lat="43.7640333" lon="11.178377"><ele>44.0</ele><time>2026-04-26T07:11:54.587Z</time></trkpt><trkpt lat="43.7640672" lon="11.1785631"><ele>44.0</ele><time>2026-04-26T07:11:55.584Z</time></trkpt><trkpt lat="43.7641036" lon="11.1787463"><ele>44.0</ele><time>2026-04-26T07:11:56.59Z</time></trkpt><trkpt lat="43.7641359" lon="11.1789297"><ele>43.75</ele><time>2026-04-26T07:11:57.591Z</time></trkpt><trkpt lat="43.7641685" lon="11.1791029"><ele>43.5</ele><time>2026-04-26T07:11:58.573Z</time></trkpt><trkpt lat="43.7641979" lon="11.1792843"><ele>43.25</ele><time>2026-04-26T07:11:59.57Z</time></trkpt><trkpt lat="43.7642301" lon="11.17947"><ele>43.0</ele><time>2026-04-26T07:12:00.568Z</time></trkpt><trkpt lat="43.7642652" lon="11.1796516"><ele>43.0</ele><time>2026-04-26T07:12:01.578Z</time></trkpt><trkpt lat="43.7643061" lon="11.1798422"><ele>43.0</ele><time>2026-04-26T07:12:02.566Z</time></trkpt><trkpt lat="43.764345" lon="11.1800344"><ele>43.0</ele><time>2026-04-26T07:12:03.585Z</time></trkpt><trkpt lat="43.7643846" lon="11.1802198"><ele>43.0</ele><time>2026-04-26T07:12:04.586Z</time></trkpt><trkpt lat="43.764429" lon="11.1804113"><ele>42.75</ele><time>2026-04-26T07:12:05.58Z</time></trkpt><trkpt lat="43.7644638" lon="11.1806033"><ele>42.5</ele><time>2026-04-26T07:12:06.589Z</time></trkpt><trkpt lat="43.7644934" lon="11.1808061"><ele>42.25</ele><time>2026-04-26T07:12:07.575Z</time></trkpt><trkpt lat="43.764518" lon="11.1809983"><ele>42.0</ele><time>2026-04-26T07:12:08.573Z</time></trkpt><trkpt lat="43.7645466" lon="11.1811837"><ele>42.0</ele><time>2026-04-26T07:12:09.594Z</time></trkpt><trkpt lat="43.7645712" lon="11.1813632"><ele>42.0</ele><time>2026-04-26T07:12:10.583Z</time></trkpt><trkpt lat="43.764599" lon="11.1815338"><ele>42.0</ele><time>2026-04-26T07:12:11.594Z</time></trkpt><trkpt lat="43.7646251" lon="11.1817049"><ele>42.0</ele><time>2026-04-26T07:12:12.575Z</time></trkpt><trkpt lat="43.7646563" lon="11.1818602"><ele>42.0</ele><time>2026-04-26T07:12:13.584Z</time></trkpt><trkpt lat="43.7646792" lon="11.1820083"><ele>42.0</ele><time>2026-04-26T07:12:14.596Z</time></trkpt><trkpt lat="43.7647033" lon="11.1821621"><ele>42.0</ele><time>2026-04-26T07:12:15.571Z</time></trkpt><trkpt lat="43.7647304" lon="11.1822974"><ele>42.0</ele><time>2026-04-26T07:12:16.581Z</time></trkpt><trkpt lat="43.7647595" lon="11.1824371"><ele>42.0</ele><time>2026-04-26T07:12:17.576Z</time></trkpt><trkpt lat="43.7647887" lon="11.1825677"><ele>42.2</ele><time>2026-04-26T07:12:18.579Z</time></trkpt><trkpt lat="43.7648145" lon="11.1826954"><ele>42.400000000000006</ele><time>2026-04-26T07:12:19.566Z</time></trkpt><trkpt lat="43.7648482" lon="11.1828224"><ele>42.599999999999994</ele><time>2026-04-26T07:12:20.601Z</time></trkpt><trkpt lat="43.7648886" lon="11.182949"><ele>42.8</ele><time>2026-04-26T07:12:21.565Z</time></trkpt><trkpt lat="43.7649299" lon="11.1830765"><ele>43.0</ele><time>2026-04-26T07:12:22.583Z</time></trkpt><trkpt lat="43.7649739" lon="11.1832037"><ele>43.0</ele><time>2026-04-26T07:12:23.577Z</time></trkpt><trkpt lat="43.7650201" lon="11.1833254"><ele>43.0</ele><time>2026-04-26T07:12:24.586Z</time></trkpt><trkpt lat="43.7650629" lon="11.183457"><ele>43.0</ele><time>2026-04-26T07:12:25.596Z</time></trkpt><trkpt lat="43.7651078" lon="11.1835882"><ele>43.0</ele><time>2026-04-26T07:12:26.584Z</time></trkpt><trkpt lat="43.7651574" lon="11.1837169"><ele>43.0</ele><time>2026-04-26T07:12:27.581Z</time></trkpt><trkpt lat="43.7652095" lon="11.18385"><ele>42.599999999999994</ele><time>2026-04-26T07:12:28.579Z</time></trkpt><trkpt lat="43.7652606" lon="11.1839798"><ele>42.199999999999996</ele><time>2026-04-26T07:12:29.572Z</time></trkpt><trkpt lat="43.7653104" lon="11.1841058"><ele>41.8</ele><time>2026-04-26T07:12:30.578Z</time></trkpt><trkpt lat="43.7653558" lon="11.1842275"><ele>41.4</ele><time>2026-04-26T07:12:31.574Z</time></trkpt><trkpt lat="43.7654004" lon="11.1843516"><ele>41.0</ele><time>2026-04-26T07:12:32.579Z</time></trkpt><trkpt lat="43.7654475" lon="11.1844774"><ele>41.0</ele><time>2026-04-26T07:12:33.58Z</time></trkpt><trkpt lat="43.7654971" lon="11.1845989"><ele>41.0</ele><time>2026-04-26T07:12:34.563Z</time></trkpt><trkpt lat="43.7655528" lon="11.1847229"><ele>41.0</ele><time>2026-04-26T07:12:35.575Z</time></trkpt><trkpt lat="43.7656016" lon="11.1848496"><ele>41.0</ele><time>2026-04-26T07:12:36.573Z</time></trkpt><trkpt lat="43.7656483" lon="11.1849864"><ele>41.0</ele><time>2026-04-26T07:12:37.571Z</time></trkpt><trkpt lat="43.7656909" lon="11.1851199"><ele>41.0</ele><time>2026-04-26T07:12:38.58Z</time></trkpt><trkpt lat="43.7657362" lon="11.1852583"><ele>41.0</ele><time>2026-04-26T07:12:39.571Z</time></trkpt><trkpt lat="43.7657788" lon="11.1854003"><ele>41.0</ele><time>2026-04-26T07:12:40.589Z</time></trkpt><trkpt lat="43.7658182" lon="11.1855429"><ele>41.0</ele><time>2026-04-26T07:12:41.587Z</time></trkpt><trkpt lat="43.7658603" lon="11.1856696"><ele>41.0</ele><time>2026-04-26T07:12:42.593Z</time></trkpt><trkpt lat="43.7659043" lon="11.1857881"><ele>41.0</ele><time>2026-04-26T07:12:43.583Z</time></trkpt><trkpt lat="43.7659481" lon="11.1859086"><ele>41.0</ele><time>2026-04-26T07:12:44.581Z</time></trkpt><trkpt lat="43.7659918" lon="11.1860261"><ele>41.0</ele><time>2026-04-26T07:12:45.58Z</time></trkpt><trkpt lat="43.7660316" lon="11.1861397"><ele>41.0</ele><time>2026-04-26T07:12:46.578Z</time></trkpt><trkpt lat="43.7660646" lon="11.1862296"><ele>41.0</ele><time>2026-04-26T07:12:47.602Z</time></trkpt><trkpt lat="43.7660997" lon="11.1863109"><ele>41.0</ele><time>2026-04-26T07:12:48.582Z</time></trkpt><trkpt lat="43.7661064" lon="11.1864563"><ele>41.166666666666664</ele><time>2026-04-26T07:12:50.585Z</time></trkpt><trkpt lat="43.7660159" lon="11.1865541"><ele>41.33333333333333</ele><time>2026-04-26T07:12:52.584Z</time></trkpt><trkpt lat="43.7659582" lon="11.1865927"><ele>41.5</ele><time>2026-04-26T07:12:53.57Z</time></trkpt><trkpt lat="43.7658952" lon="11.1866368"><ele>41.666666666666664</ele><time>2026-04-26T07:12:54.58Z</time></trkpt><trkpt lat="43.7658326" lon="11.1866963"><ele>41.833333333333336</ele><time>2026-04-26T07:12:55.575Z</time></trkpt><trkpt lat="43.7657752" lon="11.1867725"><ele>42.0</ele><time>2026-04-26T07:12:56.577Z</time></trkpt><trkpt lat="43.7657236" lon="11.1868426"><ele>42.0</ele><time>2026-04-26T07:12:57.575Z</time></trkpt><trkpt lat="43.7656721" lon="11.1869035"><ele>42.0</ele><time>2026-04-26T07:12:58.573Z</time></trkpt><trkpt lat="43.7656193" lon="11.18697"><ele>42.0</ele><time>2026-04-26T07:12:59.584Z</time></trkpt><trkpt lat="43.76557" lon="11.1870396"><ele>42.0</ele><time>2026-04-26T07:13:00.584Z</time></trkpt><trkpt lat="43.765512" lon="11.1871217"><ele>42.0</ele><time>2026-04-26T07:13:01.576Z</time></trkpt><trkpt lat="43.7654537" lon="11.1872153"><ele>42.0</ele><time>2026-04-26T07:13:02.571Z</time></trkpt><trkpt lat="43.7653895" lon="11.1873162"><ele>42.2</ele><time>2026-04-26T07:13:03.575Z</time></trkpt><trkpt lat="43.7653175" lon="11.1874277"><ele>42.400000000000006</ele><time>2026-04-26T07:13:04.575Z</time></trkpt><trkpt lat="43.76525" lon="11.1875443"><ele>42.599999999999994</ele><time>2026-04-26T07:13:05.583Z</time></trkpt><trkpt lat="43.7651735" lon="11.1876567"><ele>42.8</ele><time>2026-04-26T07:13:06.587Z</time></trkpt><trkpt lat="43.7650882" lon="11.1877744"><ele>43.0</ele><time>2026-04-26T07:13:07.586Z</time></trkpt><trkpt lat="43.7650042" lon="11.1878964"><ele>43.0</ele><time>2026-04-26T07:13:08.622Z</time></trkpt><trkpt lat="43.7649191" lon="11.1880241"><ele>43.0</ele><time>2026-04-26T07:13:09.582Z</time></trkpt><trkpt lat="43.764828" lon="11.1881573"><ele>43.0</ele><time>2026-04-26T07:13:10.575Z</time></trkpt><trkpt lat="43.7647272" lon="11.1882908"><ele>43.0</ele><time>2026-04-26T07:13:11.578Z</time></trkpt><trkpt lat="43.7646231" lon="11.1884286"><ele>43.0</ele><time>2026-04-26T07:13:12.581Z</time></trkpt><trkpt lat="43.7645172" lon="11.1885612"><ele>43.0</ele><time>2026-04-26T07:13:13.576Z</time></trkpt><trkpt lat="43.7644169" lon="11.1886908"><ele>43.0</ele><time>2026-04-26T07:13:14.579Z</time></trkpt><trkpt lat="43.7643089" lon="11.1888243"><ele>43.0</ele><time>2026-04-26T07:13:15.591Z</time></trkpt><trkpt lat="43.7641853" lon="11.1889528"><ele>42.66666666666667</ele><time>2026-04-26T07:13:16.574Z</time></trkpt><trkpt lat="43.7640665" lon="11.1890854"><ele>42.333333333333336</ele><time>2026-04-26T07:13:17.586Z</time></trkpt><trkpt lat="43.7639512" lon="11.1892228"><ele>42.0</ele><time>2026-04-26T07:13:18.566Z</time></trkpt><trkpt lat="43.763837" lon="11.1893615"><ele>42.0</ele><time>2026-04-26T07:13:19.585Z</time></trkpt><trkpt lat="43.763725" lon="11.1895053"><ele>42.0</ele><time>2026-04-26T07:13:20.58Z</time></trkpt><trkpt lat="43.7636164" lon="11.1896416"><ele>42.0</ele><time>2026-04-26T07:13:21.582Z</time></trkpt><trkpt lat="43.7635142" lon="11.1897724"><ele>42.0</ele><time>2026-04-26T07:13:22.609Z</time></trkpt><trkpt lat="43.7634092" lon="11.1898933"><ele>41.75</ele><time>2026-04-26T07:13:23.592Z</time></trkpt><trkpt lat="43.7633061" lon="11.1899852"><ele>41.5</ele><time>2026-04-26T07:13:24.576Z</time></trkpt><trkpt lat="43.7631956" lon="11.1900457"><ele>41.25</ele><time>2026-04-26T07:13:25.589Z</time></trkpt><trkpt lat="43.7630889" lon="11.1900763"><ele>41.0</ele><time>2026-04-26T07:13:26.582Z</time></trkpt><trkpt lat="43.7629781" lon="11.190077"><ele>41.0</ele><time>2026-04-26T07:13:27.585Z</time></trkpt><trkpt lat="43.7628919" lon="11.1900577"><ele>41.0</ele><time>2026-04-26T07:13:28.581Z</time></trkpt><trkpt lat="43.7627938" lon="11.1900245"><ele>41.0</ele><time>2026-04-26T07:13:30.573Z</time></trkpt><trkpt lat="43.7627237" lon="11.1899913"><ele>41.0</ele><time>2026-04-26T07:13:32.568Z</time></trkpt><trkpt lat="43.7626349" lon="11.1899187"><ele>41.0</ele><time>2026-04-26T07:13:34.583Z</time></trkpt><trkpt lat="43.762582" lon="11.1898705"><ele>41.0</ele><time>2026-04-26T07:13:35.574Z</time></trkpt><trkpt lat="43.7625205" lon="11.1898487"><ele>41.0</ele><time>2026-04-26T07:13:36.558Z</time></trkpt><trkpt lat="43.762441" lon="11.1898633"><ele>41.0</ele><time>2026-04-26T07:13:37.655Z</time></trkpt><trkpt lat="43.762363" lon="11.1899193"><ele>41.0</ele><time>2026-04-26T07:13:38.637Z</time></trkpt><trkpt lat="43.762312" lon="11.1900012"><ele>41.0</ele><time>2026-04-26T07:13:39.641Z</time></trkpt><trkpt lat="43.7622821" lon="11.1901093"><ele>41.0</ele><time>2026-04-26T07:13:40.633Z</time></trkpt><trkpt lat="43.7622715" lon="11.1902238"><ele>41.0</ele><time>2026-04-26T07:13:41.612Z</time></trkpt><trkpt lat="43.7623096" lon="11.19034"><ele>41.0</ele><time>2026-04-26T07:13:42.649Z</time></trkpt><trkpt lat="43.7623677" lon="11.1904522"><ele>41.0</ele><time>2026-04-26T07:13:43.638Z</time></trkpt><trkpt lat="43.7624323" lon="11.1905736"><ele>41.0</ele><time>2026-04-26T07:13:44.629Z</time></trkpt><trkpt lat="43.7624861" lon="11.1906979"><ele>41.0</ele><time>2026-04-26T07:13:45.566Z</time></trkpt><trkpt lat="43.7625253" lon="11.1908171"><ele>41.0</ele><time>2026-04-26T07:13:46.591Z</time></trkpt><trkpt lat="43.7625557" lon="11.1909689"><ele>41.0</ele><time>2026-04-26T07:13:47.577Z</time></trkpt><trkpt lat="43.76258" lon="11.1911262"><ele>41.0</ele><time>2026-04-26T07:13:48.583Z</time></trkpt><trkpt lat="43.7626054" lon="11.1912768"><ele>41.0</ele><time>2026-04-26T07:13:49.634Z</time></trkpt><trkpt lat="43.7626336" lon="11.1914387"><ele>41.0</ele><time>2026-04-26T07:13:50.631Z</time></trkpt><trkpt lat="43.7626596" lon="11.1916043"><ele>41.5</ele><time>2026-04-26T07:13:51.625Z</time></trkpt><trkpt lat="43.7626906" lon="11.1917744"><ele>42.0</ele><time>2026-04-26T07:13:52.634Z</time></trkpt><trkpt lat="43.7627195" lon="11.1919498"><ele>42.5</ele><time>2026-04-26T07:13:53.626Z</time></trkpt><trkpt lat="43.76275" lon="11.192141"><ele>43.0</ele><time>2026-04-26T07:13:54.62Z</time></trkpt><trkpt lat="43.7627851" lon="11.1923322"><ele>42.25</ele><time>2026-04-26T07:13:55.641Z</time></trkpt><trkpt lat="43.762815" lon="11.192525"><ele>41.5</ele><time>2026-04-26T07:13:56.621Z</time></trkpt><trkpt lat="43.7628472" lon="11.1927161"><ele>40.75</ele><time>2026-04-26T07:13:57.625Z</time></trkpt><trkpt lat="43.7628779" lon="11.1929199"><ele>40.0</ele><time>2026-04-26T07:13:58.639Z</time></trkpt><trkpt lat="43.7629121" lon="11.193133"><ele>40.66666666666667</ele><time>2026-04-26T07:13:59.627Z</time></trkpt><trkpt lat="43.7629474" lon="11.1933533"><ele>41.333333333333336</ele><time>2026-04-26T07:14:00.649Z</time></trkpt><trkpt lat="43.7629839" lon="11.1935805"><ele>42.0</ele><time>2026-04-26T07:14:01.636Z</time></trkpt><trkpt lat="43.7630111" lon="11.1938128"><ele>42.0</ele><time>2026-04-26T07:14:02.636Z</time></trkpt><trkpt lat="43.7630479" lon="11.1940448"><ele>42.0</ele><time>2026-04-26T07:14:03.63Z</time></trkpt><trkpt lat="43.7630828" lon="11.194275"><ele>42.0</ele><time>2026-04-26T07:14:04.638Z</time></trkpt><trkpt lat="43.7631238" lon="11.1944964"><ele>42.0</ele><time>2026-04-26T07:14:05.63Z</time></trkpt><trkpt lat="43.7631754" lon="11.1947136"><ele>42.0</ele><time>2026-04-26T07:14:06.633Z</time></trkpt><trkpt lat="43.7632336" lon="11.1949181"><ele>42.0</ele><time>2026-04-26T07:14:07.642Z</time></trkpt><trkpt lat="43.7632923" lon="11.195122"><ele>41.75</ele><time>2026-04-26T07:14:08.634Z</time></trkpt><trkpt lat="43.763341" lon="11.1953191"><ele>41.5</ele><time>2026-04-26T07:14:09.642Z</time></trkpt><trkpt lat="43.76339" lon="11.1955082"><ele>41.25</ele><time>2026-04-26T07:14:10.647Z</time></trkpt><trkpt lat="43.7634186" lon="11.1956923"><ele>41.0</ele><time>2026-04-26T07:14:11.634Z</time></trkpt><trkpt lat="43.7634267" lon="11.1958736"><ele>41.0</ele><time>2026-04-26T07:14:12.632Z</time></trkpt><trkpt lat="43.763418" lon="11.1960433"><ele>41.0</ele><time>2026-04-26T07:14:13.635Z</time></trkpt><trkpt lat="43.7634059" lon="11.1962068"><ele>41.0</ele><time>2026-04-26T07:14:14.643Z</time></trkpt><trkpt lat="43.7633982" lon="11.1963543"><ele>41.0</ele><time>2026-04-26T07:14:15.642Z</time></trkpt><trkpt lat="43.7634068" lon="11.1965057"><ele>40.8</ele><time>2026-04-26T07:14:16.633Z</time></trkpt><trkpt lat="43.7634365" lon="11.196653"><ele>40.599999999999994</ele><time>2026-04-26T07:14:17.659Z</time></trkpt><trkpt lat="43.7634858" lon="11.1967896"><ele>40.4</ele><time>2026-04-26T07:14:18.63Z</time></trkpt><trkpt lat="43.7635447" lon="11.1969201"><ele>40.2</ele><time>2026-04-26T07:14:19.641Z</time></trkpt><trkpt lat="43.7636165" lon="11.1970443"><ele>40.0</ele><time>2026-04-26T07:14:20.623Z</time></trkpt><trkpt lat="43.7636887" lon="11.19717"><ele>39.75</ele><time>2026-04-26T07:14:21.648Z</time></trkpt><trkpt lat="43.7637619" lon="11.1973006"><ele>39.5</ele><time>2026-04-26T07:14:22.664Z</time></trkpt><trkpt lat="43.7638327" lon="11.1974395"><ele>39.25</ele><time>2026-04-26T07:14:23.653Z</time></trkpt><trkpt lat="43.7638892" lon="11.1976116"><ele>39.0</ele><time>2026-04-26T07:14:24.657Z</time></trkpt><trkpt lat="43.7639446" lon="11.1977737"><ele>39.0</ele><time>2026-04-26T07:14:25.645Z</time></trkpt><trkpt lat="43.7639996" lon="11.1979416"><ele>39.0</ele><time>2026-04-26T07:14:26.644Z</time></trkpt><trkpt lat="43.7640461" lon="11.1981139"><ele>39.0</ele><time>2026-04-26T07:14:27.655Z</time></trkpt><trkpt lat="43.7640867" lon="11.1982948"><ele>39.0</ele><time>2026-04-26T07:14:28.636Z</time></trkpt><trkpt lat="43.7641193" lon="11.1984779"><ele>38.75</ele><time>2026-04-26T07:14:29.646Z</time></trkpt><trkpt lat="43.7641411" lon="11.1986647"><ele>38.5</ele><time>2026-04-26T07:14:30.64Z</time></trkpt><trkpt lat="43.7641524" lon="11.1988454"><ele>38.25</ele><time>2026-04-26T07:14:31.631Z</time></trkpt><trkpt lat="43.7641522" lon="11.1990204"><ele>38.0</ele><time>2026-04-26T07:14:32.645Z</time></trkpt><trkpt lat="43.7641445" lon="11.1991878"><ele>38.0</ele><time>2026-04-26T07:14:33.653Z</time></trkpt><trkpt lat="43.7641243" lon="11.19934"><ele>38.0</ele><time>2026-04-26T07:14:34.629Z</time></trkpt><trkpt lat="43.7641032" lon="11.1994712"><ele>38.0</ele><time>2026-04-26T07:14:35.629Z</time></trkpt><trkpt lat="43.7640969" lon="11.1995916"><ele>38.0</ele><time>2026-04-26T07:14:36.636Z</time></trkpt><trkpt lat="43.7641066" lon="11.1996955"><ele>38.0</ele><time>2026-04-26T07:14:37.619Z</time></trkpt><trkpt lat="43.7641364" lon="11.1997848"><ele>38.0</ele><time>2026-04-26T07:14:38.629Z</time></trkpt><trkpt lat="43.764173" lon="11.1998613"><ele>38.4</ele><time>2026-04-26T07:14:39.645Z</time></trkpt><trkpt lat="43.7642724" lon="11.1999855"><ele>38.8</ele><time>2026-04-26T07:14:41.637Z</time></trkpt><trkpt lat="43.7643303" lon="11.2000698"><ele>39.2</ele><time>2026-04-26T07:14:42.644Z</time></trkpt><trkpt lat="43.7643834" lon="11.2001702"><ele>39.6</ele><time>2026-04-26T07:14:43.629Z</time></trkpt><trkpt lat="43.7644214" lon="11.2002899"><ele>40.0</ele><time>2026-04-26T07:14:44.644Z</time></trkpt><trkpt lat="43.7644414" lon="11.2004271"><ele>40.25</ele><time>2026-04-26T07:14:45.636Z</time></trkpt><trkpt lat="43.7644503" lon="11.2005818"><ele>40.5</ele><time>2026-04-26T07:14:46.638Z</time></trkpt><trkpt lat="43.7644625" lon="11.20075"><ele>40.75</ele><time>2026-04-26T07:14:47.645Z</time></trkpt><trkpt lat="43.7644742" lon="11.200931"><ele>41.0</ele><time>2026-04-26T07:14:48.639Z</time></trkpt><trkpt lat="43.7644864" lon="11.2011151"><ele>41.25</ele><time>2026-04-26T07:14:49.632Z</time></trkpt><trkpt lat="43.7645033" lon="11.2013006"><ele>41.5</ele><time>2026-04-26T07:14:50.643Z</time></trkpt><trkpt lat="43.7645203" lon="11.2014936"><ele>41.75</ele><time>2026-04-26T07:14:51.634Z</time></trkpt><trkpt lat="43.7645377" lon="11.2016926"><ele>42.0</ele><time>2026-04-26T07:14:52.657Z</time></trkpt><trkpt lat="43.7645566" lon="11.2018962"><ele>41.666666666666664</ele><time>2026-04-26T07:14:53.642Z</time></trkpt><trkpt lat="43.7645774" lon="11.2021049"><ele>41.33333333333333</ele><time>2026-04-26T07:14:54.639Z</time></trkpt><trkpt lat="43.764599" lon="11.2023182"><ele>41.0</ele><time>2026-04-26T07:14:55.641Z</time></trkpt><trkpt lat="43.764619" lon="11.2025375"><ele>41.0</ele><time>2026-04-26T07:14:56.668Z</time></trkpt><trkpt lat="43.7646393" lon="11.202763"><ele>41.0</ele><time>2026-04-26T07:14:57.642Z</time></trkpt><trkpt lat="43.7646574" lon="11.2029919"><ele>41.0</ele><time>2026-04-26T07:14:58.64Z</time></trkpt><trkpt lat="43.7646769" lon="11.2032214"><ele>41.0</ele><time>2026-04-26T07:14:59.64Z</time></trkpt><trkpt lat="43.7646959" lon="11.2034522"><ele>41.0</ele><time>2026-04-26T07:15:00.641Z</time></trkpt><trkpt lat="43.7647175" lon="11.2036844"><ele>41.0</ele><time>2026-04-26T07:15:01.653Z</time></trkpt><trkpt lat="43.7647417" lon="11.2039184"><ele>41.33333333333333</ele><time>2026-04-26T07:15:02.656Z</time></trkpt><trkpt lat="43.7647716" lon="11.2041511"><ele>41.666666666666664</ele><time>2026-04-26T07:15:03.647Z</time></trkpt><trkpt lat="43.7648005" lon="11.2043847"><ele>42.0</ele><time>2026-04-26T07:15:04.647Z</time></trkpt><trkpt lat="43.7648355" lon="11.204618"><ele>41.333333333333336</ele><time>2026-04-26T07:15:05.637Z</time></trkpt><trkpt lat="43.7648726" lon="11.20485"><ele>40.66666666666667</ele><time>2026-04-26T07:15:06.639Z</time></trkpt><trkpt lat="43.7649091" lon="11.2050818"><ele>40.0</ele><time>2026-04-26T07:15:07.639Z</time></trkpt><trkpt lat="43.7649465" lon="11.2053131"><ele>40.0</ele><time>2026-04-26T07:15:08.634Z</time></trkpt><trkpt lat="43.7649852" lon="11.2055373"><ele>40.0</ele><time>2026-04-26T07:15:09.634Z</time></trkpt><trkpt lat="43.7650346" lon="11.2057581"><ele>40.0</ele><time>2026-04-26T07:15:10.645Z</time></trkpt><trkpt lat="43.7650987" lon="11.205969"><ele>40.0</ele><time>2026-04-26T07:15:11.63Z</time></trkpt><trkpt lat="43.7651728" lon="11.2061723"><ele>40.0</ele><time>2026-04-26T07:15:12.648Z</time></trkpt><trkpt lat="43.7652551" lon="11.2063656"><ele>40.0</ele><time>2026-04-26T07:15:13.632Z</time></trkpt><trkpt lat="43.7653481" lon="11.2065493"><ele>40.0</ele><time>2026-04-26T07:15:14.627Z</time></trkpt><trkpt lat="43.7654454" lon="11.2067292"><ele>40.0</ele><time>2026-04-26T07:15:15.656Z</time></trkpt><trkpt lat="43.765541" lon="11.2069049"><ele>40.0</ele><time>2026-04-26T07:15:16.641Z</time></trkpt><trkpt lat="43.7656402" lon="11.2070822"><ele>40.0</ele><time>2026-04-26T07:15:17.65Z</time></trkpt><trkpt lat="43.7657382" lon="11.2072604"><ele>40.0</ele><time>2026-04-26T07:15:18.64Z</time></trkpt><trkpt lat="43.7658328" lon="11.2074397"><ele>40.0</ele><time>2026-04-26T07:15:19.637Z</time></trkpt><trkpt lat="43.7659319" lon="11.2076197"><ele>40.66666666666667</ele><time>2026-04-26T07:15:20.651Z</time></trkpt><trkpt lat="43.7660373" lon="11.2077871"><ele>41.333333333333336</ele><time>2026-04-26T07:15:21.636Z</time></trkpt><trkpt lat="43.7661471" lon="11.2079492"><ele>42.0</ele><time>2026-04-26T07:15:22.643Z</time></trkpt><trkpt lat="43.7662598" lon="11.2080983"><ele>41.666666666666664</ele><time>2026-04-26T07:15:23.64Z</time></trkpt><trkpt lat="43.7663714" lon="11.2082436"><ele>41.33333333333333</ele><time>2026-04-26T07:15:24.63Z</time></trkpt><trkpt lat="43.7664836" lon="11.2083839"><ele>41.0</ele><time>2026-04-26T07:15:25.649Z</time></trkpt><trkpt lat="43.7665933" lon="11.2085161"><ele>41.0</ele><time>2026-04-26T07:15:26.646Z</time></trkpt><trkpt lat="43.7667004" lon="11.2086484"><ele>41.0</ele><time>2026-04-26T07:15:27.633Z</time></trkpt><trkpt lat="43.7668063" lon="11.208774"><ele>41.0</ele><time>2026-04-26T07:15:28.637Z</time></trkpt><trkpt lat="43.7669062" lon="11.2088949"><ele>41.0</ele><time>2026-04-26T07:15:29.642Z</time></trkpt><trkpt lat="43.7670035" lon="11.209013"><ele>41.199999999999996</ele><time>2026-04-26T07:15:30.656Z</time></trkpt><trkpt lat="43.7670899" lon="11.2091302"><ele>41.4</ele><time>2026-04-26T07:15:31.634Z</time></trkpt><trkpt lat="43.7671623" lon="11.2092474"><ele>41.6</ele><time>2026-04-26T07:15:32.641Z</time></trkpt><trkpt lat="43.7672243" lon="11.2093637"><ele>41.8</ele><time>2026-04-26T07:15:33.633Z</time></trkpt><trkpt lat="43.7672594" lon="11.2094846"><ele>42.0</ele><time>2026-04-26T07:15:34.632Z</time></trkpt><trkpt lat="43.7672638" lon="11.2096073"><ele>42.0</ele><time>2026-04-26T07:15:35.626Z</time></trkpt><trkpt lat="43.7672419" lon="11.2097282"><ele>42.0</ele><time>2026-04-26T07:15:36.619Z</time></trkpt><trkpt lat="43.7672065" lon="11.2098517"><ele>42.0</ele><time>2026-04-26T07:15:37.613Z</time></trkpt><trkpt lat="43.7671709" lon="11.209975"><ele>42.0</ele><time>2026-04-26T07:15:38.631Z</time></trkpt><trkpt lat="43.7671264" lon="11.2101125"><ele>42.0</ele><time>2026-04-26T07:15:39.634Z</time></trkpt><trkpt lat="43.7670794" lon="11.2102501"><ele>42.25</ele><time>2026-04-26T07:15:40.617Z</time></trkpt><trkpt lat="43.7670288" lon="11.2103953"><ele>42.5</ele><time>2026-04-26T07:15:41.638Z</time></trkpt><trkpt lat="43.7669768" lon="11.2105453"><ele>42.75</ele><time>2026-04-26T07:15:42.634Z</time></trkpt><trkpt lat="43.7669278" lon="11.2106941"><ele>43.0</ele><time>2026-04-26T07:15:43.633Z</time></trkpt><trkpt lat="43.7668754" lon="11.2108382"><ele>43.0</ele><time>2026-04-26T07:15:44.621Z</time></trkpt><trkpt lat="43.766828" lon="11.2109795"><ele>43.0</ele><time>2026-04-26T07:15:45.629Z</time></trkpt><trkpt lat="43.7667833" lon="11.2111238"><ele>43.0</ele><time>2026-04-26T07:15:46.627Z</time></trkpt><trkpt lat="43.7667332" lon="11.2112596"><ele>43.0</ele><time>2026-04-26T07:15:47.644Z</time></trkpt><trkpt lat="43.7666888" lon="11.2113999"><ele>43.0</ele><time>2026-04-26T07:15:48.627Z</time></trkpt><trkpt lat="43.7666404" lon="11.2115426"><ele>43.0</ele><time>2026-04-26T07:15:49.625Z</time></trkpt><trkpt lat="43.7665959" lon="11.2116877"><ele>43.0</ele><time>2026-04-26T07:15:50.64Z</time></trkpt><trkpt lat="43.7665091" lon="11.2119591"><ele>43.0</ele><time>2026-04-26T07:15:52.621Z</time></trkpt><trkpt lat="43.7664674" lon="11.2120881"><ele>43.0</ele><time>2026-04-26T07:15:53.629Z</time></trkpt><trkpt lat="43.7663975" lon="11.2123015"><ele>43.16666666666667</ele><time>2026-04-26T07:15:55.628Z</time></trkpt><trkpt lat="43.7663704" lon="11.2123872"><ele>43.333333333333336</ele><time>2026-04-26T07:15:56.634Z</time></trkpt><trkpt lat="43.7663313" lon="11.2124969"><ele>43.5</ele><time>2026-04-26T07:15:58.639Z</time></trkpt><trkpt lat="43.7663062" lon="11.2125807"><ele>43.666666666666664</ele><time>2026-04-26T07:16:08.63Z</time></trkpt><trkpt lat="43.7662653" lon="11.2126869"><ele>43.83333333333333</ele><time>2026-04-26T07:16:10.628Z</time></trkpt><trkpt lat="43.7662091" lon="11.2128322"><ele>44.0</ele><time>2026-04-26T07:16:12.633Z</time></trkpt><trkpt lat="43.7661743" lon="11.212922"><ele>44.0</ele><time>2026-04-26T07:16:13.641Z</time></trkpt><trkpt lat="43.7661404" lon="11.2130123"><ele>44.0</ele><time>2026-04-26T07:16:14.629Z</time></trkpt><trkpt lat="43.7660989" lon="11.2131195"><ele>44.0</ele><time>2026-04-26T07:16:15.637Z</time></trkpt><trkpt lat="43.7660609" lon="11.2132231"><ele>44.0</ele><time>2026-04-26T07:16:16.626Z</time></trkpt><trkpt lat="43.7660257" lon="11.2133144"><ele>44.0</ele><time>2026-04-26T07:16:17.63Z</time></trkpt><trkpt lat="43.7659874" lon="11.2134064"><ele>44.0</ele><time>2026-04-26T07:16:18.637Z</time></trkpt><trkpt lat="43.7659504" lon="11.2134945"><ele>43.83333333333333</ele><time>2026-04-26T07:16:19.639Z</time></trkpt><trkpt lat="43.765914" lon="11.2135832"><ele>43.666666666666664</ele><time>2026-04-26T07:16:20.634Z</time></trkpt><trkpt lat="43.7658751" lon="11.2136815"><ele>43.5</ele><time>2026-04-26T07:16:21.633Z</time></trkpt><trkpt lat="43.7658384" lon="11.2137782"><ele>43.333333333333336</ele><time>2026-04-26T07:16:22.649Z</time></trkpt><trkpt lat="43.7657986" lon="11.2138715"><ele>43.16666666666667</ele><time>2026-04-26T07:16:23.645Z</time></trkpt><trkpt lat="43.7657613" lon="11.2139664"><ele>43.0</ele><time>2026-04-26T07:16:24.637Z</time></trkpt><trkpt lat="43.765725" lon="11.2140617"><ele>42.833333333333336</ele><time>2026-04-26T07:16:25.644Z</time></trkpt><trkpt lat="43.7656879" lon="11.2141606"><ele>42.66666666666667</ele><time>2026-04-26T07:16:26.632Z</time></trkpt><trkpt lat="43.7656512" lon="11.2142598"><ele>42.5</ele><time>2026-04-26T07:16:27.621Z</time></trkpt><trkpt lat="43.7656149" lon="11.2143511"><ele>42.333333333333336</ele><time>2026-04-26T07:16:28.669Z</time></trkpt><trkpt lat="43.7655853" lon="11.2144371"><ele>42.166666666666664</ele><time>2026-04-26T07:16:29.652Z</time></trkpt><trkpt lat="43.7655645" lon="11.214604"><ele>42.0</ele><time>2026-04-26T07:16:31.645Z</time></trkpt><trkpt lat="43.7655903" lon="11.2146849"><ele>42.0</ele><time>2026-04-26T07:16:32.656Z</time></trkpt><trkpt lat="43.7656381" lon="11.2147551"><ele>42.0</ele><time>2026-04-26T07:16:33.63Z</time></trkpt><trkpt lat="43.7657011" lon="11.2148082"><ele>42.0</ele><time>2026-04-26T07:16:34.626Z</time></trkpt><trkpt lat="43.7657712" lon="11.2148631"><ele>42.0</ele><time>2026-04-26T07:16:35.647Z</time></trkpt><trkpt lat="43.7658497" lon="11.2149088"><ele>42.0</ele><time>2026-04-26T07:16:36.619Z</time></trkpt><trkpt lat="43.7659272" lon="11.2149614"><ele>42.0</ele><time>2026-04-26T07:16:37.65Z</time></trkpt><trkpt lat="43.7660059" lon="11.2150147"><ele>42.666666666666664</ele><time>2026-04-26T07:16:38.642Z</time></trkpt><trkpt lat="43.7660861" lon="11.2150696"><ele>43.333333333333336</ele><time>2026-04-26T07:16:39.636Z</time></trkpt><trkpt lat="43.7661635" lon="11.2151272"><ele>44.0</ele><time>2026-04-26T07:16:40.66Z</time></trkpt><trkpt lat="43.7662366" lon="11.2151827"><ele>44.66666666666667</ele><time>2026-04-26T07:16:41.608Z</time></trkpt><trkpt lat="43.7663102" lon="11.2152387"><ele>45.333333333333336</ele><time>2026-04-26T07:16:42.638Z</time></trkpt><trkpt lat="43.7663804" lon="11.215289"><ele>46.0</ele><time>2026-04-26T07:16:43.608Z</time></trkpt><trkpt lat="43.7664487" lon="11.2153333"><ele>46.0</ele><time>2026-04-26T07:16:44.623Z</time></trkpt><trkpt lat="43.7665121" lon="11.2153734"><ele>46.0</ele><time>2026-04-26T07:16:45.626Z</time></trkpt><trkpt lat="43.7666106" lon="11.215455"><ele>46.0</ele><time>2026-04-26T07:16:47.613Z</time></trkpt><trkpt lat="43.7666819" lon="11.2155297"><ele>46.0</ele><time>2026-04-26T07:16:49.632Z</time></trkpt><trkpt lat="43.7666696" lon="11.215643"><ele>46.0</ele><time>2026-04-26T07:16:51.621Z</time></trkpt><trkpt lat="43.7665977" lon="11.2157947"><ele>46.16666666666667</ele><time>2026-04-26T07:16:53.643Z</time></trkpt><trkpt lat="43.7665571" lon="11.2158836"><ele>46.333333333333336</ele><time>2026-04-26T07:16:54.625Z</time></trkpt><trkpt lat="43.7665149" lon="11.2159768"><ele>46.5</ele><time>2026-04-26T07:16:55.659Z</time></trkpt><trkpt lat="43.7664717" lon="11.2160784"><ele>46.666666666666664</ele><time>2026-04-26T07:16:56.644Z</time></trkpt><trkpt lat="43.766431" lon="11.2161891"><ele>46.83333333333333</ele><time>2026-04-26T07:16:57.651Z</time></trkpt><trkpt lat="43.7663873" lon="11.2162996"><ele>47.0</ele><time>2026-04-26T07:16:58.642Z</time></trkpt><trkpt lat="43.7663393" lon="11.2164109"><ele>47.0</ele><time>2026-04-26T07:16:59.645Z</time></trkpt><trkpt lat="43.7662958" lon="11.2165257"><ele>47.0</ele><time>2026-04-26T07:17:00.641Z</time></trkpt><trkpt lat="43.7662541" lon="11.2166378"><ele>47.0</ele><time>2026-04-26T07:17:01.643Z</time></trkpt><trkpt lat="43.7662085" lon="11.2167552"><ele>47.0</ele><time>2026-04-26T07:17:02.631Z</time></trkpt><trkpt lat="43.7661593" lon="11.2168772"><ele>47.0</ele><time>2026-04-26T07:17:03.642Z</time></trkpt><trkpt lat="43.7661108" lon="11.2169979"><ele>47.0</ele><time>2026-04-26T07:17:04.643Z</time></trkpt><trkpt lat="43.7660636" lon="11.217126"><ele>47.0</ele><time>2026-04-26T07:17:05.644Z</time></trkpt><trkpt lat="43.7660149" lon="11.217251"><ele>47.0</ele><time>2026-04-26T07:17:06.655Z</time></trkpt><trkpt lat="43.765965" lon="11.2173727"><ele>47.0</ele><time>2026-04-26T07:17:07.624Z</time></trkpt><trkpt lat="43.7659176" lon="11.2174915"><ele>47.0</ele><time>2026-04-26T07:17:08.625Z</time></trkpt><trkpt lat="43.7658718" lon="11.2176092"><ele>47.0</ele><time>2026-04-26T07:17:09.614Z</time></trkpt><trkpt lat="43.7658316" lon="11.2177251"><ele>47.0</ele><time>2026-04-26T07:17:10.641Z</time></trkpt><trkpt lat="43.7657821" lon="11.2178405"><ele>47.0</ele><time>2026-04-26T07:17:11.63Z</time></trkpt><trkpt lat="43.7657385" lon="11.2179526"><ele>47.0</ele><time>2026-04-26T07:17:12.655Z</time></trkpt><trkpt lat="43.7657015" lon="11.2180574"><ele>47.0</ele><time>2026-04-26T07:17:13.644Z</time></trkpt><trkpt lat="43.7656751" lon="11.2181389"><ele>47.0</ele><time>2026-04-26T07:17:14.618Z</time></trkpt><trkpt lat="43.7656758" lon="11.2182654"><ele>47.0</ele><time>2026-04-26T07:17:16.643Z</time></trkpt><trkpt lat="43.7657785" lon="11.2183542"><ele>47.0</ele><time>2026-04-26T07:17:18.633Z</time></trkpt><trkpt lat="43.7658514" lon="11.2184037"><ele>47.0</ele><time>2026-04-26T07:17:19.642Z</time></trkpt><trkpt lat="43.7659299" lon="11.2184534"><ele>47.0</ele><time>2026-04-26T07:17:20.628Z</time></trkpt><trkpt lat="43.7660182" lon="11.2185012"><ele>47.0</ele><time>2026-04-26T07:17:21.641Z</time></trkpt><trkpt lat="43.7661086" lon="11.2185609"><ele>47.166666666666664</ele><time>2026-04-26T07:17:22.647Z</time></trkpt><trkpt lat="43.7661969" lon="11.2186222"><ele>47.33333333333333</ele><time>2026-04-26T07:17:23.636Z</time></trkpt><trkpt lat="43.7662773" lon="11.2186672"><ele>47.5</ele><time>2026-04-26T07:17:24.632Z</time></trkpt><trkpt lat="43.7663481" lon="11.2187114"><ele>47.666666666666664</ele><time>2026-04-26T07:17:25.648Z</time></trkpt><trkpt lat="43.7664122" lon="11.2187592"><ele>47.833333333333336</ele><time>2026-04-26T07:17:26.639Z</time></trkpt><trkpt lat="43.7665087" lon="11.2188208"><ele>48.0</ele><time>2026-04-26T07:17:28.638Z</time></trkpt><trkpt lat="43.7665731" lon="11.2188341"><ele>48.0</ele><time>2026-04-26T07:17:32.617Z</time></trkpt><trkpt lat="43.7666555" lon="11.2187565"><ele>48.0</ele><time>2026-04-26T07:17:35.617Z</time></trkpt><trkpt lat="43.7667032" lon="11.2186269"><ele>48.0</ele><time>2026-04-26T07:17:37.63Z</time></trkpt><trkpt lat="43.7667538" lon="11.2184806"><ele>48.0</ele><time>2026-04-26T07:17:39.643Z</time></trkpt><trkpt lat="43.7668338" lon="11.218386"><ele>48.0</ele><time>2026-04-26T07:17:41.622Z</time></trkpt><trkpt lat="43.7669262" lon="11.2183377"><ele>47.833333333333336</ele><time>2026-04-26T07:17:43.636Z</time></trkpt><trkpt lat="43.7669928" lon="11.2183048"><ele>47.666666666666664</ele><time>2026-04-26T07:17:46.627Z</time></trkpt><trkpt lat="43.7670368" lon="11.2182262"><ele>47.5</ele><time>2026-04-26T07:17:50.642Z</time></trkpt><trkpt lat="43.7670502" lon="11.2181097"><ele>47.33333333333333</ele><time>2026-04-26T07:17:52.638Z</time></trkpt><trkpt lat="43.7670354" lon="11.2179968"><ele>47.166666666666664</ele><time>2026-04-26T07:17:54.626Z</time></trkpt><trkpt lat="43.7670235" lon="11.2179031"><ele>47.0</ele><time>2026-04-26T07:17:56.623Z</time></trkpt><trkpt lat="43.7670145" lon="11.2178065"><ele>46.83333333333333</ele><time>2026-04-26T07:18:00.616Z</time></trkpt><trkpt lat="43.7670301" lon="11.2177111"><ele>46.666666666666664</ele><time>2026-04-26T07:18:04.639Z</time></trkpt><trkpt lat="43.767068" lon="11.2176132"><ele>46.5</ele><time>2026-04-26T07:18:07.631Z</time></trkpt><trkpt lat="43.7671058" lon="11.2174919"><ele>46.333333333333336</ele><time>2026-04-26T07:18:10.634Z</time></trkpt><trkpt lat="43.7671362" lon="11.2174007"><ele>46.16666666666667</ele><time>2026-04-26T07:18:12.628Z</time></trkpt><trkpt lat="43.7671705" lon="11.2173095"><ele>46.0</ele><time>2026-04-26T07:18:14.644Z</time></trkpt><trkpt lat="43.7672091" lon="11.217219"><ele>45.8</ele><time>2026-04-26T07:18:16.635Z</time></trkpt><trkpt lat="43.767262" lon="11.2171231"><ele>45.599999999999994</ele><time>2026-04-26T07:18:19.64Z</time></trkpt><trkpt lat="43.7673025" lon="11.2170178"><ele>45.4</ele><time>2026-04-26T07:18:22.611Z</time></trkpt><trkpt lat="43.7673553" lon="11.2169166"><ele>45.2</ele><time>2026-04-26T07:18:24.628Z</time></trkpt><trkpt lat="43.7674035" lon="11.2168147"><ele>45.0</ele><time>2026-04-26T07:18:26.632Z</time></trkpt><trkpt lat="43.7674672" lon="11.2166895"><ele>45.0</ele><time>2026-04-26T07:18:28.637Z</time></trkpt><trkpt lat="43.7675227" lon="11.2165803"><ele>45.0</ele><time>2026-04-26T07:18:30.608Z</time></trkpt><trkpt lat="43.7675752" lon="11.216496"><ele>45.0</ele><time>2026-04-26T07:18:32.621Z</time></trkpt><trkpt lat="43.767613" lon="11.2164221"><ele>45.0</ele><time>2026-04-26T07:18:34.644Z</time></trkpt><trkpt lat="43.7676552" lon="11.2163291"><ele>45.0</ele><time>2026-04-26T07:18:37.631Z</time></trkpt><trkpt lat="43.7676509" lon="11.2162376"><ele>45.0</ele><time>2026-04-26T07:18:42.621Z</time></trkpt><trkpt lat="43.7676476" lon="11.2161416"><ele>45.0</ele><time>2026-04-26T07:18:47.638Z</time></trkpt><trkpt lat="43.7676003" lon="11.2162065"><ele>45.0</ele><time>2026-04-26T07:19:14.562Z</time></trkpt><trkpt lat="43.7675993" lon="11.216308"><ele>45.0</ele><time>2026-04-26T07:19:27.576Z</time></trkpt><trkpt lat="43.767593" lon="11.2164087"><ele>45.0</ele><time>2026-04-26T07:19:36.6Z</time></trkpt><trkpt lat="43.7675543" lon="11.2164904"><ele>45.0</ele><time>2026-04-26T07:19:42.609Z</time></trkpt><trkpt lat="43.7675533" lon="11.2165796"><ele>45.0</ele><time>2026-04-26T07:19:47.554Z</time></trkpt><trkpt lat="43.7675146" lon="11.2166559"><ele>45.0</ele><time>2026-04-26T07:19:54.58Z</time></trkpt><trkpt lat="43.7674731" lon="11.2167282"><ele>45.0</ele><time>2026-04-26T07:19:57.577Z</time></trkpt><trkpt lat="43.7674354" lon="11.2168032"><ele>45.0</ele><time>2026-04-26T07:20:03.632Z</time></trkpt><trkpt lat="43.7673914" lon="11.2168853"><ele>45.0</ele><time>2026-04-26T07:20:09.618Z</time></trkpt><trkpt lat="43.7673522" lon="11.2169633"><ele>45.0</ele><time>2026-04-26T07:20:15.588Z</time></trkpt><trkpt lat="43.7673122" lon="11.2170506"><ele>45.0</ele><time>2026-04-26T07:20:21.584Z</time></trkpt><trkpt lat="43.7672725" lon="11.2171328"><ele>45.0</ele><time>2026-04-26T07:20:27.614Z</time></trkpt><trkpt lat="43.767234" lon="11.2172083"><ele>45.0</ele><time>2026-04-26T07:20:32.607Z</time></trkpt><trkpt lat="43.7671974" lon="11.2172844"><ele>45.14285714285714</ele><time>2026-04-26T07:20:39.621Z</time></trkpt><trkpt lat="43.7671695" lon="11.2173812"><ele>45.28571428571429</ele><time>2026-04-26T07:20:44.528Z</time></trkpt><trkpt lat="43.7671494" lon="11.2174818"><ele>45.42857142857143</ele><time>2026-04-26T07:20:49.612Z</time></trkpt><trkpt lat="43.7671254" lon="11.2175703"><ele>45.57142857142857</ele><time>2026-04-26T07:20:54.62Z</time></trkpt><trkpt lat="43.7671021" lon="11.2176516"><ele>45.71428571428571</ele><time>2026-04-26T07:20:59.612Z</time></trkpt><trkpt lat="43.7671182" lon="11.2177464"><ele>45.85714285714286</ele><time>2026-04-26T07:21:06.614Z</time></trkpt><trkpt lat="43.7670922" lon="11.2178259"><ele>46.0</ele><time>2026-04-26T07:23:03.582Z</time></trkpt><trkpt lat="43.7671056" lon="11.2179159"><ele>46.0</ele><time>2026-04-26T07:23:21.587Z</time></trkpt><trkpt lat="43.7671762" lon="11.2179222"><ele>46.0</ele><time>2026-04-26T07:23:36.577Z</time></trkpt><trkpt lat="43.7671419" lon="11.2180289"><ele>46.0</ele><time>2026-04-26T07:23:47.595Z</time></trkpt><trkpt lat="43.7670492" lon="11.2180188"><ele>46.0</ele><time>2026-04-26T07:23:55.587Z</time></trkpt><trkpt lat="43.7671321" lon="11.2179108"><ele>46.0</ele><time>2026-04-26T07:24:10.579Z</time></trkpt><trkpt lat="43.7671934" lon="11.2179546"><ele>46.0</ele><time>2026-04-26T07:25:12.561Z</time></trkpt><trkpt lat="43.7671937" lon="11.217691"><ele>46.0</ele><time>2026-04-26T07:30:13.172Z</time></trkpt><trkpt lat="43.7671884" lon="11.2178859"><ele>46.0</ele><time>2026-04-26T07:30:59.656Z</time></trkpt><trkpt lat="43.767265" lon="11.2179791"><ele>46.0</ele><time>2026-04-26T07:31:16.574Z</time></trkpt><trkpt lat="43.7672107" lon="11.2180767"><ele>46.0</ele><time>2026-04-26T07:31:18.568Z</time></trkpt><trkpt lat="43.7671523" lon="11.2181482"><ele>46.0</ele><time>2026-04-26T07:31:20.57Z</time></trkpt><trkpt lat="43.76709" lon="11.2182007"><ele>46.0</ele><time>2026-04-26T07:31:22.577Z</time></trkpt><trkpt lat="43.767157" lon="11.2181468"><ele>46.0</ele><time>2026-04-26T07:32:00.567Z</time></trkpt><trkpt lat="43.7672062" lon="11.2180648"><ele>46.0</ele><time>2026-04-26T07:32:04.581Z</time></trkpt><trkpt lat="43.7672464" lon="11.2179957"><ele>46.0</ele><time>2026-04-26T07:32:10.561Z</time></trkpt><trkpt lat="43.7671979" lon="11.2180782"><ele>46.0</ele><time>2026-04-26T07:32:23.579Z</time></trkpt><trkpt lat="43.7671883" lon="11.2179828"><ele>46.0</ele><time>2026-04-26T07:32:33.589Z</time></trkpt><trkpt lat="43.7671623" lon="11.2178312"><ele>46.0</ele><time>2026-04-26T07:32:38.596Z</time></trkpt><trkpt lat="43.7671293" lon="11.2177564"><ele>46.0</ele><time>2026-04-26T07:32:45.572Z</time></trkpt><trkpt lat="43.7670918" lon="11.2176824"><ele>46.0</ele><time>2026-04-26T07:35:19.596Z</time></trkpt><trkpt lat="43.7671412" lon="11.2176141"><ele>46.0</ele><time>2026-04-26T07:35:27.617Z</time></trkpt><trkpt lat="43.7671764" lon="11.2175331"><ele>46.0</ele><time>2026-04-26T07:35:33.616Z</time></trkpt><trkpt lat="43.7672099" lon="11.2174489"><ele>46.0</ele><time>2026-04-26T07:35:38.621Z</time></trkpt><trkpt lat="43.7672506" lon="11.2173668"><ele>46.0</ele><time>2026-04-26T07:35:43.58Z</time></trkpt><trkpt lat="43.7672666" lon="11.2172808"><ele>45.85714285714286</ele><time>2026-04-26T07:35:47.608Z</time></trkpt><trkpt lat="43.7672699" lon="11.2171798"><ele>45.71428571428571</ele><time>2026-04-26T07:35:51.626Z</time></trkpt><trkpt lat="43.7673094" lon="11.2170963"><ele>45.57142857142857</ele><time>2026-04-26T07:35:57.6Z</time></trkpt><trkpt lat="43.7673443" lon="11.2170097"><ele>45.42857142857143</ele><time>2026-04-26T07:36:02.61Z</time></trkpt><trkpt lat="43.7673777" lon="11.2169292"><ele>45.28571428571429</ele><time>2026-04-26T07:36:06.607Z</time></trkpt><trkpt lat="43.7674185" lon="11.2168397"><ele>45.14285714285714</ele><time>2026-04-26T07:36:11.579Z</time></trkpt><trkpt lat="43.7674564" lon="11.2167574"><ele>45.0</ele><time>2026-04-26T07:36:16.62Z</time></trkpt><trkpt lat="43.7674942" lon="11.2166841"><ele>45.0</ele><time>2026-04-26T07:36:21.605Z</time></trkpt><trkpt lat="43.7675331" lon="11.2166031"><ele>45.0</ele><time>2026-04-26T07:36:26.612Z</time></trkpt><trkpt lat="43.7675432" lon="11.2165073"><ele>45.0</ele><time>2026-04-26T07:36:33.538Z</time></trkpt><trkpt lat="43.7675822" lon="11.2164346"><ele>45.0</ele><time>2026-04-26T07:36:38.628Z</time></trkpt><trkpt lat="43.7676185" lon="11.2163525"><ele>45.0</ele><time>2026-04-26T07:36:43.592Z</time></trkpt><trkpt lat="43.76763" lon="11.2162556"><ele>45.0</ele><time>2026-04-26T07:36:47.598Z</time></trkpt><trkpt lat="43.7676167" lon="11.216166"><ele>45.0</ele><time>2026-04-26T07:36:53.615Z</time></trkpt><trkpt lat="43.7675765" lon="11.2160933"><ele>44.833333333333336</ele><time>2026-04-26T07:37:55.573Z</time></trkpt><trkpt lat="43.767488" lon="11.2160007"><ele>44.666666666666664</ele><time>2026-04-26T07:37:57.586Z</time></trkpt><trkpt lat="43.7674356" lon="11.215944"><ele>44.5</ele><time>2026-04-26T07:37:58.582Z</time></trkpt><trkpt lat="43.7673627" lon="11.2158867"><ele>44.33333333333333</ele><time>2026-04-26T07:37:59.592Z</time></trkpt><trkpt lat="43.7672929" lon="11.2158354"><ele>44.166666666666664</ele><time>2026-04-26T07:38:00.58Z</time></trkpt><trkpt lat="43.7672192" lon="11.2157901"><ele>44.0</ele><time>2026-04-26T07:38:01.582Z</time></trkpt><trkpt lat="43.7671455" lon="11.2157183"><ele>44.2</ele><time>2026-04-26T07:38:02.591Z</time></trkpt><trkpt lat="43.7670687" lon="11.2156334"><ele>44.400000000000006</ele><time>2026-04-26T07:38:03.569Z</time></trkpt><trkpt lat="43.7670024" lon="11.2155357"><ele>44.6</ele><time>2026-04-26T07:38:04.576Z</time></trkpt><trkpt lat="43.7669394" lon="11.2154288"><ele>44.8</ele><time>2026-04-26T07:38:05.573Z</time></trkpt><trkpt lat="43.7668822" lon="11.2153157"><ele>45.0</ele><time>2026-04-26T07:38:06.571Z</time></trkpt><trkpt lat="43.766826" lon="11.2151895"><ele>45.25</ele><time>2026-04-26T07:38:07.593Z</time></trkpt><trkpt lat="43.7667727" lon="11.215061"><ele>45.5</ele><time>2026-04-26T07:38:08.567Z</time></trkpt><trkpt lat="43.7667284" lon="11.2149086"><ele>45.75</ele><time>2026-04-26T07:38:09.589Z</time></trkpt><trkpt lat="43.7666871" lon="11.2147553"><ele>46.0</ele><time>2026-04-26T07:38:10.59Z</time></trkpt><trkpt lat="43.7666423" lon="11.2146104"><ele>45.25</ele><time>2026-04-26T07:38:11.564Z</time></trkpt><trkpt lat="43.7665959" lon="11.2144587"><ele>44.5</ele><time>2026-04-26T07:38:12.584Z</time></trkpt><trkpt lat="43.7665561" lon="11.2143089"><ele>43.75</ele><time>2026-04-26T07:38:13.567Z</time></trkpt><trkpt lat="43.7665304" lon="11.2141503"><ele>43.0</ele><time>2026-04-26T07:38:14.565Z</time></trkpt><trkpt lat="43.766507" lon="11.2139919"><ele>43.2</ele><time>2026-04-26T07:38:15.587Z</time></trkpt><trkpt lat="43.7664829" lon="11.2138375"><ele>43.4</ele><time>2026-04-26T07:38:16.588Z</time></trkpt><trkpt lat="43.7664572" lon="11.2136943"><ele>43.6</ele><time>2026-04-26T07:38:17.583Z</time></trkpt><trkpt lat="43.7664277" lon="11.2135562"><ele>43.800000000000004</ele><time>2026-04-26T07:38:18.58Z</time></trkpt><trkpt lat="43.7663942" lon="11.2134225"><ele>44.0</ele><time>2026-04-26T07:38:19.59Z</time></trkpt><trkpt lat="43.7663624" lon="11.2133033"><ele>44.0</ele><time>2026-04-26T07:38:20.573Z</time></trkpt><trkpt lat="43.7663271" lon="11.2131894"><ele>44.0</ele><time>2026-04-26T07:38:21.579Z</time></trkpt><trkpt lat="43.7662918" lon="11.2130904"><ele>44.0</ele><time>2026-04-26T07:38:22.586Z</time></trkpt><trkpt lat="43.7662596" lon="11.2129796"><ele>44.0</ele><time>2026-04-26T07:38:23.573Z</time></trkpt><trkpt lat="43.7662481" lon="11.2128759"><ele>44.0</ele><time>2026-04-26T07:38:24.551Z</time></trkpt><trkpt lat="43.7662686" lon="11.2127742"><ele>44.0</ele><time>2026-04-26T07:38:25.591Z</time></trkpt><trkpt lat="43.766299" lon="11.2126821"><ele>44.0</ele><time>2026-04-26T07:38:26.558Z</time></trkpt><trkpt lat="43.7663393" lon="11.2125746"><ele>44.0</ele><time>2026-04-26T07:38:27.564Z</time></trkpt><trkpt lat="43.7663895" lon="11.2124544"><ele>44.0</ele><time>2026-04-26T07:38:28.58Z</time></trkpt><trkpt lat="43.7664373" lon="11.2123176"><ele>44.0</ele><time>2026-04-26T07:38:29.577Z</time></trkpt><trkpt lat="43.7664752" lon="11.2121665"><ele>44.0</ele><time>2026-04-26T07:38:30.562Z</time></trkpt><trkpt lat="43.7665162" lon="11.2120198"><ele>43.75</ele><time>2026-04-26T07:38:31.57Z</time></trkpt><trkpt lat="43.7665707" lon="11.2118646"><ele>43.5</ele><time>2026-04-26T07:38:32.585Z</time></trkpt><trkpt lat="43.7666262" lon="11.2117069"><ele>43.25</ele><time>2026-04-26T07:38:33.566Z</time></trkpt><trkpt lat="43.7666855" lon="11.2115429"><ele>43.0</ele><time>2026-04-26T07:38:34.585Z</time></trkpt><trkpt lat="43.7667352" lon="11.2113909"><ele>43.0</ele><time>2026-04-26T07:38:35.574Z</time></trkpt><trkpt lat="43.7667806" lon="11.2112439"><ele>43.0</ele><time>2026-04-26T07:38:36.571Z</time></trkpt><trkpt lat="43.7668359" lon="11.2111003"><ele>43.0</ele><time>2026-04-26T07:38:37.584Z</time></trkpt><trkpt lat="43.766882" lon="11.2109765"><ele>43.0</ele><time>2026-04-26T07:38:38.567Z</time></trkpt><trkpt lat="43.7669244" lon="11.2108445"><ele>43.0</ele><time>2026-04-26T07:38:39.573Z</time></trkpt><trkpt lat="43.7669699" lon="11.2106974"><ele>43.0</ele><time>2026-04-26T07:38:40.57Z</time></trkpt><trkpt lat="43.7670162" lon="11.2105512"><ele>43.0</ele><time>2026-04-26T07:38:41.577Z</time></trkpt><trkpt lat="43.7670683" lon="11.2104008"><ele>43.0</ele><time>2026-04-26T07:38:42.572Z</time></trkpt><trkpt lat="43.7671179" lon="11.2102487"><ele>43.0</ele><time>2026-04-26T07:38:43.573Z</time></trkpt><trkpt lat="43.7671588" lon="11.2101067"><ele>43.0</ele><time>2026-04-26T07:38:44.576Z</time></trkpt><trkpt lat="43.7672011" lon="11.2099917"><ele>43.0</ele><time>2026-04-26T07:38:45.575Z</time></trkpt><trkpt lat="43.7672463" lon="11.2098663"><ele>43.0</ele><time>2026-04-26T07:38:46.568Z</time></trkpt><trkpt lat="43.7672936" lon="11.209762"><ele>43.0</ele><time>2026-04-26T07:38:47.572Z</time></trkpt><trkpt lat="43.7673501" lon="11.2096253"><ele>43.0</ele><time>2026-04-26T07:38:49.582Z</time></trkpt><trkpt lat="43.7674254" lon="11.2095421"><ele>43.0</ele><time>2026-04-26T07:38:51.584Z</time></trkpt><trkpt lat="43.7675398" lon="11.2095653"><ele>43.0</ele><time>2026-04-26T07:38:53.577Z</time></trkpt><trkpt lat="43.7676166" lon="11.20959"><ele>43.0</ele><time>2026-04-26T07:38:54.57Z</time></trkpt><trkpt lat="43.767703" lon="11.2096286"><ele>43.0</ele><time>2026-04-26T07:38:55.579Z</time></trkpt><trkpt lat="43.7678065" lon="11.2096712"><ele>43.0</ele><time>2026-04-26T07:38:56.572Z</time></trkpt><trkpt lat="43.7679104" lon="11.2097337"><ele>43.0</ele><time>2026-04-26T07:38:57.585Z</time></trkpt><trkpt lat="43.7680172" lon="11.2098033"><ele>43.0</ele><time>2026-04-26T07:38:58.572Z</time></trkpt><trkpt lat="43.7681271" lon="11.2098808"><ele>43.0</ele><time>2026-04-26T07:38:59.575Z</time></trkpt><trkpt lat="43.7682402" lon="11.2099481"><ele>43.0</ele><time>2026-04-26T07:39:00.566Z</time></trkpt><trkpt lat="43.7683676" lon="11.2100271"><ele>43.0</ele><time>2026-04-26T07:39:01.575Z</time></trkpt><trkpt lat="43.7684864" lon="11.2101014"><ele>43.0</ele><time>2026-04-26T07:39:02.572Z</time></trkpt><trkpt lat="43.7686034" lon="11.210177"><ele>43.0</ele><time>2026-04-26T07:39:03.573Z</time></trkpt><trkpt lat="43.7687276" lon="11.2102502"><ele>43.0</ele><time>2026-04-26T07:39:04.578Z</time></trkpt><trkpt lat="43.7688568" lon="11.2103324"><ele>43.25</ele><time>2026-04-26T07:39:05.576Z</time></trkpt><trkpt lat="43.7689867" lon="11.2104152"><ele>43.5</ele><time>2026-04-26T07:39:06.575Z</time></trkpt><trkpt lat="43.7691135" lon="11.2104894"><ele>43.75</ele><time>2026-04-26T07:39:07.576Z</time></trkpt><trkpt lat="43.7692467" lon="11.2105688"><ele>44.0</ele><time>2026-04-26T07:39:08.578Z</time></trkpt><trkpt lat="43.7693764" lon="11.2106414"><ele>43.2</ele><time>2026-04-26T07:39:09.57Z</time></trkpt><trkpt lat="43.7694872" lon="11.2107097"><ele>42.400000000000006</ele><time>2026-04-26T07:39:10.572Z</time></trkpt><trkpt lat="43.7695898" lon="11.2107827"><ele>41.6</ele><time>2026-04-26T07:39:11.565Z</time></trkpt><trkpt lat="43.7696869" lon="11.2108412"><ele>40.8</ele><time>2026-04-26T07:39:12.589Z</time></trkpt><trkpt lat="43.7697607" lon="11.2108834"><ele>40.0</ele><time>2026-04-26T07:39:13.595Z</time></trkpt><trkpt lat="43.7698223" lon="11.2109246"><ele>40.0</ele><time>2026-04-26T07:39:14.58Z</time></trkpt><trkpt lat="43.7699167" lon="11.2109791"><ele>40.0</ele><time>2026-04-26T07:39:16.56Z</time></trkpt><trkpt lat="43.7699952" lon="11.2110418"><ele>40.0</ele><time>2026-04-26T07:39:56.568Z</time></trkpt><trkpt lat="43.7700625" lon="11.2110851"><ele>40.0</ele><time>2026-04-26T07:39:58.552Z</time></trkpt><trkpt lat="43.7701412" lon="11.211136"><ele>40.0</ele><time>2026-04-26T07:40:00.594Z</time></trkpt><trkpt lat="43.7702349" lon="11.2111858"><ele>40.2</ele><time>2026-04-26T07:40:02.58Z</time></trkpt><trkpt lat="43.7703416" lon="11.2112443"><ele>40.4</ele><time>2026-04-26T07:40:04.585Z</time></trkpt><trkpt lat="43.7704594" lon="11.2113107"><ele>40.599999999999994</ele><time>2026-04-26T07:40:06.569Z</time></trkpt><trkpt lat="43.7705199" lon="11.2113534"><ele>40.8</ele><time>2026-04-26T07:40:07.583Z</time></trkpt><trkpt lat="43.7705857" lon="11.2114023"><ele>41.0</ele><time>2026-04-26T07:40:08.583Z</time></trkpt><trkpt lat="43.7706555" lon="11.2114492"><ele>41.166666666666664</ele><time>2026-04-26T07:40:09.566Z</time></trkpt><trkpt lat="43.7707238" lon="11.2115033"><ele>41.33333333333333</ele><time>2026-04-26T07:40:10.583Z</time></trkpt><trkpt lat="43.7707957" lon="11.2115611"><ele>41.5</ele><time>2026-04-26T07:40:11.575Z</time></trkpt><trkpt lat="43.770876" lon="11.2116156"><ele>41.666666666666664</ele><time>2026-04-26T07:40:12.585Z</time></trkpt><trkpt lat="43.7709597" lon="11.2116774"><ele>41.833333333333336</ele><time>2026-04-26T07:40:13.576Z</time></trkpt><trkpt lat="43.7710454" lon="11.2117438"><ele>42.0</ele><time>2026-04-26T07:40:14.561Z</time></trkpt><trkpt lat="43.7711298" lon="11.2118126"><ele>42.0</ele><time>2026-04-26T07:40:15.583Z</time></trkpt><trkpt lat="43.7712189" lon="11.2118844"><ele>42.0</ele><time>2026-04-26T07:40:16.574Z</time></trkpt><trkpt lat="43.7713091" lon="11.2119421"><ele>42.0</ele><time>2026-04-26T07:40:17.56Z</time></trkpt><trkpt lat="43.7714168" lon="11.212008"><ele>42.0</ele><time>2026-04-26T07:40:18.573Z</time></trkpt><trkpt lat="43.7715181" lon="11.2120746"><ele>42.0</ele><time>2026-04-26T07:40:19.574Z</time></trkpt><trkpt lat="43.7716324" lon="11.2121516"><ele>42.0</ele><time>2026-04-26T07:40:20.569Z</time></trkpt><trkpt lat="43.7717418" lon="11.2122147"><ele>42.0</ele><time>2026-04-26T07:40:21.57Z</time></trkpt><trkpt lat="43.7718476" lon="11.2122803"><ele>42.0</ele><time>2026-04-26T07:40:22.569Z</time></trkpt><trkpt lat="43.7719488" lon="11.2123409"><ele>42.0</ele><time>2026-04-26T07:40:23.577Z</time></trkpt><trkpt lat="43.7720425" lon="11.2123984"><ele>42.0</ele><time>2026-04-26T07:40:24.563Z</time></trkpt><trkpt lat="43.7721337" lon="11.2124549"><ele>42.0</ele><time>2026-04-26T07:40:25.575Z</time></trkpt><trkpt lat="43.7722242" lon="11.212515"><ele>42.0</ele><time>2026-04-26T07:40:26.581Z</time></trkpt><trkpt lat="43.7723138" lon="11.2125688"><ele>42.0</ele><time>2026-04-26T07:40:27.577Z</time></trkpt><trkpt lat="43.7723974" lon="11.2126113"><ele>42.0</ele><time>2026-04-26T07:40:28.569Z</time></trkpt><trkpt lat="43.7724749" lon="11.2126637"><ele>42.0</ele><time>2026-04-26T07:40:29.576Z</time></trkpt><trkpt lat="43.7725495" lon="11.2127042"><ele>42.0</ele><time>2026-04-26T07:40:30.58Z</time></trkpt><trkpt lat="43.7726195" lon="11.2127479"><ele>42.0</ele><time>2026-04-26T07:40:31.58Z</time></trkpt><trkpt lat="43.7727111" lon="11.2128121"><ele>42.0</ele><time>2026-04-26T07:40:33.554Z</time></trkpt><trkpt lat="43.7727785" lon="11.2128559"><ele>42.0</ele><time>2026-04-26T07:40:36.56Z</time></trkpt><trkpt lat="43.77284" lon="11.2129014"><ele>42.0</ele><time>2026-04-26T07:40:48.574Z</time></trkpt><trkpt lat="43.7728937" lon="11.2129587"><ele>42.0</ele><time>2026-04-26T07:40:50.568Z</time></trkpt><trkpt lat="43.7729767" lon="11.2130449"><ele>42.0</ele><time>2026-04-26T07:40:53.568Z</time></trkpt><trkpt lat="43.77305" lon="11.2131458"><ele>42.0</ele><time>2026-04-26T07:40:55.579Z</time></trkpt><trkpt lat="43.7731786" lon="11.2131817"><ele>42.0</ele><time>2026-04-26T07:40:57.572Z</time></trkpt><trkpt lat="43.7732783" lon="11.2131179"><ele>42.0</ele><time>2026-04-26T07:40:59.562Z</time></trkpt><trkpt lat="43.773322" lon="11.2130344"><ele>42.0</ele><time>2026-04-26T07:41:00.567Z</time></trkpt><trkpt lat="43.7733328" lon="11.2129277"><ele>42.0</ele><time>2026-04-26T07:41:01.567Z</time></trkpt><trkpt lat="43.7733262" lon="11.2128108"><ele>42.0</ele><time>2026-04-26T07:41:02.564Z</time></trkpt><trkpt lat="43.7733002" lon="11.2126923"><ele>42.0</ele><time>2026-04-26T07:41:03.581Z</time></trkpt><trkpt lat="43.7732667" lon="11.2125612"><ele>42.0</ele><time>2026-04-26T07:41:04.571Z</time></trkpt><trkpt lat="43.7732418" lon="11.2124422"><ele>42.0</ele><time>2026-04-26T07:41:05.583Z</time></trkpt><trkpt lat="43.7732214" lon="11.2123006"><ele>42.0</ele><time>2026-04-26T07:41:06.569Z</time></trkpt><trkpt lat="43.7732065" lon="11.2121496"><ele>42.0</ele><time>2026-04-26T07:41:07.572Z</time></trkpt><trkpt lat="43.7731879" lon="11.2119814"><ele>42.0</ele><time>2026-04-26T07:41:08.571Z</time></trkpt><trkpt lat="43.7731727" lon="11.2118086"><ele>42.0</ele><time>2026-04-26T07:41:09.562Z</time></trkpt><trkpt lat="43.7731588" lon="11.2116406"><ele>41.6</ele><time>2026-04-26T07:41:10.571Z</time></trkpt><trkpt lat="43.7731369" lon="11.2114821"><ele>41.2</ele><time>2026-04-26T07:41:11.58Z</time></trkpt><trkpt lat="43.7731128" lon="11.2113286"><ele>40.8</ele><time>2026-04-26T07:41:12.579Z</time></trkpt><trkpt lat="43.7730876" lon="11.2111789"><ele>40.4</ele><time>2026-04-26T07:41:13.563Z</time></trkpt><trkpt lat="43.7730685" lon="11.2110378"><ele>40.0</ele><time>2026-04-26T07:41:14.665Z</time></trkpt><trkpt lat="43.7730469" lon="11.2109184"><ele>40.0</ele><time>2026-04-26T07:41:15.636Z</time></trkpt><trkpt lat="43.7730246" lon="11.2108011"><ele>40.0</ele><time>2026-04-26T07:41:16.621Z</time></trkpt><trkpt lat="43.7730028" lon="11.2106895"><ele>40.0</ele><time>2026-04-26T07:41:17.619Z</time></trkpt><trkpt lat="43.7729816" lon="11.2105787"><ele>40.0</ele><time>2026-04-26T07:41:18.623Z</time></trkpt><trkpt lat="43.7729536" lon="11.2104679"><ele>40.0</ele><time>2026-04-26T07:41:19.624Z</time></trkpt><trkpt lat="43.7729411" lon="11.2103585"><ele>40.0</ele><time>2026-04-26T07:41:20.623Z</time></trkpt><trkpt lat="43.7729198" lon="11.2102458"><ele>40.0</ele><time>2026-04-26T07:41:21.626Z</time></trkpt><trkpt lat="43.7729035" lon="11.2101143"><ele>40.0</ele><time>2026-04-26T07:41:22.617Z</time></trkpt><trkpt lat="43.7728785" lon="11.2099771"><ele>40.0</ele><time>2026-04-26T07:41:23.639Z</time></trkpt><trkpt lat="43.7728586" lon="11.2098272"><ele>40.0</ele><time>2026-04-26T07:41:24.625Z</time></trkpt><trkpt lat="43.7728383" lon="11.209663"><ele>40.0</ele><time>2026-04-26T07:41:25.621Z</time></trkpt><trkpt lat="43.7728158" lon="11.2095007"><ele>40.0</ele><time>2026-04-26T07:41:26.631Z</time></trkpt><trkpt lat="43.7728005" lon="11.2093287"><ele>40.0</ele><time>2026-04-26T07:41:27.632Z</time></trkpt><trkpt lat="43.7727878" lon="11.2091408"><ele>40.0</ele><time>2026-04-26T07:41:28.63Z</time></trkpt><trkpt lat="43.772776" lon="11.2089607"><ele>40.0</ele><time>2026-04-26T07:41:29.631Z</time></trkpt><trkpt lat="43.7727691" lon="11.2087717"><ele>40.5</ele><time>2026-04-26T07:41:30.629Z</time></trkpt><trkpt lat="43.7727567" lon="11.208596"><ele>41.0</ele><time>2026-04-26T07:41:31.637Z</time></trkpt><trkpt lat="43.7727532" lon="11.2084186"><ele>41.5</ele><time>2026-04-26T07:41:32.635Z</time></trkpt><trkpt lat="43.7727506" lon="11.2082533"><ele>42.0</ele><time>2026-04-26T07:41:33.635Z</time></trkpt><trkpt lat="43.7727494" lon="11.2080921"><ele>43.25</ele><time>2026-04-26T07:41:34.632Z</time></trkpt><trkpt lat="43.7727486" lon="11.2079363"><ele>44.5</ele><time>2026-04-26T07:41:35.627Z</time></trkpt><trkpt lat="43.7727489" lon="11.2077747"><ele>45.75</ele><time>2026-04-26T07:41:36.638Z</time></trkpt><trkpt lat="43.7727437" lon="11.2076116"><ele>47.0</ele><time>2026-04-26T07:41:37.625Z</time></trkpt><trkpt lat="43.7727389" lon="11.2074366"><ele>47.0</ele><time>2026-04-26T07:41:38.63Z</time></trkpt><trkpt lat="43.7727415" lon="11.2072573"><ele>47.0</ele><time>2026-04-26T07:41:39.632Z</time></trkpt><trkpt lat="43.7727381" lon="11.2070702"><ele>47.0</ele><time>2026-04-26T07:41:40.634Z</time></trkpt><trkpt lat="43.7727362" lon="11.2068835"><ele>47.0</ele><time>2026-04-26T07:41:41.64Z</time></trkpt><trkpt lat="43.7727333" lon="11.2066919"><ele>46.0</ele><time>2026-04-26T07:41:42.63Z</time></trkpt><trkpt lat="43.7727293" lon="11.2064884"><ele>45.0</ele><time>2026-04-26T07:41:43.629Z</time></trkpt><trkpt lat="43.7727432" lon="11.2062673"><ele>44.0</ele><time>2026-04-26T07:41:44.626Z</time></trkpt><trkpt lat="43.7727385" lon="11.2060303"><ele>44.0</ele><time>2026-04-26T07:41:45.623Z</time></trkpt><trkpt lat="43.7727341" lon="11.2057979"><ele>44.0</ele><time>2026-04-26T07:41:46.638Z</time></trkpt><trkpt lat="43.7727333" lon="11.2055641"><ele>44.0</ele><time>2026-04-26T07:41:47.635Z</time></trkpt><trkpt lat="43.7727318" lon="11.2053194"><ele>43.33333333333333</ele><time>2026-04-26T07:41:48.643Z</time></trkpt><trkpt lat="43.7727319" lon="11.2050789"><ele>42.666666666666664</ele><time>2026-04-26T07:41:49.642Z</time></trkpt><trkpt lat="43.77273" lon="11.2048446"><ele>42.0</ele><time>2026-04-26T07:41:50.627Z</time></trkpt><trkpt lat="43.7727331" lon="11.2046195"><ele>41.666666666666664</ele><time>2026-04-26T07:41:51.639Z</time></trkpt><trkpt lat="43.7727296" lon="11.2043983"><ele>41.33333333333333</ele><time>2026-04-26T07:41:52.64Z</time></trkpt><trkpt lat="43.7727263" lon="11.2041797"><ele>41.0</ele><time>2026-04-26T07:41:53.635Z</time></trkpt><trkpt lat="43.7727333" lon="11.20396"><ele>41.666666666666664</ele><time>2026-04-26T07:41:54.633Z</time></trkpt><trkpt lat="43.7727392" lon="11.2037376"><ele>42.333333333333336</ele><time>2026-04-26T07:41:55.638Z</time></trkpt><trkpt lat="43.7727411" lon="11.2035092"><ele>43.0</ele><time>2026-04-26T07:41:56.635Z</time></trkpt><trkpt lat="43.772739" lon="11.2032769"><ele>43.0</ele><time>2026-04-26T07:41:57.633Z</time></trkpt><trkpt lat="43.7727419" lon="11.2030392"><ele>43.0</ele><time>2026-04-26T07:41:58.625Z</time></trkpt><trkpt lat="43.772743" lon="11.2027997"><ele>43.0</ele><time>2026-04-26T07:41:59.632Z</time></trkpt><trkpt lat="43.7727445" lon="11.2025566"><ele>43.0</ele><time>2026-04-26T07:42:00.644Z</time></trkpt><trkpt lat="43.7727455" lon="11.2023099"><ele>43.0</ele><time>2026-04-26T07:42:01.628Z</time></trkpt><trkpt lat="43.7727453" lon="11.2020615"><ele>43.0</ele><time>2026-04-26T07:42:02.624Z</time></trkpt><trkpt lat="43.7727455" lon="11.2018124"><ele>43.0</ele><time>2026-04-26T07:42:03.643Z</time></trkpt><trkpt lat="43.7727486" lon="11.2015729"><ele>43.0</ele><time>2026-04-26T07:42:04.635Z</time></trkpt><trkpt lat="43.7727519" lon="11.2013369"><ele>43.0</ele><time>2026-04-26T07:42:05.63Z</time></trkpt><trkpt lat="43.7727509" lon="11.2011077"><ele>42.0</ele><time>2026-04-26T07:42:06.627Z</time></trkpt><trkpt lat="43.7727493" lon="11.200878"><ele>41.0</ele><time>2026-04-26T07:42:07.629Z</time></trkpt><trkpt lat="43.7727498" lon="11.2006513"><ele>40.0</ele><time>2026-04-26T07:42:08.626Z</time></trkpt><trkpt lat="43.7727456" lon="11.2004265"><ele>40.0</ele><time>2026-04-26T07:42:09.64Z</time></trkpt><trkpt lat="43.7727441" lon="11.2001993"><ele>40.0</ele><time>2026-04-26T07:42:10.634Z</time></trkpt><trkpt lat="43.7727427" lon="11.1999719"><ele>40.0</ele><time>2026-04-26T07:42:11.628Z</time></trkpt><trkpt lat="43.7727398" lon="11.199747"><ele>39.66666666666667</ele><time>2026-04-26T07:42:12.63Z</time></trkpt><trkpt lat="43.7727407" lon="11.1995255"><ele>39.333333333333336</ele><time>2026-04-26T07:42:13.621Z</time></trkpt><trkpt lat="43.7727377" lon="11.1993044"><ele>39.0</ele><time>2026-04-26T07:42:14.639Z</time></trkpt><trkpt lat="43.7727331" lon="11.1990896"><ele>39.0</ele><time>2026-04-26T07:42:15.636Z</time></trkpt><trkpt lat="43.7727202" lon="11.1988721"><ele>39.0</ele><time>2026-04-26T07:42:16.63Z</time></trkpt><trkpt lat="43.7727004" lon="11.1986508"><ele>39.0</ele><time>2026-04-26T07:42:17.645Z</time></trkpt><trkpt lat="43.7726764" lon="11.1984298"><ele>39.0</ele><time>2026-04-26T07:42:18.639Z</time></trkpt><trkpt lat="43.7726488" lon="11.1982173"><ele>39.0</ele><time>2026-04-26T07:42:19.648Z</time></trkpt><trkpt lat="43.7726188" lon="11.1980127"><ele>39.0</ele><time>2026-04-26T07:42:20.637Z</time></trkpt><trkpt lat="43.7725865" lon="11.19781"><ele>39.0</ele><time>2026-04-26T07:42:21.626Z</time></trkpt><trkpt lat="43.7725538" lon="11.1976011"><ele>39.0</ele><time>2026-04-26T07:42:22.634Z</time></trkpt><trkpt lat="43.7725194" lon="11.1973828"><ele>39.0</ele><time>2026-04-26T07:42:23.641Z</time></trkpt><trkpt lat="43.7724809" lon="11.1971595"><ele>39.0</ele><time>2026-04-26T07:42:24.629Z</time></trkpt><trkpt lat="43.7724436" lon="11.1969301"><ele>39.0</ele><time>2026-04-26T07:42:25.627Z</time></trkpt><trkpt lat="43.7724064" lon="11.1966929"><ele>39.0</ele><time>2026-04-26T07:42:26.633Z</time></trkpt><trkpt lat="43.7723665" lon="11.1964451"><ele>39.0</ele><time>2026-04-26T07:42:27.623Z</time></trkpt><trkpt lat="43.7723265" lon="11.1961926"><ele>39.0</ele><time>2026-04-26T07:42:28.637Z</time></trkpt><trkpt lat="43.7722854" lon="11.1959319"><ele>39.0</ele><time>2026-04-26T07:42:29.626Z</time></trkpt><trkpt lat="43.7722443" lon="11.1956627"><ele>39.0</ele><time>2026-04-26T07:42:30.633Z</time></trkpt><trkpt lat="43.7722025" lon="11.1953897"><ele>39.0</ele><time>2026-04-26T07:42:31.625Z</time></trkpt><trkpt lat="43.7721593" lon="11.1951142"><ele>39.0</ele><time>2026-04-26T07:42:32.632Z</time></trkpt><trkpt lat="43.7721164" lon="11.1948349"><ele>39.333333333333336</ele><time>2026-04-26T07:42:33.637Z</time></trkpt><trkpt lat="43.7720745" lon="11.1945636"><ele>39.66666666666667</ele><time>2026-04-26T07:42:34.631Z</time></trkpt><trkpt lat="43.7720357" lon="11.1943012"><ele>40.0</ele><time>2026-04-26T07:42:35.638Z</time></trkpt><trkpt lat="43.7719989" lon="11.1940459"><ele>41.0</ele><time>2026-04-26T07:42:36.625Z</time></trkpt><trkpt lat="43.7719602" lon="11.1937832"><ele>42.0</ele><time>2026-04-26T07:42:37.618Z</time></trkpt><trkpt lat="43.771919" lon="11.1935149"><ele>43.0</ele><time>2026-04-26T07:42:38.619Z</time></trkpt><trkpt lat="43.7718775" lon="11.1932429"><ele>42.333333333333336</ele><time>2026-04-26T07:42:39.629Z</time></trkpt><trkpt lat="43.7718342" lon="11.192968"><ele>41.666666666666664</ele><time>2026-04-26T07:42:40.625Z</time></trkpt><trkpt lat="43.7717909" lon="11.1926891"><ele>41.0</ele><time>2026-04-26T07:42:41.63Z</time></trkpt><trkpt lat="43.7717463" lon="11.1924059"><ele>41.0</ele><time>2026-04-26T07:42:42.635Z</time></trkpt><trkpt lat="43.7717008" lon="11.1921194"><ele>41.0</ele><time>2026-04-26T07:42:43.64Z</time></trkpt><trkpt lat="43.7716546" lon="11.1918275"><ele>41.0</ele><time>2026-04-26T07:42:44.61Z</time></trkpt><trkpt lat="43.7716065" lon="11.1915356"><ele>40.666666666666664</ele><time>2026-04-26T07:42:45.632Z</time></trkpt><trkpt lat="43.771558" lon="11.1912383"><ele>40.333333333333336</ele><time>2026-04-26T07:42:46.641Z</time></trkpt><trkpt lat="43.7715089" lon="11.1909369"><ele>40.0</ele><time>2026-04-26T07:42:47.633Z</time></trkpt><trkpt lat="43.7714583" lon="11.1906305"><ele>39.5</ele><time>2026-04-26T07:42:48.637Z</time></trkpt><trkpt lat="43.7714068" lon="11.1903182"><ele>39.0</ele><time>2026-04-26T07:42:49.638Z</time></trkpt><trkpt lat="43.7713532" lon="11.1900008"><ele>39.0</ele><time>2026-04-26T07:42:50.625Z</time></trkpt><trkpt lat="43.771299" lon="11.1896778"><ele>39.0</ele><time>2026-04-26T07:42:51.646Z</time></trkpt><trkpt lat="43.771251" lon="11.1893601"><ele>39.0</ele><time>2026-04-26T07:42:52.643Z</time></trkpt><trkpt lat="43.7712017" lon="11.1890413"><ele>39.0</ele><time>2026-04-26T07:42:53.62Z</time></trkpt><trkpt lat="43.7711514" lon="11.188718"><ele>38.5</ele><time>2026-04-26T07:42:54.638Z</time></trkpt><trkpt lat="43.7710969" lon="11.1883923"><ele>38.0</ele><time>2026-04-26T07:42:55.638Z</time></trkpt><trkpt lat="43.7710426" lon="11.188063"><ele>38.0</ele><time>2026-04-26T07:42:56.633Z</time></trkpt><trkpt lat="43.7709905" lon="11.1877291"><ele>38.0</ele><time>2026-04-26T07:42:57.636Z</time></trkpt><trkpt lat="43.7709382" lon="11.1873941"><ele>39.0</ele><time>2026-04-26T07:42:58.639Z</time></trkpt><trkpt lat="43.7708855" lon="11.1870565"><ele>40.0</ele><time>2026-04-26T07:42:59.623Z</time></trkpt><trkpt lat="43.7708323" lon="11.1867189"><ele>39.5</ele><time>2026-04-26T07:43:00.639Z</time></trkpt><trkpt lat="43.7707779" lon="11.1863774"><ele>39.0</ele><time>2026-04-26T07:43:01.646Z</time></trkpt><trkpt lat="43.7707253" lon="11.1860305"><ele>39.0</ele><time>2026-04-26T07:43:02.639Z</time></trkpt><trkpt lat="43.7706742" lon="11.1856822"><ele>39.0</ele><time>2026-04-26T07:43:03.639Z</time></trkpt><trkpt lat="43.7706268" lon="11.1853346"><ele>39.0</ele><time>2026-04-26T07:43:04.635Z</time></trkpt><trkpt lat="43.7705825" lon="11.184983"><ele>39.0</ele><time>2026-04-26T07:43:05.637Z</time></trkpt><trkpt lat="43.7705415" lon="11.1846295"><ele>39.0</ele><time>2026-04-26T07:43:06.645Z</time></trkpt><trkpt lat="43.770503" lon="11.184272"><ele>39.0</ele><time>2026-04-26T07:43:07.633Z</time></trkpt><trkpt lat="43.7704636" lon="11.1839105"><ele>39.0</ele><time>2026-04-26T07:43:08.638Z</time></trkpt><trkpt lat="43.7704283" lon="11.183544"><ele>39.0</ele><time>2026-04-26T07:43:09.643Z</time></trkpt><trkpt lat="43.770394" lon="11.1831765"><ele>39.0</ele><time>2026-04-26T07:43:10.647Z</time></trkpt><trkpt lat="43.7703624" lon="11.1828071"><ele>39.0</ele><time>2026-04-26T07:43:11.633Z</time></trkpt><trkpt lat="43.7703362" lon="11.1824325"><ele>38.5</ele><time>2026-04-26T07:43:12.665Z</time></trkpt><trkpt lat="43.7703129" lon="11.1820571"><ele>38.0</ele><time>2026-04-26T07:43:13.634Z</time></trkpt><trkpt lat="43.7702965" lon="11.1816783"><ele>37.5</ele><time>2026-04-26T07:43:14.633Z</time></trkpt><trkpt lat="43.7702842" lon="11.1812962"><ele>37.0</ele><time>2026-04-26T07:43:15.634Z</time></trkpt><trkpt lat="43.7702754" lon="11.1809157"><ele>36.0</ele><time>2026-04-26T07:43:16.63Z</time></trkpt><trkpt lat="43.7702712" lon="11.1805302"><ele>35.0</ele><time>2026-04-26T07:43:17.641Z</time></trkpt><trkpt lat="43.7702689" lon="11.1801412"><ele>35.0</ele><time>2026-04-26T07:43:18.631Z</time></trkpt><trkpt lat="43.7702741" lon="11.1797506"><ele>35.0</ele><time>2026-04-26T07:43:19.643Z</time></trkpt><trkpt lat="43.7702852" lon="11.1793581"><ele>37.0</ele><time>2026-04-26T07:43:20.64Z</time></trkpt><trkpt lat="43.7703002" lon="11.1789624"><ele>39.0</ele><time>2026-04-26T07:43:21.64Z</time></trkpt><trkpt lat="43.7703176" lon="11.1785682"><ele>39.0</ele><time>2026-04-26T07:43:22.629Z</time></trkpt><trkpt lat="43.7703389" lon="11.1781706"><ele>39.0</ele><time>2026-04-26T07:43:23.63Z</time></trkpt><trkpt lat="43.7703647" lon="11.1777746"><ele>39.0</ele><time>2026-04-26T07:43:24.622Z</time></trkpt><trkpt lat="43.7703946" lon="11.1773778"><ele>39.0</ele><time>2026-04-26T07:43:25.618Z</time></trkpt><trkpt lat="43.7704307" lon="11.176982"><ele>38.0</ele><time>2026-04-26T07:43:26.634Z</time></trkpt><trkpt lat="43.7704712" lon="11.1765877"><ele>37.0</ele><time>2026-04-26T07:43:27.629Z</time></trkpt><trkpt lat="43.7705203" lon="11.1761924"><ele>37.0</ele><time>2026-04-26T07:43:28.638Z</time></trkpt><trkpt lat="43.7705715" lon="11.1757997"><ele>37.0</ele><time>2026-04-26T07:43:29.632Z</time></trkpt><trkpt lat="43.7706265" lon="11.1754071"><ele>37.0</ele><time>2026-04-26T07:43:30.632Z</time></trkpt><trkpt lat="43.770683" lon="11.1750136"><ele>37.0</ele><time>2026-04-26T07:43:31.624Z</time></trkpt><trkpt lat="43.7707466" lon="11.1746214"><ele>37.0</ele><time>2026-04-26T07:43:32.637Z</time></trkpt><trkpt lat="43.7708115" lon="11.1742316"><ele>37.0</ele><time>2026-04-26T07:43:33.63Z</time></trkpt><trkpt lat="43.7708824" lon="11.1738427"><ele>37.0</ele><time>2026-04-26T07:43:34.632Z</time></trkpt><trkpt lat="43.770956" lon="11.1734586"><ele>37.0</ele><time>2026-04-26T07:43:35.64Z</time></trkpt><trkpt lat="43.7710307" lon="11.173078"><ele>37.0</ele><time>2026-04-26T07:43:36.645Z</time></trkpt><trkpt lat="43.7711045" lon="11.1727002"><ele>37.0</ele><time>2026-04-26T07:43:37.632Z</time></trkpt><trkpt lat="43.7711759" lon="11.1723267"><ele>36.5</ele><time>2026-04-26T07:43:38.635Z</time></trkpt><trkpt lat="43.7712443" lon="11.1719564"><ele>36.0</ele><time>2026-04-26T07:43:39.631Z</time></trkpt><trkpt lat="43.7713116" lon="11.1715886"><ele>35.0</ele><time>2026-04-26T07:43:40.631Z</time></trkpt><trkpt lat="43.7713828" lon="11.1712218"><ele>34.0</ele><time>2026-04-26T07:43:41.63Z</time></trkpt><trkpt lat="43.7714507" lon="11.1708599"><ele>35.0</ele><time>2026-04-26T07:43:42.634Z</time></trkpt><trkpt lat="43.7715205" lon="11.170502"><ele>36.0</ele><time>2026-04-26T07:43:43.623Z</time></trkpt><trkpt lat="43.771587" lon="11.1701537"><ele>36.0</ele><time>2026-04-26T07:43:44.641Z</time></trkpt><trkpt lat="43.7716524" lon="11.1698149"><ele>36.0</ele><time>2026-04-26T07:43:45.635Z</time></trkpt><trkpt lat="43.771718" lon="11.1694831"><ele>36.0</ele><time>2026-04-26T07:43:46.633Z</time></trkpt><trkpt lat="43.7717798" lon="11.1691542"><ele>36.0</ele><time>2026-04-26T07:43:47.619Z</time></trkpt><trkpt lat="43.7718394" lon="11.1688269"><ele>35.0</ele><time>2026-04-26T07:43:48.635Z</time></trkpt><trkpt lat="43.771904" lon="11.1685045"><ele>34.0</ele><time>2026-04-26T07:43:49.635Z</time></trkpt><trkpt lat="43.7719666" lon="11.168191"><ele>34.0</ele><time>2026-04-26T07:43:50.632Z</time></trkpt><trkpt lat="43.7720315" lon="11.1678888"><ele>34.0</ele><time>2026-04-26T07:43:51.635Z</time></trkpt><trkpt lat="43.7720895" lon="11.1675916"><ele>35.333333333333336</ele><time>2026-04-26T07:43:52.621Z</time></trkpt><trkpt lat="43.7721444" lon="11.1673029"><ele>36.666666666666664</ele><time>2026-04-26T07:43:53.635Z</time></trkpt><trkpt lat="43.772195" lon="11.16702"><ele>38.0</ele><time>2026-04-26T07:43:54.632Z</time></trkpt><trkpt lat="43.7722451" lon="11.1667481"><ele>38.0</ele><time>2026-04-26T07:43:55.635Z</time></trkpt><trkpt lat="43.7722974" lon="11.166489"><ele>38.0</ele><time>2026-04-26T07:43:56.63Z</time></trkpt><trkpt lat="43.7723549" lon="11.1662396"><ele>38.0</ele><time>2026-04-26T07:43:57.628Z</time></trkpt><trkpt lat="43.7724237" lon="11.1660031"><ele>38.0</ele><time>2026-04-26T07:43:58.642Z</time></trkpt><trkpt lat="43.7725098" lon="11.1657777"><ele>38.0</ele><time>2026-04-26T07:43:59.638Z</time></trkpt><trkpt lat="43.7726124" lon="11.165569"><ele>38.0</ele><time>2026-04-26T07:44:00.647Z</time></trkpt><trkpt lat="43.7727278" lon="11.1653817"><ele>37.0</ele><time>2026-04-26T07:44:01.632Z</time></trkpt><trkpt lat="43.7728593" lon="11.1652129"><ele>36.0</ele><time>2026-04-26T07:44:02.631Z</time></trkpt><trkpt lat="43.7730051" lon="11.165062"><ele>35.0</ele><time>2026-04-26T07:44:03.62Z</time></trkpt><trkpt lat="43.7731623" lon="11.1649323"><ele>35.33333333333333</ele><time>2026-04-26T07:44:04.647Z</time></trkpt><trkpt lat="43.7733298" lon="11.1648288"><ele>35.666666666666664</ele><time>2026-04-26T07:44:05.627Z</time></trkpt><trkpt lat="43.7735076" lon="11.1647549"><ele>36.0</ele><time>2026-04-26T07:44:06.622Z</time></trkpt><trkpt lat="43.7736979" lon="11.1647166"><ele>35.333333333333336</ele><time>2026-04-26T07:44:07.632Z</time></trkpt><trkpt lat="43.7738926" lon="11.1647135"><ele>34.66666666666667</ele><time>2026-04-26T07:44:08.626Z</time></trkpt><trkpt lat="43.7740842" lon="11.1647374"><ele>34.0</ele><time>2026-04-26T07:44:09.633Z</time></trkpt><trkpt lat="43.7742701" lon="11.1647836"><ele>34.0</ele><time>2026-04-26T07:44:10.629Z</time></trkpt><trkpt lat="43.774449" lon="11.1648373"><ele>34.0</ele><time>2026-04-26T07:44:11.63Z</time></trkpt><trkpt lat="43.7746232" lon="11.1648819"><ele>34.0</ele><time>2026-04-26T07:44:12.635Z</time></trkpt><trkpt lat="43.7747958" lon="11.1649277"><ele>34.333333333333336</ele><time>2026-04-26T07:44:13.627Z</time></trkpt><trkpt lat="43.7749618" lon="11.1649519"><ele>34.666666666666664</ele><time>2026-04-26T07:44:14.623Z</time></trkpt><trkpt lat="43.7751286" lon="11.1649656"><ele>35.0</ele><time>2026-04-26T07:44:15.627Z</time></trkpt><trkpt lat="43.7752867" lon="11.1649736"><ele>35.0</ele><time>2026-04-26T07:44:16.622Z</time></trkpt><trkpt lat="43.7754399" lon="11.1649645"><ele>35.0</ele><time>2026-04-26T07:44:17.642Z</time></trkpt><trkpt lat="43.775588" lon="11.1649378"><ele>35.0</ele><time>2026-04-26T07:44:18.633Z</time></trkpt><trkpt lat="43.775727" lon="11.1648928"><ele>35.0</ele><time>2026-04-26T07:44:19.627Z</time></trkpt><trkpt lat="43.7758567" lon="11.164831"><ele>35.0</ele><time>2026-04-26T07:44:20.637Z</time></trkpt><trkpt lat="43.7759786" lon="11.1647724"><ele>35.0</ele><time>2026-04-26T07:44:21.63Z</time></trkpt><trkpt lat="43.7760909" lon="11.1647094"><ele>35.0</ele><time>2026-04-26T07:44:22.632Z</time></trkpt><trkpt lat="43.7762031" lon="11.1646385"><ele>35.0</ele><time>2026-04-26T07:44:23.627Z</time></trkpt><trkpt lat="43.7763191" lon="11.1645681"><ele>34.75</ele><time>2026-04-26T07:44:24.619Z</time></trkpt><trkpt lat="43.776445" lon="11.1644915"><ele>34.5</ele><time>2026-04-26T07:44:25.635Z</time></trkpt><trkpt lat="43.7765705" lon="11.1643958"><ele>34.25</ele><time>2026-04-26T07:44:26.635Z</time></trkpt><trkpt lat="43.7766905" lon="11.1642873"><ele>34.0</ele><time>2026-04-26T07:44:27.634Z</time></trkpt><trkpt lat="43.7768069" lon="11.1641662"><ele>34.0</ele><time>2026-04-26T07:44:28.637Z</time></trkpt><trkpt lat="43.7769242" lon="11.1640389"><ele>34.0</ele><time>2026-04-26T07:44:29.64Z</time></trkpt><trkpt lat="43.7770472" lon="11.1639084"><ele>34.0</ele><time>2026-04-26T07:44:30.635Z</time></trkpt><trkpt lat="43.777172" lon="11.1637724"><ele>34.0</ele><time>2026-04-26T07:44:31.623Z</time></trkpt><trkpt lat="43.7773011" lon="11.1636298"><ele>34.0</ele><time>2026-04-26T07:44:32.624Z</time></trkpt><trkpt lat="43.7774285" lon="11.1634853"><ele>34.0</ele><time>2026-04-26T07:44:33.636Z</time></trkpt><trkpt lat="43.7775573" lon="11.1633351"><ele>34.0</ele><time>2026-04-26T07:44:34.63Z</time></trkpt><trkpt lat="43.7776859" lon="11.1631841"><ele>34.0</ele><time>2026-04-26T07:44:35.639Z</time></trkpt><trkpt lat="43.7778033" lon="11.1630153"><ele>34.0</ele><time>2026-04-26T07:44:36.626Z</time></trkpt><trkpt lat="43.7779116" lon="11.1628359"><ele>34.0</ele><time>2026-04-26T07:44:37.639Z</time></trkpt><trkpt lat="43.7780019" lon="11.1626368"><ele>34.0</ele><time>2026-04-26T07:44:38.64Z</time></trkpt><trkpt lat="43.7780789" lon="11.1624342"><ele>34.0</ele><time>2026-04-26T07:44:39.628Z</time></trkpt><trkpt lat="43.778135" lon="11.1622153"><ele>34.333333333333336</ele><time>2026-04-26T07:44:40.624Z</time></trkpt><trkpt lat="43.7781721" lon="11.1619909"><ele>34.666666666666664</ele><time>2026-04-26T07:44:41.635Z</time></trkpt><trkpt lat="43.7781904" lon="11.16176"><ele>35.0</ele><time>2026-04-26T07:44:42.631Z</time></trkpt><trkpt lat="43.7781949" lon="11.1615263"><ele>35.0</ele><time>2026-04-26T07:44:43.639Z</time></trkpt><trkpt lat="43.7781806" lon="11.1612929"><ele>35.0</ele><time>2026-04-26T07:44:44.627Z</time></trkpt><trkpt lat="43.7781435" lon="11.1610654"><ele>35.0</ele><time>2026-04-26T07:44:45.639Z</time></trkpt><trkpt lat="43.778087" lon="11.1608458"><ele>35.0</ele><time>2026-04-26T07:44:46.628Z</time></trkpt><trkpt lat="43.7780104" lon="11.1606409"><ele>35.0</ele><time>2026-04-26T07:44:47.626Z</time></trkpt><trkpt lat="43.7779227" lon="11.1604519"><ele>35.0</ele><time>2026-04-26T07:44:48.636Z</time></trkpt><trkpt lat="43.7778219" lon="11.1602737"><ele>35.0</ele><time>2026-04-26T07:44:49.635Z</time></trkpt><trkpt lat="43.7777066" lon="11.160111"><ele>35.0</ele><time>2026-04-26T07:44:50.623Z</time></trkpt><trkpt lat="43.7775756" lon="11.1599652"><ele>35.0</ele><time>2026-04-26T07:44:51.661Z</time></trkpt><trkpt lat="43.7774337" lon="11.1598379"><ele>34.666666666666664</ele><time>2026-04-26T07:44:52.643Z</time></trkpt><trkpt lat="43.7772847" lon="11.1597359"><ele>34.333333333333336</ele><time>2026-04-26T07:44:53.642Z</time></trkpt><trkpt lat="43.7771268" lon="11.1596649"><ele>34.0</ele><time>2026-04-26T07:44:54.636Z</time></trkpt><trkpt lat="43.7769654" lon="11.1596307"><ele>34.0</ele><time>2026-04-26T07:44:55.636Z</time></trkpt><trkpt lat="43.7767979" lon="11.1596382"><ele>34.0</ele><time>2026-04-26T07:44:56.63Z</time></trkpt><trkpt lat="43.776632" lon="11.1596857"><ele>34.0</ele><time>2026-04-26T07:44:57.616Z</time></trkpt><trkpt lat="43.7764752" lon="11.1597826"><ele>34.333333333333336</ele><time>2026-04-26T07:44:58.635Z</time></trkpt><trkpt lat="43.7763319" lon="11.1599229"><ele>34.666666666666664</ele><time>2026-04-26T07:44:59.65Z</time></trkpt><trkpt lat="43.776205" lon="11.1601024"><ele>35.0</ele><time>2026-04-26T07:45:00.634Z</time></trkpt><trkpt lat="43.7761" lon="11.1603157"><ele>34.666666666666664</ele><time>2026-04-26T07:45:01.635Z</time></trkpt><trkpt lat="43.7760064" lon="11.1605443"><ele>34.333333333333336</ele><time>2026-04-26T07:45:02.623Z</time></trkpt><trkpt lat="43.7759084" lon="11.1607717"><ele>34.0</ele><time>2026-04-26T07:45:03.635Z</time></trkpt><trkpt lat="43.7758023" lon="11.1609958"><ele>34.0</ele><time>2026-04-26T07:45:04.636Z</time></trkpt><trkpt lat="43.7756829" lon="11.1611973"><ele>34.0</ele><time>2026-04-26T07:45:05.634Z</time></trkpt><trkpt lat="43.7755497" lon="11.1613799"><ele>34.0</ele><time>2026-04-26T07:45:06.638Z</time></trkpt><trkpt lat="43.7754046" lon="11.1615401"><ele>34.0</ele><time>2026-04-26T07:45:07.632Z</time></trkpt><trkpt lat="43.775243" lon="11.1616762"><ele>34.0</ele><time>2026-04-26T07:45:08.635Z</time></trkpt><trkpt lat="43.7750685" lon="11.1617891"><ele>34.0</ele><time>2026-04-26T07:45:09.628Z</time></trkpt><trkpt lat="43.7748833" lon="11.1618714"><ele>34.0</ele><time>2026-04-26T07:45:10.621Z</time></trkpt><trkpt lat="43.7746925" lon="11.161935"><ele>34.0</ele><time>2026-04-26T07:45:11.627Z</time></trkpt><trkpt lat="43.7744976" lon="11.161994"><ele>34.0</ele><time>2026-04-26T07:45:12.632Z</time></trkpt><trkpt lat="43.7742976" lon="11.1620518"><ele>34.0</ele><time>2026-04-26T07:45:13.623Z</time></trkpt><trkpt lat="43.7740958" lon="11.1621158"><ele>34.0</ele><time>2026-04-26T07:45:14.641Z</time></trkpt><trkpt lat="43.7738919" lon="11.1621809"><ele>34.0</ele><time>2026-04-26T07:45:15.646Z</time></trkpt><trkpt lat="43.7736844" lon="11.1622534"><ele>34.333333333333336</ele><time>2026-04-26T07:45:16.632Z</time></trkpt><trkpt lat="43.7734826" lon="11.1623269"><ele>34.666666666666664</ele><time>2026-04-26T07:45:17.647Z</time></trkpt><trkpt lat="43.7732755" lon="11.1624094"><ele>35.0</ele><time>2026-04-26T07:45:18.626Z</time></trkpt><trkpt lat="43.7730637" lon="11.1624989"><ele>35.0</ele><time>2026-04-26T07:45:19.624Z</time></trkpt><trkpt lat="43.7728463" lon="11.1625876"><ele>35.0</ele><time>2026-04-26T07:45:20.61Z</time></trkpt><trkpt lat="43.7726232" lon="11.1626779"><ele>35.0</ele><time>2026-04-26T07:45:21.622Z</time></trkpt><trkpt lat="43.7723962" lon="11.1627718"><ele>35.0</ele><time>2026-04-26T07:45:22.618Z</time></trkpt><trkpt lat="43.7721616" lon="11.1628798"><ele>35.0</ele><time>2026-04-26T07:45:23.642Z</time></trkpt><trkpt lat="43.7719285" lon="11.1629882"><ele>35.0</ele><time>2026-04-26T07:45:24.624Z</time></trkpt><trkpt lat="43.7716887" lon="11.1631005"><ele>36.5</ele><time>2026-04-26T07:45:25.631Z</time></trkpt><trkpt lat="43.7714472" lon="11.1632246"><ele>38.0</ele><time>2026-04-26T07:45:26.629Z</time></trkpt><trkpt lat="43.7712066" lon="11.1633553"><ele>37.0</ele><time>2026-04-26T07:45:27.628Z</time></trkpt><trkpt lat="43.7709664" lon="11.16349"><ele>36.0</ele><time>2026-04-26T07:45:28.639Z</time></trkpt><trkpt lat="43.7707278" lon="11.1636287"><ele>36.0</ele><time>2026-04-26T07:45:29.643Z</time></trkpt><trkpt lat="43.7704903" lon="11.1637768"><ele>36.0</ele><time>2026-04-26T07:45:30.633Z</time></trkpt><trkpt lat="43.770256" lon="11.163929"><ele>36.5</ele><time>2026-04-26T07:45:31.671Z</time></trkpt><trkpt lat="43.7700227" lon="11.1640862"><ele>37.0</ele><time>2026-04-26T07:45:32.636Z</time></trkpt><trkpt lat="43.7697885" lon="11.1642546"><ele>37.0</ele><time>2026-04-26T07:45:33.622Z</time></trkpt><trkpt lat="43.7695548" lon="11.1644188"><ele>37.0</ele><time>2026-04-26T07:45:34.639Z</time></trkpt><trkpt lat="43.7693196" lon="11.1645833"><ele>38.5</ele><time>2026-04-26T07:45:35.639Z</time></trkpt><trkpt lat="43.7690855" lon="11.1647479"><ele>40.0</ele><time>2026-04-26T07:45:36.655Z</time></trkpt><trkpt lat="43.7688508" lon="11.164918"><ele>40.0</ele><time>2026-04-26T07:45:37.65Z</time></trkpt><trkpt lat="43.7686165" lon="11.1650885"><ele>40.0</ele><time>2026-04-26T07:45:38.634Z</time></trkpt><trkpt lat="43.7683794" lon="11.1652611"><ele>39.0</ele><time>2026-04-26T07:45:39.646Z</time></trkpt><trkpt lat="43.7681445" lon="11.1654333"><ele>38.0</ele><time>2026-04-26T07:45:40.636Z</time></trkpt><trkpt lat="43.7679109" lon="11.165608"><ele>37.5</ele><time>2026-04-26T07:45:41.64Z</time></trkpt><trkpt lat="43.7676763" lon="11.1657805"><ele>37.0</ele><time>2026-04-26T07:45:42.632Z</time></trkpt><trkpt lat="43.7674418" lon="11.1659534"><ele>37.0</ele><time>2026-04-26T07:45:43.64Z</time></trkpt><trkpt lat="43.767207" lon="11.1661266"><ele>37.0</ele><time>2026-04-26T07:45:44.638Z</time></trkpt><trkpt lat="43.7669725" lon="11.166301"><ele>37.0</ele><time>2026-04-26T07:45:45.631Z</time></trkpt><trkpt lat="43.7667361" lon="11.1664754"><ele>37.0</ele><time>2026-04-26T07:45:46.62Z</time></trkpt><trkpt lat="43.7664974" lon="11.1666462"><ele>37.0</ele><time>2026-04-26T07:45:47.639Z</time></trkpt><trkpt lat="43.7662597" lon="11.1668174"><ele>37.0</ele><time>2026-04-26T07:45:48.603Z</time></trkpt><trkpt lat="43.7660205" lon="11.1669902"><ele>42.0</ele><time>2026-04-26T07:45:49.587Z</time></trkpt><trkpt lat="43.7620877" lon="11.169301"><ele>42.0</ele><time>2026-04-26T07:46:04.596Z</time></trkpt><trkpt lat="43.7618909" lon="11.1693492"><ele>42.0</ele><time>2026-04-26T07:46:05.618Z</time></trkpt><trkpt lat="43.7615899" lon="11.1694804"><ele>41.0</ele><time>2026-04-26T07:46:06.611Z</time></trkpt><trkpt lat="43.7613091" lon="11.1695517"><ele>40.0</ele><time>2026-04-26T07:46:07.624Z</time></trkpt><trkpt lat="43.7610235" lon="11.1696225"><ele>40.0</ele><time>2026-04-26T07:46:08.621Z</time></trkpt><trkpt lat="43.7607354" lon="11.1696805"><ele>40.0</ele><time>2026-04-26T07:46:09.639Z</time></trkpt><trkpt lat="43.7604448" lon="11.1697402"><ele>40.5</ele><time>2026-04-26T07:46:10.62Z</time></trkpt><trkpt lat="43.7601586" lon="11.1697977"><ele>41.0</ele><time>2026-04-26T07:46:11.621Z</time></trkpt><trkpt lat="43.7598722" lon="11.1698486"><ele>40.5</ele><time>2026-04-26T07:46:12.628Z</time></trkpt><trkpt lat="43.759586" lon="11.1699017"><ele>40.0</ele><time>2026-04-26T07:46:13.614Z</time></trkpt><trkpt lat="43.7593012" lon="11.1699509"><ele>41.0</ele><time>2026-04-26T07:46:14.655Z</time></trkpt><trkpt lat="43.759021" lon="11.169999"><ele>42.0</ele><time>2026-04-26T07:46:15.628Z</time></trkpt><trkpt lat="43.7587416" lon="11.17005"><ele>41.5</ele><time>2026-04-26T07:46:16.634Z</time></trkpt><trkpt lat="43.7584621" lon="11.1701014"><ele>41.0</ele><time>2026-04-26T07:46:17.639Z</time></trkpt><trkpt lat="43.7581845" lon="11.1701499"><ele>41.0</ele><time>2026-04-26T07:46:18.63Z</time></trkpt><trkpt lat="43.7579093" lon="11.1701998"><ele>41.0</ele><time>2026-04-26T07:46:19.63Z</time></trkpt><trkpt lat="43.7576344" lon="11.1702468"><ele>41.0</ele><time>2026-04-26T07:46:20.632Z</time></trkpt><trkpt lat="43.7573591" lon="11.1702951"><ele>41.0</ele><time>2026-04-26T07:46:21.637Z</time></trkpt><trkpt lat="43.7570825" lon="11.1703433"><ele>42.0</ele><time>2026-04-26T07:46:22.641Z</time></trkpt><trkpt lat="43.7568046" lon="11.1703895"><ele>43.0</ele><time>2026-04-26T07:46:23.636Z</time></trkpt><trkpt lat="43.7565287" lon="11.1704361"><ele>43.0</ele><time>2026-04-26T07:46:24.632Z</time></trkpt><trkpt lat="43.7562531" lon="11.1704804"><ele>43.0</ele><time>2026-04-26T07:46:25.628Z</time></trkpt><trkpt lat="43.7559781" lon="11.1705274"><ele>43.5</ele><time>2026-04-26T07:46:26.633Z</time></trkpt><trkpt lat="43.7557047" lon="11.170574"><ele>44.0</ele><time>2026-04-26T07:46:27.643Z</time></trkpt><trkpt lat="43.7554329" lon="11.1706209"><ele>44.0</ele><time>2026-04-26T07:46:28.639Z</time></trkpt><trkpt lat="43.7551584" lon="11.1706688"><ele>44.0</ele><time>2026-04-26T07:46:29.633Z</time></trkpt><trkpt lat="43.7548873" lon="11.1707152"><ele>44.0</ele><time>2026-04-26T07:46:30.635Z</time></trkpt><trkpt lat="43.7546216" lon="11.1707644"><ele>44.0</ele><time>2026-04-26T07:46:31.626Z</time></trkpt><trkpt lat="43.7543529" lon="11.170813"><ele>44.0</ele><time>2026-04-26T07:46:32.638Z</time></trkpt><trkpt lat="43.7540868" lon="11.1708613"><ele>44.0</ele><time>2026-04-26T07:46:33.643Z</time></trkpt><trkpt lat="43.7538228" lon="11.170909"><ele>44.0</ele><time>2026-04-26T07:46:34.643Z</time></trkpt><trkpt lat="43.75356" lon="11.1709601"><ele>44.0</ele><time>2026-04-26T07:46:35.636Z</time></trkpt><trkpt lat="43.7532963" lon="11.1710119"><ele>45.0</ele><time>2026-04-26T07:46:36.64Z</time></trkpt><trkpt lat="43.7530337" lon="11.1710637"><ele>46.0</ele><time>2026-04-26T07:46:37.64Z</time></trkpt><trkpt lat="43.7527689" lon="11.171113"><ele>45.5</ele><time>2026-04-26T07:46:38.645Z</time></trkpt><trkpt lat="43.7525035" lon="11.1711609"><ele>45.0</ele><time>2026-04-26T07:46:39.632Z</time></trkpt><trkpt lat="43.7522377" lon="11.1712114"><ele>45.0</ele><time>2026-04-26T07:46:40.639Z</time></trkpt><trkpt lat="43.7519715" lon="11.1712612"><ele>45.0</ele><time>2026-04-26T07:46:41.641Z</time></trkpt><trkpt lat="43.7517042" lon="11.1713104"><ele>45.0</ele><time>2026-04-26T07:46:42.631Z</time></trkpt><trkpt lat="43.7514367" lon="11.1713598"><ele>45.0</ele><time>2026-04-26T07:46:43.626Z</time></trkpt><trkpt lat="43.7511703" lon="11.1714083"><ele>45.5</ele><time>2026-04-26T07:46:44.636Z</time></trkpt><trkpt lat="43.7508999" lon="11.1714574"><ele>46.0</ele><time>2026-04-26T07:46:45.637Z</time></trkpt><trkpt lat="43.7506295" lon="11.1715052"><ele>46.5</ele><time>2026-04-26T07:46:46.644Z</time></trkpt><trkpt lat="43.7503577" lon="11.1715549"><ele>47.0</ele><time>2026-04-26T07:46:47.629Z</time></trkpt><trkpt lat="43.7500879" lon="11.1716067"><ele>47.0</ele><time>2026-04-26T07:46:48.636Z</time></trkpt><trkpt lat="43.7498171" lon="11.1716611"><ele>47.0</ele><time>2026-04-26T07:46:49.621Z</time></trkpt><trkpt lat="43.7495455" lon="11.1717125"><ele>48.0</ele><time>2026-04-26T07:46:50.629Z</time></trkpt><trkpt lat="43.7492737" lon="11.1717642"><ele>49.0</ele><time>2026-04-26T07:46:51.633Z</time></trkpt><trkpt lat="43.7489999" lon="11.171817"><ele>49.0</ele><time>2026-04-26T07:46:52.625Z</time></trkpt><trkpt lat="43.7487274" lon="11.1718679"><ele>49.0</ele><time>2026-04-26T07:46:53.621Z</time></trkpt><trkpt lat="43.7484551" lon="11.171927"><ele>49.0</ele><time>2026-04-26T07:46:54.626Z</time></trkpt><trkpt lat="43.7481843" lon="11.1719962"><ele>49.0</ele><time>2026-04-26T07:46:55.641Z</time></trkpt><trkpt lat="43.7479166" lon="11.172079"><ele>50.0</ele><time>2026-04-26T07:46:56.626Z</time></trkpt><trkpt lat="43.747652" lon="11.1721853"><ele>51.0</ele><time>2026-04-26T07:46:57.622Z</time></trkpt><trkpt lat="43.7473931" lon="11.1723109"><ele>50.0</ele><time>2026-04-26T07:46:58.622Z</time></trkpt><trkpt lat="43.7471392" lon="11.1724598"><ele>49.0</ele><time>2026-04-26T07:46:59.627Z</time></trkpt><trkpt lat="43.7468929" lon="11.1726335"><ele>50.5</ele><time>2026-04-26T07:47:00.621Z</time></trkpt><trkpt lat="43.7466552" lon="11.1728256"><ele>52.0</ele><time>2026-04-26T07:47:01.625Z</time></trkpt><trkpt lat="43.7464259" lon="11.1730369"><ele>52.0</ele><time>2026-04-26T07:47:02.624Z</time></trkpt><trkpt lat="43.7462034" lon="11.1732663"><ele>52.0</ele><time>2026-04-26T07:47:03.622Z</time></trkpt><trkpt lat="43.7459948" lon="11.1735155"><ele>53.0</ele><time>2026-04-26T07:47:04.643Z</time></trkpt><trkpt lat="43.7458012" lon="11.1737851"><ele>54.0</ele><time>2026-04-26T07:47:05.63Z</time></trkpt><trkpt lat="43.7456206" lon="11.1740752"><ele>54.0</ele><time>2026-04-26T07:47:06.628Z</time></trkpt><trkpt lat="43.7454529" lon="11.1743774"><ele>54.0</ele><time>2026-04-26T07:47:07.636Z</time></trkpt><trkpt lat="43.7452962" lon="11.1746918"><ele>53.5</ele><time>2026-04-26T07:47:08.639Z</time></trkpt><trkpt lat="43.7451514" lon="11.1750157"><ele>53.0</ele><time>2026-04-26T07:47:09.636Z</time></trkpt><trkpt lat="43.7450206" lon="11.1753509"><ele>53.5</ele><time>2026-04-26T07:47:10.642Z</time></trkpt><trkpt lat="43.7449038" lon="11.1756955"><ele>54.0</ele><time>2026-04-26T07:47:11.648Z</time></trkpt><trkpt lat="43.7447936" lon="11.1760441"><ele>54.0</ele><time>2026-04-26T07:47:12.623Z</time></trkpt><trkpt lat="43.7446889" lon="11.1763985"><ele>54.0</ele><time>2026-04-26T07:47:13.637Z</time></trkpt><trkpt lat="43.744584" lon="11.176752"><ele>56.5</ele><time>2026-04-26T07:47:14.643Z</time></trkpt><trkpt lat="43.7444825" lon="11.1771095"><ele>59.0</ele><time>2026-04-26T07:47:15.629Z</time></trkpt><trkpt lat="43.7443793" lon="11.1774633"><ele>60.5</ele><time>2026-04-26T07:47:16.633Z</time></trkpt><trkpt lat="43.744266" lon="11.1778119"><ele>62.0</ele><time>2026-04-26T07:47:17.618Z</time></trkpt><trkpt lat="43.7441454" lon="11.1781531"><ele>61.5</ele><time>2026-04-26T07:47:18.626Z</time></trkpt><trkpt lat="43.744013" lon="11.1784909"><ele>61.0</ele><time>2026-04-26T07:47:19.619Z</time></trkpt><trkpt lat="43.743871" lon="11.1788183"><ele>61.0</ele><time>2026-04-26T07:47:20.63Z</time></trkpt><trkpt lat="43.7437158" lon="11.1791357"><ele>61.0</ele><time>2026-04-26T07:47:21.622Z</time></trkpt><trkpt lat="43.7435464" lon="11.1794385"><ele>61.0</ele><time>2026-04-26T07:47:22.618Z</time></trkpt><trkpt lat="43.7433634" lon="11.1797251"><ele>61.0</ele><time>2026-04-26T07:47:23.619Z</time></trkpt><trkpt lat="43.7431683" lon="11.1799922"><ele>59.5</ele><time>2026-04-26T07:47:24.616Z</time></trkpt><trkpt lat="43.742959" lon="11.1802371"><ele>58.0</ele><time>2026-04-26T07:47:25.63Z</time></trkpt><trkpt lat="43.742738" lon="11.1804588"><ele>57.5</ele><time>2026-04-26T07:47:26.63Z</time></trkpt><trkpt lat="43.7425147" lon="11.1806753"><ele>57.0</ele><time>2026-04-26T07:47:27.63Z</time></trkpt><trkpt lat="43.7422905" lon="11.1808836"><ele>57.0</ele><time>2026-04-26T07:47:28.621Z</time></trkpt><trkpt lat="43.7420666" lon="11.1810943"><ele>57.0</ele><time>2026-04-26T07:47:29.632Z</time></trkpt><trkpt lat="43.7418422" lon="11.1813007"><ele>58.0</ele><time>2026-04-26T07:47:30.64Z</time></trkpt><trkpt lat="43.7416189" lon="11.1815072"><ele>59.0</ele><time>2026-04-26T07:47:31.629Z</time></trkpt><trkpt lat="43.7413961" lon="11.1817167"><ele>59.0</ele><time>2026-04-26T07:47:32.622Z</time></trkpt><trkpt lat="43.7411727" lon="11.1819273"><ele>59.0</ele><time>2026-04-26T07:47:33.633Z</time></trkpt><trkpt lat="43.7409494" lon="11.1821356"><ele>61.0</ele><time>2026-04-26T07:47:34.627Z</time></trkpt><trkpt lat="43.740726" lon="11.1823437"><ele>63.0</ele><time>2026-04-26T07:47:35.613Z</time></trkpt><trkpt lat="43.7405043" lon="11.1825528"><ele>63.0</ele><time>2026-04-26T07:47:36.616Z</time></trkpt><trkpt lat="43.7402828" lon="11.1827606"><ele>63.0</ele><time>2026-04-26T07:47:37.628Z</time></trkpt><trkpt lat="43.7400656" lon="11.182969"><ele>63.0</ele><time>2026-04-26T07:47:38.627Z</time></trkpt><trkpt lat="43.7398451" lon="11.1831749"><ele>63.0</ele><time>2026-04-26T07:47:39.638Z</time></trkpt><trkpt lat="43.7396253" lon="11.1833813"><ele>63.0</ele><time>2026-04-26T07:47:40.633Z</time></trkpt><trkpt lat="43.7394075" lon="11.1835861"><ele>63.0</ele><time>2026-04-26T07:47:41.633Z</time></trkpt><trkpt lat="43.7391901" lon="11.1837916"><ele>64.0</ele><time>2026-04-26T07:47:42.641Z</time></trkpt><trkpt lat="43.7389721" lon="11.1839972"><ele>65.0</ele><time>2026-04-26T07:47:43.628Z</time></trkpt><trkpt lat="43.7387563" lon="11.1842024"><ele>69.0</ele><time>2026-04-26T07:47:44.63Z</time></trkpt><trkpt lat="43.738539" lon="11.1844072"><ele>73.0</ele><time>2026-04-26T07:47:45.636Z</time></trkpt><trkpt lat="43.7383227" lon="11.1846122"><ele>73.0</ele><time>2026-04-26T07:47:46.649Z</time></trkpt><trkpt lat="43.7381032" lon="11.1848143"><ele>73.0</ele><time>2026-04-26T07:47:47.635Z</time></trkpt><trkpt lat="43.7378853" lon="11.1850123"><ele>75.5</ele><time>2026-04-26T07:47:48.63Z</time></trkpt><trkpt lat="43.737663" lon="11.1852036"><ele>78.0</ele><time>2026-04-26T07:47:49.647Z</time></trkpt><trkpt lat="43.7374379" lon="11.1853883"><ele>78.0</ele><time>2026-04-26T07:47:50.641Z</time></trkpt><trkpt lat="43.7372103" lon="11.1855634"><ele>78.0</ele><time>2026-04-26T07:47:51.633Z</time></trkpt><trkpt lat="43.7369795" lon="11.1857324"><ele>82.0</ele><time>2026-04-26T07:47:52.636Z</time></trkpt><trkpt lat="43.7367461" lon="11.1858957"><ele>86.0</ele><time>2026-04-26T07:47:53.629Z</time></trkpt><trkpt lat="43.7365088" lon="11.1860492"><ele>86.0</ele><time>2026-04-26T07:47:54.62Z</time></trkpt><trkpt lat="43.7362682" lon="11.186192"><ele>86.0</ele><time>2026-04-26T07:47:55.631Z</time></trkpt><trkpt lat="43.7360263" lon="11.1863318"><ele>83.5</ele><time>2026-04-26T07:47:56.622Z</time></trkpt><trkpt lat="43.7357815" lon="11.1864654"><ele>81.0</ele><time>2026-04-26T07:47:57.621Z</time></trkpt><trkpt lat="43.7355363" lon="11.1865964"><ele>81.0</ele><time>2026-04-26T07:47:58.626Z</time></trkpt><trkpt lat="43.7352898" lon="11.1867271"><ele>81.0</ele><time>2026-04-26T07:47:59.624Z</time></trkpt><trkpt lat="43.7350425" lon="11.1868554"><ele>83.5</ele><time>2026-04-26T07:48:00.625Z</time></trkpt><trkpt lat="43.7347938" lon="11.186981"><ele>86.0</ele><time>2026-04-26T07:48:01.628Z</time></trkpt><trkpt lat="43.7345461" lon="11.1871083"><ele>81.5</ele><time>2026-04-26T07:48:02.636Z</time></trkpt><trkpt lat="43.734296" lon="11.1872397"><ele>77.0</ele><time>2026-04-26T07:48:03.627Z</time></trkpt><trkpt lat="43.7340464" lon="11.1873687"><ele>77.0</ele><time>2026-04-26T07:48:04.631Z</time></trkpt><trkpt lat="43.7337987" lon="11.1874992"><ele>77.0</ele><time>2026-04-26T07:48:05.644Z</time></trkpt><trkpt lat="43.7335513" lon="11.1876298"><ele>74.5</ele><time>2026-04-26T07:48:06.641Z</time></trkpt><trkpt lat="43.7333054" lon="11.1877627"><ele>72.0</ele><time>2026-04-26T07:48:07.645Z</time></trkpt><trkpt lat="43.7330625" lon="11.1879042"><ele>72.0</ele><time>2026-04-26T07:48:08.632Z</time></trkpt><trkpt lat="43.7328252" lon="11.1880592"><ele>72.0</ele><time>2026-04-26T07:48:09.631Z</time></trkpt><trkpt lat="43.7325959" lon="11.1882324"><ele>76.5</ele><time>2026-04-26T07:48:10.638Z</time></trkpt><trkpt lat="43.7323721" lon="11.1884186"><ele>81.0</ele><time>2026-04-26T07:48:11.635Z</time></trkpt><trkpt lat="43.7321548" lon="11.1886211"><ele>81.0</ele><time>2026-04-26T07:48:12.628Z</time></trkpt><trkpt lat="43.7319421" lon="11.1888382"><ele>81.0</ele><time>2026-04-26T07:48:13.627Z</time></trkpt><trkpt lat="43.7317397" lon="11.189068"><ele>83.5</ele><time>2026-04-26T07:48:14.631Z</time></trkpt><trkpt lat="43.7315449" lon="11.1893087"><ele>86.0</ele><time>2026-04-26T07:48:15.638Z</time></trkpt><trkpt lat="43.7313576" lon="11.1895615"><ele>86.0</ele><time>2026-04-26T07:48:16.621Z</time></trkpt><trkpt lat="43.7311798" lon="11.1898256"><ele>86.0</ele><time>2026-04-26T07:48:17.636Z</time></trkpt><trkpt lat="43.7310116" lon="11.1901022"><ele>85.0</ele><time>2026-04-26T07:48:18.627Z</time></trkpt><trkpt lat="43.7308522" lon="11.1903859"><ele>84.0</ele><time>2026-04-26T07:48:19.633Z</time></trkpt><trkpt lat="43.7306995" lon="11.1906767"><ele>84.0</ele><time>2026-04-26T07:48:20.641Z</time></trkpt><trkpt lat="43.730552" lon="11.1909761"><ele>84.0</ele><time>2026-04-26T07:48:21.633Z</time></trkpt><trkpt lat="43.7304082" lon="11.1912797"><ele>85.0</ele><time>2026-04-26T07:48:22.63Z</time></trkpt><trkpt lat="43.7302636" lon="11.1915841"><ele>86.0</ele><time>2026-04-26T07:48:23.634Z</time></trkpt><trkpt lat="43.730122" lon="11.1918894"><ele>88.5</ele><time>2026-04-26T07:48:24.624Z</time></trkpt><trkpt lat="43.7299804" lon="11.1921934"><ele>91.0</ele><time>2026-04-26T07:48:25.634Z</time></trkpt><trkpt lat="43.7298372" lon="11.192496"><ele>92.0</ele><time>2026-04-26T07:48:26.63Z</time></trkpt><trkpt lat="43.7296902" lon="11.192796"><ele>93.0</ele><time>2026-04-26T07:48:27.638Z</time></trkpt><trkpt lat="43.7295463" lon="11.1930964"><ele>93.5</ele><time>2026-04-26T07:48:28.616Z</time></trkpt><trkpt lat="43.7293995" lon="11.1933984"><ele>94.0</ele><time>2026-04-26T07:48:29.591Z</time></trkpt><trkpt lat="43.7292507" lon="11.1937001"><ele>119.0</ele><time>2026-04-26T07:48:30.584Z</time></trkpt><trkpt lat="43.7270599" lon="11.2068365"><ele>119.0</ele><time>2026-04-26T07:49:06.572Z</time></trkpt><trkpt lat="43.72705" lon="11.2072484"><ele>119.0</ele><time>2026-04-26T07:49:07.551Z</time></trkpt><trkpt lat="43.7270446" lon="11.2076391"><ele>117.0</ele><time>2026-04-26T07:49:08.554Z</time></trkpt><trkpt lat="43.727024" lon="11.2080546"><ele>115.0</ele><time>2026-04-26T07:49:09.559Z</time></trkpt><trkpt lat="43.7270071" lon="11.208459"><ele>113.0</ele><time>2026-04-26T07:49:10.564Z</time></trkpt><trkpt lat="43.7269782" lon="11.2092443"><ele>113.0</ele><time>2026-04-26T07:49:12.552Z</time></trkpt><trkpt lat="43.7269736" lon="11.2096364"><ele>113.0</ele><time>2026-04-26T07:49:13.56Z</time></trkpt><trkpt lat="43.7269228" lon="11.2100545"><ele>110.5</ele><time>2026-04-26T07:49:14.567Z</time></trkpt><trkpt lat="43.7268742" lon="11.2104639"><ele>108.0</ele><time>2026-04-26T07:49:15.574Z</time></trkpt><trkpt lat="43.7268402" lon="11.2108708"><ele>108.0</ele><time>2026-04-26T07:49:16.617Z</time></trkpt><trkpt lat="43.7268106" lon="11.211268"><ele>108.0</ele><time>2026-04-26T07:49:17.615Z</time></trkpt><trkpt lat="43.7267881" lon="11.2116674"><ele>103.5</ele><time>2026-04-26T07:49:18.608Z</time></trkpt><trkpt lat="43.7267589" lon="11.2120634"><ele>99.0</ele><time>2026-04-26T07:49:19.6Z</time></trkpt><trkpt lat="43.7267304" lon="11.2124729"><ele>99.0</ele><time>2026-04-26T07:49:20.604Z</time></trkpt><trkpt lat="43.726705" lon="11.2128692"><ele>99.0</ele><time>2026-04-26T07:49:21.604Z</time></trkpt><trkpt lat="43.7266794" lon="11.2132681"><ele>97.5</ele><time>2026-04-26T07:49:22.619Z</time></trkpt><trkpt lat="43.7266471" lon="11.213666"><ele>96.0</ele><time>2026-04-26T07:49:23.632Z</time></trkpt><trkpt lat="43.7266069" lon="11.214059"><ele>95.5</ele><time>2026-04-26T07:49:24.614Z</time></trkpt><trkpt lat="43.7265633" lon="11.214454"><ele>95.0</ele><time>2026-04-26T07:49:25.614Z</time></trkpt><trkpt lat="43.7265104" lon="11.214846"><ele>94.5</ele><time>2026-04-26T07:49:26.613Z</time></trkpt><trkpt lat="43.7264482" lon="11.2152452"><ele>94.0</ele><time>2026-04-26T07:49:27.617Z</time></trkpt><trkpt lat="43.7263696" lon="11.2156298"><ele>91.5</ele><time>2026-04-26T07:49:28.612Z</time></trkpt><trkpt lat="43.7262789" lon="11.2160134"><ele>89.0</ele><time>2026-04-26T07:49:29.617Z</time></trkpt><trkpt lat="43.7261756" lon="11.2163962"><ele>93.0</ele><time>2026-04-26T07:49:30.628Z</time></trkpt><trkpt lat="43.7260565" lon="11.2167693"><ele>97.0</ele><time>2026-04-26T07:49:31.626Z</time></trkpt><trkpt lat="43.7259302" lon="11.2171413"><ele>95.0</ele><time>2026-04-26T07:49:32.622Z</time></trkpt><trkpt lat="43.7257945" lon="11.2174941"><ele>93.0</ele><time>2026-04-26T07:49:33.585Z</time></trkpt><trkpt lat="43.7256607" lon="11.2178402"><ele>90.5</ele><time>2026-04-26T07:49:34.58Z</time></trkpt><trkpt lat="43.7255107" lon="11.2181743"><ele>88.0</ele><time>2026-04-26T07:49:35.61Z</time></trkpt><trkpt lat="43.7253333" lon="11.2185128"><ele>86.5</ele><time>2026-04-26T07:49:36.603Z</time></trkpt><trkpt lat="43.7251518" lon="11.2188326"><ele>85.0</ele><time>2026-04-26T07:49:37.625Z</time></trkpt><trkpt lat="43.7249565" lon="11.2191693"><ele>85.0</ele><time>2026-04-26T07:49:38.64Z</time></trkpt><trkpt lat="43.724776" lon="11.2194827"><ele>85.0</ele><time>2026-04-26T07:49:39.621Z</time></trkpt><trkpt lat="43.7245927" lon="11.2198008"><ele>81.0</ele><time>2026-04-26T07:49:40.63Z</time></trkpt><trkpt lat="43.7244136" lon="11.2201178"><ele>77.0</ele><time>2026-04-26T07:49:41.632Z</time></trkpt><trkpt lat="43.7242357" lon="11.2204281"><ele>79.0</ele><time>2026-04-26T07:49:42.615Z</time></trkpt><trkpt lat="43.7240603" lon="11.220739"><ele>81.0</ele><time>2026-04-26T07:49:43.627Z</time></trkpt><trkpt lat="43.7238881" lon="11.2210513"><ele>81.0</ele><time>2026-04-26T07:49:44.631Z</time></trkpt><trkpt lat="43.7237282" lon="11.2213747"><ele>81.0</ele><time>2026-04-26T07:49:45.619Z</time></trkpt><trkpt lat="43.7235845" lon="11.2217278"><ele>78.0</ele><time>2026-04-26T07:49:46.626Z</time></trkpt><trkpt lat="43.7234441" lon="11.2220681"><ele>75.0</ele><time>2026-04-26T07:49:47.624Z</time></trkpt><trkpt lat="43.7233171" lon="11.2224188"><ele>73.0</ele><time>2026-04-26T07:49:48.613Z</time></trkpt><trkpt lat="43.7232064" lon="11.2227727"><ele>71.0</ele><time>2026-04-26T07:49:49.62Z</time></trkpt><trkpt lat="43.7231056" lon="11.223134"><ele>69.5</ele><time>2026-04-26T07:49:50.632Z</time></trkpt><trkpt lat="43.7230088" lon="11.223496"><ele>68.0</ele><time>2026-04-26T07:49:51.619Z</time></trkpt><trkpt lat="43.722915" lon="11.2238584"><ele>66.5</ele><time>2026-04-26T07:49:52.629Z</time></trkpt><trkpt lat="43.7228275" lon="11.2242152"><ele>65.0</ele><time>2026-04-26T07:49:53.622Z</time></trkpt><trkpt lat="43.722737" lon="11.2245703"><ele>69.5</ele><time>2026-04-26T07:49:54.617Z</time></trkpt><trkpt lat="43.7226482" lon="11.2249249"><ele>74.0</ele><time>2026-04-26T07:49:55.633Z</time></trkpt><trkpt lat="43.7225566" lon="11.2252781"><ele>74.0</ele><time>2026-04-26T07:49:56.62Z</time></trkpt><trkpt lat="43.7224628" lon="11.2256284"><ele>74.0</ele><time>2026-04-26T07:49:57.619Z</time></trkpt><trkpt lat="43.7223672" lon="11.2259791"><ele>74.0</ele><time>2026-04-26T07:49:58.626Z</time></trkpt><trkpt lat="43.7222722" lon="11.226334"><ele>74.0</ele><time>2026-04-26T07:49:59.631Z</time></trkpt><trkpt lat="43.7221831" lon="11.2266886"><ele>78.0</ele><time>2026-04-26T07:50:00.617Z</time></trkpt><trkpt lat="43.7220904" lon="11.2270458"><ele>82.0</ele><time>2026-04-26T07:50:01.593Z</time></trkpt><trkpt lat="43.7219984" lon="11.2274059"><ele>102.0</ele><time>2026-04-26T07:50:02.583Z</time></trkpt><trkpt lat="43.7282227" lon="11.25326"><ele>103.0</ele><time>2026-04-26T07:51:17.8Z</time></trkpt><trkpt lat="43.7272739" lon="11.2524391"><ele>103.0</ele><time>2026-04-26T07:51:23.558Z</time></trkpt><trkpt lat="43.7274851" lon="11.2527075"><ele>103.0</ele><time>2026-04-26T07:51:24.551Z</time></trkpt><trkpt lat="43.7276776" lon="11.2529704"><ele>102.5</ele><time>2026-04-26T07:51:25.569Z</time></trkpt><trkpt lat="43.7278731" lon="11.2532378"><ele>102.0</ele><time>2026-04-26T07:51:26.568Z</time></trkpt><trkpt lat="43.7280638" lon="11.2535041"><ele>102.0</ele><time>2026-04-26T07:51:27.612Z</time></trkpt><trkpt lat="43.7282486" lon="11.253784"><ele>102.0</ele><time>2026-04-26T07:51:28.605Z</time></trkpt><trkpt lat="43.7284302" lon="11.2540744"><ele>100.5</ele><time>2026-04-26T07:51:29.599Z</time></trkpt><trkpt lat="43.7286095" lon="11.2543672"><ele>99.0</ele><time>2026-04-26T07:51:30.618Z</time></trkpt><trkpt lat="43.7287816" lon="11.2546593"><ele>98.0</ele><time>2026-04-26T07:51:31.613Z</time></trkpt><trkpt lat="43.7289579" lon="11.2549362"><ele>97.0</ele><time>2026-04-26T07:51:32.613Z</time></trkpt><trkpt lat="43.7291244" lon="11.255216"><ele>97.0</ele><time>2026-04-26T07:51:33.62Z</time></trkpt><trkpt lat="43.7292883" lon="11.2554964"><ele>97.0</ele><time>2026-04-26T07:51:34.611Z</time></trkpt><trkpt lat="43.7294547" lon="11.2557759"><ele>91.5</ele><time>2026-04-26T07:51:35.634Z</time></trkpt><trkpt lat="43.7296165" lon="11.2560491"><ele>86.0</ele><time>2026-04-26T07:51:36.632Z</time></trkpt><trkpt lat="43.7297791" lon="11.2563178"><ele>87.5</ele><time>2026-04-26T07:51:37.616Z</time></trkpt><trkpt lat="43.7299447" lon="11.2565885"><ele>89.0</ele><time>2026-04-26T07:51:38.619Z</time></trkpt><trkpt lat="43.7301066" lon="11.2568597"><ele>85.5</ele><time>2026-04-26T07:51:39.621Z</time></trkpt><trkpt lat="43.7302693" lon="11.257142"><ele>82.0</ele><time>2026-04-26T07:51:40.618Z</time></trkpt><trkpt lat="43.730435" lon="11.2574211"><ele>82.0</ele><time>2026-04-26T07:51:41.62Z</time></trkpt><trkpt lat="43.7305985" lon="11.2577053"><ele>82.0</ele><time>2026-04-26T07:51:42.622Z</time></trkpt><trkpt lat="43.7307657" lon="11.2579872"><ele>81.5</ele><time>2026-04-26T07:51:43.623Z</time></trkpt><trkpt lat="43.7309348" lon="11.2582714"><ele>81.0</ele><time>2026-04-26T07:51:44.622Z</time></trkpt><trkpt lat="43.7311069" lon="11.2585592"><ele>83.0</ele><time>2026-04-26T07:51:45.624Z</time></trkpt><trkpt lat="43.7312807" lon="11.2588544"><ele>85.0</ele><time>2026-04-26T07:51:46.621Z</time></trkpt><trkpt lat="43.7314556" lon="11.2591453"><ele>85.0</ele><time>2026-04-26T07:51:47.623Z</time></trkpt><trkpt lat="43.7316301" lon="11.2594322"><ele>85.0</ele><time>2026-04-26T07:51:48.621Z</time></trkpt><trkpt lat="43.7318004" lon="11.2597278"><ele>83.5</ele><time>2026-04-26T07:51:49.618Z</time></trkpt><trkpt lat="43.7319734" lon="11.2600225"><ele>82.0</ele><time>2026-04-26T07:51:50.611Z</time></trkpt><trkpt lat="43.7321453" lon="11.2603206"><ele>82.0</ele><time>2026-04-26T07:51:51.617Z</time></trkpt><trkpt lat="43.7323197" lon="11.2606199"><ele>82.0</ele><time>2026-04-26T07:51:52.626Z</time></trkpt><trkpt lat="43.732495" lon="11.2609187"><ele>82.0</ele><time>2026-04-26T07:51:53.639Z</time></trkpt><trkpt lat="43.7326712" lon="11.2612178"><ele>82.0</ele><time>2026-04-26T07:51:54.621Z</time></trkpt><trkpt lat="43.7328486" lon="11.2615186"><ele>82.0</ele><time>2026-04-26T07:51:55.634Z</time></trkpt><trkpt lat="43.7330264" lon="11.26182"><ele>82.0</ele><time>2026-04-26T07:51:56.628Z</time></trkpt><trkpt lat="43.7332013" lon="11.262146"><ele>83.0</ele><time>2026-04-26T07:51:57.618Z</time></trkpt><trkpt lat="43.7333793" lon="11.2624449"><ele>84.0</ele><time>2026-04-26T07:51:58.624Z</time></trkpt><trkpt lat="43.7335573" lon="11.2627443"><ele>84.0</ele><time>2026-04-26T07:51:59.614Z</time></trkpt><trkpt lat="43.733731" lon="11.2630451"><ele>84.0</ele><time>2026-04-26T07:52:00.631Z</time></trkpt><trkpt lat="43.7339059" lon="11.2633437"><ele>87.0</ele><time>2026-04-26T07:52:01.63Z</time></trkpt><trkpt lat="43.7340805" lon="11.2636422"><ele>90.0</ele><time>2026-04-26T07:52:02.617Z</time></trkpt><trkpt lat="43.7342574" lon="11.2639394"><ele>88.0</ele><time>2026-04-26T07:52:03.618Z</time></trkpt><trkpt lat="43.7344324" lon="11.2642378"><ele>86.0</ele><time>2026-04-26T07:52:04.601Z</time></trkpt><trkpt lat="43.7346088" lon="11.2645367"><ele>87.5</ele><time>2026-04-26T07:52:05.62Z</time></trkpt><trkpt lat="43.7347855" lon="11.2648353"><ele>89.0</ele><time>2026-04-26T07:52:06.619Z</time></trkpt><trkpt lat="43.7349615" lon="11.265134"><ele>89.0</ele><time>2026-04-26T07:52:07.628Z</time></trkpt><trkpt lat="43.7351362" lon="11.265437"><ele>89.0</ele><time>2026-04-26T07:52:08.618Z</time></trkpt><trkpt lat="43.7353123" lon="11.265735"><ele>86.0</ele><time>2026-04-26T07:52:09.614Z</time></trkpt><trkpt lat="43.7354892" lon="11.2660321"><ele>83.0</ele><time>2026-04-26T07:52:10.619Z</time></trkpt><trkpt lat="43.7356671" lon="11.2663294"><ele>87.0</ele><time>2026-04-26T07:52:11.629Z</time></trkpt><trkpt lat="43.7358462" lon="11.2666262"><ele>91.0</ele><time>2026-04-26T07:52:12.632Z</time></trkpt><trkpt lat="43.7360243" lon="11.2669243"><ele>89.5</ele><time>2026-04-26T07:52:13.619Z</time></trkpt><trkpt lat="43.7362008" lon="11.2672218"><ele>88.0</ele><time>2026-04-26T07:52:14.621Z</time></trkpt><trkpt lat="43.7363723" lon="11.2675188"><ele>88.0</ele><time>2026-04-26T07:52:15.613Z</time></trkpt><trkpt lat="43.736543" lon="11.2678119"><ele>88.0</ele><time>2026-04-26T07:52:16.619Z</time></trkpt><trkpt lat="43.736706" lon="11.2680955"><ele>89.0</ele><time>2026-04-26T07:52:17.628Z</time></trkpt><trkpt lat="43.7368638" lon="11.268372"><ele>90.0</ele><time>2026-04-26T07:52:18.615Z</time></trkpt><trkpt lat="43.7370198" lon="11.2686451"><ele>88.5</ele><time>2026-04-26T07:52:19.623Z</time></trkpt><trkpt lat="43.7371725" lon="11.268921"><ele>87.0</ele><time>2026-04-26T07:52:20.62Z</time></trkpt><trkpt lat="43.7373269" lon="11.269198"><ele>87.0</ele><time>2026-04-26T07:52:21.622Z</time></trkpt><trkpt lat="43.7374825" lon="11.2694744"><ele>87.0</ele><time>2026-04-26T07:52:22.63Z</time></trkpt><trkpt lat="43.737641" lon="11.269747"><ele>86.0</ele><time>2026-04-26T07:52:23.634Z</time></trkpt><trkpt lat="43.7378003" lon="11.2700211"><ele>85.0</ele><time>2026-04-26T07:52:24.619Z</time></trkpt><trkpt lat="43.7379593" lon="11.2702967"><ele>85.0</ele><time>2026-04-26T07:52:25.622Z</time></trkpt><trkpt lat="43.7381187" lon="11.2705736"><ele>85.0</ele><time>2026-04-26T07:52:26.622Z</time></trkpt><trkpt lat="43.7382775" lon="11.2708538"><ele>88.0</ele><time>2026-04-26T07:52:27.618Z</time></trkpt><trkpt lat="43.7384343" lon="11.2711361"><ele>91.0</ele><time>2026-04-26T07:52:28.634Z</time></trkpt><trkpt lat="43.7385928" lon="11.2714169"><ele>86.5</ele><time>2026-04-26T07:52:29.626Z</time></trkpt><trkpt lat="43.7387483" lon="11.2717002"><ele>82.0</ele><time>2026-04-26T07:52:30.627Z</time></trkpt><trkpt lat="43.7388969" lon="11.271977"><ele>82.0</ele><time>2026-04-26T07:52:31.612Z</time></trkpt><trkpt lat="43.739039" lon="11.2722553"><ele>82.0</ele><time>2026-04-26T07:52:32.628Z</time></trkpt><trkpt lat="43.7391738" lon="11.2725393"><ele>81.0</ele><time>2026-04-26T07:52:33.627Z</time></trkpt><trkpt lat="43.7392976" lon="11.2728287"><ele>80.0</ele><time>2026-04-26T07:52:34.615Z</time></trkpt><trkpt lat="43.7394126" lon="11.2731265"><ele>80.0</ele><time>2026-04-26T07:52:35.621Z</time></trkpt><trkpt lat="43.7395182" lon="11.273434"><ele>80.0</ele><time>2026-04-26T07:52:36.62Z</time></trkpt><trkpt lat="43.7396115" lon="11.2737463"><ele>83.0</ele><time>2026-04-26T07:52:37.629Z</time></trkpt><trkpt lat="43.7396884" lon="11.2740659"><ele>86.0</ele><time>2026-04-26T07:52:38.6Z</time></trkpt><trkpt lat="43.73974" lon="11.2743928"><ele>86.0</ele><time>2026-04-26T07:52:39.605Z</time></trkpt><trkpt lat="43.7397685" lon="11.2747249"><ele>86.0</ele><time>2026-04-26T07:52:40.602Z</time></trkpt><trkpt lat="43.7397791" lon="11.2750614"><ele>85.0</ele><time>2026-04-26T07:52:41.611Z</time></trkpt><trkpt lat="43.7397799" lon="11.2753986"><ele>84.0</ele><time>2026-04-26T07:52:42.612Z</time></trkpt><trkpt lat="43.7397804" lon="11.2757362"><ele>83.5</ele><time>2026-04-26T07:52:43.622Z</time></trkpt><trkpt lat="43.7397763" lon="11.2760733"><ele>83.0</ele><time>2026-04-26T07:52:44.607Z</time></trkpt><trkpt lat="43.7397735" lon="11.2764032"><ele>83.0</ele><time>2026-04-26T07:52:45.61Z</time></trkpt><trkpt lat="43.7397727" lon="11.2767217"><ele>83.0</ele><time>2026-04-26T07:52:46.628Z</time></trkpt><trkpt lat="43.7397713" lon="11.2770248"><ele>83.0</ele><time>2026-04-26T07:52:47.62Z</time></trkpt><trkpt lat="43.7397692" lon="11.2773072"><ele>83.33333333333334</ele><time>2026-04-26T07:52:48.602Z</time></trkpt><trkpt lat="43.7397656" lon="11.277576"><ele>83.66666666666667</ele><time>2026-04-26T07:52:49.615Z</time></trkpt><trkpt lat="43.7397578" lon="11.2778286"><ele>84.0</ele><time>2026-04-26T07:52:50.604Z</time></trkpt><trkpt lat="43.7397546" lon="11.2780726"><ele>84.0</ele><time>2026-04-26T07:52:51.631Z</time></trkpt><trkpt lat="43.7397588" lon="11.2783029"><ele>84.0</ele><time>2026-04-26T07:52:52.601Z</time></trkpt><trkpt lat="43.7397702" lon="11.2785207"><ele>84.0</ele><time>2026-04-26T07:52:53.635Z</time></trkpt><trkpt lat="43.7398055" lon="11.2787234"><ele>84.0</ele><time>2026-04-26T07:52:54.636Z</time></trkpt><trkpt lat="43.7398699" lon="11.2789075"><ele>84.0</ele><time>2026-04-26T07:52:55.61Z</time></trkpt><trkpt lat="43.7399638" lon="11.2790596"><ele>84.0</ele><time>2026-04-26T07:52:56.621Z</time></trkpt><trkpt lat="43.7400795" lon="11.2791678"><ele>84.0</ele><time>2026-04-26T07:52:57.613Z</time></trkpt><trkpt lat="43.7402117" lon="11.2792299"><ele>83.5</ele><time>2026-04-26T07:52:58.61Z</time></trkpt><trkpt lat="43.7403527" lon="11.2792522"><ele>83.0</ele><time>2026-04-26T07:52:59.583Z</time></trkpt><trkpt lat="43.7404955" lon="11.2792606"><ele>82.5</ele><time>2026-04-26T07:53:00.567Z</time></trkpt><trkpt lat="43.7406385" lon="11.2792714"><ele>82.0</ele><time>2026-04-26T07:53:01.608Z</time></trkpt><trkpt lat="43.7407862" lon="11.2792957"><ele>82.0</ele><time>2026-04-26T07:53:02.613Z</time></trkpt><trkpt lat="43.7409432" lon="11.2793277"><ele>82.0</ele><time>2026-04-26T07:53:03.617Z</time></trkpt><trkpt lat="43.7410829" lon="11.279383"><ele>82.0</ele><time>2026-04-26T07:53:04.611Z</time></trkpt><trkpt lat="43.7412248" lon="11.2794633"><ele>81.5</ele><time>2026-04-26T07:53:05.616Z</time></trkpt><trkpt lat="43.741359" lon="11.2795591"><ele>81.0</ele><time>2026-04-26T07:53:06.626Z</time></trkpt><trkpt lat="43.7414887" lon="11.2796597"><ele>80.5</ele><time>2026-04-26T07:53:07.63Z</time></trkpt><trkpt lat="43.7416179" lon="11.279755"><ele>80.0</ele><time>2026-04-26T07:53:08.617Z</time></trkpt><trkpt lat="43.7417491" lon="11.279847"><ele>80.0</ele><time>2026-04-26T07:53:09.61Z</time></trkpt><trkpt lat="43.7418783" lon="11.279934"><ele>80.0</ele><time>2026-04-26T07:53:10.612Z</time></trkpt><trkpt lat="43.7419995" lon="11.2800192"><ele>80.0</ele><time>2026-04-26T07:53:11.611Z</time></trkpt><trkpt lat="43.7421085" lon="11.280103"><ele>80.0</ele><time>2026-04-26T07:53:12.626Z</time></trkpt><trkpt lat="43.7422054" lon="11.2801847"><ele>79.6</ele><time>2026-04-26T07:53:13.611Z</time></trkpt><trkpt lat="43.7422883" lon="11.2802662"><ele>79.2</ele><time>2026-04-26T07:53:14.615Z</time></trkpt><trkpt lat="43.7423742" lon="11.2803468"><ele>78.8</ele><time>2026-04-26T07:53:15.621Z</time></trkpt><trkpt lat="43.7424631" lon="11.2804305"><ele>78.4</ele><time>2026-04-26T07:53:16.623Z</time></trkpt><trkpt lat="43.74256" lon="11.2805372"><ele>78.0</ele><time>2026-04-26T07:53:17.611Z</time></trkpt><trkpt lat="43.7426522" lon="11.280643"><ele>77.75</ele><time>2026-04-26T07:53:18.621Z</time></trkpt><trkpt lat="43.7427475" lon="11.2807566"><ele>77.5</ele><time>2026-04-26T07:53:19.615Z</time></trkpt><trkpt lat="43.7428505" lon="11.2808732"><ele>77.25</ele><time>2026-04-26T07:53:20.658Z</time></trkpt><trkpt lat="43.7429555" lon="11.2809978"><ele>77.0</ele><time>2026-04-26T07:53:21.62Z</time></trkpt><trkpt lat="43.7430605" lon="11.2811231"><ele>77.0</ele><time>2026-04-26T07:53:22.603Z</time></trkpt><trkpt lat="43.7431755" lon="11.2812469"><ele>77.0</ele><time>2026-04-26T07:53:23.617Z</time></trkpt><trkpt lat="43.7432951" lon="11.2813725"><ele>77.0</ele><time>2026-04-26T07:53:24.609Z</time></trkpt><trkpt lat="43.7434167" lon="11.2814972"><ele>77.0</ele><time>2026-04-26T07:53:25.619Z</time></trkpt><trkpt lat="43.7435433" lon="11.281622"><ele>76.66666666666667</ele><time>2026-04-26T07:53:26.608Z</time></trkpt><trkpt lat="43.7436751" lon="11.281749"><ele>76.33333333333333</ele><time>2026-04-26T07:53:27.616Z</time></trkpt><trkpt lat="43.7438104" lon="11.2818758"><ele>76.0</ele><time>2026-04-26T07:53:28.619Z</time></trkpt><trkpt lat="43.7439501" lon="11.2820017"><ele>76.0</ele><time>2026-04-26T07:53:29.614Z</time></trkpt><trkpt lat="43.7440946" lon="11.2821246"><ele>76.0</ele><time>2026-04-26T07:53:30.624Z</time></trkpt><trkpt lat="43.7442402" lon="11.2822489"><ele>76.0</ele><time>2026-04-26T07:53:31.608Z</time></trkpt><trkpt lat="43.7443834" lon="11.2823814"><ele>75.66666666666666</ele><time>2026-04-26T07:53:32.619Z</time></trkpt><trkpt lat="43.7445277" lon="11.2825174"><ele>75.33333333333333</ele><time>2026-04-26T07:53:33.625Z</time></trkpt><trkpt lat="43.744672" lon="11.2826557"><ele>75.0</ele><time>2026-04-26T07:53:34.619Z</time></trkpt><trkpt lat="43.7448189" lon="11.2827911"><ele>75.0</ele><time>2026-04-26T07:53:35.624Z</time></trkpt><trkpt lat="43.7449692" lon="11.2829259"><ele>75.0</ele><time>2026-04-26T07:53:36.629Z</time></trkpt><trkpt lat="43.7451198" lon="11.2830612"><ele>75.0</ele><time>2026-04-26T07:53:37.619Z</time></trkpt><trkpt lat="43.7452705" lon="11.2832026"><ele>77.0</ele><time>2026-04-26T07:53:38.627Z</time></trkpt><trkpt lat="43.7454235" lon="11.2833417"><ele>79.0</ele><time>2026-04-26T07:53:39.622Z</time></trkpt><trkpt lat="43.7455714" lon="11.2834962"><ele>81.0</ele><time>2026-04-26T07:53:40.623Z</time></trkpt><trkpt lat="43.7457133" lon="11.2836595"><ele>81.0</ele><time>2026-04-26T07:53:41.613Z</time></trkpt><trkpt lat="43.7458404" lon="11.2838463"><ele>81.0</ele><time>2026-04-26T07:53:42.608Z</time></trkpt><trkpt lat="43.7459586" lon="11.2840499"><ele>81.0</ele><time>2026-04-26T07:53:43.633Z</time></trkpt><trkpt lat="43.7460632" lon="11.2842677"><ele>85.0</ele><time>2026-04-26T07:53:44.625Z</time></trkpt><trkpt lat="43.7461554" lon="11.2845"><ele>89.0</ele><time>2026-04-26T07:53:45.623Z</time></trkpt><trkpt lat="43.7462385" lon="11.2847417"><ele>93.0</ele><time>2026-04-26T07:53:46.63Z</time></trkpt><trkpt lat="43.7463188" lon="11.2849871"><ele>93.66666666666667</ele><time>2026-04-26T07:53:47.611Z</time></trkpt><trkpt lat="43.7464004" lon="11.2852321"><ele>94.33333333333334</ele><time>2026-04-26T07:53:48.643Z</time></trkpt><trkpt lat="43.7464803" lon="11.2854795"><ele>95.0</ele><time>2026-04-26T07:53:49.627Z</time></trkpt><trkpt lat="43.7465642" lon="11.2857231"><ele>95.0</ele><time>2026-04-26T07:53:50.614Z</time></trkpt><trkpt lat="43.7466503" lon="11.2859676"><ele>95.0</ele><time>2026-04-26T07:53:51.614Z</time></trkpt><trkpt lat="43.7467401" lon="11.2862114"><ele>95.0</ele><time>2026-04-26T07:53:52.622Z</time></trkpt><trkpt lat="43.7468279" lon="11.2864546"><ele>100.66666666666667</ele><time>2026-04-26T07:53:53.634Z</time></trkpt><trkpt lat="43.7469199" lon="11.2866976"><ele>106.33333333333334</ele><time>2026-04-26T07:53:54.618Z</time></trkpt><trkpt lat="43.747013" lon="11.2869408"><ele>112.0</ele><time>2026-04-26T07:53:55.632Z</time></trkpt><trkpt lat="43.7471105" lon="11.2871833"><ele>108.0</ele><time>2026-04-26T07:53:56.602Z</time></trkpt><trkpt lat="43.7472146" lon="11.287423"><ele>104.0</ele><time>2026-04-26T07:53:57.615Z</time></trkpt><trkpt lat="43.747324" lon="11.2876587"><ele>100.0</ele><time>2026-04-26T07:53:58.62Z</time></trkpt><trkpt lat="43.7474357" lon="11.2878928"><ele>101.0</ele><time>2026-04-26T07:53:59.629Z</time></trkpt><trkpt lat="43.7475484" lon="11.2881289"><ele>102.0</ele><time>2026-04-26T07:54:00.618Z</time></trkpt><trkpt lat="43.747665" lon="11.2883673"><ele>103.0</ele><time>2026-04-26T07:54:01.626Z</time></trkpt><trkpt lat="43.747776" lon="11.2886108"><ele>103.0</ele><time>2026-04-26T07:54:02.627Z</time></trkpt><trkpt lat="43.7478844" lon="11.2888552"><ele>103.0</ele><time>2026-04-26T07:54:03.621Z</time></trkpt><trkpt lat="43.7479815" lon="11.2891067"><ele>103.0</ele><time>2026-04-26T07:54:04.627Z</time></trkpt><trkpt lat="43.7480693" lon="11.2893657"><ele>100.66666666666667</ele><time>2026-04-26T07:54:05.611Z</time></trkpt><trkpt lat="43.7481388" lon="11.2896333"><ele>98.33333333333334</ele><time>2026-04-26T07:54:06.612Z</time></trkpt><trkpt lat="43.7481891" lon="11.2899106"><ele>96.0</ele><time>2026-04-26T07:54:07.616Z</time></trkpt><trkpt lat="43.7482226" lon="11.2901993"><ele>94.33333333333333</ele><time>2026-04-26T07:54:08.611Z</time></trkpt><trkpt lat="43.748237" lon="11.2904926"><ele>92.66666666666666</ele><time>2026-04-26T07:54:09.626Z</time></trkpt><trkpt lat="43.7482397" lon="11.2907948"><ele>91.0</ele><time>2026-04-26T07:54:10.611Z</time></trkpt><trkpt lat="43.7482309" lon="11.2911026"><ele>89.66666666666666</ele><time>2026-04-26T07:54:11.601Z</time></trkpt><trkpt lat="43.7482219" lon="11.2914074"><ele>88.33333333333333</ele><time>2026-04-26T07:54:12.622Z</time></trkpt><trkpt lat="43.7482131" lon="11.2917124"><ele>87.0</ele><time>2026-04-26T07:54:13.615Z</time></trkpt><trkpt lat="43.7482025" lon="11.292013"><ele>85.0</ele><time>2026-04-26T07:54:14.617Z</time></trkpt><trkpt lat="43.7481902" lon="11.2923217"><ele>83.0</ele><time>2026-04-26T07:54:15.612Z</time></trkpt><trkpt lat="43.7481804" lon="11.2926223"><ele>81.0</ele><time>2026-04-26T07:54:16.618Z</time></trkpt><trkpt lat="43.74817" lon="11.2929172"><ele>79.66666666666667</ele><time>2026-04-26T07:54:17.63Z</time></trkpt><trkpt lat="43.7481591" lon="11.2932073"><ele>78.33333333333334</ele><time>2026-04-26T07:54:18.616Z</time></trkpt><trkpt lat="43.7481497" lon="11.2934909"><ele>77.0</ele><time>2026-04-26T07:54:19.615Z</time></trkpt><trkpt lat="43.7481405" lon="11.2937727"><ele>76.33333333333334</ele><time>2026-04-26T07:54:20.607Z</time></trkpt><trkpt lat="43.7481391" lon="11.2940479"><ele>75.66666666666667</ele><time>2026-04-26T07:54:21.597Z</time></trkpt><trkpt lat="43.7481431" lon="11.2943192"><ele>75.0</ele><time>2026-04-26T07:54:22.619Z</time></trkpt><trkpt lat="43.7481608" lon="11.2945918"><ele>74.66666666666667</ele><time>2026-04-26T07:54:23.604Z</time></trkpt><trkpt lat="43.7481973" lon="11.294863"><ele>74.33333333333334</ele><time>2026-04-26T07:54:24.623Z</time></trkpt><trkpt lat="43.7482543" lon="11.2951345"><ele>74.0</ele><time>2026-04-26T07:54:25.618Z</time></trkpt><trkpt lat="43.7483272" lon="11.2953953"><ele>75.66666666666667</ele><time>2026-04-26T07:54:26.623Z</time></trkpt><trkpt lat="43.7484168" lon="11.2956463"><ele>77.33333333333333</ele><time>2026-04-26T07:54:27.623Z</time></trkpt><trkpt lat="43.7485225" lon="11.2958892"><ele>79.0</ele><time>2026-04-26T07:54:28.621Z</time></trkpt><trkpt lat="43.7486435" lon="11.2961228"><ele>75.0</ele><time>2026-04-26T07:54:29.616Z</time></trkpt><trkpt lat="43.7487821" lon="11.2963243"><ele>71.0</ele><time>2026-04-26T07:54:30.627Z</time></trkpt><trkpt lat="43.748927" lon="11.2965125"><ele>67.0</ele><time>2026-04-26T07:54:31.622Z</time></trkpt><trkpt lat="43.7490773" lon="11.2966688"><ele>67.0</ele><time>2026-04-26T07:54:32.623Z</time></trkpt><trkpt lat="43.7492115" lon="11.2968102"><ele>67.0</ele><time>2026-04-26T07:54:33.622Z</time></trkpt><trkpt lat="43.7493317" lon="11.2969382"><ele>67.0</ele><time>2026-04-26T07:54:34.621Z</time></trkpt><trkpt lat="43.7494389" lon="11.2970476"><ele>65.75</ele><time>2026-04-26T07:54:35.625Z</time></trkpt><trkpt lat="43.7495359" lon="11.2971544"><ele>64.5</ele><time>2026-04-26T07:54:36.623Z</time></trkpt><trkpt lat="43.7496304" lon="11.2972646"><ele>63.25</ele><time>2026-04-26T07:54:37.614Z</time></trkpt><trkpt lat="43.7497305" lon="11.2973712"><ele>62.0</ele><time>2026-04-26T07:54:38.609Z</time></trkpt><trkpt lat="43.7498344" lon="11.2974813"><ele>62.0</ele><time>2026-04-26T07:54:39.626Z</time></trkpt><trkpt lat="43.7499393" lon="11.297595"><ele>62.0</ele><time>2026-04-26T07:54:40.623Z</time></trkpt><trkpt lat="43.750049" lon="11.2977095"><ele>62.0</ele><time>2026-04-26T07:54:41.645Z</time></trkpt><trkpt lat="43.7501563" lon="11.2978274"><ele>62.0</ele><time>2026-04-26T07:54:42.629Z</time></trkpt><trkpt lat="43.7502617" lon="11.2979428"><ele>61.5</ele><time>2026-04-26T07:54:43.622Z</time></trkpt><trkpt lat="43.7503692" lon="11.2980534"><ele>61.0</ele><time>2026-04-26T07:54:44.623Z</time></trkpt><trkpt lat="43.7504734" lon="11.2981657"><ele>60.5</ele><time>2026-04-26T07:54:45.629Z</time></trkpt><trkpt lat="43.7505804" lon="11.2982798"><ele>60.0</ele><time>2026-04-26T07:54:46.634Z</time></trkpt><trkpt lat="43.7506901" lon="11.2983927"><ele>60.0</ele><time>2026-04-26T07:54:47.629Z</time></trkpt><trkpt lat="43.7508003" lon="11.298506"><ele>60.0</ele><time>2026-04-26T07:54:48.633Z</time></trkpt><trkpt lat="43.750913" lon="11.298623"><ele>60.0</ele><time>2026-04-26T07:54:49.624Z</time></trkpt><trkpt lat="43.7510282" lon="11.2987434"><ele>60.0</ele><time>2026-04-26T07:54:50.619Z</time></trkpt><trkpt lat="43.7511445" lon="11.2988543"><ele>59.66666666666667</ele><time>2026-04-26T07:54:51.623Z</time></trkpt><trkpt lat="43.7512652" lon="11.2989712"><ele>59.333333333333336</ele><time>2026-04-26T07:54:52.623Z</time></trkpt><trkpt lat="43.7513877" lon="11.2990883"><ele>59.0</ele><time>2026-04-26T07:54:53.621Z</time></trkpt><trkpt lat="43.7515164" lon="11.2992067"><ele>59.0</ele><time>2026-04-26T07:54:54.629Z</time></trkpt><trkpt lat="43.7516502" lon="11.2993206"><ele>59.0</ele><time>2026-04-26T07:54:55.603Z</time></trkpt><trkpt lat="43.7517888" lon="11.2994346"><ele>59.0</ele><time>2026-04-26T07:54:56.622Z</time></trkpt><trkpt lat="43.7519309" lon="11.2995476"><ele>58.333333333333336</ele><time>2026-04-26T07:54:57.628Z</time></trkpt><trkpt lat="43.7520798" lon="11.2996592"><ele>57.66666666666667</ele><time>2026-04-26T07:54:58.619Z</time></trkpt><trkpt lat="43.7522323" lon="11.2997684"><ele>57.0</ele><time>2026-04-26T07:54:59.629Z</time></trkpt><trkpt lat="43.7523894" lon="11.2998706"><ele>57.0</ele><time>2026-04-26T07:55:00.629Z</time></trkpt><trkpt lat="43.7525483" lon="11.2999743"><ele>57.0</ele><time>2026-04-26T07:55:01.633Z</time></trkpt><trkpt lat="43.7527134" lon="11.3000758"><ele>57.0</ele><time>2026-04-26T07:55:02.628Z</time></trkpt><trkpt lat="43.7528803" lon="11.3001766"><ele>56.66666666666667</ele><time>2026-04-26T07:55:03.634Z</time></trkpt><trkpt lat="43.7530504" lon="11.300277"><ele>56.333333333333336</ele><time>2026-04-26T07:55:04.618Z</time></trkpt><trkpt lat="43.7532222" lon="11.3003789"><ele>56.0</ele><time>2026-04-26T07:55:05.64Z</time></trkpt><trkpt lat="43.7533949" lon="11.3004831"><ele>56.333333333333336</ele><time>2026-04-26T07:55:06.63Z</time></trkpt><trkpt lat="43.7535707" lon="11.3005855"><ele>56.66666666666667</ele><time>2026-04-26T07:55:07.63Z</time></trkpt><trkpt lat="43.7537478" lon="11.3006928"><ele>57.0</ele><time>2026-04-26T07:55:08.608Z</time></trkpt><trkpt lat="43.7539259" lon="11.3007987"><ele>57.0</ele><time>2026-04-26T07:55:09.608Z</time></trkpt><trkpt lat="43.7541011" lon="11.3009062"><ele>57.0</ele><time>2026-04-26T07:55:10.632Z</time></trkpt><trkpt lat="43.7542769" lon="11.3010169"><ele>57.0</ele><time>2026-04-26T07:55:11.644Z</time></trkpt><trkpt lat="43.7544513" lon="11.301122"><ele>57.33333333333333</ele><time>2026-04-26T07:55:12.639Z</time></trkpt><trkpt lat="43.7546195" lon="11.3012222"><ele>57.666666666666664</ele><time>2026-04-26T07:55:13.646Z</time></trkpt><trkpt lat="43.7547812" lon="11.3013222"><ele>58.0</ele><time>2026-04-26T07:55:14.648Z</time></trkpt><trkpt lat="43.7549378" lon="11.3014153"><ele>58.33333333333333</ele><time>2026-04-26T07:55:15.647Z</time></trkpt><trkpt lat="43.7550902" lon="11.3015138"><ele>58.66666666666667</ele><time>2026-04-26T07:55:16.637Z</time></trkpt><trkpt lat="43.7552357" lon="11.3016125"><ele>59.0</ele><time>2026-04-26T07:55:17.606Z</time></trkpt><trkpt lat="43.7553754" lon="11.3017137"><ele>58.5</ele><time>2026-04-26T07:55:18.619Z</time></trkpt><trkpt lat="43.7555057" lon="11.3018079"><ele>58.0</ele><time>2026-04-26T07:55:19.609Z</time></trkpt><trkpt lat="43.7556251" lon="11.3018989"><ele>57.5</ele><time>2026-04-26T07:55:20.631Z</time></trkpt><trkpt lat="43.7557363" lon="11.301982"><ele>57.0</ele><time>2026-04-26T07:55:21.625Z</time></trkpt><trkpt lat="43.75584" lon="11.3020578"><ele>57.0</ele><time>2026-04-26T07:55:22.614Z</time></trkpt><trkpt lat="43.7559296" lon="11.3021237"><ele>57.0</ele><time>2026-04-26T07:55:23.614Z</time></trkpt><trkpt lat="43.7559992" lon="11.3021864"><ele>57.0</ele><time>2026-04-26T07:55:24.596Z</time></trkpt><trkpt lat="43.7560505" lon="11.3022466"><ele>57.0</ele><time>2026-04-26T07:55:25.619Z</time></trkpt><trkpt lat="43.7561036" lon="11.3023463"><ele>57.0</ele><time>2026-04-26T07:55:27.599Z</time></trkpt><trkpt lat="43.7561215" lon="11.3024674"><ele>57.0</ele><time>2026-04-26T07:55:29.618Z</time></trkpt><trkpt lat="43.7561148" lon="11.3025575"><ele>57.166666666666664</ele><time>2026-04-26T07:55:30.616Z</time></trkpt><trkpt lat="43.7560892" lon="11.3026624"><ele>57.33333333333333</ele><time>2026-04-26T07:55:31.625Z</time></trkpt><trkpt lat="43.75606" lon="11.3027901"><ele>57.5</ele><time>2026-04-26T07:55:32.607Z</time></trkpt><trkpt lat="43.7560399" lon="11.302905"><ele>57.666666666666664</ele><time>2026-04-26T07:55:33.616Z</time></trkpt><trkpt lat="43.7560164" lon="11.3030036"><ele>57.83333333333333</ele><time>2026-04-26T07:55:34.612Z</time></trkpt><trkpt lat="43.7559977" lon="11.3030884"><ele>58.0</ele><time>2026-04-26T07:55:35.612Z</time></trkpt><trkpt lat="43.755971" lon="11.303228"><ele>57.99999999999999</ele><time>2026-04-26T07:55:37.622Z</time></trkpt><trkpt lat="43.7559492" lon="11.3033352"><ele>58.0</ele><time>2026-04-26T07:55:40.615Z</time></trkpt><trkpt lat="43.7559442" lon="11.3034304"><ele>58.0</ele><time>2026-04-26T07:56:06.617Z</time></trkpt><trkpt lat="43.7559406" lon="11.3035322"><ele>58.0</ele><time>2026-04-26T07:56:08.622Z</time></trkpt><trkpt lat="43.7559357" lon="11.3036995"><ele>57.99999999999999</ele><time>2026-04-26T07:56:10.609Z</time></trkpt><trkpt lat="43.7559241" lon="11.3038136"><ele>58.0</ele><time>2026-04-26T07:56:11.624Z</time></trkpt><trkpt lat="43.7559054" lon="11.3039284"><ele>58.2</ele><time>2026-04-26T07:56:12.628Z</time></trkpt><trkpt lat="43.7558834" lon="11.3040349"><ele>58.4</ele><time>2026-04-26T07:56:13.625Z</time></trkpt><trkpt lat="43.7558583" lon="11.3041547"><ele>58.60000000000001</ele><time>2026-04-26T07:56:14.624Z</time></trkpt><trkpt lat="43.7558304" lon="11.3042841"><ele>58.800000000000004</ele><time>2026-04-26T07:56:15.628Z</time></trkpt><trkpt lat="43.7558055" lon="11.304422"><ele>59.0</ele><time>2026-04-26T07:56:16.63Z</time></trkpt><trkpt lat="43.7557757" lon="11.3045704"><ele>59.0</ele><time>2026-04-26T07:56:17.623Z</time></trkpt><trkpt lat="43.7557435" lon="11.3047223"><ele>59.0</ele><time>2026-04-26T07:56:18.618Z</time></trkpt><trkpt lat="43.75571" lon="11.3048776"><ele>59.0</ele><time>2026-04-26T07:56:19.625Z</time></trkpt><trkpt lat="43.7556781" lon="11.3050412"><ele>59.0</ele><time>2026-04-26T07:56:20.63Z</time></trkpt><trkpt lat="43.7556464" lon="11.3052051"><ele>58.75</ele><time>2026-04-26T07:56:21.624Z</time></trkpt><trkpt lat="43.755613" lon="11.3053716"><ele>58.5</ele><time>2026-04-26T07:56:22.63Z</time></trkpt><trkpt lat="43.7555801" lon="11.3055338"><ele>58.25</ele><time>2026-04-26T07:56:23.625Z</time></trkpt><trkpt lat="43.7555519" lon="11.3056912"><ele>58.0</ele><time>2026-04-26T07:56:24.631Z</time></trkpt><trkpt lat="43.7555226" lon="11.3058423"><ele>58.0</ele><time>2026-04-26T07:56:25.629Z</time></trkpt><trkpt lat="43.7554968" lon="11.3059899"><ele>58.0</ele><time>2026-04-26T07:56:26.618Z</time></trkpt><trkpt lat="43.7554705" lon="11.3061313"><ele>58.0</ele><time>2026-04-26T07:56:27.623Z</time></trkpt><trkpt lat="43.755448" lon="11.3062663"><ele>58.0</ele><time>2026-04-26T07:56:28.623Z</time></trkpt><trkpt lat="43.7554261" lon="11.3063874"><ele>58.0</ele><time>2026-04-26T07:56:29.619Z</time></trkpt><trkpt lat="43.7553968" lon="11.3065006"><ele>58.0</ele><time>2026-04-26T07:56:30.621Z</time></trkpt><trkpt lat="43.7553537" lon="11.306597"><ele>58.0</ele><time>2026-04-26T07:56:31.637Z</time></trkpt><trkpt lat="43.7552924" lon="11.3066711"><ele>58.0</ele><time>2026-04-26T07:56:32.634Z</time></trkpt><trkpt lat="43.7552072" lon="11.3067359"><ele>58.0</ele><time>2026-04-26T07:56:33.563Z</time></trkpt><trkpt lat="43.7551633" lon="11.3068449"><ele>58.0</ele><time>2026-04-26T07:56:34.565Z</time></trkpt><trkpt lat="43.7551514" lon="11.3069927"><ele>58.0</ele><time>2026-04-26T07:56:35.572Z</time></trkpt><trkpt lat="43.755135" lon="11.3071366"><ele>58.0</ele><time>2026-04-26T07:56:36.575Z</time></trkpt><trkpt lat="43.7551147" lon="11.3072942"><ele>58.0</ele><time>2026-04-26T07:56:37.572Z</time></trkpt><trkpt lat="43.7550871" lon="11.3074614"><ele>58.0</ele><time>2026-04-26T07:56:38.572Z</time></trkpt><trkpt lat="43.7550609" lon="11.3076195"><ele>58.25</ele><time>2026-04-26T07:56:39.574Z</time></trkpt><trkpt lat="43.755041" lon="11.3077842"><ele>58.5</ele><time>2026-04-26T07:56:40.569Z</time></trkpt><trkpt lat="43.7550164" lon="11.3079553"><ele>58.75</ele><time>2026-04-26T07:56:41.567Z</time></trkpt><trkpt lat="43.7549983" lon="11.3081365"><ele>59.0</ele><time>2026-04-26T07:56:42.565Z</time></trkpt><trkpt lat="43.7549832" lon="11.3083093"><ele>59.0</ele><time>2026-04-26T07:56:43.569Z</time></trkpt><trkpt lat="43.7549682" lon="11.308484"><ele>59.0</ele><time>2026-04-26T07:56:44.571Z</time></trkpt><trkpt lat="43.7549552" lon="11.3086577"><ele>59.0</ele><time>2026-04-26T07:56:45.572Z</time></trkpt><trkpt lat="43.7549386" lon="11.3088337"><ele>59.0</ele><time>2026-04-26T07:56:46.576Z</time></trkpt><trkpt lat="43.7549286" lon="11.3090077"><ele>59.0</ele><time>2026-04-26T07:56:47.578Z</time></trkpt><trkpt lat="43.7549124" lon="11.3091915"><ele>59.0</ele><time>2026-04-26T07:56:48.563Z</time></trkpt><trkpt lat="43.7549053" lon="11.3093742"><ele>59.0</ele><time>2026-04-26T07:56:49.581Z</time></trkpt><trkpt lat="43.7548982" lon="11.3095688"><ele>59.0</ele><time>2026-04-26T07:56:50.574Z</time></trkpt><trkpt lat="43.7548899" lon="11.3097548"><ele>58.75</ele><time>2026-04-26T07:56:51.572Z</time></trkpt><trkpt lat="43.7548883" lon="11.3099461"><ele>58.5</ele><time>2026-04-26T07:56:52.585Z</time></trkpt><trkpt lat="43.7548858" lon="11.3101424"><ele>58.25</ele><time>2026-04-26T07:56:53.569Z</time></trkpt><trkpt lat="43.754877" lon="11.3103538"><ele>58.0</ele><time>2026-04-26T07:56:54.574Z</time></trkpt><trkpt lat="43.7548796" lon="11.3105712"><ele>57.666666666666664</ele><time>2026-04-26T07:56:55.575Z</time></trkpt><trkpt lat="43.7548908" lon="11.3107861"><ele>57.33333333333333</ele><time>2026-04-26T07:56:56.572Z</time></trkpt><trkpt lat="43.7549028" lon="11.3110173"><ele>57.0</ele><time>2026-04-26T07:56:57.578Z</time></trkpt><trkpt lat="43.7549207" lon="11.3112472"><ele>57.66666666666667</ele><time>2026-04-26T07:56:58.573Z</time></trkpt><trkpt lat="43.7549385" lon="11.3114748"><ele>58.333333333333336</ele><time>2026-04-26T07:56:59.565Z</time></trkpt><trkpt lat="43.7549529" lon="11.3117054"><ele>59.0</ele><time>2026-04-26T07:57:00.57Z</time></trkpt><trkpt lat="43.754977" lon="11.311933"><ele>59.0</ele><time>2026-04-26T07:57:01.565Z</time></trkpt><trkpt lat="43.7549988" lon="11.3121611"><ele>59.0</ele><time>2026-04-26T07:57:02.549Z</time></trkpt><trkpt lat="43.75502" lon="11.3123926"><ele>59.0</ele><time>2026-04-26T07:57:03.568Z</time></trkpt><trkpt lat="43.7550463" lon="11.3126308"><ele>59.0</ele><time>2026-04-26T07:57:04.556Z</time></trkpt><trkpt lat="43.7550773" lon="11.3128532"><ele>59.0</ele><time>2026-04-26T07:57:05.574Z</time></trkpt><trkpt lat="43.7551137" lon="11.3130778"><ele>59.0</ele><time>2026-04-26T07:57:06.572Z</time></trkpt><trkpt lat="43.7551548" lon="11.313292"><ele>59.0</ele><time>2026-04-26T07:57:07.568Z</time></trkpt><trkpt lat="43.7551901" lon="11.3134984"><ele>59.0</ele><time>2026-04-26T07:57:08.57Z</time></trkpt><trkpt lat="43.7552238" lon="11.3136892"><ele>59.0</ele><time>2026-04-26T07:57:09.559Z</time></trkpt><trkpt lat="43.7552558" lon="11.3138738"><ele>59.0</ele><time>2026-04-26T07:57:10.569Z</time></trkpt><trkpt lat="43.7552857" lon="11.3140563"><ele>58.75</ele><time>2026-04-26T07:57:11.577Z</time></trkpt><trkpt lat="43.7553124" lon="11.3142335"><ele>58.5</ele><time>2026-04-26T07:57:12.556Z</time></trkpt><trkpt lat="43.7553421" lon="11.3144191"><ele>58.25</ele><time>2026-04-26T07:57:13.572Z</time></trkpt><trkpt lat="43.7553741" lon="11.3146101"><ele>58.0</ele><time>2026-04-26T07:57:14.572Z</time></trkpt><trkpt lat="43.755401" lon="11.3148007"><ele>58.75</ele><time>2026-04-26T07:57:15.571Z</time></trkpt><trkpt lat="43.7554282" lon="11.3149878"><ele>59.5</ele><time>2026-04-26T07:57:16.573Z</time></trkpt><trkpt lat="43.7554559" lon="11.3151813"><ele>60.25</ele><time>2026-04-26T07:57:17.563Z</time></trkpt><trkpt lat="43.7554804" lon="11.3153742"><ele>61.0</ele><time>2026-04-26T07:57:18.568Z</time></trkpt><trkpt lat="43.7555102" lon="11.3155474"><ele>61.25</ele><time>2026-04-26T07:57:19.565Z</time></trkpt><trkpt lat="43.755536" lon="11.3157125"><ele>61.5</ele><time>2026-04-26T07:57:20.565Z</time></trkpt><trkpt lat="43.7555646" lon="11.3158844"><ele>61.75</ele><time>2026-04-26T07:57:21.57Z</time></trkpt><trkpt lat="43.7555964" lon="11.3160416"><ele>62.0</ele><time>2026-04-26T07:57:22.559Z</time></trkpt><trkpt lat="43.7556268" lon="11.3162014"><ele>62.0</ele><time>2026-04-26T07:57:23.575Z</time></trkpt><trkpt lat="43.7556564" lon="11.316351"><ele>62.0</ele><time>2026-04-26T07:57:24.568Z</time></trkpt><trkpt lat="43.7556767" lon="11.3165064"><ele>62.0</ele><time>2026-04-26T07:57:25.577Z</time></trkpt><trkpt lat="43.7556872" lon="11.3166566"><ele>62.0</ele><time>2026-04-26T07:57:26.57Z</time></trkpt><trkpt lat="43.7556944" lon="11.3168036"><ele>62.0</ele><time>2026-04-26T07:57:27.573Z</time></trkpt><trkpt lat="43.7556978" lon="11.3169525"><ele>61.8</ele><time>2026-04-26T07:57:28.578Z</time></trkpt><trkpt lat="43.7556965" lon="11.3170914"><ele>61.6</ele><time>2026-04-26T07:57:29.578Z</time></trkpt><trkpt lat="43.7556942" lon="11.3172208"><ele>61.39999999999999</ele><time>2026-04-26T07:57:30.565Z</time></trkpt><trkpt lat="43.7556971" lon="11.3173466"><ele>61.199999999999996</ele><time>2026-04-26T07:57:31.57Z</time></trkpt><trkpt lat="43.7557052" lon="11.3174736"><ele>61.0</ele><time>2026-04-26T07:57:32.57Z</time></trkpt><trkpt lat="43.7557269" lon="11.3175804"><ele>60.99999999999999</ele><time>2026-04-26T07:57:33.556Z</time></trkpt><trkpt lat="43.7557639" lon="11.3176686"><ele>61.0</ele><time>2026-04-26T07:57:34.575Z</time></trkpt><trkpt lat="43.7558137" lon="11.3177529"><ele>61.0</ele><time>2026-04-26T07:57:35.564Z</time></trkpt><trkpt lat="43.7558777" lon="11.3178363"><ele>61.0</ele><time>2026-04-26T07:57:36.573Z</time></trkpt><trkpt lat="43.7559328" lon="11.3179402"><ele>60.99999999999999</ele><time>2026-04-26T07:57:37.575Z</time></trkpt><trkpt lat="43.7559749" lon="11.3180668"><ele>61.0</ele><time>2026-04-26T07:57:38.578Z</time></trkpt><trkpt lat="43.7560006" lon="11.3182123"><ele>61.25</ele><time>2026-04-26T07:57:39.567Z</time></trkpt><trkpt lat="43.7560263" lon="11.3183678"><ele>61.5</ele><time>2026-04-26T07:57:40.572Z</time></trkpt><trkpt lat="43.7560536" lon="11.3185363"><ele>61.75</ele><time>2026-04-26T07:57:41.576Z</time></trkpt><trkpt lat="43.756074" lon="11.318712"><ele>62.0</ele><time>2026-04-26T07:57:42.569Z</time></trkpt><trkpt lat="43.7561038" lon="11.3188946"><ele>62.0</ele><time>2026-04-26T07:57:43.571Z</time></trkpt><trkpt lat="43.7561299" lon="11.3190827"><ele>62.0</ele><time>2026-04-26T07:57:44.573Z</time></trkpt><trkpt lat="43.7561623" lon="11.3192881"><ele>62.0</ele><time>2026-04-26T07:57:45.575Z</time></trkpt><trkpt lat="43.7561958" lon="11.3194882"><ele>62.0</ele><time>2026-04-26T07:57:46.575Z</time></trkpt><trkpt lat="43.7562276" lon="11.3196948"><ele>62.0</ele><time>2026-04-26T07:57:47.563Z</time></trkpt><trkpt lat="43.7562592" lon="11.3199051"><ele>62.0</ele><time>2026-04-26T07:57:48.562Z</time></trkpt><trkpt lat="43.756292" lon="11.32012"><ele>62.0</ele><time>2026-04-26T07:57:49.569Z</time></trkpt><trkpt lat="43.7563254" lon="11.3203406"><ele>62.0</ele><time>2026-04-26T07:57:50.577Z</time></trkpt><trkpt lat="43.7563592" lon="11.3205635"><ele>62.0</ele><time>2026-04-26T07:57:51.571Z</time></trkpt><trkpt lat="43.7563941" lon="11.3207933"><ele>62.0</ele><time>2026-04-26T07:57:52.572Z</time></trkpt><trkpt lat="43.7564261" lon="11.3210257"><ele>62.333333333333336</ele><time>2026-04-26T07:57:53.585Z</time></trkpt><trkpt lat="43.7564537" lon="11.3212624"><ele>62.66666666666667</ele><time>2026-04-26T07:57:54.572Z</time></trkpt><trkpt lat="43.7564681" lon="11.3215036"><ele>63.0</ele><time>2026-04-26T07:57:55.575Z</time></trkpt><trkpt lat="43.7564769" lon="11.3217435"><ele>63.0</ele><time>2026-04-26T07:57:56.57Z</time></trkpt><trkpt lat="43.7564746" lon="11.3219891"><ele>63.0</ele><time>2026-04-26T07:57:57.571Z</time></trkpt><trkpt lat="43.7564714" lon="11.3222361"><ele>63.0</ele><time>2026-04-26T07:57:58.571Z</time></trkpt><trkpt lat="43.7564571" lon="11.322475"><ele>63.33333333333333</ele><time>2026-04-26T07:57:59.569Z</time></trkpt><trkpt lat="43.7564389" lon="11.3227178"><ele>63.666666666666664</ele><time>2026-04-26T07:58:00.568Z</time></trkpt><trkpt lat="43.7564191" lon="11.3229557"><ele>64.0</ele><time>2026-04-26T07:58:01.577Z</time></trkpt><trkpt lat="43.7563942" lon="11.3231951"><ele>64.66666666666666</ele><time>2026-04-26T07:58:02.571Z</time></trkpt><trkpt lat="43.7563622" lon="11.3234261"><ele>65.33333333333333</ele><time>2026-04-26T07:58:03.571Z</time></trkpt><trkpt lat="43.7563304" lon="11.3236466"><ele>66.0</ele><time>2026-04-26T07:58:04.574Z</time></trkpt><trkpt lat="43.7562958" lon="11.3238595"><ele>66.25</ele><time>2026-04-26T07:58:05.567Z</time></trkpt><trkpt lat="43.7562734" lon="11.3240603"><ele>66.5</ele><time>2026-04-26T07:58:06.565Z</time></trkpt><trkpt lat="43.7562546" lon="11.324242"><ele>66.75</ele><time>2026-04-26T07:58:07.57Z</time></trkpt><trkpt lat="43.7562285" lon="11.3244078"><ele>67.0</ele><time>2026-04-26T07:58:08.579Z</time></trkpt><trkpt lat="43.7562058" lon="11.3245662"><ele>67.0</ele><time>2026-04-26T07:58:09.565Z</time></trkpt><trkpt lat="43.756189" lon="11.3247016"><ele>67.0</ele><time>2026-04-26T07:58:10.568Z</time></trkpt><trkpt lat="43.7561614" lon="11.3248398"><ele>67.0</ele><time>2026-04-26T07:58:11.577Z</time></trkpt><trkpt lat="43.7561259" lon="11.324949"><ele>67.0</ele><time>2026-04-26T07:58:12.569Z</time></trkpt><trkpt lat="43.7560821" lon="11.3250438"><ele>67.0</ele><time>2026-04-26T07:58:13.562Z</time></trkpt><trkpt lat="43.7560363" lon="11.3251229"><ele>67.0</ele><time>2026-04-26T07:58:14.572Z</time></trkpt><trkpt lat="43.7559872" lon="11.3252037"><ele>67.28571428571429</ele><time>2026-04-26T07:58:15.571Z</time></trkpt><trkpt lat="43.7559545" lon="11.3252943"><ele>67.57142857142857</ele><time>2026-04-26T07:58:16.571Z</time></trkpt><trkpt lat="43.7559483" lon="11.3253935"><ele>67.85714285714286</ele><time>2026-04-26T07:58:17.565Z</time></trkpt><trkpt lat="43.7559598" lon="11.325488"><ele>68.14285714285714</ele><time>2026-04-26T07:58:18.571Z</time></trkpt><trkpt lat="43.7560052" lon="11.3255574"><ele>68.42857142857143</ele><time>2026-04-26T07:58:19.575Z</time></trkpt><trkpt lat="43.7560739" lon="11.3255871"><ele>68.71428571428572</ele><time>2026-04-26T07:58:20.57Z</time></trkpt><trkpt lat="43.7561476" lon="11.3255779"><ele>69.0</ele><time>2026-04-26T07:58:21.566Z</time></trkpt><trkpt lat="43.7562278" lon="11.3255681"><ele>69.0</ele><time>2026-04-26T07:58:22.566Z</time></trkpt><trkpt lat="43.7563049" lon="11.3255746"><ele>69.0</ele><time>2026-04-26T07:58:23.573Z</time></trkpt><trkpt lat="43.7563942" lon="11.3256046"><ele>69.0</ele><time>2026-04-26T07:58:24.582Z</time></trkpt><trkpt lat="43.7564625" lon="11.3256618"><ele>69.0</ele><time>2026-04-26T07:58:25.57Z</time></trkpt><trkpt lat="43.7565039" lon="11.3257589"><ele>69.0</ele><time>2026-04-26T07:58:26.566Z</time></trkpt><trkpt lat="43.7565341" lon="11.3258795"><ele>69.0</ele><time>2026-04-26T07:58:27.573Z</time></trkpt><trkpt lat="43.7565543" lon="11.3260004"><ele>69.0</ele><time>2026-04-26T07:58:28.554Z</time></trkpt><trkpt lat="43.7565733" lon="11.3261403"><ele>69.0</ele><time>2026-04-26T07:58:29.571Z</time></trkpt><trkpt lat="43.7565853" lon="11.326287"><ele>69.0</ele><time>2026-04-26T07:58:30.568Z</time></trkpt><trkpt lat="43.7566054" lon="11.3264315"><ele>69.0</ele><time>2026-04-26T07:58:31.583Z</time></trkpt><trkpt lat="43.7566268" lon="11.3265744"><ele>69.0</ele><time>2026-04-26T07:58:32.568Z</time></trkpt><trkpt lat="43.7566485" lon="11.3267022"><ele>69.4</ele><time>2026-04-26T07:58:33.572Z</time></trkpt><trkpt lat="43.7566847" lon="11.3268222"><ele>69.80000000000001</ele><time>2026-04-26T07:58:34.569Z</time></trkpt><trkpt lat="43.7567377" lon="11.3269318"><ele>70.19999999999999</ele><time>2026-04-26T07:58:35.566Z</time></trkpt><trkpt lat="43.7567991" lon="11.3270353"><ele>70.6</ele><time>2026-04-26T07:58:36.554Z</time></trkpt><trkpt lat="43.7568713" lon="11.3271104"><ele>71.0</ele><time>2026-04-26T07:58:37.567Z</time></trkpt><trkpt lat="43.7569572" lon="11.3271702"><ele>71.0</ele><time>2026-04-26T07:58:38.574Z</time></trkpt><trkpt lat="43.7570401" lon="11.3272085"><ele>71.0</ele><time>2026-04-26T07:58:39.566Z</time></trkpt><trkpt lat="43.7571264" lon="11.3272444"><ele>71.0</ele><time>2026-04-26T07:58:40.577Z</time></trkpt><trkpt lat="43.7572088" lon="11.3272822"><ele>71.0</ele><time>2026-04-26T07:58:41.575Z</time></trkpt><trkpt lat="43.7572899" lon="11.3273288"><ele>71.0</ele><time>2026-04-26T07:58:42.569Z</time></trkpt><trkpt lat="43.7573846" lon="11.3273793"><ele>71.39999999999999</ele><time>2026-04-26T07:58:43.574Z</time></trkpt><trkpt lat="43.7574717" lon="11.3274287"><ele>71.8</ele><time>2026-04-26T07:58:44.569Z</time></trkpt><trkpt lat="43.7575569" lon="11.3274726"><ele>72.19999999999999</ele><time>2026-04-26T07:58:45.561Z</time></trkpt><trkpt lat="43.757647" lon="11.327517"><ele>72.6</ele><time>2026-04-26T07:58:46.576Z</time></trkpt><trkpt lat="43.7577353" lon="11.3275561"><ele>73.0</ele><time>2026-04-26T07:58:47.573Z</time></trkpt><trkpt lat="43.7578198" lon="11.3275986"><ele>73.0</ele><time>2026-04-26T07:58:48.579Z</time></trkpt><trkpt lat="43.7578955" lon="11.327638"><ele>73.0</ele><time>2026-04-26T07:58:49.566Z</time></trkpt><trkpt lat="43.7579578" lon="11.3276757"><ele>73.0</ele><time>2026-04-26T07:58:50.569Z</time></trkpt><trkpt lat="43.7580237" lon="11.3277164"><ele>73.0</ele><time>2026-04-26T07:58:51.568Z</time></trkpt><trkpt lat="43.7580866" lon="11.3277531"><ele>73.0</ele><time>2026-04-26T07:58:52.57Z</time></trkpt><trkpt lat="43.7581886" lon="11.3278136"><ele>73.0</ele><time>2026-04-26T07:58:54.561Z</time></trkpt><trkpt lat="43.7582823" lon="11.3278556"><ele>73.0</ele><time>2026-04-26T07:58:56.572Z</time></trkpt><trkpt lat="43.7583447" lon="11.3278847"><ele>73.0</ele><time>2026-04-26T07:58:57.573Z</time></trkpt><trkpt lat="43.7584101" lon="11.327921"><ele>73.0</ele><time>2026-04-26T07:58:58.569Z</time></trkpt><trkpt lat="43.7584881" lon="11.3279605"><ele>73.0</ele><time>2026-04-26T07:58:59.576Z</time></trkpt><trkpt lat="43.7585764" lon="11.3280005"><ele>73.0</ele><time>2026-04-26T07:59:00.566Z</time></trkpt><trkpt lat="43.7586646" lon="11.3280493"><ele>73.0</ele><time>2026-04-26T07:59:01.564Z</time></trkpt><trkpt lat="43.7587568" lon="11.3280949"><ele>72.2</ele><time>2026-04-26T07:59:02.571Z</time></trkpt><trkpt lat="43.7588567" lon="11.3281394"><ele>71.4</ele><time>2026-04-26T07:59:03.569Z</time></trkpt><trkpt lat="43.7589544" lon="11.3281921"><ele>70.60000000000001</ele><time>2026-04-26T07:59:04.575Z</time></trkpt><trkpt lat="43.7590491" lon="11.3282446"><ele>69.8</ele><time>2026-04-26T07:59:05.574Z</time></trkpt><trkpt lat="43.7591466" lon="11.328295"><ele>69.0</ele><time>2026-04-26T07:59:06.564Z</time></trkpt><trkpt lat="43.7592445" lon="11.3283435"><ele>69.0</ele><time>2026-04-26T07:59:07.576Z</time></trkpt><trkpt lat="43.7593446" lon="11.3284058"><ele>69.0</ele><time>2026-04-26T07:59:08.567Z</time></trkpt><trkpt lat="43.7594401" lon="11.3284778"><ele>69.0</ele><time>2026-04-26T07:59:09.572Z</time></trkpt><trkpt lat="43.7595364" lon="11.3285565"><ele>69.0</ele><time>2026-04-26T07:59:10.577Z</time></trkpt><trkpt lat="43.7596274" lon="11.3286468"><ele>69.0</ele><time>2026-04-26T07:59:11.572Z</time></trkpt><trkpt lat="43.7597154" lon="11.3287373"><ele>69.25</ele><time>2026-04-26T07:59:12.572Z</time></trkpt><trkpt lat="43.7598096" lon="11.3288325"><ele>69.5</ele><time>2026-04-26T07:59:13.565Z</time></trkpt><trkpt lat="43.7599004" lon="11.3289357"><ele>69.75</ele><time>2026-04-26T07:59:14.566Z</time></trkpt><trkpt lat="43.7599921" lon="11.3290494"><ele>70.0</ele><time>2026-04-26T07:59:15.56Z</time></trkpt><trkpt lat="43.7600781" lon="11.3291631"><ele>70.0</ele><time>2026-04-26T07:59:16.567Z</time></trkpt><trkpt lat="43.7601608" lon="11.3292808"><ele>70.0</ele><time>2026-04-26T07:59:17.566Z</time></trkpt><trkpt lat="43.7602399" lon="11.3294137"><ele>70.0</ele><time>2026-04-26T07:59:18.571Z</time></trkpt><trkpt lat="43.7603196" lon="11.3295469"><ele>70.0</ele><time>2026-04-26T07:59:19.562Z</time></trkpt><trkpt lat="43.7604008" lon="11.3296895"><ele>70.0</ele><time>2026-04-26T07:59:20.561Z</time></trkpt><trkpt lat="43.7604723" lon="11.3298356"><ele>70.0</ele><time>2026-04-26T07:59:21.557Z</time></trkpt><trkpt lat="43.7605352" lon="11.3299973"><ele>70.0</ele><time>2026-04-26T07:59:22.568Z</time></trkpt><trkpt lat="43.7605993" lon="11.3301657"><ele>70.0</ele><time>2026-04-26T07:59:23.572Z</time></trkpt><trkpt lat="43.7606542" lon="11.3303431"><ele>70.0</ele><time>2026-04-26T07:59:24.56Z</time></trkpt><trkpt lat="43.7607069" lon="11.330514"><ele>70.0</ele><time>2026-04-26T07:59:25.568Z</time></trkpt><trkpt lat="43.7607574" lon="11.3306859"><ele>70.0</ele><time>2026-04-26T07:59:26.572Z</time></trkpt><trkpt lat="43.7608115" lon="11.3308562"><ele>70.0</ele><time>2026-04-26T07:59:27.575Z</time></trkpt><trkpt lat="43.7608551" lon="11.3310279"><ele>70.0</ele><time>2026-04-26T07:59:28.564Z</time></trkpt><trkpt lat="43.7609063" lon="11.3312015"><ele>70.0</ele><time>2026-04-26T07:59:29.568Z</time></trkpt><trkpt lat="43.7609548" lon="11.3313841"><ele>70.0</ele><time>2026-04-26T07:59:30.576Z</time></trkpt><trkpt lat="43.7610043" lon="11.3315506"><ele>70.0</ele><time>2026-04-26T07:59:31.555Z</time></trkpt><trkpt lat="43.7610521" lon="11.3317144"><ele>70.0</ele><time>2026-04-26T07:59:32.563Z</time></trkpt><trkpt lat="43.761101" lon="11.3318792"><ele>70.0</ele><time>2026-04-26T07:59:33.574Z</time></trkpt><trkpt lat="43.7611509" lon="11.3320401"><ele>70.0</ele><time>2026-04-26T07:59:34.569Z</time></trkpt><trkpt lat="43.7611972" lon="11.3322118"><ele>70.0</ele><time>2026-04-26T07:59:35.567Z</time></trkpt><trkpt lat="43.7612467" lon="11.332381"><ele>70.0</ele><time>2026-04-26T07:59:36.569Z</time></trkpt><trkpt lat="43.7612962" lon="11.332557"><ele>70.0</ele><time>2026-04-26T07:59:37.583Z</time></trkpt><trkpt lat="43.7613446" lon="11.3327259"><ele>70.0</ele><time>2026-04-26T07:59:38.561Z</time></trkpt><trkpt lat="43.761391" lon="11.3328779"><ele>70.0</ele><time>2026-04-26T07:59:39.563Z</time></trkpt><trkpt lat="43.7614361" lon="11.333028"><ele>70.2</ele><time>2026-04-26T07:59:40.561Z</time></trkpt><trkpt lat="43.7614857" lon="11.3331676"><ele>70.4</ele><time>2026-04-26T07:59:41.572Z</time></trkpt><trkpt lat="43.7615408" lon="11.3333061"><ele>70.6</ele><time>2026-04-26T07:59:42.569Z</time></trkpt><trkpt lat="43.7615985" lon="11.3334361"><ele>70.8</ele><time>2026-04-26T07:59:43.561Z</time></trkpt><trkpt lat="43.7616586" lon="11.3335599"><ele>71.0</ele><time>2026-04-26T07:59:44.577Z</time></trkpt><trkpt lat="43.7617131" lon="11.3336772"><ele>71.0</ele><time>2026-04-26T07:59:45.573Z</time></trkpt><trkpt lat="43.7617711" lon="11.3337853"><ele>71.0</ele><time>2026-04-26T07:59:46.573Z</time></trkpt><trkpt lat="43.7618231" lon="11.3338931"><ele>71.0</ele><time>2026-04-26T07:59:47.562Z</time></trkpt><trkpt lat="43.7618743" lon="11.333978"><ele>71.0</ele><time>2026-04-26T07:59:48.572Z</time></trkpt><trkpt lat="43.7619209" lon="11.3340598"><ele>71.0</ele><time>2026-04-26T07:59:49.572Z</time></trkpt><trkpt lat="43.7619639" lon="11.3341395"><ele>71.0</ele><time>2026-04-26T07:59:50.566Z</time></trkpt><trkpt lat="43.7620374" lon="11.3342461"><ele>71.0</ele><time>2026-04-26T07:59:52.573Z</time></trkpt><trkpt lat="43.7620804" lon="11.3343129"><ele>71.0</ele><time>2026-04-26T07:59:54.596Z</time></trkpt><trkpt lat="43.762134" lon="11.3344141"><ele>71.0</ele><time>2026-04-26T08:00:08.559Z</time></trkpt><trkpt lat="43.7621993" lon="11.3345318"><ele>71.0</ele><time>2026-04-26T08:00:10.577Z</time></trkpt><trkpt lat="43.7622453" lon="11.3345996"><ele>71.0</ele><time>2026-04-26T08:00:11.562Z</time></trkpt><trkpt lat="43.7623048" lon="11.334677"><ele>71.0</ele><time>2026-04-26T08:00:12.578Z</time></trkpt><trkpt lat="43.7623672" lon="11.334771"><ele>71.0</ele><time>2026-04-26T08:00:13.582Z</time></trkpt><trkpt lat="43.7624369" lon="11.3348758"><ele>71.0</ele><time>2026-04-26T08:00:14.56Z</time></trkpt><trkpt lat="43.7625122" lon="11.3349889"><ele>71.0</ele><time>2026-04-26T08:00:15.579Z</time></trkpt><trkpt lat="43.7625804" lon="11.3350927"><ele>71.0</ele><time>2026-04-26T08:00:16.576Z</time></trkpt><trkpt lat="43.7626472" lon="11.3352031"><ele>71.0</ele><time>2026-04-26T08:00:17.583Z</time></trkpt><trkpt lat="43.7627238" lon="11.3353196"><ele>71.0</ele><time>2026-04-26T08:00:18.556Z</time></trkpt><trkpt lat="43.7628015" lon="11.3354501"><ele>71.0</ele><time>2026-04-26T08:00:19.568Z</time></trkpt><trkpt lat="43.7628929" lon="11.3355836"><ele>71.0</ele><time>2026-04-26T08:00:20.583Z</time></trkpt><trkpt lat="43.7629755" lon="11.3357281"><ele>71.0</ele><time>2026-04-26T08:00:21.563Z</time></trkpt><trkpt lat="43.7630638" lon="11.3358745"><ele>71.5</ele><time>2026-04-26T08:00:22.57Z</time></trkpt><trkpt lat="43.7631484" lon="11.3360315"><ele>72.0</ele><time>2026-04-26T08:00:23.575Z</time></trkpt><trkpt lat="43.7632253" lon="11.3361847"><ele>72.5</ele><time>2026-04-26T08:00:24.563Z</time></trkpt><trkpt lat="43.7633027" lon="11.3363509"><ele>73.0</ele><time>2026-04-26T08:00:25.567Z</time></trkpt><trkpt lat="43.7633683" lon="11.3365199"><ele>73.25</ele><time>2026-04-26T08:00:26.574Z</time></trkpt><trkpt lat="43.7634363" lon="11.3366859"><ele>73.5</ele><time>2026-04-26T08:00:27.574Z</time></trkpt><trkpt lat="43.763503" lon="11.3368599"><ele>73.75</ele><time>2026-04-26T08:00:28.574Z</time></trkpt><trkpt lat="43.7635643" lon="11.3370381"><ele>74.0</ele><time>2026-04-26T08:00:29.584Z</time></trkpt><trkpt lat="43.7636161" lon="11.3372288"><ele>72.5</ele><time>2026-04-26T08:00:30.562Z</time></trkpt><trkpt lat="43.7636828" lon="11.3374052"><ele>71.0</ele><time>2026-04-26T08:00:31.572Z</time></trkpt><trkpt lat="43.763742" lon="11.3375785"><ele>69.5</ele><time>2026-04-26T08:00:32.568Z</time></trkpt><trkpt lat="43.7638026" lon="11.3377627"><ele>68.0</ele><time>2026-04-26T08:00:33.574Z</time></trkpt><trkpt lat="43.7638606" lon="11.3379475"><ele>68.0</ele><time>2026-04-26T08:00:34.561Z</time></trkpt><trkpt lat="43.7639236" lon="11.3381252"><ele>68.0</ele><time>2026-04-26T08:00:35.571Z</time></trkpt><trkpt lat="43.7639858" lon="11.3383031"><ele>68.0</ele><time>2026-04-26T08:00:36.558Z</time></trkpt><trkpt lat="43.7640486" lon="11.338474"><ele>68.0</ele><time>2026-04-26T08:00:37.578Z</time></trkpt><trkpt lat="43.764107" lon="11.338643"><ele>68.0</ele><time>2026-04-26T08:00:38.565Z</time></trkpt><trkpt lat="43.7641644" lon="11.3388172"><ele>68.0</ele><time>2026-04-26T08:00:39.565Z</time></trkpt><trkpt lat="43.7642185" lon="11.3389853"><ele>68.0</ele><time>2026-04-26T08:00:40.562Z</time></trkpt><trkpt lat="43.7642782" lon="11.3391503"><ele>68.0</ele><time>2026-04-26T08:00:41.562Z</time></trkpt><trkpt lat="43.764329" lon="11.3393131"><ele>66.75</ele><time>2026-04-26T08:00:42.574Z</time></trkpt><trkpt lat="43.7643876" lon="11.339477"><ele>65.5</ele><time>2026-04-26T08:00:43.576Z</time></trkpt><trkpt lat="43.7644494" lon="11.3396401"><ele>64.25</ele><time>2026-04-26T08:00:44.569Z</time></trkpt><trkpt lat="43.7645074" lon="11.3398103"><ele>63.0</ele><time>2026-04-26T08:00:45.562Z</time></trkpt><trkpt lat="43.764565" lon="11.3399858"><ele>63.0</ele><time>2026-04-26T08:00:46.575Z</time></trkpt><trkpt lat="43.7646329" lon="11.3401666"><ele>63.0</ele><time>2026-04-26T08:00:47.555Z</time></trkpt><trkpt lat="43.7647069" lon="11.3403361"><ele>63.0</ele><time>2026-04-26T08:00:48.568Z</time></trkpt><trkpt lat="43.7647877" lon="11.3404986"><ele>63.0</ele><time>2026-04-26T08:00:49.55Z</time></trkpt><trkpt lat="43.7648721" lon="11.3406581"><ele>66.0</ele><time>2026-04-26T08:00:50.567Z</time></trkpt><trkpt lat="43.7649623" lon="11.3408204"><ele>69.0</ele><time>2026-04-26T08:00:51.565Z</time></trkpt><trkpt lat="43.7650511" lon="11.3409919"><ele>72.0</ele><time>2026-04-26T08:00:52.562Z</time></trkpt><trkpt lat="43.7651385" lon="11.341166"><ele>70.33333333333333</ele><time>2026-04-26T08:00:53.561Z</time></trkpt><trkpt lat="43.7652217" lon="11.3413407"><ele>68.66666666666666</ele><time>2026-04-26T08:00:54.549Z</time></trkpt><trkpt lat="43.7652999" lon="11.3415138"><ele>67.0</ele><time>2026-04-26T08:00:55.559Z</time></trkpt><trkpt lat="43.7653797" lon="11.3416984"><ele>67.0</ele><time>2026-04-26T08:00:56.574Z</time></trkpt><trkpt lat="43.7654524" lon="11.3418701"><ele>67.0</ele><time>2026-04-26T08:00:57.562Z</time></trkpt><trkpt lat="43.7655228" lon="11.3420413"><ele>67.0</ele><time>2026-04-26T08:00:58.564Z</time></trkpt><trkpt lat="43.7656065" lon="11.3422133"><ele>67.0</ele><time>2026-04-26T08:00:59.57Z</time></trkpt><trkpt lat="43.7656954" lon="11.3423705"><ele>67.75</ele><time>2026-04-26T08:01:00.57Z</time></trkpt><trkpt lat="43.7657884" lon="11.3425193"><ele>68.5</ele><time>2026-04-26T08:01:01.556Z</time></trkpt><trkpt lat="43.7658883" lon="11.3426602"><ele>69.25</ele><time>2026-04-26T08:01:02.557Z</time></trkpt><trkpt lat="43.7659868" lon="11.3427968"><ele>70.0</ele><time>2026-04-26T08:01:03.572Z</time></trkpt><trkpt lat="43.7660904" lon="11.3429377"><ele>68.66666666666666</ele><time>2026-04-26T08:01:04.568Z</time></trkpt><trkpt lat="43.7661966" lon="11.3430863"><ele>67.33333333333333</ele><time>2026-04-26T08:01:05.565Z</time></trkpt><trkpt lat="43.7663074" lon="11.3432342"><ele>66.0</ele><time>2026-04-26T08:01:06.569Z</time></trkpt><trkpt lat="43.7664199" lon="11.3433926"><ele>66.0</ele><time>2026-04-26T08:01:07.569Z</time></trkpt><trkpt lat="43.7665338" lon="11.343546"><ele>66.0</ele><time>2026-04-26T08:01:08.57Z</time></trkpt><trkpt lat="43.7666469" lon="11.3436997"><ele>66.0</ele><time>2026-04-26T08:01:09.567Z</time></trkpt><trkpt lat="43.7667569" lon="11.3438543"><ele>65.0</ele><time>2026-04-26T08:01:10.561Z</time></trkpt><trkpt lat="43.7668674" lon="11.3440175"><ele>64.0</ele><time>2026-04-26T08:01:11.57Z</time></trkpt><trkpt lat="43.7669899" lon="11.3441736"><ele>63.0</ele><time>2026-04-26T08:01:12.572Z</time></trkpt><trkpt lat="43.7671046" lon="11.344339"><ele>63.0</ele><time>2026-04-26T08:01:13.572Z</time></trkpt><trkpt lat="43.7672176" lon="11.3445003"><ele>63.0</ele><time>2026-04-26T08:01:14.562Z</time></trkpt><trkpt lat="43.7673226" lon="11.3446528"><ele>63.0</ele><time>2026-04-26T08:01:15.564Z</time></trkpt><trkpt lat="43.7674245" lon="11.3448005"><ele>62.75</ele><time>2026-04-26T08:01:16.567Z</time></trkpt><trkpt lat="43.7675283" lon="11.3449442"><ele>62.5</ele><time>2026-04-26T08:01:17.565Z</time></trkpt><trkpt lat="43.7676283" lon="11.3450859"><ele>62.25</ele><time>2026-04-26T08:01:18.569Z</time></trkpt><trkpt lat="43.7677288" lon="11.3452234"><ele>62.0</ele><time>2026-04-26T08:01:19.557Z</time></trkpt><trkpt lat="43.76783" lon="11.3453633"><ele>62.0</ele><time>2026-04-26T08:01:20.571Z</time></trkpt><trkpt lat="43.7679181" lon="11.3455126"><ele>62.0</ele><time>2026-04-26T08:01:21.561Z</time></trkpt><trkpt lat="43.768005" lon="11.3456718"><ele>62.0</ele><time>2026-04-26T08:01:22.594Z</time></trkpt><trkpt lat="43.7680859" lon="11.3458379"><ele>62.0</ele><time>2026-04-26T08:01:23.574Z</time></trkpt><trkpt lat="43.7681642" lon="11.3460082"><ele>63.0</ele><time>2026-04-26T08:01:24.559Z</time></trkpt><trkpt lat="43.768237" lon="11.3461835"><ele>64.0</ele><time>2026-04-26T08:01:25.563Z</time></trkpt><trkpt lat="43.7683041" lon="11.3463574"><ele>65.0</ele><time>2026-04-26T08:01:26.565Z</time></trkpt><trkpt lat="43.7683802" lon="11.3465392"><ele>66.0</ele><time>2026-04-26T08:01:27.578Z</time></trkpt><trkpt lat="43.7684589" lon="11.3467209"><ele>65.66666666666667</ele><time>2026-04-26T08:01:28.567Z</time></trkpt><trkpt lat="43.7685382" lon="11.3469054"><ele>65.33333333333334</ele><time>2026-04-26T08:01:29.576Z</time></trkpt><trkpt lat="43.768612" lon="11.3470936"><ele>65.0</ele><time>2026-04-26T08:01:30.576Z</time></trkpt><trkpt lat="43.7686909" lon="11.3472844"><ele>65.0</ele><time>2026-04-26T08:01:31.573Z</time></trkpt><trkpt lat="43.7687664" lon="11.3474696"><ele>65.0</ele><time>2026-04-26T08:01:32.564Z</time></trkpt><trkpt lat="43.768839" lon="11.3476522"><ele>65.0</ele><time>2026-04-26T08:01:33.563Z</time></trkpt><trkpt lat="43.7689152" lon="11.347828"><ele>65.0</ele><time>2026-04-26T08:01:34.574Z</time></trkpt><trkpt lat="43.7689894" lon="11.3480035"><ele>65.0</ele><time>2026-04-26T08:01:35.559Z</time></trkpt><trkpt lat="43.7690579" lon="11.3481714"><ele>65.0</ele><time>2026-04-26T08:01:36.566Z</time></trkpt><trkpt lat="43.769128" lon="11.3483386"><ele>65.0</ele><time>2026-04-26T08:01:37.566Z</time></trkpt><trkpt lat="43.7692014" lon="11.3485107"><ele>64.5</ele><time>2026-04-26T08:01:38.578Z</time></trkpt><trkpt lat="43.7692774" lon="11.3486903"><ele>64.0</ele><time>2026-04-26T08:01:39.575Z</time></trkpt><trkpt lat="43.7693501" lon="11.3488669"><ele>63.5</ele><time>2026-04-26T08:01:40.56Z</time></trkpt><trkpt lat="43.7694179" lon="11.3490542"><ele>63.0</ele><time>2026-04-26T08:01:41.571Z</time></trkpt><trkpt lat="43.7694962" lon="11.349237"><ele>63.0</ele><time>2026-04-26T08:01:42.575Z</time></trkpt><trkpt lat="43.7695711" lon="11.3494215"><ele>63.0</ele><time>2026-04-26T08:01:43.573Z</time></trkpt><trkpt lat="43.7696439" lon="11.3496049"><ele>63.0</ele><time>2026-04-26T08:01:44.567Z</time></trkpt><trkpt lat="43.7697161" lon="11.3497898"><ele>63.66666666666667</ele><time>2026-04-26T08:01:45.572Z</time></trkpt><trkpt lat="43.7697948" lon="11.3499806"><ele>64.33333333333334</ele><time>2026-04-26T08:01:46.571Z</time></trkpt><trkpt lat="43.7698731" lon="11.350174"><ele>65.0</ele><time>2026-04-26T08:01:47.573Z</time></trkpt><trkpt lat="43.769959" lon="11.3503726"><ele>64.33333333333334</ele><time>2026-04-26T08:01:48.573Z</time></trkpt><trkpt lat="43.7700403" lon="11.3505633"><ele>63.66666666666667</ele><time>2026-04-26T08:01:49.588Z</time></trkpt><trkpt lat="43.7701234" lon="11.3507577"><ele>63.0</ele><time>2026-04-26T08:01:50.581Z</time></trkpt><trkpt lat="43.7702065" lon="11.3509599"><ele>63.0</ele><time>2026-04-26T08:01:51.574Z</time></trkpt><trkpt lat="43.7702889" lon="11.3511575"><ele>63.0</ele><time>2026-04-26T08:01:52.571Z</time></trkpt><trkpt lat="43.7703717" lon="11.3513536"><ele>63.0</ele><time>2026-04-26T08:01:53.563Z</time></trkpt><trkpt lat="43.7704576" lon="11.3515598"><ele>63.66666666666667</ele><time>2026-04-26T08:01:54.573Z</time></trkpt><trkpt lat="43.7705375" lon="11.3517586"><ele>64.33333333333334</ele><time>2026-04-26T08:01:55.566Z</time></trkpt><trkpt lat="43.7706148" lon="11.3519556"><ele>65.0</ele><time>2026-04-26T08:01:56.567Z</time></trkpt><trkpt lat="43.7706921" lon="11.3521625"><ele>66.66666666666667</ele><time>2026-04-26T08:01:57.571Z</time></trkpt><trkpt lat="43.7707627" lon="11.3523642"><ele>68.33333333333333</ele><time>2026-04-26T08:01:58.558Z</time></trkpt><trkpt lat="43.7708338" lon="11.3525832"><ele>70.0</ele><time>2026-04-26T08:01:59.566Z</time></trkpt><trkpt lat="43.7709007" lon="11.3528097"><ele>71.33333333333333</ele><time>2026-04-26T08:02:00.564Z</time></trkpt><trkpt lat="43.7709723" lon="11.3530526"><ele>72.66666666666667</ele><time>2026-04-26T08:02:01.56Z</time></trkpt><trkpt lat="43.7710456" lon="11.353289"><ele>74.0</ele><time>2026-04-26T08:02:02.571Z</time></trkpt><trkpt lat="43.7711179" lon="11.3535234"><ele>70.66666666666667</ele><time>2026-04-26T08:02:03.559Z</time></trkpt><trkpt lat="43.7711871" lon="11.3537544"><ele>67.33333333333333</ele><time>2026-04-26T08:02:04.555Z</time></trkpt><trkpt lat="43.7712577" lon="11.3539804"><ele>64.0</ele><time>2026-04-26T08:02:05.566Z</time></trkpt><trkpt lat="43.7713199" lon="11.3542076"><ele>63.666666666666664</ele><time>2026-04-26T08:02:06.572Z</time></trkpt><trkpt lat="43.7713675" lon="11.3544308"><ele>63.33333333333333</ele><time>2026-04-26T08:02:07.566Z</time></trkpt><trkpt lat="43.771409" lon="11.3546446"><ele>63.0</ele><time>2026-04-26T08:02:08.568Z</time></trkpt><trkpt lat="43.7714473" lon="11.3548538"><ele>64.0</ele><time>2026-04-26T08:02:09.559Z</time></trkpt><trkpt lat="43.7714843" lon="11.3550607"><ele>65.0</ele><time>2026-04-26T08:02:10.571Z</time></trkpt><trkpt lat="43.771508" lon="11.3552687"><ele>66.0</ele><time>2026-04-26T08:02:11.556Z</time></trkpt><trkpt lat="43.7715291" lon="11.3554793"><ele>66.0</ele><time>2026-04-26T08:02:12.558Z</time></trkpt><trkpt lat="43.7715524" lon="11.3556901"><ele>66.0</ele><time>2026-04-26T08:02:13.566Z</time></trkpt><trkpt lat="43.771573" lon="11.3559029"><ele>66.0</ele><time>2026-04-26T08:02:14.572Z</time></trkpt><trkpt lat="43.7715829" lon="11.3561104"><ele>66.0</ele><time>2026-04-26T08:02:15.58Z</time></trkpt><trkpt lat="43.7715831" lon="11.3563228"><ele>66.0</ele><time>2026-04-26T08:02:16.562Z</time></trkpt><trkpt lat="43.7715801" lon="11.3565327"><ele>66.0</ele><time>2026-04-26T08:02:17.57Z</time></trkpt><trkpt lat="43.7715737" lon="11.3567454"><ele>66.25</ele><time>2026-04-26T08:02:18.557Z</time></trkpt><trkpt lat="43.7715542" lon="11.3569531"><ele>66.5</ele><time>2026-04-26T08:02:19.56Z</time></trkpt><trkpt lat="43.7715341" lon="11.3571486"><ele>66.75</ele><time>2026-04-26T08:02:20.57Z</time></trkpt><trkpt lat="43.771513" lon="11.3573444"><ele>67.0</ele><time>2026-04-26T08:02:21.568Z</time></trkpt><trkpt lat="43.7715" lon="11.3575444"><ele>67.25</ele><time>2026-04-26T08:02:22.571Z</time></trkpt><trkpt lat="43.7714988" lon="11.3577303"><ele>67.5</ele><time>2026-04-26T08:02:23.577Z</time></trkpt><trkpt lat="43.7715089" lon="11.3579073"><ele>67.75</ele><time>2026-04-26T08:02:24.571Z</time></trkpt><trkpt lat="43.7715301" lon="11.3580801"><ele>68.0</ele><time>2026-04-26T08:02:25.565Z</time></trkpt><trkpt lat="43.7715511" lon="11.3582515"><ele>68.0</ele><time>2026-04-26T08:02:26.569Z</time></trkpt><trkpt lat="43.771579" lon="11.3584144"><ele>68.0</ele><time>2026-04-26T08:02:27.562Z</time></trkpt><trkpt lat="43.7716035" lon="11.3585791"><ele>68.0</ele><time>2026-04-26T08:02:28.558Z</time></trkpt><trkpt lat="43.7716248" lon="11.358742"><ele>68.0</ele><time>2026-04-26T08:02:29.576Z</time></trkpt><trkpt lat="43.771644" lon="11.3589077"><ele>68.25</ele><time>2026-04-26T08:02:30.569Z</time></trkpt><trkpt lat="43.7716618" lon="11.3590705"><ele>68.5</ele><time>2026-04-26T08:02:31.581Z</time></trkpt><trkpt lat="43.7716759" lon="11.3592373"><ele>68.75</ele><time>2026-04-26T08:02:32.578Z</time></trkpt><trkpt lat="43.7716937" lon="11.3594096"><ele>69.0</ele><time>2026-04-26T08:02:33.575Z</time></trkpt><trkpt lat="43.7717068" lon="11.3595878"><ele>69.0</ele><time>2026-04-26T08:02:34.562Z</time></trkpt><trkpt lat="43.771714" lon="11.3597657"><ele>69.0</ele><time>2026-04-26T08:02:35.574Z</time></trkpt><trkpt lat="43.7717227" lon="11.3599458"><ele>69.0</ele><time>2026-04-26T08:02:36.573Z</time></trkpt><trkpt lat="43.7717323" lon="11.3601287"><ele>69.0</ele><time>2026-04-26T08:02:37.571Z</time></trkpt><trkpt lat="43.7717563" lon="11.3603047"><ele>69.0</ele><time>2026-04-26T08:02:38.557Z</time></trkpt><trkpt lat="43.7717903" lon="11.3604745"><ele>69.0</ele><time>2026-04-26T08:02:39.553Z</time></trkpt><trkpt lat="43.7718406" lon="11.3606314"><ele>69.0</ele><time>2026-04-26T08:02:40.574Z</time></trkpt><trkpt lat="43.7718943" lon="11.3607751"><ele>69.0</ele><time>2026-04-26T08:02:41.551Z</time></trkpt><trkpt lat="43.7719491" lon="11.360908"><ele>68.8</ele><time>2026-04-26T08:02:42.551Z</time></trkpt><trkpt lat="43.7719942" lon="11.3610337"><ele>68.60000000000001</ele><time>2026-04-26T08:02:43.57Z</time></trkpt><trkpt lat="43.7720332" lon="11.3611575"><ele>68.4</ele><time>2026-04-26T08:02:44.567Z</time></trkpt><trkpt lat="43.7720685" lon="11.3612946"><ele>68.2</ele><time>2026-04-26T08:02:45.57Z</time></trkpt><trkpt lat="43.7720988" lon="11.3614311"><ele>68.0</ele><time>2026-04-26T08:02:46.575Z</time></trkpt><trkpt lat="43.7721231" lon="11.3615702"><ele>68.0</ele><time>2026-04-26T08:02:47.575Z</time></trkpt><trkpt lat="43.7721594" lon="11.3617032"><ele>68.0</ele><time>2026-04-26T08:02:48.576Z</time></trkpt><trkpt lat="43.7722122" lon="11.3618264"><ele>68.0</ele><time>2026-04-26T08:02:49.551Z</time></trkpt><trkpt lat="43.7722812" lon="11.3619334"><ele>68.0</ele><time>2026-04-26T08:02:50.552Z</time></trkpt><trkpt lat="43.772376" lon="11.362023"><ele>68.0</ele><time>2026-04-26T08:02:51.569Z</time></trkpt><trkpt lat="43.7724758" lon="11.3620943"><ele>68.0</ele><time>2026-04-26T08:02:52.567Z</time></trkpt><trkpt lat="43.7725776" lon="11.3621519"><ele>68.0</ele><time>2026-04-26T08:02:53.577Z</time></trkpt><trkpt lat="43.7726859" lon="11.3622053"><ele>68.0</ele><time>2026-04-26T08:02:54.559Z</time></trkpt><trkpt lat="43.7728096" lon="11.3622487"><ele>68.0</ele><time>2026-04-26T08:02:55.573Z</time></trkpt><trkpt lat="43.7729425" lon="11.3622897"><ele>68.25</ele><time>2026-04-26T08:02:56.576Z</time></trkpt><trkpt lat="43.7730739" lon="11.3623378"><ele>68.5</ele><time>2026-04-26T08:02:57.561Z</time></trkpt><trkpt lat="43.7731951" lon="11.3623789"><ele>68.75</ele><time>2026-04-26T08:02:58.57Z</time></trkpt><trkpt lat="43.7733144" lon="11.3624159"><ele>69.0</ele><time>2026-04-26T08:02:59.559Z</time></trkpt><trkpt lat="43.7734371" lon="11.3624481"><ele>68.25</ele><time>2026-04-26T08:03:00.567Z</time></trkpt><trkpt lat="43.7735624" lon="11.362487"><ele>67.5</ele><time>2026-04-26T08:03:01.555Z</time></trkpt><trkpt lat="43.7736866" lon="11.3625122"><ele>66.75</ele><time>2026-04-26T08:03:02.571Z</time></trkpt><trkpt lat="43.7738138" lon="11.3625449"><ele>66.0</ele><time>2026-04-26T08:03:03.576Z</time></trkpt><trkpt lat="43.7739428" lon="11.3625786"><ele>66.0</ele><time>2026-04-26T08:03:04.56Z</time></trkpt><trkpt lat="43.7740694" lon="11.3626098"><ele>66.0</ele><time>2026-04-26T08:03:05.553Z</time></trkpt><trkpt lat="43.774195" lon="11.3626399"><ele>66.0</ele><time>2026-04-26T08:03:06.562Z</time></trkpt><trkpt lat="43.7743259" lon="11.3626724"><ele>66.0</ele><time>2026-04-26T08:03:07.571Z</time></trkpt><trkpt lat="43.7744577" lon="11.3626995"><ele>66.0</ele><time>2026-04-26T08:03:08.562Z</time></trkpt><trkpt lat="43.7745921" lon="11.3627275"><ele>66.0</ele><time>2026-04-26T08:03:09.557Z</time></trkpt><trkpt lat="43.7747285" lon="11.3627639"><ele>66.0</ele><time>2026-04-26T08:03:10.564Z</time></trkpt><trkpt lat="43.7748653" lon="11.3627907"><ele>66.0</ele><time>2026-04-26T08:03:11.566Z</time></trkpt><trkpt lat="43.7749949" lon="11.3628243"><ele>66.0</ele><time>2026-04-26T08:03:12.561Z</time></trkpt><trkpt lat="43.7751393" lon="11.3628552"><ele>66.0</ele><time>2026-04-26T08:03:13.568Z</time></trkpt><trkpt lat="43.7752818" lon="11.3628886"><ele>66.0</ele><time>2026-04-26T08:03:14.577Z</time></trkpt><trkpt lat="43.7754236" lon="11.3629338"><ele>66.0</ele><time>2026-04-26T08:03:15.574Z</time></trkpt><trkpt lat="43.7755702" lon="11.3629861"><ele>67.0</ele><time>2026-04-26T08:03:16.569Z</time></trkpt><trkpt lat="43.7757204" lon="11.3630321"><ele>68.0</ele><time>2026-04-26T08:03:17.56Z</time></trkpt><trkpt lat="43.7758707" lon="11.3630923"><ele>69.0</ele><time>2026-04-26T08:03:18.568Z</time></trkpt><trkpt lat="43.7760268" lon="11.363159"><ele>69.0</ele><time>2026-04-26T08:03:19.564Z</time></trkpt><trkpt lat="43.7761735" lon="11.3632398"><ele>69.0</ele><time>2026-04-26T08:03:20.575Z</time></trkpt><trkpt lat="43.7763154" lon="11.3633177"><ele>69.0</ele><time>2026-04-26T08:03:21.577Z</time></trkpt><trkpt lat="43.7764482" lon="11.3633929"><ele>69.0</ele><time>2026-04-26T08:03:22.555Z</time></trkpt><trkpt lat="43.7765924" lon="11.3634621"><ele>69.0</ele><time>2026-04-26T08:03:23.562Z</time></trkpt><trkpt lat="43.7767333" lon="11.363546"><ele>69.0</ele><time>2026-04-26T08:03:24.56Z</time></trkpt><trkpt lat="43.7768731" lon="11.3636198"><ele>69.25</ele><time>2026-04-26T08:03:25.557Z</time></trkpt><trkpt lat="43.7770042" lon="11.3636804"><ele>69.5</ele><time>2026-04-26T08:03:26.559Z</time></trkpt><trkpt lat="43.7771427" lon="11.3637419"><ele>69.75</ele><time>2026-04-26T08:03:27.557Z</time></trkpt><trkpt lat="43.7772775" lon="11.3637881"><ele>70.0</ele><time>2026-04-26T08:03:28.561Z</time></trkpt><trkpt lat="43.7774165" lon="11.363826"><ele>70.0</ele><time>2026-04-26T08:03:29.564Z</time></trkpt><trkpt lat="43.7775548" lon="11.3638482"><ele>70.0</ele><time>2026-04-26T08:03:30.555Z</time></trkpt><trkpt lat="43.7776998" lon="11.3638485"><ele>70.0</ele><time>2026-04-26T08:03:31.56Z</time></trkpt><trkpt lat="43.7778484" lon="11.3638449"><ele>70.0</ele><time>2026-04-26T08:03:32.567Z</time></trkpt><trkpt lat="43.7779881" lon="11.3638409"><ele>70.75</ele><time>2026-04-26T08:03:33.576Z</time></trkpt><trkpt lat="43.7781261" lon="11.3638375"><ele>71.5</ele><time>2026-04-26T08:03:34.562Z</time></trkpt><trkpt lat="43.7782705" lon="11.363831"><ele>72.25</ele><time>2026-04-26T08:03:35.564Z</time></trkpt><trkpt lat="43.7784164" lon="11.3638307"><ele>73.0</ele><time>2026-04-26T08:03:36.567Z</time></trkpt><trkpt lat="43.7785624" lon="11.3638438"><ele>75.33333333333333</ele><time>2026-04-26T08:03:37.564Z</time></trkpt><trkpt lat="43.7787159" lon="11.3638642"><ele>77.66666666666667</ele><time>2026-04-26T08:03:38.568Z</time></trkpt><trkpt lat="43.7788717" lon="11.3638896"><ele>80.0</ele><time>2026-04-26T08:03:39.549Z</time></trkpt><trkpt lat="43.7790286" lon="11.36393"><ele>80.0</ele><time>2026-04-26T08:03:40.57Z</time></trkpt><trkpt lat="43.7791876" lon="11.3639791"><ele>80.0</ele><time>2026-04-26T08:03:41.566Z</time></trkpt><trkpt lat="43.7793453" lon="11.364019"><ele>80.0</ele><time>2026-04-26T08:03:42.566Z</time></trkpt><trkpt lat="43.7794918" lon="11.364067"><ele>80.5</ele><time>2026-04-26T08:03:43.557Z</time></trkpt><trkpt lat="43.7796374" lon="11.3641179"><ele>81.0</ele><time>2026-04-26T08:03:44.574Z</time></trkpt><trkpt lat="43.779778" lon="11.3641591"><ele>81.5</ele><time>2026-04-26T08:03:45.561Z</time></trkpt><trkpt lat="43.7799182" lon="11.3642088"><ele>82.0</ele><time>2026-04-26T08:03:46.558Z</time></trkpt><trkpt lat="43.7800597" lon="11.3642712"><ele>81.25</ele><time>2026-04-26T08:03:47.554Z</time></trkpt><trkpt lat="43.7802023" lon="11.3643322"><ele>80.5</ele><time>2026-04-26T08:03:48.553Z</time></trkpt><trkpt lat="43.7803381" lon="11.3643977"><ele>79.75</ele><time>2026-04-26T08:03:49.556Z</time></trkpt><trkpt lat="43.7804791" lon="11.364466"><ele>79.0</ele><time>2026-04-26T08:03:50.555Z</time></trkpt><trkpt lat="43.7806246" lon="11.3645217"><ele>79.0</ele><time>2026-04-26T08:03:51.551Z</time></trkpt><trkpt lat="43.7807643" lon="11.3645908"><ele>79.0</ele><time>2026-04-26T08:03:52.562Z</time></trkpt><trkpt lat="43.7809052" lon="11.3646724"><ele>79.0</ele><time>2026-04-26T08:03:53.554Z</time></trkpt><trkpt lat="43.7810471" lon="11.3647672"><ele>79.0</ele><time>2026-04-26T08:03:54.559Z</time></trkpt><trkpt lat="43.7811865" lon="11.3648643"><ele>79.0</ele><time>2026-04-26T08:03:55.561Z</time></trkpt><trkpt lat="43.7813222" lon="11.3649634"><ele>79.0</ele><time>2026-04-26T08:03:56.567Z</time></trkpt><trkpt lat="43.7815812" lon="11.3652017"><ele>79.0</ele><time>2026-04-26T08:03:58.568Z</time></trkpt><trkpt lat="43.7817184" lon="11.3653287"><ele>79.0</ele><time>2026-04-26T08:03:59.564Z</time></trkpt><trkpt lat="43.7818493" lon="11.3654596"><ele>79.0</ele><time>2026-04-26T08:04:00.56Z</time></trkpt><trkpt lat="43.781977" lon="11.3655934"><ele>77.33333333333333</ele><time>2026-04-26T08:04:01.564Z</time></trkpt><trkpt lat="43.7820982" lon="11.3657167"><ele>75.66666666666667</ele><time>2026-04-26T08:04:02.559Z</time></trkpt><trkpt lat="43.7822203" lon="11.3658475"><ele>74.0</ele><time>2026-04-26T08:04:03.574Z</time></trkpt><trkpt lat="43.7823302" lon="11.3659936"><ele>74.0</ele><time>2026-04-26T08:04:04.567Z</time></trkpt><trkpt lat="43.782427" lon="11.3661474"><ele>74.0</ele><time>2026-04-26T08:04:05.563Z</time></trkpt><trkpt lat="43.7825106" lon="11.3663121"><ele>74.0</ele><time>2026-04-26T08:04:06.557Z</time></trkpt><trkpt lat="43.782588" lon="11.3664853"><ele>74.0</ele><time>2026-04-26T08:04:07.563Z</time></trkpt><trkpt lat="43.7826539" lon="11.3666698"><ele>72.33333333333334</ele><time>2026-04-26T08:04:08.566Z</time></trkpt><trkpt lat="43.7827104" lon="11.3668623"><ele>70.66666666666667</ele><time>2026-04-26T08:04:09.559Z</time></trkpt><trkpt lat="43.7827637" lon="11.3670562"><ele>69.0</ele><time>2026-04-26T08:04:10.562Z</time></trkpt><trkpt lat="43.782808" lon="11.3672649"><ele>69.0</ele><time>2026-04-26T08:04:11.57Z</time></trkpt><trkpt lat="43.7828442" lon="11.3674761"><ele>69.0</ele><time>2026-04-26T08:04:12.557Z</time></trkpt><trkpt lat="43.7828607" lon="11.3676903"><ele>69.0</ele><time>2026-04-26T08:04:13.561Z</time></trkpt><trkpt lat="43.7828611" lon="11.3679074"><ele>69.66666666666667</ele><time>2026-04-26T08:04:14.555Z</time></trkpt><trkpt lat="43.7828549" lon="11.3681188"><ele>70.33333333333334</ele><time>2026-04-26T08:04:15.556Z</time></trkpt><trkpt lat="43.7828419" lon="11.3683389"><ele>71.0</ele><time>2026-04-26T08:04:16.57Z</time></trkpt><trkpt lat="43.7828231" lon="11.3685655"><ele>71.0</ele><time>2026-04-26T08:04:17.566Z</time></trkpt><trkpt lat="43.7828073" lon="11.3687909"><ele>71.0</ele><time>2026-04-26T08:04:18.555Z</time></trkpt><trkpt lat="43.7827896" lon="11.369018"><ele>71.0</ele><time>2026-04-26T08:04:19.558Z</time></trkpt><trkpt lat="43.7827657" lon="11.3692439"><ele>70.0</ele><time>2026-04-26T08:04:20.56Z</time></trkpt><trkpt lat="43.7827395" lon="11.3694677"><ele>69.0</ele><time>2026-04-26T08:04:21.548Z</time></trkpt><trkpt lat="43.7827187" lon="11.3696906"><ele>68.0</ele><time>2026-04-26T08:04:22.556Z</time></trkpt><trkpt lat="43.782703" lon="11.3699218"><ele>67.33333333333334</ele><time>2026-04-26T08:04:23.556Z</time></trkpt><trkpt lat="43.7826855" lon="11.3701431"><ele>66.66666666666667</ele><time>2026-04-26T08:04:24.56Z</time></trkpt><trkpt lat="43.7826576" lon="11.3703568"><ele>66.0</ele><time>2026-04-26T08:04:25.564Z</time></trkpt><trkpt lat="43.7826377" lon="11.3705705"><ele>69.0</ele><time>2026-04-26T08:04:26.561Z</time></trkpt><trkpt lat="43.7826224" lon="11.3707793"><ele>72.0</ele><time>2026-04-26T08:04:27.545Z</time></trkpt><trkpt lat="43.7826096" lon="11.3709834"><ele>75.0</ele><time>2026-04-26T08:04:28.57Z</time></trkpt><trkpt lat="43.782588" lon="11.3711841"><ele>78.0</ele><time>2026-04-26T08:04:29.553Z</time></trkpt><trkpt lat="43.7825714" lon="11.3713861"><ele>78.0</ele><time>2026-04-26T08:04:30.557Z</time></trkpt><trkpt lat="43.7825587" lon="11.3715974"><ele>78.0</ele><time>2026-04-26T08:04:31.555Z</time></trkpt><trkpt lat="43.7825474" lon="11.3718174"><ele>78.0</ele><time>2026-04-26T08:04:32.558Z</time></trkpt><trkpt lat="43.7825395" lon="11.3720331"><ele>79.0</ele><time>2026-04-26T08:04:33.555Z</time></trkpt><trkpt lat="43.7825341" lon="11.3722461"><ele>80.0</ele><time>2026-04-26T08:04:34.567Z</time></trkpt><trkpt lat="43.7825351" lon="11.3724652"><ele>81.0</ele><time>2026-04-26T08:04:35.559Z</time></trkpt><trkpt lat="43.7825355" lon="11.3726888"><ele>81.0</ele><time>2026-04-26T08:04:36.55Z</time></trkpt><trkpt lat="43.7825341" lon="11.3729116"><ele>81.0</ele><time>2026-04-26T08:04:37.547Z</time></trkpt><trkpt lat="43.7825439" lon="11.3731256"><ele>81.0</ele><time>2026-04-26T08:04:38.558Z</time></trkpt><trkpt lat="43.7825567" lon="11.3733396"><ele>80.66666666666667</ele><time>2026-04-26T08:04:39.554Z</time></trkpt><trkpt lat="43.7825604" lon="11.3735565"><ele>80.33333333333334</ele><time>2026-04-26T08:04:40.554Z</time></trkpt><trkpt lat="43.782567" lon="11.3737702"><ele>80.0</ele><time>2026-04-26T08:04:41.562Z</time></trkpt><trkpt lat="43.7825716" lon="11.3739822"><ele>80.0</ele><time>2026-04-26T08:04:42.568Z</time></trkpt><trkpt lat="43.7825819" lon="11.3741801"><ele>80.0</ele><time>2026-04-26T08:04:43.55Z</time></trkpt><trkpt lat="43.7825896" lon="11.3743753"><ele>80.0</ele><time>2026-04-26T08:04:44.554Z</time></trkpt><trkpt lat="43.7825953" lon="11.3745723"><ele>80.0</ele><time>2026-04-26T08:04:45.562Z</time></trkpt><trkpt lat="43.782609" lon="11.3747604"><ele>82.5</ele><time>2026-04-26T08:04:46.549Z</time></trkpt><trkpt lat="43.7826251" lon="11.3749454"><ele>85.0</ele><time>2026-04-26T08:04:47.558Z</time></trkpt><trkpt lat="43.782648" lon="11.3751396"><ele>87.5</ele><time>2026-04-26T08:04:48.558Z</time></trkpt><trkpt lat="43.7826719" lon="11.3753212"><ele>90.0</ele><time>2026-04-26T08:04:49.574Z</time></trkpt><trkpt lat="43.7827088" lon="11.3755092"><ele>86.25</ele><time>2026-04-26T08:04:50.553Z</time></trkpt><trkpt lat="43.7827411" lon="11.3756968"><ele>82.5</ele><time>2026-04-26T08:04:51.549Z</time></trkpt><trkpt lat="43.7827811" lon="11.3758772"><ele>78.75</ele><time>2026-04-26T08:04:52.559Z</time></trkpt><trkpt lat="43.7828249" lon="11.3760606"><ele>75.0</ele><time>2026-04-26T08:04:53.551Z</time></trkpt><trkpt lat="43.7828637" lon="11.3762424"><ele>77.25</ele><time>2026-04-26T08:04:54.547Z</time></trkpt><trkpt lat="43.7829113" lon="11.3764241"><ele>79.5</ele><time>2026-04-26T08:04:55.564Z</time></trkpt><trkpt lat="43.7829565" lon="11.3766049"><ele>81.75</ele><time>2026-04-26T08:04:56.555Z</time></trkpt><trkpt lat="43.7829974" lon="11.3767861"><ele>84.0</ele><time>2026-04-26T08:04:57.563Z</time></trkpt><trkpt lat="43.7830417" lon="11.3769696"><ele>84.0</ele><time>2026-04-26T08:04:58.565Z</time></trkpt><trkpt lat="43.7830895" lon="11.3771619"><ele>84.0</ele><time>2026-04-26T08:04:59.555Z</time></trkpt><trkpt lat="43.7831483" lon="11.3773489"><ele>84.0</ele><time>2026-04-26T08:05:00.57Z</time></trkpt><trkpt lat="43.7831971" lon="11.3775281"><ele>84.0</ele><time>2026-04-26T08:05:01.569Z</time></trkpt><trkpt lat="43.7832427" lon="11.3777103"><ele>86.0</ele><time>2026-04-26T08:05:02.56Z</time></trkpt><trkpt lat="43.7832901" lon="11.3778904"><ele>88.0</ele><time>2026-04-26T08:05:03.562Z</time></trkpt><trkpt lat="43.783337" lon="11.3780694"><ele>90.0</ele><time>2026-04-26T08:05:04.561Z</time></trkpt><trkpt lat="43.7833851" lon="11.3782509"><ele>92.0</ele><time>2026-04-26T08:05:05.568Z</time></trkpt><trkpt lat="43.7834368" lon="11.3784262"><ele>93.25</ele><time>2026-04-26T08:05:06.558Z</time></trkpt><trkpt lat="43.7834842" lon="11.3785927"><ele>94.5</ele><time>2026-04-26T08:05:07.564Z</time></trkpt><trkpt lat="43.7835289" lon="11.378763"><ele>95.75</ele><time>2026-04-26T08:05:08.572Z</time></trkpt><trkpt lat="43.7835683" lon="11.3789235"><ele>97.0</ele><time>2026-04-26T08:05:09.551Z</time></trkpt><trkpt lat="43.783607" lon="11.3790921"><ele>92.5</ele><time>2026-04-26T08:05:10.557Z</time></trkpt><trkpt lat="43.783639" lon="11.3792608"><ele>88.0</ele><time>2026-04-26T08:05:11.564Z</time></trkpt><trkpt lat="43.7836793" lon="11.3794386"><ele>83.5</ele><time>2026-04-26T08:05:12.541Z</time></trkpt><trkpt lat="43.7837211" lon="11.3796169"><ele>79.0</ele><time>2026-04-26T08:05:13.579Z</time></trkpt><trkpt lat="43.7837757" lon="11.3797937"><ele>79.0</ele><time>2026-04-26T08:05:14.573Z</time></trkpt><trkpt lat="43.7838343" lon="11.3799756"><ele>79.0</ele><time>2026-04-26T08:05:15.574Z</time></trkpt><trkpt lat="43.7838972" lon="11.3801683"><ele>79.0</ele><time>2026-04-26T08:05:16.606Z</time></trkpt><trkpt lat="43.7839617" lon="11.3803586"><ele>79.0</ele><time>2026-04-26T08:05:17.567Z</time></trkpt><trkpt lat="43.7840348" lon="11.3805437"><ele>80.66666666666666</ele><time>2026-04-26T08:05:18.554Z</time></trkpt><trkpt lat="43.7841043" lon="11.3807346"><ele>82.33333333333333</ele><time>2026-04-26T08:05:19.574Z</time></trkpt><trkpt lat="43.7841855" lon="11.3809258"><ele>84.0</ele><time>2026-04-26T08:05:20.558Z</time></trkpt><trkpt lat="43.7842689" lon="11.3811121"><ele>79.66666666666667</ele><time>2026-04-26T08:05:21.574Z</time></trkpt><trkpt lat="43.7843565" lon="11.3812957"><ele>75.33333333333334</ele><time>2026-04-26T08:05:22.581Z</time></trkpt><trkpt lat="43.7844482" lon="11.3814847"><ele>71.0</ele><time>2026-04-26T08:05:23.591Z</time></trkpt><trkpt lat="43.7845345" lon="11.3816688"><ele>71.0</ele><time>2026-04-26T08:05:24.546Z</time></trkpt><trkpt lat="43.7846267" lon="11.3818469"><ele>71.0</ele><time>2026-04-26T08:05:25.548Z</time></trkpt><trkpt lat="43.7847288" lon="11.3820268"><ele>71.0</ele><time>2026-04-26T08:05:26.58Z</time></trkpt><trkpt lat="43.7848309" lon="11.3821822"><ele>71.0</ele><time>2026-04-26T08:05:27.567Z</time></trkpt><trkpt lat="43.7849525" lon="11.3823091"><ele>71.0</ele><time>2026-04-26T08:05:28.545Z</time></trkpt><trkpt lat="43.7850824" lon="11.3824238"><ele>71.0</ele><time>2026-04-26T08:05:29.542Z</time></trkpt><trkpt lat="43.7852211" lon="11.3825336"><ele>71.0</ele><time>2026-04-26T08:05:30.552Z</time></trkpt><trkpt lat="43.7853629" lon="11.382631"><ele>71.0</ele><time>2026-04-26T08:05:31.565Z</time></trkpt><trkpt lat="43.7854938" lon="11.3827372"><ele>71.0</ele><time>2026-04-26T08:05:32.561Z</time></trkpt><trkpt lat="43.7856232" lon="11.3828501"><ele>71.0</ele><time>2026-04-26T08:05:33.575Z</time></trkpt><trkpt lat="43.7857533" lon="11.3829799"><ele>71.0</ele><time>2026-04-26T08:05:34.539Z</time></trkpt><trkpt lat="43.7858745" lon="11.3831272"><ele>71.0</ele><time>2026-04-26T08:05:35.567Z</time></trkpt><trkpt lat="43.7859848" lon="11.3832971"><ele>71.0</ele><time>2026-04-26T08:05:36.56Z</time></trkpt><trkpt lat="43.7860841" lon="11.3834726"><ele>71.0</ele><time>2026-04-26T08:05:37.578Z</time></trkpt><trkpt lat="43.7861796" lon="11.3836451"><ele>71.0</ele><time>2026-04-26T08:05:38.56Z</time></trkpt><trkpt lat="43.7862748" lon="11.383811"><ele>73.5</ele><time>2026-04-26T08:05:39.548Z</time></trkpt><trkpt lat="43.7863627" lon="11.3839805"><ele>76.0</ele><time>2026-04-26T08:05:40.579Z</time></trkpt><trkpt lat="43.7865171" lon="11.3843404"><ele>76.0</ele><time>2026-04-26T08:05:42.587Z</time></trkpt><trkpt lat="43.7865779" lon="11.3845326"><ele>76.0</ele><time>2026-04-26T08:05:43.592Z</time></trkpt><trkpt lat="43.7866289" lon="11.3847302"><ele>76.0</ele><time>2026-04-26T08:05:44.572Z</time></trkpt><trkpt lat="43.7866587" lon="11.3849209"><ele>76.0</ele><time>2026-04-26T08:05:45.604Z</time></trkpt><trkpt lat="43.7866874" lon="11.3851187"><ele>76.5</ele><time>2026-04-26T08:05:46.58Z</time></trkpt><trkpt lat="43.7867041" lon="11.3853104"><ele>77.0</ele><time>2026-04-26T08:05:47.583Z</time></trkpt><trkpt lat="43.7867174" lon="11.3855105"><ele>77.5</ele><time>2026-04-26T08:05:48.577Z</time></trkpt><trkpt lat="43.7867359" lon="11.385715"><ele>78.0</ele><time>2026-04-26T08:05:49.566Z</time></trkpt><trkpt lat="43.7867534" lon="11.3859173"><ele>78.25</ele><time>2026-04-26T08:05:50.58Z</time></trkpt><trkpt lat="43.7867738" lon="11.3861162"><ele>78.5</ele><time>2026-04-26T08:05:51.567Z</time></trkpt><trkpt lat="43.7867869" lon="11.3863163"><ele>78.75</ele><time>2026-04-26T08:05:52.57Z</time></trkpt><trkpt lat="43.7868056" lon="11.386515"><ele>79.0</ele><time>2026-04-26T08:05:53.563Z</time></trkpt><trkpt lat="43.7868235" lon="11.3866979"><ele>78.75</ele><time>2026-04-26T08:05:54.56Z</time></trkpt><trkpt lat="43.7868384" lon="11.3868939"><ele>78.5</ele><time>2026-04-26T08:05:55.555Z</time></trkpt><trkpt lat="43.7868505" lon="11.3870819"><ele>78.25</ele><time>2026-04-26T08:05:56.554Z</time></trkpt><trkpt lat="43.7868586" lon="11.3872688"><ele>78.0</ele><time>2026-04-26T08:05:57.548Z</time></trkpt><trkpt lat="43.7868702" lon="11.3874628"><ele>78.0</ele><time>2026-04-26T08:05:58.553Z</time></trkpt><trkpt lat="43.7868785" lon="11.3876532"><ele>78.0</ele><time>2026-04-26T08:05:59.557Z</time></trkpt><trkpt lat="43.7868854" lon="11.3878495"><ele>78.0</ele><time>2026-04-26T08:06:00.573Z</time></trkpt><trkpt lat="43.786882" lon="11.3880438"><ele>78.0</ele><time>2026-04-26T08:06:01.554Z</time></trkpt><trkpt lat="43.7868729" lon="11.3882408"><ele>77.66666666666667</ele><time>2026-04-26T08:06:02.558Z</time></trkpt><trkpt lat="43.7868571" lon="11.3884383"><ele>77.33333333333334</ele><time>2026-04-26T08:06:03.555Z</time></trkpt><trkpt lat="43.7868227" lon="11.3886399"><ele>77.0</ele><time>2026-04-26T08:06:04.56Z</time></trkpt><trkpt lat="43.7867698" lon="11.3888494"><ele>80.33333333333334</ele><time>2026-04-26T08:06:05.561Z</time></trkpt><trkpt lat="43.786704" lon="11.3890684"><ele>83.66666666666667</ele><time>2026-04-26T08:06:06.555Z</time></trkpt><trkpt lat="43.7866341" lon="11.3892743"><ele>87.0</ele><time>2026-04-26T08:06:07.546Z</time></trkpt><trkpt lat="43.7865652" lon="11.3894725"><ele>87.0</ele><time>2026-04-26T08:06:08.558Z</time></trkpt><trkpt lat="43.7865072" lon="11.3896644"><ele>87.0</ele><time>2026-04-26T08:06:09.573Z</time></trkpt><trkpt lat="43.7864476" lon="11.3898577"><ele>87.0</ele><time>2026-04-26T08:06:10.559Z</time></trkpt><trkpt lat="43.7863894" lon="11.3900488"><ele>85.75</ele><time>2026-04-26T08:06:11.555Z</time></trkpt><trkpt lat="43.7863318" lon="11.3902407"><ele>84.5</ele><time>2026-04-26T08:06:12.559Z</time></trkpt><trkpt lat="43.7862756" lon="11.3904308"><ele>83.25</ele><time>2026-04-26T08:06:13.561Z</time></trkpt><trkpt lat="43.7862191" lon="11.3906239"><ele>82.0</ele><time>2026-04-26T08:06:14.564Z</time></trkpt><trkpt lat="43.7861596" lon="11.3908231"><ele>81.66666666666666</ele><time>2026-04-26T08:06:15.558Z</time></trkpt><trkpt lat="43.7860953" lon="11.3910193"><ele>81.33333333333333</ele><time>2026-04-26T08:06:16.562Z</time></trkpt><trkpt lat="43.786034" lon="11.3912211"><ele>81.0</ele><time>2026-04-26T08:06:17.566Z</time></trkpt><trkpt lat="43.7859747" lon="11.3914206"><ele>84.66666666666667</ele><time>2026-04-26T08:06:18.557Z</time></trkpt><trkpt lat="43.7859094" lon="11.3916205"><ele>88.33333333333334</ele><time>2026-04-26T08:06:19.574Z</time></trkpt><trkpt lat="43.7858381" lon="11.39182"><ele>92.0</ele><time>2026-04-26T08:06:20.557Z</time></trkpt><trkpt lat="43.7857617" lon="11.3920429"><ele>90.66666666666667</ele><time>2026-04-26T08:06:21.558Z</time></trkpt><trkpt lat="43.7856818" lon="11.3922417"><ele>89.33333333333333</ele><time>2026-04-26T08:06:22.559Z</time></trkpt><trkpt lat="43.7855976" lon="11.3924389"><ele>88.0</ele><time>2026-04-26T08:06:23.563Z</time></trkpt><trkpt lat="43.7855031" lon="11.3926379"><ele>88.0</ele><time>2026-04-26T08:06:24.556Z</time></trkpt><trkpt lat="43.7853972" lon="11.3928227"><ele>88.0</ele><time>2026-04-26T08:06:25.553Z</time></trkpt><trkpt lat="43.7852832" lon="11.3930096"><ele>88.0</ele><time>2026-04-26T08:06:26.555Z</time></trkpt><trkpt lat="43.7851674" lon="11.3931865"><ele>89.33333333333333</ele><time>2026-04-26T08:06:27.556Z</time></trkpt><trkpt lat="43.7850375" lon="11.3933675"><ele>90.66666666666667</ele><time>2026-04-26T08:06:28.558Z</time></trkpt><trkpt lat="43.784901" lon="11.3935423"><ele>92.0</ele><time>2026-04-26T08:06:29.56Z</time></trkpt><trkpt lat="43.7847529" lon="11.3937131"><ele>89.66666666666667</ele><time>2026-04-26T08:06:30.566Z</time></trkpt><trkpt lat="43.7845975" lon="11.3938846"><ele>87.33333333333333</ele><time>2026-04-26T08:06:31.563Z</time></trkpt><trkpt lat="43.7844311" lon="11.3940364"><ele>85.0</ele><time>2026-04-26T08:06:32.556Z</time></trkpt><trkpt lat="43.7842637" lon="11.3941829"><ele>85.0</ele><time>2026-04-26T08:06:33.566Z</time></trkpt><trkpt lat="43.7841006" lon="11.3943374"><ele>85.0</ele><time>2026-04-26T08:06:34.56Z</time></trkpt><trkpt lat="43.7839463" lon="11.3944936"><ele>85.0</ele><time>2026-04-26T08:06:35.557Z</time></trkpt><trkpt lat="43.7837923" lon="11.3946618"><ele>84.66666666666666</ele><time>2026-04-26T08:06:36.557Z</time></trkpt><trkpt lat="43.7836436" lon="11.3948636"><ele>84.33333333333333</ele><time>2026-04-26T08:06:37.562Z</time></trkpt><trkpt lat="43.7835048" lon="11.3950879"><ele>84.0</ele><time>2026-04-26T08:06:38.553Z</time></trkpt><trkpt lat="43.7833953" lon="11.395322"><ele>82.33333333333333</ele><time>2026-04-26T08:06:39.561Z</time></trkpt><trkpt lat="43.7832913" lon="11.3955725"><ele>80.66666666666666</ele><time>2026-04-26T08:06:40.559Z</time></trkpt><trkpt lat="43.7832149" lon="11.3958427"><ele>79.0</ele><time>2026-04-26T08:06:41.552Z</time></trkpt><trkpt lat="43.7831493" lon="11.396105"><ele>78.33333333333333</ele><time>2026-04-26T08:06:42.554Z</time></trkpt><trkpt lat="43.7831013" lon="11.3963759"><ele>77.66666666666667</ele><time>2026-04-26T08:06:43.562Z</time></trkpt><trkpt lat="43.7830514" lon="11.3966478"><ele>77.0</ele><time>2026-04-26T08:06:44.55Z</time></trkpt><trkpt lat="43.782991" lon="11.3969076"><ele>77.0</ele><time>2026-04-26T08:06:45.561Z</time></trkpt><trkpt lat="43.7829177" lon="11.3971624"><ele>77.0</ele><time>2026-04-26T08:06:46.566Z</time></trkpt><trkpt lat="43.7828288" lon="11.3974093"><ele>77.0</ele><time>2026-04-26T08:06:47.557Z</time></trkpt><trkpt lat="43.7827318" lon="11.3976497"><ele>76.0</ele><time>2026-04-26T08:06:48.563Z</time></trkpt><trkpt lat="43.7826131" lon="11.3978719"><ele>75.0</ele><time>2026-04-26T08:06:49.565Z</time></trkpt><trkpt lat="43.7824849" lon="11.3981032"><ele>74.0</ele><time>2026-04-26T08:06:50.562Z</time></trkpt><trkpt lat="43.7823551" lon="11.3983226"><ele>73.66666666666667</ele><time>2026-04-26T08:06:51.558Z</time></trkpt><trkpt lat="43.7822143" lon="11.3985259"><ele>73.33333333333333</ele><time>2026-04-26T08:06:52.564Z</time></trkpt><trkpt lat="43.7820744" lon="11.3987245"><ele>73.0</ele><time>2026-04-26T08:06:53.553Z</time></trkpt><trkpt lat="43.7819233" lon="11.3989153"><ele>74.0</ele><time>2026-04-26T08:06:54.56Z</time></trkpt><trkpt lat="43.7817684" lon="11.3990909"><ele>75.0</ele><time>2026-04-26T08:06:55.554Z</time></trkpt><trkpt lat="43.7816195" lon="11.3992646"><ele>76.0</ele><time>2026-04-26T08:06:56.549Z</time></trkpt><trkpt lat="43.7814633" lon="11.3994382"><ele>76.0</ele><time>2026-04-26T08:06:57.548Z</time></trkpt><trkpt lat="43.7813173" lon="11.3996049"><ele>76.0</ele><time>2026-04-26T08:06:58.561Z</time></trkpt><trkpt lat="43.7811692" lon="11.399764"><ele>76.0</ele><time>2026-04-26T08:06:59.556Z</time></trkpt><trkpt lat="43.7810222" lon="11.3999262"><ele>78.33333333333333</ele><time>2026-04-26T08:07:00.555Z</time></trkpt><trkpt lat="43.780871" lon="11.4000941"><ele>80.66666666666667</ele><time>2026-04-26T08:07:01.552Z</time></trkpt><trkpt lat="43.7807207" lon="11.4002548"><ele>83.0</ele><time>2026-04-26T08:07:02.559Z</time></trkpt><trkpt lat="43.7805719" lon="11.4004205"><ele>82.33333333333334</ele><time>2026-04-26T08:07:03.559Z</time></trkpt><trkpt lat="43.7804217" lon="11.4005898"><ele>81.66666666666667</ele><time>2026-04-26T08:07:04.566Z</time></trkpt><trkpt lat="43.7802713" lon="11.4007531"><ele>81.0</ele><time>2026-04-26T08:07:05.554Z</time></trkpt><trkpt lat="43.7801278" lon="11.4009214"><ele>81.0</ele><time>2026-04-26T08:07:06.562Z</time></trkpt><trkpt lat="43.7799883" lon="11.4010831"><ele>81.0</ele><time>2026-04-26T08:07:07.56Z</time></trkpt><trkpt lat="43.7798549" lon="11.4012388"><ele>81.0</ele><time>2026-04-26T08:07:08.565Z</time></trkpt><trkpt lat="43.7797199" lon="11.401392"><ele>79.33333333333333</ele><time>2026-04-26T08:07:09.557Z</time></trkpt><trkpt lat="43.7795936" lon="11.4015389"><ele>77.66666666666666</ele><time>2026-04-26T08:07:10.565Z</time></trkpt><trkpt lat="43.779479" lon="11.4017026"><ele>76.0</ele><time>2026-04-26T08:07:11.558Z</time></trkpt><trkpt lat="43.7793711" lon="11.4018725"><ele>77.0</ele><time>2026-04-26T08:07:12.553Z</time></trkpt><trkpt lat="43.7792688" lon="11.4020533"><ele>78.0</ele><time>2026-04-26T08:07:13.565Z</time></trkpt><trkpt lat="43.7791727" lon="11.4022521"><ele>79.0</ele><time>2026-04-26T08:07:14.565Z</time></trkpt><trkpt lat="43.7790938" lon="11.4024506"><ele>79.0</ele><time>2026-04-26T08:07:15.554Z</time></trkpt><trkpt lat="43.7790216" lon="11.4026581"><ele>79.0</ele><time>2026-04-26T08:07:16.563Z</time></trkpt><trkpt lat="43.7789561" lon="11.4028793"><ele>79.0</ele><time>2026-04-26T08:07:17.554Z</time></trkpt><trkpt lat="43.7789116" lon="11.4031072"><ele>78.66666666666666</ele><time>2026-04-26T08:07:18.558Z</time></trkpt><trkpt lat="43.7788608" lon="11.4033344"><ele>78.33333333333333</ele><time>2026-04-26T08:07:19.556Z</time></trkpt><trkpt lat="43.7788073" lon="11.4035475"><ele>78.0</ele><time>2026-04-26T08:07:20.554Z</time></trkpt><trkpt lat="43.7787549" lon="11.4037599"><ele>77.33333333333333</ele><time>2026-04-26T08:07:21.56Z</time></trkpt><trkpt lat="43.7786948" lon="11.4039727"><ele>76.66666666666666</ele><time>2026-04-26T08:07:22.557Z</time></trkpt><trkpt lat="43.7786228" lon="11.4041679"><ele>76.0</ele><time>2026-04-26T08:07:23.552Z</time></trkpt><trkpt lat="43.7785406" lon="11.404367"><ele>76.33333333333333</ele><time>2026-04-26T08:07:24.556Z</time></trkpt><trkpt lat="43.7784447" lon="11.4045678"><ele>76.66666666666667</ele><time>2026-04-26T08:07:25.561Z</time></trkpt><trkpt lat="43.778342" lon="11.4047625"><ele>77.0</ele><time>2026-04-26T08:07:26.558Z</time></trkpt><trkpt lat="43.7782453" lon="11.4049527"><ele>77.0</ele><time>2026-04-26T08:07:27.562Z</time></trkpt><trkpt lat="43.7781458" lon="11.4051402"><ele>77.0</ele><time>2026-04-26T08:07:28.562Z</time></trkpt><trkpt lat="43.7780494" lon="11.4053204"><ele>77.0</ele><time>2026-04-26T08:07:29.564Z</time></trkpt><trkpt lat="43.7779528" lon="11.4055053"><ele>76.66666666666667</ele><time>2026-04-26T08:07:30.568Z</time></trkpt><trkpt lat="43.7778568" lon="11.4056877"><ele>76.33333333333333</ele><time>2026-04-26T08:07:31.565Z</time></trkpt><trkpt lat="43.7777571" lon="11.4058739"><ele>76.0</ele><time>2026-04-26T08:07:32.558Z</time></trkpt><trkpt lat="43.777663" lon="11.4060597"><ele>76.0</ele><time>2026-04-26T08:07:33.569Z</time></trkpt><trkpt lat="43.7775704" lon="11.4062562"><ele>76.0</ele><time>2026-04-26T08:07:34.554Z</time></trkpt><trkpt lat="43.7774692" lon="11.4064458"><ele>76.0</ele><time>2026-04-26T08:07:35.559Z</time></trkpt><trkpt lat="43.7773718" lon="11.406639"><ele>76.0</ele><time>2026-04-26T08:07:36.565Z</time></trkpt><trkpt lat="43.7772736" lon="11.4068163"><ele>76.0</ele><time>2026-04-26T08:07:37.562Z</time></trkpt><trkpt lat="43.7771814" lon="11.4069915"><ele>76.0</ele><time>2026-04-26T08:07:38.559Z</time></trkpt><trkpt lat="43.7770877" lon="11.4071722"><ele>76.0</ele><time>2026-04-26T08:07:39.565Z</time></trkpt><trkpt lat="43.7769901" lon="11.4073632"><ele>76.0</ele><time>2026-04-26T08:07:40.566Z</time></trkpt><trkpt lat="43.7768929" lon="11.407552"><ele>76.0</ele><time>2026-04-26T08:07:41.563Z</time></trkpt><trkpt lat="43.7767956" lon="11.4077441"><ele>76.0</ele><time>2026-04-26T08:07:42.554Z</time></trkpt><trkpt lat="43.7767019" lon="11.4079346"><ele>76.0</ele><time>2026-04-26T08:07:43.557Z</time></trkpt><trkpt lat="43.7765998" lon="11.4081243"><ele>76.0</ele><time>2026-04-26T08:07:44.558Z</time></trkpt><trkpt lat="43.7765042" lon="11.4083149"><ele>77.0</ele><time>2026-04-26T08:07:45.559Z</time></trkpt><trkpt lat="43.7764043" lon="11.4084999"><ele>78.0</ele><time>2026-04-26T08:07:46.553Z</time></trkpt><trkpt lat="43.776302" lon="11.4086879"><ele>79.0</ele><time>2026-04-26T08:07:47.554Z</time></trkpt><trkpt lat="43.7761975" lon="11.4088757"><ele>79.0</ele><time>2026-04-26T08:07:48.565Z</time></trkpt><trkpt lat="43.7760973" lon="11.409061"><ele>79.0</ele><time>2026-04-26T08:07:49.561Z</time></trkpt><trkpt lat="43.7759909" lon="11.4092427"><ele>79.0</ele><time>2026-04-26T08:07:50.562Z</time></trkpt><trkpt lat="43.775883" lon="11.4094199"><ele>79.33333333333333</ele><time>2026-04-26T08:07:51.554Z</time></trkpt><trkpt lat="43.7757743" lon="11.4095922"><ele>79.66666666666667</ele><time>2026-04-26T08:07:52.554Z</time></trkpt><trkpt lat="43.7756642" lon="11.4097644"><ele>80.0</ele><time>2026-04-26T08:07:53.566Z</time></trkpt><trkpt lat="43.7755487" lon="11.4099314"><ele>80.0</ele><time>2026-04-26T08:07:54.556Z</time></trkpt><trkpt lat="43.775437" lon="11.4100933"><ele>80.0</ele><time>2026-04-26T08:07:55.558Z</time></trkpt><trkpt lat="43.7753278" lon="11.4102431"><ele>80.0</ele><time>2026-04-26T08:07:56.563Z</time></trkpt><trkpt lat="43.7752202" lon="11.4103954"><ele>80.33333333333334</ele><time>2026-04-26T08:07:57.562Z</time></trkpt><trkpt lat="43.7751054" lon="11.4105404"><ele>80.66666666666667</ele><time>2026-04-26T08:07:58.561Z</time></trkpt><trkpt lat="43.7749905" lon="11.4106865"><ele>81.0</ele><time>2026-04-26T08:07:59.56Z</time></trkpt><trkpt lat="43.7748723" lon="11.410833"><ele>81.0</ele><time>2026-04-26T08:08:00.556Z</time></trkpt><trkpt lat="43.7747533" lon="11.4109754"><ele>81.0</ele><time>2026-04-26T08:08:01.566Z</time></trkpt><trkpt lat="43.774636" lon="11.4111228"><ele>81.0</ele><time>2026-04-26T08:08:02.559Z</time></trkpt><trkpt lat="43.774529" lon="11.4112698"><ele>81.0</ele><time>2026-04-26T08:08:03.557Z</time></trkpt><trkpt lat="43.7744309" lon="11.4114383"><ele>81.0</ele><time>2026-04-26T08:08:04.559Z</time></trkpt><trkpt lat="43.7743469" lon="11.4116163"><ele>81.0</ele><time>2026-04-26T08:08:05.57Z</time></trkpt><trkpt lat="43.7742744" lon="11.411805"><ele>80.5</ele><time>2026-04-26T08:08:06.554Z</time></trkpt><trkpt lat="43.7742213" lon="11.4119832"><ele>80.0</ele><time>2026-04-26T08:08:07.556Z</time></trkpt><trkpt lat="43.7741804" lon="11.4121766"><ele>79.5</ele><time>2026-04-26T08:08:08.561Z</time></trkpt><trkpt lat="43.7741507" lon="11.41237"><ele>79.0</ele><time>2026-04-26T08:08:09.552Z</time></trkpt><trkpt lat="43.7741367" lon="11.4125554"><ele>79.0</ele><time>2026-04-26T08:08:10.558Z</time></trkpt><trkpt lat="43.7741265" lon="11.4127474"><ele>79.0</ele><time>2026-04-26T08:08:11.557Z</time></trkpt><trkpt lat="43.7741245" lon="11.4129352"><ele>79.0</ele><time>2026-04-26T08:08:12.559Z</time></trkpt><trkpt lat="43.7741366" lon="11.413118"><ele>79.0</ele><time>2026-04-26T08:08:13.559Z</time></trkpt><trkpt lat="43.7741498" lon="11.4133026"><ele>78.75</ele><time>2026-04-26T08:08:14.56Z</time></trkpt><trkpt lat="43.7741687" lon="11.4134985"><ele>78.5</ele><time>2026-04-26T08:08:15.566Z</time></trkpt><trkpt lat="43.7741784" lon="11.4136917"><ele>78.25</ele><time>2026-04-26T08:08:16.56Z</time></trkpt><trkpt lat="43.7741951" lon="11.4138906"><ele>78.0</ele><time>2026-04-26T08:08:17.563Z</time></trkpt><trkpt lat="43.7742115" lon="11.4140768"><ele>78.0</ele><time>2026-04-26T08:08:18.564Z</time></trkpt><trkpt lat="43.7742256" lon="11.4142542"><ele>78.0</ele><time>2026-04-26T08:08:19.564Z</time></trkpt><trkpt lat="43.7742414" lon="11.4144344"><ele>78.0</ele><time>2026-04-26T08:08:20.56Z</time></trkpt><trkpt lat="43.7742605" lon="11.4146161"><ele>78.0</ele><time>2026-04-26T08:08:21.558Z</time></trkpt><trkpt lat="43.7742744" lon="11.4148043"><ele>78.0</ele><time>2026-04-26T08:08:22.56Z</time></trkpt><trkpt lat="43.7742983" lon="11.4149882"><ele>78.0</ele><time>2026-04-26T08:08:23.556Z</time></trkpt><trkpt lat="43.7743192" lon="11.4151642"><ele>78.0</ele><time>2026-04-26T08:08:24.556Z</time></trkpt><trkpt lat="43.7743363" lon="11.4153417"><ele>78.0</ele><time>2026-04-26T08:08:25.569Z</time></trkpt><trkpt lat="43.7743487" lon="11.4155154"><ele>78.16666666666667</ele><time>2026-04-26T08:08:26.556Z</time></trkpt><trkpt lat="43.7743477" lon="11.4156679"><ele>78.33333333333333</ele><time>2026-04-26T08:08:27.552Z</time></trkpt><trkpt lat="43.7743399" lon="11.4157995"><ele>78.5</ele><time>2026-04-26T08:08:28.566Z</time></trkpt><trkpt lat="43.7743263" lon="11.4158894"><ele>78.66666666666666</ele><time>2026-04-26T08:08:29.56Z</time></trkpt><trkpt lat="43.774305" lon="11.4159738"><ele>78.83333333333333</ele><time>2026-04-26T08:08:30.562Z</time></trkpt><trkpt lat="43.7742756" lon="11.416071"><ele>79.0</ele><time>2026-04-26T08:08:32.567Z</time></trkpt><trkpt lat="43.7742472" lon="11.4161752"><ele>79.0</ele><time>2026-04-26T08:08:35.571Z</time></trkpt><trkpt lat="43.7742093" lon="11.4162821"><ele>79.0</ele><time>2026-04-26T08:08:37.567Z</time></trkpt><trkpt lat="43.7741764" lon="11.4163604"><ele>79.0</ele><time>2026-04-26T08:08:38.56Z</time></trkpt><trkpt lat="43.7741382" lon="11.4164386"><ele>79.0</ele><time>2026-04-26T08:08:39.575Z</time></trkpt><trkpt lat="43.7740907" lon="11.4165187"><ele>79.0</ele><time>2026-04-26T08:08:40.553Z</time></trkpt><trkpt lat="43.774034" lon="11.4166152"><ele>79.0</ele><time>2026-04-26T08:08:41.552Z</time></trkpt><trkpt lat="43.7739754" lon="11.4167173"><ele>79.4</ele><time>2026-04-26T08:08:42.57Z</time></trkpt><trkpt lat="43.7739091" lon="11.4168266"><ele>79.80000000000001</ele><time>2026-04-26T08:08:43.612Z</time></trkpt><trkpt lat="43.7738388" lon="11.4169499"><ele>80.19999999999999</ele><time>2026-04-26T08:08:44.567Z</time></trkpt><trkpt lat="43.7737768" lon="11.4170844"><ele>80.6</ele><time>2026-04-26T08:08:45.585Z</time></trkpt><trkpt lat="43.7737172" lon="11.4172233"><ele>81.0</ele><time>2026-04-26T08:08:46.574Z</time></trkpt><trkpt lat="43.7736585" lon="11.4173738"><ele>81.0</ele><time>2026-04-26T08:08:47.552Z</time></trkpt><trkpt lat="43.773597" lon="11.4175446"><ele>81.0</ele><time>2026-04-26T08:08:48.56Z</time></trkpt><trkpt lat="43.7735336" lon="11.4177225"><ele>81.0</ele><time>2026-04-26T08:08:49.575Z</time></trkpt><trkpt lat="43.7734771" lon="11.4179078"><ele>81.0</ele><time>2026-04-26T08:08:50.559Z</time></trkpt><trkpt lat="43.7734287" lon="11.4181065"><ele>80.66666666666667</ele><time>2026-04-26T08:08:51.566Z</time></trkpt><trkpt lat="43.773378" lon="11.4183116"><ele>80.33333333333334</ele><time>2026-04-26T08:08:52.564Z</time></trkpt><trkpt lat="43.7733308" lon="11.4185265"><ele>80.0</ele><time>2026-04-26T08:08:53.56Z</time></trkpt><trkpt lat="43.7732801" lon="11.41875"><ele>80.33333333333334</ele><time>2026-04-26T08:08:54.556Z</time></trkpt><trkpt lat="43.77323" lon="11.4189813"><ele>80.66666666666667</ele><time>2026-04-26T08:08:55.574Z</time></trkpt><trkpt lat="43.773177" lon="11.4192143"><ele>81.0</ele><time>2026-04-26T08:08:56.587Z</time></trkpt><trkpt lat="43.7731245" lon="11.4194416"><ele>81.0</ele><time>2026-04-26T08:08:57.563Z</time></trkpt><trkpt lat="43.7730711" lon="11.4196592"><ele>81.0</ele><time>2026-04-26T08:08:58.576Z</time></trkpt><trkpt lat="43.7730224" lon="11.4198668"><ele>81.0</ele><time>2026-04-26T08:08:59.563Z</time></trkpt><trkpt lat="43.7729756" lon="11.42007"><ele>81.0</ele><time>2026-04-26T08:09:00.564Z</time></trkpt><trkpt lat="43.7729265" lon="11.4202707"><ele>81.0</ele><time>2026-04-26T08:09:01.56Z</time></trkpt><trkpt lat="43.7728815" lon="11.4204742"><ele>81.0</ele><time>2026-04-26T08:09:02.57Z</time></trkpt><trkpt lat="43.7728347" lon="11.4206806"><ele>81.0</ele><time>2026-04-26T08:09:03.557Z</time></trkpt><trkpt lat="43.7727897" lon="11.4208829"><ele>81.0</ele><time>2026-04-26T08:09:04.57Z</time></trkpt><trkpt lat="43.772737" lon="11.4210904"><ele>81.0</ele><time>2026-04-26T08:09:05.579Z</time></trkpt><trkpt lat="43.7726903" lon="11.4213014"><ele>80.66666666666667</ele><time>2026-04-26T08:09:06.573Z</time></trkpt><trkpt lat="43.7726412" lon="11.4215113"><ele>80.33333333333334</ele><time>2026-04-26T08:09:07.577Z</time></trkpt><trkpt lat="43.7725919" lon="11.421723"><ele>80.0</ele><time>2026-04-26T08:09:08.559Z</time></trkpt><trkpt lat="43.7725395" lon="11.4219345"><ele>80.33333333333334</ele><time>2026-04-26T08:09:09.563Z</time></trkpt><trkpt lat="43.7724876" lon="11.4221567"><ele>80.66666666666667</ele><time>2026-04-26T08:09:10.569Z</time></trkpt><trkpt lat="43.7724341" lon="11.4223655"><ele>81.0</ele><time>2026-04-26T08:09:11.563Z</time></trkpt><trkpt lat="43.7723839" lon="11.4225776"><ele>81.0</ele><time>2026-04-26T08:09:12.57Z</time></trkpt><trkpt lat="43.7723349" lon="11.4227877"><ele>81.0</ele><time>2026-04-26T08:09:13.574Z</time></trkpt><trkpt lat="43.7722842" lon="11.4229946"><ele>81.0</ele><time>2026-04-26T08:09:14.566Z</time></trkpt><trkpt lat="43.772239" lon="11.4232032"><ele>81.33333333333333</ele><time>2026-04-26T08:09:15.569Z</time></trkpt><trkpt lat="43.7721957" lon="11.4234051"><ele>81.66666666666666</ele><time>2026-04-26T08:09:16.567Z</time></trkpt><trkpt lat="43.7721508" lon="11.4236139"><ele>82.0</ele><time>2026-04-26T08:09:17.571Z</time></trkpt><trkpt lat="43.7721016" lon="11.4238238"><ele>82.0</ele><time>2026-04-26T08:09:18.556Z</time></trkpt><trkpt lat="43.7720553" lon="11.4240308"><ele>82.0</ele><time>2026-04-26T08:09:19.563Z</time></trkpt><trkpt lat="43.7720077" lon="11.4242311"><ele>82.0</ele><time>2026-04-26T08:09:20.562Z</time></trkpt><trkpt lat="43.7719621" lon="11.4244314"><ele>82.0</ele><time>2026-04-26T08:09:21.569Z</time></trkpt><trkpt lat="43.7719114" lon="11.4246341"><ele>82.0</ele><time>2026-04-26T08:09:22.57Z</time></trkpt><trkpt lat="43.7718592" lon="11.4248264"><ele>82.0</ele><time>2026-04-26T08:09:23.558Z</time></trkpt><trkpt lat="43.7718142" lon="11.4250105"><ele>82.0</ele><time>2026-04-26T08:09:24.574Z</time></trkpt><trkpt lat="43.7717691" lon="11.425196"><ele>81.75</ele><time>2026-04-26T08:09:25.56Z</time></trkpt><trkpt lat="43.7717184" lon="11.4253919"><ele>81.5</ele><time>2026-04-26T08:09:26.57Z</time></trkpt><trkpt lat="43.7716693" lon="11.4255862"><ele>81.25</ele><time>2026-04-26T08:09:27.565Z</time></trkpt><trkpt lat="43.7716253" lon="11.4257798"><ele>81.0</ele><time>2026-04-26T08:09:28.566Z</time></trkpt><trkpt lat="43.7715792" lon="11.4259714"><ele>81.0</ele><time>2026-04-26T08:09:29.553Z</time></trkpt><trkpt lat="43.7715375" lon="11.4261671"><ele>81.0</ele><time>2026-04-26T08:09:30.559Z</time></trkpt><trkpt lat="43.7714872" lon="11.4263552"><ele>81.0</ele><time>2026-04-26T08:09:31.561Z</time></trkpt><trkpt lat="43.7714446" lon="11.4265462"><ele>81.0</ele><time>2026-04-26T08:09:32.556Z</time></trkpt><trkpt lat="43.771402" lon="11.4267375"><ele>81.0</ele><time>2026-04-26T08:09:33.569Z</time></trkpt><trkpt lat="43.7713588" lon="11.4269266"><ele>81.0</ele><time>2026-04-26T08:09:34.55Z</time></trkpt><trkpt lat="43.7713178" lon="11.4271224"><ele>81.0</ele><time>2026-04-26T08:09:35.55Z</time></trkpt><trkpt lat="43.7712679" lon="11.4273187"><ele>81.0</ele><time>2026-04-26T08:09:36.555Z</time></trkpt><trkpt lat="43.7712142" lon="11.427515"><ele>81.33333333333333</ele><time>2026-04-26T08:09:37.569Z</time></trkpt><trkpt lat="43.7711705" lon="11.4277155"><ele>81.66666666666666</ele><time>2026-04-26T08:09:38.57Z</time></trkpt><trkpt lat="43.7711208" lon="11.4279248"><ele>82.0</ele><time>2026-04-26T08:09:39.549Z</time></trkpt><trkpt lat="43.7710713" lon="11.428126"><ele>82.25</ele><time>2026-04-26T08:09:40.55Z</time></trkpt><trkpt lat="43.7710329" lon="11.4283145"><ele>82.5</ele><time>2026-04-26T08:09:41.552Z</time></trkpt><trkpt lat="43.770989" lon="11.4285044"><ele>82.75</ele><time>2026-04-26T08:09:42.561Z</time></trkpt><trkpt lat="43.7709445" lon="11.4286909"><ele>83.0</ele><time>2026-04-26T08:09:43.566Z</time></trkpt><trkpt lat="43.7709041" lon="11.4288625"><ele>82.5</ele><time>2026-04-26T08:09:44.565Z</time></trkpt><trkpt lat="43.7708584" lon="11.4290171"><ele>82.0</ele><time>2026-04-26T08:09:45.562Z</time></trkpt><trkpt lat="43.7708097" lon="11.4291716"><ele>81.5</ele><time>2026-04-26T08:09:46.571Z</time></trkpt><trkpt lat="43.7707546" lon="11.4293401"><ele>81.0</ele><time>2026-04-26T08:09:47.557Z</time></trkpt><trkpt lat="43.770696" lon="11.4295063"><ele>81.0</ele><time>2026-04-26T08:09:48.563Z</time></trkpt><trkpt lat="43.7706354" lon="11.4296753"><ele>81.0</ele><time>2026-04-26T08:09:49.566Z</time></trkpt><trkpt lat="43.7705768" lon="11.4298519"><ele>81.0</ele><time>2026-04-26T08:09:50.564Z</time></trkpt><trkpt lat="43.7705155" lon="11.4300268"><ele>81.0</ele><time>2026-04-26T08:09:51.572Z</time></trkpt><trkpt lat="43.7704523" lon="11.4302117"><ele>81.0</ele><time>2026-04-26T08:09:52.572Z</time></trkpt><trkpt lat="43.7703891" lon="11.4303959"><ele>81.0</ele><time>2026-04-26T08:09:53.556Z</time></trkpt><trkpt lat="43.7703252" lon="11.4305853"><ele>81.0</ele><time>2026-04-26T08:09:54.559Z</time></trkpt><trkpt lat="43.7702613" lon="11.4307797"><ele>80.66666666666667</ele><time>2026-04-26T08:09:55.55Z</time></trkpt><trkpt lat="43.7701889" lon="11.4309634"><ele>80.33333333333334</ele><time>2026-04-26T08:09:56.576Z</time></trkpt><trkpt lat="43.7701254" lon="11.4311514"><ele>80.0</ele><time>2026-04-26T08:09:57.553Z</time></trkpt><trkpt lat="43.7700629" lon="11.4313422"><ele>80.0</ele><time>2026-04-26T08:09:58.56Z</time></trkpt><trkpt lat="43.7699943" lon="11.4315289"><ele>80.0</ele><time>2026-04-26T08:09:59.571Z</time></trkpt><trkpt lat="43.769927" lon="11.4317201"><ele>80.0</ele><time>2026-04-26T08:10:00.566Z</time></trkpt><trkpt lat="43.7698641" lon="11.4319028"><ele>80.0</ele><time>2026-04-26T08:10:01.567Z</time></trkpt><trkpt lat="43.7698024" lon="11.4320841"><ele>80.0</ele><time>2026-04-26T08:10:02.566Z</time></trkpt><trkpt lat="43.7697467" lon="11.4322654"><ele>80.0</ele><time>2026-04-26T08:10:03.558Z</time></trkpt><trkpt lat="43.7696374" lon="11.4326295"><ele>80.5</ele><time>2026-04-26T08:10:05.578Z</time></trkpt><trkpt lat="43.769589" lon="11.4328121"><ele>81.0</ele><time>2026-04-26T08:10:06.553Z</time></trkpt><trkpt lat="43.7695437" lon="11.4330033"><ele>81.5</ele><time>2026-04-26T08:10:07.561Z</time></trkpt><trkpt lat="43.7695004" lon="11.4331929"><ele>82.0</ele><time>2026-04-26T08:10:08.571Z</time></trkpt><trkpt lat="43.7694635" lon="11.4333874"><ele>82.0</ele><time>2026-04-26T08:10:09.555Z</time></trkpt><trkpt lat="43.769431" lon="11.4335675"><ele>82.0</ele><time>2026-04-26T08:10:10.562Z</time></trkpt><trkpt lat="43.7694019" lon="11.4337555"><ele>82.0</ele><time>2026-04-26T08:10:11.573Z</time></trkpt><trkpt lat="43.7693747" lon="11.433937"><ele>82.0</ele><time>2026-04-26T08:10:12.553Z</time></trkpt><trkpt lat="43.7693505" lon="11.4341173"><ele>82.0</ele><time>2026-04-26T08:10:13.558Z</time></trkpt><trkpt lat="43.7693358" lon="11.4342953"><ele>82.0</ele><time>2026-04-26T08:10:14.573Z</time></trkpt><trkpt lat="43.7693238" lon="11.4344771"><ele>82.0</ele><time>2026-04-26T08:10:15.569Z</time></trkpt><trkpt lat="43.769311" lon="11.4346626"><ele>82.0</ele><time>2026-04-26T08:10:16.552Z</time></trkpt><trkpt lat="43.7693095" lon="11.4348568"><ele>82.0</ele><time>2026-04-26T08:10:17.542Z</time></trkpt><trkpt lat="43.7693103" lon="11.4350509"><ele>82.0</ele><time>2026-04-26T08:10:18.57Z</time></trkpt><trkpt lat="43.7693139" lon="11.435238"><ele>82.0</ele><time>2026-04-26T08:10:19.559Z</time></trkpt><trkpt lat="43.7693216" lon="11.4354255"><ele>82.0</ele><time>2026-04-26T08:10:20.563Z</time></trkpt><trkpt lat="43.769335" lon="11.4356286"><ele>81.66666666666666</ele><time>2026-04-26T08:10:21.565Z</time></trkpt><trkpt lat="43.7693485" lon="11.4358392"><ele>81.33333333333333</ele><time>2026-04-26T08:10:22.554Z</time></trkpt><trkpt lat="43.7693703" lon="11.4360485"><ele>81.0</ele><time>2026-04-26T08:10:23.602Z</time></trkpt><trkpt lat="43.7693911" lon="11.4362633"><ele>81.66666666666667</ele><time>2026-04-26T08:10:24.563Z</time></trkpt><trkpt lat="43.7694186" lon="11.4364706"><ele>82.33333333333334</ele><time>2026-04-26T08:10:25.556Z</time></trkpt><trkpt lat="43.7694524" lon="11.4366828"><ele>83.0</ele><time>2026-04-26T08:10:26.557Z</time></trkpt><trkpt lat="43.7694889" lon="11.4368934"><ele>83.0</ele><time>2026-04-26T08:10:27.549Z</time></trkpt><trkpt lat="43.7695754" lon="11.4372913"><ele>83.0</ele><time>2026-04-26T08:10:29.559Z</time></trkpt><trkpt lat="43.7696243" lon="11.4374855"><ele>83.0</ele><time>2026-04-26T08:10:30.562Z</time></trkpt><trkpt lat="43.7696794" lon="11.4376785"><ele>83.0</ele><time>2026-04-26T08:10:31.564Z</time></trkpt><trkpt lat="43.7697275" lon="11.4378596"><ele>83.0</ele><time>2026-04-26T08:10:32.562Z</time></trkpt><trkpt lat="43.7697846" lon="11.4380331"><ele>83.0</ele><time>2026-04-26T08:10:33.565Z</time></trkpt><trkpt lat="43.769832" lon="11.4381992"><ele>83.0</ele><time>2026-04-26T08:10:34.552Z</time></trkpt><trkpt lat="43.7698876" lon="11.4383575"><ele>83.0</ele><time>2026-04-26T08:10:35.566Z</time></trkpt><trkpt lat="43.7699415" lon="11.4385176"><ele>83.0</ele><time>2026-04-26T08:10:36.561Z</time></trkpt><trkpt lat="43.7700005" lon="11.4386789"><ele>83.0</ele><time>2026-04-26T08:10:37.553Z</time></trkpt><trkpt lat="43.7700592" lon="11.4388455"><ele>83.0</ele><time>2026-04-26T08:10:38.563Z</time></trkpt><trkpt lat="43.7701754" lon="11.439208"><ele>83.25</ele><time>2026-04-26T08:10:40.555Z</time></trkpt><trkpt lat="43.7702333" lon="11.4393956"><ele>83.5</ele><time>2026-04-26T08:10:41.565Z</time></trkpt><trkpt lat="43.7702953" lon="11.439579"><ele>83.75</ele><time>2026-04-26T08:10:42.561Z</time></trkpt><trkpt lat="43.7703639" lon="11.4397637"><ele>84.0</ele><time>2026-04-26T08:10:43.574Z</time></trkpt><trkpt lat="43.7704302" lon="11.4399496"><ele>83.33333333333333</ele><time>2026-04-26T08:10:44.561Z</time></trkpt><trkpt lat="43.7705065" lon="11.4401419"><ele>82.66666666666666</ele><time>2026-04-26T08:10:45.552Z</time></trkpt><trkpt lat="43.7705784" lon="11.4403385"><ele>82.0</ele><time>2026-04-26T08:10:46.567Z</time></trkpt><trkpt lat="43.7706493" lon="11.4405364"><ele>81.0</ele><time>2026-04-26T08:10:47.558Z</time></trkpt><trkpt lat="43.770722" lon="11.4407381"><ele>80.0</ele><time>2026-04-26T08:10:48.555Z</time></trkpt><trkpt lat="43.7708576" lon="11.4411507"><ele>78.66666666666667</ele><time>2026-04-26T08:10:50.572Z</time></trkpt><trkpt lat="43.7709182" lon="11.4413578"><ele>77.33333333333333</ele><time>2026-04-26T08:10:51.564Z</time></trkpt><trkpt lat="43.7709729" lon="11.4415762"><ele>76.0</ele><time>2026-04-26T08:10:52.565Z</time></trkpt><trkpt lat="43.7710176" lon="11.4418025"><ele>77.33333333333333</ele><time>2026-04-26T08:10:53.559Z</time></trkpt><trkpt lat="43.7710627" lon="11.4420369"><ele>78.66666666666667</ele><time>2026-04-26T08:10:54.564Z</time></trkpt><trkpt lat="43.7710954" lon="11.4422662"><ele>80.0</ele><time>2026-04-26T08:10:55.57Z</time></trkpt><trkpt lat="43.7711252" lon="11.4425022"><ele>80.0</ele><time>2026-04-26T08:10:56.567Z</time></trkpt><trkpt lat="43.7711506" lon="11.4427352"><ele>80.0</ele><time>2026-04-26T08:10:57.55Z</time></trkpt><trkpt lat="43.7711761" lon="11.4429542"><ele>80.0</ele><time>2026-04-26T08:10:58.576Z</time></trkpt><trkpt lat="43.7711915" lon="11.4431663"><ele>80.5</ele><time>2026-04-26T08:10:59.563Z</time></trkpt><trkpt lat="43.7712184" lon="11.4435895"><ele>81.0</ele><time>2026-04-26T08:11:01.568Z</time></trkpt><trkpt lat="43.7712377" lon="11.4437924"><ele>81.5</ele><time>2026-04-26T08:11:02.558Z</time></trkpt><trkpt lat="43.7712565" lon="11.4439922"><ele>82.0</ele><time>2026-04-26T08:11:03.565Z</time></trkpt><trkpt lat="43.7712754" lon="11.4441995"><ele>82.5</ele><time>2026-04-26T08:11:04.572Z</time></trkpt><trkpt lat="43.7712902" lon="11.4444066"><ele>83.0</ele><time>2026-04-26T08:11:05.553Z</time></trkpt><trkpt lat="43.7713093" lon="11.4446149"><ele>83.0</ele><time>2026-04-26T08:11:06.557Z</time></trkpt><trkpt lat="43.7713276" lon="11.4448168"><ele>83.0</ele><time>2026-04-26T08:11:07.565Z</time></trkpt><trkpt lat="43.7713421" lon="11.4450222"><ele>83.0</ele><time>2026-04-26T08:11:08.567Z</time></trkpt><trkpt lat="43.7713557" lon="11.4452222"><ele>83.0</ele><time>2026-04-26T08:11:09.548Z</time></trkpt><trkpt lat="43.7713738" lon="11.4454292"><ele>82.75</ele><time>2026-04-26T08:11:10.557Z</time></trkpt><trkpt lat="43.7713919" lon="11.4456349"><ele>82.5</ele><time>2026-04-26T08:11:11.569Z</time></trkpt><trkpt lat="43.7714113" lon="11.4458381"><ele>82.25</ele><time>2026-04-26T08:11:12.558Z</time></trkpt><trkpt lat="43.7714265" lon="11.4460377"><ele>82.0</ele><time>2026-04-26T08:11:13.574Z</time></trkpt><trkpt lat="43.7714465" lon="11.4462504"><ele>82.5</ele><time>2026-04-26T08:11:14.565Z</time></trkpt><trkpt lat="43.7714727" lon="11.4464548"><ele>83.0</ele><time>2026-04-26T08:11:15.561Z</time></trkpt><trkpt lat="43.7714948" lon="11.4466548"><ele>83.5</ele><time>2026-04-26T08:11:16.55Z</time></trkpt><trkpt lat="43.7715285" lon="11.4468617"><ele>84.0</ele><time>2026-04-26T08:11:17.549Z</time></trkpt><trkpt lat="43.7716076" lon="11.4472595"><ele>84.0</ele><time>2026-04-26T08:11:19.556Z</time></trkpt><trkpt lat="43.7716516" lon="11.4474465"><ele>84.0</ele><time>2026-04-26T08:11:20.548Z</time></trkpt><trkpt lat="43.7717049" lon="11.4476351"><ele>84.0</ele><time>2026-04-26T08:11:21.578Z</time></trkpt><trkpt lat="43.7717635" lon="11.447817"><ele>84.0</ele><time>2026-04-26T08:11:22.571Z</time></trkpt><trkpt lat="43.7718178" lon="11.4480033"><ele>84.25</ele><time>2026-04-26T08:11:23.556Z</time></trkpt><trkpt lat="43.77188" lon="11.4481809"><ele>84.5</ele><time>2026-04-26T08:11:24.565Z</time></trkpt><trkpt lat="43.7719444" lon="11.448357"><ele>84.75</ele><time>2026-04-26T08:11:25.55Z</time></trkpt><trkpt lat="43.772011" lon="11.4485171"><ele>85.0</ele><time>2026-04-26T08:11:26.546Z</time></trkpt><trkpt lat="43.772162" lon="11.4488156"><ele>85.75</ele><time>2026-04-26T08:11:28.56Z</time></trkpt><trkpt lat="43.7722391" lon="11.4489476"><ele>86.5</ele><time>2026-04-26T08:11:29.565Z</time></trkpt><trkpt lat="43.772316" lon="11.4490752"><ele>87.25</ele><time>2026-04-26T08:11:30.562Z</time></trkpt><trkpt lat="43.7723948" lon="11.4492036"><ele>88.0</ele><time>2026-04-26T08:11:31.546Z</time></trkpt><trkpt lat="43.7724673" lon="11.4493324"><ele>88.0</ele><time>2026-04-26T08:11:32.571Z</time></trkpt><trkpt lat="43.7725933" lon="11.4496158"><ele>88.0</ele><time>2026-04-26T08:11:34.552Z</time></trkpt><trkpt lat="43.7726828" lon="11.4499125"><ele>89.33333333333333</ele><time>2026-04-26T08:11:36.562Z</time></trkpt><trkpt lat="43.7727363" lon="11.4502463"><ele>90.66666666666667</ele><time>2026-04-26T08:11:38.568Z</time></trkpt><trkpt lat="43.7727863" lon="11.4504114"><ele>92.0</ele><time>2026-04-26T08:11:39.555Z</time></trkpt><trkpt lat="43.7728401" lon="11.4505743"><ele>92.8</ele><time>2026-04-26T08:11:40.565Z</time></trkpt><trkpt lat="43.7729105" lon="11.4506969"><ele>93.6</ele><time>2026-04-26T08:11:41.572Z</time></trkpt><trkpt lat="43.7729772" lon="11.4508188"><ele>94.39999999999999</ele><time>2026-04-26T08:11:42.554Z</time></trkpt><trkpt lat="43.7730546" lon="11.4509232"><ele>95.19999999999999</ele><time>2026-04-26T08:11:43.568Z</time></trkpt><trkpt lat="43.7731407" lon="11.4510191"><ele>96.0</ele><time>2026-04-26T08:11:44.561Z</time></trkpt><trkpt lat="43.7732226" lon="11.4510901"><ele>96.0</ele><time>2026-04-26T08:11:45.562Z</time></trkpt><trkpt lat="43.7732951" lon="11.4511643"><ele>96.0</ele><time>2026-04-26T08:11:46.544Z</time></trkpt><trkpt lat="43.7733707" lon="11.4512373"><ele>96.0</ele><time>2026-04-26T08:11:47.554Z</time></trkpt><trkpt lat="43.7734448" lon="11.4513106"><ele>96.0</ele><time>2026-04-26T08:11:48.566Z</time></trkpt><trkpt lat="43.7735164" lon="11.4513852"><ele>96.0</ele><time>2026-04-26T08:11:49.543Z</time></trkpt><trkpt lat="43.773586" lon="11.4514499"><ele>96.0</ele><time>2026-04-26T08:11:50.553Z</time></trkpt><trkpt lat="43.7736513" lon="11.4515099"><ele>99.4</ele><time>2026-04-26T08:11:51.551Z</time></trkpt><trkpt lat="43.7737031" lon="11.4515699"><ele>102.8</ele><time>2026-04-26T08:11:52.562Z</time></trkpt><trkpt lat="43.7737745" lon="11.4516942"><ele>106.20000000000002</ele><time>2026-04-26T08:11:54.557Z</time></trkpt><trkpt lat="43.7737782" lon="11.4518654"><ele>109.60000000000001</ele><time>2026-04-26T08:11:56.558Z</time></trkpt><trkpt lat="43.7737526" lon="11.4519731"><ele>113.0</ele><time>2026-04-26T08:11:57.548Z</time></trkpt><trkpt lat="43.7737111" lon="11.4520829"><ele>111.4</ele><time>2026-04-26T08:11:58.549Z</time></trkpt><trkpt lat="43.7736645" lon="11.4521897"><ele>109.80000000000001</ele><time>2026-04-26T08:11:59.56Z</time></trkpt><trkpt lat="43.7736213" lon="11.4523002"><ele>108.2</ele><time>2026-04-26T08:12:00.568Z</time></trkpt><trkpt lat="43.7735759" lon="11.4524115"><ele>106.6</ele><time>2026-04-26T08:12:01.572Z</time></trkpt><trkpt lat="43.773526" lon="11.4525198"><ele>105.0</ele><time>2026-04-26T08:12:02.547Z</time></trkpt><trkpt lat="43.7734777" lon="11.452641"><ele>105.0</ele><time>2026-04-26T08:12:03.551Z</time></trkpt><trkpt lat="43.7734283" lon="11.4527691"><ele>105.0</ele><time>2026-04-26T08:12:04.561Z</time></trkpt><trkpt lat="43.7733762" lon="11.4528976"><ele>105.0</ele><time>2026-04-26T08:12:05.562Z</time></trkpt><trkpt lat="43.7733362" lon="11.4530213"><ele>105.0</ele><time>2026-04-26T08:12:06.559Z</time></trkpt><trkpt lat="43.7733029" lon="11.453115"><ele>105.0</ele><time>2026-04-26T08:12:08.571Z</time></trkpt><trkpt lat="43.7732569" lon="11.4532448"><ele>107.4</ele><time>2026-04-26T08:12:13.558Z</time></trkpt><trkpt lat="43.7732329" lon="11.4533296"><ele>109.8</ele><time>2026-04-26T08:12:14.555Z</time></trkpt><trkpt lat="43.7731791" lon="11.4534794"><ele>112.19999999999999</ele><time>2026-04-26T08:12:16.563Z</time></trkpt><trkpt lat="43.7731428" lon="11.4535786"><ele>114.6</ele><time>2026-04-26T08:12:17.562Z</time></trkpt><trkpt lat="43.7731123" lon="11.4536892"><ele>117.0</ele><time>2026-04-26T08:12:18.561Z</time></trkpt><trkpt lat="43.7730918" lon="11.4538218"><ele>119.0</ele><time>2026-04-26T08:12:19.558Z</time></trkpt><trkpt lat="43.7730683" lon="11.4539605"><ele>120.99999999999999</ele><time>2026-04-26T08:12:20.548Z</time></trkpt><trkpt lat="43.7730473" lon="11.4540968"><ele>122.99999999999999</ele><time>2026-04-26T08:12:21.552Z</time></trkpt><trkpt lat="43.7730193" lon="11.4542357"><ele>125.0</ele><time>2026-04-26T08:12:22.562Z</time></trkpt><trkpt lat="43.7729877" lon="11.454371"><ele>127.0</ele><time>2026-04-26T08:12:23.564Z</time></trkpt><trkpt lat="43.7729472" lon="11.4545045"><ele>129.75</ele><time>2026-04-26T08:12:24.555Z</time></trkpt><trkpt lat="43.7728839" lon="11.4546479"><ele>132.5</ele><time>2026-04-26T08:12:25.563Z</time></trkpt><trkpt lat="43.7728229" lon="11.454787"><ele>135.25</ele><time>2026-04-26T08:12:26.564Z</time></trkpt><trkpt lat="43.7727437" lon="11.4549214"><ele>138.0</ele><time>2026-04-26T08:12:27.552Z</time></trkpt><trkpt lat="43.772667" lon="11.4550633"><ele>135.8</ele><time>2026-04-26T08:12:28.563Z</time></trkpt><trkpt lat="43.7726003" lon="11.4551914"><ele>133.60000000000002</ele><time>2026-04-26T08:12:29.567Z</time></trkpt><trkpt lat="43.7725404" lon="11.4553208"><ele>131.39999999999998</ele><time>2026-04-26T08:12:30.56Z</time></trkpt><trkpt lat="43.7724893" lon="11.455426"><ele>129.2</ele><time>2026-04-26T08:12:31.572Z</time></trkpt><trkpt lat="43.7724438" lon="11.4555186"><ele>127.0</ele><time>2026-04-26T08:12:32.571Z</time></trkpt><trkpt lat="43.7723975" lon="11.4556026"><ele>127.0</ele><time>2026-04-26T08:12:33.566Z</time></trkpt><trkpt lat="43.7723583" lon="11.45568"><ele>127.0</ele><time>2026-04-26T08:12:34.574Z</time></trkpt><trkpt lat="43.7723228" lon="11.4557576"><ele>127.0</ele><time>2026-04-26T08:12:35.568Z</time></trkpt><trkpt lat="43.7723002" lon="11.455848"><ele>127.0</ele><time>2026-04-26T08:12:36.568Z</time></trkpt><trkpt lat="43.7723061" lon="11.4559426"><ele>127.0</ele><time>2026-04-26T08:12:37.555Z</time></trkpt><trkpt lat="43.7723533" lon="11.4560235"><ele>127.0</ele><time>2026-04-26T08:12:38.557Z</time></trkpt><trkpt lat="43.772411" lon="11.4560924"><ele>127.0</ele><time>2026-04-26T08:12:39.562Z</time></trkpt><trkpt lat="43.7724629" lon="11.4561759"><ele>127.00000000000001</ele><time>2026-04-26T08:12:40.562Z</time></trkpt><trkpt lat="43.7725033" lon="11.4562821"><ele>127.0</ele><time>2026-04-26T08:12:41.565Z</time></trkpt><trkpt lat="43.7725186" lon="11.4563954"><ele>127.0</ele><time>2026-04-26T08:12:42.554Z</time></trkpt><trkpt lat="43.7725239" lon="11.4565265"><ele>127.0</ele><time>2026-04-26T08:12:43.563Z</time></trkpt><trkpt lat="43.7725287" lon="11.4566526"><ele>127.00000000000001</ele><time>2026-04-26T08:12:44.57Z</time></trkpt><trkpt lat="43.7725393" lon="11.4567706"><ele>127.0</ele><time>2026-04-26T08:12:45.561Z</time></trkpt><trkpt lat="43.7725571" lon="11.4568897"><ele>127.33333333333334</ele><time>2026-04-26T08:12:46.55Z</time></trkpt><trkpt lat="43.7725828" lon="11.4570071"><ele>127.66666666666667</ele><time>2026-04-26T08:12:47.559Z</time></trkpt><trkpt lat="43.7726128" lon="11.4571219"><ele>128.0</ele><time>2026-04-26T08:12:48.569Z</time></trkpt><trkpt lat="43.772646" lon="11.4572342"><ele>128.33333333333334</ele><time>2026-04-26T08:12:49.562Z</time></trkpt><trkpt lat="43.7726792" lon="11.4573469"><ele>128.66666666666666</ele><time>2026-04-26T08:12:50.561Z</time></trkpt><trkpt lat="43.7727158" lon="11.4574522"><ele>129.0</ele><time>2026-04-26T08:12:51.563Z</time></trkpt><trkpt lat="43.7727581" lon="11.4575491"><ele>135.6</ele><time>2026-04-26T08:12:52.549Z</time></trkpt><trkpt lat="43.7728066" lon="11.4576523"><ele>142.2</ele><time>2026-04-26T08:12:53.569Z</time></trkpt><trkpt lat="43.7728638" lon="11.4577532"><ele>148.79999999999998</ele><time>2026-04-26T08:12:54.56Z</time></trkpt><trkpt lat="43.7729102" lon="11.4578715"><ele>155.4</ele><time>2026-04-26T08:12:55.559Z</time></trkpt><trkpt lat="43.7729618" lon="11.4579965"><ele>162.0</ele><time>2026-04-26T08:12:56.548Z</time></trkpt><trkpt lat="43.7730043" lon="11.4581237"><ele>162.0</ele><time>2026-04-26T08:12:57.567Z</time></trkpt><trkpt lat="43.7730228" lon="11.4582519"><ele>162.0</ele><time>2026-04-26T08:12:58.559Z</time></trkpt><trkpt lat="43.7730226" lon="11.4584075"><ele>162.0</ele><time>2026-04-26T08:12:59.563Z</time></trkpt><trkpt lat="43.7729927" lon="11.458545"><ele>162.0</ele><time>2026-04-26T08:13:00.553Z</time></trkpt><trkpt lat="43.7729568" lon="11.4586808"><ele>162.0</ele><time>2026-04-26T08:13:01.559Z</time></trkpt><trkpt lat="43.7729133" lon="11.4588219"><ele>163.25</ele><time>2026-04-26T08:13:02.558Z</time></trkpt><trkpt lat="43.7728577" lon="11.4590883"><ele>164.5</ele><time>2026-04-26T08:13:04.549Z</time></trkpt><trkpt lat="43.7728646" lon="11.4592332"><ele>165.75</ele><time>2026-04-26T08:13:05.568Z</time></trkpt><trkpt lat="43.7728754" lon="11.4593888"><ele>167.0</ele><time>2026-04-26T08:13:06.553Z</time></trkpt><trkpt lat="43.7728858" lon="11.4595446"><ele>167.8</ele><time>2026-04-26T08:13:07.552Z</time></trkpt><trkpt lat="43.7728786" lon="11.4596966"><ele>168.6</ele><time>2026-04-26T08:13:08.555Z</time></trkpt><trkpt lat="43.7728512" lon="11.459843"><ele>169.4</ele><time>2026-04-26T08:13:09.555Z</time></trkpt><trkpt lat="43.7728031" lon="11.4599824"><ele>170.20000000000002</ele><time>2026-04-26T08:13:10.555Z</time></trkpt><trkpt lat="43.7727482" lon="11.4601156"><ele>171.0</ele><time>2026-04-26T08:13:11.559Z</time></trkpt><trkpt lat="43.7726696" lon="11.4603942"><ele>169.0</ele><time>2026-04-26T08:13:13.557Z</time></trkpt><trkpt lat="43.7726323" lon="11.4605357"><ele>167.0</ele><time>2026-04-26T08:13:14.567Z</time></trkpt><trkpt lat="43.7725925" lon="11.4606718"><ele>165.0</ele><time>2026-04-26T08:13:15.574Z</time></trkpt><trkpt lat="43.772554" lon="11.4608142"><ele>163.0</ele><time>2026-04-26T08:13:16.557Z</time></trkpt><trkpt lat="43.7725018" lon="11.4609398"><ele>161.0</ele><time>2026-04-26T08:13:17.557Z</time></trkpt><trkpt lat="43.7724382" lon="11.4610445"><ele>161.0</ele><time>2026-04-26T08:13:18.571Z</time></trkpt><trkpt lat="43.7723577" lon="11.4611317"><ele>161.0</ele><time>2026-04-26T08:13:19.565Z</time></trkpt><trkpt lat="43.7722723" lon="11.4611981"><ele>161.0</ele><time>2026-04-26T08:13:20.558Z</time></trkpt><trkpt lat="43.7720638" lon="11.4612862"><ele>161.0</ele><time>2026-04-26T08:13:22.561Z</time></trkpt><trkpt lat="43.7719513" lon="11.4613218"><ele>165.75</ele><time>2026-04-26T08:13:23.558Z</time></trkpt><trkpt lat="43.7718305" lon="11.4613539"><ele>170.5</ele><time>2026-04-26T08:13:24.555Z</time></trkpt><trkpt lat="43.7717139" lon="11.4613946"><ele>175.25</ele><time>2026-04-26T08:13:25.565Z</time></trkpt><trkpt lat="43.7715984" lon="11.4614432"><ele>180.0</ele><time>2026-04-26T08:13:26.564Z</time></trkpt><trkpt lat="43.7714819" lon="11.4614875"><ele>180.0</ele><time>2026-04-26T08:13:27.562Z</time></trkpt><trkpt lat="43.7713668" lon="11.4615416"><ele>180.0</ele><time>2026-04-26T08:13:28.559Z</time></trkpt><trkpt lat="43.7712589" lon="11.461612"><ele>180.0</ele><time>2026-04-26T08:13:29.56Z</time></trkpt><trkpt lat="43.77104" lon="11.4617436"><ele>180.4</ele><time>2026-04-26T08:13:31.554Z</time></trkpt><trkpt lat="43.7709411" lon="11.4618108"><ele>180.8</ele><time>2026-04-26T08:13:32.561Z</time></trkpt><trkpt lat="43.7708488" lon="11.4618738"><ele>181.2</ele><time>2026-04-26T08:13:33.554Z</time></trkpt><trkpt lat="43.7707605" lon="11.4619527"><ele>181.6</ele><time>2026-04-26T08:13:34.557Z</time></trkpt><trkpt lat="43.7706853" lon="11.4620618"><ele>182.0</ele><time>2026-04-26T08:13:35.563Z</time></trkpt><trkpt lat="43.7706452" lon="11.462195"><ele>182.0</ele><time>2026-04-26T08:13:36.551Z</time></trkpt><trkpt lat="43.7706302" lon="11.4623268"><ele>182.0</ele><time>2026-04-26T08:13:37.556Z</time></trkpt><trkpt lat="43.7706429" lon="11.4624625"><ele>182.0</ele><time>2026-04-26T08:13:38.562Z</time></trkpt><trkpt lat="43.770659" lon="11.4626031"><ele>182.0</ele><time>2026-04-26T08:13:39.553Z</time></trkpt><trkpt lat="43.7706706" lon="11.4627392"><ele>182.0</ele><time>2026-04-26T08:13:40.574Z</time></trkpt><trkpt lat="43.7706803" lon="11.4628842"><ele>183.5</ele><time>2026-04-26T08:13:41.562Z</time></trkpt><trkpt lat="43.7706908" lon="11.4630379"><ele>185.0</ele><time>2026-04-26T08:13:42.567Z</time></trkpt><trkpt lat="43.7707014" lon="11.4631942"><ele>186.5</ele><time>2026-04-26T08:13:43.581Z</time></trkpt><trkpt lat="43.7707063" lon="11.4633506"><ele>188.0</ele><time>2026-04-26T08:13:44.581Z</time></trkpt><trkpt lat="43.7707116" lon="11.4635203"><ele>188.0</ele><time>2026-04-26T08:13:45.581Z</time></trkpt><trkpt lat="43.770716" lon="11.4636903"><ele>188.0</ele><time>2026-04-26T08:13:46.581Z</time></trkpt><trkpt lat="43.7707233" lon="11.4638568"><ele>188.0</ele><time>2026-04-26T08:13:47.56Z</time></trkpt><trkpt lat="43.7707273" lon="11.4641896"><ele>189.0</ele><time>2026-04-26T08:13:49.571Z</time></trkpt><trkpt lat="43.7707129" lon="11.4643632"><ele>190.0</ele><time>2026-04-26T08:13:50.561Z</time></trkpt><trkpt lat="43.7706858" lon="11.4645218"><ele>191.0</ele><time>2026-04-26T08:13:51.556Z</time></trkpt><trkpt lat="43.7706435" lon="11.4646771"><ele>192.0</ele><time>2026-04-26T08:13:52.558Z</time></trkpt><trkpt lat="43.7706001" lon="11.4648169"><ele>193.25</ele><time>2026-04-26T08:13:53.574Z</time></trkpt><trkpt lat="43.7705675" lon="11.4649459"><ele>194.5</ele><time>2026-04-26T08:13:54.572Z</time></trkpt><trkpt lat="43.770531" lon="11.4650787"><ele>195.75</ele><time>2026-04-26T08:13:55.557Z</time></trkpt><trkpt lat="43.7704888" lon="11.4652116"><ele>197.0</ele><time>2026-04-26T08:13:56.569Z</time></trkpt><trkpt lat="43.7704152" lon="11.4654506"><ele>197.33333333333334</ele><time>2026-04-26T08:13:58.573Z</time></trkpt><trkpt lat="43.7703422" lon="11.4656304"><ele>197.66666666666669</ele><time>2026-04-26T08:14:00.56Z</time></trkpt><trkpt lat="43.7702886" lon="11.4657093"><ele>198.0</ele><time>2026-04-26T08:14:01.587Z</time></trkpt><trkpt lat="43.7702671" lon="11.4657939"><ele>198.33333333333331</ele><time>2026-04-26T08:14:02.57Z</time></trkpt><trkpt lat="43.770271" lon="11.465899"><ele>198.66666666666666</ele><time>2026-04-26T08:14:03.561Z</time></trkpt><trkpt lat="43.7702919" lon="11.4659947"><ele>199.0</ele><time>2026-04-26T08:14:04.573Z</time></trkpt><trkpt lat="43.7702962" lon="11.4661085"><ele>198.99999999999997</ele><time>2026-04-26T08:14:05.563Z</time></trkpt><trkpt lat="43.7703009" lon="11.4662053"><ele>199.0</ele><time>2026-04-26T08:14:06.559Z</time></trkpt><trkpt lat="43.7703013" lon="11.4663147"><ele>199.0</ele><time>2026-04-26T08:14:07.562Z</time></trkpt><trkpt lat="43.7702909" lon="11.4664434"><ele>199.0</ele><time>2026-04-26T08:14:08.587Z</time></trkpt><trkpt lat="43.7702839" lon="11.4665688"><ele>198.99999999999997</ele><time>2026-04-26T08:14:09.582Z</time></trkpt><trkpt lat="43.7702771" lon="11.4667047"><ele>199.0</ele><time>2026-04-26T08:14:10.568Z</time></trkpt><trkpt lat="43.7702715" lon="11.4668364"><ele>200.2</ele><time>2026-04-26T08:14:11.586Z</time></trkpt><trkpt lat="43.7702675" lon="11.4669813"><ele>201.39999999999998</ele><time>2026-04-26T08:14:12.56Z</time></trkpt><trkpt lat="43.7702624" lon="11.4671378"><ele>202.6</ele><time>2026-04-26T08:14:13.56Z</time></trkpt><trkpt lat="43.7702623" lon="11.4672998"><ele>203.8</ele><time>2026-04-26T08:14:14.574Z</time></trkpt><trkpt lat="43.7702633" lon="11.4674552"><ele>205.0</ele><time>2026-04-26T08:14:15.575Z</time></trkpt><trkpt lat="43.7702694" lon="11.4676087"><ele>205.5</ele><time>2026-04-26T08:14:16.564Z</time></trkpt><trkpt lat="43.7702774" lon="11.4677665"><ele>206.0</ele><time>2026-04-26T08:14:17.561Z</time></trkpt><trkpt lat="43.7702929" lon="11.4679276"><ele>206.5</ele><time>2026-04-26T08:14:18.562Z</time></trkpt><trkpt lat="43.7703122" lon="11.4681006"><ele>207.0</ele><time>2026-04-26T08:14:19.564Z</time></trkpt><trkpt lat="43.7703259" lon="11.4682707"><ele>209.5</ele><time>2026-04-26T08:14:20.567Z</time></trkpt><trkpt lat="43.7703528" lon="11.468617"><ele>212.0</ele><time>2026-04-26T08:14:22.574Z</time></trkpt><trkpt lat="43.7703779" lon="11.4689653"><ele>214.0</ele><time>2026-04-26T08:14:24.566Z</time></trkpt><trkpt lat="43.770387" lon="11.4691372"><ele>216.0</ele><time>2026-04-26T08:14:25.556Z</time></trkpt><trkpt lat="43.7703972" lon="11.4693102"><ele>218.0</ele><time>2026-04-26T08:14:26.582Z</time></trkpt><trkpt lat="43.7704007" lon="11.469483"><ele>220.0</ele><time>2026-04-26T08:14:27.577Z</time></trkpt><trkpt lat="43.770409" lon="11.4696547"><ele>221.75</ele><time>2026-04-26T08:14:28.568Z</time></trkpt><trkpt lat="43.7704129" lon="11.4698166"><ele>223.5</ele><time>2026-04-26T08:14:29.572Z</time></trkpt><trkpt lat="43.7704158" lon="11.4699754"><ele>225.25</ele><time>2026-04-26T08:14:30.562Z</time></trkpt><trkpt lat="43.7704185" lon="11.4701361"><ele>227.0</ele><time>2026-04-26T08:14:31.569Z</time></trkpt><trkpt lat="43.7704055" lon="11.4702946"><ele>227.0</ele><time>2026-04-26T08:14:32.563Z</time></trkpt><trkpt lat="43.7703545" lon="11.4704296"><ele>227.0</ele><time>2026-04-26T08:14:33.58Z</time></trkpt><trkpt lat="43.7702673" lon="11.4705414"><ele>227.0</ele><time>2026-04-26T08:14:34.568Z</time></trkpt><trkpt lat="43.7701536" lon="11.4706196"><ele>227.0</ele><time>2026-04-26T08:14:35.567Z</time></trkpt><trkpt lat="43.7700417" lon="11.4706425"><ele>228.25</ele><time>2026-04-26T08:14:36.562Z</time></trkpt><trkpt lat="43.7699237" lon="11.470658"><ele>229.5</ele><time>2026-04-26T08:14:37.564Z</time></trkpt><trkpt lat="43.7698035" lon="11.4706421"><ele>230.75</ele><time>2026-04-26T08:14:38.546Z</time></trkpt><trkpt lat="43.7696851" lon="11.4706363"><ele>232.0</ele><time>2026-04-26T08:14:39.566Z</time></trkpt><trkpt lat="43.7695811" lon="11.4706729"><ele>232.0</ele><time>2026-04-26T08:14:40.566Z</time></trkpt><trkpt lat="43.7694865" lon="11.4707387"><ele>232.0</ele><time>2026-04-26T08:14:41.567Z</time></trkpt><trkpt lat="43.7694276" lon="11.4708517"><ele>232.0</ele><time>2026-04-26T08:14:42.572Z</time></trkpt><trkpt lat="43.7694005" lon="11.4709841"><ele>232.0</ele><time>2026-04-26T08:14:43.564Z</time></trkpt><trkpt lat="43.7694371" lon="11.4711277"><ele>232.0</ele><time>2026-04-26T08:14:44.574Z</time></trkpt><trkpt lat="43.7694839" lon="11.4712641"><ele>233.25</ele><time>2026-04-26T08:14:45.58Z</time></trkpt><trkpt lat="43.7695557" lon="11.4713633"><ele>234.5</ele><time>2026-04-26T08:14:46.579Z</time></trkpt><trkpt lat="43.7697198" lon="11.4715583"><ele>235.75</ele><time>2026-04-26T08:14:48.551Z</time></trkpt><trkpt lat="43.7697967" lon="11.4716582"><ele>237.0</ele><time>2026-04-26T08:14:49.57Z</time></trkpt><trkpt lat="43.7698798" lon="11.4717507"><ele>237.0</ele><time>2026-04-26T08:14:50.554Z</time></trkpt><trkpt lat="43.7699775" lon="11.4718352"><ele>237.0</ele><time>2026-04-26T08:14:51.558Z</time></trkpt><trkpt lat="43.770078" lon="11.4719069"><ele>237.0</ele><time>2026-04-26T08:14:52.572Z</time></trkpt><trkpt lat="43.7701797" lon="11.471971"><ele>237.0</ele><time>2026-04-26T08:14:53.562Z</time></trkpt><trkpt lat="43.7702788" lon="11.4720322"><ele>237.0</ele><time>2026-04-26T08:14:54.576Z</time></trkpt><trkpt lat="43.7703811" lon="11.4720938"><ele>238.75</ele><time>2026-04-26T08:14:55.575Z</time></trkpt><trkpt lat="43.7704853" lon="11.4721594"><ele>240.5</ele><time>2026-04-26T08:14:56.583Z</time></trkpt><trkpt lat="43.7705853" lon="11.4722276"><ele>242.25</ele><time>2026-04-26T08:14:57.569Z</time></trkpt><trkpt lat="43.7706818" lon="11.4723118"><ele>244.0</ele><time>2026-04-26T08:14:58.565Z</time></trkpt><trkpt lat="43.7707678" lon="11.4724217"><ele>244.0</ele><time>2026-04-26T08:14:59.572Z</time></trkpt><trkpt lat="43.770847" lon="11.4725282"><ele>243.99999999999997</ele><time>2026-04-26T08:15:00.559Z</time></trkpt><trkpt lat="43.7709087" lon="11.4726342"><ele>243.99999999999997</ele><time>2026-04-26T08:15:01.562Z</time></trkpt><trkpt lat="43.7709784" lon="11.4727176"><ele>244.0</ele><time>2026-04-26T08:15:02.557Z</time></trkpt><trkpt lat="43.7710611" lon="11.4727679"><ele>244.0</ele><time>2026-04-26T08:15:03.563Z</time></trkpt><trkpt lat="43.7711676" lon="11.4727844"><ele>246.2</ele><time>2026-04-26T08:15:04.564Z</time></trkpt><trkpt lat="43.7712727" lon="11.4727575"><ele>248.39999999999998</ele><time>2026-04-26T08:15:05.562Z</time></trkpt><trkpt lat="43.7713679" lon="11.4727192"><ele>250.6</ele><time>2026-04-26T08:15:06.57Z</time></trkpt><trkpt lat="43.7714683" lon="11.4726818"><ele>252.8</ele><time>2026-04-26T08:15:07.583Z</time></trkpt><trkpt lat="43.7715746" lon="11.4726508"><ele>255.0</ele><time>2026-04-26T08:15:08.58Z</time></trkpt><trkpt lat="43.7716871" lon="11.472622"><ele>255.0</ele><time>2026-04-26T08:15:09.558Z</time></trkpt><trkpt lat="43.7718032" lon="11.4726037"><ele>255.0</ele><time>2026-04-26T08:15:10.561Z</time></trkpt><trkpt lat="43.7719246" lon="11.4725966"><ele>255.0</ele><time>2026-04-26T08:15:11.562Z</time></trkpt><trkpt lat="43.77204" lon="11.4726166"><ele>255.0</ele><time>2026-04-26T08:15:12.573Z</time></trkpt><trkpt lat="43.7721561" lon="11.4726774"><ele>256.75</ele><time>2026-04-26T08:15:13.562Z</time></trkpt><trkpt lat="43.7722633" lon="11.4727558"><ele>258.5</ele><time>2026-04-26T08:15:14.566Z</time></trkpt><trkpt lat="43.772367" lon="11.4728563"><ele>260.25</ele><time>2026-04-26T08:15:15.562Z</time></trkpt><trkpt lat="43.77247" lon="11.4729636"><ele>262.0</ele><time>2026-04-26T08:15:16.571Z</time></trkpt><trkpt lat="43.7725748" lon="11.4730687"><ele>262.0</ele><time>2026-04-26T08:15:17.585Z</time></trkpt><trkpt lat="43.7726808" lon="11.4731719"><ele>262.0</ele><time>2026-04-26T08:15:18.571Z</time></trkpt><trkpt lat="43.7727861" lon="11.473288"><ele>262.0</ele><time>2026-04-26T08:15:19.565Z</time></trkpt><trkpt lat="43.7728885" lon="11.4733962"><ele>262.0</ele><time>2026-04-26T08:15:20.566Z</time></trkpt><trkpt lat="43.7729763" lon="11.4735098"><ele>265.3333333333333</ele><time>2026-04-26T08:15:21.558Z</time></trkpt><trkpt lat="43.7730496" lon="11.4736293"><ele>268.6666666666667</ele><time>2026-04-26T08:15:22.57Z</time></trkpt><trkpt lat="43.7731584" lon="11.4739374"><ele>272.0</ele><time>2026-04-26T08:15:24.559Z</time></trkpt><trkpt lat="43.7731857" lon="11.4740991"><ele>272.2</ele><time>2026-04-26T08:15:25.577Z</time></trkpt><trkpt lat="43.7732194" lon="11.474274"><ele>272.4</ele><time>2026-04-26T08:15:26.573Z</time></trkpt><trkpt lat="43.7732511" lon="11.4744282"><ele>272.6</ele><time>2026-04-26T08:15:27.563Z</time></trkpt><trkpt lat="43.7732749" lon="11.474566"><ele>272.8</ele><time>2026-04-26T08:15:28.576Z</time></trkpt><trkpt lat="43.7733005" lon="11.4746942"><ele>273.0</ele><time>2026-04-26T08:15:29.591Z</time></trkpt><trkpt lat="43.7733214" lon="11.4748031"><ele>273.3333333333333</ele><time>2026-04-26T08:15:30.563Z</time></trkpt><trkpt lat="43.773342" lon="11.4748896"><ele>273.6666666666667</ele><time>2026-04-26T08:15:31.561Z</time></trkpt><trkpt lat="43.7733699" lon="11.4750174"><ele>274.0</ele><time>2026-04-26T08:15:33.572Z</time></trkpt><trkpt lat="43.773401" lon="11.475138"><ele>274.33333333333337</ele><time>2026-04-26T08:15:35.573Z</time></trkpt><trkpt lat="43.7734468" lon="11.4752478"><ele>274.6666666666667</ele><time>2026-04-26T08:15:37.558Z</time></trkpt><trkpt lat="43.7735122" lon="11.4753364"><ele>275.0</ele><time>2026-04-26T08:15:39.591Z</time></trkpt><trkpt lat="43.7735902" lon="11.4754422"><ele>276.5</ele><time>2026-04-26T08:15:42.566Z</time></trkpt><trkpt lat="43.7736381" lon="11.4755061"><ele>278.0</ele><time>2026-04-26T08:15:44.567Z</time></trkpt><trkpt lat="43.773695" lon="11.4755622"><ele>279.5</ele><time>2026-04-26T08:15:51.572Z</time></trkpt><trkpt lat="43.773739" lon="11.4756387"><ele>281.0</ele><time>2026-04-26T08:16:14.561Z</time></trkpt><trkpt lat="43.7737959" lon="11.4756806"><ele>282.5</ele><time>2026-04-26T08:16:26.568Z</time></trkpt><trkpt lat="43.773867" lon="11.4757114"><ele>284.0</ele><time>2026-04-26T08:16:28.573Z</time></trkpt><trkpt lat="43.7739443" lon="11.4758241"><ele>284.0</ele><time>2026-04-26T08:16:30.561Z</time></trkpt><trkpt lat="43.7739913" lon="11.4758947"><ele>284.0</ele><time>2026-04-26T08:16:31.578Z</time></trkpt><trkpt lat="43.774047" lon="11.4759636"><ele>284.0</ele><time>2026-04-26T08:16:32.57Z</time></trkpt><trkpt lat="43.7741112" lon="11.476028"><ele>284.0</ele><time>2026-04-26T08:16:33.578Z</time></trkpt><trkpt lat="43.7742341" lon="11.4761779"><ele>284.0</ele><time>2026-04-26T08:16:35.569Z</time></trkpt><trkpt lat="43.7743039" lon="11.476246"><ele>284.83333333333337</ele><time>2026-04-26T08:16:36.573Z</time></trkpt><trkpt lat="43.7743829" lon="11.4763086"><ele>285.6666666666667</ele><time>2026-04-26T08:16:37.568Z</time></trkpt><trkpt lat="43.774463" lon="11.4763763"><ele>286.5</ele><time>2026-04-26T08:16:38.565Z</time></trkpt><trkpt lat="43.7745438" lon="11.4764228"><ele>287.3333333333333</ele><time>2026-04-26T08:16:39.58Z</time></trkpt><trkpt lat="43.7746132" lon="11.4764624"><ele>288.16666666666663</ele><time>2026-04-26T08:16:40.581Z</time></trkpt><trkpt lat="43.7746816" lon="11.4764964"><ele>289.0</ele><time>2026-04-26T08:16:41.59Z</time></trkpt><trkpt lat="43.774741" lon="11.476534"><ele>289.0</ele><time>2026-04-26T08:16:42.584Z</time></trkpt><trkpt lat="43.7748026" lon="11.4765726"><ele>289.0</ele><time>2026-04-26T08:16:43.568Z</time></trkpt><trkpt lat="43.7748635" lon="11.4766063"><ele>289.0</ele><time>2026-04-26T08:16:44.573Z</time></trkpt><trkpt lat="43.7749739" lon="11.4766763"><ele>289.0</ele><time>2026-04-26T08:16:46.578Z</time></trkpt><trkpt lat="43.7750801" lon="11.4767349"><ele>289.0</ele><time>2026-04-26T08:16:48.553Z</time></trkpt><trkpt lat="43.7751386" lon="11.4767744"><ele>289.0</ele><time>2026-04-26T08:16:49.574Z</time></trkpt><trkpt lat="43.7751962" lon="11.4768163"><ele>289.8333333333333</ele><time>2026-04-26T08:16:50.57Z</time></trkpt><trkpt lat="43.7752646" lon="11.4768567"><ele>290.66666666666663</ele><time>2026-04-26T08:16:51.575Z</time></trkpt><trkpt lat="43.7753964" lon="11.4769376"><ele>291.5</ele><time>2026-04-26T08:16:53.579Z</time></trkpt><trkpt lat="43.7754586" lon="11.4769835"><ele>292.3333333333333</ele><time>2026-04-26T08:16:54.585Z</time></trkpt><trkpt lat="43.7755244" lon="11.4770252"><ele>293.1666666666667</ele><time>2026-04-26T08:16:55.573Z</time></trkpt><trkpt lat="43.7755948" lon="11.4770793"><ele>294.0</ele><time>2026-04-26T08:16:56.569Z</time></trkpt><trkpt lat="43.7756698" lon="11.4771379"><ele>294.0</ele><time>2026-04-26T08:16:57.581Z</time></trkpt><trkpt lat="43.775736" lon="11.4772064"><ele>294.0</ele><time>2026-04-26T08:16:58.571Z</time></trkpt><trkpt lat="43.7758082" lon="11.4772854"><ele>294.0</ele><time>2026-04-26T08:16:59.565Z</time></trkpt><trkpt lat="43.7758809" lon="11.4773688"><ele>294.0</ele><time>2026-04-26T08:17:00.57Z</time></trkpt><trkpt lat="43.7760273" lon="11.4775707"><ele>297.0</ele><time>2026-04-26T08:17:02.569Z</time></trkpt><trkpt lat="43.7761005" lon="11.4776783"><ele>300.0</ele><time>2026-04-26T08:17:03.573Z</time></trkpt><trkpt lat="43.7761674" lon="11.4777969"><ele>303.0</ele><time>2026-04-26T08:17:04.572Z</time></trkpt><trkpt lat="43.7762327" lon="11.4779227"><ele>306.0</ele><time>2026-04-26T08:17:05.565Z</time></trkpt><trkpt lat="43.7762834" lon="11.4780683"><ele>309.0</ele><time>2026-04-26T08:17:06.567Z</time></trkpt><trkpt lat="43.7763226" lon="11.4782282"><ele>309.0</ele><time>2026-04-26T08:17:07.582Z</time></trkpt><trkpt lat="43.7763464" lon="11.4783922"><ele>309.0</ele><time>2026-04-26T08:17:08.578Z</time></trkpt><trkpt lat="43.7763799" lon="11.4785484"><ele>309.0</ele><time>2026-04-26T08:17:09.553Z</time></trkpt><trkpt lat="43.7764128" lon="11.4786835"><ele>309.0</ele><time>2026-04-26T08:17:10.573Z</time></trkpt><trkpt lat="43.7764487" lon="11.4788146"><ele>309.0</ele><time>2026-04-26T08:17:11.559Z</time></trkpt><trkpt lat="43.7765099" lon="11.4789283"><ele>308.4</ele><time>2026-04-26T08:17:12.562Z</time></trkpt><trkpt lat="43.7765983" lon="11.4789991"><ele>307.79999999999995</ele><time>2026-04-26T08:17:13.565Z</time></trkpt><trkpt lat="43.7766996" lon="11.4790472"><ele>307.20000000000005</ele><time>2026-04-26T08:17:14.568Z</time></trkpt><trkpt lat="43.7767959" lon="11.4790746"><ele>306.6</ele><time>2026-04-26T08:17:15.567Z</time></trkpt><trkpt lat="43.776896" lon="11.4790987"><ele>306.0</ele><time>2026-04-26T08:17:16.575Z</time></trkpt><trkpt lat="43.7770061" lon="11.4791238"><ele>309.6666666666667</ele><time>2026-04-26T08:17:17.592Z</time></trkpt><trkpt lat="43.7771242" lon="11.4791455"><ele>313.33333333333337</ele><time>2026-04-26T08:17:18.578Z</time></trkpt><trkpt lat="43.7773511" lon="11.4791922"><ele>317.0</ele><time>2026-04-26T08:17:20.572Z</time></trkpt><trkpt lat="43.7774815" lon="11.4792154"><ele>317.0</ele><time>2026-04-26T08:17:21.571Z</time></trkpt><trkpt lat="43.777605" lon="11.4792399"><ele>317.0</ele><time>2026-04-26T08:17:22.579Z</time></trkpt><trkpt lat="43.7777242" lon="11.4792936"><ele>317.0</ele><time>2026-04-26T08:17:23.573Z</time></trkpt><trkpt lat="43.7778368" lon="11.479374"><ele>317.0</ele><time>2026-04-26T08:17:24.563Z</time></trkpt><trkpt lat="43.7779245" lon="11.4795072"><ele>319.0</ele><time>2026-04-26T08:17:25.64Z</time></trkpt><trkpt lat="43.7779944" lon="11.4796646"><ele>321.0</ele><time>2026-04-26T08:17:26.615Z</time></trkpt><trkpt lat="43.7780658" lon="11.4798233"><ele>323.0</ele><time>2026-04-26T08:17:27.602Z</time></trkpt><trkpt lat="43.7781421" lon="11.47998"><ele>325.0</ele><time>2026-04-26T08:17:28.623Z</time></trkpt><trkpt lat="43.778222" lon="11.4801323"><ele>325.0</ele><time>2026-04-26T08:17:29.62Z</time></trkpt><trkpt lat="43.7783043" lon="11.4802808"><ele>325.0</ele><time>2026-04-26T08:17:30.618Z</time></trkpt><trkpt lat="43.7783921" lon="11.4804317"><ele>325.0</ele><time>2026-04-26T08:17:31.614Z</time></trkpt><trkpt lat="43.7784837" lon="11.4805699"><ele>325.0</ele><time>2026-04-26T08:17:32.614Z</time></trkpt><trkpt lat="43.7785825" lon="11.4806955"><ele>327.5</ele><time>2026-04-26T08:17:33.623Z</time></trkpt><trkpt lat="43.7786897" lon="11.4808084"><ele>330.0</ele><time>2026-04-26T08:17:34.623Z</time></trkpt><trkpt lat="43.778805" lon="11.4809239"><ele>332.5</ele><time>2026-04-26T08:17:35.605Z</time></trkpt><trkpt lat="43.7789421" lon="11.4810097"><ele>335.0</ele><time>2026-04-26T08:17:36.617Z</time></trkpt><trkpt lat="43.779222" lon="11.4811645"><ele>337.33333333333337</ele><time>2026-04-26T08:17:38.612Z</time></trkpt><trkpt lat="43.7793511" lon="11.4812651"><ele>339.6666666666667</ele><time>2026-04-26T08:17:39.624Z</time></trkpt><trkpt lat="43.779457" lon="11.4814259"><ele>342.0</ele><time>2026-04-26T08:17:40.617Z</time></trkpt><trkpt lat="43.7795628" lon="11.4816062"><ele>342.0</ele><time>2026-04-26T08:17:41.611Z</time></trkpt><trkpt lat="43.7796625" lon="11.4817739"><ele>342.0</ele><time>2026-04-26T08:17:42.605Z</time></trkpt><trkpt lat="43.7797681" lon="11.4819563"><ele>342.0</ele><time>2026-04-26T08:17:43.619Z</time></trkpt><trkpt lat="43.7798664" lon="11.4821383"><ele>341.5</ele><time>2026-04-26T08:17:44.62Z</time></trkpt><trkpt lat="43.7799671" lon="11.48232"><ele>341.0</ele><time>2026-04-26T08:17:45.615Z</time></trkpt><trkpt lat="43.7801743" lon="11.482678"><ele>345.0</ele><time>2026-04-26T08:17:47.611Z</time></trkpt><trkpt lat="43.7802719" lon="11.4828519"><ele>349.0</ele><time>2026-04-26T08:17:48.611Z</time></trkpt><trkpt lat="43.7803427" lon="11.4830452"><ele>353.0</ele><time>2026-04-26T08:17:49.618Z</time></trkpt><trkpt lat="43.7803793" lon="11.4832718"><ele>354.33333333333337</ele><time>2026-04-26T08:17:50.627Z</time></trkpt><trkpt lat="43.78039" lon="11.4834959"><ele>355.6666666666667</ele><time>2026-04-26T08:17:51.607Z</time></trkpt><trkpt lat="43.7804108" lon="11.4837137"><ele>357.0</ele><time>2026-04-26T08:17:52.615Z</time></trkpt><trkpt lat="43.780438" lon="11.4839262"><ele>359.0</ele><time>2026-04-26T08:17:53.613Z</time></trkpt><trkpt lat="43.7804796" lon="11.4841299"><ele>361.0</ele><time>2026-04-26T08:17:54.624Z</time></trkpt><trkpt lat="43.7806182" lon="11.4845122"><ele>361.66666666666663</ele><time>2026-04-26T08:17:56.63Z</time></trkpt><trkpt lat="43.7806876" lon="11.4847223"><ele>362.3333333333333</ele><time>2026-04-26T08:17:57.633Z</time></trkpt><trkpt lat="43.7807576" lon="11.4849248"><ele>363.0</ele><time>2026-04-26T08:17:58.613Z</time></trkpt><trkpt lat="43.7808296" lon="11.4851244"><ele>363.0</ele><time>2026-04-26T08:17:59.614Z</time></trkpt><trkpt lat="43.7809033" lon="11.4853208"><ele>363.0</ele><time>2026-04-26T08:18:00.635Z</time></trkpt><trkpt lat="43.7809829" lon="11.4855156"><ele>363.0</ele><time>2026-04-26T08:18:01.634Z</time></trkpt><trkpt lat="43.7810634" lon="11.4856977"><ele>369.5</ele><time>2026-04-26T08:18:02.612Z</time></trkpt><trkpt lat="43.7811392" lon="11.4858788"><ele>376.0</ele><time>2026-04-26T08:18:03.615Z</time></trkpt><trkpt lat="43.7812063" lon="11.4862949"><ele>376.66666666666663</ele><time>2026-04-26T08:18:05.612Z</time></trkpt><trkpt lat="43.7811927" lon="11.4864982"><ele>377.3333333333333</ele><time>2026-04-26T08:18:06.614Z</time></trkpt><trkpt lat="43.7811695" lon="11.48671"><ele>378.0</ele><time>2026-04-26T08:18:07.629Z</time></trkpt><trkpt lat="43.7811417" lon="11.4869276"><ele>380.33333333333337</ele><time>2026-04-26T08:18:08.619Z</time></trkpt><trkpt lat="43.7811129" lon="11.4871482"><ele>382.6666666666667</ele><time>2026-04-26T08:18:09.606Z</time></trkpt><trkpt lat="43.7811002" lon="11.4873835"><ele>385.0</ele><time>2026-04-26T08:18:10.621Z</time></trkpt><trkpt lat="43.7810655" lon="11.4875988"><ele>385.33333333333337</ele><time>2026-04-26T08:18:11.621Z</time></trkpt><trkpt lat="43.7810114" lon="11.4877996"><ele>385.66666666666663</ele><time>2026-04-26T08:18:12.616Z</time></trkpt><trkpt lat="43.7809548" lon="11.4879893"><ele>386.0</ele><time>2026-04-26T08:18:13.621Z</time></trkpt><trkpt lat="43.7809173" lon="11.4881866"><ele>386.0</ele><time>2026-04-26T08:18:14.612Z</time></trkpt><trkpt lat="43.7809143" lon="11.4883916"><ele>386.0</ele><time>2026-04-26T08:18:15.604Z</time></trkpt><trkpt lat="43.780946" lon="11.4885905"><ele>386.0</ele><time>2026-04-26T08:18:16.613Z</time></trkpt><trkpt lat="43.7810016" lon="11.4887792"><ele>386.0</ele><time>2026-04-26T08:18:17.638Z</time></trkpt><trkpt lat="43.7810725" lon="11.4889568"><ele>388.5</ele><time>2026-04-26T08:18:18.617Z</time></trkpt><trkpt lat="43.7811485" lon="11.4891317"><ele>391.0</ele><time>2026-04-26T08:18:19.63Z</time></trkpt><trkpt lat="43.7812305" lon="11.4893002"><ele>393.5</ele><time>2026-04-26T08:18:20.609Z</time></trkpt><trkpt lat="43.7813313" lon="11.4894475"><ele>396.0</ele><time>2026-04-26T08:18:21.619Z</time></trkpt><trkpt lat="43.7815693" lon="11.4896902"><ele>396.0</ele><time>2026-04-26T08:18:23.622Z</time></trkpt><trkpt lat="43.7816946" lon="11.4898033"><ele>396.0</ele><time>2026-04-26T08:18:24.618Z</time></trkpt><trkpt lat="43.7818276" lon="11.4899121"><ele>396.0</ele><time>2026-04-26T08:18:25.626Z</time></trkpt><trkpt lat="43.781963" lon="11.4900186"><ele>397.33333333333337</ele><time>2026-04-26T08:18:26.628Z</time></trkpt><trkpt lat="43.7820983" lon="11.4901253"><ele>398.6666666666667</ele><time>2026-04-26T08:18:27.613Z</time></trkpt><trkpt lat="43.7822282" lon="11.4902461"><ele>400.0</ele><time>2026-04-26T08:18:28.611Z</time></trkpt><trkpt lat="43.7823456" lon="11.490391"><ele>400.0</ele><time>2026-04-26T08:18:29.645Z</time></trkpt><trkpt lat="43.7824409" lon="11.4905637"><ele>400.0</ele><time>2026-04-26T08:18:30.616Z</time></trkpt><trkpt lat="43.782516" lon="11.4907569"><ele>400.0</ele><time>2026-04-26T08:18:31.62Z</time></trkpt><trkpt lat="43.7825738" lon="11.4909655"><ele>400.0</ele><time>2026-04-26T08:18:32.61Z</time></trkpt><trkpt lat="43.7826203" lon="11.4911786"><ele>400.0</ele><time>2026-04-26T08:18:33.619Z</time></trkpt><trkpt lat="43.7826636" lon="11.491396"><ele>400.0</ele><time>2026-04-26T08:18:34.627Z</time></trkpt><trkpt lat="43.7827032" lon="11.4916171"><ele>404.6666666666667</ele><time>2026-04-26T08:18:35.628Z</time></trkpt><trkpt lat="43.782734" lon="11.4918419"><ele>409.33333333333337</ele><time>2026-04-26T08:18:36.621Z</time></trkpt><trkpt lat="43.7827563" lon="11.4920701"><ele>414.0</ele><time>2026-04-26T08:18:37.617Z</time></trkpt><trkpt lat="43.7827594" lon="11.4922948"><ele>416.33333333333337</ele><time>2026-04-26T08:18:38.613Z</time></trkpt><trkpt lat="43.7827516" lon="11.4925071"><ele>418.6666666666667</ele><time>2026-04-26T08:18:39.625Z</time></trkpt><trkpt lat="43.7827467" lon="11.4928832"><ele>421.0</ele><time>2026-04-26T08:18:41.622Z</time></trkpt><trkpt lat="43.7827641" lon="11.4930464"><ele>422.0</ele><time>2026-04-26T08:18:42.618Z</time></trkpt><trkpt lat="43.7828363" lon="11.4932077"><ele>423.0</ele><time>2026-04-26T08:18:43.618Z</time></trkpt><trkpt lat="43.7829483" lon="11.4933347"><ele>424.0</ele><time>2026-04-26T08:18:44.616Z</time></trkpt><trkpt lat="43.7830719" lon="11.4934582"><ele>425.0</ele><time>2026-04-26T08:18:45.616Z</time></trkpt><trkpt lat="43.7831828" lon="11.4935741"><ele>425.0</ele><time>2026-04-26T08:18:46.625Z</time></trkpt><trkpt lat="43.7832999" lon="11.493696"><ele>425.0</ele><time>2026-04-26T08:18:47.608Z</time></trkpt><trkpt lat="43.7834113" lon="11.4938251"><ele>425.0</ele><time>2026-04-26T08:18:48.61Z</time></trkpt><trkpt lat="43.7835154" lon="11.4939737"><ele>425.0</ele><time>2026-04-26T08:18:49.611Z</time></trkpt><trkpt lat="43.7835975" lon="11.4941324"><ele>427.5</ele><time>2026-04-26T08:18:50.613Z</time></trkpt><trkpt lat="43.783641" lon="11.4943114"><ele>430.0</ele><time>2026-04-26T08:18:51.614Z</time></trkpt><trkpt lat="43.7836613" lon="11.4945056"><ele>432.5</ele><time>2026-04-26T08:18:52.619Z</time></trkpt><trkpt lat="43.7836857" lon="11.4946945"><ele>435.0</ele><time>2026-04-26T08:18:53.624Z</time></trkpt><trkpt lat="43.7837188" lon="11.4948728"><ele>436.0</ele><time>2026-04-26T08:18:54.632Z</time></trkpt><trkpt lat="43.7837739" lon="11.495058"><ele>437.0</ele><time>2026-04-26T08:18:55.616Z</time></trkpt><trkpt lat="43.783831" lon="11.4952423"><ele>438.0</ele><time>2026-04-26T08:18:56.607Z</time></trkpt><trkpt lat="43.7838869" lon="11.4954235"><ele>439.0</ele><time>2026-04-26T08:18:57.614Z</time></trkpt><trkpt lat="43.7839312" lon="11.4956079"><ele>440.5</ele><time>2026-04-26T08:18:58.609Z</time></trkpt><trkpt lat="43.7839568" lon="11.4957932"><ele>442.0</ele><time>2026-04-26T08:18:59.601Z</time></trkpt><trkpt lat="43.7839779" lon="11.4959764"><ele>443.5</ele><time>2026-04-26T08:19:00.597Z</time></trkpt><trkpt lat="43.7839908" lon="11.4961571"><ele>445.0</ele><time>2026-04-26T08:19:01.603Z</time></trkpt><trkpt lat="43.783992" lon="11.4963414"><ele>446.75</ele><time>2026-04-26T08:19:02.609Z</time></trkpt><trkpt lat="43.7839753" lon="11.4965232"><ele>448.5</ele><time>2026-04-26T08:19:03.611Z</time></trkpt><trkpt lat="43.7839418" lon="11.4966975"><ele>450.25</ele><time>2026-04-26T08:19:04.613Z</time></trkpt><trkpt lat="43.7838941" lon="11.4968704"><ele>452.0</ele><time>2026-04-26T08:19:05.603Z</time></trkpt><trkpt lat="43.783839" lon="11.4970251"><ele>453.0</ele><time>2026-04-26T08:19:06.608Z</time></trkpt><trkpt lat="43.7837794" lon="11.4971589"><ele>454.00000000000006</ele><time>2026-04-26T08:19:07.614Z</time></trkpt><trkpt lat="43.7837218" lon="11.4972997"><ele>455.00000000000006</ele><time>2026-04-26T08:19:08.605Z</time></trkpt><trkpt lat="43.7836838" lon="11.4974423"><ele>456.0</ele><time>2026-04-26T08:19:09.599Z</time></trkpt><trkpt lat="43.7836833" lon="11.4975873"><ele>457.0</ele><time>2026-04-26T08:19:10.599Z</time></trkpt><trkpt lat="43.7837258" lon="11.497727"><ele>457.0</ele><time>2026-04-26T08:19:11.603Z</time></trkpt><trkpt lat="43.7838004" lon="11.4978482"><ele>457.00000000000006</ele><time>2026-04-26T08:19:12.602Z</time></trkpt><trkpt lat="43.7838679" lon="11.4979419"><ele>457.00000000000006</ele><time>2026-04-26T08:19:13.607Z</time></trkpt><trkpt lat="43.7839607" lon="11.4980369"><ele>457.0</ele><time>2026-04-26T08:19:14.607Z</time></trkpt><trkpt lat="43.7840489" lon="11.4981428"><ele>457.0</ele><time>2026-04-26T08:19:15.608Z</time></trkpt><trkpt lat="43.7841239" lon="11.4982551"><ele>457.33333333333337</ele><time>2026-04-26T08:19:16.601Z</time></trkpt><trkpt lat="43.7841906" lon="11.4983619"><ele>457.6666666666667</ele><time>2026-04-26T08:19:17.601Z</time></trkpt><trkpt lat="43.7842441" lon="11.4984521"><ele>458.0</ele><time>2026-04-26T08:19:18.603Z</time></trkpt><trkpt lat="43.7842878" lon="11.4985328"><ele>458.33333333333337</ele><time>2026-04-26T08:19:19.604Z</time></trkpt><trkpt lat="43.7843278" lon="11.4986072"><ele>458.6666666666667</ele><time>2026-04-26T08:19:20.61Z</time></trkpt><trkpt lat="43.7843667" lon="11.4986844"><ele>459.0</ele><time>2026-04-26T08:19:21.598Z</time></trkpt><trkpt lat="43.7843997" lon="11.4987659"><ele>459.3333333333333</ele><time>2026-04-26T08:19:22.601Z</time></trkpt><trkpt lat="43.7844285" lon="11.4988564"><ele>459.66666666666663</ele><time>2026-04-26T08:19:23.603Z</time></trkpt><trkpt lat="43.784448" lon="11.4989529"><ele>460.0</ele><time>2026-04-26T08:19:24.594Z</time></trkpt><trkpt lat="43.7844621" lon="11.4990492"><ele>460.3333333333333</ele><time>2026-04-26T08:19:25.62Z</time></trkpt><trkpt lat="43.7844652" lon="11.4991489"><ele>460.66666666666663</ele><time>2026-04-26T08:19:26.614Z</time></trkpt><trkpt lat="43.7844587" lon="11.4993052"><ele>461.0</ele><time>2026-04-26T08:19:28.616Z</time></trkpt><trkpt lat="43.7844463" lon="11.499428"><ele>460.99999999999994</ele><time>2026-04-26T08:19:30.616Z</time></trkpt><trkpt lat="43.7844769" lon="11.4995371"><ele>461.0</ele><time>2026-04-26T08:19:32.617Z</time></trkpt><trkpt lat="43.7845696" lon="11.4996413"><ele>461.0</ele><time>2026-04-26T08:19:34.619Z</time></trkpt><trkpt lat="43.7846185" lon="11.4997019"><ele>461.0</ele><time>2026-04-26T08:19:35.612Z</time></trkpt><trkpt lat="43.7846686" lon="11.4997698"><ele>460.99999999999994</ele><time>2026-04-26T08:19:36.606Z</time></trkpt><trkpt lat="43.7847158" lon="11.499844"><ele>461.0</ele><time>2026-04-26T08:19:37.618Z</time></trkpt><trkpt lat="43.784768" lon="11.4999257"><ele>461.3333333333333</ele><time>2026-04-26T08:19:38.607Z</time></trkpt><trkpt lat="43.7848258" lon="11.5000018"><ele>461.66666666666663</ele><time>2026-04-26T08:19:39.613Z</time></trkpt><trkpt lat="43.7848835" lon="11.5000746"><ele>462.0</ele><time>2026-04-26T08:19:40.614Z</time></trkpt><trkpt lat="43.7849463" lon="11.5001322"><ele>462.33333333333337</ele><time>2026-04-26T08:19:41.609Z</time></trkpt><trkpt lat="43.7850145" lon="11.5001822"><ele>462.6666666666667</ele><time>2026-04-26T08:19:42.621Z</time></trkpt><trkpt lat="43.7850829" lon="11.5002312"><ele>463.0</ele><time>2026-04-26T08:19:43.606Z</time></trkpt><trkpt lat="43.7851581" lon="11.5002706"><ele>463.50000000000006</ele><time>2026-04-26T08:19:44.616Z</time></trkpt><trkpt lat="43.7852315" lon="11.5003157"><ele>464.0</ele><time>2026-04-26T08:19:45.611Z</time></trkpt><trkpt lat="43.7852984" lon="11.5003716"><ele>464.5</ele><time>2026-04-26T08:19:46.606Z</time></trkpt><trkpt lat="43.78536" lon="11.5004261"><ele>465.0</ele><time>2026-04-26T08:19:47.616Z</time></trkpt><trkpt lat="43.7854228" lon="11.5004811"><ele>465.50000000000006</ele><time>2026-04-26T08:19:48.604Z</time></trkpt><trkpt lat="43.7854874" lon="11.5005354"><ele>466.0</ele><time>2026-04-26T08:19:49.629Z</time></trkpt><trkpt lat="43.7855549" lon="11.5005863"><ele>466.0</ele><time>2026-04-26T08:19:50.619Z</time></trkpt><trkpt lat="43.7856193" lon="11.5006381"><ele>466.0</ele><time>2026-04-26T08:19:51.614Z</time></trkpt><trkpt lat="43.7857572" lon="11.5007258"><ele>466.0</ele><time>2026-04-26T08:19:53.602Z</time></trkpt><trkpt lat="43.785828" lon="11.5007613"><ele>466.0</ele><time>2026-04-26T08:19:54.633Z</time></trkpt><trkpt lat="43.7859076" lon="11.5007719"><ele>466.0</ele><time>2026-04-26T08:19:55.645Z</time></trkpt><trkpt lat="43.7859781" lon="11.5007735"><ele>465.6666666666667</ele><time>2026-04-26T08:19:56.66Z</time></trkpt><trkpt lat="43.7860514" lon="11.5007578"><ele>465.33333333333337</ele><time>2026-04-26T08:19:57.602Z</time></trkpt><trkpt lat="43.7861258" lon="11.5007348"><ele>465.0</ele><time>2026-04-26T08:19:58.602Z</time></trkpt><trkpt lat="43.7861904" lon="11.5007127"><ele>464.66666666666663</ele><time>2026-04-26T08:19:59.668Z</time></trkpt><trkpt lat="43.7862547" lon="11.5006993"><ele>464.3333333333333</ele><time>2026-04-26T08:20:00.603Z</time></trkpt><trkpt lat="43.7863857" lon="11.5006929"><ele>464.0</ele><time>2026-04-26T08:20:02.633Z</time></trkpt><trkpt lat="43.7864637" lon="11.5007107"><ele>463.99999999999994</ele><time>2026-04-26T08:20:03.606Z</time></trkpt><trkpt lat="43.7865359" lon="11.5007457"><ele>464.0</ele><time>2026-04-26T08:20:04.586Z</time></trkpt><trkpt lat="43.7866107" lon="11.5007843"><ele>464.0</ele><time>2026-04-26T08:20:05.602Z</time></trkpt><trkpt lat="43.7866879" lon="11.5008275"><ele>464.0</ele><time>2026-04-26T08:20:06.6Z</time></trkpt><trkpt lat="43.786768" lon="11.5008773"><ele>463.99999999999994</ele><time>2026-04-26T08:20:07.608Z</time></trkpt><trkpt lat="43.7868513" lon="11.5009356"><ele>464.0</ele><time>2026-04-26T08:20:08.599Z</time></trkpt><trkpt lat="43.7869351" lon="11.5009983"><ele>462.79999999999995</ele><time>2026-04-26T08:20:09.634Z</time></trkpt><trkpt lat="43.7870137" lon="11.5010614"><ele>461.59999999999997</ele><time>2026-04-26T08:20:10.641Z</time></trkpt><trkpt lat="43.7870941" lon="11.5011294"><ele>460.4</ele><time>2026-04-26T08:20:11.622Z</time></trkpt><trkpt lat="43.7871667" lon="11.5012"><ele>459.2</ele><time>2026-04-26T08:20:12.646Z</time></trkpt><trkpt lat="43.787241" lon="11.5012672"><ele>458.0</ele><time>2026-04-26T08:20:13.642Z</time></trkpt><trkpt lat="43.7873156" lon="11.5013302"><ele>457.99999999999994</ele><time>2026-04-26T08:20:14.617Z</time></trkpt><trkpt lat="43.7873891" lon="11.5013936"><ele>458.0</ele><time>2026-04-26T08:20:15.641Z</time></trkpt><trkpt lat="43.7874604" lon="11.501461"><ele>458.0</ele><time>2026-04-26T08:20:16.649Z</time></trkpt><trkpt lat="43.7875362" lon="11.5015231"><ele>458.0</ele><time>2026-04-26T08:20:17.619Z</time></trkpt><trkpt lat="43.7876152" lon="11.5015763"><ele>457.99999999999994</ele><time>2026-04-26T08:20:18.645Z</time></trkpt><trkpt lat="43.7876971" lon="11.50162"><ele>458.0</ele><time>2026-04-26T08:20:19.639Z</time></trkpt><trkpt lat="43.7877797" lon="11.5016563"><ele>457.3333333333333</ele><time>2026-04-26T08:20:20.639Z</time></trkpt><trkpt lat="43.7878568" lon="11.5016844"><ele>456.66666666666663</ele><time>2026-04-26T08:20:21.638Z</time></trkpt><trkpt lat="43.7879315" lon="11.5017039"><ele>456.0</ele><time>2026-04-26T08:20:22.631Z</time></trkpt><trkpt lat="43.7880057" lon="11.5017064"><ele>455.33333333333337</ele><time>2026-04-26T08:20:23.63Z</time></trkpt><trkpt lat="43.7880788" lon="11.5016908"><ele>454.6666666666667</ele><time>2026-04-26T08:20:24.639Z</time></trkpt><trkpt lat="43.788153" lon="11.5016668"><ele>454.0</ele><time>2026-04-26T08:20:25.624Z</time></trkpt><trkpt lat="43.788224" lon="11.5016462"><ele>454.0</ele><time>2026-04-26T08:20:26.637Z</time></trkpt><trkpt lat="43.7882925" lon="11.5016376"><ele>454.00000000000006</ele><time>2026-04-26T08:20:27.638Z</time></trkpt><trkpt lat="43.788361" lon="11.5016469"><ele>454.0</ele><time>2026-04-26T08:20:28.641Z</time></trkpt><trkpt lat="43.788437" lon="11.501675"><ele>454.0</ele><time>2026-04-26T08:20:29.635Z</time></trkpt><trkpt lat="43.7885048" lon="11.5017174"><ele>454.00000000000006</ele><time>2026-04-26T08:20:30.623Z</time></trkpt><trkpt lat="43.7885666" lon="11.5017681"><ele>454.0</ele><time>2026-04-26T08:20:31.625Z</time></trkpt><trkpt lat="43.7886129" lon="11.5018307"><ele>454.0</ele><time>2026-04-26T08:20:32.628Z</time></trkpt><trkpt lat="43.7886468" lon="11.501908"><ele>452.83333333333337</ele><time>2026-04-26T08:20:33.621Z</time></trkpt><trkpt lat="43.7886576" lon="11.5020905"><ele>451.6666666666667</ele><time>2026-04-26T08:20:35.627Z</time></trkpt><trkpt lat="43.7886491" lon="11.5021855"><ele>450.5</ele><time>2026-04-26T08:20:36.614Z</time></trkpt><trkpt lat="43.7886412" lon="11.5022836"><ele>449.33333333333337</ele><time>2026-04-26T08:20:37.621Z</time></trkpt><trkpt lat="43.7886427" lon="11.5023758"><ele>448.1666666666667</ele><time>2026-04-26T08:20:38.617Z</time></trkpt><trkpt lat="43.7886647" lon="11.5024628"><ele>447.0</ele><time>2026-04-26T08:20:39.637Z</time></trkpt><trkpt lat="43.7887272" lon="11.5025399"><ele>446.99999999999994</ele><time>2026-04-26T08:20:40.617Z</time></trkpt><trkpt lat="43.7887852" lon="11.5025987"><ele>447.0</ele><time>2026-04-26T08:20:41.618Z</time></trkpt><trkpt lat="43.7888484" lon="11.5026291"><ele>447.0</ele><time>2026-04-26T08:20:42.614Z</time></trkpt><trkpt lat="43.7889199" lon="11.5026218"><ele>447.0</ele><time>2026-04-26T08:20:43.622Z</time></trkpt><trkpt lat="43.7889874" lon="11.5025932"><ele>447.0</ele><time>2026-04-26T08:20:44.608Z</time></trkpt><trkpt lat="43.7890509" lon="11.5025442"><ele>446.99999999999994</ele><time>2026-04-26T08:20:45.607Z</time></trkpt><trkpt lat="43.7891148" lon="11.5024746"><ele>447.0</ele><time>2026-04-26T08:20:46.586Z</time></trkpt><trkpt lat="43.7891822" lon="11.502407"><ele>447.0</ele><time>2026-04-26T08:20:47.617Z</time></trkpt><trkpt lat="43.7892431" lon="11.5023378"><ele>447.0</ele><time>2026-04-26T08:20:48.617Z</time></trkpt><trkpt lat="43.7893119" lon="11.5022562"><ele>447.0</ele><time>2026-04-26T08:20:49.632Z</time></trkpt><trkpt lat="43.7893798" lon="11.5021787"><ele>447.0</ele><time>2026-04-26T08:20:50.626Z</time></trkpt><trkpt lat="43.7894518" lon="11.5020961"><ele>447.0</ele><time>2026-04-26T08:20:51.614Z</time></trkpt><trkpt lat="43.7895352" lon="11.5020245"><ele>447.0</ele><time>2026-04-26T08:20:52.613Z</time></trkpt><trkpt lat="43.7896251" lon="11.5019614"><ele>447.40000000000003</ele><time>2026-04-26T08:20:53.62Z</time></trkpt><trkpt lat="43.7897181" lon="11.5018929"><ele>447.80000000000007</ele><time>2026-04-26T08:20:54.622Z</time></trkpt><trkpt lat="43.7898172" lon="11.50183"><ele>448.2</ele><time>2026-04-26T08:20:55.615Z</time></trkpt><trkpt lat="43.7899168" lon="11.5017532"><ele>448.6</ele><time>2026-04-26T08:20:56.637Z</time></trkpt><trkpt lat="43.7900242" lon="11.5016816"><ele>449.0</ele><time>2026-04-26T08:20:57.63Z</time></trkpt><trkpt lat="43.7901323" lon="11.5016171"><ele>450.0</ele><time>2026-04-26T08:20:58.633Z</time></trkpt><trkpt lat="43.7902403" lon="11.5015509"><ele>451.0</ele><time>2026-04-26T08:20:59.627Z</time></trkpt><trkpt lat="43.7903395" lon="11.5014863"><ele>452.0</ele><time>2026-04-26T08:21:00.621Z</time></trkpt><trkpt lat="43.7904463" lon="11.5014361"><ele>453.0</ele><time>2026-04-26T08:21:01.633Z</time></trkpt><trkpt lat="43.7905666" lon="11.5014102"><ele>453.0</ele><time>2026-04-26T08:21:02.619Z</time></trkpt><trkpt lat="43.7906878" lon="11.5014079"><ele>453.0</ele><time>2026-04-26T08:21:03.634Z</time></trkpt><trkpt lat="43.7908112" lon="11.5014225"><ele>453.0</ele><time>2026-04-26T08:21:04.615Z</time></trkpt><trkpt lat="43.7909366" lon="11.5014395"><ele>453.0</ele><time>2026-04-26T08:21:05.628Z</time></trkpt><trkpt lat="43.7910627" lon="11.5014556"><ele>453.25</ele><time>2026-04-26T08:21:06.61Z</time></trkpt><trkpt lat="43.7911911" lon="11.5014714"><ele>453.5</ele><time>2026-04-26T08:21:07.626Z</time></trkpt><trkpt lat="43.7913189" lon="11.5014846"><ele>453.75</ele><time>2026-04-26T08:21:08.605Z</time></trkpt><trkpt lat="43.7914525" lon="11.5015058"><ele>454.0</ele><time>2026-04-26T08:21:09.632Z</time></trkpt><trkpt lat="43.7915831" lon="11.5015229"><ele>454.0</ele><time>2026-04-26T08:21:10.629Z</time></trkpt><trkpt lat="43.791714" lon="11.5015367"><ele>454.0</ele><time>2026-04-26T08:21:11.637Z</time></trkpt><trkpt lat="43.791841" lon="11.5015526"><ele>454.0</ele><time>2026-04-26T08:21:12.617Z</time></trkpt><trkpt lat="43.7919634" lon="11.5015694"><ele>454.0</ele><time>2026-04-26T08:21:13.642Z</time></trkpt><trkpt lat="43.7920833" lon="11.5015871"><ele>454.25</ele><time>2026-04-26T08:21:14.631Z</time></trkpt><trkpt lat="43.7922005" lon="11.5016006"><ele>454.5</ele><time>2026-04-26T08:21:15.633Z</time></trkpt><trkpt lat="43.7923192" lon="11.5016109"><ele>454.75</ele><time>2026-04-26T08:21:16.614Z</time></trkpt><trkpt lat="43.7924455" lon="11.5016147"><ele>455.0</ele><time>2026-04-26T08:21:17.615Z</time></trkpt><trkpt lat="43.7925704" lon="11.5016324"><ele>455.25</ele><time>2026-04-26T08:21:18.625Z</time></trkpt><trkpt lat="43.7926949" lon="11.5016489"><ele>455.5</ele><time>2026-04-26T08:21:19.623Z</time></trkpt><trkpt lat="43.7928216" lon="11.5016654"><ele>455.75</ele><time>2026-04-26T08:21:20.631Z</time></trkpt><trkpt lat="43.7929465" lon="11.5016822"><ele>456.0</ele><time>2026-04-26T08:21:21.626Z</time></trkpt><trkpt lat="43.7930691" lon="11.501698"><ele>456.0</ele><time>2026-04-26T08:21:22.641Z</time></trkpt><trkpt lat="43.7931936" lon="11.5017148"><ele>456.0</ele><time>2026-04-26T08:21:23.635Z</time></trkpt><trkpt lat="43.7933138" lon="11.5017293"><ele>456.0</ele><time>2026-04-26T08:21:24.634Z</time></trkpt><trkpt lat="43.7934206" lon="11.5017414"><ele>456.0</ele><time>2026-04-26T08:21:25.637Z</time></trkpt><trkpt lat="43.7935178" lon="11.5017538"><ele>455.4</ele><time>2026-04-26T08:21:26.646Z</time></trkpt><trkpt lat="43.7936036" lon="11.5017883"><ele>454.8</ele><time>2026-04-26T08:21:27.651Z</time></trkpt><trkpt lat="43.7936834" lon="11.5018431"><ele>454.19999999999993</ele><time>2026-04-26T08:21:28.636Z</time></trkpt><trkpt lat="43.7937586" lon="11.5019091"><ele>453.59999999999997</ele><time>2026-04-26T08:21:29.665Z</time></trkpt><trkpt lat="43.7938337" lon="11.5019873"><ele>453.0</ele><time>2026-04-26T08:21:30.644Z</time></trkpt><trkpt lat="43.7939116" lon="11.5020754"><ele>454.2</ele><time>2026-04-26T08:21:31.639Z</time></trkpt><trkpt lat="43.7939871" lon="11.502169"><ele>455.4</ele><time>2026-04-26T08:21:32.633Z</time></trkpt><trkpt lat="43.79406" lon="11.5022539"><ele>456.59999999999997</ele><time>2026-04-26T08:21:33.634Z</time></trkpt><trkpt lat="43.7941289" lon="11.5023433"><ele>457.79999999999995</ele><time>2026-04-26T08:21:34.644Z</time></trkpt><trkpt lat="43.7941953" lon="11.5024446"><ele>459.0</ele><time>2026-04-26T08:21:35.647Z</time></trkpt><trkpt lat="43.7942624" lon="11.5025502"><ele>459.0</ele><time>2026-04-26T08:21:36.656Z</time></trkpt><trkpt lat="43.7943363" lon="11.5026508"><ele>459.0</ele><time>2026-04-26T08:21:37.64Z</time></trkpt><trkpt lat="43.7944123" lon="11.5027518"><ele>459.0</ele><time>2026-04-26T08:21:38.64Z</time></trkpt><trkpt lat="43.7944915" lon="11.5028513"><ele>459.0</ele><time>2026-04-26T08:21:39.632Z</time></trkpt><trkpt lat="43.7945671" lon="11.5029602"><ele>459.0</ele><time>2026-04-26T08:21:40.632Z</time></trkpt><trkpt lat="43.79464" lon="11.5030761"><ele>461.2</ele><time>2026-04-26T08:21:41.64Z</time></trkpt><trkpt lat="43.7947102" lon="11.5031993"><ele>463.4</ele><time>2026-04-26T08:21:42.651Z</time></trkpt><trkpt lat="43.7947787" lon="11.5033242"><ele>465.6</ele><time>2026-04-26T08:21:43.644Z</time></trkpt><trkpt lat="43.7948449" lon="11.5034515"><ele>467.8</ele><time>2026-04-26T08:21:44.648Z</time></trkpt><trkpt lat="43.7949117" lon="11.503572"><ele>470.0</ele><time>2026-04-26T08:21:45.614Z</time></trkpt><trkpt lat="43.7949878" lon="11.5036777"><ele>470.8333333333333</ele><time>2026-04-26T08:21:46.6Z</time></trkpt><trkpt lat="43.7950731" lon="11.5037605"><ele>471.66666666666663</ele><time>2026-04-26T08:21:47.614Z</time></trkpt><trkpt lat="43.7951627" lon="11.5038236"><ele>472.5</ele><time>2026-04-26T08:21:48.613Z</time></trkpt><trkpt lat="43.7952404" lon="11.5038752"><ele>473.33333333333337</ele><time>2026-04-26T08:21:49.626Z</time></trkpt><trkpt lat="43.7953079" lon="11.5039184"><ele>474.1666666666667</ele><time>2026-04-26T08:21:50.657Z</time></trkpt><trkpt lat="43.7953709" lon="11.5039626"><ele>475.0</ele><time>2026-04-26T08:21:51.642Z</time></trkpt><trkpt lat="43.7954551" lon="11.5040432"><ele>475.00000000000006</ele><time>2026-04-26T08:21:53.618Z</time></trkpt><trkpt lat="43.7955014" lon="11.5041158"><ele>475.0</ele><time>2026-04-26T08:21:55.608Z</time></trkpt><trkpt lat="43.7955372" lon="11.5042193"><ele>475.0</ele><time>2026-04-26T08:21:57.611Z</time></trkpt><trkpt lat="43.7955276" lon="11.504321"><ele>475.0</ele><time>2026-04-26T08:22:00.633Z</time></trkpt><trkpt lat="43.7954994" lon="11.5044068"><ele>475.00000000000006</ele><time>2026-04-26T08:22:16.626Z</time></trkpt><trkpt lat="43.7954495" lon="11.5045154"><ele>475.0</ele><time>2026-04-26T08:22:19.639Z</time></trkpt><trkpt lat="43.7954095" lon="11.5046284"><ele>475.00000000000006</ele><time>2026-04-26T08:22:22.624Z</time></trkpt><trkpt lat="43.7953888" lon="11.5047351"><ele>475.0</ele><time>2026-04-26T08:22:24.617Z</time></trkpt><trkpt lat="43.7953738" lon="11.5048321"><ele>475.0</ele><time>2026-04-26T08:22:26.625Z</time></trkpt><trkpt lat="43.7953542" lon="11.5049412"><ele>475.0</ele><time>2026-04-26T08:22:28.622Z</time></trkpt><trkpt lat="43.7953308" lon="11.5050466"><ele>475.00000000000006</ele><time>2026-04-26T08:22:30.621Z</time></trkpt><trkpt lat="43.7953071" lon="11.5051566"><ele>475.0</ele><time>2026-04-26T08:22:32.624Z</time></trkpt><trkpt lat="43.7952709" lon="11.5052779"><ele>475.6</ele><time>2026-04-26T08:22:34.617Z</time></trkpt><trkpt lat="43.7952485" lon="11.5054187"><ele>476.2</ele><time>2026-04-26T08:22:36.63Z</time></trkpt><trkpt lat="43.7952174" lon="11.5055693"><ele>476.79999999999995</ele><time>2026-04-26T08:22:38.63Z</time></trkpt><trkpt lat="43.7951938" lon="11.5056552"><ele>477.4</ele><time>2026-04-26T08:22:39.62Z</time></trkpt><trkpt lat="43.795158" lon="11.5058201"><ele>478.0</ele><time>2026-04-26T08:22:41.604Z</time></trkpt><trkpt lat="43.7951237" lon="11.5059773"><ele>479.4</ele><time>2026-04-26T08:22:43.618Z</time></trkpt><trkpt lat="43.7950919" lon="11.5061144"><ele>480.79999999999995</ele><time>2026-04-26T08:22:45.634Z</time></trkpt><trkpt lat="43.7950615" lon="11.506246"><ele>482.2</ele><time>2026-04-26T08:22:47.629Z</time></trkpt><trkpt lat="43.7950298" lon="11.5063744"><ele>483.6</ele><time>2026-04-26T08:22:49.636Z</time></trkpt><trkpt lat="43.7950074" lon="11.5065086"><ele>485.0</ele><time>2026-04-26T08:22:51.639Z</time></trkpt><trkpt lat="43.7949814" lon="11.5066297"><ele>486.28571428571433</ele><time>2026-04-26T08:22:53.622Z</time></trkpt><trkpt lat="43.7949626" lon="11.506727"><ele>487.57142857142856</ele><time>2026-04-26T08:22:55.629Z</time></trkpt><trkpt lat="43.7949306" lon="11.5068235"><ele>488.8571428571429</ele><time>2026-04-26T08:22:58.605Z</time></trkpt><trkpt lat="43.794881" lon="11.5068773"><ele>490.14285714285717</ele><time>2026-04-26T08:23:00.643Z</time></trkpt><trkpt lat="43.7948488" lon="11.5069767"><ele>491.42857142857144</ele><time>2026-04-26T08:23:02.627Z</time></trkpt><trkpt lat="43.7948418" lon="11.5070845"><ele>492.7142857142857</ele><time>2026-04-26T08:23:04.618Z</time></trkpt><trkpt lat="43.7948241" lon="11.5071759"><ele>494.0</ele><time>2026-04-26T08:23:06.625Z</time></trkpt><trkpt lat="43.794827" lon="11.5072915"><ele>495.14285714285717</ele><time>2026-04-26T08:23:10.629Z</time></trkpt><trkpt lat="43.7948332" lon="11.507388"><ele>496.2857142857142</ele><time>2026-04-26T08:23:12.634Z</time></trkpt><trkpt lat="43.7948209" lon="11.5074921"><ele>497.4285714285714</ele><time>2026-04-26T08:23:14.626Z</time></trkpt><trkpt lat="43.7948202" lon="11.5076262"><ele>498.57142857142856</ele><time>2026-04-26T08:23:17.619Z</time></trkpt><trkpt lat="43.7948241" lon="11.5077298"><ele>499.71428571428567</ele><time>2026-04-26T08:23:19.648Z</time></trkpt><trkpt lat="43.7948309" lon="11.5078236"><ele>500.8571428571428</ele><time>2026-04-26T08:23:22.637Z</time></trkpt><trkpt lat="43.7948019" lon="11.5077455"><ele>501.99999999999994</ele><time>2026-04-26T08:28:53.647Z</time></trkpt><trkpt lat="43.7948508" lon="11.507805"><ele>501.99999999999994</ele><time>2026-04-26T08:30:21.594Z</time></trkpt><trkpt lat="43.7948068" lon="11.5078754"><ele>502.0</ele><time>2026-04-26T08:58:10.567Z</time></trkpt><trkpt lat="43.7947966" lon="11.5079672"><ele>501.99999999999994</ele><time>2026-04-26T08:58:14.572Z</time></trkpt><trkpt lat="43.7947831" lon="11.5080721"><ele>501.99999999999994</ele><time>2026-04-26T08:58:18.578Z</time></trkpt><trkpt lat="43.7948191" lon="11.5081573"><ele>502.0</ele><time>2026-04-26T08:58:22.57Z</time></trkpt><trkpt lat="43.7948662" lon="11.5082463"><ele>501.99999999999994</ele><time>2026-04-26T08:58:26.549Z</time></trkpt><trkpt lat="43.7948989" lon="11.5083277"><ele>501.99999999999994</ele><time>2026-04-26T08:58:30.565Z</time></trkpt><trkpt lat="43.7949264" lon="11.5084152"><ele>503.8571428571428</ele><time>2026-04-26T08:58:34.557Z</time></trkpt><trkpt lat="43.7949542" lon="11.5084987"><ele>505.71428571428567</ele><time>2026-04-26T08:58:38.567Z</time></trkpt><trkpt lat="43.7949646" lon="11.5085937"><ele>507.57142857142856</ele><time>2026-04-26T08:59:26.582Z</time></trkpt><trkpt lat="43.7949898" lon="11.508675"><ele>509.4285714285714</ele><time>2026-04-26T08:59:30.56Z</time></trkpt><trkpt lat="43.7949769" lon="11.5087738"><ele>511.2857142857142</ele><time>2026-04-26T08:59:35.557Z</time></trkpt><trkpt lat="43.7949622" lon="11.5088706"><ele>513.1428571428571</ele><time>2026-04-26T08:59:39.569Z</time></trkpt><trkpt lat="43.7949602" lon="11.50896"><ele>515.0</ele><time>2026-04-26T08:59:43.564Z</time></trkpt><trkpt lat="43.7949815" lon="11.5090604"><ele>517.3333333333333</ele><time>2026-04-26T08:59:48.591Z</time></trkpt><trkpt lat="43.7949796" lon="11.5091668"><ele>519.6666666666666</ele><time>2026-04-26T08:59:54.586Z</time></trkpt><trkpt lat="43.7949461" lon="11.509256"><ele>522.0</ele><time>2026-04-26T08:59:59.578Z</time></trkpt><trkpt lat="43.7948686" lon="11.509344"><ele>524.3333333333334</ele><time>2026-04-26T09:00:54.556Z</time></trkpt><trkpt lat="43.7948299" lon="11.5094393"><ele>526.6666666666667</ele><time>2026-04-26T09:00:59.602Z</time></trkpt><trkpt lat="43.7948134" lon="11.5095428"><ele>529.0</ele><time>2026-04-26T09:06:24.553Z</time></trkpt><trkpt lat="43.7948191" lon="11.5096516"><ele>529.7142857142858</ele><time>2026-04-26T09:06:28.563Z</time></trkpt><trkpt lat="43.7948269" lon="11.5097407"><ele>530.4285714285714</ele><time>2026-04-26T09:06:31.564Z</time></trkpt><trkpt lat="43.7948441" lon="11.5098363"><ele>531.1428571428571</ele><time>2026-04-26T09:06:34.564Z</time></trkpt><trkpt lat="43.7948487" lon="11.5099335"><ele>531.8571428571429</ele><time>2026-04-26T09:06:38.574Z</time></trkpt><trkpt lat="43.7948417" lon="11.5100251"><ele>532.5714285714286</ele><time>2026-04-26T09:06:42.576Z</time></trkpt><trkpt lat="43.7948082" lon="11.5101142"><ele>533.2857142857143</ele><time>2026-04-26T09:08:53.568Z</time></trkpt><trkpt lat="43.7947962" lon="11.5102166"><ele>534.0</ele><time>2026-04-26T09:08:58.558Z</time></trkpt><trkpt lat="43.7947791" lon="11.510305"><ele>534.5714285714287</ele><time>2026-04-26T09:09:02.575Z</time></trkpt><trkpt lat="43.7947598" lon="11.51041"><ele>535.1428571428571</ele><time>2026-04-26T09:09:06.567Z</time></trkpt><trkpt lat="43.794722" lon="11.5104854"><ele>535.7142857142858</ele><time>2026-04-26T09:09:09.584Z</time></trkpt><trkpt lat="43.7946939" lon="11.5105688"><ele>536.2857142857143</ele><time>2026-04-26T09:09:12.561Z</time></trkpt><trkpt lat="43.7946635" lon="11.5106798"><ele>536.8571428571429</ele><time>2026-04-26T09:09:16.557Z</time></trkpt><trkpt lat="43.7946546" lon="11.5107784"><ele>537.4285714285714</ele><time>2026-04-26T09:09:20.554Z</time></trkpt><trkpt lat="43.7946338" lon="11.5108608"><ele>538.0</ele><time>2026-04-26T09:09:24.581Z</time></trkpt><trkpt lat="43.7946144" lon="11.5109466"><ele>538.0</ele><time>2026-04-26T09:09:28.568Z</time></trkpt><trkpt lat="43.7946072" lon="11.5110485"><ele>538.0</ele><time>2026-04-26T09:09:32.56Z</time></trkpt><trkpt lat="43.7945744" lon="11.5111332"><ele>538.0</ele><time>2026-04-26T09:09:36.562Z</time></trkpt><trkpt lat="43.794544" lon="11.5112287"><ele>538.0</ele><time>2026-04-26T09:09:40.594Z</time></trkpt><trkpt lat="43.7945027" lon="11.5113003"><ele>538.0</ele><time>2026-04-26T09:09:43.57Z</time></trkpt><trkpt lat="43.7944627" lon="11.5113767"><ele>538.0</ele><time>2026-04-26T09:09:47.568Z</time></trkpt><trkpt lat="43.7943953" lon="11.5114451"><ele>538.0</ele><time>2026-04-26T09:09:51.556Z</time></trkpt><trkpt lat="43.7943426" lon="11.5115128"><ele>540.6666666666667</ele><time>2026-04-26T09:09:54.559Z</time></trkpt><trkpt lat="43.7943026" lon="11.5116133"><ele>543.3333333333334</ele><time>2026-04-26T09:09:57.606Z</time></trkpt><trkpt lat="43.7942807" lon="11.5117068"><ele>546.0</ele><time>2026-04-26T09:10:00.615Z</time></trkpt><trkpt lat="43.7942558" lon="11.5118093"><ele>548.6666666666666</ele><time>2026-04-26T09:10:04.577Z</time></trkpt><trkpt lat="43.7942362" lon="11.5118989"><ele>551.3333333333333</ele><time>2026-04-26T09:10:07.585Z</time></trkpt><trkpt lat="43.7942002" lon="11.5119992"><ele>554.0</ele><time>2026-04-26T09:10:11.564Z</time></trkpt><trkpt lat="43.7941538" lon="11.512087"><ele>555.2857142857142</ele><time>2026-04-26T09:10:15.556Z</time></trkpt><trkpt lat="43.7941079" lon="11.5121677"><ele>556.5714285714286</ele><time>2026-04-26T09:10:19.565Z</time></trkpt><trkpt lat="43.7940667" lon="11.5122416"><ele>557.8571428571429</ele><time>2026-04-26T09:10:23.563Z</time></trkpt><trkpt lat="43.7940139" lon="11.512304"><ele>559.1428571428571</ele><time>2026-04-26T09:10:27.588Z</time></trkpt><trkpt lat="43.7939662" lon="11.5123765"><ele>560.4285714285714</ele><time>2026-04-26T09:10:42.562Z</time></trkpt><trkpt lat="43.7939033" lon="11.5124029"><ele>561.7142857142857</ele><time>2026-04-26T09:10:47.565Z</time></trkpt><trkpt lat="43.7938404" lon="11.5124268"><ele>563.0</ele><time>2026-04-26T09:10:50.566Z</time></trkpt><trkpt lat="43.7937772" lon="11.5124081"><ele>563.0</ele><time>2026-04-26T09:13:20.555Z</time></trkpt><trkpt lat="43.7937014" lon="11.5124063"><ele>563.0</ele><time>2026-04-26T09:13:25.542Z</time></trkpt><trkpt lat="43.7936285" lon="11.5124225"><ele>563.0</ele><time>2026-04-26T09:13:29.545Z</time></trkpt><trkpt lat="43.7935627" lon="11.5124713"><ele>563.0</ele><time>2026-04-26T09:13:33.551Z</time></trkpt><trkpt lat="43.7934991" lon="11.5124965"><ele>563.0</ele><time>2026-04-26T09:13:38.572Z</time></trkpt><trkpt lat="43.7934338" lon="11.5124985"><ele>563.0</ele><time>2026-04-26T09:13:43.546Z</time></trkpt><trkpt lat="43.7933703" lon="11.5125439"><ele>563.0</ele><time>2026-04-26T09:13:47.566Z</time></trkpt><trkpt lat="43.7933087" lon="11.5125841"><ele>563.0</ele><time>2026-04-26T09:13:50.544Z</time></trkpt><trkpt lat="43.7932381" lon="11.5126283"><ele>563.0</ele><time>2026-04-26T09:13:54.549Z</time></trkpt><trkpt lat="43.7932166" lon="11.5127171"><ele>563.0</ele><time>2026-04-26T09:13:59.541Z</time></trkpt><trkpt lat="43.7932887" lon="11.5127241"><ele>563.0</ele><time>2026-04-26T09:14:08.542Z</time></trkpt><trkpt lat="43.793376" lon="11.5127119"><ele>563.0</ele><time>2026-04-26T09:14:12.575Z</time></trkpt><trkpt lat="43.7934584" lon="11.5127194"><ele>563.0</ele><time>2026-04-26T09:14:15.549Z</time></trkpt><trkpt lat="43.7935121" lon="11.5127658"><ele>563.0</ele><time>2026-04-26T09:14:18.542Z</time></trkpt><trkpt lat="43.7935081" lon="11.5128587"><ele>563.0</ele><time>2026-04-26T09:14:21.547Z</time></trkpt><trkpt lat="43.793468" lon="11.5129433"><ele>563.0</ele><time>2026-04-26T09:14:24.553Z</time></trkpt><trkpt lat="43.7934351" lon="11.5130178"><ele>563.0</ele><time>2026-04-26T09:14:27.55Z</time></trkpt><trkpt lat="43.7933797" lon="11.5130976"><ele>563.0</ele><time>2026-04-26T09:14:31.56Z</time></trkpt><trkpt lat="43.7933778" lon="11.513187"><ele>563.0</ele><time>2026-04-26T09:14:34.548Z</time></trkpt><trkpt lat="43.79339" lon="11.5131012"><ele>563.0</ele><time>2026-04-26T09:21:08.58Z</time></trkpt><trkpt lat="43.7933856" lon="11.5131983"><ele>565.8333333333333</ele><time>2026-04-26T09:23:24.536Z</time></trkpt><trkpt lat="43.7933859" lon="11.513311"><ele>568.6666666666666</ele><time>2026-04-26T09:23:28.544Z</time></trkpt><trkpt lat="43.7933883" lon="11.5134183"><ele>571.5</ele><time>2026-04-26T09:23:32.543Z</time></trkpt><trkpt lat="43.7933796" lon="11.5135256"><ele>574.3333333333334</ele><time>2026-04-26T09:23:36.543Z</time></trkpt><trkpt lat="43.7933607" lon="11.5136272"><ele>577.1666666666667</ele><time>2026-04-26T09:23:39.542Z</time></trkpt><trkpt lat="43.7933574" lon="11.5137147"><ele>580.0</ele><time>2026-04-26T09:23:42.559Z</time></trkpt><trkpt lat="43.7933377" lon="11.5138171"><ele>582.0</ele><time>2026-04-26T09:23:47.553Z</time></trkpt><trkpt lat="43.7933382" lon="11.5139094"><ele>584.0</ele><time>2026-04-26T09:23:51.537Z</time></trkpt><trkpt lat="43.793369" lon="11.5139882"><ele>586.0</ele><time>2026-04-26T09:23:55.553Z</time></trkpt><trkpt lat="43.7933798" lon="11.5140894"><ele>588.0</ele><time>2026-04-26T09:23:59.551Z</time></trkpt><trkpt lat="43.7933966" lon="11.5142016"><ele>590.0</ele><time>2026-04-26T09:24:03.549Z</time></trkpt><trkpt lat="43.7934133" lon="11.5143109"><ele>592.0</ele><time>2026-04-26T09:24:07.543Z</time></trkpt><trkpt lat="43.7934443" lon="11.5144124"><ele>594.0</ele><time>2026-04-26T09:24:11.537Z</time></trkpt><trkpt lat="43.7934648" lon="11.5144966"><ele>595.7142857142858</ele><time>2026-04-26T09:24:15.541Z</time></trkpt><trkpt lat="43.7934521" lon="11.5145897"><ele>597.4285714285714</ele><time>2026-04-26T09:24:20.579Z</time></trkpt><trkpt lat="43.7934146" lon="11.514686"><ele>599.1428571428571</ele><time>2026-04-26T09:24:24.551Z</time></trkpt><trkpt lat="43.7933831" lon="11.5147861"><ele>600.8571428571429</ele><time>2026-04-26T09:24:28.543Z</time></trkpt><trkpt lat="43.7933758" lon="11.5148752"><ele>602.5714285714286</ele><time>2026-04-26T09:24:32.543Z</time></trkpt><trkpt lat="43.7933305" lon="11.5149536"><ele>604.2857142857143</ele><time>2026-04-26T09:24:36.535Z</time></trkpt><trkpt lat="43.7932954" lon="11.5150356"><ele>606.0</ele><time>2026-04-26T09:24:40.55Z</time></trkpt><trkpt lat="43.7932964" lon="11.515125"><ele>606.0</ele><time>2026-04-26T09:24:43.552Z</time></trkpt><trkpt lat="43.7933128" lon="11.5152231"><ele>606.0</ele><time>2026-04-26T09:24:46.541Z</time></trkpt><trkpt lat="43.7933514" lon="11.5153223"><ele>606.0</ele><time>2026-04-26T09:24:50.539Z</time></trkpt><trkpt lat="43.7934041" lon="11.5153908"><ele>606.0</ele><time>2026-04-26T09:24:53.539Z</time></trkpt><trkpt lat="43.793452" lon="11.5154635"><ele>606.0</ele><time>2026-04-26T09:24:56.547Z</time></trkpt><trkpt lat="43.7934914" lon="11.5155381"><ele>606.0</ele><time>2026-04-26T09:25:00.538Z</time></trkpt><trkpt lat="43.7935627" lon="11.5155803"><ele>606.0</ele><time>2026-04-26T09:25:04.544Z</time></trkpt><trkpt lat="43.793626" lon="11.5155857"><ele>605.6666666666666</ele><time>2026-04-26T09:25:07.536Z</time></trkpt><trkpt lat="43.7936925" lon="11.5156405"><ele>605.3333333333334</ele><time>2026-04-26T09:25:11.54Z</time></trkpt><trkpt lat="43.7937614" lon="11.5156914"><ele>605.0</ele><time>2026-04-26T09:25:15.55Z</time></trkpt><trkpt lat="43.7938128" lon="11.5157844"><ele>604.6666666666667</ele><time>2026-04-26T09:25:18.546Z</time></trkpt><trkpt lat="43.7938421" lon="11.5159034"><ele>604.3333333333334</ele><time>2026-04-26T09:25:21.538Z</time></trkpt><trkpt lat="43.7938727" lon="11.5159947"><ele>604.0</ele><time>2026-04-26T09:25:24.547Z</time></trkpt><trkpt lat="43.7939183" lon="11.5160906"><ele>604.0000000000001</ele><time>2026-04-26T09:25:27.541Z</time></trkpt><trkpt lat="43.7939673" lon="11.5161881"><ele>604.0</ele><time>2026-04-26T09:25:30.545Z</time></trkpt><trkpt lat="43.7939999" lon="11.5162732"><ele>604.0</ele><time>2026-04-26T09:25:33.547Z</time></trkpt><trkpt lat="43.7940393" lon="11.5163775"><ele>604.0</ele><time>2026-04-26T09:25:36.537Z</time></trkpt><trkpt lat="43.7940729" lon="11.5164539"><ele>604.0</ele><time>2026-04-26T09:25:39.548Z</time></trkpt><trkpt lat="43.7940989" lon="11.5165428"><ele>604.0000000000001</ele><time>2026-04-26T09:25:42.544Z</time></trkpt><trkpt lat="43.7941309" lon="11.5166205"><ele>604.0</ele><time>2026-04-26T09:25:45.537Z</time></trkpt><trkpt lat="43.794179" lon="11.5167174"><ele>606.5</ele><time>2026-04-26T09:25:49.534Z</time></trkpt><trkpt lat="43.7942253" lon="11.5168007"><ele>609.0</ele><time>2026-04-26T09:25:53.539Z</time></trkpt><trkpt lat="43.7942554" lon="11.5168934"><ele>611.5</ele><time>2026-04-26T09:25:59.531Z</time></trkpt><trkpt lat="43.7942648" lon="11.5170024"><ele>614.0</ele><time>2026-04-26T09:26:03.537Z</time></trkpt><trkpt lat="43.7942688" lon="11.5171009"><ele>616.5</ele><time>2026-04-26T09:26:06.538Z</time></trkpt><trkpt lat="43.7942735" lon="11.5172215"><ele>619.0</ele><time>2026-04-26T09:26:09.539Z</time></trkpt><trkpt lat="43.794306" lon="11.5173212"><ele>618.3333333333334</ele><time>2026-04-26T09:26:12.537Z</time></trkpt><trkpt lat="43.7943517" lon="11.5174029"><ele>617.6666666666667</ele><time>2026-04-26T09:26:15.545Z</time></trkpt><trkpt lat="43.7943872" lon="11.5174853"><ele>617.0</ele><time>2026-04-26T09:26:18.535Z</time></trkpt><trkpt lat="43.7944105" lon="11.5175844"><ele>616.3333333333334</ele><time>2026-04-26T09:26:21.537Z</time></trkpt><trkpt lat="43.7944325" lon="11.5176838"><ele>615.6666666666666</ele><time>2026-04-26T09:26:25.535Z</time></trkpt><trkpt lat="43.7944367" lon="11.5178003"><ele>615.0</ele><time>2026-04-26T09:26:28.534Z</time></trkpt><trkpt lat="43.7944328" lon="11.5179201"><ele>615.0</ele><time>2026-04-26T09:26:31.548Z</time></trkpt><trkpt lat="43.7944492" lon="11.5180102"><ele>615.0</ele><time>2026-04-26T09:26:33.541Z</time></trkpt><trkpt lat="43.7945137" lon="11.518083"><ele>615.0</ele><time>2026-04-26T09:26:36.531Z</time></trkpt><trkpt lat="43.7946081" lon="11.5181143"><ele>615.0</ele><time>2026-04-26T09:26:39.532Z</time></trkpt><trkpt lat="43.7946913" lon="11.5181927"><ele>615.0</ele><time>2026-04-26T09:26:42.543Z</time></trkpt><trkpt lat="43.7947376" lon="11.5182685"><ele>615.0</ele><time>2026-04-26T09:26:44.536Z</time></trkpt><trkpt lat="43.7947776" lon="11.5183735"><ele>615.0</ele><time>2026-04-26T09:26:47.551Z</time></trkpt><trkpt lat="43.7947905" lon="11.5184838"><ele>615.0</ele><time>2026-04-26T09:26:50.529Z</time></trkpt><trkpt lat="43.7948187" lon="11.518572"><ele>615.0</ele><time>2026-04-26T09:26:53.532Z</time></trkpt><trkpt lat="43.7948873" lon="11.5186301"><ele>615.0</ele><time>2026-04-26T09:26:57.54Z</time></trkpt><trkpt lat="43.794934" lon="11.5187182"><ele>615.0</ele><time>2026-04-26T09:27:01.537Z</time></trkpt><trkpt lat="43.794989" lon="11.5187989"><ele>615.0</ele><time>2026-04-26T09:27:04.533Z</time></trkpt><trkpt lat="43.7950313" lon="11.5189057"><ele>614.8333333333334</ele><time>2026-04-26T09:27:07.54Z</time></trkpt><trkpt lat="43.7950764" lon="11.5189911"><ele>614.6666666666666</ele><time>2026-04-26T09:27:10.541Z</time></trkpt><trkpt lat="43.7951269" lon="11.5190575"><ele>614.5</ele><time>2026-04-26T09:27:13.54Z</time></trkpt><trkpt lat="43.7951827" lon="11.5191328"><ele>614.3333333333333</ele><time>2026-04-26T09:27:17.531Z</time></trkpt><trkpt lat="43.7952347" lon="11.5192088"><ele>614.1666666666666</ele><time>2026-04-26T09:27:21.535Z</time></trkpt><trkpt lat="43.7952772" lon="11.5193061"><ele>614.0</ele><time>2026-04-26T09:27:25.564Z</time></trkpt><trkpt lat="43.7953074" lon="11.5194119"><ele>614.0</ele><time>2026-04-26T09:27:29.523Z</time></trkpt><trkpt lat="43.7953217" lon="11.5194985"><ele>614.0</ele><time>2026-04-26T09:27:32.542Z</time></trkpt><trkpt lat="43.7953539" lon="11.5195943"><ele>614.0</ele><time>2026-04-26T09:27:36.533Z</time></trkpt><trkpt lat="43.7954171" lon="11.519658"><ele>614.0</ele><time>2026-04-26T09:27:40.536Z</time></trkpt><trkpt lat="43.7955011" lon="11.5196455"><ele>614.0</ele><time>2026-04-26T09:27:44.552Z</time></trkpt><trkpt lat="43.7955757" lon="11.5195965"><ele>614.0</ele><time>2026-04-26T09:27:47.537Z</time></trkpt><trkpt lat="43.7956441" lon="11.5195932"><ele>616.5</ele><time>2026-04-26T09:27:49.532Z</time></trkpt><trkpt lat="43.7957196" lon="11.5196237"><ele>619.0</ele><time>2026-04-26T09:27:52.553Z</time></trkpt><trkpt lat="43.7957631" lon="11.5197195"><ele>621.5</ele><time>2026-04-26T09:27:55.538Z</time></trkpt><trkpt lat="43.7958178" lon="11.5197945"><ele>624.0</ele><time>2026-04-26T09:27:58.551Z</time></trkpt><trkpt lat="43.79587" lon="11.5198555"><ele>626.5</ele><time>2026-04-26T09:28:01.537Z</time></trkpt><trkpt lat="43.7959319" lon="11.5199055"><ele>629.0</ele><time>2026-04-26T09:28:04.541Z</time></trkpt><trkpt lat="43.7960093" lon="11.5199082"><ele>629.0</ele><time>2026-04-26T09:28:07.54Z</time></trkpt><trkpt lat="43.7960731" lon="11.5198978"><ele>629.0</ele><time>2026-04-26T09:28:10.534Z</time></trkpt><trkpt lat="43.79616" lon="11.5198768"><ele>629.0</ele><time>2026-04-26T09:28:14.533Z</time></trkpt><trkpt lat="43.7962325" lon="11.5198486"><ele>629.0</ele><time>2026-04-26T09:28:18.545Z</time></trkpt><trkpt lat="43.7963001" lon="11.5198178"><ele>629.0</ele><time>2026-04-26T09:28:22.539Z</time></trkpt><trkpt lat="43.7963642" lon="11.5198239"><ele>629.0</ele><time>2026-04-26T09:28:25.544Z</time></trkpt><trkpt lat="43.7964359" lon="11.5198428"><ele>629.0</ele><time>2026-04-26T09:28:28.539Z</time></trkpt><trkpt lat="43.7964971" lon="11.5198835"><ele>629.0</ele><time>2026-04-26T09:28:31.541Z</time></trkpt><trkpt lat="43.7965588" lon="11.5199172"><ele>629.0</ele><time>2026-04-26T09:28:34.539Z</time></trkpt><trkpt lat="43.7966166" lon="11.5199529"><ele>629.0</ele><time>2026-04-26T09:28:37.544Z</time></trkpt><trkpt lat="43.7966876" lon="11.520011"><ele>629.0</ele><time>2026-04-26T09:28:40.539Z</time></trkpt><trkpt lat="43.7967529" lon="11.5200739"><ele>629.0</ele><time>2026-04-26T09:28:43.541Z</time></trkpt><trkpt lat="43.796824" lon="11.5201312"><ele>629.0</ele><time>2026-04-26T09:28:47.545Z</time></trkpt><trkpt lat="43.7968777" lon="11.5201885"><ele>629.0</ele><time>2026-04-26T09:28:50.548Z</time></trkpt><trkpt lat="43.7969472" lon="11.5202461"><ele>629.6666666666666</ele><time>2026-04-26T09:28:53.556Z</time></trkpt><trkpt lat="43.7970131" lon="11.5202813"><ele>630.3333333333333</ele><time>2026-04-26T09:28:56.535Z</time></trkpt><trkpt lat="43.797074" lon="11.5203466"><ele>631.0</ele><time>2026-04-26T09:28:59.544Z</time></trkpt><trkpt lat="43.7971129" lon="11.5204327"><ele>631.6666666666666</ele><time>2026-04-26T09:29:02.546Z</time></trkpt><trkpt lat="43.797157" lon="11.5205342"><ele>632.3333333333334</ele><time>2026-04-26T09:29:05.536Z</time></trkpt><trkpt lat="43.7972049" lon="11.5206244"><ele>633.0</ele><time>2026-04-26T09:29:08.545Z</time></trkpt><trkpt lat="43.7972423" lon="11.520733"><ele>633.0</ele><time>2026-04-26T09:29:11.544Z</time></trkpt><trkpt lat="43.7972553" lon="11.5208392"><ele>633.0</ele><time>2026-04-26T09:29:14.547Z</time></trkpt><trkpt lat="43.7972618" lon="11.5209502"><ele>633.0</ele><time>2026-04-26T09:29:17.541Z</time></trkpt><trkpt lat="43.7972785" lon="11.5210735"><ele>633.0</ele><time>2026-04-26T09:29:20.558Z</time></trkpt><trkpt lat="43.7972997" lon="11.5211585"><ele>633.0</ele><time>2026-04-26T09:29:23.534Z</time></trkpt><trkpt lat="43.7973228" lon="11.5212519"><ele>633.0</ele><time>2026-04-26T09:29:26.538Z</time></trkpt><trkpt lat="43.7973459" lon="11.5213537"><ele>634.1428571428571</ele><time>2026-04-26T09:29:29.543Z</time></trkpt><trkpt lat="43.7974176" lon="11.5214158"><ele>635.2857142857143</ele><time>2026-04-26T09:29:32.534Z</time></trkpt><trkpt lat="43.7974735" lon="11.5214826"><ele>636.4285714285714</ele><time>2026-04-26T09:29:35.536Z</time></trkpt><trkpt lat="43.7975305" lon="11.5215443"><ele>637.5714285714286</ele><time>2026-04-26T09:29:38.554Z</time></trkpt><trkpt lat="43.7975815" lon="11.521611"><ele>638.7142857142857</ele><time>2026-04-26T09:29:41.538Z</time></trkpt><trkpt lat="43.7976463" lon="11.5216804"><ele>639.8571428571429</ele><time>2026-04-26T09:29:44.547Z</time></trkpt><trkpt lat="43.797711" lon="11.5216842"><ele>641.0</ele><time>2026-04-26T09:29:47.537Z</time></trkpt><trkpt lat="43.7977726" lon="11.5216656"><ele>641.0</ele><time>2026-04-26T09:29:49.535Z</time></trkpt><trkpt lat="43.7978415" lon="11.5216323"><ele>641.0</ele><time>2026-04-26T09:29:51.539Z</time></trkpt><trkpt lat="43.7979104" lon="11.5215943"><ele>641.0</ele><time>2026-04-26T09:29:53.551Z</time></trkpt><trkpt lat="43.7979719" lon="11.5215568"><ele>641.0</ele><time>2026-04-26T09:29:55.538Z</time></trkpt><trkpt lat="43.798033" lon="11.5215202"><ele>641.0</ele><time>2026-04-26T09:29:57.538Z</time></trkpt><trkpt lat="43.7981071" lon="11.5215025"><ele>641.0</ele><time>2026-04-26T09:30:00.542Z</time></trkpt><trkpt lat="43.7981773" lon="11.5214961"><ele>641.0</ele><time>2026-04-26T09:30:03.545Z</time></trkpt><trkpt lat="43.7982608" lon="11.521525"><ele>641.0</ele><time>2026-04-26T09:30:06.541Z</time></trkpt><trkpt lat="43.7983299" lon="11.5215469"><ele>641.0</ele><time>2026-04-26T09:30:08.546Z</time></trkpt><trkpt lat="43.7983921" lon="11.5216021"><ele>641.0</ele><time>2026-04-26T09:30:10.537Z</time></trkpt><trkpt lat="43.7984607" lon="11.5216908"><ele>641.0</ele><time>2026-04-26T09:30:13.541Z</time></trkpt><trkpt lat="43.7985168" lon="11.5217416"><ele>641.0</ele><time>2026-04-26T09:30:16.538Z</time></trkpt><trkpt lat="43.7985886" lon="11.5217892"><ele>641.0</ele><time>2026-04-26T09:30:19.54Z</time></trkpt><trkpt lat="43.7986354" lon="11.5218821"><ele>639.6666666666666</ele><time>2026-04-26T09:30:22.542Z</time></trkpt><trkpt lat="43.7986879" lon="11.5219596"><ele>638.3333333333333</ele><time>2026-04-26T09:30:25.546Z</time></trkpt><trkpt lat="43.7987514" lon="11.5220119"><ele>637.0</ele><time>2026-04-26T09:30:28.538Z</time></trkpt><trkpt lat="43.7988232" lon="11.5220521"><ele>635.6666666666666</ele><time>2026-04-26T09:30:31.537Z</time></trkpt><trkpt lat="43.7988658" lon="11.5221248"><ele>634.3333333333334</ele><time>2026-04-26T09:30:34.537Z</time></trkpt><trkpt lat="43.798893" lon="11.522234"><ele>633.0</ele><time>2026-04-26T09:30:37.547Z</time></trkpt><trkpt lat="43.7989156" lon="11.5223418"><ele>633.0</ele><time>2026-04-26T09:30:40.549Z</time></trkpt><trkpt lat="43.7989432" lon="11.5224422"><ele>633.0</ele><time>2026-04-26T09:30:43.557Z</time></trkpt><trkpt lat="43.7989642" lon="11.5225331"><ele>633.0</ele><time>2026-04-26T09:30:46.536Z</time></trkpt><trkpt lat="43.7989788" lon="11.522637"><ele>633.0</ele><time>2026-04-26T09:30:49.535Z</time></trkpt><trkpt lat="43.7990094" lon="11.5227227"><ele>633.0</ele><time>2026-04-26T09:30:52.544Z</time></trkpt><trkpt lat="43.7990533" lon="11.522817"><ele>633.0</ele><time>2026-04-26T09:30:55.543Z</time></trkpt><trkpt lat="43.7990876" lon="11.5229282"><ele>633.6666666666666</ele><time>2026-04-26T09:30:58.542Z</time></trkpt><trkpt lat="43.7990926" lon="11.5230291"><ele>634.3333333333334</ele><time>2026-04-26T09:31:01.544Z</time></trkpt><trkpt lat="43.799095" lon="11.5231517"><ele>635.0</ele><time>2026-04-26T09:31:05.535Z</time></trkpt><trkpt lat="43.7991286" lon="11.5232519"><ele>635.6666666666667</ele><time>2026-04-26T09:31:08.547Z</time></trkpt><trkpt lat="43.7991801" lon="11.5233587"><ele>636.3333333333334</ele><time>2026-04-26T09:31:11.544Z</time></trkpt><trkpt lat="43.7992217" lon="11.5234512"><ele>637.0</ele><time>2026-04-26T09:31:15.536Z</time></trkpt><trkpt lat="43.7992748" lon="11.5235305"><ele>637.0</ele><time>2026-04-26T09:31:19.536Z</time></trkpt><trkpt lat="43.7993212" lon="11.5236301"><ele>637.0</ele><time>2026-04-26T09:31:22.534Z</time></trkpt><trkpt lat="43.7993645" lon="11.5237327"><ele>637.0</ele><time>2026-04-26T09:31:25.551Z</time></trkpt><trkpt lat="43.7994151" lon="11.5238186"><ele>637.0</ele><time>2026-04-26T09:31:28.54Z</time></trkpt><trkpt lat="43.7994404" lon="11.5239144"><ele>637.0</ele><time>2026-04-26T09:31:31.547Z</time></trkpt><trkpt lat="43.7994835" lon="11.5239985"><ele>637.0</ele><time>2026-04-26T09:31:34.545Z</time></trkpt><trkpt lat="43.7995313" lon="11.5240887"><ele>635.7142857142857</ele><time>2026-04-26T09:31:38.547Z</time></trkpt><trkpt lat="43.7995678" lon="11.52417"><ele>634.4285714285714</ele><time>2026-04-26T09:31:41.533Z</time></trkpt><trkpt lat="43.7996297" lon="11.5241977"><ele>633.1428571428571</ele><time>2026-04-26T09:31:44.533Z</time></trkpt><trkpt lat="43.7996925" lon="11.5241691"><ele>631.8571428571429</ele><time>2026-04-26T09:31:46.538Z</time></trkpt><trkpt lat="43.7997681" lon="11.5241343"><ele>630.5714285714286</ele><time>2026-04-26T09:31:49.542Z</time></trkpt><trkpt lat="43.7998299" lon="11.5240638"><ele>629.2857142857142</ele><time>2026-04-26T09:31:52.536Z</time></trkpt><trkpt lat="43.7998854" lon="11.5240111"><ele>628.0</ele><time>2026-04-26T09:31:55.544Z</time></trkpt><trkpt lat="43.7999583" lon="11.524011"><ele>628.0</ele><time>2026-04-26T09:31:59.546Z</time></trkpt><trkpt lat="43.799996" lon="11.5240948"><ele>628.0</ele><time>2026-04-26T09:32:03.535Z</time></trkpt><trkpt lat="43.7999813" lon="11.5242008"><ele>628.0</ele><time>2026-04-26T09:32:06.539Z</time></trkpt><trkpt lat="43.7999988" lon="11.5242978"><ele>628.0</ele><time>2026-04-26T09:32:09.544Z</time></trkpt><trkpt lat="43.8000736" lon="11.5243673"><ele>628.0</ele><time>2026-04-26T09:32:13.563Z</time></trkpt><trkpt lat="43.8001326" lon="11.5244195"><ele>628.0</ele><time>2026-04-26T09:32:16.557Z</time></trkpt><trkpt lat="43.8001994" lon="11.5244672"><ele>626.3333333333334</ele><time>2026-04-26T09:32:19.534Z</time></trkpt><trkpt lat="43.8002402" lon="11.5245429"><ele>624.6666666666667</ele><time>2026-04-26T09:32:22.532Z</time></trkpt><trkpt lat="43.8002746" lon="11.5246499"><ele>623.0</ele><time>2026-04-26T09:32:25.568Z</time></trkpt><trkpt lat="43.8002881" lon="11.5247793"><ele>621.3333333333334</ele><time>2026-04-26T09:32:28.553Z</time></trkpt><trkpt lat="43.8002887" lon="11.5249016"><ele>619.6666666666666</ele><time>2026-04-26T09:32:31.54Z</time></trkpt><trkpt lat="43.8002898" lon="11.5250192"><ele>618.0</ele><time>2026-04-26T09:32:34.539Z</time></trkpt><trkpt lat="43.800283" lon="11.5251249"><ele>618.0</ele><time>2026-04-26T09:32:37.537Z</time></trkpt><trkpt lat="43.8002572" lon="11.5252314"><ele>618.0</ele><time>2026-04-26T09:32:40.54Z</time></trkpt><trkpt lat="43.8002425" lon="11.5253427"><ele>618.0</ele><time>2026-04-26T09:32:43.552Z</time></trkpt><trkpt lat="43.8002397" lon="11.5254686"><ele>618.0</ele><time>2026-04-26T09:32:46.543Z</time></trkpt><trkpt lat="43.8002415" lon="11.525593"><ele>618.0</ele><time>2026-04-26T09:32:49.554Z</time></trkpt><trkpt lat="43.8002565" lon="11.5257215"><ele>618.0</ele><time>2026-04-26T09:32:52.534Z</time></trkpt><trkpt lat="43.8002761" lon="11.5258096"><ele>618.3333333333334</ele><time>2026-04-26T09:32:54.547Z</time></trkpt><trkpt lat="43.8003037" lon="11.5259384"><ele>618.6666666666666</ele><time>2026-04-26T09:32:57.542Z</time></trkpt><trkpt lat="43.8003287" lon="11.5260613"><ele>619.0</ele><time>2026-04-26T09:33:00.546Z</time></trkpt><trkpt lat="43.8003569" lon="11.5261605"><ele>619.3333333333333</ele><time>2026-04-26T09:33:02.549Z</time></trkpt><trkpt lat="43.8003725" lon="11.5262532"><ele>619.6666666666666</ele><time>2026-04-26T09:33:04.557Z</time></trkpt><trkpt lat="43.8003787" lon="11.5263801"><ele>620.0</ele><time>2026-04-26T09:33:07.551Z</time></trkpt><trkpt lat="43.8003635" lon="11.5265062"><ele>620.1428571428571</ele><time>2026-04-26T09:33:10.55Z</time></trkpt><trkpt lat="43.8003397" lon="11.526617"><ele>620.2857142857142</ele><time>2026-04-26T09:33:13.551Z</time></trkpt><trkpt lat="43.8003024" lon="11.526703"><ele>620.4285714285713</ele><time>2026-04-26T09:33:17.545Z</time></trkpt><trkpt lat="43.8002658" lon="11.5267764"><ele>620.5714285714286</ele><time>2026-04-26T09:33:28.55Z</time></trkpt><trkpt lat="43.8001983" lon="11.5267943"><ele>620.7142857142857</ele><time>2026-04-26T09:33:31.541Z</time></trkpt><trkpt lat="43.8001227" lon="11.5268101"><ele>620.8571428571428</ele><time>2026-04-26T09:33:34.546Z</time></trkpt><trkpt lat="43.800057" lon="11.5268449"><ele>621.0</ele><time>2026-04-26T09:33:36.545Z</time></trkpt><trkpt lat="43.7999959" lon="11.5268894"><ele>621.5714285714286</ele><time>2026-04-26T09:33:38.542Z</time></trkpt><trkpt lat="43.7999299" lon="11.5269239"><ele>622.1428571428571</ele><time>2026-04-26T09:33:40.547Z</time></trkpt><trkpt lat="43.7998648" lon="11.5269606"><ele>622.7142857142858</ele><time>2026-04-26T09:33:42.539Z</time></trkpt><trkpt lat="43.7998021" lon="11.5270014"><ele>623.2857142857142</ele><time>2026-04-26T09:33:44.547Z</time></trkpt><trkpt lat="43.7997169" lon="11.5270249"><ele>623.8571428571429</ele><time>2026-04-26T09:33:47.537Z</time></trkpt><trkpt lat="43.7996523" lon="11.5270418"><ele>624.4285714285714</ele><time>2026-04-26T09:33:49.548Z</time></trkpt><trkpt lat="43.7995886" lon="11.5270632"><ele>625.0</ele><time>2026-04-26T09:33:51.547Z</time></trkpt><trkpt lat="43.799509" lon="11.5270709"><ele>625.0</ele><time>2026-04-26T09:33:53.533Z</time></trkpt><trkpt lat="43.7994351" lon="11.527096"><ele>625.0</ele><time>2026-04-26T09:33:55.557Z</time></trkpt><trkpt lat="43.799357" lon="11.527149"><ele>625.0</ele><time>2026-04-26T09:33:57.568Z</time></trkpt><trkpt lat="43.7993048" lon="11.5272156"><ele>625.0</ele><time>2026-04-26T09:33:59.549Z</time></trkpt><trkpt lat="43.7992565" lon="11.5272985"><ele>625.0</ele><time>2026-04-26T09:34:01.544Z</time></trkpt><trkpt lat="43.7992139" lon="11.5273848"><ele>625.0</ele><time>2026-04-26T09:34:03.542Z</time></trkpt><trkpt lat="43.7991708" lon="11.5274817"><ele>625.6666666666667</ele><time>2026-04-26T09:34:05.556Z</time></trkpt><trkpt lat="43.7991319" lon="11.5275694"><ele>626.3333333333334</ele><time>2026-04-26T09:34:07.552Z</time></trkpt><trkpt lat="43.7990757" lon="11.5276164"><ele>627.0</ele><time>2026-04-26T09:34:09.547Z</time></trkpt><trkpt lat="43.799021" lon="11.527678"><ele>627.6666666666666</ele><time>2026-04-26T09:34:11.532Z</time></trkpt><trkpt lat="43.7989604" lon="11.5277382"><ele>628.3333333333333</ele><time>2026-04-26T09:34:13.558Z</time></trkpt><trkpt lat="43.7988957" lon="11.5278209"><ele>629.0</ele><time>2026-04-26T09:34:15.556Z</time></trkpt><trkpt lat="43.7988418" lon="11.527914"><ele>629.0</ele><time>2026-04-26T09:34:17.544Z</time></trkpt><trkpt lat="43.7987938" lon="11.5280193"><ele>629.0</ele><time>2026-04-26T09:34:19.541Z</time></trkpt><trkpt lat="43.7987598" lon="11.5281102"><ele>629.0</ele><time>2026-04-26T09:34:21.537Z</time></trkpt><trkpt lat="43.798725" lon="11.5282206"><ele>629.0</ele><time>2026-04-26T09:34:23.538Z</time></trkpt><trkpt lat="43.7986991" lon="11.5283321"><ele>629.0</ele><time>2026-04-26T09:34:25.549Z</time></trkpt><trkpt lat="43.7986738" lon="11.5284322"><ele>629.0</ele><time>2026-04-26T09:34:27.536Z</time></trkpt><trkpt lat="43.7986584" lon="11.5285344"><ele>629.0</ele><time>2026-04-26T09:34:29.532Z</time></trkpt><trkpt lat="43.7986482" lon="11.5286689"><ele>629.0</ele><time>2026-04-26T09:34:31.56Z</time></trkpt><trkpt lat="43.7986577" lon="11.5287942"><ele>629.0</ele><time>2026-04-26T09:34:33.537Z</time></trkpt><trkpt lat="43.7986605" lon="11.5289309"><ele>629.0</ele><time>2026-04-26T09:34:35.538Z</time></trkpt><trkpt lat="43.7986972" lon="11.5290281"><ele>629.0</ele><time>2026-04-26T09:34:37.561Z</time></trkpt><trkpt lat="43.7987322" lon="11.5291323"><ele>629.0</ele><time>2026-04-26T09:34:39.547Z</time></trkpt><trkpt lat="43.7987729" lon="11.5292385"><ele>629.0</ele><time>2026-04-26T09:34:41.541Z</time></trkpt><trkpt lat="43.798807" lon="11.5293789"><ele>629.0</ele><time>2026-04-26T09:34:43.546Z</time></trkpt><trkpt lat="43.7988418" lon="11.5295123"><ele>629.0</ele><time>2026-04-26T09:34:45.542Z</time></trkpt><trkpt lat="43.7988946" lon="11.5296478"><ele>629.0</ele><time>2026-04-26T09:34:47.548Z</time></trkpt><trkpt lat="43.7989221" lon="11.5297479"><ele>629.0</ele><time>2026-04-26T09:34:49.54Z</time></trkpt><trkpt lat="43.7989299" lon="11.5298704"><ele>630.0</ele><time>2026-04-26T09:34:51.54Z</time></trkpt><trkpt lat="43.798927" lon="11.5300082"><ele>631.0</ele><time>2026-04-26T09:34:53.537Z</time></trkpt><trkpt lat="43.798921" lon="11.5301262"><ele>632.0</ele><time>2026-04-26T09:34:55.535Z</time></trkpt><trkpt lat="43.7989369" lon="11.5302469"><ele>633.0</ele><time>2026-04-26T09:34:57.537Z</time></trkpt><trkpt lat="43.7989785" lon="11.5303531"><ele>634.0</ele><time>2026-04-26T09:34:59.549Z</time></trkpt><trkpt lat="43.7989983" lon="11.5304431"><ele>635.0</ele><time>2026-04-26T09:35:01.55Z</time></trkpt><trkpt lat="43.7989824" lon="11.5305747"><ele>636.1666666666666</ele><time>2026-04-26T09:35:04.448Z</time></trkpt><trkpt lat="43.798964" lon="11.5306995"><ele>637.3333333333333</ele><time>2026-04-26T09:35:07.541Z</time></trkpt><trkpt lat="43.7989673" lon="11.5308084"><ele>638.5</ele><time>2026-04-26T09:35:10.528Z</time></trkpt><trkpt lat="43.7989706" lon="11.5309061"><ele>639.6666666666666</ele><time>2026-04-26T09:35:12.539Z</time></trkpt><trkpt lat="43.7989527" lon="11.5310091"><ele>640.8333333333334</ele><time>2026-04-26T09:35:14.544Z</time></trkpt><trkpt lat="43.7989243" lon="11.5311283"><ele>642.0</ele><time>2026-04-26T09:35:16.539Z</time></trkpt><trkpt lat="43.7989041" lon="11.5312258"><ele>642.0</ele><time>2026-04-26T09:35:18.543Z</time></trkpt><trkpt lat="43.7988776" lon="11.5313373"><ele>642.0</ele><time>2026-04-26T09:35:20.548Z</time></trkpt><trkpt lat="43.798858" lon="11.53145"><ele>642.0</ele><time>2026-04-26T09:35:22.538Z</time></trkpt><trkpt lat="43.7988435" lon="11.5315437"><ele>642.0</ele><time>2026-04-26T09:35:24.533Z</time></trkpt><trkpt lat="43.7988158" lon="11.5316424"><ele>642.0</ele><time>2026-04-26T09:35:26.54Z</time></trkpt><trkpt lat="43.7987817" lon="11.5317332"><ele>642.0</ele><time>2026-04-26T09:35:28.547Z</time></trkpt><trkpt lat="43.7987343" lon="11.5318449"><ele>642.0</ele><time>2026-04-26T09:35:30.532Z</time></trkpt><trkpt lat="43.7986761" lon="11.5319349"><ele>642.0</ele><time>2026-04-26T09:35:32.546Z</time></trkpt><trkpt lat="43.7986086" lon="11.5319853"><ele>642.0</ele><time>2026-04-26T09:35:34.538Z</time></trkpt><trkpt lat="43.7985427" lon="11.5320134"><ele>642.0</ele><time>2026-04-26T09:35:36.536Z</time></trkpt><trkpt lat="43.798457" lon="11.5320346"><ele>642.0</ele><time>2026-04-26T09:35:38.538Z</time></trkpt><trkpt lat="43.798375" lon="11.5320602"><ele>642.0</ele><time>2026-04-26T09:35:40.568Z</time></trkpt><trkpt lat="43.7983018" lon="11.5321104"><ele>643.6666666666666</ele><time>2026-04-26T09:35:42.538Z</time></trkpt><trkpt lat="43.7982431" lon="11.5321549"><ele>645.3333333333334</ele><time>2026-04-26T09:35:44.547Z</time></trkpt><trkpt lat="43.7981578" lon="11.5321888"><ele>647.0</ele><time>2026-04-26T09:35:47.555Z</time></trkpt><trkpt lat="43.7980898" lon="11.5322044"><ele>648.6666666666667</ele><time>2026-04-26T09:35:49.546Z</time></trkpt><trkpt lat="43.7979965" lon="11.532234"><ele>650.3333333333334</ele><time>2026-04-26T09:35:51.542Z</time></trkpt><trkpt lat="43.7979015" lon="11.5322547"><ele>652.0</ele><time>2026-04-26T09:35:53.538Z</time></trkpt><trkpt lat="43.7978379" lon="11.5322794"><ele>652.0</ele><time>2026-04-26T09:35:55.542Z</time></trkpt><trkpt lat="43.7977638" lon="11.5323297"><ele>652.0</ele><time>2026-04-26T09:35:57.553Z</time></trkpt><trkpt lat="43.7977057" lon="11.5323665"><ele>652.0</ele><time>2026-04-26T09:35:58.545Z</time></trkpt><trkpt lat="43.7976228" lon="11.5324633"><ele>652.0</ele><time>2026-04-26T09:36:00.552Z</time></trkpt><trkpt lat="43.7975489" lon="11.5325504"><ele>652.0</ele><time>2026-04-26T09:36:02.548Z</time></trkpt><trkpt lat="43.7974844" lon="11.5326343"><ele>652.0</ele><time>2026-04-26T09:36:04.545Z</time></trkpt><trkpt lat="43.797415" lon="11.5327196"><ele>654.6666666666667</ele><time>2026-04-26T09:36:06.546Z</time></trkpt><trkpt lat="43.7973549" lon="11.5327866"><ele>657.3333333333334</ele><time>2026-04-26T09:36:08.548Z</time></trkpt><trkpt lat="43.7972947" lon="11.5328339"><ele>660.0</ele><time>2026-04-26T09:36:10.545Z</time></trkpt><trkpt lat="43.7972157" lon="11.5328539"><ele>662.6666666666666</ele><time>2026-04-26T09:36:12.541Z</time></trkpt><trkpt lat="43.7971554" lon="11.5328938"><ele>665.3333333333333</ele><time>2026-04-26T09:36:14.539Z</time></trkpt><trkpt lat="43.7970802" lon="11.5329508"><ele>668.0</ele><time>2026-04-26T09:36:16.545Z</time></trkpt><trkpt lat="43.7970201" lon="11.5330185"><ele>668.0</ele><time>2026-04-26T09:36:18.539Z</time></trkpt><trkpt lat="43.7969701" lon="11.5331001"><ele>668.0</ele><time>2026-04-26T09:36:20.549Z</time></trkpt><trkpt lat="43.7969283" lon="11.5331862"><ele>668.0</ele><time>2026-04-26T09:36:22.534Z</time></trkpt><trkpt lat="43.7968769" lon="11.5332657"><ele>668.0</ele><time>2026-04-26T09:36:24.536Z</time></trkpt><trkpt lat="43.7968262" lon="11.5333351"><ele>668.0</ele><time>2026-04-26T09:36:26.532Z</time></trkpt><trkpt lat="43.7967579" lon="11.5334195"><ele>668.0</ele><time>2026-04-26T09:36:28.548Z</time></trkpt><trkpt lat="43.7966884" lon="11.5335093"><ele>672.6666666666666</ele><time>2026-04-26T09:36:30.542Z</time></trkpt><trkpt lat="43.7966249" lon="11.5336035"><ele>677.3333333333333</ele><time>2026-04-26T09:36:32.551Z</time></trkpt><trkpt lat="43.7965871" lon="11.5337022"><ele>682.0</ele><time>2026-04-26T09:36:34.533Z</time></trkpt><trkpt lat="43.7965556" lon="11.5337945"><ele>686.6666666666666</ele><time>2026-04-26T09:36:36.55Z</time></trkpt><trkpt lat="43.7965495" lon="11.5339187"><ele>691.3333333333334</ele><time>2026-04-26T09:36:38.544Z</time></trkpt><trkpt lat="43.7965379" lon="11.5340459"><ele>696.0</ele><time>2026-04-26T09:36:40.554Z</time></trkpt><trkpt lat="43.7965209" lon="11.5341684"><ele>696.0</ele><time>2026-04-26T09:36:42.541Z</time></trkpt><trkpt lat="43.7964942" lon="11.5342985"><ele>696.0</ele><time>2026-04-26T09:36:44.534Z</time></trkpt><trkpt lat="43.7964818" lon="11.5344119"><ele>696.0</ele><time>2026-04-26T09:36:46.534Z</time></trkpt><trkpt lat="43.7964692" lon="11.5345408"><ele>696.0</ele><time>2026-04-26T09:36:48.534Z</time></trkpt><trkpt lat="43.796457" lon="11.5346494"><ele>696.0</ele><time>2026-04-26T09:36:50.542Z</time></trkpt><trkpt lat="43.7964382" lon="11.5347637"><ele>696.0</ele><time>2026-04-26T09:36:52.528Z</time></trkpt><trkpt lat="43.7964231" lon="11.5348728"><ele>696.1666666666666</ele><time>2026-04-26T09:36:54.531Z</time></trkpt><trkpt lat="43.7963946" lon="11.5349687"><ele>696.3333333333334</ele><time>2026-04-26T09:36:56.541Z</time></trkpt><trkpt lat="43.7963597" lon="11.5350684"><ele>696.5</ele><time>2026-04-26T09:36:58.562Z</time></trkpt><trkpt lat="43.7963141" lon="11.5351609"><ele>696.6666666666667</ele><time>2026-04-26T09:37:00.538Z</time></trkpt><trkpt lat="43.7962766" lon="11.5352556"><ele>696.8333333333334</ele><time>2026-04-26T09:37:02.534Z</time></trkpt><trkpt lat="43.7962442" lon="11.5353413"><ele>697.0</ele><time>2026-04-26T09:37:04.545Z</time></trkpt><trkpt lat="43.7962267" lon="11.5354452"><ele>697.0</ele><time>2026-04-26T09:37:06.543Z</time></trkpt><trkpt lat="43.7961956" lon="11.5355403"><ele>697.0</ele><time>2026-04-26T09:37:08.549Z</time></trkpt><trkpt lat="43.7961586" lon="11.5356521"><ele>697.0</ele><time>2026-04-26T09:37:10.54Z</time></trkpt><trkpt lat="43.79614" lon="11.5357636"><ele>697.0</ele><time>2026-04-26T09:37:12.555Z</time></trkpt><trkpt lat="43.7961196" lon="11.535875"><ele>697.0</ele><time>2026-04-26T09:37:14.538Z</time></trkpt><trkpt lat="43.7961095" lon="11.5359724"><ele>697.0</ele><time>2026-04-26T09:37:16.536Z</time></trkpt><trkpt lat="43.7961074" lon="11.5360653"><ele>697.0</ele><time>2026-04-26T09:37:18.555Z</time></trkpt><trkpt lat="43.7960991" lon="11.5361668"><ele>697.0</ele><time>2026-04-26T09:37:20.543Z</time></trkpt><trkpt lat="43.7960501" lon="11.5362657"><ele>697.0</ele><time>2026-04-26T09:37:23.54Z</time></trkpt><trkpt lat="43.7959946" lon="11.5363663"><ele>697.0</ele><time>2026-04-26T09:37:41.535Z</time></trkpt><trkpt lat="43.7959638" lon="11.5364841"><ele>697.0</ele><time>2026-04-26T09:37:43.563Z</time></trkpt><trkpt lat="43.7959771" lon="11.53664"><ele>700.2857142857143</ele><time>2026-04-26T09:37:45.537Z</time></trkpt><trkpt lat="43.7959775" lon="11.5367284"><ele>703.5714285714286</ele><time>2026-04-26T09:37:46.556Z</time></trkpt><trkpt lat="43.795969" lon="11.5368171"><ele>706.8571428571429</ele><time>2026-04-26T09:37:47.545Z</time></trkpt><trkpt lat="43.7959568" lon="11.5369056"><ele>710.1428571428571</ele><time>2026-04-26T09:37:48.539Z</time></trkpt><trkpt lat="43.7959463" lon="11.5370092"><ele>713.4285714285714</ele><time>2026-04-26T09:37:49.544Z</time></trkpt><trkpt lat="43.7959378" lon="11.5371204"><ele>716.7142857142857</ele><time>2026-04-26T09:37:50.54Z</time></trkpt><trkpt lat="43.7959319" lon="11.5372355"><ele>720.0</ele><time>2026-04-26T09:37:51.546Z</time></trkpt><trkpt lat="43.7959332" lon="11.5373374"><ele>720.0</ele><time>2026-04-26T09:37:52.543Z</time></trkpt><trkpt lat="43.7959398" lon="11.5374445"><ele>720.0</ele><time>2026-04-26T09:37:53.545Z</time></trkpt><trkpt lat="43.7959563" lon="11.5375559"><ele>720.0</ele><time>2026-04-26T09:37:54.56Z</time></trkpt><trkpt lat="43.7959674" lon="11.5376738"><ele>720.0</ele><time>2026-04-26T09:37:55.554Z</time></trkpt><trkpt lat="43.7959839" lon="11.5377899"><ele>720.0</ele><time>2026-04-26T09:37:56.546Z</time></trkpt><trkpt lat="43.7960143" lon="11.5379016"><ele>720.0</ele><time>2026-04-26T09:37:57.551Z</time></trkpt><trkpt lat="43.7960541" lon="11.5380069"><ele>715.8</ele><time>2026-04-26T09:37:58.542Z</time></trkpt><trkpt lat="43.7960974" lon="11.5381138"><ele>711.6</ele><time>2026-04-26T09:37:59.553Z</time></trkpt><trkpt lat="43.7961552" lon="11.5382117"><ele>707.4000000000001</ele><time>2026-04-26T09:38:00.548Z</time></trkpt><trkpt lat="43.7962121" lon="11.5383154"><ele>703.2</ele><time>2026-04-26T09:38:01.54Z</time></trkpt><trkpt lat="43.7962766" lon="11.5384054"><ele>699.0</ele><time>2026-04-26T09:38:02.547Z</time></trkpt><trkpt lat="43.7963494" lon="11.5385036"><ele>699.0</ele><time>2026-04-26T09:38:03.547Z</time></trkpt><trkpt lat="43.796419" lon="11.538595"><ele>699.0</ele><time>2026-04-26T09:38:04.541Z</time></trkpt><trkpt lat="43.7964878" lon="11.5387012"><ele>699.0</ele><time>2026-04-26T09:38:05.556Z</time></trkpt><trkpt lat="43.7965587" lon="11.5387918"><ele>699.0</ele><time>2026-04-26T09:38:06.534Z</time></trkpt><trkpt lat="43.7966312" lon="11.5388842"><ele>699.0</ele><time>2026-04-26T09:38:07.542Z</time></trkpt><trkpt lat="43.7967034" lon="11.5389856"><ele>697.8000000000001</ele><time>2026-04-26T09:38:08.542Z</time></trkpt><trkpt lat="43.7967848" lon="11.5390716"><ele>696.6</ele><time>2026-04-26T09:38:09.557Z</time></trkpt><trkpt lat="43.7968751" lon="11.5391332"><ele>695.4</ele><time>2026-04-26T09:38:10.546Z</time></trkpt><trkpt lat="43.7969732" lon="11.5391903"><ele>694.2</ele><time>2026-04-26T09:38:11.544Z</time></trkpt><trkpt lat="43.7970732" lon="11.5392285"><ele>693.0</ele><time>2026-04-26T09:38:12.549Z</time></trkpt><trkpt lat="43.7971706" lon="11.5392627"><ele>693.0</ele><time>2026-04-26T09:38:13.54Z</time></trkpt><trkpt lat="43.7972668" lon="11.5393016"><ele>693.0</ele><time>2026-04-26T09:38:14.546Z</time></trkpt><trkpt lat="43.797354" lon="11.5393667"><ele>693.0</ele><time>2026-04-26T09:38:15.594Z</time></trkpt><trkpt lat="43.7974344" lon="11.5394451"><ele>693.0</ele><time>2026-04-26T09:38:16.554Z</time></trkpt><trkpt lat="43.7975149" lon="11.539527"><ele>693.0</ele><time>2026-04-26T09:38:17.546Z</time></trkpt><trkpt lat="43.7976008" lon="11.5396114"><ele>694.0</ele><time>2026-04-26T09:38:18.551Z</time></trkpt><trkpt lat="43.7976625" lon="11.539717"><ele>695.0</ele><time>2026-04-26T09:38:19.555Z</time></trkpt><trkpt lat="43.7977182" lon="11.5398118"><ele>696.0</ele><time>2026-04-26T09:38:20.539Z</time></trkpt><trkpt lat="43.7977714" lon="11.5399149"><ele>697.0</ele><time>2026-04-26T09:38:21.548Z</time></trkpt><trkpt lat="43.7978218" lon="11.5400346"><ele>698.0</ele><time>2026-04-26T09:38:22.556Z</time></trkpt><trkpt lat="43.797867" lon="11.5401394"><ele>693.0</ele><time>2026-04-26T09:38:23.549Z</time></trkpt><trkpt lat="43.7978973" lon="11.5402544"><ele>688.0</ele><time>2026-04-26T09:38:24.553Z</time></trkpt><trkpt lat="43.7978954" lon="11.5403729"><ele>683.0</ele><time>2026-04-26T09:38:25.541Z</time></trkpt><trkpt lat="43.7978767" lon="11.5404947"><ele>678.0</ele><time>2026-04-26T09:38:26.543Z</time></trkpt><trkpt lat="43.7978325" lon="11.5406215"><ele>673.0</ele><time>2026-04-26T09:38:27.55Z</time></trkpt><trkpt lat="43.7977912" lon="11.5407342"><ele>671.8</ele><time>2026-04-26T09:38:28.545Z</time></trkpt><trkpt lat="43.7977477" lon="11.5408492"><ele>670.5999999999999</ele><time>2026-04-26T09:38:29.547Z</time></trkpt><trkpt lat="43.7977031" lon="11.5409642"><ele>669.4000000000001</ele><time>2026-04-26T09:38:30.548Z</time></trkpt><trkpt lat="43.7976593" lon="11.5410738"><ele>668.2</ele><time>2026-04-26T09:38:31.564Z</time></trkpt><trkpt lat="43.7976161" lon="11.5411903"><ele>667.0</ele><time>2026-04-26T09:38:32.542Z</time></trkpt><trkpt lat="43.7975813" lon="11.5413023"><ele>671.0</ele><time>2026-04-26T09:38:33.538Z</time></trkpt><trkpt lat="43.7975521" lon="11.5414166"><ele>675.0</ele><time>2026-04-26T09:38:34.543Z</time></trkpt><trkpt lat="43.7975306" lon="11.5415365"><ele>679.0</ele><time>2026-04-26T09:38:35.549Z</time></trkpt><trkpt lat="43.7975264" lon="11.5416735"><ele>683.0</ele><time>2026-04-26T09:38:36.565Z</time></trkpt><trkpt lat="43.7975401" lon="11.5418014"><ele>687.0</ele><time>2026-04-26T09:38:37.623Z</time></trkpt><trkpt lat="43.7975671" lon="11.5419263"><ele>686.0</ele><time>2026-04-26T09:38:38.593Z</time></trkpt><trkpt lat="43.7975941" lon="11.5420509"><ele>685.0</ele><time>2026-04-26T09:38:39.589Z</time></trkpt><trkpt lat="43.7976146" lon="11.5421704"><ele>684.0</ele><time>2026-04-26T09:38:40.602Z</time></trkpt><trkpt lat="43.7976436" lon="11.5422979"><ele>683.0</ele><time>2026-04-26T09:38:41.584Z</time></trkpt><trkpt lat="43.7976713" lon="11.5424251"><ele>682.0</ele><time>2026-04-26T09:38:42.583Z</time></trkpt><trkpt lat="43.7976948" lon="11.5425601"><ele>676.0</ele><time>2026-04-26T09:38:43.596Z</time></trkpt><trkpt lat="43.7977242" lon="11.5426873"><ele>670.0</ele><time>2026-04-26T09:38:44.595Z</time></trkpt><trkpt lat="43.7977521" lon="11.5428138"><ele>664.0</ele><time>2026-04-26T09:38:45.591Z</time></trkpt><trkpt lat="43.7977841" lon="11.5429536"><ele>658.0</ele><time>2026-04-26T09:38:46.599Z</time></trkpt><trkpt lat="43.7978225" lon="11.5430796"><ele>652.0</ele><time>2026-04-26T09:38:47.589Z</time></trkpt><trkpt lat="43.7978769" lon="11.543209"><ele>652.0</ele><time>2026-04-26T09:38:48.587Z</time></trkpt><trkpt lat="43.7979296" lon="11.5433322"><ele>652.0</ele><time>2026-04-26T09:38:49.592Z</time></trkpt><trkpt lat="43.797974" lon="11.5434603"><ele>652.0</ele><time>2026-04-26T09:38:50.608Z</time></trkpt><trkpt lat="43.7980094" lon="11.5435967"><ele>652.0</ele><time>2026-04-26T09:38:51.592Z</time></trkpt><trkpt lat="43.7980317" lon="11.5437435"><ele>652.0</ele><time>2026-04-26T09:38:52.584Z</time></trkpt><trkpt lat="43.7980455" lon="11.5438874"><ele>652.8</ele><time>2026-04-26T09:38:53.589Z</time></trkpt><trkpt lat="43.798041" lon="11.5440398"><ele>653.6</ele><time>2026-04-26T09:38:54.6Z</time></trkpt><trkpt lat="43.7980322" lon="11.5441882"><ele>654.4</ele><time>2026-04-26T09:38:55.604Z</time></trkpt><trkpt lat="43.7980135" lon="11.5443317"><ele>655.1999999999999</ele><time>2026-04-26T09:38:56.593Z</time></trkpt><trkpt lat="43.7979958" lon="11.5444691"><ele>656.0</ele><time>2026-04-26T09:38:57.601Z</time></trkpt><trkpt lat="43.7979827" lon="11.544605"><ele>656.5999999999999</ele><time>2026-04-26T09:38:58.592Z</time></trkpt><trkpt lat="43.7979749" lon="11.544727"><ele>657.2</ele><time>2026-04-26T09:38:59.593Z</time></trkpt><trkpt lat="43.7979719" lon="11.5448571"><ele>657.8</ele><time>2026-04-26T09:39:00.592Z</time></trkpt><trkpt lat="43.7979811" lon="11.5449942"><ele>658.4000000000001</ele><time>2026-04-26T09:39:01.607Z</time></trkpt><trkpt lat="43.7979969" lon="11.5451267"><ele>659.0</ele><time>2026-04-26T09:39:02.599Z</time></trkpt><trkpt lat="43.7980189" lon="11.5452525"><ele>659.0</ele><time>2026-04-26T09:39:03.59Z</time></trkpt><trkpt lat="43.7980456" lon="11.545373"><ele>659.0</ele><time>2026-04-26T09:39:04.589Z</time></trkpt><trkpt lat="43.7980788" lon="11.5454916"><ele>659.0</ele><time>2026-04-26T09:39:05.612Z</time></trkpt><trkpt lat="43.7981096" lon="11.5456085"><ele>659.0</ele><time>2026-04-26T09:39:06.596Z</time></trkpt><trkpt lat="43.798164" lon="11.5457387"><ele>659.0</ele><time>2026-04-26T09:39:07.596Z</time></trkpt><trkpt lat="43.7981971" lon="11.5458388"><ele>659.5714285714286</ele><time>2026-04-26T09:39:08.596Z</time></trkpt><trkpt lat="43.7982306" lon="11.5459326"><ele>660.1428571428571</ele><time>2026-04-26T09:39:09.605Z</time></trkpt><trkpt lat="43.7982619" lon="11.5460189"><ele>660.7142857142857</ele><time>2026-04-26T09:39:10.604Z</time></trkpt><trkpt lat="43.7983057" lon="11.5461009"><ele>661.2857142857142</ele><time>2026-04-26T09:39:11.605Z</time></trkpt><trkpt lat="43.7983538" lon="11.5461752"><ele>661.8571428571429</ele><time>2026-04-26T09:39:12.592Z</time></trkpt><trkpt lat="43.7984057" lon="11.5462502"><ele>662.4285714285713</ele><time>2026-04-26T09:39:13.585Z</time></trkpt><trkpt lat="43.7984568" lon="11.5463248"><ele>663.0</ele><time>2026-04-26T09:39:14.591Z</time></trkpt><trkpt lat="43.7985126" lon="11.5463972"><ele>660.3333333333334</ele><time>2026-04-26T09:39:15.6Z</time></trkpt><trkpt lat="43.798566" lon="11.5464715"><ele>657.6666666666666</ele><time>2026-04-26T09:39:16.593Z</time></trkpt><trkpt lat="43.7986228" lon="11.5465501"><ele>655.0</ele><time>2026-04-26T09:39:17.588Z</time></trkpt><trkpt lat="43.7986753" lon="11.5466339"><ele>652.3333333333333</ele><time>2026-04-26T09:39:18.586Z</time></trkpt><trkpt lat="43.7987297" lon="11.5467195"><ele>649.6666666666666</ele><time>2026-04-26T09:39:19.61Z</time></trkpt><trkpt lat="43.7987689" lon="11.5468117"><ele>647.0</ele><time>2026-04-26T09:39:20.598Z</time></trkpt><trkpt lat="43.7987999" lon="11.5469125"><ele>647.0</ele><time>2026-04-26T09:39:21.605Z</time></trkpt><trkpt lat="43.7988248" lon="11.5470209"><ele>647.0</ele><time>2026-04-26T09:39:22.591Z</time></trkpt><trkpt lat="43.7988374" lon="11.547138"><ele>647.0</ele><time>2026-04-26T09:39:23.591Z</time></trkpt><trkpt lat="43.7988426" lon="11.5472627"><ele>647.0</ele><time>2026-04-26T09:39:24.59Z</time></trkpt><trkpt lat="43.798839" lon="11.5473898"><ele>647.0</ele><time>2026-04-26T09:39:25.6Z</time></trkpt><trkpt lat="43.7988262" lon="11.5475215"><ele>647.0</ele><time>2026-04-26T09:39:26.605Z</time></trkpt><trkpt lat="43.7988037" lon="11.5476587"><ele>646.1666666666666</ele><time>2026-04-26T09:39:27.593Z</time></trkpt><trkpt lat="43.7987844" lon="11.5477926"><ele>645.3333333333333</ele><time>2026-04-26T09:39:28.594Z</time></trkpt><trkpt lat="43.7987669" lon="11.5479152"><ele>644.5</ele><time>2026-04-26T09:39:29.602Z</time></trkpt><trkpt lat="43.7987535" lon="11.5480337"><ele>643.6666666666666</ele><time>2026-04-26T09:39:30.605Z</time></trkpt><trkpt lat="43.7987473" lon="11.5481533"><ele>642.8333333333334</ele><time>2026-04-26T09:39:31.595Z</time></trkpt><trkpt lat="43.798749" lon="11.5482704"><ele>642.0</ele><time>2026-04-26T09:39:32.594Z</time></trkpt><trkpt lat="43.7987692" lon="11.5483892"><ele>641.2</ele><time>2026-04-26T09:39:33.596Z</time></trkpt><trkpt lat="43.798806" lon="11.5485014"><ele>640.4000000000001</ele><time>2026-04-26T09:39:34.592Z</time></trkpt><trkpt lat="43.7988648" lon="11.5486015"><ele>639.5999999999999</ele><time>2026-04-26T09:39:35.59Z</time></trkpt><trkpt lat="43.7989337" lon="11.5486776"><ele>638.8</ele><time>2026-04-26T09:39:36.591Z</time></trkpt><trkpt lat="43.79902" lon="11.5487375"><ele>638.0</ele><time>2026-04-26T09:39:37.592Z</time></trkpt><trkpt lat="43.7991121" lon="11.5487837"><ele>636.1999999999999</ele><time>2026-04-26T09:39:38.609Z</time></trkpt><trkpt lat="43.7992093" lon="11.5488231"><ele>634.4</ele><time>2026-04-26T09:39:39.598Z</time></trkpt><trkpt lat="43.7993063" lon="11.5488801"><ele>632.5999999999999</ele><time>2026-04-26T09:39:40.593Z</time></trkpt><trkpt lat="43.7994072" lon="11.5489217"><ele>630.8</ele><time>2026-04-26T09:39:41.596Z</time></trkpt><trkpt lat="43.7995115" lon="11.5489645"><ele>629.0</ele><time>2026-04-26T09:39:42.604Z</time></trkpt><trkpt lat="43.7996197" lon="11.5490094"><ele>629.0</ele><time>2026-04-26T09:39:43.591Z</time></trkpt><trkpt lat="43.7997301" lon="11.5490515"><ele>629.0</ele><time>2026-04-26T09:39:44.598Z</time></trkpt><trkpt lat="43.7998445" lon="11.549097"><ele>629.0</ele><time>2026-04-26T09:39:45.588Z</time></trkpt><trkpt lat="43.7999522" lon="11.5491412"><ele>629.0</ele><time>2026-04-26T09:39:46.624Z</time></trkpt><trkpt lat="43.8000605" lon="11.5491834"><ele>629.0</ele><time>2026-04-26T09:39:47.598Z</time></trkpt><trkpt lat="43.8001601" lon="11.5492398"><ele>629.0</ele><time>2026-04-26T09:39:48.6Z</time></trkpt><trkpt lat="43.8002606" lon="11.5493097"><ele>629.0</ele><time>2026-04-26T09:39:49.601Z</time></trkpt><trkpt lat="43.8003475" lon="11.5494059"><ele>629.0</ele><time>2026-04-26T09:39:50.584Z</time></trkpt><trkpt lat="43.8004251" lon="11.5495272"><ele>629.0</ele><time>2026-04-26T09:39:51.598Z</time></trkpt><trkpt lat="43.8004821" lon="11.5496696"><ele>625.0</ele><time>2026-04-26T09:39:52.587Z</time></trkpt><trkpt lat="43.8005342" lon="11.5498108"><ele>621.0</ele><time>2026-04-26T09:39:53.589Z</time></trkpt><trkpt lat="43.800584" lon="11.5499608"><ele>617.0</ele><time>2026-04-26T09:39:54.594Z</time></trkpt><trkpt lat="43.8006367" lon="11.5501075"><ele>613.0</ele><time>2026-04-26T09:39:55.596Z</time></trkpt><trkpt lat="43.8006843" lon="11.5502617"><ele>612.75</ele><time>2026-04-26T09:39:56.592Z</time></trkpt><trkpt lat="43.8007326" lon="11.5504196"><ele>612.5</ele><time>2026-04-26T09:39:57.591Z</time></trkpt><trkpt lat="43.8007781" lon="11.5505761"><ele>612.25</ele><time>2026-04-26T09:39:58.587Z</time></trkpt><trkpt lat="43.8008221" lon="11.5507248"><ele>612.0</ele><time>2026-04-26T09:39:59.598Z</time></trkpt><trkpt lat="43.8008566" lon="11.5508676"><ele>612.0</ele><time>2026-04-26T09:40:00.593Z</time></trkpt><trkpt lat="43.8008751" lon="11.5510073"><ele>612.0</ele><time>2026-04-26T09:40:01.607Z</time></trkpt><trkpt lat="43.8008651" lon="11.5511546"><ele>612.0</ele><time>2026-04-26T09:40:02.603Z</time></trkpt><trkpt lat="43.8008342" lon="11.5512952"><ele>612.0</ele><time>2026-04-26T09:40:03.61Z</time></trkpt><trkpt lat="43.8007789" lon="11.5514254"><ele>612.0</ele><time>2026-04-26T09:40:04.598Z</time></trkpt><trkpt lat="43.8007025" lon="11.5515339"><ele>610.0</ele><time>2026-04-26T09:40:05.59Z</time></trkpt><trkpt lat="43.8006178" lon="11.5516274"><ele>608.0</ele><time>2026-04-26T09:40:06.592Z</time></trkpt><trkpt lat="43.8005312" lon="11.5517266"><ele>606.0</ele><time>2026-04-26T09:40:07.609Z</time></trkpt><trkpt lat="43.8004445" lon="11.5518306"><ele>604.0</ele><time>2026-04-26T09:40:08.595Z</time></trkpt><trkpt lat="43.8003647" lon="11.5519448"><ele>604.5</ele><time>2026-04-26T09:40:09.604Z</time></trkpt><trkpt lat="43.800297" lon="11.5520714"><ele>605.0</ele><time>2026-04-26T09:40:10.596Z</time></trkpt><trkpt lat="43.8002387" lon="11.5522175"><ele>605.5</ele><time>2026-04-26T09:40:11.595Z</time></trkpt><trkpt lat="43.8001841" lon="11.552359"><ele>606.0</ele><time>2026-04-26T09:40:12.604Z</time></trkpt><trkpt lat="43.800133" lon="11.55251"><ele>606.0</ele><time>2026-04-26T09:40:13.606Z</time></trkpt><trkpt lat="43.8000806" lon="11.552666"><ele>606.0</ele><time>2026-04-26T09:40:14.59Z</time></trkpt><trkpt lat="43.8000279" lon="11.5528149"><ele>606.0</ele><time>2026-04-26T09:40:15.584Z</time></trkpt><trkpt lat="43.7999889" lon="11.5529682"><ele>606.0</ele><time>2026-04-26T09:40:16.586Z</time></trkpt><trkpt lat="43.799961" lon="11.5531178"><ele>605.4</ele><time>2026-04-26T09:40:17.594Z</time></trkpt><trkpt lat="43.7999537" lon="11.5532734"><ele>604.8</ele><time>2026-04-26T09:40:18.584Z</time></trkpt><trkpt lat="43.7999641" lon="11.5534204"><ele>604.1999999999999</ele><time>2026-04-26T09:40:19.58Z</time></trkpt><trkpt lat="43.8000034" lon="11.5535567"><ele>603.6</ele><time>2026-04-26T09:40:20.578Z</time></trkpt><trkpt lat="43.8000609" lon="11.5536733"><ele>603.0</ele><time>2026-04-26T09:40:21.581Z</time></trkpt><trkpt lat="43.8001367" lon="11.5537783"><ele>599.0</ele><time>2026-04-26T09:40:22.581Z</time></trkpt><trkpt lat="43.8002171" lon="11.5538628"><ele>595.0</ele><time>2026-04-26T09:40:23.584Z</time></trkpt><trkpt lat="43.8003025" lon="11.5539247"><ele>591.0</ele><time>2026-04-26T09:40:24.589Z</time></trkpt><trkpt lat="43.8003811" lon="11.553982"><ele>587.0</ele><time>2026-04-26T09:40:25.607Z</time></trkpt><trkpt lat="43.8004576" lon="11.5540364"><ele>583.0</ele><time>2026-04-26T09:40:26.587Z</time></trkpt><trkpt lat="43.800523" lon="11.5541094"><ele>583.0</ele><time>2026-04-26T09:40:27.596Z</time></trkpt><trkpt lat="43.8005769" lon="11.5542069"><ele>583.0</ele><time>2026-04-26T09:40:28.596Z</time></trkpt><trkpt lat="43.8006023" lon="11.5543311"><ele>583.0</ele><time>2026-04-26T09:40:29.587Z</time></trkpt><trkpt lat="43.8006227" lon="11.5544622"><ele>583.0</ele><time>2026-04-26T09:40:30.598Z</time></trkpt><trkpt lat="43.8006342" lon="11.554603"><ele>583.0</ele><time>2026-04-26T09:40:31.591Z</time></trkpt><trkpt lat="43.8006505" lon="11.5547606"><ele>583.25</ele><time>2026-04-26T09:40:32.588Z</time></trkpt><trkpt lat="43.8006627" lon="11.5549391"><ele>583.5</ele><time>2026-04-26T09:40:33.588Z</time></trkpt><trkpt lat="43.8006683" lon="11.5551177"><ele>583.75</ele><time>2026-04-26T09:40:34.598Z</time></trkpt><trkpt lat="43.8006779" lon="11.5552845"><ele>584.0</ele><time>2026-04-26T09:40:35.591Z</time></trkpt><trkpt lat="43.8006762" lon="11.5554231"><ele>584.0</ele><time>2026-04-26T09:40:36.594Z</time></trkpt><trkpt lat="43.8006616" lon="11.5555265"><ele>584.0</ele><time>2026-04-26T09:40:37.59Z</time></trkpt><trkpt lat="43.8006268" lon="11.5556326"><ele>584.0</ele><time>2026-04-26T09:40:38.587Z</time></trkpt><trkpt lat="43.8005776" lon="11.5557436"><ele>584.0</ele><time>2026-04-26T09:40:39.587Z</time></trkpt><trkpt lat="43.8005451" lon="11.5558733"><ele>584.0</ele><time>2026-04-26T09:40:40.588Z</time></trkpt><trkpt lat="43.8005246" lon="11.555999"><ele>584.0</ele><time>2026-04-26T09:40:41.577Z</time></trkpt><trkpt lat="43.8005018" lon="11.5561258"><ele>584.5</ele><time>2026-04-26T09:40:42.582Z</time></trkpt><trkpt lat="43.8004818" lon="11.5562467"><ele>585.0</ele><time>2026-04-26T09:40:43.584Z</time></trkpt><trkpt lat="43.8004614" lon="11.5563568"><ele>585.5</ele><time>2026-04-26T09:40:44.586Z</time></trkpt><trkpt lat="43.8004417" lon="11.5564462"><ele>586.0</ele><time>2026-04-26T09:40:45.598Z</time></trkpt><trkpt lat="43.8004141" lon="11.5565406"><ele>586.5</ele><time>2026-04-26T09:40:46.586Z</time></trkpt><trkpt lat="43.8003888" lon="11.5566373"><ele>587.0</ele><time>2026-04-26T09:40:47.583Z</time></trkpt><trkpt lat="43.8003707" lon="11.5567257"><ele>587.0</ele><time>2026-04-26T09:40:48.589Z</time></trkpt><trkpt lat="43.8003677" lon="11.5568555"><ele>587.0</ele><time>2026-04-26T09:40:50.572Z</time></trkpt><trkpt lat="43.8003818" lon="11.5570356"><ele>587.0</ele><time>2026-04-26T09:40:52.588Z</time></trkpt><trkpt lat="43.8004083" lon="11.5572014"><ele>587.0</ele><time>2026-04-26T09:40:54.587Z</time></trkpt><trkpt lat="43.8004551" lon="11.5573558"><ele>588.75</ele><time>2026-04-26T09:40:56.578Z</time></trkpt><trkpt lat="43.800504" lon="11.5575037"><ele>590.5</ele><time>2026-04-26T09:40:58.584Z</time></trkpt><trkpt lat="43.8005282" lon="11.5576544"><ele>592.25</ele><time>2026-04-26T09:41:00.58Z</time></trkpt><trkpt lat="43.8005055" lon="11.5578154"><ele>594.0</ele><time>2026-04-26T09:41:02.584Z</time></trkpt><trkpt lat="43.8004936" lon="11.5579696"><ele>595.8</ele><time>2026-04-26T09:41:04.591Z</time></trkpt><trkpt lat="43.8005491" lon="11.5581209"><ele>597.5999999999999</ele><time>2026-04-26T09:41:06.571Z</time></trkpt><trkpt lat="43.8006238" lon="11.5582563"><ele>599.4</ele><time>2026-04-26T09:41:08.583Z</time></trkpt><trkpt lat="43.8006569" lon="11.5583311"><ele>601.1999999999999</ele><time>2026-04-26T09:41:09.585Z</time></trkpt><trkpt lat="43.8007055" lon="11.5584791"><ele>603.0</ele><time>2026-04-26T09:41:11.581Z</time></trkpt><trkpt lat="43.8007072" lon="11.558613"><ele>603.0</ele><time>2026-04-26T09:41:13.574Z</time></trkpt><trkpt lat="43.8006349" lon="11.5586996"><ele>603.0</ele><time>2026-04-26T09:41:15.587Z</time></trkpt><trkpt lat="43.8005404" lon="11.5587502"><ele>603.0</ele><time>2026-04-26T09:41:17.583Z</time></trkpt><trkpt lat="43.8004357" lon="11.5587901"><ele>603.0</ele><time>2026-04-26T09:41:19.574Z</time></trkpt><trkpt lat="43.8003386" lon="11.5587472"><ele>603.0</ele><time>2026-04-26T09:41:21.588Z</time></trkpt><trkpt lat="43.8002301" lon="11.5586668"><ele>605.3333333333334</ele><time>2026-04-26T09:41:23.59Z</time></trkpt><trkpt lat="43.800109" lon="11.5586516"><ele>607.6666666666666</ele><time>2026-04-26T09:41:25.585Z</time></trkpt><trkpt lat="43.8000423" lon="11.5586684"><ele>610.0</ele><time>2026-04-26T09:41:26.596Z</time></trkpt><trkpt lat="43.7999665" lon="11.5587022"><ele>612.3333333333333</ele><time>2026-04-26T09:41:27.589Z</time></trkpt><trkpt lat="43.7999091" lon="11.5587477"><ele>614.6666666666666</ele><time>2026-04-26T09:41:28.586Z</time></trkpt><trkpt lat="43.7998475" lon="11.5587863"><ele>617.0</ele><time>2026-04-26T09:41:29.595Z</time></trkpt><trkpt lat="43.7997855" lon="11.5588375"><ele>617.0</ele><time>2026-04-26T09:41:30.586Z</time></trkpt><trkpt lat="43.7997245" lon="11.5588926"><ele>617.0</ele><time>2026-04-26T09:41:31.58Z</time></trkpt><trkpt lat="43.7996703" lon="11.5589607"><ele>617.0</ele><time>2026-04-26T09:41:32.582Z</time></trkpt><trkpt lat="43.7996136" lon="11.559032"><ele>617.0</ele><time>2026-04-26T09:41:33.587Z</time></trkpt><trkpt lat="43.799564" lon="11.5591029"><ele>617.0</ele><time>2026-04-26T09:41:34.587Z</time></trkpt><trkpt lat="43.7995099" lon="11.5591609"><ele>617.0</ele><time>2026-04-26T09:41:35.581Z</time></trkpt><trkpt lat="43.7994016" lon="11.5592646"><ele>617.0</ele><time>2026-04-26T09:41:37.585Z</time></trkpt><trkpt lat="43.7993456" lon="11.5593198"><ele>617.0</ele><time>2026-04-26T09:41:38.574Z</time></trkpt><trkpt lat="43.7992863" lon="11.5593718"><ele>617.0</ele><time>2026-04-26T09:41:39.574Z</time></trkpt><trkpt lat="43.7992403" lon="11.5594346"><ele>617.0</ele><time>2026-04-26T09:41:40.593Z</time></trkpt><trkpt lat="43.7991979" lon="11.5595062"><ele>617.0</ele><time>2026-04-26T09:41:41.59Z</time></trkpt><trkpt lat="43.7991361" lon="11.5596593"><ele>617.0</ele><time>2026-04-26T09:41:43.586Z</time></trkpt><trkpt lat="43.7990561" lon="11.559792"><ele>620.4</ele><time>2026-04-26T09:41:45.584Z</time></trkpt><trkpt lat="43.7990019" lon="11.5598485"><ele>623.8000000000001</ele><time>2026-04-26T09:41:46.588Z</time></trkpt><trkpt lat="43.7989475" lon="11.559901"><ele>627.2</ele><time>2026-04-26T09:41:47.588Z</time></trkpt><trkpt lat="43.7988632" lon="11.5600326"><ele>630.6</ele><time>2026-04-26T09:41:49.587Z</time></trkpt><trkpt lat="43.7988257" lon="11.560113"><ele>634.0</ele><time>2026-04-26T09:41:50.593Z</time></trkpt><trkpt lat="43.7987621" lon="11.5602697"><ele>633.4</ele><time>2026-04-26T09:41:52.585Z</time></trkpt><trkpt lat="43.7986942" lon="11.5604025"><ele>632.8</ele><time>2026-04-26T09:41:54.578Z</time></trkpt><trkpt lat="43.798606" lon="11.5605311"><ele>632.2</ele><time>2026-04-26T09:41:56.59Z</time></trkpt><trkpt lat="43.7985529" lon="11.5606194"><ele>631.6</ele><time>2026-04-26T09:41:57.593Z</time></trkpt><trkpt lat="43.7985078" lon="11.5606947"><ele>631.0</ele><time>2026-04-26T09:41:58.575Z</time></trkpt><trkpt lat="43.7984185" lon="11.5608153"><ele>635.6666666666667</ele><time>2026-04-26T09:42:00.598Z</time></trkpt><trkpt lat="43.798367" lon="11.560871"><ele>640.3333333333334</ele><time>2026-04-26T09:42:01.58Z</time></trkpt><trkpt lat="43.7982731" lon="11.5609309"><ele>645.0</ele><time>2026-04-26T09:42:03.586Z</time></trkpt><trkpt lat="43.7982027" lon="11.5609856"><ele>649.6666666666666</ele><time>2026-04-26T09:42:04.585Z</time></trkpt><trkpt lat="43.7980982" lon="11.5610772"><ele>654.3333333333333</ele><time>2026-04-26T09:42:06.583Z</time></trkpt><trkpt lat="43.7980411" lon="11.5611311"><ele>659.0</ele><time>2026-04-26T09:42:07.594Z</time></trkpt><trkpt lat="43.7979856" lon="11.5611825"><ele>658.1666666666666</ele><time>2026-04-26T09:42:08.58Z</time></trkpt><trkpt lat="43.7978611" lon="11.5612337"><ele>657.3333333333333</ele><time>2026-04-26T09:42:10.587Z</time></trkpt><trkpt lat="43.7978024" lon="11.5612703"><ele>656.5</ele><time>2026-04-26T09:42:11.591Z</time></trkpt><trkpt lat="43.7977464" lon="11.5613155"><ele>655.6666666666666</ele><time>2026-04-26T09:42:12.586Z</time></trkpt><trkpt lat="43.7976921" lon="11.5613712"><ele>654.8333333333334</ele><time>2026-04-26T09:42:13.577Z</time></trkpt><trkpt lat="43.7976478" lon="11.5614361"><ele>654.0</ele><time>2026-04-26T09:42:14.589Z</time></trkpt><trkpt lat="43.7975999" lon="11.5615101"><ele>656.1666666666666</ele><time>2026-04-26T09:42:15.596Z</time></trkpt><trkpt lat="43.7975535" lon="11.5615906"><ele>658.3333333333334</ele><time>2026-04-26T09:42:16.585Z</time></trkpt><trkpt lat="43.7975143" lon="11.5616694"><ele>660.5</ele><time>2026-04-26T09:42:17.576Z</time></trkpt><trkpt lat="43.7974764" lon="11.5617492"><ele>662.6666666666667</ele><time>2026-04-26T09:42:18.575Z</time></trkpt><trkpt lat="43.7974409" lon="11.5618275"><ele>664.8333333333334</ele><time>2026-04-26T09:42:19.577Z</time></trkpt><trkpt lat="43.7973965" lon="11.5619086"><ele>667.0</ele><time>2026-04-26T09:42:20.58Z</time></trkpt><trkpt lat="43.797319" lon="11.5620361"><ele>667.2857142857143</ele><time>2026-04-26T09:42:22.584Z</time></trkpt><trkpt lat="43.7972647" lon="11.5621061"><ele>667.5714285714286</ele><time>2026-04-26T09:42:23.58Z</time></trkpt><trkpt lat="43.797209" lon="11.5621641"><ele>667.8571428571429</ele><time>2026-04-26T09:42:24.583Z</time></trkpt><trkpt lat="43.7971528" lon="11.5622204"><ele>668.1428571428571</ele><time>2026-04-26T09:42:25.574Z</time></trkpt><trkpt lat="43.797095" lon="11.5622773"><ele>668.4285714285714</ele><time>2026-04-26T09:42:26.582Z</time></trkpt><trkpt lat="43.7970409" lon="11.5623294"><ele>668.7142857142858</ele><time>2026-04-26T09:42:27.577Z</time></trkpt><trkpt lat="43.7969857" lon="11.562382"><ele>669.0</ele><time>2026-04-26T09:42:28.58Z</time></trkpt><trkpt lat="43.7969267" lon="11.5624348"><ele>669.0</ele><time>2026-04-26T09:42:29.573Z</time></trkpt><trkpt lat="43.7968744" lon="11.5624895"><ele>669.0</ele><time>2026-04-26T09:42:30.585Z</time></trkpt><trkpt lat="43.7968175" lon="11.5625458"><ele>669.0</ele><time>2026-04-26T09:42:31.575Z</time></trkpt><trkpt lat="43.7967708" lon="11.5626081"><ele>669.0</ele><time>2026-04-26T09:42:32.574Z</time></trkpt><trkpt lat="43.7967297" lon="11.5626798"><ele>669.0</ele><time>2026-04-26T09:42:33.587Z</time></trkpt><trkpt lat="43.7967004" lon="11.562764"><ele>669.0</ele><time>2026-04-26T09:42:34.58Z</time></trkpt><trkpt lat="43.796683" lon="11.5628498"><ele>669.0</ele><time>2026-04-26T09:42:35.584Z</time></trkpt><trkpt lat="43.7966736" lon="11.5630242"><ele>671.6666666666666</ele><time>2026-04-26T09:42:37.58Z</time></trkpt><trkpt lat="43.7966474" lon="11.5631694"><ele>674.3333333333334</ele><time>2026-04-26T09:42:39.591Z</time></trkpt><trkpt lat="43.7965968" lon="11.5632826"><ele>677.0</ele><time>2026-04-26T09:42:41.598Z</time></trkpt><trkpt lat="43.796557" lon="11.5633678"><ele>679.6666666666667</ele><time>2026-04-26T09:42:43.581Z</time></trkpt><trkpt lat="43.7965267" lon="11.5634546"><ele>682.3333333333334</ele><time>2026-04-26T09:42:47.579Z</time></trkpt><trkpt lat="43.7964818" lon="11.5635526"><ele>685.0</ele><time>2026-04-26T09:42:54.589Z</time></trkpt><trkpt lat="43.7964446" lon="11.5636415"><ele>685.1666666666667</ele><time>2026-04-26T09:42:57.584Z</time></trkpt><trkpt lat="43.7964081" lon="11.5637291"><ele>685.3333333333334</ele><time>2026-04-26T09:43:00.585Z</time></trkpt><trkpt lat="43.7963803" lon="11.5638401"><ele>685.5</ele><time>2026-04-26T09:43:03.58Z</time></trkpt><trkpt lat="43.7963465" lon="11.5639507"><ele>685.6666666666666</ele><time>2026-04-26T09:43:06.563Z</time></trkpt><trkpt lat="43.7963023" lon="11.5640377"><ele>685.8333333333333</ele><time>2026-04-26T09:43:09.592Z</time></trkpt><trkpt lat="43.7962698" lon="11.5641142"><ele>686.0</ele><time>2026-04-26T09:43:12.573Z</time></trkpt><trkpt lat="43.7962461" lon="11.5642221"><ele>686.0</ele><time>2026-04-26T09:43:15.574Z</time></trkpt><trkpt lat="43.796295" lon="11.5643127"><ele>686.0</ele><time>2026-04-26T09:43:18.578Z</time></trkpt><trkpt lat="43.7963825" lon="11.5643283"><ele>686.0</ele><time>2026-04-26T09:43:21.569Z</time></trkpt><trkpt lat="43.7964598" lon="11.5642816"><ele>686.0</ele><time>2026-04-26T09:43:23.569Z</time></trkpt><trkpt lat="43.7965336" lon="11.5642303"><ele>686.0</ele><time>2026-04-26T09:43:25.574Z</time></trkpt><trkpt lat="43.7965973" lon="11.5641851"><ele>686.0</ele><time>2026-04-26T09:43:27.573Z</time></trkpt><trkpt lat="43.796661" lon="11.5641566"><ele>686.0</ele><time>2026-04-26T09:43:29.563Z</time></trkpt><trkpt lat="43.7967256" lon="11.5641634"><ele>686.0</ele><time>2026-04-26T09:43:31.58Z</time></trkpt><trkpt lat="43.7967895" lon="11.5642032"><ele>686.0</ele><time>2026-04-26T09:43:33.566Z</time></trkpt><trkpt lat="43.7968275" lon="11.5642771"><ele>686.0</ele><time>2026-04-26T09:43:35.583Z</time></trkpt><trkpt lat="43.7968646" lon="11.5643907"><ele>686.0</ele><time>2026-04-26T09:43:38.58Z</time></trkpt><trkpt lat="43.7968911" lon="11.5644717"><ele>686.0</ele><time>2026-04-26T09:43:40.597Z</time></trkpt><trkpt lat="43.796903" lon="11.5645926"><ele>686.0</ele><time>2026-04-26T09:43:43.585Z</time></trkpt><trkpt lat="43.7969163" lon="11.5647219"><ele>686.7142857142857</ele><time>2026-04-26T09:43:46.58Z</time></trkpt><trkpt lat="43.7969284" lon="11.5648325"><ele>687.4285714285714</ele><time>2026-04-26T09:43:49.589Z</time></trkpt><trkpt lat="43.796935" lon="11.5649301"><ele>688.1428571428571</ele><time>2026-04-26T09:43:51.577Z</time></trkpt><trkpt lat="43.7969458" lon="11.5650196"><ele>688.8571428571429</ele><time>2026-04-26T09:43:53.582Z</time></trkpt><trkpt lat="43.7969641" lon="11.5651156"><ele>689.5714285714286</ele><time>2026-04-26T09:43:57.59Z</time></trkpt><trkpt lat="43.7969874" lon="11.565218"><ele>690.2857142857142</ele><time>2026-04-26T09:44:00.582Z</time></trkpt><trkpt lat="43.797003" lon="11.565303"><ele>691.0</ele><time>2026-04-26T09:44:04.587Z</time></trkpt><trkpt lat="43.797038" lon="11.5654103"><ele>693.1428571428571</ele><time>2026-04-26T09:44:08.584Z</time></trkpt><trkpt lat="43.7970508" lon="11.5655134"><ele>695.2857142857142</ele><time>2026-04-26T09:44:11.582Z</time></trkpt><trkpt lat="43.7970565" lon="11.5656201"><ele>697.4285714285713</ele><time>2026-04-26T09:44:14.594Z</time></trkpt><trkpt lat="43.7970813" lon="11.5657044"><ele>699.5714285714286</ele><time>2026-04-26T09:44:17.59Z</time></trkpt><trkpt lat="43.7970994" lon="11.5658053"><ele>701.7142857142858</ele><time>2026-04-26T09:44:21.593Z</time></trkpt><trkpt lat="43.7971282" lon="11.5658936"><ele>703.8571428571428</ele><time>2026-04-26T09:44:24.586Z</time></trkpt><trkpt lat="43.7971522" lon="11.5659839"><ele>706.0</ele><time>2026-04-26T09:44:27.59Z</time></trkpt><trkpt lat="43.7971588" lon="11.5660789"><ele>706.0</ele><time>2026-04-26T09:44:30.587Z</time></trkpt><trkpt lat="43.7971715" lon="11.566178"><ele>706.0</ele><time>2026-04-26T09:44:33.585Z</time></trkpt><trkpt lat="43.7972014" lon="11.5662909"><ele>706.0</ele><time>2026-04-26T09:44:37.582Z</time></trkpt><trkpt lat="43.7972162" lon="11.5663951"><ele>706.0</ele><time>2026-04-26T09:44:41.576Z</time></trkpt><trkpt lat="43.7972424" lon="11.5664882"><ele>706.0</ele><time>2026-04-26T09:44:44.58Z</time></trkpt><trkpt lat="43.7972804" lon="11.5665704"><ele>706.0</ele><time>2026-04-26T09:44:47.568Z</time></trkpt><trkpt lat="43.7973229" lon="11.5666686"><ele>707.8571428571428</ele><time>2026-04-26T09:44:51.576Z</time></trkpt><trkpt lat="43.7973679" lon="11.5667514"><ele>709.7142857142858</ele><time>2026-04-26T09:44:55.586Z</time></trkpt><trkpt lat="43.7974165" lon="11.5668352"><ele>711.5714285714286</ele><time>2026-04-26T09:44:59.577Z</time></trkpt><trkpt lat="43.7974688" lon="11.5669113"><ele>713.4285714285713</ele><time>2026-04-26T09:45:03.581Z</time></trkpt><trkpt lat="43.7975135" lon="11.566982"><ele>715.2857142857142</ele><time>2026-04-26T09:45:06.574Z</time></trkpt><trkpt lat="43.7975691" lon="11.5670546"><ele>717.1428571428571</ele><time>2026-04-26T09:45:09.581Z</time></trkpt><trkpt lat="43.7976149" lon="11.5671232"><ele>719.0</ele><time>2026-04-26T09:45:12.574Z</time></trkpt><trkpt lat="43.797659" lon="11.5671969"><ele>722.8333333333333</ele><time>2026-04-26T09:45:15.577Z</time></trkpt><trkpt lat="43.7977212" lon="11.5672394"><ele>726.6666666666666</ele><time>2026-04-26T09:45:18.579Z</time></trkpt><trkpt lat="43.7978076" lon="11.5672168"><ele>730.5</ele><time>2026-04-26T09:45:22.579Z</time></trkpt><trkpt lat="43.7978959" lon="11.5671783"><ele>734.3333333333334</ele><time>2026-04-26T09:45:25.581Z</time></trkpt><trkpt lat="43.7979616" lon="11.5671596"><ele>738.1666666666667</ele><time>2026-04-26T09:45:28.584Z</time></trkpt><trkpt lat="43.798035" lon="11.5671643"><ele>742.0</ele><time>2026-04-26T09:45:31.583Z</time></trkpt><trkpt lat="43.798107" lon="11.5671727"><ele>742.0</ele><time>2026-04-26T09:45:34.575Z</time></trkpt><trkpt lat="43.7981748" lon="11.5671815"><ele>742.0</ele><time>2026-04-26T09:45:37.594Z</time></trkpt><trkpt lat="43.7982319" lon="11.5672267"><ele>742.0</ele><time>2026-04-26T09:45:40.579Z</time></trkpt><trkpt lat="43.7982999" lon="11.5672466"><ele>742.0</ele><time>2026-04-26T09:45:43.58Z</time></trkpt><trkpt lat="43.7983636" lon="11.5672814"><ele>742.0</ele><time>2026-04-26T09:45:46.582Z</time></trkpt><trkpt lat="43.798411" lon="11.5673516"><ele>742.0</ele><time>2026-04-26T09:45:49.578Z</time></trkpt><trkpt lat="43.7984352" lon="11.567444"><ele>742.0</ele><time>2026-04-26T09:45:53.584Z</time></trkpt><trkpt lat="43.7984616" lon="11.5675479"><ele>742.0</ele><time>2026-04-26T09:45:57.583Z</time></trkpt><trkpt lat="43.7984908" lon="11.5676322"><ele>742.0</ele><time>2026-04-26T09:46:00.583Z</time></trkpt><trkpt lat="43.7985486" lon="11.5676849"><ele>742.0</ele><time>2026-04-26T09:46:05.582Z</time></trkpt><trkpt lat="43.7986261" lon="11.5676898"><ele>742.0</ele><time>2026-04-26T09:46:10.576Z</time></trkpt><trkpt lat="43.7986947" lon="11.5677002"><ele>742.0</ele><time>2026-04-26T09:46:14.588Z</time></trkpt><trkpt lat="43.7987699" lon="11.5677472"><ele>742.0</ele><time>2026-04-26T09:46:18.582Z</time></trkpt><trkpt lat="43.7988236" lon="11.567802"><ele>742.0</ele><time>2026-04-26T09:46:21.592Z</time></trkpt><trkpt lat="43.7988597" lon="11.5678872"><ele>745.1666666666667</ele><time>2026-04-26T09:46:24.587Z</time></trkpt><trkpt lat="43.7988944" lon="11.5679859"><ele>748.3333333333334</ele><time>2026-04-26T09:46:28.588Z</time></trkpt><trkpt lat="43.798931" lon="11.5680734"><ele>751.5</ele><time>2026-04-26T09:46:32.585Z</time></trkpt><trkpt lat="43.7989962" lon="11.568103"><ele>754.6666666666666</ele><time>2026-04-26T09:46:35.582Z</time></trkpt><trkpt lat="43.7990855" lon="11.5680825"><ele>757.8333333333333</ele><time>2026-04-26T09:46:38.59Z</time></trkpt><trkpt lat="43.7991516" lon="11.5680914"><ele>761.0</ele><time>2026-04-26T09:46:42.575Z</time></trkpt><trkpt lat="43.7992234" lon="11.5681174"><ele>760.9999999999999</ele><time>2026-04-26T09:46:46.584Z</time></trkpt><trkpt lat="43.7992763" lon="11.5681722"><ele>761.0</ele><time>2026-04-26T09:46:50.588Z</time></trkpt><trkpt lat="43.7993395" lon="11.5682017"><ele>761.0</ele><time>2026-04-26T09:46:56.585Z</time></trkpt><trkpt lat="43.799413" lon="11.5682066"><ele>761.0</ele><time>2026-04-26T09:47:00.575Z</time></trkpt><trkpt lat="43.7994594" lon="11.5682777"><ele>761.0</ele><time>2026-04-26T09:47:05.583Z</time></trkpt><trkpt lat="43.7995112" lon="11.5683453"><ele>760.9999999999999</ele><time>2026-04-26T09:47:09.587Z</time></trkpt><trkpt lat="43.7995882" lon="11.5683342"><ele>761.0</ele><time>2026-04-26T09:47:13.583Z</time></trkpt><trkpt lat="43.7996301" lon="11.5682659"><ele>762.8571428571428</ele><time>2026-04-26T09:47:15.587Z</time></trkpt><trkpt lat="43.7996631" lon="11.5681765"><ele>764.7142857142857</ele><time>2026-04-26T09:47:18.579Z</time></trkpt><trkpt lat="43.7996874" lon="11.5680847"><ele>766.5714285714286</ele><time>2026-04-26T09:47:21.593Z</time></trkpt><trkpt lat="43.7997169" lon="11.5679933"><ele>768.4285714285713</ele><time>2026-04-26T09:47:25.593Z</time></trkpt><trkpt lat="43.7997436" lon="11.5679081"><ele>770.2857142857143</ele><time>2026-04-26T09:47:29.588Z</time></trkpt><trkpt lat="43.7997942" lon="11.5678128"><ele>772.1428571428571</ele><time>2026-04-26T09:47:33.591Z</time></trkpt><trkpt lat="43.7998426" lon="11.5677566"><ele>774.0</ele><time>2026-04-26T09:47:37.596Z</time></trkpt><trkpt lat="43.799889" lon="11.5676806"><ele>774.0</ele><time>2026-04-26T09:47:41.588Z</time></trkpt><trkpt lat="43.7999327" lon="11.5675982"><ele>774.0</ele><time>2026-04-26T09:47:45.596Z</time></trkpt><trkpt lat="43.7999713" lon="11.5675185"><ele>774.0</ele><time>2026-04-26T09:47:48.587Z</time></trkpt><trkpt lat="43.8000065" lon="11.5674386"><ele>774.0</ele><time>2026-04-26T09:47:52.593Z</time></trkpt><trkpt lat="43.8000558" lon="11.567381"><ele>774.0</ele><time>2026-04-26T09:47:56.616Z</time></trkpt><trkpt lat="43.8001152" lon="11.5673403"><ele>774.0</ele><time>2026-04-26T09:48:00.594Z</time></trkpt><trkpt lat="43.8001825" lon="11.5673546"><ele>774.0</ele><time>2026-04-26T09:48:04.597Z</time></trkpt><trkpt lat="43.8002236" lon="11.5674514"><ele>772.5714285714286</ele><time>2026-04-26T09:48:08.607Z</time></trkpt><trkpt lat="43.8002522" lon="11.5675533"><ele>771.1428571428571</ele><time>2026-04-26T09:48:12.587Z</time></trkpt><trkpt lat="43.8002864" lon="11.567633"><ele>769.7142857142858</ele><time>2026-04-26T09:48:16.595Z</time></trkpt><trkpt lat="43.8002948" lon="11.5677435"><ele>768.2857142857142</ele><time>2026-04-26T09:48:20.595Z</time></trkpt><trkpt lat="43.8002807" lon="11.5678362"><ele>766.8571428571428</ele><time>2026-04-26T09:48:23.609Z</time></trkpt><trkpt lat="43.8002597" lon="11.5679264"><ele>765.4285714285714</ele><time>2026-04-26T09:48:26.614Z</time></trkpt><trkpt lat="43.8002407" lon="11.5680117"><ele>764.0</ele><time>2026-04-26T09:48:29.597Z</time></trkpt><trkpt lat="43.8002217" lon="11.5681154"><ele>764.0</ele><time>2026-04-26T09:48:33.606Z</time></trkpt><trkpt lat="43.8002015" lon="11.5681997"><ele>764.0</ele><time>2026-04-26T09:48:36.604Z</time></trkpt><trkpt lat="43.8001871" lon="11.5682871"><ele>764.0</ele><time>2026-04-26T09:48:41.596Z</time></trkpt><trkpt lat="43.8001645" lon="11.5683771"><ele>764.0</ele><time>2026-04-26T09:48:47.607Z</time></trkpt><trkpt lat="43.8001458" lon="11.5684633"><ele>764.0</ele><time>2026-04-26T09:48:51.608Z</time></trkpt><trkpt lat="43.8001274" lon="11.5685504"><ele>764.0</ele><time>2026-04-26T09:48:54.605Z</time></trkpt><trkpt lat="43.8001076" lon="11.5686539"><ele>764.0</ele><time>2026-04-26T09:48:58.597Z</time></trkpt><trkpt lat="43.8000983" lon="11.5687473"><ele>766.4285714285714</ele><time>2026-04-26T09:49:01.605Z</time></trkpt><trkpt lat="43.8000952" lon="11.5688545"><ele>768.8571428571428</ele><time>2026-04-26T09:49:05.599Z</time></trkpt><trkpt lat="43.8000832" lon="11.5689511"><ele>771.2857142857142</ele><time>2026-04-26T09:49:09.599Z</time></trkpt><trkpt lat="43.8000786" lon="11.5690599"><ele>773.7142857142858</ele><time>2026-04-26T09:49:13.606Z</time></trkpt><trkpt lat="43.8000908" lon="11.5691468"><ele>776.1428571428571</ele><time>2026-04-26T09:49:17.608Z</time></trkpt><trkpt lat="43.800094" lon="11.5692591"><ele>778.5714285714286</ele><time>2026-04-26T09:49:21.597Z</time></trkpt><trkpt lat="43.8000975" lon="11.5693585"><ele>781.0</ele><time>2026-04-26T09:49:25.592Z</time></trkpt><trkpt lat="43.8000819" lon="11.5694609"><ele>782.4285714285714</ele><time>2026-04-26T09:49:29.621Z</time></trkpt><trkpt lat="43.8000825" lon="11.5695484"><ele>783.8571428571429</ele><time>2026-04-26T09:49:32.606Z</time></trkpt><trkpt lat="43.8000683" lon="11.5696554"><ele>785.2857142857142</ele><time>2026-04-26T09:49:36.599Z</time></trkpt><trkpt lat="43.8000274" lon="11.5697544"><ele>786.7142857142858</ele><time>2026-04-26T09:49:40.599Z</time></trkpt><trkpt lat="43.7999867" lon="11.5698459"><ele>788.1428571428571</ele><time>2026-04-26T09:49:44.589Z</time></trkpt><trkpt lat="43.7999543" lon="11.5699392"><ele>789.5714285714286</ele><time>2026-04-26T09:49:47.589Z</time></trkpt><trkpt lat="43.7999275" lon="11.5700232"><ele>791.0</ele><time>2026-04-26T09:49:50.601Z</time></trkpt><trkpt lat="43.7998876" lon="11.5701367"><ele>791.0</ele><time>2026-04-26T09:49:54.598Z</time></trkpt><trkpt lat="43.7998677" lon="11.570233"><ele>791.0</ele><time>2026-04-26T09:49:57.602Z</time></trkpt><trkpt lat="43.7998584" lon="11.5703288"><ele>791.0</ele><time>2026-04-26T09:50:00.616Z</time></trkpt><trkpt lat="43.7998405" lon="11.5704133"><ele>791.0</ele><time>2026-04-26T09:50:03.598Z</time></trkpt><trkpt lat="43.7998011" lon="11.5705101"><ele>791.0</ele><time>2026-04-26T09:50:07.615Z</time></trkpt><trkpt lat="43.7997654" lon="11.5705825"><ele>791.0</ele><time>2026-04-26T09:50:11.616Z</time></trkpt><trkpt lat="43.799719" lon="11.5706511"><ele>791.0</ele><time>2026-04-26T09:50:15.62Z</time></trkpt><trkpt lat="43.7996684" lon="11.5707179"><ele>791.6666666666667</ele><time>2026-04-26T09:50:18.605Z</time></trkpt><trkpt lat="43.7996021" lon="11.5707882"><ele>792.3333333333334</ele><time>2026-04-26T09:50:22.598Z</time></trkpt><trkpt lat="43.7995371" lon="11.5708224"><ele>793.0</ele><time>2026-04-26T09:50:25.611Z</time></trkpt><trkpt lat="43.7994663" lon="11.5708228"><ele>793.6666666666667</ele><time>2026-04-26T09:50:28.607Z</time></trkpt><trkpt lat="43.7993893" lon="11.5708095"><ele>794.3333333333334</ele><time>2026-04-26T09:50:31.617Z</time></trkpt><trkpt lat="43.7993082" lon="11.5707842"><ele>795.0</ele><time>2026-04-26T09:50:35.607Z</time></trkpt><trkpt lat="43.7992259" lon="11.5707624"><ele>798.5</ele><time>2026-04-26T09:50:38.595Z</time></trkpt><trkpt lat="43.7991498" lon="11.5707321"><ele>802.0</ele><time>2026-04-26T09:50:42.602Z</time></trkpt><trkpt lat="43.7990905" lon="11.5706834"><ele>805.5</ele><time>2026-04-26T09:50:46.601Z</time></trkpt><trkpt lat="43.7990276" lon="11.5706572"><ele>809.0</ele><time>2026-04-26T09:50:49.606Z</time></trkpt><trkpt lat="43.7989553" lon="11.5706762"><ele>812.5</ele><time>2026-04-26T09:50:52.602Z</time></trkpt><trkpt lat="43.7988799" lon="11.5707109"><ele>816.0</ele><time>2026-04-26T09:50:55.604Z</time></trkpt><trkpt lat="43.7988005" lon="11.5707463"><ele>816.0</ele><time>2026-04-26T09:50:58.593Z</time></trkpt><trkpt lat="43.7987242" lon="11.5707781"><ele>816.0</ele><time>2026-04-26T09:51:01.586Z</time></trkpt><trkpt lat="43.7986405" lon="11.5707999"><ele>816.0</ele><time>2026-04-26T09:51:04.587Z</time></trkpt><trkpt lat="43.7985693" lon="11.5708432"><ele>816.0</ele><time>2026-04-26T09:51:08.591Z</time></trkpt><trkpt lat="43.798499" lon="11.5708924"><ele>816.0</ele><time>2026-04-26T09:51:11.588Z</time></trkpt><trkpt lat="43.7984326" lon="11.5709561"><ele>816.0</ele><time>2026-04-26T09:51:14.583Z</time></trkpt><trkpt lat="43.7983785" lon="11.57101"><ele>815.3333333333334</ele><time>2026-04-26T09:51:16.58Z</time></trkpt><trkpt lat="43.7983344" lon="11.571078"><ele>814.6666666666667</ele><time>2026-04-26T09:51:18.591Z</time></trkpt><trkpt lat="43.7982759" lon="11.5711735"><ele>814.0</ele><time>2026-04-26T09:51:21.58Z</time></trkpt><trkpt lat="43.7982092" lon="11.5712476"><ele>813.3333333333334</ele><time>2026-04-26T09:51:24.594Z</time></trkpt><trkpt lat="43.7981417" lon="11.5712809"><ele>812.6666666666667</ele><time>2026-04-26T09:51:27.584Z</time></trkpt><trkpt lat="43.7980499" lon="11.5712503"><ele>812.0</ele><time>2026-04-26T09:51:30.583Z</time></trkpt><trkpt lat="43.797971" lon="11.5712231"><ele>814.6666666666667</ele><time>2026-04-26T09:51:33.59Z</time></trkpt><trkpt lat="43.7978973" lon="11.5712994"><ele>817.3333333333334</ele><time>2026-04-26T09:51:36.577Z</time></trkpt><trkpt lat="43.7978644" lon="11.5713793"><ele>820.0</ele><time>2026-04-26T09:51:38.583Z</time></trkpt><trkpt lat="43.7978097" lon="11.5714793"><ele>822.6666666666667</ele><time>2026-04-26T09:51:41.579Z</time></trkpt><trkpt lat="43.7977346" lon="11.5715451"><ele>825.3333333333334</ele><time>2026-04-26T09:51:44.587Z</time></trkpt><trkpt lat="43.7976627" lon="11.5715591"><ele>828.0</ele><time>2026-04-26T09:51:47.591Z</time></trkpt><trkpt lat="43.797578" lon="11.571583"><ele>828.0</ele><time>2026-04-26T09:51:50.59Z</time></trkpt><trkpt lat="43.7974949" lon="11.5716389"><ele>828.0</ele><time>2026-04-26T09:51:53.583Z</time></trkpt><trkpt lat="43.7974144" lon="11.5716739"><ele>828.0</ele><time>2026-04-26T09:51:56.611Z</time></trkpt><trkpt lat="43.7973556" lon="11.5717062"><ele>828.0</ele><time>2026-04-26T09:51:58.584Z</time></trkpt><trkpt lat="43.7972684" lon="11.5717254"><ele>828.0</ele><time>2026-04-26T09:52:01.588Z</time></trkpt><trkpt lat="43.7971901" lon="11.5717786"><ele>828.0</ele><time>2026-04-26T09:52:04.595Z</time></trkpt><trkpt lat="43.7971181" lon="11.5718445"><ele>828.0</ele><time>2026-04-26T09:52:07.59Z</time></trkpt><trkpt lat="43.7970488" lon="11.5718835"><ele>828.0</ele><time>2026-04-26T09:52:10.596Z</time></trkpt><trkpt lat="43.7969747" lon="11.5719184"><ele>828.0</ele><time>2026-04-26T09:52:13.575Z</time></trkpt><trkpt lat="43.7969008" lon="11.5719623"><ele>828.0</ele><time>2026-04-26T09:52:16.586Z</time></trkpt><trkpt lat="43.7968212" lon="11.5720235"><ele>828.0</ele><time>2026-04-26T09:52:19.582Z</time></trkpt><trkpt lat="43.7967884" lon="11.5721107"><ele>828.0</ele><time>2026-04-26T09:52:21.588Z</time></trkpt><trkpt lat="43.7967484" lon="11.572226"><ele>829.4285714285714</ele><time>2026-04-26T09:52:24.59Z</time></trkpt><trkpt lat="43.7967425" lon="11.5723267"><ele>830.8571428571429</ele><time>2026-04-26T09:52:26.594Z</time></trkpt><trkpt lat="43.7967291" lon="11.5724529"><ele>832.2857142857142</ele><time>2026-04-26T09:52:29.59Z</time></trkpt><trkpt lat="43.796705" lon="11.5725339"><ele>833.7142857142858</ele><time>2026-04-26T09:52:32.581Z</time></trkpt><trkpt lat="43.7966566" lon="11.5726081"><ele>835.1428571428571</ele><time>2026-04-26T09:52:35.595Z</time></trkpt><trkpt lat="43.7965924" lon="11.5726619"><ele>836.5714285714286</ele><time>2026-04-26T09:52:38.601Z</time></trkpt><trkpt lat="43.7965269" lon="11.5726821"><ele>838.0</ele><time>2026-04-26T09:52:42.59Z</time></trkpt><trkpt lat="43.7964629" lon="11.5726456"><ele>837.9999999999999</ele><time>2026-04-26T09:52:50.594Z</time></trkpt><trkpt lat="43.7963879" lon="11.5726278"><ele>838.0</ele><time>2026-04-26T09:52:53.596Z</time></trkpt><trkpt lat="43.7963216" lon="11.5726304"><ele>838.0</ele><time>2026-04-26T09:52:56.594Z</time></trkpt><trkpt lat="43.7962481" lon="11.5726331"><ele>838.0</ele><time>2026-04-26T09:52:59.594Z</time></trkpt><trkpt lat="43.7961736" lon="11.5726449"><ele>838.0</ele><time>2026-04-26T09:53:03.587Z</time></trkpt><trkpt lat="43.7961035" lon="11.5726386"><ele>837.9999999999999</ele><time>2026-04-26T09:53:06.585Z</time></trkpt><trkpt lat="43.7960342" lon="11.5726569"><ele>838.0</ele><time>2026-04-26T09:53:09.595Z</time></trkpt><trkpt lat="43.7959654" lon="11.5726749"><ele>838.4285714285713</ele><time>2026-04-26T09:53:12.594Z</time></trkpt><trkpt lat="43.795898" lon="11.5726953"><ele>838.8571428571429</ele><time>2026-04-26T09:53:15.58Z</time></trkpt><trkpt lat="43.7958359" lon="11.5727356"><ele>839.2857142857142</ele><time>2026-04-26T09:53:18.608Z</time></trkpt><trkpt lat="43.7957705" lon="11.5727904"><ele>839.7142857142857</ele><time>2026-04-26T09:53:22.593Z</time></trkpt><trkpt lat="43.7956995" lon="11.5728392"><ele>840.1428571428571</ele><time>2026-04-26T09:53:27.579Z</time></trkpt><trkpt lat="43.7956375" lon="11.5728557"><ele>840.5714285714286</ele><time>2026-04-26T09:53:30.583Z</time></trkpt><trkpt lat="43.7955574" lon="11.572838"><ele>841.0</ele><time>2026-04-26T09:53:34.589Z</time></trkpt><trkpt lat="43.7954782" lon="11.572804"><ele>840.9999999999999</ele><time>2026-04-26T09:53:38.592Z</time></trkpt><trkpt lat="43.7954133" lon="11.5728245"><ele>841.0</ele><time>2026-04-26T09:53:42.59Z</time></trkpt><trkpt lat="43.7953607" lon="11.5728909"><ele>841.0</ele><time>2026-04-26T09:53:45.59Z</time></trkpt><trkpt lat="43.7953206" lon="11.5729856"><ele>841.0</ele><time>2026-04-26T09:53:48.581Z</time></trkpt><trkpt lat="43.7952905" lon="11.5730875"><ele>840.9999999999999</ele><time>2026-04-26T09:53:51.593Z</time></trkpt><trkpt lat="43.79528" lon="11.5732079"><ele>841.0</ele><time>2026-04-26T09:53:54.592Z</time></trkpt><trkpt lat="43.7952732" lon="11.5733027"><ele>843.5714285714286</ele><time>2026-04-26T09:53:57.581Z</time></trkpt><trkpt lat="43.7952582" lon="11.573392"><ele>846.1428571428571</ele><time>2026-04-26T09:54:00.588Z</time></trkpt><trkpt lat="43.7952412" lon="11.5734815"><ele>848.7142857142857</ele><time>2026-04-26T09:54:03.596Z</time></trkpt><trkpt lat="43.7952346" lon="11.5735721"><ele>851.2857142857142</ele><time>2026-04-26T09:54:06.584Z</time></trkpt><trkpt lat="43.7951949" lon="11.5736928"><ele>853.8571428571429</ele><time>2026-04-26T09:54:10.581Z</time></trkpt><trkpt lat="43.7951562" lon="11.5737819"><ele>856.4285714285713</ele><time>2026-04-26T09:54:14.584Z</time></trkpt><trkpt lat="43.7951142" lon="11.5738606"><ele>859.0</ele><time>2026-04-26T09:54:18.584Z</time></trkpt><trkpt lat="43.7950655" lon="11.5739228"><ele>860.2857142857142</ele><time>2026-04-26T09:54:22.61Z</time></trkpt><trkpt lat="43.7950248" lon="11.5740132"><ele>861.5714285714286</ele><time>2026-04-26T09:54:26.582Z</time></trkpt><trkpt lat="43.7949777" lon="11.5740746"><ele>862.8571428571429</ele><time>2026-04-26T09:54:28.604Z</time></trkpt><trkpt lat="43.7949062" lon="11.5740999"><ele>864.1428571428571</ele><time>2026-04-26T09:54:32.576Z</time></trkpt><trkpt lat="43.794818" lon="11.5741049"><ele>865.4285714285714</ele><time>2026-04-26T09:54:36.578Z</time></trkpt><trkpt lat="43.7947521" lon="11.5740975"><ele>866.7142857142857</ele><time>2026-04-26T09:54:40.592Z</time></trkpt><trkpt lat="43.794676" lon="11.5741091"><ele>868.0</ele><time>2026-04-26T09:54:45.584Z</time></trkpt><trkpt lat="43.7946106" lon="11.5741248"><ele>867.9999999999999</ele><time>2026-04-26T09:54:50.58Z</time></trkpt><trkpt lat="43.7945487" lon="11.5741653"><ele>868.0</ele><time>2026-04-26T09:55:51.59Z</time></trkpt><trkpt lat="43.7946037" lon="11.5742473"><ele>868.0</ele><time>2026-04-26T09:55:55.586Z</time></trkpt><trkpt lat="43.7946758" lon="11.574305"><ele>868.0</ele><time>2026-04-26T09:55:58.568Z</time></trkpt><trkpt lat="43.7947402" lon="11.574388"><ele>867.9999999999999</ele><time>2026-04-26T09:56:01.577Z</time></trkpt><trkpt lat="43.7948004" lon="11.5744294"><ele>868.0</ele><time>2026-04-26T09:56:03.582Z</time></trkpt><trkpt lat="43.7948667" lon="11.5744542"><ele>867.9999999999999</ele><time>2026-04-26T09:56:05.59Z</time></trkpt><trkpt lat="43.7949384" lon="11.5744572"><ele>868.0</ele><time>2026-04-26T09:56:07.586Z</time></trkpt><trkpt lat="43.7950144" lon="11.5744563"><ele>868.0</ele><time>2026-04-26T09:56:09.581Z</time></trkpt><trkpt lat="43.7951069" lon="11.5744387"><ele>868.0</ele><time>2026-04-26T09:56:11.581Z</time></trkpt><trkpt lat="43.7951862" lon="11.5744053"><ele>867.9999999999999</ele><time>2026-04-26T09:56:13.593Z</time></trkpt><trkpt lat="43.7952592" lon="11.5743852"><ele>868.0</ele><time>2026-04-26T09:56:15.586Z</time></trkpt><trkpt lat="43.795356" lon="11.5743517"><ele>868.4285714285714</ele><time>2026-04-26T09:56:18.595Z</time></trkpt><trkpt lat="43.7954431" lon="11.5743444"><ele>868.8571428571429</ele><time>2026-04-26T09:56:21.592Z</time></trkpt><trkpt lat="43.7955271" lon="11.5743602"><ele>869.2857142857142</ele><time>2026-04-26T09:56:24.591Z</time></trkpt><trkpt lat="43.7955893" lon="11.5743863"><ele>869.7142857142858</ele><time>2026-04-26T09:56:26.591Z</time></trkpt><trkpt lat="43.7956417" lon="11.5744362"><ele>870.1428571428571</ele><time>2026-04-26T09:56:28.59Z</time></trkpt><trkpt lat="43.7956818" lon="11.5745129"><ele>870.5714285714286</ele><time>2026-04-26T09:56:30.582Z</time></trkpt><trkpt lat="43.7957158" lon="11.5746037"><ele>871.0</ele><time>2026-04-26T09:56:32.59Z</time></trkpt><trkpt lat="43.7957584" lon="11.5746977"><ele>871.9999999999999</ele><time>2026-04-26T09:56:34.59Z</time></trkpt><trkpt lat="43.7958249" lon="11.5748388"><ele>873.0</ele><time>2026-04-26T09:56:36.59Z</time></trkpt><trkpt lat="43.7958638" lon="11.5749318"><ele>874.0</ele><time>2026-04-26T09:56:38.579Z</time></trkpt><trkpt lat="43.7959053" lon="11.5750087"><ele>875.0</ele><time>2026-04-26T09:56:40.575Z</time></trkpt><trkpt lat="43.7959466" lon="11.5750861"><ele>875.9999999999999</ele><time>2026-04-26T09:56:42.575Z</time></trkpt><trkpt lat="43.7959855" lon="11.5751654"><ele>877.0</ele><time>2026-04-26T09:56:44.588Z</time></trkpt><trkpt lat="43.796027" lon="11.5752427"><ele>877.4999999999999</ele><time>2026-04-26T09:56:46.576Z</time></trkpt><trkpt lat="43.7960747" lon="11.5753069"><ele>878.0</ele><time>2026-04-26T09:56:48.577Z</time></trkpt><trkpt lat="43.7961293" lon="11.5753951"><ele>878.5</ele><time>2026-04-26T09:56:51.573Z</time></trkpt><trkpt lat="43.7961759" lon="11.575483"><ele>879.0</ele><time>2026-04-26T09:56:54.58Z</time></trkpt><trkpt lat="43.7962296" lon="11.5755728"><ele>879.4999999999999</ele><time>2026-04-26T09:56:57.582Z</time></trkpt><trkpt lat="43.7962989" lon="11.5756571"><ele>880.0</ele><time>2026-04-26T09:57:00.567Z</time></trkpt><trkpt lat="43.7963633" lon="11.5756754"><ele>881.6666666666666</ele><time>2026-04-26T09:57:02.569Z</time></trkpt><trkpt lat="43.7964266" lon="11.5756766"><ele>883.3333333333333</ele><time>2026-04-26T09:57:04.577Z</time></trkpt><trkpt lat="43.7965154" lon="11.5756883"><ele>885.0</ele><time>2026-04-26T09:57:07.576Z</time></trkpt><trkpt lat="43.7966079" lon="11.5757104"><ele>886.6666666666667</ele><time>2026-04-26T09:57:10.574Z</time></trkpt><trkpt lat="43.7966778" lon="11.5757125"><ele>888.3333333333334</ele><time>2026-04-26T09:57:12.581Z</time></trkpt><trkpt lat="43.7967452" lon="11.5757151"><ele>890.0</ele><time>2026-04-26T09:57:14.581Z</time></trkpt><trkpt lat="43.7968354" lon="11.5757082"><ele>890.8333333333334</ele><time>2026-04-26T09:57:17.578Z</time></trkpt><trkpt lat="43.7969183" lon="11.5756892"><ele>891.6666666666667</ele><time>2026-04-26T09:57:20.577Z</time></trkpt><trkpt lat="43.7969992" lon="11.5756654"><ele>892.5</ele><time>2026-04-26T09:57:23.583Z</time></trkpt><trkpt lat="43.7970824" lon="11.5756439"><ele>893.3333333333333</ele><time>2026-04-26T09:57:26.581Z</time></trkpt><trkpt lat="43.7971697" lon="11.575642"><ele>894.1666666666666</ele><time>2026-04-26T09:57:29.586Z</time></trkpt><trkpt lat="43.7972559" lon="11.5756561"><ele>895.0</ele><time>2026-04-26T09:57:32.588Z</time></trkpt><trkpt lat="43.7973483" lon="11.5756518"><ele>894.9999999999999</ele><time>2026-04-26T09:57:35.591Z</time></trkpt><trkpt lat="43.7974285" lon="11.5756151"><ele>895.0</ele><time>2026-04-26T09:57:38.583Z</time></trkpt><trkpt lat="43.7974993" lon="11.5755696"><ele>895.0</ele><time>2026-04-26T09:57:41.581Z</time></trkpt><trkpt lat="43.7975715" lon="11.5754929"><ele>895.0</ele><time>2026-04-26T09:57:44.575Z</time></trkpt><trkpt lat="43.7976293" lon="11.5754314"><ele>894.9999999999999</ele><time>2026-04-26T09:57:46.584Z</time></trkpt><trkpt lat="43.7976827" lon="11.5753753"><ele>895.0</ele><time>2026-04-26T09:57:48.598Z</time></trkpt><trkpt lat="43.7977542" lon="11.5753413"><ele>894.7142857142857</ele><time>2026-04-26T09:57:51.595Z</time></trkpt><trkpt lat="43.7978167" lon="11.57533"><ele>894.4285714285714</ele><time>2026-04-26T09:57:54.59Z</time></trkpt><trkpt lat="43.7978824" lon="11.5753261"><ele>894.1428571428571</ele><time>2026-04-26T09:57:56.591Z</time></trkpt><trkpt lat="43.7979531" lon="11.5753305"><ele>893.8571428571429</ele><time>2026-04-26T09:58:01.607Z</time></trkpt><trkpt lat="43.7980146" lon="11.5753666"><ele>893.5714285714287</ele><time>2026-04-26T09:58:05.593Z</time></trkpt><trkpt lat="43.798085" lon="11.5753953"><ele>893.2857142857143</ele><time>2026-04-26T09:58:08.595Z</time></trkpt><trkpt lat="43.7981624" lon="11.5754466"><ele>893.0</ele><time>2026-04-26T09:58:11.584Z</time></trkpt><trkpt lat="43.7982195" lon="11.5755096"><ele>893.0</ele><time>2026-04-26T09:58:14.594Z</time></trkpt><trkpt lat="43.7982727" lon="11.5755716"><ele>893.0</ele><time>2026-04-26T09:58:17.592Z</time></trkpt><trkpt lat="43.7983238" lon="11.5756534"><ele>893.0</ele><time>2026-04-26T09:58:20.595Z</time></trkpt><trkpt lat="43.7983852" lon="11.5757429"><ele>893.0</ele><time>2026-04-26T09:58:23.602Z</time></trkpt><trkpt lat="43.79843" lon="11.575813"><ele>893.0</ele><time>2026-04-26T09:58:26.601Z</time></trkpt><trkpt lat="43.7984813" lon="11.5758783"><ele>893.0</ele><time>2026-04-26T09:58:29.596Z</time></trkpt><trkpt lat="43.7985383" lon="11.575942"><ele>893.0</ele><time>2026-04-26T09:58:32.603Z</time></trkpt><trkpt lat="43.798595" lon="11.5760299"><ele>893.0000000000001</ele><time>2026-04-26T09:58:35.597Z</time></trkpt><trkpt lat="43.7985182" lon="11.576059"><ele>893.0</ele><time>2026-04-26T09:58:42.595Z</time></trkpt><trkpt lat="43.7984485" lon="11.5760181"><ele>893.0</ele><time>2026-04-26T09:58:45.591Z</time></trkpt><trkpt lat="43.7983704" lon="11.5759658"><ele>893.0</ele><time>2026-04-26T09:58:48.594Z</time></trkpt><trkpt lat="43.7983037" lon="11.5758904"><ele>893.0000000000001</ele><time>2026-04-26T09:58:51.604Z</time></trkpt><trkpt lat="43.7982342" lon="11.5758164"><ele>893.0</ele><time>2026-04-26T09:58:54.6Z</time></trkpt><trkpt lat="43.7981716" lon="11.57579"><ele>893.0000000000001</ele><time>2026-04-26T09:58:56.603Z</time></trkpt><trkpt lat="43.7980876" lon="11.5757968"><ele>893.0</ele><time>2026-04-26T09:58:59.607Z</time></trkpt><trkpt lat="43.7980025" lon="11.5758146"><ele>893.0</ele><time>2026-04-26T09:59:02.601Z</time></trkpt><trkpt lat="43.7979347" lon="11.5758529"><ele>893.0</ele><time>2026-04-26T09:59:04.597Z</time></trkpt><trkpt lat="43.7978966" lon="11.5759458"><ele>893.0000000000001</ele><time>2026-04-26T09:59:06.6Z</time></trkpt><trkpt lat="43.7978691" lon="11.5760586"><ele>893.0</ele><time>2026-04-26T09:59:09.599Z</time></trkpt><trkpt lat="43.797806" lon="11.576134"><ele>892.5999999999999</ele><time>2026-04-26T09:59:12.598Z</time></trkpt><trkpt lat="43.7977615" lon="11.5762469"><ele>892.1999999999999</ele><time>2026-04-26T09:59:15.601Z</time></trkpt><trkpt lat="43.7977141" lon="11.5763484"><ele>891.8</ele><time>2026-04-26T09:59:18.591Z</time></trkpt><trkpt lat="43.7976928" lon="11.5764658"><ele>891.4</ele><time>2026-04-26T09:59:21.601Z</time></trkpt><trkpt lat="43.7976354" lon="11.5765618"><ele>891.0</ele><time>2026-04-26T09:59:24.594Z</time></trkpt><trkpt lat="43.7975483" lon="11.5766133"><ele>893.3333333333334</ele><time>2026-04-26T09:59:27.608Z</time></trkpt><trkpt lat="43.7974793" lon="11.5766609"><ele>895.6666666666667</ele><time>2026-04-26T09:59:30.594Z</time></trkpt><trkpt lat="43.7974074" lon="11.5767174"><ele>898.0</ele><time>2026-04-26T09:59:33.598Z</time></trkpt><trkpt lat="43.797372" lon="11.5768216"><ele>900.3333333333334</ele><time>2026-04-26T09:59:36.596Z</time></trkpt><trkpt lat="43.7973559" lon="11.5769074"><ele>902.6666666666667</ele><time>2026-04-26T09:59:38.604Z</time></trkpt><trkpt lat="43.7973028" lon="11.5769941"><ele>905.0</ele><time>2026-04-26T09:59:42.595Z</time></trkpt><trkpt lat="43.7972449" lon="11.5770517"><ele>905.0000000000001</ele><time>2026-04-26T09:59:45.591Z</time></trkpt><trkpt lat="43.7971765" lon="11.577119"><ele>905.0</ele><time>2026-04-26T09:59:48.593Z</time></trkpt><trkpt lat="43.7971137" lon="11.5772021"><ele>905.0</ele><time>2026-04-26T09:59:51.594Z</time></trkpt><trkpt lat="43.7970697" lon="11.5772667"><ele>905.0</ele><time>2026-04-26T09:59:53.596Z</time></trkpt><trkpt lat="43.7970365" lon="11.5773815"><ele>905.0000000000001</ele><time>2026-04-26T09:59:56.582Z</time></trkpt><trkpt lat="43.7970398" lon="11.5775012"><ele>905.0</ele><time>2026-04-26T09:59:59.606Z</time></trkpt><trkpt lat="43.7970467" lon="11.5775929"><ele>905.0000000000001</ele><time>2026-04-26T10:00:01.59Z</time></trkpt><trkpt lat="43.7970515" lon="11.5777092"><ele>905.0</ele><time>2026-04-26T10:00:04.6Z</time></trkpt><trkpt lat="43.7970468" lon="11.5778084"><ele>905.0</ele><time>2026-04-26T10:00:07.602Z</time></trkpt><trkpt lat="43.7970211" lon="11.5779288"><ele>905.0</ele><time>2026-04-26T10:00:10.605Z</time></trkpt><trkpt lat="43.7969896" lon="11.5780279"><ele>905.0000000000001</ele><time>2026-04-26T10:00:13.61Z</time></trkpt><trkpt lat="43.7969588" lon="11.5781043"><ele>905.0</ele><time>2026-04-26T10:00:15.604Z</time></trkpt><trkpt lat="43.7968977" lon="11.5781787"><ele>904.1666666666667</ele><time>2026-04-26T10:00:18.592Z</time></trkpt><trkpt lat="43.7968412" lon="11.5782428"><ele>903.3333333333334</ele><time>2026-04-26T10:00:21.611Z</time></trkpt><trkpt lat="43.7967737" lon="11.5783138"><ele>902.5</ele><time>2026-04-26T10:00:24.585Z</time></trkpt><trkpt lat="43.7966973" lon="11.5783435"><ele>901.6666666666667</ele><time>2026-04-26T10:00:27.597Z</time></trkpt><trkpt lat="43.7966344" lon="11.5783236"><ele>900.8333333333334</ele><time>2026-04-26T10:00:29.607Z</time></trkpt><trkpt lat="43.7965554" lon="11.5782591"><ele>900.0</ele><time>2026-04-26T10:00:32.587Z</time></trkpt><trkpt lat="43.796487" lon="11.5781752"><ele>905.8333333333334</ele><time>2026-04-26T10:00:35.599Z</time></trkpt><trkpt lat="43.7964261" lon="11.5781093"><ele>911.6666666666667</ele><time>2026-04-26T10:00:38.619Z</time></trkpt><trkpt lat="43.7963497" lon="11.578114"><ele>917.5</ele><time>2026-04-26T10:00:41.593Z</time></trkpt><trkpt lat="43.7962729" lon="11.5781166"><ele>923.3333333333334</ele><time>2026-04-26T10:00:44.605Z</time></trkpt><trkpt lat="43.7961964" lon="11.5781158"><ele>929.1666666666667</ele><time>2026-04-26T10:00:47.598Z</time></trkpt><trkpt lat="43.7961246" lon="11.5781148"><ele>935.0</ele><time>2026-04-26T10:00:49.6Z</time></trkpt><trkpt lat="43.7960314" lon="11.5781207"><ele>937.857142857143</ele><time>2026-04-26T10:00:52.599Z</time></trkpt><trkpt lat="43.7959639" lon="11.5781301"><ele>940.7142857142858</ele><time>2026-04-26T10:00:54.595Z</time></trkpt><trkpt lat="43.7959015" lon="11.5781481"><ele>943.5714285714286</ele><time>2026-04-26T10:00:56.585Z</time></trkpt><trkpt lat="43.7958398" lon="11.5781767"><ele>946.4285714285714</ele><time>2026-04-26T10:00:58.601Z</time></trkpt><trkpt lat="43.7957735" lon="11.578216"><ele>949.2857142857142</ele><time>2026-04-26T10:01:00.603Z</time></trkpt><trkpt lat="43.7956864" lon="11.5782614"><ele>952.142857142857</ele><time>2026-04-26T10:01:03.589Z</time></trkpt><trkpt lat="43.7956067" lon="11.5782787"><ele>954.9999999999999</ele><time>2026-04-26T10:01:06.598Z</time></trkpt><trkpt lat="43.7955247" lon="11.5783353"><ele>954.9999999999999</ele><time>2026-04-26T10:01:09.602Z</time></trkpt><trkpt lat="43.7954562" lon="11.5783577"><ele>955.0</ele><time>2026-04-26T10:01:12.597Z</time></trkpt><trkpt lat="43.7953924" lon="11.5783745"><ele>955.0</ele><time>2026-04-26T10:01:14.599Z</time></trkpt><trkpt lat="43.7953133" lon="11.5784028"><ele>955.0</ele><time>2026-04-26T10:01:17.595Z</time></trkpt><trkpt lat="43.7952547" lon="11.5784378"><ele>954.9999999999999</ele><time>2026-04-26T10:01:19.595Z</time></trkpt><trkpt lat="43.7951865" lon="11.5785129"><ele>955.0</ele><time>2026-04-26T10:01:22.6Z</time></trkpt><trkpt lat="43.7951554" lon="11.5786277"><ele>958.1666666666666</ele><time>2026-04-26T10:01:25.599Z</time></trkpt><trkpt lat="43.7951339" lon="11.5787163"><ele>961.3333333333333</ele><time>2026-04-26T10:01:28.602Z</time></trkpt><trkpt lat="43.7951225" lon="11.5788472"><ele>964.5</ele><time>2026-04-26T10:01:31.597Z</time></trkpt><trkpt lat="43.7950993" lon="11.578976"><ele>967.6666666666667</ele><time>2026-04-26T10:01:34.601Z</time></trkpt><trkpt lat="43.7950702" lon="11.579098"><ele>970.8333333333334</ele><time>2026-04-26T10:01:37.603Z</time></trkpt><trkpt lat="43.7950124" lon="11.5791798"><ele>974.0</ele><time>2026-04-26T10:01:40.604Z</time></trkpt><trkpt lat="43.794951" lon="11.5792272"><ele>974.0000000000001</ele><time>2026-04-26T10:01:43.62Z</time></trkpt><trkpt lat="43.7948772" lon="11.5792983"><ele>974.0</ele><time>2026-04-26T10:01:46.606Z</time></trkpt><trkpt lat="43.7948176" lon="11.5793577"><ele>974.0</ele><time>2026-04-26T10:01:49.606Z</time></trkpt><trkpt lat="43.7947702" lon="11.579422"><ele>974.0</ele><time>2026-04-26T10:01:52.603Z</time></trkpt><trkpt lat="43.7947083" lon="11.5794837"><ele>974.0000000000001</ele><time>2026-04-26T10:01:54.591Z</time></trkpt><trkpt lat="43.7946472" lon="11.5795324"><ele>974.0</ele><time>2026-04-26T10:01:57.598Z</time></trkpt><trkpt lat="43.7945849" lon="11.5795923"><ele>972.5000000000001</ele><time>2026-04-26T10:02:01.596Z</time></trkpt><trkpt lat="43.7945239" lon="11.5796401"><ele>971.0</ele><time>2026-04-26T10:02:03.604Z</time></trkpt><trkpt lat="43.7944611" lon="11.5796767"><ele>969.5</ele><time>2026-04-26T10:02:06.595Z</time></trkpt><trkpt lat="43.7943717" lon="11.5797025"><ele>968.0</ele><time>2026-04-26T10:02:09.594Z</time></trkpt><trkpt lat="43.7943025" lon="11.5797549"><ele>966.5000000000001</ele><time>2026-04-26T10:02:13.598Z</time></trkpt><trkpt lat="43.7942282" lon="11.5797997"><ele>965.0</ele><time>2026-04-26T10:02:16.604Z</time></trkpt><trkpt lat="43.794155" lon="11.5798313"><ele>968.6666666666667</ele><time>2026-04-26T10:02:19.601Z</time></trkpt><trkpt lat="43.7941015" lon="11.5798929"><ele>972.3333333333334</ele><time>2026-04-26T10:02:21.597Z</time></trkpt><trkpt lat="43.7940404" lon="11.5799394"><ele>976.0</ele><time>2026-04-26T10:02:24.592Z</time></trkpt><trkpt lat="43.7939756" lon="11.5799814"><ele>979.6666666666667</ele><time>2026-04-26T10:02:27.595Z</time></trkpt><trkpt lat="43.7939079" lon="11.5800218"><ele>983.3333333333334</ele><time>2026-04-26T10:02:30.593Z</time></trkpt><trkpt lat="43.7938282" lon="11.5800912"><ele>987.0</ele><time>2026-04-26T10:02:33.607Z</time></trkpt><trkpt lat="43.793775" lon="11.5801602"><ele>987.0</ele><time>2026-04-26T10:02:35.6Z</time></trkpt><trkpt lat="43.7937143" lon="11.5802543"><ele>987.0</ele><time>2026-04-26T10:02:38.599Z</time></trkpt><trkpt lat="43.7936679" lon="11.5803205"><ele>987.0</ele><time>2026-04-26T10:02:40.602Z</time></trkpt><trkpt lat="43.7936257" lon="11.5803943"><ele>987.0</ele><time>2026-04-26T10:02:42.611Z</time></trkpt><trkpt lat="43.7935632" lon="11.5804939"><ele>987.0</ele><time>2026-04-26T10:02:45.595Z</time></trkpt><trkpt lat="43.7935012" lon="11.5805917"><ele>987.0</ele><time>2026-04-26T10:02:48.603Z</time></trkpt><trkpt lat="43.7934498" lon="11.5806455"><ele>988.3333333333334</ele><time>2026-04-26T10:02:50.601Z</time></trkpt><trkpt lat="43.7933883" lon="11.5807354"><ele>989.6666666666667</ele><time>2026-04-26T10:02:53.606Z</time></trkpt><trkpt lat="43.7933411" lon="11.5808141"><ele>991.0</ele><time>2026-04-26T10:02:56.603Z</time></trkpt><trkpt lat="43.7932887" lon="11.5808909"><ele>992.3333333333334</ele><time>2026-04-26T10:03:00.597Z</time></trkpt><trkpt lat="43.7932277" lon="11.5809537"><ele>993.6666666666667</ele><time>2026-04-26T10:03:03.608Z</time></trkpt><trkpt lat="43.7931685" lon="11.5810165"><ele>995.0</ele><time>2026-04-26T10:03:06.598Z</time></trkpt><trkpt lat="43.7930962" lon="11.5810804"><ele>995.0</ele><time>2026-04-26T10:03:09.616Z</time></trkpt><trkpt lat="43.7930313" lon="11.5811502"><ele>995.0</ele><time>2026-04-26T10:03:12.599Z</time></trkpt><trkpt lat="43.7929719" lon="11.5812029"><ele>995.0</ele><time>2026-04-26T10:03:14.598Z</time></trkpt><trkpt lat="43.7929153" lon="11.5812682"><ele>995.0</ele><time>2026-04-26T10:03:16.6Z</time></trkpt><trkpt lat="43.7928567" lon="11.5813217"><ele>995.0</ele><time>2026-04-26T10:03:18.607Z</time></trkpt><trkpt lat="43.7927858" lon="11.581382"><ele>995.0</ele><time>2026-04-26T10:03:22.602Z</time></trkpt><trkpt lat="43.7927317" lon="11.5814368"><ele>995.0</ele><time>2026-04-26T10:03:24.596Z</time></trkpt><trkpt lat="43.7926632" lon="11.5814974"><ele>994.8333333333334</ele><time>2026-04-26T10:03:26.6Z</time></trkpt><trkpt lat="43.7925766" lon="11.5815769"><ele>994.6666666666667</ele><time>2026-04-26T10:03:28.597Z</time></trkpt><trkpt lat="43.7925181" lon="11.5816277"><ele>994.5</ele><time>2026-04-26T10:03:30.598Z</time></trkpt><trkpt lat="43.7924531" lon="11.5816786"><ele>994.3333333333333</ele><time>2026-04-26T10:03:32.595Z</time></trkpt><trkpt lat="43.7923833" lon="11.5817156"><ele>994.1666666666666</ele><time>2026-04-26T10:03:34.6Z</time></trkpt><trkpt lat="43.792322" lon="11.5817433"><ele>994.0</ele><time>2026-04-26T10:03:36.605Z</time></trkpt><trkpt lat="43.7922543" lon="11.5817983"><ele>994.0</ele><time>2026-04-26T10:03:39.598Z</time></trkpt><trkpt lat="43.7921937" lon="11.5818454"><ele>994.0</ele><time>2026-04-26T10:03:41.612Z</time></trkpt><trkpt lat="43.792118" lon="11.581894"><ele>994.0</ele><time>2026-04-26T10:03:44.607Z</time></trkpt><trkpt lat="43.7920578" lon="11.5819281"><ele>994.0</ele><time>2026-04-26T10:03:46.61Z</time></trkpt><trkpt lat="43.7919927" lon="11.5819636"><ele>994.0</ele><time>2026-04-26T10:03:49.606Z</time></trkpt><trkpt lat="43.7919199" lon="11.5819639"><ele>994.0</ele><time>2026-04-26T10:03:52.604Z</time></trkpt><trkpt lat="43.7918494" lon="11.5819941"><ele>994.0</ele><time>2026-04-26T10:03:55.61Z</time></trkpt><trkpt lat="43.7917601" lon="11.5820128"><ele>992.5714285714286</ele><time>2026-04-26T10:03:58.609Z</time></trkpt><trkpt lat="43.7916914" lon="11.5820225"><ele>991.1428571428571</ele><time>2026-04-26T10:04:00.604Z</time></trkpt><trkpt lat="43.791626" lon="11.5820375"><ele>989.7142857142858</ele><time>2026-04-26T10:04:02.605Z</time></trkpt><trkpt lat="43.7915576" lon="11.5820534"><ele>988.2857142857143</ele><time>2026-04-26T10:04:04.611Z</time></trkpt><trkpt lat="43.7914963" lon="11.582074"><ele>986.8571428571429</ele><time>2026-04-26T10:04:06.609Z</time></trkpt><trkpt lat="43.7914297" lon="11.5820845"><ele>985.4285714285716</ele><time>2026-04-26T10:04:08.609Z</time></trkpt><trkpt lat="43.7913284" lon="11.5820739"><ele>984.0000000000001</ele><time>2026-04-26T10:04:11.605Z</time></trkpt><trkpt lat="43.791246" lon="11.5820804"><ele>984.0</ele><time>2026-04-26T10:04:14.594Z</time></trkpt><trkpt lat="43.7911724" lon="11.5820716"><ele>984.0</ele><time>2026-04-26T10:04:16.604Z</time></trkpt><trkpt lat="43.7910706" lon="11.5820782"><ele>984.0</ele><time>2026-04-26T10:04:19.609Z</time></trkpt><trkpt lat="43.7909946" lon="11.582094"><ele>984.0</ele><time>2026-04-26T10:04:21.612Z</time></trkpt><trkpt lat="43.7909218" lon="11.5821172"><ele>984.0</ele><time>2026-04-26T10:04:23.602Z</time></trkpt><trkpt lat="43.7908474" lon="11.5821426"><ele>984.0</ele><time>2026-04-26T10:04:25.6Z</time></trkpt><trkpt lat="43.7907819" lon="11.5821698"><ele>983.6666666666666</ele><time>2026-04-26T10:04:27.601Z</time></trkpt><trkpt lat="43.7906871" lon="11.5821856"><ele>983.3333333333333</ele><time>2026-04-26T10:04:31.612Z</time></trkpt><trkpt lat="43.7906" lon="11.5822121"><ele>983.0</ele><time>2026-04-26T10:04:34.602Z</time></trkpt><trkpt lat="43.7905174" lon="11.5822213"><ele>982.6666666666666</ele><time>2026-04-26T10:04:36.598Z</time></trkpt><trkpt lat="43.7904421" lon="11.5822292"><ele>982.3333333333333</ele><time>2026-04-26T10:04:38.6Z</time></trkpt><trkpt lat="43.7903462" lon="11.5822294"><ele>982.0</ele><time>2026-04-26T10:04:41.608Z</time></trkpt><trkpt lat="43.7902703" lon="11.5822322"><ele>981.9999999999999</ele><time>2026-04-26T10:04:43.601Z</time></trkpt><trkpt lat="43.7901839" lon="11.5822564"><ele>982.0</ele><time>2026-04-26T10:04:46.602Z</time></trkpt><trkpt lat="43.7900979" lon="11.5823031"><ele>982.0</ele><time>2026-04-26T10:04:49.597Z</time></trkpt><trkpt lat="43.7900324" lon="11.5823389"><ele>982.0</ele><time>2026-04-26T10:04:51.598Z</time></trkpt><trkpt lat="43.7899763" lon="11.5823797"><ele>981.9999999999999</ele><time>2026-04-26T10:04:53.601Z</time></trkpt><trkpt lat="43.7899029" lon="11.5824352"><ele>982.0</ele><time>2026-04-26T10:04:56.598Z</time></trkpt><trkpt lat="43.7898392" lon="11.5824562"><ele>981.9999999999999</ele><time>2026-04-26T10:04:59.6Z</time></trkpt><trkpt lat="43.7897595" lon="11.5824642"><ele>982.0</ele><time>2026-04-26T10:05:02.595Z</time></trkpt><trkpt lat="43.7896866" lon="11.5824533"><ele>982.0</ele><time>2026-04-26T10:05:05.604Z</time></trkpt><trkpt lat="43.7896051" lon="11.5824135"><ele>982.0</ele><time>2026-04-26T10:05:09.61Z</time></trkpt><trkpt lat="43.7895419" lon="11.5823862"><ele>981.9999999999999</ele><time>2026-04-26T10:05:11.599Z</time></trkpt><trkpt lat="43.7894718" lon="11.5823217"><ele>982.0</ele><time>2026-04-26T10:05:14.599Z</time></trkpt><trkpt lat="43.7894086" lon="11.5823049"><ele>981.9999999999999</ele><time>2026-04-26T10:05:17.608Z</time></trkpt><trkpt lat="43.7893425" lon="11.582291"><ele>982.0</ele><time>2026-04-26T10:05:19.603Z</time></trkpt><trkpt lat="43.7892801" lon="11.5822712"><ele>982.0</ele><time>2026-04-26T10:05:21.606Z</time></trkpt><trkpt lat="43.7891951" lon="11.5822233"><ele>982.0</ele><time>2026-04-26T10:05:24.6Z</time></trkpt><trkpt lat="43.7891295" lon="11.582193"><ele>981.9999999999999</ele><time>2026-04-26T10:05:26.597Z</time></trkpt><trkpt lat="43.7890642" lon="11.5821713"><ele>982.0</ele><time>2026-04-26T10:05:28.603Z</time></trkpt><trkpt lat="43.788972" lon="11.5821511"><ele>980.4999999999999</ele><time>2026-04-26T10:05:31.615Z</time></trkpt><trkpt lat="43.7888915" lon="11.5821203"><ele>979.0</ele><time>2026-04-26T10:05:33.611Z</time></trkpt><trkpt lat="43.7888113" lon="11.5820685"><ele>977.5</ele><time>2026-04-26T10:05:35.596Z</time></trkpt><trkpt lat="43.7887385" lon="11.5820512"><ele>976.0</ele><time>2026-04-26T10:05:37.599Z</time></trkpt><trkpt lat="43.7886458" lon="11.5820628"><ele>974.4999999999999</ele><time>2026-04-26T10:05:40.595Z</time></trkpt><trkpt lat="43.7885861" lon="11.5821104"><ele>973.0</ele><time>2026-04-26T10:05:42.588Z</time></trkpt><trkpt lat="43.7885342" lon="11.58216"><ele>972.6666666666666</ele><time>2026-04-26T10:05:44.599Z</time></trkpt><trkpt lat="43.7884541" lon="11.5822222"><ele>972.3333333333333</ele><time>2026-04-26T10:05:47.6Z</time></trkpt><trkpt lat="43.7883984" lon="11.5822651"><ele>972.0</ele><time>2026-04-26T10:05:49.599Z</time></trkpt><trkpt lat="43.7883329" lon="11.5823022"><ele>971.6666666666667</ele><time>2026-04-26T10:05:51.587Z</time></trkpt><trkpt lat="43.7882629" lon="11.5823394"><ele>971.3333333333334</ele><time>2026-04-26T10:05:53.6Z</time></trkpt><trkpt lat="43.7881999" lon="11.5823735"><ele>971.0</ele><time>2026-04-26T10:05:55.603Z</time></trkpt><trkpt lat="43.7881129" lon="11.5824198"><ele>971.0000000000001</ele><time>2026-04-26T10:05:58.597Z</time></trkpt><trkpt lat="43.7880297" lon="11.5824531"><ele>971.0</ele><time>2026-04-26T10:06:01.605Z</time></trkpt><trkpt lat="43.7879448" lon="11.5824737"><ele>971.0</ele><time>2026-04-26T10:06:04.598Z</time></trkpt><trkpt lat="43.7878491" lon="11.5824464"><ele>971.0</ele><time>2026-04-26T10:06:07.596Z</time></trkpt><trkpt lat="43.7877805" lon="11.5824284"><ele>971.0000000000001</ele><time>2026-04-26T10:06:09.593Z</time></trkpt><trkpt lat="43.7877123" lon="11.5824155"><ele>971.0</ele><time>2026-04-26T10:06:11.604Z</time></trkpt><trkpt lat="43.787622" lon="11.5824028"><ele>970.0000000000001</ele><time>2026-04-26T10:06:14.593Z</time></trkpt><trkpt lat="43.7875555" lon="11.5823876"><ele>969.0</ele><time>2026-04-26T10:06:16.59Z</time></trkpt><trkpt lat="43.7874937" lon="11.5823632"><ele>968.0</ele><time>2026-04-26T10:06:18.598Z</time></trkpt><trkpt lat="43.7874231" lon="11.5823223"><ele>967.0</ele><time>2026-04-26T10:06:20.602Z</time></trkpt><trkpt lat="43.7873561" lon="11.5822583"><ele>966.0000000000001</ele><time>2026-04-26T10:06:22.589Z</time></trkpt><trkpt lat="43.7872767" lon="11.5821982"><ele>965.0</ele><time>2026-04-26T10:06:25.603Z</time></trkpt><trkpt lat="43.7872004" lon="11.5821256"><ele>965.0000000000001</ele><time>2026-04-26T10:06:28.591Z</time></trkpt><trkpt lat="43.7871491" lon="11.5820537"><ele>965.0</ele><time>2026-04-26T10:06:30.604Z</time></trkpt><trkpt lat="43.7871108" lon="11.5819698"><ele>965.0</ele><time>2026-04-26T10:06:32.59Z</time></trkpt><trkpt lat="43.7870648" lon="11.5818539"><ele>965.0</ele><time>2026-04-26T10:06:35.596Z</time></trkpt><trkpt lat="43.7870191" lon="11.5817751"><ele>965.0000000000001</ele><time>2026-04-26T10:06:37.59Z</time></trkpt><trkpt lat="43.7869649" lon="11.5817179"><ele>965.0</ele><time>2026-04-26T10:06:39.588Z</time></trkpt><trkpt lat="43.7868892" lon="11.5816469"><ele>963.8571428571429</ele><time>2026-04-26T10:06:42.59Z</time></trkpt><trkpt lat="43.7868296" lon="11.5815846"><ele>962.7142857142858</ele><time>2026-04-26T10:06:44.595Z</time></trkpt><trkpt lat="43.7867652" lon="11.5815364"><ele>961.5714285714287</ele><time>2026-04-26T10:06:46.595Z</time></trkpt><trkpt lat="43.7867031" lon="11.5814917"><ele>960.4285714285714</ele><time>2026-04-26T10:06:48.593Z</time></trkpt><trkpt lat="43.7866433" lon="11.5814448"><ele>959.2857142857144</ele><time>2026-04-26T10:06:50.582Z</time></trkpt><trkpt lat="43.7865664" lon="11.5814496"><ele>958.1428571428572</ele><time>2026-04-26T10:06:53.594Z</time></trkpt><trkpt lat="43.7864896" lon="11.5814396"><ele>957.0</ele><time>2026-04-26T10:06:56.588Z</time></trkpt><trkpt lat="43.7864096" lon="11.5813981"><ele>957.0</ele><time>2026-04-26T10:06:59.577Z</time></trkpt><trkpt lat="43.7863238" lon="11.5813804"><ele>957.0</ele><time>2026-04-26T10:07:02.589Z</time></trkpt><trkpt lat="43.7862531" lon="11.5813942"><ele>957.0</ele><time>2026-04-26T10:07:04.581Z</time></trkpt><trkpt lat="43.7861777" lon="11.5813924"><ele>957.0</ele><time>2026-04-26T10:07:06.586Z</time></trkpt><trkpt lat="43.7860856" lon="11.5813944"><ele>957.0</ele><time>2026-04-26T10:07:08.588Z</time></trkpt><trkpt lat="43.78598" lon="11.5813998"><ele>957.0</ele><time>2026-04-26T10:07:10.587Z</time></trkpt><trkpt lat="43.7858773" lon="11.5814252"><ele>956.4000000000001</ele><time>2026-04-26T10:07:12.585Z</time></trkpt><trkpt lat="43.7857714" lon="11.5814453"><ele>955.8000000000001</ele><time>2026-04-26T10:07:14.58Z</time></trkpt><trkpt lat="43.785673" lon="11.5814947"><ele>955.2</ele><time>2026-04-26T10:07:16.588Z</time></trkpt><trkpt lat="43.7855743" lon="11.5815571"><ele>954.6</ele><time>2026-04-26T10:07:18.59Z</time></trkpt><trkpt lat="43.7854853" lon="11.5816442"><ele>954.0</ele><time>2026-04-26T10:07:20.599Z</time></trkpt><trkpt lat="43.7854235" lon="11.5817572"><ele>954.0</ele><time>2026-04-26T10:07:22.601Z</time></trkpt><trkpt lat="43.7853904" lon="11.581835"><ele>953.9999999999999</ele><time>2026-04-26T10:07:23.594Z</time></trkpt><trkpt lat="43.7853575" lon="11.5819097"><ele>954.0</ele><time>2026-04-26T10:07:24.588Z</time></trkpt><trkpt lat="43.7853245" lon="11.5819991"><ele>954.0</ele><time>2026-04-26T10:07:25.603Z</time></trkpt><trkpt lat="43.7852926" lon="11.5820968"><ele>953.9999999999999</ele><time>2026-04-26T10:07:26.582Z</time></trkpt><trkpt lat="43.785254" lon="11.5822105"><ele>954.0</ele><time>2026-04-26T10:07:27.593Z</time></trkpt><trkpt lat="43.7852133" lon="11.5823053"><ele>954.0</ele><time>2026-04-26T10:07:28.595Z</time></trkpt><trkpt lat="43.7851774" lon="11.5823984"><ele>953.6</ele><time>2026-04-26T10:07:29.598Z</time></trkpt><trkpt lat="43.7851465" lon="11.5824865"><ele>953.2</ele><time>2026-04-26T10:07:30.597Z</time></trkpt><trkpt lat="43.7851109" lon="11.5825677"><ele>952.8000000000001</ele><time>2026-04-26T10:07:31.585Z</time></trkpt><trkpt lat="43.7850758" lon="11.5826481"><ele>952.4000000000001</ele><time>2026-04-26T10:07:32.593Z</time></trkpt><trkpt lat="43.7850011" lon="11.5827786"><ele>952.0</ele><time>2026-04-26T10:07:34.594Z</time></trkpt><trkpt lat="43.7848977" lon="11.5828821"><ele>952.0</ele><time>2026-04-26T10:07:36.593Z</time></trkpt><trkpt lat="43.7848382" lon="11.5829214"><ele>952.0</ele><time>2026-04-26T10:07:37.592Z</time></trkpt><trkpt lat="43.7847325" lon="11.5829829"><ele>952.0</ele><time>2026-04-26T10:07:39.599Z</time></trkpt><trkpt lat="43.7846402" lon="11.5830626"><ele>952.0</ele><time>2026-04-26T10:07:41.596Z</time></trkpt><trkpt lat="43.7845859" lon="11.5831812"><ele>952.0</ele><time>2026-04-26T10:07:43.577Z</time></trkpt><trkpt lat="43.7845857" lon="11.5833309"><ele>952.0</ele><time>2026-04-26T10:07:45.59Z</time></trkpt><trkpt lat="43.7845538" lon="11.5834871"><ele>952.0</ele><time>2026-04-26T10:07:47.589Z</time></trkpt><trkpt lat="43.7845238" lon="11.5836379"><ele>952.0</ele><time>2026-04-26T10:07:49.587Z</time></trkpt><trkpt lat="43.784565" lon="11.5837384"><ele>952.0</ele><time>2026-04-26T10:07:51.577Z</time></trkpt><trkpt lat="43.7846571" lon="11.5837906"><ele>952.0</ele><time>2026-04-26T10:07:53.573Z</time></trkpt><trkpt lat="43.784742" lon="11.583808"><ele>952.8333333333333</ele><time>2026-04-26T10:07:55.586Z</time></trkpt><trkpt lat="43.7848241" lon="11.583839"><ele>953.6666666666666</ele><time>2026-04-26T10:07:57.585Z</time></trkpt><trkpt lat="43.7848924" lon="11.5838851"><ele>954.5</ele><time>2026-04-26T10:07:59.572Z</time></trkpt><trkpt lat="43.7849653" lon="11.583939"><ele>955.3333333333333</ele><time>2026-04-26T10:08:01.589Z</time></trkpt><trkpt lat="43.7850441" lon="11.5839924"><ele>956.1666666666666</ele><time>2026-04-26T10:08:03.591Z</time></trkpt><trkpt lat="43.785112" lon="11.5840713"><ele>957.0</ele><time>2026-04-26T10:08:06.586Z</time></trkpt><trkpt lat="43.7851533" lon="11.5841419"><ele>952.6666666666666</ele><time>2026-04-26T10:08:08.586Z</time></trkpt><trkpt lat="43.785196" lon="11.5842099"><ele>948.3333333333333</ele><time>2026-04-26T10:08:10.577Z</time></trkpt><trkpt lat="43.7852301" lon="11.5843298"><ele>944.0</ele><time>2026-04-26T10:08:13.595Z</time></trkpt><trkpt lat="43.7852443" lon="11.5844387"><ele>939.6666666666666</ele><time>2026-04-26T10:08:15.585Z</time></trkpt><trkpt lat="43.7852485" lon="11.5845452"><ele>935.3333333333333</ele><time>2026-04-26T10:08:17.598Z</time></trkpt><trkpt lat="43.7852541" lon="11.5846392"><ele>931.0</ele><time>2026-04-26T10:08:19.595Z</time></trkpt><trkpt lat="43.785256" lon="11.5847386"><ele>930.6666666666666</ele><time>2026-04-26T10:08:21.597Z</time></trkpt><trkpt lat="43.785242" lon="11.5848402"><ele>930.3333333333333</ele><time>2026-04-26T10:08:23.591Z</time></trkpt><trkpt lat="43.7852371" lon="11.5849723"><ele>930.0</ele><time>2026-04-26T10:08:26.592Z</time></trkpt><trkpt lat="43.785235" lon="11.5850825"><ele>929.6666666666667</ele><time>2026-04-26T10:08:29.595Z</time></trkpt><trkpt lat="43.7852162" lon="11.5851902"><ele>929.3333333333334</ele><time>2026-04-26T10:08:32.595Z</time></trkpt><trkpt lat="43.7851945" lon="11.5852744"><ele>929.0</ele><time>2026-04-26T10:08:34.59Z</time></trkpt><trkpt lat="43.7851381" lon="11.5853759"><ele>932.1428571428572</ele><time>2026-04-26T10:08:37.591Z</time></trkpt><trkpt lat="43.7850977" lon="11.5854442"><ele>935.2857142857144</ele><time>2026-04-26T10:08:39.593Z</time></trkpt><trkpt lat="43.785041" lon="11.5855115"><ele>938.4285714285714</ele><time>2026-04-26T10:08:41.593Z</time></trkpt><trkpt lat="43.7849862" lon="11.5855733"><ele>941.5714285714287</ele><time>2026-04-26T10:08:43.598Z</time></trkpt><trkpt lat="43.7849333" lon="11.5856439"><ele>944.7142857142858</ele><time>2026-04-26T10:08:45.59Z</time></trkpt><trkpt lat="43.7848776" lon="11.5856888"><ele>947.8571428571429</ele><time>2026-04-26T10:08:47.572Z</time></trkpt><trkpt lat="43.7848044" lon="11.585749"><ele>951.0</ele><time>2026-04-26T10:08:50.586Z</time></trkpt><trkpt lat="43.7847289" lon="11.5858147"><ele>951.0</ele><time>2026-04-26T10:08:53.581Z</time></trkpt><trkpt lat="43.7846641" lon="11.5859056"><ele>951.0</ele><time>2026-04-26T10:08:56.592Z</time></trkpt><trkpt lat="43.7846057" lon="11.5860059"><ele>951.0</ele><time>2026-04-26T10:08:59.583Z</time></trkpt><trkpt lat="43.7845741" lon="11.5860845"><ele>951.0</ele><time>2026-04-26T10:09:01.592Z</time></trkpt><trkpt lat="43.7845497" lon="11.5861691"><ele>951.0</ele><time>2026-04-26T10:09:03.593Z</time></trkpt><trkpt lat="43.7845266" lon="11.5862924"><ele>951.0</ele><time>2026-04-26T10:09:06.584Z</time></trkpt><trkpt lat="43.7845136" lon="11.586381"><ele>949.7142857142857</ele><time>2026-04-26T10:09:08.588Z</time></trkpt><trkpt lat="43.7845004" lon="11.5864697"><ele>948.4285714285716</ele><time>2026-04-26T10:09:10.593Z</time></trkpt><trkpt lat="43.7845055" lon="11.5865614"><ele>947.1428571428572</ele><time>2026-04-26T10:09:12.587Z</time></trkpt><trkpt lat="43.7845269" lon="11.5866871"><ele>945.8571428571429</ele><time>2026-04-26T10:09:15.587Z</time></trkpt><trkpt lat="43.7845455" lon="11.5867843"><ele>944.5714285714287</ele><time>2026-04-26T10:09:17.593Z</time></trkpt><trkpt lat="43.7845645" lon="11.5868738"><ele>943.2857142857144</ele><time>2026-04-26T10:09:19.591Z</time></trkpt><trkpt lat="43.7845888" lon="11.5869771"><ele>942.0000000000001</ele><time>2026-04-26T10:09:21.582Z</time></trkpt><trkpt lat="43.7846156" lon="11.5871116"><ele>941.3333333333334</ele><time>2026-04-26T10:09:24.589Z</time></trkpt><trkpt lat="43.7845815" lon="11.587232"><ele>940.6666666666667</ele><time>2026-04-26T10:09:27.583Z</time></trkpt><trkpt lat="43.7844982" lon="11.5873195"><ele>940.0</ele><time>2026-04-26T10:09:30.593Z</time></trkpt><trkpt lat="43.7844566" lon="11.5873984"><ele>939.3333333333334</ele><time>2026-04-26T10:09:32.594Z</time></trkpt><trkpt lat="43.7844285" lon="11.5874765"><ele>938.6666666666667</ele><time>2026-04-26T10:09:34.587Z</time></trkpt><trkpt lat="43.7844399" lon="11.5876041"><ele>938.0</ele><time>2026-04-26T10:09:37.597Z</time></trkpt><trkpt lat="43.7844586" lon="11.5876927"><ele>938.0000000000001</ele><time>2026-04-26T10:09:39.588Z</time></trkpt><trkpt lat="43.784452" lon="11.587809"><ele>938.0</ele><time>2026-04-26T10:09:42.569Z</time></trkpt><trkpt lat="43.7844424" lon="11.587925"><ele>938.0</ele><time>2026-04-26T10:09:45.578Z</time></trkpt><trkpt lat="43.7844347" lon="11.5880365"><ele>938.0</ele><time>2026-04-26T10:09:48.584Z</time></trkpt><trkpt lat="43.7844352" lon="11.5881475"><ele>938.0000000000001</ele><time>2026-04-26T10:09:51.58Z</time></trkpt><trkpt lat="43.7844334" lon="11.5882491"><ele>938.0</ele><time>2026-04-26T10:09:54.59Z</time></trkpt><trkpt lat="43.784401" lon="11.5883448"><ele>937.4285714285714</ele><time>2026-04-26T10:09:57.578Z</time></trkpt><trkpt lat="43.7843751" lon="11.588433"><ele>936.8571428571429</ele><time>2026-04-26T10:10:00.581Z</time></trkpt><trkpt lat="43.7843487" lon="11.5885222"><ele>936.2857142857142</ele><time>2026-04-26T10:10:03.571Z</time></trkpt><trkpt lat="43.7843316" lon="11.5886349"><ele>935.7142857142857</ele><time>2026-04-26T10:10:07.564Z</time></trkpt><trkpt lat="43.7843011" lon="11.5887269"><ele>935.1428571428571</ele><time>2026-04-26T10:10:10.568Z</time></trkpt><trkpt lat="43.7842483" lon="11.5887971"><ele>934.5714285714284</ele><time>2026-04-26T10:10:13.568Z</time></trkpt><trkpt lat="43.7841822" lon="11.5888507"><ele>933.9999999999999</ele><time>2026-04-26T10:10:16.569Z</time></trkpt><trkpt lat="43.7841124" lon="11.5889"><ele>935.9999999999999</ele><time>2026-04-26T10:10:19.564Z</time></trkpt><trkpt lat="43.7840636" lon="11.5889759"><ele>938.0</ele><time>2026-04-26T10:10:22.566Z</time></trkpt><trkpt lat="43.784008" lon="11.5890476"><ele>940.0</ele><time>2026-04-26T10:10:25.568Z</time></trkpt><trkpt lat="43.783962" lon="11.5891117"><ele>942.0</ele><time>2026-04-26T10:10:28.56Z</time></trkpt><trkpt lat="43.7839715" lon="11.5892124"><ele>943.9999999999999</ele><time>2026-04-26T10:10:32.569Z</time></trkpt><trkpt lat="43.7840369" lon="11.5893016"><ele>946.0</ele><time>2026-04-26T10:10:35.564Z</time></trkpt><trkpt lat="43.7841042" lon="11.5893757"><ele>945.9999999999999</ele><time>2026-04-26T10:10:39.566Z</time></trkpt><trkpt lat="43.7841657" lon="11.5894408"><ele>946.0</ele><time>2026-04-26T10:10:42.568Z</time></trkpt><trkpt lat="43.7842244" lon="11.5895073"><ele>946.0</ele><time>2026-04-26T10:10:44.565Z</time></trkpt><trkpt lat="43.7842927" lon="11.5895896"><ele>946.0</ele><time>2026-04-26T10:10:48.562Z</time></trkpt><trkpt lat="43.7843532" lon="11.5896737"><ele>945.9999999999999</ele><time>2026-04-26T10:10:52.578Z</time></trkpt><trkpt lat="43.7844133" lon="11.589701"><ele>946.0</ele><time>2026-04-26T10:10:54.565Z</time></trkpt><trkpt lat="43.7844806" lon="11.5897111"><ele>947.9999999999999</ele><time>2026-04-26T10:10:57.561Z</time></trkpt><trkpt lat="43.7845368" lon="11.5897681"><ele>950.0</ele><time>2026-04-26T10:11:00.577Z</time></trkpt><trkpt lat="43.784597" lon="11.5898661"><ele>952.0</ele><time>2026-04-26T10:11:06.571Z</time></trkpt><trkpt lat="43.7846518" lon="11.5899314"><ele>954.0</ele><time>2026-04-26T10:11:09.58Z</time></trkpt><trkpt lat="43.7846891" lon="11.5900412"><ele>955.9999999999999</ele><time>2026-04-26T10:11:12.572Z</time></trkpt><trkpt lat="43.7847397" lon="11.5901092"><ele>958.0</ele><time>2026-04-26T10:11:15.587Z</time></trkpt><trkpt lat="43.7848041" lon="11.5901649"><ele>958.0</ele><time>2026-04-26T10:11:18.572Z</time></trkpt><trkpt lat="43.784879" lon="11.5901809"><ele>958.0</ele><time>2026-04-26T10:11:21.581Z</time></trkpt><trkpt lat="43.7849482" lon="11.5901939"><ele>958.0</ele><time>2026-04-26T10:11:23.571Z</time></trkpt><trkpt lat="43.7850189" lon="11.5901761"><ele>958.0</ele><time>2026-04-26T10:11:26.576Z</time></trkpt><trkpt lat="43.7850873" lon="11.5902009"><ele>958.0</ele><time>2026-04-26T10:11:30.579Z</time></trkpt><trkpt lat="43.7851353" lon="11.5902831"><ele>958.0</ele><time>2026-04-26T10:11:36.569Z</time></trkpt><trkpt lat="43.7851595" lon="11.5903717"><ele>958.0</ele><time>2026-04-26T10:11:39.585Z</time></trkpt><trkpt lat="43.7851929" lon="11.5904695"><ele>958.7142857142857</ele><time>2026-04-26T10:11:43.578Z</time></trkpt><trkpt lat="43.7852089" lon="11.5905591"><ele>959.4285714285716</ele><time>2026-04-26T10:11:46.572Z</time></trkpt><trkpt lat="43.7852" lon="11.5906486"><ele>960.1428571428572</ele><time>2026-04-26T10:11:49.58Z</time></trkpt><trkpt lat="43.7851744" lon="11.5907526"><ele>960.8571428571429</ele><time>2026-04-26T10:11:52.575Z</time></trkpt><trkpt lat="43.785152" lon="11.5908507"><ele>961.5714285714287</ele><time>2026-04-26T10:11:55.571Z</time></trkpt><trkpt lat="43.7851499" lon="11.5909555"><ele>962.2857142857144</ele><time>2026-04-26T10:11:58.57Z</time></trkpt><trkpt lat="43.785184" lon="11.5910638"><ele>963.0000000000001</ele><time>2026-04-26T10:12:01.564Z</time></trkpt><trkpt lat="43.7852398" lon="11.5911552"><ele>965.0</ele><time>2026-04-26T10:12:04.561Z</time></trkpt><trkpt lat="43.7853037" lon="11.5911889"><ele>967.0</ele><time>2026-04-26T10:12:06.557Z</time></trkpt><trkpt lat="43.7853673" lon="11.5911881"><ele>969.0</ele><time>2026-04-26T10:12:09.566Z</time></trkpt><trkpt lat="43.7854506" lon="11.5912102"><ele>971.0</ele><time>2026-04-26T10:12:11.57Z</time></trkpt><trkpt lat="43.7855334" lon="11.5912161"><ele>973.0</ele><time>2026-04-26T10:12:13.57Z</time></trkpt><trkpt lat="43.7856066" lon="11.5911968"><ele>975.0</ele><time>2026-04-26T10:12:15.567Z</time></trkpt><trkpt lat="43.7856989" lon="11.5911875"><ele>975.0</ele><time>2026-04-26T10:12:18.558Z</time></trkpt><trkpt lat="43.7857945" lon="11.5912202"><ele>975.0</ele><time>2026-04-26T10:12:21.57Z</time></trkpt><trkpt lat="43.7858785" lon="11.5912435"><ele>975.0</ele><time>2026-04-26T10:12:24.577Z</time></trkpt><trkpt lat="43.7859394" lon="11.5912661"><ele>975.0</ele><time>2026-04-26T10:12:26.57Z</time></trkpt><trkpt lat="43.786011" lon="11.5913058"><ele>975.0</ele><time>2026-04-26T10:12:28.585Z</time></trkpt><trkpt lat="43.7860914" lon="11.5913412"><ele>975.0</ele><time>2026-04-26T10:12:31.593Z</time></trkpt><trkpt lat="43.7861776" lon="11.5913511"><ele>975.0</ele><time>2026-04-26T10:12:33.588Z</time></trkpt><trkpt lat="43.7862472" lon="11.5913554"><ele>974.9999999999999</ele><time>2026-04-26T10:12:35.584Z</time></trkpt><trkpt lat="43.7863261" lon="11.5913294"><ele>975.0</ele><time>2026-04-26T10:12:37.587Z</time></trkpt><trkpt lat="43.7863893" lon="11.5913175"><ele>975.0</ele><time>2026-04-26T10:12:39.583Z</time></trkpt><trkpt lat="43.7864539" lon="11.5913243"><ele>974.9999999999999</ele><time>2026-04-26T10:12:41.586Z</time></trkpt><trkpt lat="43.7865297" lon="11.5913101"><ele>975.0</ele><time>2026-04-26T10:12:43.588Z</time></trkpt><trkpt lat="43.7866207" lon="11.5912922"><ele>975.0</ele><time>2026-04-26T10:12:45.596Z</time></trkpt><trkpt lat="43.7867013" lon="11.5912943"><ele>975.0</ele><time>2026-04-26T10:12:47.587Z</time></trkpt><trkpt lat="43.7867753" lon="11.5913049"><ele>975.0</ele><time>2026-04-26T10:12:49.584Z</time></trkpt><trkpt lat="43.7868569" lon="11.5913251"><ele>975.0</ele><time>2026-04-26T10:12:51.59Z</time></trkpt><trkpt lat="43.7869077" lon="11.5913822"><ele>975.0</ele><time>2026-04-26T10:12:54.586Z</time></trkpt><trkpt lat="43.7869404" lon="11.5914861"><ele>975.0</ele><time>2026-04-26T10:12:58.582Z</time></trkpt><trkpt lat="43.7869255" lon="11.591602"><ele>975.0</ele><time>2026-04-26T10:13:01.591Z</time></trkpt><trkpt lat="43.7868867" lon="11.5916791"><ele>975.0</ele><time>2026-04-26T10:13:03.599Z</time></trkpt><trkpt lat="43.7868421" lon="11.5917597"><ele>974.9999999999999</ele><time>2026-04-26T10:13:05.592Z</time></trkpt><trkpt lat="43.7867981" lon="11.5918391"><ele>975.0</ele><time>2026-04-26T10:13:07.592Z</time></trkpt><trkpt lat="43.7867499" lon="11.5918984"><ele>975.0</ele><time>2026-04-26T10:13:09.598Z</time></trkpt><trkpt lat="43.7867124" lon="11.5919754"><ele>974.9999999999999</ele><time>2026-04-26T10:13:11.585Z</time></trkpt><trkpt lat="43.7866699" lon="11.5920571"><ele>975.0</ele><time>2026-04-26T10:13:13.599Z</time></trkpt><trkpt lat="43.7866298" lon="11.5921311"><ele>975.0</ele><time>2026-04-26T10:13:15.587Z</time></trkpt><trkpt lat="43.7865849" lon="11.5922437"><ele>975.1666666666666</ele><time>2026-04-26T10:13:18.591Z</time></trkpt><trkpt lat="43.7865601" lon="11.592325"><ele>975.3333333333333</ele><time>2026-04-26T10:13:20.606Z</time></trkpt><trkpt lat="43.7865292" lon="11.5924015"><ele>975.5</ele><time>2026-04-26T10:13:22.587Z</time></trkpt><trkpt lat="43.7864834" lon="11.5925107"><ele>975.6666666666666</ele><time>2026-04-26T10:13:25.591Z</time></trkpt><trkpt lat="43.7864364" lon="11.5926183"><ele>975.8333333333333</ele><time>2026-04-26T10:13:28.573Z</time></trkpt><trkpt lat="43.7863894" lon="11.5927289"><ele>976.0</ele><time>2026-04-26T10:13:31.577Z</time></trkpt><trkpt lat="43.7863452" lon="11.5928368"><ele>976.2857142857142</ele><time>2026-04-26T10:13:34.571Z</time></trkpt><trkpt lat="43.7863192" lon="11.5929198"><ele>976.5714285714286</ele><time>2026-04-26T10:13:36.581Z</time></trkpt><trkpt lat="43.7862909" lon="11.5930054"><ele>976.8571428571429</ele><time>2026-04-26T10:13:38.594Z</time></trkpt><trkpt lat="43.7862657" lon="11.5930968"><ele>977.1428571428571</ele><time>2026-04-26T10:13:40.585Z</time></trkpt><trkpt lat="43.7862318" lon="11.5931858"><ele>977.4285714285716</ele><time>2026-04-26T10:13:42.582Z</time></trkpt><trkpt lat="43.786205" lon="11.5932671"><ele>977.7142857142858</ele><time>2026-04-26T10:13:44.573Z</time></trkpt><trkpt lat="43.7861889" lon="11.5933557"><ele>978.0</ele><time>2026-04-26T10:13:46.566Z</time></trkpt><trkpt lat="43.7861739" lon="11.5934461"><ele>978.0</ele><time>2026-04-26T10:13:48.574Z</time></trkpt><trkpt lat="43.786163" lon="11.5935385"><ele>978.0</ele><time>2026-04-26T10:13:50.577Z</time></trkpt><trkpt lat="43.7861646" lon="11.5936575"><ele>978.0</ele><time>2026-04-26T10:13:53.575Z</time></trkpt><trkpt lat="43.7861808" lon="11.5937822"><ele>978.0</ele><time>2026-04-26T10:13:56.586Z</time></trkpt><trkpt lat="43.7862069" lon="11.5938708"><ele>978.0</ele><time>2026-04-26T10:13:58.579Z</time></trkpt><trkpt lat="43.786237" lon="11.5939494"><ele>978.0</ele><time>2026-04-26T10:14:00.57Z</time></trkpt><trkpt lat="43.7862963" lon="11.5940462"><ele>978.1428571428572</ele><time>2026-04-26T10:14:03.581Z</time></trkpt><trkpt lat="43.7863787" lon="11.5941052"><ele>978.2857142857144</ele><time>2026-04-26T10:14:06.588Z</time></trkpt><trkpt lat="43.7864318" lon="11.5941803"><ele>978.4285714285714</ele><time>2026-04-26T10:14:08.581Z</time></trkpt><trkpt lat="43.7864561" lon="11.5942692"><ele>978.5714285714287</ele><time>2026-04-26T10:14:10.58Z</time></trkpt><trkpt lat="43.786486" lon="11.5943571"><ele>978.7142857142858</ele><time>2026-04-26T10:14:12.582Z</time></trkpt><trkpt lat="43.786507" lon="11.5944421"><ele>978.8571428571429</ele><time>2026-04-26T10:14:14.586Z</time></trkpt><trkpt lat="43.7865306" lon="11.594523"><ele>979.0</ele><time>2026-04-26T10:14:16.58Z</time></trkpt><trkpt lat="43.7865547" lon="11.5946133"><ele>979.3333333333333</ele><time>2026-04-26T10:14:18.581Z</time></trkpt><trkpt lat="43.7865857" lon="11.5947044"><ele>979.6666666666666</ele><time>2026-04-26T10:14:20.588Z</time></trkpt><trkpt lat="43.7866417" lon="11.5948158"><ele>980.0</ele><time>2026-04-26T10:14:23.579Z</time></trkpt><trkpt lat="43.7866528" lon="11.5949464"><ele>980.3333333333333</ele><time>2026-04-26T10:14:26.587Z</time></trkpt><trkpt lat="43.7866605" lon="11.5950426"><ele>980.6666666666666</ele><time>2026-04-26T10:14:28.593Z</time></trkpt><trkpt lat="43.786655" lon="11.5951324"><ele>981.0</ele><time>2026-04-26T10:14:30.575Z</time></trkpt><trkpt lat="43.7866378" lon="11.5952185"><ele>981.0</ele><time>2026-04-26T10:14:32.59Z</time></trkpt><trkpt lat="43.786631" lon="11.5953054"><ele>981.0</ele><time>2026-04-26T10:14:34.579Z</time></trkpt><trkpt lat="43.7866258" lon="11.5953935"><ele>981.0</ele><time>2026-04-26T10:14:36.59Z</time></trkpt><trkpt lat="43.7866185" lon="11.5955154"><ele>981.0</ele><time>2026-04-26T10:14:39.581Z</time></trkpt><trkpt lat="43.7866285" lon="11.5956086"><ele>981.0</ele><time>2026-04-26T10:14:41.587Z</time></trkpt><trkpt lat="43.7866182" lon="11.5956976"><ele>981.0</ele><time>2026-04-26T10:14:43.595Z</time></trkpt><trkpt lat="43.786594" lon="11.5958263"><ele>981.0</ele><time>2026-04-26T10:14:46.575Z</time></trkpt><trkpt lat="43.7865573" lon="11.595942"><ele>981.5</ele><time>2026-04-26T10:14:49.576Z</time></trkpt><trkpt lat="43.7865324" lon="11.5960635"><ele>982.0</ele><time>2026-04-26T10:14:52.584Z</time></trkpt><trkpt lat="43.7865247" lon="11.596165"><ele>982.5</ele><time>2026-04-26T10:14:54.579Z</time></trkpt><trkpt lat="43.7865321" lon="11.5962961"><ele>983.0</ele><time>2026-04-26T10:14:57.578Z</time></trkpt><trkpt lat="43.7865204" lon="11.5964286"><ele>983.5</ele><time>2026-04-26T10:15:00.588Z</time></trkpt><trkpt lat="43.7865154" lon="11.5965252"><ele>984.0</ele><time>2026-04-26T10:15:02.576Z</time></trkpt><trkpt lat="43.7865137" lon="11.5966132"><ele>984.5</ele><time>2026-04-26T10:15:04.58Z</time></trkpt><trkpt lat="43.7864994" lon="11.5967062"><ele>985.0</ele><time>2026-04-26T10:15:06.589Z</time></trkpt><trkpt lat="43.7864641" lon="11.5968147"><ele>985.5</ele><time>2026-04-26T10:15:09.575Z</time></trkpt><trkpt lat="43.7864039" lon="11.596911"><ele>986.0</ele><time>2026-04-26T10:15:12.58Z</time></trkpt><trkpt lat="43.7863461" lon="11.5969554"><ele>986.5</ele><time>2026-04-26T10:15:14.57Z</time></trkpt><trkpt lat="43.7862624" lon="11.5969875"><ele>987.0</ele><time>2026-04-26T10:15:17.579Z</time></trkpt><trkpt lat="43.7861983" lon="11.5970221"><ele>988.0</ele><time>2026-04-26T10:15:19.587Z</time></trkpt><trkpt lat="43.7861168" lon="11.5970646"><ele>989.0</ele><time>2026-04-26T10:15:22.574Z</time></trkpt><trkpt lat="43.7860577" lon="11.5971132"><ele>990.0</ele><time>2026-04-26T10:15:24.572Z</time></trkpt><trkpt lat="43.7860001" lon="11.5971679"><ele>991.0</ele><time>2026-04-26T10:15:26.573Z</time></trkpt><trkpt lat="43.7859549" lon="11.5972306"><ele>992.0</ele><time>2026-04-26T10:15:28.576Z</time></trkpt><trkpt lat="43.7858957" lon="11.5973254"><ele>993.0</ele><time>2026-04-26T10:15:31.569Z</time></trkpt><trkpt lat="43.7858503" lon="11.5973889"><ele>994.0</ele><time>2026-04-26T10:15:33.578Z</time></trkpt><trkpt lat="43.7858006" lon="11.5974964"><ele>996.1666666666666</ele><time>2026-04-26T10:15:36.565Z</time></trkpt><trkpt lat="43.7858071" lon="11.5975851"><ele>998.3333333333333</ele><time>2026-04-26T10:15:38.566Z</time></trkpt><trkpt lat="43.7858518" lon="11.5976541"><ele>1000.5</ele><time>2026-04-26T10:15:40.564Z</time></trkpt><trkpt lat="43.7859009" lon="11.5977397"><ele>1002.6666666666667</ele><time>2026-04-26T10:15:43.559Z</time></trkpt><trkpt lat="43.7858709" lon="11.59785"><ele>1004.8333333333334</ele><time>2026-04-26T10:15:46.564Z</time></trkpt><trkpt lat="43.7858148" lon="11.5979153"><ele>1007.0</ele><time>2026-04-26T10:15:49.578Z</time></trkpt><trkpt lat="43.7857563" lon="11.5980077"><ele>1007.0</ele><time>2026-04-26T10:15:52.558Z</time></trkpt><trkpt lat="43.7857282" lon="11.5981017"><ele>1007.0</ele><time>2026-04-26T10:15:55.564Z</time></trkpt><trkpt lat="43.7857029" lon="11.5981914"><ele>1007.0</ele><time>2026-04-26T10:15:57.558Z</time></trkpt><trkpt lat="43.7856755" lon="11.5982894"><ele>1007.0</ele><time>2026-04-26T10:15:59.568Z</time></trkpt><trkpt lat="43.7856477" lon="11.5983678"><ele>1007.0</ele><time>2026-04-26T10:16:01.56Z</time></trkpt><trkpt lat="43.7856525" lon="11.5984549"><ele>1007.0</ele><time>2026-04-26T10:16:03.567Z</time></trkpt><trkpt lat="43.785743" lon="11.5984968"><ele>1007.0</ele><time>2026-04-26T10:16:06.566Z</time></trkpt><trkpt lat="43.7858172" lon="11.5984221"><ele>1007.0000000000001</ele><time>2026-04-26T10:16:09.556Z</time></trkpt><trkpt lat="43.7858856" lon="11.5983563"><ele>1007.0</ele><time>2026-04-26T10:16:11.559Z</time></trkpt><trkpt lat="43.7859659" lon="11.598327"><ele>1007.0</ele><time>2026-04-26T10:16:14.557Z</time></trkpt><trkpt lat="43.7860296" lon="11.5983168"><ele>1007.0</ele><time>2026-04-26T10:16:16.567Z</time></trkpt><trkpt lat="43.786108" lon="11.5983438"><ele>1007.0000000000001</ele><time>2026-04-26T10:16:18.566Z</time></trkpt><trkpt lat="43.7861846" lon="11.5983522"><ele>1007.0</ele><time>2026-04-26T10:16:20.567Z</time></trkpt><trkpt lat="43.7862635" lon="11.5983458"><ele>1006.5000000000001</ele><time>2026-04-26T10:16:22.563Z</time></trkpt><trkpt lat="43.7863433" lon="11.5983432"><ele>1006.0</ele><time>2026-04-26T10:16:24.565Z</time></trkpt><trkpt lat="43.7864068" lon="11.5984093"><ele>1005.5</ele><time>2026-04-26T10:16:27.575Z</time></trkpt><trkpt lat="43.7864115" lon="11.5985078"><ele>1005.0</ele><time>2026-04-26T10:16:30.567Z</time></trkpt><trkpt lat="43.7864376" lon="11.59859"><ele>1004.5000000000001</ele><time>2026-04-26T10:16:34.566Z</time></trkpt><trkpt lat="43.7864755" lon="11.5986852"><ele>1004.0</ele><time>2026-04-26T10:16:37.576Z</time></trkpt><trkpt lat="43.786511" lon="11.5987787"><ele>1005.5000000000001</ele><time>2026-04-26T10:16:39.575Z</time></trkpt><trkpt lat="43.7865362" lon="11.5988955"><ele>1007.0</ele><time>2026-04-26T10:16:42.572Z</time></trkpt><trkpt lat="43.7865426" lon="11.5989858"><ele>1008.5</ele><time>2026-04-26T10:16:44.569Z</time></trkpt><trkpt lat="43.7865593" lon="11.5990897"><ele>1010.0</ele><time>2026-04-26T10:16:46.57Z</time></trkpt><trkpt lat="43.7865725" lon="11.5992282"><ele>1011.5000000000001</ele><time>2026-04-26T10:16:49.571Z</time></trkpt><trkpt lat="43.7865988" lon="11.5993293"><ele>1013.0</ele><time>2026-04-26T10:16:51.567Z</time></trkpt><trkpt lat="43.7866295" lon="11.5994353"><ele>1015.0</ele><time>2026-04-26T10:16:54.562Z</time></trkpt><trkpt lat="43.7866537" lon="11.5995184"><ele>1017.0000000000001</ele><time>2026-04-26T10:16:56.563Z</time></trkpt><trkpt lat="43.7866664" lon="11.5996074"><ele>1019.0</ele><time>2026-04-26T10:16:59.569Z</time></trkpt><trkpt lat="43.7866835" lon="11.5997147"><ele>1021.0</ele><time>2026-04-26T10:17:02.565Z</time></trkpt><trkpt lat="43.7866779" lon="11.5998191"><ele>1023.0000000000001</ele><time>2026-04-26T10:17:05.573Z</time></trkpt><trkpt lat="43.7867022" lon="11.599902"><ele>1025.0</ele><time>2026-04-26T10:17:11.571Z</time></trkpt><trkpt lat="43.7867545" lon="11.5999577"><ele>1027.0</ele><time>2026-04-26T10:17:15.562Z</time></trkpt><trkpt lat="43.7868205" lon="11.5999526"><ele>1027.0</ele><time>2026-04-26T10:17:17.568Z</time></trkpt><trkpt lat="43.7868911" lon="11.5999197"><ele>1027.0</ele><time>2026-04-26T10:17:19.562Z</time></trkpt><trkpt lat="43.7869573" lon="11.5998563"><ele>1027.0</ele><time>2026-04-26T10:17:21.567Z</time></trkpt><trkpt lat="43.7870209" lon="11.5997818"><ele>1027.0</ele><time>2026-04-26T10:17:23.562Z</time></trkpt><trkpt lat="43.787083" lon="11.5996766"><ele>1027.0</ele><time>2026-04-26T10:17:26.57Z</time></trkpt><trkpt lat="43.7871281" lon="11.5995994"><ele>1027.0</ele><time>2026-04-26T10:17:29.559Z</time></trkpt><trkpt lat="43.7871901" lon="11.5995281"><ele>1027.0</ele><time>2026-04-26T10:17:32.57Z</time></trkpt><trkpt lat="43.787261" lon="11.5994724"><ele>1027.0</ele><time>2026-04-26T10:17:36.561Z</time></trkpt><trkpt lat="43.7873321" lon="11.599483"><ele>1027.0</ele><time>2026-04-26T10:17:42.559Z</time></trkpt><trkpt lat="43.7873958" lon="11.5995045"><ele>1027.0</ele><time>2026-04-26T10:17:44.565Z</time></trkpt><trkpt lat="43.787486" lon="11.5995442"><ele>1027.0</ele><time>2026-04-26T10:17:46.557Z</time></trkpt><trkpt lat="43.7875562" lon="11.5995689"><ele>1027.0</ele><time>2026-04-26T10:21:31.563Z</time></trkpt><trkpt lat="43.7876307" lon="11.5995006"><ele>1025.6</ele><time>2026-04-26T10:21:34.574Z</time></trkpt><trkpt lat="43.787686" lon="11.5994242"><ele>1024.2</ele><time>2026-04-26T10:21:37.571Z</time></trkpt><trkpt lat="43.7877694" lon="11.5994563"><ele>1022.8</ele><time>2026-04-26T10:21:40.565Z</time></trkpt><trkpt lat="43.787891" lon="11.5995865"><ele>1021.4</ele><time>2026-04-26T10:21:42.565Z</time></trkpt><trkpt lat="43.7879356" lon="11.5997151"><ele>1020.0</ele><time>2026-04-26T10:21:44.566Z</time></trkpt><trkpt lat="43.7879803" lon="11.5997929"><ele>1020.0</ele><time>2026-04-26T10:21:47.558Z</time></trkpt><trkpt lat="43.7880483" lon="11.5998095"><ele>1020.0</ele><time>2026-04-26T10:21:50.57Z</time></trkpt><trkpt lat="43.7881142" lon="11.5997363"><ele>1020.0</ele><time>2026-04-26T10:21:54.569Z</time></trkpt><trkpt lat="43.7881167" lon="11.5996039"><ele>1020.0</ele><time>2026-04-26T10:21:56.568Z</time></trkpt><trkpt lat="43.7881103" lon="11.5994886"><ele>1020.0</ele><time>2026-04-26T10:21:59.57Z</time></trkpt><trkpt lat="43.7881204" lon="11.5993572"><ele>1020.0</ele><time>2026-04-26T10:22:02.571Z</time></trkpt><trkpt lat="43.7881164" lon="11.5992435"><ele>1020.0</ele><time>2026-04-26T10:22:05.568Z</time></trkpt><trkpt lat="43.7881371" lon="11.5991393"><ele>1020.0</ele><time>2026-04-26T10:22:07.565Z</time></trkpt><trkpt lat="43.7881537" lon="11.5990153"><ele>1020.0</ele><time>2026-04-26T10:22:09.569Z</time></trkpt><trkpt lat="43.788177" lon="11.5989245"><ele>1020.0</ele><time>2026-04-26T10:22:11.565Z</time></trkpt><trkpt lat="43.7882576" lon="11.5988667"><ele>1020.0</ele><time>2026-04-26T10:22:14.567Z</time></trkpt><trkpt lat="43.7883401" lon="11.5988431"><ele>1020.0</ele><time>2026-04-26T10:22:18.569Z</time></trkpt><trkpt lat="43.7884187" lon="11.5988471"><ele>1020.0</ele><time>2026-04-26T10:22:20.563Z</time></trkpt><trkpt lat="43.7884889" lon="11.598931"><ele>1020.0</ele><time>2026-04-26T10:22:23.568Z</time></trkpt><trkpt lat="43.7885539" lon="11.5990125"><ele>1020.0</ele><time>2026-04-26T10:22:26.566Z</time></trkpt><trkpt lat="43.7886422" lon="11.5990055"><ele>1020.0</ele><time>2026-04-26T10:22:30.563Z</time></trkpt><trkpt lat="43.7886765" lon="11.5989024"><ele>1020.0</ele><time>2026-04-26T10:22:32.574Z</time></trkpt><trkpt lat="43.7887101" lon="11.5988121"><ele>1020.0</ele><time>2026-04-26T10:22:34.567Z</time></trkpt><trkpt lat="43.7887738" lon="11.5987434"><ele>1022.1666666666666</ele><time>2026-04-26T10:22:36.566Z</time></trkpt><trkpt lat="43.7888246" lon="11.5986868"><ele>1024.3333333333333</ele><time>2026-04-26T10:22:38.567Z</time></trkpt><trkpt lat="43.7889214" lon="11.5986865"><ele>1026.5</ele><time>2026-04-26T10:22:41.566Z</time></trkpt><trkpt lat="43.7889841" lon="11.5986969"><ele>1028.6666666666665</ele><time>2026-04-26T10:22:43.575Z</time></trkpt><trkpt lat="43.7890861" lon="11.5987106"><ele>1030.8333333333333</ele><time>2026-04-26T10:22:46.577Z</time></trkpt><trkpt lat="43.7891558" lon="11.598705"><ele>1033.0</ele><time>2026-04-26T10:22:48.569Z</time></trkpt><trkpt lat="43.7892264" lon="11.5987204"><ele>1033.0</ele><time>2026-04-26T10:22:50.57Z</time></trkpt><trkpt lat="43.7892939" lon="11.5987243"><ele>1033.0</ele><time>2026-04-26T10:22:52.568Z</time></trkpt><trkpt lat="43.7893825" lon="11.5987229"><ele>1033.0</ele><time>2026-04-26T10:22:55.575Z</time></trkpt><trkpt lat="43.7894668" lon="11.5987152"><ele>1033.0</ele><time>2026-04-26T10:22:57.568Z</time></trkpt><trkpt lat="43.7895543" lon="11.5986931"><ele>1033.0</ele><time>2026-04-26T10:23:00.589Z</time></trkpt><trkpt lat="43.7896322" lon="11.5986783"><ele>1033.0</ele><time>2026-04-26T10:23:02.566Z</time></trkpt><trkpt lat="43.7897149" lon="11.5986629"><ele>1033.2857142857144</ele><time>2026-04-26T10:23:05.568Z</time></trkpt><trkpt lat="43.7897852" lon="11.5987028"><ele>1033.5714285714287</ele><time>2026-04-26T10:23:08.584Z</time></trkpt><trkpt lat="43.7898598" lon="11.5987444"><ele>1033.857142857143</ele><time>2026-04-26T10:23:12.561Z</time></trkpt><trkpt lat="43.7899173" lon="11.5986774"><ele>1034.1428571428573</ele><time>2026-04-26T10:23:14.572Z</time></trkpt><trkpt lat="43.7899659" lon="11.5986022"><ele>1034.4285714285716</ele><time>2026-04-26T10:23:16.565Z</time></trkpt><trkpt lat="43.7900196" lon="11.5985283"><ele>1034.7142857142858</ele><time>2026-04-26T10:23:18.565Z</time></trkpt><trkpt lat="43.7900805" lon="11.5984875"><ele>1035.0</ele><time>2026-04-26T10:23:21.575Z</time></trkpt><trkpt lat="43.7901717" lon="11.598475"><ele>1035.142857142857</ele><time>2026-04-26T10:23:24.569Z</time></trkpt><trkpt lat="43.7902364" lon="11.5984886"><ele>1035.2857142857142</ele><time>2026-04-26T10:23:28.581Z</time></trkpt><trkpt lat="43.7902988" lon="11.5985845"><ele>1035.4285714285716</ele><time>2026-04-26T10:23:31.572Z</time></trkpt><trkpt lat="43.7903488" lon="11.5986583"><ele>1035.5714285714284</ele><time>2026-04-26T10:23:33.578Z</time></trkpt><trkpt lat="43.7903863" lon="11.5987316"><ele>1035.7142857142858</ele><time>2026-04-26T10:23:35.574Z</time></trkpt><trkpt lat="43.7904293" lon="11.5988111"><ele>1035.857142857143</ele><time>2026-04-26T10:23:37.58Z</time></trkpt><trkpt lat="43.7904639" lon="11.5988909"><ele>1036.0</ele><time>2026-04-26T10:23:39.581Z</time></trkpt><trkpt lat="43.7905177" lon="11.5989654"><ele>1036.0</ele><time>2026-04-26T10:23:43.576Z</time></trkpt><trkpt lat="43.790576" lon="11.5989308"><ele>1036.0</ele><time>2026-04-26T10:23:45.585Z</time></trkpt><trkpt lat="43.7906319" lon="11.598881"><ele>1036.0</ele><time>2026-04-26T10:23:47.569Z</time></trkpt><trkpt lat="43.7906656" lon="11.5987977"><ele>1036.0</ele><time>2026-04-26T10:23:49.567Z</time></trkpt><trkpt lat="43.7907115" lon="11.5986869"><ele>1036.0</ele><time>2026-04-26T10:23:52.573Z</time></trkpt><trkpt lat="43.7907539" lon="11.5985961"><ele>1036.0</ele><time>2026-04-26T10:23:55.581Z</time></trkpt><trkpt lat="43.7908018" lon="11.598506"><ele>1034.2857142857142</ele><time>2026-04-26T10:23:58.578Z</time></trkpt><trkpt lat="43.7908386" lon="11.5984335"><ele>1032.5714285714284</ele><time>2026-04-26T10:24:00.584Z</time></trkpt><trkpt lat="43.7908735" lon="11.5983439"><ele>1030.857142857143</ele><time>2026-04-26T10:24:02.574Z</time></trkpt><trkpt lat="43.7908896" lon="11.5982506"><ele>1029.142857142857</ele><time>2026-04-26T10:24:05.575Z</time></trkpt><trkpt lat="43.7909205" lon="11.5981687"><ele>1027.4285714285713</ele><time>2026-04-26T10:24:08.579Z</time></trkpt><trkpt lat="43.7909636" lon="11.5980921"><ele>1025.7142857142858</ele><time>2026-04-26T10:24:11.577Z</time></trkpt><trkpt lat="43.7910065" lon="11.5980099"><ele>1024.0</ele><time>2026-04-26T10:24:14.576Z</time></trkpt><trkpt lat="43.791071" lon="11.5979702"><ele>1023.9999999999999</ele><time>2026-04-26T10:24:17.591Z</time></trkpt><trkpt lat="43.7911363" lon="11.5979092"><ele>1024.0</ele><time>2026-04-26T10:24:19.579Z</time></trkpt><trkpt lat="43.7912062" lon="11.5978703"><ele>1024.0</ele><time>2026-04-26T10:24:22.574Z</time></trkpt><trkpt lat="43.7912747" lon="11.5978676"><ele>1024.0</ele><time>2026-04-26T10:24:24.578Z</time></trkpt><trkpt lat="43.7913494" lon="11.5978764"><ele>1023.9999999999999</ele><time>2026-04-26T10:24:27.584Z</time></trkpt><trkpt lat="43.7914343" lon="11.5979194"><ele>1024.0</ele><time>2026-04-26T10:24:31.592Z</time></trkpt><trkpt lat="43.7914869" lon="11.5979714"><ele>1023.9999999999999</ele><time>2026-04-26T10:24:33.592Z</time></trkpt><trkpt lat="43.791544" lon="11.5980216"><ele>1024.0</ele><time>2026-04-26T10:24:35.581Z</time></trkpt><trkpt lat="43.7915842" lon="11.5981322"><ele>1024.0</ele><time>2026-04-26T10:24:39.575Z</time></trkpt><trkpt lat="43.791616" lon="11.5982456"><ele>1024.0</ele><time>2026-04-26T10:24:43.576Z</time></trkpt><trkpt lat="43.7916318" lon="11.5983685"><ele>1023.9999999999999</ele><time>2026-04-26T10:24:46.588Z</time></trkpt><trkpt lat="43.7916241" lon="11.598456"><ele>1024.0</ele><time>2026-04-26T10:24:50.591Z</time></trkpt><trkpt lat="43.791628" lon="11.5985476"><ele>1026.1666666666665</ele><time>2026-04-26T10:25:02.584Z</time></trkpt><trkpt lat="43.7916375" lon="11.5986795"><ele>1028.3333333333333</ele><time>2026-04-26T10:25:05.581Z</time></trkpt><trkpt lat="43.791652" lon="11.5987752"><ele>1030.5</ele><time>2026-04-26T10:25:07.589Z</time></trkpt><trkpt lat="43.791676" lon="11.5988714"><ele>1032.6666666666667</ele><time>2026-04-26T10:25:10.58Z</time></trkpt><trkpt lat="43.7916903" lon="11.5989691"><ele>1034.8333333333335</ele><time>2026-04-26T10:25:13.582Z</time></trkpt><trkpt lat="43.7917068" lon="11.599068"><ele>1037.0</ele><time>2026-04-26T10:25:16.574Z</time></trkpt><trkpt lat="43.7917299" lon="11.5991604"><ele>1037.0</ele><time>2026-04-26T10:25:19.579Z</time></trkpt><trkpt lat="43.791771" lon="11.5992371"><ele>1037.0</ele><time>2026-04-26T10:25:22.578Z</time></trkpt><trkpt lat="43.7918317" lon="11.5992853"><ele>1037.0</ele><time>2026-04-26T10:25:25.588Z</time></trkpt><trkpt lat="43.791901" lon="11.5992925"><ele>1037.0</ele><time>2026-04-26T10:25:27.578Z</time></trkpt><trkpt lat="43.792003" lon="11.5992411"><ele>1037.0</ele><time>2026-04-26T10:25:30.586Z</time></trkpt><trkpt lat="43.7920812" lon="11.5991975"><ele>1037.0</ele><time>2026-04-26T10:25:32.583Z</time></trkpt><trkpt lat="43.7921445" lon="11.5991801"><ele>1035.0</ele><time>2026-04-26T10:25:34.585Z</time></trkpt><trkpt lat="43.7922265" lon="11.5991609"><ele>1033.0</ele><time>2026-04-26T10:25:37.588Z</time></trkpt><trkpt lat="43.7923012" lon="11.5991866"><ele>1031.0</ele><time>2026-04-26T10:25:40.587Z</time></trkpt><trkpt lat="43.7923806" lon="11.5992004"><ele>1029.0</ele><time>2026-04-26T10:25:42.578Z</time></trkpt><trkpt lat="43.7924547" lon="11.5992115"><ele>1027.0</ele><time>2026-04-26T10:25:44.583Z</time></trkpt><trkpt lat="43.792518" lon="11.599259"><ele>1025.0</ele><time>2026-04-26T10:25:47.593Z</time></trkpt><trkpt lat="43.7925932" lon="11.5993341"><ele>1024.9999999999998</ele><time>2026-04-26T10:25:50.582Z</time></trkpt><trkpt lat="43.7926512" lon="11.5993906"><ele>1025.0</ele><time>2026-04-26T10:25:52.582Z</time></trkpt><trkpt lat="43.7926985" lon="11.5994879"><ele>1025.0</ele><time>2026-04-26T10:25:55.585Z</time></trkpt><trkpt lat="43.7927213" lon="11.5995715"><ele>1025.0</ele><time>2026-04-26T10:25:57.589Z</time></trkpt><trkpt lat="43.7927446" lon="11.599659"><ele>1025.0</ele><time>2026-04-26T10:26:00.586Z</time></trkpt><trkpt lat="43.7927827" lon="11.5997388"><ele>1024.9999999999998</ele><time>2026-04-26T10:26:03.59Z</time></trkpt><trkpt lat="43.7928024" lon="11.5998296"><ele>1025.0</ele><time>2026-04-26T10:26:05.589Z</time></trkpt><trkpt lat="43.7928446" lon="11.5999138"><ele>1025.3333333333335</ele><time>2026-04-26T10:26:07.582Z</time></trkpt><trkpt lat="43.7928772" lon="11.6000088"><ele>1025.6666666666667</ele><time>2026-04-26T10:26:09.586Z</time></trkpt><trkpt lat="43.7929145" lon="11.6000885"><ele>1026.0</ele><time>2026-04-26T10:26:11.584Z</time></trkpt><trkpt lat="43.7929501" lon="11.6001859"><ele>1026.3333333333333</ele><time>2026-04-26T10:26:13.578Z</time></trkpt><trkpt lat="43.7929945" lon="11.6002859"><ele>1026.6666666666665</ele><time>2026-04-26T10:26:15.584Z</time></trkpt><trkpt lat="43.793022" lon="11.6003941"><ele>1027.0</ele><time>2026-04-26T10:26:17.581Z</time></trkpt><trkpt lat="43.7930403" lon="11.6004941"><ele>1027.0</ele><time>2026-04-26T10:26:19.587Z</time></trkpt><trkpt lat="43.7930781" lon="11.6005898"><ele>1027.0</ele><time>2026-04-26T10:26:21.579Z</time></trkpt><trkpt lat="43.7931119" lon="11.6006641"><ele>1027.0</ele><time>2026-04-26T10:26:23.578Z</time></trkpt><trkpt lat="43.7931618" lon="11.6007873"><ele>1027.0</ele><time>2026-04-26T10:26:26.566Z</time></trkpt><trkpt lat="43.7932" lon="11.6008661"><ele>1027.0</ele><time>2026-04-26T10:26:28.589Z</time></trkpt><trkpt lat="43.7932354" lon="11.6009496"><ele>1027.0</ele><time>2026-04-26T10:26:30.582Z</time></trkpt><trkpt lat="43.7932817" lon="11.6010348"><ele>1027.0</ele><time>2026-04-26T10:26:32.582Z</time></trkpt><trkpt lat="43.7933263" lon="11.6011131"><ele>1027.0</ele><time>2026-04-26T10:26:34.587Z</time></trkpt><trkpt lat="43.7933846" lon="11.6011937"><ele>1027.0</ele><time>2026-04-26T10:26:37.584Z</time></trkpt><trkpt lat="43.7934546" lon="11.6012667"><ele>1027.0</ele><time>2026-04-26T10:26:39.588Z</time></trkpt><trkpt lat="43.7935392" lon="11.6012835"><ele>1027.0</ele><time>2026-04-26T10:26:41.586Z</time></trkpt><trkpt lat="43.7936293" lon="11.6013142"><ele>1027.0</ele><time>2026-04-26T10:26:43.588Z</time></trkpt><trkpt lat="43.793714" lon="11.6013151"><ele>1026.142857142857</ele><time>2026-04-26T10:26:45.605Z</time></trkpt><trkpt lat="43.7937973" lon="11.6013089"><ele>1025.2857142857144</ele><time>2026-04-26T10:26:47.59Z</time></trkpt><trkpt lat="43.7938833" lon="11.601319"><ele>1024.4285714285716</ele><time>2026-04-26T10:26:49.588Z</time></trkpt><trkpt lat="43.793953" lon="11.6013411"><ele>1023.5714285714287</ele><time>2026-04-26T10:26:51.581Z</time></trkpt><trkpt lat="43.7940124" lon="11.601397"><ele>1022.7142857142858</ele><time>2026-04-26T10:26:53.594Z</time></trkpt><trkpt lat="43.7940585" lon="11.6014672"><ele>1021.8571428571429</ele><time>2026-04-26T10:26:55.581Z</time></trkpt><trkpt lat="43.7940957" lon="11.6015386"><ele>1021.0</ele><time>2026-04-26T10:26:57.586Z</time></trkpt><trkpt lat="43.7941399" lon="11.6016073"><ele>1021.0</ele><time>2026-04-26T10:26:59.586Z</time></trkpt><trkpt lat="43.7941902" lon="11.6017109"><ele>1021.0</ele><time>2026-04-26T10:27:02.58Z</time></trkpt><trkpt lat="43.7942321" lon="11.6017888"><ele>1021.0</ele><time>2026-04-26T10:27:05.583Z</time></trkpt><trkpt lat="43.7942706" lon="11.6018587"><ele>1021.0</ele><time>2026-04-26T10:27:09.586Z</time></trkpt><trkpt lat="43.794299" lon="11.6019609"><ele>1021.0</ele><time>2026-04-26T10:29:20.534Z</time></trkpt><trkpt lat="43.7943392" lon="11.6020482"><ele>1021.0</ele><time>2026-04-26T10:29:24.518Z</time></trkpt><trkpt lat="43.7943642" lon="11.6021287"><ele>1021.0</ele><time>2026-04-26T10:29:28.528Z</time></trkpt><trkpt lat="43.7944196" lon="11.6021704"><ele>1018.2857142857142</ele><time>2026-04-26T10:29:32.529Z</time></trkpt><trkpt lat="43.794495" lon="11.6022268"><ele>1015.5714285714287</ele><time>2026-04-26T10:29:36.532Z</time></trkpt><trkpt lat="43.7945317" lon="11.602302"><ele>1012.8571428571429</ele><time>2026-04-26T10:29:39.532Z</time></trkpt><trkpt lat="43.7945469" lon="11.6024056"><ele>1010.1428571428571</ele><time>2026-04-26T10:29:45.541Z</time></trkpt><trkpt lat="43.794598" lon="11.6024624"><ele>1007.4285714285713</ele><time>2026-04-26T10:29:48.551Z</time></trkpt><trkpt lat="43.7946537" lon="11.6025399"><ele>1004.7142857142858</ele><time>2026-04-26T10:29:52.552Z</time></trkpt><trkpt lat="43.7947125" lon="11.6025931"><ele>1002.0</ele><time>2026-04-26T10:29:57.54Z</time></trkpt><trkpt lat="43.7947828" lon="11.6026547"><ele>1002.0</ele><time>2026-04-26T10:30:01.528Z</time></trkpt><trkpt lat="43.7948342" lon="11.6027142"><ele>1002.0</ele><time>2026-04-26T10:30:04.548Z</time></trkpt><trkpt lat="43.7949104" lon="11.6027804"><ele>1002.0</ele><time>2026-04-26T10:30:07.541Z</time></trkpt><trkpt lat="43.7949896" lon="11.6028321"><ele>1002.0</ele><time>2026-04-26T10:30:10.534Z</time></trkpt><trkpt lat="43.7950688" lon="11.6028656"><ele>1002.0</ele><time>2026-04-26T10:30:13.551Z</time></trkpt><trkpt lat="43.7951341" lon="11.6028594"><ele>1002.0</ele><time>2026-04-26T10:30:15.53Z</time></trkpt><trkpt lat="43.7952024" lon="11.6028571"><ele>1000.7142857142858</ele><time>2026-04-26T10:30:17.539Z</time></trkpt><trkpt lat="43.7952666" lon="11.602863"><ele>999.4285714285713</ele><time>2026-04-26T10:30:19.542Z</time></trkpt><trkpt lat="43.7953321" lon="11.6028989"><ele>998.1428571428571</ele><time>2026-04-26T10:30:21.524Z</time></trkpt><trkpt lat="43.7953952" lon="11.6029365"><ele>996.8571428571429</ele><time>2026-04-26T10:30:23.533Z</time></trkpt><trkpt lat="43.7954407" lon="11.6030246"><ele>995.5714285714287</ele><time>2026-04-26T10:30:27.536Z</time></trkpt><trkpt lat="43.7955027" lon="11.603119"><ele>994.2857142857142</ele><time>2026-04-26T10:30:30.535Z</time></trkpt><trkpt lat="43.795548" lon="11.6032008"><ele>993.0</ele><time>2026-04-26T10:30:33.538Z</time></trkpt><trkpt lat="43.7955993" lon="11.6032636"><ele>993.0</ele><time>2026-04-26T10:30:35.532Z</time></trkpt><trkpt lat="43.7956516" lon="11.6033279"><ele>993.0</ele><time>2026-04-26T10:30:37.538Z</time></trkpt><trkpt lat="43.7957167" lon="11.6033913"><ele>993.0</ele><time>2026-04-26T10:30:39.536Z</time></trkpt><trkpt lat="43.7957983" lon="11.6034441"><ele>993.0</ele><time>2026-04-26T10:30:41.534Z</time></trkpt><trkpt lat="43.7958616" lon="11.6035043"><ele>993.0</ele><time>2026-04-26T10:30:43.54Z</time></trkpt><trkpt lat="43.7959256" lon="11.6035426"><ele>993.0</ele><time>2026-04-26T10:30:45.527Z</time></trkpt><trkpt lat="43.7959872" lon="11.6035768"><ele>991.6666666666666</ele><time>2026-04-26T10:30:47.532Z</time></trkpt><trkpt lat="43.7960458" lon="11.6036124"><ele>990.3333333333333</ele><time>2026-04-26T10:30:49.535Z</time></trkpt><trkpt lat="43.7961264" lon="11.6036455"><ele>989.0</ele><time>2026-04-26T10:30:52.531Z</time></trkpt><trkpt lat="43.7961984" lon="11.6036536"><ele>987.6666666666666</ele><time>2026-04-26T10:30:54.542Z</time></trkpt><trkpt lat="43.7962789" lon="11.6036215"><ele>986.3333333333333</ele><time>2026-04-26T10:30:56.53Z</time></trkpt><trkpt lat="43.7963478" lon="11.6035612"><ele>985.0</ele><time>2026-04-26T10:30:58.532Z</time></trkpt><trkpt lat="43.7964048" lon="11.6034889"><ele>985.0</ele><time>2026-04-26T10:31:00.522Z</time></trkpt><trkpt lat="43.796468" lon="11.6034364"><ele>985.0000000000001</ele><time>2026-04-26T10:31:02.533Z</time></trkpt><trkpt lat="43.7965366" lon="11.6034158"><ele>985.0</ele><time>2026-04-26T10:31:04.537Z</time></trkpt><trkpt lat="43.7966032" lon="11.6034121"><ele>985.0</ele><time>2026-04-26T10:31:06.533Z</time></trkpt><trkpt lat="43.7966809" lon="11.603381"><ele>985.0000000000001</ele><time>2026-04-26T10:31:08.531Z</time></trkpt><trkpt lat="43.7967508" lon="11.603325"><ele>985.0</ele><time>2026-04-26T10:31:10.543Z</time></trkpt><trkpt lat="43.7968117" lon="11.6032839"><ele>985.0</ele><time>2026-04-26T10:31:12.539Z</time></trkpt><trkpt lat="43.7968811" lon="11.603261"><ele>984.7142857142858</ele><time>2026-04-26T10:31:14.526Z</time></trkpt><trkpt lat="43.796949" lon="11.6032501"><ele>984.4285714285716</ele><time>2026-04-26T10:31:16.534Z</time></trkpt><trkpt lat="43.7970345" lon="11.6032662"><ele>984.1428571428571</ele><time>2026-04-26T10:31:18.536Z</time></trkpt><trkpt lat="43.7971112" lon="11.6032936"><ele>983.8571428571429</ele><time>2026-04-26T10:31:20.531Z</time></trkpt><trkpt lat="43.7971787" lon="11.6033189"><ele>983.5714285714286</ele><time>2026-04-26T10:31:22.539Z</time></trkpt><trkpt lat="43.7972448" lon="11.6033384"><ele>983.2857142857142</ele><time>2026-04-26T10:31:24.527Z</time></trkpt><trkpt lat="43.7973076" lon="11.603353"><ele>982.9999999999999</ele><time>2026-04-26T10:31:26.53Z</time></trkpt><trkpt lat="43.7973709" lon="11.6033618"><ele>982.9999999999999</ele><time>2026-04-26T10:31:28.537Z</time></trkpt><trkpt lat="43.7974492" lon="11.60338"><ele>983.0</ele><time>2026-04-26T10:31:31.517Z</time></trkpt><trkpt lat="43.7975109" lon="11.6033079"><ele>982.9999999999999</ele><time>2026-04-26T10:31:33.524Z</time></trkpt><trkpt lat="43.7975692" lon="11.6032535"><ele>982.9999999999999</ele><time>2026-04-26T10:31:35.525Z</time></trkpt><trkpt lat="43.7976338" lon="11.6032336"><ele>983.0</ele><time>2026-04-26T10:31:37.527Z</time></trkpt><trkpt lat="43.7976997" lon="11.6032093"><ele>982.9999999999999</ele><time>2026-04-26T10:31:39.531Z</time></trkpt><trkpt lat="43.7977732" lon="11.6032133"><ele>982.9999999999999</ele><time>2026-04-26T10:31:41.522Z</time></trkpt><trkpt lat="43.7978396" lon="11.6032523"><ele>983.142857142857</ele><time>2026-04-26T10:31:43.533Z</time></trkpt><trkpt lat="43.7978928" lon="11.6033088"><ele>983.2857142857142</ele><time>2026-04-26T10:31:45.535Z</time></trkpt><trkpt lat="43.7979468" lon="11.6033628"><ele>983.4285714285714</ele><time>2026-04-26T10:31:47.542Z</time></trkpt><trkpt lat="43.7979975" lon="11.6034364"><ele>983.5714285714286</ele><time>2026-04-26T10:31:49.543Z</time></trkpt><trkpt lat="43.7980449" lon="11.6035111"><ele>983.7142857142858</ele><time>2026-04-26T10:31:51.531Z</time></trkpt><trkpt lat="43.7980885" lon="11.6035829"><ele>983.857142857143</ele><time>2026-04-26T10:31:53.52Z</time></trkpt><trkpt lat="43.798134" lon="11.6036472"><ele>984.0000000000001</ele><time>2026-04-26T10:31:55.532Z</time></trkpt><trkpt lat="43.7982012" lon="11.6037312"><ele>984.0</ele><time>2026-04-26T10:31:58.531Z</time></trkpt><trkpt lat="43.7982729" lon="11.6038004"><ele>984.0</ele><time>2026-04-26T10:32:01.528Z</time></trkpt><trkpt lat="43.7983557" lon="11.6038621"><ele>984.0</ele><time>2026-04-26T10:32:04.539Z</time></trkpt><trkpt lat="43.7984219" lon="11.6038976"><ele>984.0</ele><time>2026-04-26T10:32:06.524Z</time></trkpt><trkpt lat="43.7984982" lon="11.6039229"><ele>984.0</ele><time>2026-04-26T10:32:08.534Z</time></trkpt><trkpt lat="43.7985892" lon="11.6039497"><ele>984.0</ele><time>2026-04-26T10:32:10.534Z</time></trkpt><trkpt lat="43.7986556" lon="11.6039726"><ele>985.4285714285716</ele><time>2026-04-26T10:32:12.525Z</time></trkpt><trkpt lat="43.7987214" lon="11.6039986"><ele>986.8571428571429</ele><time>2026-04-26T10:32:14.532Z</time></trkpt><trkpt lat="43.7988141" lon="11.6040362"><ele>988.2857142857143</ele><time>2026-04-26T10:32:17.533Z</time></trkpt><trkpt lat="43.7988881" lon="11.60406"><ele>989.7142857142858</ele><time>2026-04-26T10:32:19.535Z</time></trkpt><trkpt lat="43.7989525" lon="11.6040858"><ele>991.1428571428571</ele><time>2026-04-26T10:32:21.53Z</time></trkpt><trkpt lat="43.7990236" lon="11.6041142"><ele>992.5714285714286</ele><time>2026-04-26T10:32:23.537Z</time></trkpt><trkpt lat="43.7990879" lon="11.6041327"><ele>994.0</ele><time>2026-04-26T10:32:25.534Z</time></trkpt><trkpt lat="43.7991503" lon="11.6041474"><ele>993.9999999999999</ele><time>2026-04-26T10:32:27.527Z</time></trkpt><trkpt lat="43.7992215" lon="11.6041585"><ele>994.0</ele><time>2026-04-26T10:32:29.539Z</time></trkpt><trkpt lat="43.7993153" lon="11.6041667"><ele>994.0</ele><time>2026-04-26T10:32:31.536Z</time></trkpt><trkpt lat="43.7993966" lon="11.6041635"><ele>994.0</ele><time>2026-04-26T10:32:33.532Z</time></trkpt><trkpt lat="43.7994599" lon="11.6041547"><ele>993.9999999999999</ele><time>2026-04-26T10:32:35.539Z</time></trkpt><trkpt lat="43.7995257" lon="11.6041489"><ele>994.0</ele><time>2026-04-26T10:32:37.532Z</time></trkpt><trkpt lat="43.7995991" lon="11.6041283"><ele>993.1666666666666</ele><time>2026-04-26T10:32:39.525Z</time></trkpt><trkpt lat="43.7996934" lon="11.6041171"><ele>992.3333333333333</ele><time>2026-04-26T10:32:42.531Z</time></trkpt><trkpt lat="43.7997613" lon="11.6041258"><ele>991.5</ele><time>2026-04-26T10:32:44.532Z</time></trkpt><trkpt lat="43.7998379" lon="11.6041706"><ele>990.6666666666667</ele><time>2026-04-26T10:32:47.533Z</time></trkpt><trkpt lat="43.7999033" lon="11.6042121"><ele>989.8333333333334</ele><time>2026-04-26T10:32:49.534Z</time></trkpt><trkpt lat="43.7999615" lon="11.6042891"><ele>989.0</ele><time>2026-04-26T10:32:52.527Z</time></trkpt><trkpt lat="43.8000305" lon="11.6043494"><ele>989.0000000000001</ele><time>2026-04-26T10:32:55.524Z</time></trkpt><trkpt lat="43.8000889" lon="11.6043945"><ele>989.0</ele><time>2026-04-26T10:32:57.546Z</time></trkpt><trkpt lat="43.8001545" lon="11.6044297"><ele>989.0</ele><time>2026-04-26T10:32:59.533Z</time></trkpt><trkpt lat="43.8002232" lon="11.6044635"><ele>989.0</ele><time>2026-04-26T10:33:01.528Z</time></trkpt><trkpt lat="43.8003075" lon="11.6045102"><ele>989.0000000000001</ele><time>2026-04-26T10:33:03.531Z</time></trkpt><trkpt lat="43.8003907" lon="11.6045613"><ele>989.0</ele><time>2026-04-26T10:33:05.529Z</time></trkpt><trkpt lat="43.8004468" lon="11.6046092"><ele>989.2</ele><time>2026-04-26T10:33:07.532Z</time></trkpt><trkpt lat="43.8005141" lon="11.6046506"><ele>989.4000000000001</ele><time>2026-04-26T10:33:09.541Z</time></trkpt><trkpt lat="43.8006126" lon="11.6047305"><ele>989.6</ele><time>2026-04-26T10:33:11.535Z</time></trkpt><trkpt lat="43.8006984" lon="11.6047347"><ele>989.8</ele><time>2026-04-26T10:33:13.534Z</time></trkpt><trkpt lat="43.8008069" lon="11.6047014"><ele>990.0</ele><time>2026-04-26T10:33:15.527Z</time></trkpt><trkpt lat="43.8008926" lon="11.6046295"><ele>990.0</ele><time>2026-04-26T10:33:17.54Z</time></trkpt><trkpt lat="43.8009544" lon="11.6045621"><ele>990.0</ele><time>2026-04-26T10:33:19.538Z</time></trkpt><trkpt lat="43.8010143" lon="11.6045004"><ele>990.0</ele><time>2026-04-26T10:33:21.519Z</time></trkpt><trkpt lat="43.8010866" lon="11.6044466"><ele>990.0</ele><time>2026-04-26T10:33:23.545Z</time></trkpt><trkpt lat="43.8011823" lon="11.6043965"><ele>990.0</ele><time>2026-04-26T10:33:25.53Z</time></trkpt><trkpt lat="43.8012687" lon="11.6043355"><ele>990.0</ele><time>2026-04-26T10:33:27.526Z</time></trkpt><trkpt lat="43.8013242" lon="11.6042773"><ele>993.8</ele><time>2026-04-26T10:33:29.536Z</time></trkpt><trkpt lat="43.8013791" lon="11.6042009"><ele>997.6</ele><time>2026-04-26T10:33:31.534Z</time></trkpt><trkpt lat="43.8014374" lon="11.6041052"><ele>1001.4000000000001</ele><time>2026-04-26T10:33:33.529Z</time></trkpt><trkpt lat="43.8015096" lon="11.6040141"><ele>1005.2</ele><time>2026-04-26T10:33:35.525Z</time></trkpt><trkpt lat="43.8015795" lon="11.6039119"><ele>1009.0</ele><time>2026-04-26T10:33:37.519Z</time></trkpt><trkpt lat="43.8016469" lon="11.6038014"><ele>1009.0</ele><time>2026-04-26T10:33:39.529Z</time></trkpt><trkpt lat="43.8016927" lon="11.6037017"><ele>1009.0</ele><time>2026-04-26T10:33:41.537Z</time></trkpt><trkpt lat="43.8017214" lon="11.603602"><ele>1009.0</ele><time>2026-04-26T10:33:43.529Z</time></trkpt><trkpt lat="43.8017505" lon="11.6035146"><ele>1009.0</ele><time>2026-04-26T10:33:45.526Z</time></trkpt><trkpt lat="43.8017821" lon="11.6034273"><ele>1009.0</ele><time>2026-04-26T10:33:47.526Z</time></trkpt><trkpt lat="43.8018141" lon="11.6033414"><ele>1009.0</ele><time>2026-04-26T10:33:49.522Z</time></trkpt><trkpt lat="43.8018448" lon="11.6032587"><ele>1009.0</ele><time>2026-04-26T10:33:51.524Z</time></trkpt><trkpt lat="43.8019081" lon="11.6031831"><ele>1008.9999999999999</ele><time>2026-04-26T10:33:53.518Z</time></trkpt><trkpt lat="43.8019747" lon="11.6031204"><ele>1009.0</ele><time>2026-04-26T10:33:55.515Z</time></trkpt><trkpt lat="43.8020413" lon="11.6030786"><ele>1009.0</ele><time>2026-04-26T10:33:57.529Z</time></trkpt><trkpt lat="43.8021095" lon="11.6030066"><ele>1009.0</ele><time>2026-04-26T10:33:59.541Z</time></trkpt><trkpt lat="43.8021721" lon="11.6029042"><ele>1008.9999999999999</ele><time>2026-04-26T10:34:01.526Z</time></trkpt><trkpt lat="43.8022539" lon="11.6028411"><ele>1009.0</ele><time>2026-04-26T10:34:04.526Z</time></trkpt><trkpt lat="43.8022999" lon="11.6027775"><ele>1008.9999999999999</ele><time>2026-04-26T10:34:06.518Z</time></trkpt><trkpt lat="43.8023643" lon="11.6026915"><ele>1009.0</ele><time>2026-04-26T10:34:09.527Z</time></trkpt><trkpt lat="43.802413" lon="11.6026299"><ele>1009.0</ele><time>2026-04-26T10:34:11.528Z</time></trkpt><trkpt lat="43.8024658" lon="11.6025459"><ele>1009.0</ele><time>2026-04-26T10:34:13.525Z</time></trkpt><trkpt lat="43.8025041" lon="11.6024229"><ele>1008.9999999999999</ele><time>2026-04-26T10:34:15.523Z</time></trkpt><trkpt lat="43.8025316" lon="11.6023431"><ele>1009.0</ele><time>2026-04-26T10:34:16.529Z</time></trkpt><trkpt lat="43.8025919" lon="11.6022521"><ele>1008.9999999999999</ele><time>2026-04-26T10:34:18.527Z</time></trkpt><trkpt lat="43.8026514" lon="11.6021851"><ele>1009.0</ele><time>2026-04-26T10:34:20.544Z</time></trkpt><trkpt lat="43.8027199" lon="11.6021382"><ele>1009.0</ele><time>2026-04-26T10:34:22.521Z</time></trkpt><trkpt lat="43.8027938" lon="11.6021112"><ele>1009.0</ele><time>2026-04-26T10:34:24.528Z</time></trkpt><trkpt lat="43.802875" lon="11.602071"><ele>1008.9999999999999</ele><time>2026-04-26T10:34:26.532Z</time></trkpt><trkpt lat="43.8029522" lon="11.6020442"><ele>1009.0</ele><time>2026-04-26T10:34:28.532Z</time></trkpt><trkpt lat="43.8030374" lon="11.6020321"><ele>1009.8333333333333</ele><time>2026-04-26T10:34:30.528Z</time></trkpt><trkpt lat="43.8031297" lon="11.6020349"><ele>1010.6666666666666</ele><time>2026-04-26T10:34:32.542Z</time></trkpt><trkpt lat="43.8031987" lon="11.6020648"><ele>1011.5</ele><time>2026-04-26T10:34:34.522Z</time></trkpt><trkpt lat="43.8032645" lon="11.6021245"><ele>1012.3333333333333</ele><time>2026-04-26T10:34:36.529Z</time></trkpt><trkpt lat="43.8033265" lon="11.6021977"><ele>1013.1666666666666</ele><time>2026-04-26T10:34:38.529Z</time></trkpt><trkpt lat="43.8033907" lon="11.602294"><ele>1014.0</ele><time>2026-04-26T10:34:40.53Z</time></trkpt><trkpt lat="43.8034428" lon="11.602389"><ele>1012.8333333333334</ele><time>2026-04-26T10:34:42.529Z</time></trkpt><trkpt lat="43.8035207" lon="11.6024791"><ele>1011.6666666666667</ele><time>2026-04-26T10:34:44.536Z</time></trkpt><trkpt lat="43.8035909" lon="11.6025566"><ele>1010.5</ele><time>2026-04-26T10:34:46.53Z</time></trkpt><trkpt lat="43.8036749" lon="11.6025983"><ele>1009.3333333333334</ele><time>2026-04-26T10:34:48.527Z</time></trkpt><trkpt lat="43.8037456" lon="11.6026316"><ele>1008.1666666666667</ele><time>2026-04-26T10:34:50.522Z</time></trkpt><trkpt lat="43.8038157" lon="11.6026588"><ele>1007.0</ele><time>2026-04-26T10:34:52.543Z</time></trkpt><trkpt lat="43.8038968" lon="11.6026823"><ele>1007.0000000000001</ele><time>2026-04-26T10:34:54.524Z</time></trkpt><trkpt lat="43.8039765" lon="11.6026781"><ele>1007.0</ele><time>2026-04-26T10:34:56.522Z</time></trkpt><trkpt lat="43.8040654" lon="11.602632"><ele>1007.0</ele><time>2026-04-26T10:34:58.53Z</time></trkpt><trkpt lat="43.8041517" lon="11.6026225"><ele>1007.0</ele><time>2026-04-26T10:35:00.531Z</time></trkpt><trkpt lat="43.8042382" lon="11.602604"><ele>1007.0000000000001</ele><time>2026-04-26T10:35:02.537Z</time></trkpt><trkpt lat="43.8043201" lon="11.6025998"><ele>1007.0</ele><time>2026-04-26T10:35:04.525Z</time></trkpt><trkpt lat="43.8043972" lon="11.6026137"><ele>1004.8333333333334</ele><time>2026-04-26T10:35:06.53Z</time></trkpt><trkpt lat="43.8044783" lon="11.602619"><ele>1002.6666666666667</ele><time>2026-04-26T10:35:08.545Z</time></trkpt><trkpt lat="43.8045594" lon="11.6026246"><ele>1000.5</ele><time>2026-04-26T10:35:10.532Z</time></trkpt><trkpt lat="43.8046255" lon="11.6026374"><ele>998.3333333333333</ele><time>2026-04-26T10:35:12.536Z</time></trkpt><trkpt lat="43.80469" lon="11.6026807"><ele>996.1666666666666</ele><time>2026-04-26T10:35:14.536Z</time></trkpt><trkpt lat="43.8047711" lon="11.602733"><ele>994.0</ele><time>2026-04-26T10:35:16.533Z</time></trkpt><trkpt lat="43.8048407" lon="11.6027969"><ele>995.5714285714286</ele><time>2026-04-26T10:35:18.536Z</time></trkpt><trkpt lat="43.804904" lon="11.6028458"><ele>997.1428571428571</ele><time>2026-04-26T10:35:20.526Z</time></trkpt><trkpt lat="43.8049591" lon="11.6029126"><ele>998.7142857142858</ele><time>2026-04-26T10:35:22.539Z</time></trkpt><trkpt lat="43.8049916" lon="11.6029947"><ele>1000.2857142857143</ele><time>2026-04-26T10:35:24.526Z</time></trkpt><trkpt lat="43.8050288" lon="11.6030657"><ele>1001.8571428571429</ele><time>2026-04-26T10:35:26.522Z</time></trkpt><trkpt lat="43.8050673" lon="11.6031547"><ele>1003.4285714285716</ele><time>2026-04-26T10:35:28.522Z</time></trkpt><trkpt lat="43.8051075" lon="11.6032494"><ele>1005.0000000000001</ele><time>2026-04-26T10:35:30.529Z</time></trkpt><trkpt lat="43.8051398" lon="11.6033401"><ele>1001.8333333333334</ele><time>2026-04-26T10:35:32.53Z</time></trkpt><trkpt lat="43.8051718" lon="11.6034273"><ele>998.6666666666667</ele><time>2026-04-26T10:35:34.532Z</time></trkpt><trkpt lat="43.8051786" lon="11.6035355"><ele>995.5</ele><time>2026-04-26T10:35:36.538Z</time></trkpt><trkpt lat="43.8051762" lon="11.6036452"><ele>992.3333333333334</ele><time>2026-04-26T10:35:38.529Z</time></trkpt><trkpt lat="43.8051825" lon="11.6037597"><ele>989.1666666666667</ele><time>2026-04-26T10:35:40.528Z</time></trkpt><trkpt lat="43.8051865" lon="11.6039092"><ele>986.0</ele><time>2026-04-26T10:35:42.53Z</time></trkpt><trkpt lat="43.8051907" lon="11.6040489"><ele>986.0000000000001</ele><time>2026-04-26T10:35:44.536Z</time></trkpt><trkpt lat="43.8051936" lon="11.6041751"><ele>986.0</ele><time>2026-04-26T10:35:46.536Z</time></trkpt><trkpt lat="43.8052083" lon="11.6043028"><ele>986.0</ele><time>2026-04-26T10:35:48.553Z</time></trkpt><trkpt lat="43.8052358" lon="11.6044066"><ele>986.0</ele><time>2026-04-26T10:35:50.539Z</time></trkpt><trkpt lat="43.8052815" lon="11.6044947"><ele>986.0000000000001</ele><time>2026-04-26T10:35:52.539Z</time></trkpt><trkpt lat="43.8053349" lon="11.6045596"><ele>986.0</ele><time>2026-04-26T10:35:54.528Z</time></trkpt><trkpt lat="43.8053944" lon="11.6046175"><ele>988.0000000000001</ele><time>2026-04-26T10:35:56.541Z</time></trkpt><trkpt lat="43.805459" lon="11.6046953"><ele>990.0</ele><time>2026-04-26T10:35:58.534Z</time></trkpt><trkpt lat="43.8055243" lon="11.6047651"><ele>992.0</ele><time>2026-04-26T10:36:00.53Z</time></trkpt><trkpt lat="43.8055907" lon="11.6048432"><ele>994.0</ele><time>2026-04-26T10:36:02.541Z</time></trkpt><trkpt lat="43.8056656" lon="11.6049231"><ele>996.0000000000001</ele><time>2026-04-26T10:36:04.541Z</time></trkpt><trkpt lat="43.8057316" lon="11.6049966"><ele>998.0</ele><time>2026-04-26T10:36:06.538Z</time></trkpt><trkpt lat="43.8057793" lon="11.6050822"><ele>998.0000000000001</ele><time>2026-04-26T10:36:08.523Z</time></trkpt><trkpt lat="43.8058489" lon="11.6051559"><ele>998.0</ele><time>2026-04-26T10:36:10.545Z</time></trkpt><trkpt lat="43.8059274" lon="11.6052129"><ele>998.0</ele><time>2026-04-26T10:36:12.548Z</time></trkpt><trkpt lat="43.8060131" lon="11.6052465"><ele>998.0</ele><time>2026-04-26T10:36:14.536Z</time></trkpt><trkpt lat="43.8061082" lon="11.6052681"><ele>998.0000000000001</ele><time>2026-04-26T10:36:16.531Z</time></trkpt><trkpt lat="43.8061894" lon="11.6053018"><ele>998.0</ele><time>2026-04-26T10:36:18.541Z</time></trkpt><trkpt lat="43.8062773" lon="11.6053238"><ele>996.8</ele><time>2026-04-26T10:36:20.531Z</time></trkpt><trkpt lat="43.8063696" lon="11.6053537"><ele>995.5999999999999</ele><time>2026-04-26T10:36:22.534Z</time></trkpt><trkpt lat="43.8064671" lon="11.6053953"><ele>994.4000000000001</ele><time>2026-04-26T10:36:24.531Z</time></trkpt><trkpt lat="43.8065592" lon="11.6054329"><ele>993.2</ele><time>2026-04-26T10:36:26.537Z</time></trkpt><trkpt lat="43.8066645" lon="11.6054672"><ele>992.0</ele><time>2026-04-26T10:36:28.53Z</time></trkpt><trkpt lat="43.8067611" lon="11.605471"><ele>993.0000000000001</ele><time>2026-04-26T10:36:30.533Z</time></trkpt><trkpt lat="43.8068592" lon="11.6054642"><ele>994.0</ele><time>2026-04-26T10:36:32.531Z</time></trkpt><trkpt lat="43.8069481" lon="11.6054633"><ele>995.0</ele><time>2026-04-26T10:36:34.532Z</time></trkpt><trkpt lat="43.8070205" lon="11.6054509"><ele>996.0</ele><time>2026-04-26T10:36:36.53Z</time></trkpt><trkpt lat="43.8071061" lon="11.6054066"><ele>997.0000000000001</ele><time>2026-04-26T10:36:39.524Z</time></trkpt><trkpt lat="43.8071715" lon="11.6053843"><ele>998.0</ele><time>2026-04-26T10:36:41.534Z</time></trkpt><trkpt lat="43.8072607" lon="11.6053543"><ele>997.6666666666667</ele><time>2026-04-26T10:36:44.531Z</time></trkpt><trkpt lat="43.8073354" lon="11.6053216"><ele>997.3333333333334</ele><time>2026-04-26T10:36:47.526Z</time></trkpt><trkpt lat="43.8074146" lon="11.6052923"><ele>997.0</ele><time>2026-04-26T10:36:50.524Z</time></trkpt><trkpt lat="43.8074931" lon="11.6052541"><ele>996.6666666666667</ele><time>2026-04-26T10:36:53.534Z</time></trkpt><trkpt lat="43.8075664" lon="11.6052239"><ele>996.3333333333334</ele><time>2026-04-26T10:36:56.54Z</time></trkpt><trkpt lat="43.8076387" lon="11.6052064"><ele>996.0</ele><time>2026-04-26T10:36:59.527Z</time></trkpt><trkpt lat="43.8077177" lon="11.6051976"><ele>997.6666666666666</ele><time>2026-04-26T10:37:02.535Z</time></trkpt><trkpt lat="43.807799" lon="11.6051936"><ele>999.3333333333333</ele><time>2026-04-26T10:37:05.524Z</time></trkpt><trkpt lat="43.8078743" lon="11.6051999"><ele>1001.0</ele><time>2026-04-26T10:37:09.533Z</time></trkpt><trkpt lat="43.8079376" lon="11.6052184"><ele>1002.6666666666666</ele><time>2026-04-26T10:37:12.528Z</time></trkpt><trkpt lat="43.808009" lon="11.6052941"><ele>1004.3333333333333</ele><time>2026-04-26T10:37:15.535Z</time></trkpt><trkpt lat="43.8080496" lon="11.6053696"><ele>1006.0</ele><time>2026-04-26T10:37:17.531Z</time></trkpt><trkpt lat="43.8080953" lon="11.6054522"><ele>1005.9999999999999</ele><time>2026-04-26T10:37:19.545Z</time></trkpt><trkpt lat="43.8081253" lon="11.6055477"><ele>1006.0</ele><time>2026-04-26T10:37:21.53Z</time></trkpt><trkpt lat="43.80815" lon="11.6056522"><ele>1006.0</ele><time>2026-04-26T10:37:23.538Z</time></trkpt><trkpt lat="43.808179" lon="11.6057509"><ele>1006.0</ele><time>2026-04-26T10:37:25.526Z</time></trkpt><trkpt lat="43.8081986" lon="11.6058597"><ele>1005.9999999999999</ele><time>2026-04-26T10:37:27.519Z</time></trkpt><trkpt lat="43.8082235" lon="11.6059641"><ele>1006.0</ele><time>2026-04-26T10:37:29.518Z</time></trkpt><trkpt lat="43.8082654" lon="11.6060733"><ele>1003.8333333333333</ele><time>2026-04-26T10:37:31.539Z</time></trkpt><trkpt lat="43.8082921" lon="11.6061855"><ele>1001.6666666666666</ele><time>2026-04-26T10:37:33.516Z</time></trkpt><trkpt lat="43.8083108" lon="11.6062895"><ele>999.5</ele><time>2026-04-26T10:37:35.53Z</time></trkpt><trkpt lat="43.8083377" lon="11.6063866"><ele>997.3333333333333</ele><time>2026-04-26T10:37:37.518Z</time></trkpt><trkpt lat="43.8083599" lon="11.6064867"><ele>995.1666666666666</ele><time>2026-04-26T10:37:39.519Z</time></trkpt><trkpt lat="43.8083875" lon="11.6065816"><ele>993.0</ele><time>2026-04-26T10:37:41.523Z</time></trkpt><trkpt lat="43.8084252" lon="11.606668"><ele>993.0</ele><time>2026-04-26T10:37:43.53Z</time></trkpt><trkpt lat="43.8084667" lon="11.6067449"><ele>993.0</ele><time>2026-04-26T10:37:45.525Z</time></trkpt><trkpt lat="43.8084946" lon="11.606859"><ele>993.0</ele><time>2026-04-26T10:37:48.522Z</time></trkpt><trkpt lat="43.8084775" lon="11.6069567"><ele>993.0</ele><time>2026-04-26T10:37:50.52Z</time></trkpt><trkpt lat="43.8084371" lon="11.6070254"><ele>993.0</ele><time>2026-04-26T10:37:52.523Z</time></trkpt><trkpt lat="43.8083876" lon="11.6070851"><ele>993.0</ele><time>2026-04-26T10:37:54.52Z</time></trkpt><trkpt lat="43.8083419" lon="11.6071535"><ele>993.0</ele><time>2026-04-26T10:37:56.53Z</time></trkpt><trkpt lat="43.8082847" lon="11.6072467"><ele>991.0</ele><time>2026-04-26T10:37:59.523Z</time></trkpt><trkpt lat="43.8082539" lon="11.6073307"><ele>989.0</ele><time>2026-04-26T10:38:01.519Z</time></trkpt><trkpt lat="43.8082206" lon="11.6074225"><ele>987.0</ele><time>2026-04-26T10:38:03.535Z</time></trkpt><trkpt lat="43.8081844" lon="11.607534"><ele>985.0</ele><time>2026-04-26T10:38:06.532Z</time></trkpt><trkpt lat="43.8081604" lon="11.6076359"><ele>983.0</ele><time>2026-04-26T10:38:09.532Z</time></trkpt><trkpt lat="43.8081353" lon="11.6077442"><ele>981.0</ele><time>2026-04-26T10:38:12.527Z</time></trkpt><trkpt lat="43.808127" lon="11.6078626"><ele>980.5</ele><time>2026-04-26T10:38:15.533Z</time></trkpt><trkpt lat="43.8081196" lon="11.6079809"><ele>980.0</ele><time>2026-04-26T10:38:18.528Z</time></trkpt><trkpt lat="43.8081357" lon="11.6081007"><ele>979.5</ele><time>2026-04-26T10:38:21.526Z</time></trkpt><trkpt lat="43.8081981" lon="11.6081569"><ele>979.0</ele><time>2026-04-26T10:38:24.525Z</time></trkpt><trkpt lat="43.8082828" lon="11.6081516"><ele>978.5</ele><time>2026-04-26T10:38:27.532Z</time></trkpt><trkpt lat="43.8083389" lon="11.6081108"><ele>978.0</ele><time>2026-04-26T10:38:29.529Z</time></trkpt><trkpt lat="43.8084141" lon="11.6080469"><ele>978.0</ele><time>2026-04-26T10:38:32.534Z</time></trkpt><trkpt lat="43.8085052" lon="11.6080028"><ele>978.0</ele><time>2026-04-26T10:38:35.527Z</time></trkpt><trkpt lat="43.8085695" lon="11.6079719"><ele>978.0</ele><time>2026-04-26T10:38:37.542Z</time></trkpt><trkpt lat="43.8086585" lon="11.607952"><ele>978.0</ele><time>2026-04-26T10:38:40.529Z</time></trkpt><trkpt lat="43.8087498" lon="11.6079795"><ele>978.0</ele><time>2026-04-26T10:38:43.525Z</time></trkpt><trkpt lat="43.8088214" lon="11.6080506"><ele>978.0</ele><time>2026-04-26T10:38:46.532Z</time></trkpt><trkpt lat="43.8088736" lon="11.6081399"><ele>978.0</ele><time>2026-04-26T10:38:49.522Z</time></trkpt><trkpt lat="43.8088852" lon="11.6082337"><ele>978.0</ele><time>2026-04-26T10:38:51.537Z</time></trkpt><trkpt lat="43.8089002" lon="11.6083378"><ele>978.0</ele><time>2026-04-26T10:38:53.529Z</time></trkpt><trkpt lat="43.8088981" lon="11.6084632"><ele>978.0</ele><time>2026-04-26T10:38:55.534Z</time></trkpt><trkpt lat="43.8088906" lon="11.6085922"><ele>978.0</ele><time>2026-04-26T10:38:57.523Z</time></trkpt><trkpt lat="43.8088801" lon="11.6087121"><ele>978.0</ele><time>2026-04-26T10:38:59.529Z</time></trkpt><trkpt lat="43.808882" lon="11.6088269"><ele>978.5</ele><time>2026-04-26T10:39:01.54Z</time></trkpt><trkpt lat="43.8088962" lon="11.6089348"><ele>979.0</ele><time>2026-04-26T10:39:03.527Z</time></trkpt><trkpt lat="43.8089197" lon="11.6090399"><ele>979.5</ele><time>2026-04-26T10:39:05.53Z</time></trkpt><trkpt lat="43.808929" lon="11.6091418"><ele>980.0</ele><time>2026-04-26T10:39:07.535Z</time></trkpt><trkpt lat="43.808956" lon="11.6092455"><ele>980.5</ele><time>2026-04-26T10:39:11.535Z</time></trkpt><trkpt lat="43.8090419" lon="11.6092728"><ele>981.0</ele><time>2026-04-26T10:39:14.524Z</time></trkpt><trkpt lat="43.8091284" lon="11.6093075"><ele>981.0</ele><time>2026-04-26T10:39:17.527Z</time></trkpt><trkpt lat="43.8091945" lon="11.6093339"><ele>981.0</ele><time>2026-04-26T10:39:19.546Z</time></trkpt><trkpt lat="43.8092564" lon="11.6093572"><ele>981.0</ele><time>2026-04-26T10:39:22.53Z</time></trkpt><trkpt lat="43.8093278" lon="11.6094047"><ele>981.0</ele><time>2026-04-26T10:40:35.536Z</time></trkpt><trkpt lat="43.8093649" lon="11.6094755"><ele>981.0</ele><time>2026-04-26T10:40:39.539Z</time></trkpt><trkpt lat="43.8094272" lon="11.6095324"><ele>981.0</ele><time>2026-04-26T10:40:43.529Z</time></trkpt><trkpt lat="43.8094924" lon="11.6095851"><ele>981.0</ele><time>2026-04-26T10:40:46.53Z</time></trkpt><trkpt lat="43.8095608" lon="11.6096635"><ele>985.1666666666666</ele><time>2026-04-26T10:40:49.53Z</time></trkpt><trkpt lat="43.8096129" lon="11.6097452"><ele>989.3333333333333</ele><time>2026-04-26T10:40:52.523Z</time></trkpt><trkpt lat="43.8096517" lon="11.6098329"><ele>993.5</ele><time>2026-04-26T10:40:55.53Z</time></trkpt><trkpt lat="43.8096826" lon="11.609933"><ele>997.6666666666666</ele><time>2026-04-26T10:40:58.528Z</time></trkpt><trkpt lat="43.8096852" lon="11.6100402"><ele>1001.8333333333333</ele><time>2026-04-26T10:41:01.535Z</time></trkpt><trkpt lat="43.8096653" lon="11.6101385"><ele>1006.0</ele><time>2026-04-26T10:41:04.538Z</time></trkpt><trkpt lat="43.8096625" lon="11.6102352"><ele>1006.8571428571429</ele><time>2026-04-26T10:41:07.531Z</time></trkpt><trkpt lat="43.809675" lon="11.6103411"><ele>1007.7142857142858</ele><time>2026-04-26T10:41:10.535Z</time></trkpt><trkpt lat="43.8097011" lon="11.610441"><ele>1008.5714285714287</ele><time>2026-04-26T10:41:13.527Z</time></trkpt><trkpt lat="43.8097072" lon="11.610531"><ele>1009.4285714285716</ele><time>2026-04-26T10:41:16.533Z</time></trkpt><trkpt lat="43.8097263" lon="11.6106183"><ele>1010.2857142857143</ele><time>2026-04-26T10:41:20.542Z</time></trkpt><trkpt lat="43.8097404" lon="11.6107274"><ele>1011.1428571428573</ele><time>2026-04-26T10:41:24.542Z</time></trkpt><trkpt lat="43.8097392" lon="11.6108193"><ele>1012.0000000000001</ele><time>2026-04-26T10:41:27.533Z</time></trkpt><trkpt lat="43.809735" lon="11.6109087"><ele>1012.0000000000001</ele><time>2026-04-26T10:41:30.537Z</time></trkpt><trkpt lat="43.8097117" lon="11.6110126"><ele>1012.0</ele><time>2026-04-26T10:41:34.534Z</time></trkpt><trkpt lat="43.8096831" lon="11.6111075"><ele>1012.0000000000001</ele><time>2026-04-26T10:41:38.534Z</time></trkpt><trkpt lat="43.8096691" lon="11.6112247"><ele>1012.0000000000001</ele><time>2026-04-26T10:41:42.54Z</time></trkpt><trkpt lat="43.8096507" lon="11.6113166"><ele>1012.0</ele><time>2026-04-26T10:41:45.538Z</time></trkpt><trkpt lat="43.8096493" lon="11.6114157"><ele>1012.0000000000001</ele><time>2026-04-26T10:41:49.524Z</time></trkpt><trkpt lat="43.8096746" lon="11.6115013"><ele>1012.0000000000001</ele><time>2026-04-26T10:41:52.535Z</time></trkpt><trkpt lat="43.8097096" lon="11.6115865"><ele>1012.0000000000001</ele><time>2026-04-26T10:41:56.542Z</time></trkpt><trkpt lat="43.8097526" lon="11.6116686"><ele>1012.0</ele><time>2026-04-26T10:42:01.537Z</time></trkpt><trkpt lat="43.8097751" lon="11.6117686"><ele>1012.0000000000001</ele><time>2026-04-26T10:42:06.526Z</time></trkpt><trkpt lat="43.8097669" lon="11.6118764"><ele>1012.0000000000001</ele><time>2026-04-26T10:42:11.526Z</time></trkpt><trkpt lat="43.809734" lon="11.6119592"><ele>1012.0</ele><time>2026-04-26T10:42:15.537Z</time></trkpt><trkpt lat="43.8096853" lon="11.6120343"><ele>1012.0000000000001</ele><time>2026-04-26T10:42:47.533Z</time></trkpt><trkpt lat="43.8096476" lon="11.6121234"><ele>1012.0000000000001</ele><time>2026-04-26T10:42:50.525Z</time></trkpt><trkpt lat="43.8096253" lon="11.6122189"><ele>1011.8333333333333</ele><time>2026-04-26T10:42:53.533Z</time></trkpt><trkpt lat="43.8096229" lon="11.6123164"><ele>1011.6666666666666</ele><time>2026-04-26T10:42:56.531Z</time></trkpt><trkpt lat="43.8096447" lon="11.6124265"><ele>1011.5</ele><time>2026-04-26T10:42:59.538Z</time></trkpt><trkpt lat="43.8096913" lon="11.6125213"><ele>1011.3333333333333</ele><time>2026-04-26T10:43:02.526Z</time></trkpt><trkpt lat="43.80975" lon="11.6125937"><ele>1011.1666666666666</ele><time>2026-04-26T10:43:05.537Z</time></trkpt><trkpt lat="43.8098266" lon="11.6126237"><ele>1011.0</ele><time>2026-04-26T10:43:08.538Z</time></trkpt><trkpt lat="43.8099034" lon="11.6126165"><ele>1010.9999999999999</ele><time>2026-04-26T10:43:11.526Z</time></trkpt><trkpt lat="43.8099769" lon="11.6125902"><ele>1011.0</ele><time>2026-04-26T10:43:14.529Z</time></trkpt><trkpt lat="43.8100425" lon="11.6125807"><ele>1010.9999999999999</ele><time>2026-04-26T10:43:17.526Z</time></trkpt><trkpt lat="43.8101163" lon="11.6125622"><ele>1010.9999999999999</ele><time>2026-04-26T10:43:20.538Z</time></trkpt><trkpt lat="43.8101892" lon="11.6125456"><ele>1011.0</ele><time>2026-04-26T10:43:23.534Z</time></trkpt><trkpt lat="43.8102604" lon="11.6125373"><ele>1010.9999999999999</ele><time>2026-04-26T10:43:26.542Z</time></trkpt><trkpt lat="43.8103351" lon="11.6125232"><ele>1010.9999999999999</ele><time>2026-04-26T10:43:29.534Z</time></trkpt><trkpt lat="43.8104064" lon="11.612508"><ele>1014.5714285714284</ele><time>2026-04-26T10:43:32.522Z</time></trkpt><trkpt lat="43.810482" lon="11.6124891"><ele>1018.1428571428571</ele><time>2026-04-26T10:43:36.537Z</time></trkpt><trkpt lat="43.810556" lon="11.6124383"><ele>1021.7142857142857</ele><time>2026-04-26T10:43:40.525Z</time></trkpt><trkpt lat="43.8106333" lon="11.6124459"><ele>1025.2857142857142</ele><time>2026-04-26T10:43:43.533Z</time></trkpt><trkpt lat="43.8107001" lon="11.6124638"><ele>1028.857142857143</ele><time>2026-04-26T10:43:46.534Z</time></trkpt><trkpt lat="43.8107551" lon="11.6125282"><ele>1032.4285714285713</ele><time>2026-04-26T10:43:50.523Z</time></trkpt><trkpt lat="43.8107802" lon="11.6126222"><ele>1036.0</ele><time>2026-04-26T10:43:53.54Z</time></trkpt><trkpt lat="43.8107975" lon="11.6127255"><ele>1035.0</ele><time>2026-04-26T10:43:56.536Z</time></trkpt><trkpt lat="43.8108258" lon="11.6128251"><ele>1034.0</ele><time>2026-04-26T10:43:59.537Z</time></trkpt><trkpt lat="43.8108642" lon="11.6129192"><ele>1033.0</ele><time>2026-04-26T10:44:02.538Z</time></trkpt><trkpt lat="43.8109075" lon="11.6130027"><ele>1032.0</ele><time>2026-04-26T10:44:05.538Z</time></trkpt><trkpt lat="43.8109522" lon="11.6130846"><ele>1031.0</ele><time>2026-04-26T10:44:08.541Z</time></trkpt><trkpt lat="43.8109935" lon="11.6131595"><ele>1030.0</ele><time>2026-04-26T10:44:11.539Z</time></trkpt><trkpt lat="43.8110386" lon="11.6132267"><ele>1029.0</ele><time>2026-04-26T10:44:14.541Z</time></trkpt><trkpt lat="43.811085" lon="11.6132895"><ele>1032.1666666666667</ele><time>2026-04-26T10:44:17.524Z</time></trkpt><trkpt lat="43.8111596" lon="11.613358"><ele>1035.3333333333333</ele><time>2026-04-26T10:44:20.526Z</time></trkpt><trkpt lat="43.8112188" lon="11.6134091"><ele>1038.5</ele><time>2026-04-26T10:44:23.539Z</time></trkpt><trkpt lat="43.8112897" lon="11.6134558"><ele>1041.6666666666665</ele><time>2026-04-26T10:44:26.539Z</time></trkpt><trkpt lat="43.8113559" lon="11.6135034"><ele>1044.8333333333333</ele><time>2026-04-26T10:44:29.534Z</time></trkpt><trkpt lat="43.8114144" lon="11.6135832"><ele>1048.0</ele><time>2026-04-26T10:44:32.531Z</time></trkpt><trkpt lat="43.8114584" lon="11.613663"><ele>1048.5714285714287</ele><time>2026-04-26T10:44:35.533Z</time></trkpt><trkpt lat="43.8115299" lon="11.6137101"><ele>1049.1428571428573</ele><time>2026-04-26T10:44:39.527Z</time></trkpt><trkpt lat="43.8115979" lon="11.6137321"><ele>1049.7142857142858</ele><time>2026-04-26T10:44:42.532Z</time></trkpt><trkpt lat="43.8116606" lon="11.6137955"><ele>1050.2857142857142</ele><time>2026-04-26T10:44:46.538Z</time></trkpt><trkpt lat="43.8117212" lon="11.6138355"><ele>1050.8571428571427</ele><time>2026-04-26T10:44:49.529Z</time></trkpt><trkpt lat="43.8117765" lon="11.6138822"><ele>1051.4285714285713</ele><time>2026-04-26T10:44:52.531Z</time></trkpt><trkpt lat="43.8118301" lon="11.6139462"><ele>1052.0</ele><time>2026-04-26T10:44:56.551Z</time></trkpt><trkpt lat="43.8118816" lon="11.614026"><ele>1053.0</ele><time>2026-04-26T10:44:59.529Z</time></trkpt><trkpt lat="43.8119304" lon="11.614088"><ele>1054.0</ele><time>2026-04-26T10:45:02.557Z</time></trkpt><trkpt lat="43.8119666" lon="11.6141639"><ele>1055.0</ele><time>2026-04-26T10:45:05.531Z</time></trkpt><trkpt lat="43.8119667" lon="11.6142607"><ele>1056.0</ele><time>2026-04-26T10:45:09.532Z</time></trkpt><trkpt lat="43.8119512" lon="11.6143536"><ele>1057.0</ele><time>2026-04-26T10:45:13.525Z</time></trkpt><trkpt lat="43.8119863" lon="11.6144468"><ele>1058.0</ele><time>2026-04-26T10:45:17.538Z</time></trkpt><trkpt lat="43.8120414" lon="11.614513"><ele>1059.0</ele><time>2026-04-26T10:45:21.528Z</time></trkpt><trkpt lat="43.8120565" lon="11.6146057"><ele>1060.0</ele><time>2026-04-26T10:47:34.53Z</time></trkpt><trkpt lat="43.8120889" lon="11.6146993"><ele>1061.0</ele><time>2026-04-26T10:47:39.539Z</time></trkpt><trkpt lat="43.8121266" lon="11.6147766"><ele>1062.0</ele><time>2026-04-26T10:47:42.524Z</time></trkpt><trkpt lat="43.8121794" lon="11.6148474"><ele>1063.0</ele><time>2026-04-26T10:47:46.542Z</time></trkpt><trkpt lat="43.8122386" lon="11.6149254"><ele>1064.0</ele><time>2026-04-26T10:47:50.537Z</time></trkpt><trkpt lat="43.8122902" lon="11.6149787"><ele>1065.0</ele><time>2026-04-26T10:47:53.523Z</time></trkpt><trkpt lat="43.8123461" lon="11.6150527"><ele>1066.0</ele><time>2026-04-26T10:47:57.534Z</time></trkpt><trkpt lat="43.8123924" lon="11.6151341"><ele>1066.0</ele><time>2026-04-26T10:48:01.531Z</time></trkpt><trkpt lat="43.8124344" lon="11.615201"><ele>1066.0</ele><time>2026-04-26T10:48:04.521Z</time></trkpt><trkpt lat="43.812474" lon="11.6152736"><ele>1066.0</ele><time>2026-04-26T10:48:07.534Z</time></trkpt><trkpt lat="43.8124996" lon="11.6153645"><ele>1066.0</ele><time>2026-04-26T10:48:10.539Z</time></trkpt><trkpt lat="43.8125492" lon="11.6154494"><ele>1066.0</ele><time>2026-04-26T10:48:14.531Z</time></trkpt><trkpt lat="43.8126113" lon="11.6154826"><ele>1066.0</ele><time>2026-04-26T10:48:18.536Z</time></trkpt><trkpt lat="43.8126777" lon="11.6154982"><ele>1066.0</ele><time>2026-04-26T10:48:23.537Z</time></trkpt><trkpt lat="43.8127549" lon="11.6154863"><ele>1070.2857142857142</ele><time>2026-04-26T10:48:45.53Z</time></trkpt><trkpt lat="43.8128236" lon="11.6154608"><ele>1074.5714285714284</ele><time>2026-04-26T10:48:49.528Z</time></trkpt><trkpt lat="43.8128964" lon="11.6154371"><ele>1078.857142857143</ele><time>2026-04-26T10:48:53.523Z</time></trkpt><trkpt lat="43.8129633" lon="11.6154494"><ele>1083.142857142857</ele><time>2026-04-26T10:48:57.53Z</time></trkpt><trkpt lat="43.8130279" lon="11.6154825"><ele>1087.4285714285716</ele><time>2026-04-26T10:49:01.517Z</time></trkpt><trkpt lat="43.8130967" lon="11.615503"><ele>1091.7142857142858</ele><time>2026-04-26T10:49:05.543Z</time></trkpt><trkpt lat="43.8131616" lon="11.6155642"><ele>1096.0</ele><time>2026-04-26T10:49:10.524Z</time></trkpt><trkpt lat="43.8132074" lon="11.615625"><ele>1096.0000000000002</ele><time>2026-04-26T10:49:13.531Z</time></trkpt><trkpt lat="43.8132545" lon="11.6156851"><ele>1096.0</ele><time>2026-04-26T10:49:16.528Z</time></trkpt><trkpt lat="43.8133376" lon="11.6157106"><ele>1096.0</ele><time>2026-04-26T10:49:20.518Z</time></trkpt><trkpt lat="43.8134107" lon="11.6156911"><ele>1096.0</ele><time>2026-04-26T10:49:24.524Z</time></trkpt><trkpt lat="43.8134773" lon="11.6156728"><ele>1096.0</ele><time>2026-04-26T10:49:27.524Z</time></trkpt><trkpt lat="43.8135401" lon="11.6156307"><ele>1096.0000000000002</ele><time>2026-04-26T10:49:30.521Z</time></trkpt><trkpt lat="43.8136027" lon="11.615567"><ele>1096.0</ele><time>2026-04-26T10:49:33.534Z</time></trkpt><trkpt lat="43.8136595" lon="11.6155264"><ele>1097.5714285714287</ele><time>2026-04-26T10:49:36.521Z</time></trkpt><trkpt lat="43.8137288" lon="11.615475"><ele>1099.142857142857</ele><time>2026-04-26T10:49:39.524Z</time></trkpt><trkpt lat="43.8138056" lon="11.615435"><ele>1100.7142857142858</ele><time>2026-04-26T10:49:42.525Z</time></trkpt><trkpt lat="43.8138791" lon="11.6154254"><ele>1102.2857142857142</ele><time>2026-04-26T10:49:45.525Z</time></trkpt><trkpt lat="43.8139508" lon="11.6154437"><ele>1103.857142857143</ele><time>2026-04-26T10:49:48.532Z</time></trkpt><trkpt lat="43.8140095" lon="11.6154087"><ele>1105.4285714285716</ele><time>2026-04-26T10:49:51.531Z</time></trkpt><trkpt lat="43.8140736" lon="11.6153768"><ele>1107.0</ele><time>2026-04-26T10:49:54.523Z</time></trkpt><trkpt lat="43.8141395" lon="11.6153816"><ele>1107.0</ele><time>2026-04-26T10:49:57.54Z</time></trkpt><trkpt lat="43.8141941" lon="11.6154314"><ele>1107.0</ele><time>2026-04-26T10:50:00.523Z</time></trkpt><trkpt lat="43.8142311" lon="11.6155131"><ele>1107.0</ele><time>2026-04-26T10:50:03.521Z</time></trkpt><trkpt lat="43.8142389" lon="11.6156137"><ele>1107.0</ele><time>2026-04-26T10:50:06.53Z</time></trkpt><trkpt lat="43.8142363" lon="11.6157293"><ele>1107.0</ele><time>2026-04-26T10:50:09.527Z</time></trkpt><trkpt lat="43.8142404" lon="11.6158215"><ele>1107.0</ele><time>2026-04-26T10:50:12.525Z</time></trkpt><trkpt lat="43.8142829" lon="11.6159108"><ele>1107.0</ele><time>2026-04-26T10:50:16.522Z</time></trkpt><trkpt lat="43.8143526" lon="11.6159116"><ele>1105.0</ele><time>2026-04-26T10:50:19.521Z</time></trkpt><trkpt lat="43.8144206" lon="11.6158958"><ele>1103.0</ele><time>2026-04-26T10:50:22.52Z</time></trkpt><trkpt lat="43.8144925" lon="11.6158948"><ele>1101.0</ele><time>2026-04-26T10:50:25.531Z</time></trkpt><trkpt lat="43.8145642" lon="11.6159106"><ele>1099.0</ele><time>2026-04-26T10:50:28.527Z</time></trkpt><trkpt lat="43.8146419" lon="11.6159541"><ele>1097.0</ele><time>2026-04-26T10:50:31.561Z</time></trkpt><trkpt lat="43.8147112" lon="11.616016"><ele>1095.0</ele><time>2026-04-26T10:50:34.528Z</time></trkpt><trkpt lat="43.8147566" lon="11.6160971"><ele>1097.2857142857142</ele><time>2026-04-26T10:50:37.529Z</time></trkpt><trkpt lat="43.8148038" lon="11.6161815"><ele>1099.5714285714284</ele><time>2026-04-26T10:50:40.546Z</time></trkpt><trkpt lat="43.8148304" lon="11.6162711"><ele>1101.857142857143</ele><time>2026-04-26T10:50:43.525Z</time></trkpt><trkpt lat="43.814844" lon="11.6163652"><ele>1104.142857142857</ele><time>2026-04-26T10:50:47.527Z</time></trkpt><trkpt lat="43.8148166" lon="11.6164651"><ele>1106.4285714285716</ele><time>2026-04-26T10:50:51.523Z</time></trkpt><trkpt lat="43.8147865" lon="11.6165555"><ele>1108.7142857142858</ele><time>2026-04-26T10:50:54.524Z</time></trkpt><trkpt lat="43.8147548" lon="11.6166477"><ele>1111.0</ele><time>2026-04-26T10:50:57.526Z</time></trkpt><trkpt lat="43.8147281" lon="11.6167352"><ele>1111.0</ele><time>2026-04-26T10:51:00.53Z</time></trkpt><trkpt lat="43.8147044" lon="11.6168325"><ele>1111.0</ele><time>2026-04-26T10:51:03.537Z</time></trkpt><trkpt lat="43.8146761" lon="11.616931"><ele>1111.0</ele><time>2026-04-26T10:51:06.542Z</time></trkpt><trkpt lat="43.8146496" lon="11.6170118"><ele>1111.0</ele><time>2026-04-26T10:51:09.54Z</time></trkpt><trkpt lat="43.8146315" lon="11.6170964"><ele>1111.0</ele><time>2026-04-26T10:51:12.525Z</time></trkpt><trkpt lat="43.8145944" lon="11.6171766"><ele>1111.0</ele><time>2026-04-26T10:51:16.538Z</time></trkpt><trkpt lat="43.8145575" lon="11.6172552"><ele>1111.0</ele><time>2026-04-26T10:51:19.517Z</time></trkpt><trkpt lat="43.8145211" lon="11.6173372"><ele>1111.6666666666665</ele><time>2026-04-26T10:51:22.523Z</time></trkpt><trkpt lat="43.8144773" lon="11.6174082"><ele>1112.3333333333333</ele><time>2026-04-26T10:51:25.53Z</time></trkpt><trkpt lat="43.8144158" lon="11.6174755"><ele>1113.0</ele><time>2026-04-26T10:51:28.528Z</time></trkpt><trkpt lat="43.8143484" lon="11.6175351"><ele>1113.6666666666667</ele><time>2026-04-26T10:51:31.527Z</time></trkpt><trkpt lat="43.8142828" lon="11.6175885"><ele>1114.3333333333335</ele><time>2026-04-26T10:51:34.524Z</time></trkpt><trkpt lat="43.8142109" lon="11.6176394"><ele>1115.0</ele><time>2026-04-26T10:51:37.538Z</time></trkpt><trkpt lat="43.8141462" lon="11.6176908"><ele>1118.142857142857</ele><time>2026-04-26T10:51:40.533Z</time></trkpt><trkpt lat="43.8140834" lon="11.617725"><ele>1121.2857142857142</ele><time>2026-04-26T10:51:43.539Z</time></trkpt><trkpt lat="43.8140212" lon="11.6177697"><ele>1124.4285714285713</ele><time>2026-04-26T10:51:46.532Z</time></trkpt><trkpt lat="43.8139583" lon="11.6177871"><ele>1127.5714285714284</ele><time>2026-04-26T10:51:49.531Z</time></trkpt><trkpt lat="43.8139011" lon="11.6178252"><ele>1130.7142857142858</ele><time>2026-04-26T10:53:23.539Z</time></trkpt><trkpt lat="43.8138302" lon="11.6178729"><ele>1133.8571428571427</ele><time>2026-04-26T10:53:27.526Z</time></trkpt><trkpt lat="43.8137788" lon="11.6179461"><ele>1137.0</ele><time>2026-04-26T10:53:31.537Z</time></trkpt><trkpt lat="43.8137402" lon="11.6180511"><ele>1136.9999999999998</ele><time>2026-04-26T10:53:35.519Z</time></trkpt><trkpt lat="43.8137383" lon="11.6181561"><ele>1137.0</ele><time>2026-04-26T10:53:38.536Z</time></trkpt><trkpt lat="43.813744" lon="11.6182558"><ele>1137.0</ele><time>2026-04-26T10:53:41.53Z</time></trkpt><trkpt lat="43.813748" lon="11.618367"><ele>1137.0</ele><time>2026-04-26T10:53:44.527Z</time></trkpt><trkpt lat="43.8137535" lon="11.6184606"><ele>1137.0</ele><time>2026-04-26T10:53:47.525Z</time></trkpt><trkpt lat="43.8137617" lon="11.6185574"><ele>1136.9999999999998</ele><time>2026-04-26T10:53:50.527Z</time></trkpt><trkpt lat="43.8137609" lon="11.6186659"><ele>1137.0</ele><time>2026-04-26T10:53:54.532Z</time></trkpt><trkpt lat="43.8137712" lon="11.6187967"><ele>1136.5</ele><time>2026-04-26T10:53:57.528Z</time></trkpt><trkpt lat="43.8137802" lon="11.618893"><ele>1136.0</ele><time>2026-04-26T10:53:59.531Z</time></trkpt><trkpt lat="43.8137911" lon="11.6189967"><ele>1135.5</ele><time>2026-04-26T10:54:01.537Z</time></trkpt><trkpt lat="43.8137899" lon="11.619108"><ele>1135.0</ele><time>2026-04-26T10:54:03.546Z</time></trkpt><trkpt lat="43.813802" lon="11.6192002"><ele>1134.5</ele><time>2026-04-26T10:54:05.53Z</time></trkpt><trkpt lat="43.8138274" lon="11.6193189"><ele>1134.0</ele><time>2026-04-26T10:54:08.537Z</time></trkpt><trkpt lat="43.8138555" lon="11.619411"><ele>1134.8333333333333</ele><time>2026-04-26T10:54:10.539Z</time></trkpt><trkpt lat="43.8138846" lon="11.6195098"><ele>1135.6666666666667</ele><time>2026-04-26T10:54:12.543Z</time></trkpt><trkpt lat="43.8139086" lon="11.6196202"><ele>1136.5</ele><time>2026-04-26T10:54:15.527Z</time></trkpt><trkpt lat="43.8139279" lon="11.619743"><ele>1137.3333333333335</ele><time>2026-04-26T10:54:18.54Z</time></trkpt><trkpt lat="43.8139384" lon="11.6198295"><ele>1138.1666666666667</ele><time>2026-04-26T10:54:20.538Z</time></trkpt><trkpt lat="43.8139402" lon="11.6199179"><ele>1139.0</ele><time>2026-04-26T10:54:22.538Z</time></trkpt><trkpt lat="43.8139689" lon="11.6200334"><ele>1139.0</ele><time>2026-04-26T10:54:25.531Z</time></trkpt><trkpt lat="43.8139992" lon="11.6201099"><ele>1139.0</ele><time>2026-04-26T10:54:27.529Z</time></trkpt><trkpt lat="43.8140362" lon="11.6202038"><ele>1139.0</ele><time>2026-04-26T10:54:30.525Z</time></trkpt><trkpt lat="43.8140597" lon="11.6203076"><ele>1139.0</ele><time>2026-04-26T10:54:33.553Z</time></trkpt><trkpt lat="43.8140802" lon="11.6204186"><ele>1139.0</ele><time>2026-04-26T10:54:36.535Z</time></trkpt><trkpt lat="43.8140907" lon="11.620525"><ele>1139.0</ele><time>2026-04-26T10:54:39.524Z</time></trkpt><trkpt lat="43.8141264" lon="11.6206312"><ele>1138.7142857142858</ele><time>2026-04-26T10:54:42.529Z</time></trkpt><trkpt lat="43.8141648" lon="11.620712"><ele>1138.4285714285716</ele><time>2026-04-26T10:54:45.535Z</time></trkpt><trkpt lat="43.8142108" lon="11.6207932"><ele>1138.142857142857</ele><time>2026-04-26T10:54:48.526Z</time></trkpt><trkpt lat="43.8142505" lon="11.6208624"><ele>1137.857142857143</ele><time>2026-04-26T10:55:04.536Z</time></trkpt><trkpt lat="43.814296" lon="11.62094"><ele>1137.5714285714284</ele><time>2026-04-26T10:55:07.527Z</time></trkpt><trkpt lat="43.8143354" lon="11.6210087"><ele>1137.2857142857142</ele><time>2026-04-26T10:55:11.535Z</time></trkpt><trkpt lat="43.8143716" lon="11.6210989"><ele>1137.0</ele><time>2026-04-26T10:55:16.537Z</time></trkpt><trkpt lat="43.8144108" lon="11.6211829"><ele>1136.142857142857</ele><time>2026-04-26T10:55:20.523Z</time></trkpt><trkpt lat="43.8144473" lon="11.6212641"><ele>1135.2857142857142</ele><time>2026-04-26T10:55:26.53Z</time></trkpt><trkpt lat="43.8144739" lon="11.6213651"><ele>1134.4285714285716</ele><time>2026-04-26T10:55:31.539Z</time></trkpt><trkpt lat="43.8145161" lon="11.6214603"><ele>1133.5714285714284</ele><time>2026-04-26T10:55:35.53Z</time></trkpt><trkpt lat="43.8145453" lon="11.6215491"><ele>1132.7142857142858</ele><time>2026-04-26T10:55:39.53Z</time></trkpt><trkpt lat="43.814561" lon="11.6216336"><ele>1131.857142857143</ele><time>2026-04-26T10:55:42.527Z</time></trkpt><trkpt lat="43.814566" lon="11.6217277"><ele>1131.0</ele><time>2026-04-26T10:55:45.535Z</time></trkpt><trkpt lat="43.814567" lon="11.6218167"><ele>1131.0000000000002</ele><time>2026-04-26T10:55:48.529Z</time></trkpt><trkpt lat="43.8145766" lon="11.6219275"><ele>1131.0</ele><time>2026-04-26T10:55:52.521Z</time></trkpt><trkpt lat="43.8145927" lon="11.6220156"><ele>1131.0</ele><time>2026-04-26T10:55:55.528Z</time></trkpt><trkpt lat="43.8146066" lon="11.6221221"><ele>1131.0</ele><time>2026-04-26T10:55:58.54Z</time></trkpt><trkpt lat="43.814614" lon="11.6222183"><ele>1131.0</ele><time>2026-04-26T10:56:01.537Z</time></trkpt><trkpt lat="43.8146253" lon="11.6223159"><ele>1131.0000000000002</ele><time>2026-04-26T10:56:04.533Z</time></trkpt><trkpt lat="43.8146368" lon="11.6224204"><ele>1131.0</ele><time>2026-04-26T10:56:07.52Z</time></trkpt><trkpt lat="43.8146609" lon="11.6225162"><ele>1131.4285714285716</ele><time>2026-04-26T10:56:10.533Z</time></trkpt><trkpt lat="43.8146771" lon="11.6226126"><ele>1131.857142857143</ele><time>2026-04-26T10:56:13.531Z</time></trkpt><trkpt lat="43.8146999" lon="11.6226941"><ele>1132.2857142857142</ele><time>2026-04-26T10:56:16.524Z</time></trkpt><trkpt lat="43.8147142" lon="11.6227824"><ele>1132.7142857142858</ele><time>2026-04-26T10:56:19.531Z</time></trkpt><trkpt lat="43.8147151" lon="11.6228701"><ele>1133.142857142857</ele><time>2026-04-26T10:56:22.53Z</time></trkpt><trkpt lat="43.8147134" lon="11.6229633"><ele>1133.5714285714287</ele><time>2026-04-26T10:56:25.53Z</time></trkpt><trkpt lat="43.81472" lon="11.6230706"><ele>1134.0</ele><time>2026-04-26T10:56:29.536Z</time></trkpt><trkpt lat="43.8147263" lon="11.6231772"><ele>1134.142857142857</ele><time>2026-04-26T10:56:33.527Z</time></trkpt><trkpt lat="43.8147361" lon="11.6232786"><ele>1134.2857142857142</ele><time>2026-04-26T10:56:39.528Z</time></trkpt><trkpt lat="43.8147391" lon="11.6233728"><ele>1134.4285714285716</ele><time>2026-04-26T10:57:11.54Z</time></trkpt><trkpt lat="43.8147511" lon="11.6234735"><ele>1134.5714285714284</ele><time>2026-04-26T10:57:15.538Z</time></trkpt><trkpt lat="43.8147676" lon="11.6235665"><ele>1134.7142857142858</ele><time>2026-04-26T10:57:18.564Z</time></trkpt><trkpt lat="43.8148052" lon="11.6236388"><ele>1134.857142857143</ele><time>2026-04-26T10:57:21.548Z</time></trkpt><trkpt lat="43.814854" lon="11.6237209"><ele>1135.0</ele><time>2026-04-26T10:57:25.529Z</time></trkpt><trkpt lat="43.8149086" lon="11.6237793"><ele>1133.0</ele><time>2026-04-26T10:57:29.524Z</time></trkpt><trkpt lat="43.8149756" lon="11.6238355"><ele>1131.0</ele><time>2026-04-26T10:57:33.528Z</time></trkpt><trkpt lat="43.8150314" lon="11.623886"><ele>1129.0</ele><time>2026-04-26T10:57:36.529Z</time></trkpt><trkpt lat="43.8151057" lon="11.6239419"><ele>1127.0</ele><time>2026-04-26T10:57:40.525Z</time></trkpt><trkpt lat="43.8151633" lon="11.6239991"><ele>1125.0</ele><time>2026-04-26T10:57:44.53Z</time></trkpt><trkpt lat="43.8152283" lon="11.62404"><ele>1123.0</ele><time>2026-04-26T10:57:47.524Z</time></trkpt><trkpt lat="43.8152966" lon="11.6241055"><ele>1122.9999999999998</ele><time>2026-04-26T10:57:50.528Z</time></trkpt><trkpt lat="43.8153702" lon="11.6241461"><ele>1123.0</ele><time>2026-04-26T10:57:54.538Z</time></trkpt><trkpt lat="43.8154306" lon="11.6241767"><ele>1123.0</ele><time>2026-04-26T10:57:57.532Z</time></trkpt><trkpt lat="43.8154989" lon="11.6242003"><ele>1123.0</ele><time>2026-04-26T10:58:00.542Z</time></trkpt><trkpt lat="43.8155807" lon="11.6242137"><ele>1123.0</ele><time>2026-04-26T10:58:03.543Z</time></trkpt><trkpt lat="43.8156496" lon="11.6242142"><ele>1122.9999999999998</ele><time>2026-04-26T10:58:06.53Z</time></trkpt><trkpt lat="43.8157305" lon="11.6242319"><ele>1123.0</ele><time>2026-04-26T10:58:09.539Z</time></trkpt><trkpt lat="43.8158086" lon="11.624266"><ele>1122.9999999999998</ele><time>2026-04-26T10:58:12.547Z</time></trkpt><trkpt lat="43.8158739" lon="11.6243284"><ele>1123.0</ele><time>2026-04-26T10:58:17.54Z</time></trkpt><trkpt lat="43.8159374" lon="11.6243412"><ele>1123.0</ele><time>2026-04-26T10:58:21.533Z</time></trkpt><trkpt lat="43.8160037" lon="11.6243346"><ele>1123.0</ele><time>2026-04-26T10:58:25.551Z</time></trkpt><trkpt lat="43.8160849" lon="11.6243692"><ele>1123.0</ele><time>2026-04-26T10:58:29.534Z</time></trkpt><trkpt lat="43.816151" lon="11.6244218"><ele>1122.9999999999998</ele><time>2026-04-26T10:58:33.555Z</time></trkpt><trkpt lat="43.8162138" lon="11.6244797"><ele>1123.0</ele><time>2026-04-26T10:58:38.53Z</time></trkpt><trkpt lat="43.8162725" lon="11.6245175"><ele>1121.4285714285713</ele><time>2026-04-26T10:58:42.538Z</time></trkpt><trkpt lat="43.8163389" lon="11.6245523"><ele>1119.857142857143</ele><time>2026-04-26T10:58:46.541Z</time></trkpt><trkpt lat="43.8164016" lon="11.624609"><ele>1118.2857142857142</ele><time>2026-04-26T10:58:50.537Z</time></trkpt><trkpt lat="43.816447" lon="11.624679"><ele>1116.7142857142858</ele><time>2026-04-26T10:58:54.535Z</time></trkpt><trkpt lat="43.816507" lon="11.6246477"><ele>1115.142857142857</ele><time>2026-04-26T11:00:38.572Z</time></trkpt><trkpt lat="43.8164826" lon="11.6247353"><ele>1113.5714285714284</ele><time>2026-04-26T11:00:50.593Z</time></trkpt><trkpt lat="43.8164533" lon="11.624814"><ele>1112.0</ele><time>2026-04-26T11:08:09.594Z</time></trkpt><trkpt lat="43.8164229" lon="11.6247323"><ele>1112.0</ele><time>2026-04-26T11:16:37.527Z</time></trkpt><trkpt lat="43.8164851" lon="11.6247745"><ele>1112.0</ele><time>2026-04-26T12:48:53.116Z</time></trkpt><trkpt lat="43.8165318" lon="11.6246935"><ele>1112.0</ele><time>2026-04-26T12:49:12.099Z</time></trkpt><trkpt lat="43.8165203" lon="11.6246037"><ele>1112.0</ele><time>2026-04-26T12:51:14.356Z</time></trkpt><trkpt lat="43.8165673" lon="11.6246701"><ele>1112.0</ele><time>2026-04-26T12:52:49.08Z</time></trkpt><trkpt lat="43.8166382" lon="11.6246872"><ele>1112.0</ele><time>2026-04-26T12:53:48.071Z</time></trkpt><trkpt lat="43.8167042" lon="11.6247359"><ele>1112.0</ele><time>2026-04-26T12:53:52.081Z</time></trkpt><trkpt lat="43.8167672" lon="11.6247713"><ele>1110.7142857142858</ele><time>2026-04-26T12:53:57.087Z</time></trkpt><trkpt lat="43.8168269" lon="11.6248272"><ele>1109.4285714285716</ele><time>2026-04-26T12:54:03.089Z</time></trkpt><trkpt lat="43.8168916" lon="11.624863"><ele>1108.1428571428573</ele><time>2026-04-26T12:54:10.089Z</time></trkpt><trkpt lat="43.8169514" lon="11.6249131"><ele>1106.857142857143</ele><time>2026-04-26T12:54:16.098Z</time></trkpt><trkpt lat="43.8168877" lon="11.6248757"><ele>1105.5714285714287</ele><time>2026-04-26T12:57:24.078Z</time></trkpt><trkpt lat="43.8169263" lon="11.6249582"><ele>1104.2857142857144</ele><time>2026-04-26T12:57:41.071Z</time></trkpt><trkpt lat="43.8169854" lon="11.6249924"><ele>1103.0</ele><time>2026-04-26T12:58:10.08Z</time></trkpt><trkpt lat="43.8170501" lon="11.6250203"><ele>1103.0</ele><time>2026-04-26T12:58:21.081Z</time></trkpt><trkpt lat="43.8171464" lon="11.6249781"><ele>1103.0</ele><time>2026-04-26T13:01:27.073Z</time></trkpt><trkpt lat="43.8172065" lon="11.6250216"><ele>1103.0</ele><time>2026-04-26T13:02:03.084Z</time></trkpt><trkpt lat="43.8172705" lon="11.625098"><ele>1103.0</ele><time>2026-04-26T13:02:41.101Z</time></trkpt><trkpt lat="43.8173313" lon="11.6251598"><ele>1103.0</ele><time>2026-04-26T13:02:47.087Z</time></trkpt><trkpt lat="43.8174052" lon="11.6251604"><ele>1103.0</ele><time>2026-04-26T13:02:51.085Z</time></trkpt><trkpt lat="43.8174752" lon="11.6251818"><ele>1103.0000000000002</ele><time>2026-04-26T13:02:57.081Z</time></trkpt><trkpt lat="43.8175501" lon="11.6251545"><ele>1103.0</ele><time>2026-04-26T13:06:53.085Z</time></trkpt><trkpt lat="43.8176223" lon="11.6251518"><ele>1103.0</ele><time>2026-04-26T13:06:58.071Z</time></trkpt><trkpt lat="43.8176974" lon="11.6251383"><ele>1103.0</ele><time>2026-04-26T13:07:02.075Z</time></trkpt><trkpt lat="43.8177694" lon="11.6251338"><ele>1103.0</ele><time>2026-04-26T13:07:05.077Z</time></trkpt><trkpt lat="43.8178464" lon="11.6251327"><ele>1103.0000000000002</ele><time>2026-04-26T13:07:08.076Z</time></trkpt><trkpt lat="43.8179153" lon="11.6251465"><ele>1103.0</ele><time>2026-04-26T13:07:11.074Z</time></trkpt><trkpt lat="43.8179973" lon="11.6251336"><ele>1100.6666666666667</ele><time>2026-04-26T13:07:14.077Z</time></trkpt><trkpt lat="43.8180766" lon="11.6251255"><ele>1098.3333333333335</ele><time>2026-04-26T13:07:18.065Z</time></trkpt><trkpt lat="43.8181535" lon="11.6251167"><ele>1096.0</ele><time>2026-04-26T13:07:21.09Z</time></trkpt><trkpt lat="43.8182364" lon="11.6251174"><ele>1093.6666666666667</ele><time>2026-04-26T13:07:24.08Z</time></trkpt><trkpt lat="43.8183106" lon="11.6251312"><ele>1091.3333333333333</ele><time>2026-04-26T13:07:27.073Z</time></trkpt><trkpt lat="43.8183879" lon="11.6251369"><ele>1089.0</ele><time>2026-04-26T13:07:30.079Z</time></trkpt><trkpt lat="43.8184508" lon="11.625141"><ele>1087.1666666666667</ele><time>2026-04-26T13:07:33.079Z</time></trkpt><trkpt lat="43.8185254" lon="11.625132"><ele>1085.3333333333333</ele><time>2026-04-26T13:07:37.078Z</time></trkpt><trkpt lat="43.8185942" lon="11.6251081"><ele>1083.5</ele><time>2026-04-26T13:07:41.08Z</time></trkpt><trkpt lat="43.8186719" lon="11.625104"><ele>1081.6666666666665</ele><time>2026-04-26T13:07:44.073Z</time></trkpt><trkpt lat="43.8187464" lon="11.6250504"><ele>1079.8333333333333</ele><time>2026-04-26T13:07:47.087Z</time></trkpt><trkpt lat="43.8188184" lon="11.6250215"><ele>1078.0</ele><time>2026-04-26T13:07:51.075Z</time></trkpt><trkpt lat="43.8188828" lon="11.6249819"><ele>1078.0</ele><time>2026-04-26T13:07:54.078Z</time></trkpt><trkpt lat="43.8189644" lon="11.6249526"><ele>1078.0</ele><time>2026-04-26T13:07:58.08Z</time></trkpt><trkpt lat="43.8190307" lon="11.624976"><ele>1078.0</ele><time>2026-04-26T13:08:01.07Z</time></trkpt><trkpt lat="43.8191038" lon="11.6250211"><ele>1078.0</ele><time>2026-04-26T13:08:06.076Z</time></trkpt><trkpt lat="43.8191577" lon="11.6250689"><ele>1078.0</ele><time>2026-04-26T13:08:09.075Z</time></trkpt><trkpt lat="43.8192011" lon="11.6251419"><ele>1078.0</ele><time>2026-04-26T13:08:19.07Z</time></trkpt><trkpt lat="43.8192421" lon="11.6252109"><ele>1078.0</ele><time>2026-04-26T13:08:46.083Z</time></trkpt><trkpt lat="43.8193039" lon="11.6252597"><ele>1077.2857142857142</ele><time>2026-04-26T13:08:54.08Z</time></trkpt><trkpt lat="43.8193639" lon="11.6253108"><ele>1076.5714285714284</ele><time>2026-04-26T13:08:59.074Z</time></trkpt><trkpt lat="43.8194286" lon="11.6253478"><ele>1075.857142857143</ele><time>2026-04-26T13:09:04.086Z</time></trkpt><trkpt lat="43.819494" lon="11.625317"><ele>1075.142857142857</ele><time>2026-04-26T13:09:08.069Z</time></trkpt><trkpt lat="43.8195677" lon="11.6253043"><ele>1074.4285714285713</ele><time>2026-04-26T13:09:13.082Z</time></trkpt><trkpt lat="43.8196393" lon="11.6252845"><ele>1073.7142857142858</ele><time>2026-04-26T13:09:56.072Z</time></trkpt><trkpt lat="43.8197032" lon="11.6252731"><ele>1073.0</ele><time>2026-04-26T13:10:02.068Z</time></trkpt><trkpt lat="43.8197592" lon="11.6252252"><ele>1073.0</ele><time>2026-04-26T13:10:09.065Z</time></trkpt><trkpt lat="43.8198292" lon="11.625173"><ele>1073.0</ele><time>2026-04-26T13:10:14.076Z</time></trkpt><trkpt lat="43.8198931" lon="11.6251779"><ele>1073.0</ele><time>2026-04-26T13:10:18.069Z</time></trkpt><trkpt lat="43.8199597" lon="11.6251952"><ele>1073.0</ele><time>2026-04-26T13:10:23.066Z</time></trkpt><trkpt lat="43.8200262" lon="11.625199"><ele>1073.0</ele><time>2026-04-26T13:10:28.088Z</time></trkpt><trkpt lat="43.8201048" lon="11.6252034"><ele>1073.0</ele><time>2026-04-26T13:10:32.075Z</time></trkpt><trkpt lat="43.8201706" lon="11.6251801"><ele>1073.0</ele><time>2026-04-26T13:10:36.083Z</time></trkpt><trkpt lat="43.820239" lon="11.625149"><ele>1073.0</ele><time>2026-04-26T13:10:42.078Z</time></trkpt><trkpt lat="43.820299" lon="11.6251209"><ele>1073.0</ele><time>2026-04-26T13:11:01.068Z</time></trkpt><trkpt lat="43.8203908" lon="11.6250756"><ele>1073.0</ele><time>2026-04-26T13:11:05.064Z</time></trkpt><trkpt lat="43.8204751" lon="11.6250431"><ele>1073.0</ele><time>2026-04-26T13:11:08.071Z</time></trkpt><trkpt lat="43.8205544" lon="11.6249967"><ele>1073.0</ele><time>2026-04-26T13:11:11.074Z</time></trkpt><trkpt lat="43.82062" lon="11.6249372"><ele>1073.0</ele><time>2026-04-26T13:11:14.082Z</time></trkpt><trkpt lat="43.8206793" lon="11.6248468"><ele>1073.0</ele><time>2026-04-26T13:11:17.071Z</time></trkpt><trkpt lat="43.8207259" lon="11.6247424"><ele>1073.0</ele><time>2026-04-26T13:11:20.073Z</time></trkpt><trkpt lat="43.8207668" lon="11.6246412"><ele>1073.0</ele><time>2026-04-26T13:11:23.096Z</time></trkpt><trkpt lat="43.8207924" lon="11.6245505"><ele>1073.0</ele><time>2026-04-26T13:11:26.074Z</time></trkpt><trkpt lat="43.8208353" lon="11.6244563"><ele>1073.0</ele><time>2026-04-26T13:11:29.068Z</time></trkpt><trkpt lat="43.820858" lon="11.6243662"><ele>1073.0</ele><time>2026-04-26T13:11:32.078Z</time></trkpt><trkpt lat="43.8208933" lon="11.6242838"><ele>1073.5714285714284</ele><time>2026-04-26T13:11:37.082Z</time></trkpt><trkpt lat="43.8209523" lon="11.6242122"><ele>1074.142857142857</ele><time>2026-04-26T13:11:41.074Z</time></trkpt><trkpt lat="43.8210096" lon="11.6241379"><ele>1074.7142857142858</ele><time>2026-04-26T13:11:46.076Z</time></trkpt><trkpt lat="43.8210425" lon="11.6240582"><ele>1075.2857142857142</ele><time>2026-04-26T13:11:49.062Z</time></trkpt><trkpt lat="43.8210642" lon="11.6239702"><ele>1075.857142857143</ele><time>2026-04-26T13:11:52.077Z</time></trkpt><trkpt lat="43.8211177" lon="11.6239151"><ele>1076.4285714285713</ele><time>2026-04-26T13:11:56.073Z</time></trkpt><trkpt lat="43.8211673" lon="11.6238402"><ele>1077.0</ele><time>2026-04-26T13:12:05.07Z</time></trkpt><trkpt lat="43.821231" lon="11.6238159"><ele>1077.0</ele><time>2026-04-26T13:12:08.073Z</time></trkpt><trkpt lat="43.821304" lon="11.6237792"><ele>1077.0</ele><time>2026-04-26T13:12:11.077Z</time></trkpt><trkpt lat="43.8213474" lon="11.6237142"><ele>1077.0</ele><time>2026-04-26T13:12:14.079Z</time></trkpt><trkpt lat="43.8213841" lon="11.6236277"><ele>1077.0</ele><time>2026-04-26T13:12:17.08Z</time></trkpt><trkpt lat="43.8214118" lon="11.6235203"><ele>1077.0</ele><time>2026-04-26T13:12:20.064Z</time></trkpt><trkpt lat="43.8214253" lon="11.6234178"><ele>1077.0</ele><time>2026-04-26T13:12:23.081Z</time></trkpt><trkpt lat="43.8214398" lon="11.6233092"><ele>1073.1666666666667</ele><time>2026-04-26T13:12:26.073Z</time></trkpt><trkpt lat="43.8214714" lon="11.6232304"><ele>1069.3333333333333</ele><time>2026-04-26T13:12:29.073Z</time></trkpt><trkpt lat="43.821512" lon="11.6231304"><ele>1065.5</ele><time>2026-04-26T13:12:33.076Z</time></trkpt><trkpt lat="43.8215729" lon="11.6230668"><ele>1061.6666666666665</ele><time>2026-04-26T13:12:36.079Z</time></trkpt><trkpt lat="43.8216559" lon="11.623025"><ele>1057.8333333333333</ele><time>2026-04-26T13:12:39.067Z</time></trkpt><trkpt lat="43.8217218" lon="11.6229853"><ele>1054.0</ele><time>2026-04-26T13:12:42.059Z</time></trkpt><trkpt lat="43.8217897" lon="11.6229451"><ele>1053.0</ele><time>2026-04-26T13:12:45.073Z</time></trkpt><trkpt lat="43.8218726" lon="11.6229145"><ele>1052.0</ele><time>2026-04-26T13:12:48.071Z</time></trkpt><trkpt lat="43.8219493" lon="11.6228785"><ele>1051.0</ele><time>2026-04-26T13:12:51.069Z</time></trkpt><trkpt lat="43.8220238" lon="11.6228503"><ele>1050.0</ele><time>2026-04-26T13:12:54.076Z</time></trkpt><trkpt lat="43.822102" lon="11.6228183"><ele>1049.0</ele><time>2026-04-26T13:12:57.069Z</time></trkpt><trkpt lat="43.8221627" lon="11.6227936"><ele>1048.0</ele><time>2026-04-26T13:13:00.072Z</time></trkpt><trkpt lat="43.8222333" lon="11.622737"><ele>1046.857142857143</ele><time>2026-04-26T13:13:03.068Z</time></trkpt><trkpt lat="43.822294" lon="11.6226679"><ele>1045.7142857142858</ele><time>2026-04-26T13:13:06.07Z</time></trkpt><trkpt lat="43.8223538" lon="11.6226036"><ele>1044.5714285714287</ele><time>2026-04-26T13:13:09.076Z</time></trkpt><trkpt lat="43.822419" lon="11.6225703"><ele>1043.4285714285716</ele><time>2026-04-26T13:13:26.068Z</time></trkpt><trkpt lat="43.8224717" lon="11.6226297"><ele>1042.2857142857142</ele><time>2026-04-26T13:13:30.07Z</time></trkpt><trkpt lat="43.822464" lon="11.6225365"><ele>1041.1428571428573</ele><time>2026-04-26T13:28:54.068Z</time></trkpt><trkpt lat="43.8225152" lon="11.6224575"><ele>1040.0</ele><time>2026-04-26T13:28:58.067Z</time></trkpt><trkpt lat="43.8225584" lon="11.6223868"><ele>1040.0000000000002</ele><time>2026-04-26T13:29:03.083Z</time></trkpt><trkpt lat="43.8226137" lon="11.6223392"><ele>1040.0</ele><time>2026-04-26T13:29:09.087Z</time></trkpt><trkpt lat="43.8226444" lon="11.6222609"><ele>1040.0</ele><time>2026-04-26T13:29:12.069Z</time></trkpt><trkpt lat="43.822647" lon="11.6221443"><ele>1040.0</ele><time>2026-04-26T13:29:16.07Z</time></trkpt><trkpt lat="43.8226663" lon="11.6220504"><ele>1040.0</ele><time>2026-04-26T13:29:19.079Z</time></trkpt><trkpt lat="43.8226721" lon="11.6219623"><ele>1040.0000000000002</ele><time>2026-04-26T13:29:24.064Z</time></trkpt><trkpt lat="43.8226789" lon="11.6218658"><ele>1040.0</ele><time>2026-04-26T13:29:33.066Z</time></trkpt><trkpt lat="43.8226799" lon="11.621762"><ele>1038.1428571428573</ele><time>2026-04-26T13:29:40.073Z</time></trkpt><trkpt lat="43.8226554" lon="11.6216526"><ele>1036.2857142857142</ele><time>2026-04-26T13:29:44.074Z</time></trkpt><trkpt lat="43.8225831" lon="11.6216045"><ele>1034.4285714285716</ele><time>2026-04-26T13:29:47.067Z</time></trkpt><trkpt lat="43.8225081" lon="11.6216062"><ele>1032.5714285714287</ele><time>2026-04-26T13:29:51.064Z</time></trkpt><trkpt lat="43.8224374" lon="11.6216252"><ele>1030.7142857142858</ele><time>2026-04-26T13:30:00.082Z</time></trkpt><trkpt lat="43.8223693" lon="11.621643"><ele>1028.857142857143</ele><time>2026-04-26T13:30:04.081Z</time></trkpt><trkpt lat="43.8223054" lon="11.621664"><ele>1027.0</ele><time>2026-04-26T13:30:07.078Z</time></trkpt><trkpt lat="43.8222263" lon="11.6217061"><ele>1027.0</ele><time>2026-04-26T13:30:10.069Z</time></trkpt><trkpt lat="43.8221706" lon="11.6217762"><ele>1027.0</ele><time>2026-04-26T13:30:13.072Z</time></trkpt><trkpt lat="43.8221284" lon="11.6218529"><ele>1027.0</ele><time>2026-04-26T13:30:18.067Z</time></trkpt><trkpt lat="43.8220889" lon="11.6219387"><ele>1027.0</ele><time>2026-04-26T13:30:23.069Z</time></trkpt><trkpt lat="43.8220321" lon="11.6220171"><ele>1027.0</ele><time>2026-04-26T13:30:27.069Z</time></trkpt><trkpt lat="43.8219654" lon="11.6220629"><ele>1027.0</ele><time>2026-04-26T13:30:31.068Z</time></trkpt><trkpt lat="43.821899" lon="11.6220537"><ele>1027.0</ele><time>2026-04-26T13:40:06.055Z</time></trkpt><trkpt lat="43.8218355" lon="11.6220681"><ele>1028.2857142857142</ele><time>2026-04-26T14:02:59.049Z</time></trkpt><trkpt lat="43.8217601" lon="11.6220328"><ele>1029.5714285714287</ele><time>2026-04-26T14:17:11.047Z</time></trkpt><trkpt lat="43.8216949" lon="11.6220314"><ele>1030.857142857143</ele><time>2026-04-26T14:17:25.083Z</time></trkpt><trkpt lat="43.8216231" lon="11.6220424"><ele>1032.142857142857</ele><time>2026-04-26T14:17:36.059Z</time></trkpt><trkpt lat="43.8215606" lon="11.6220692"><ele>1033.4285714285716</ele><time>2026-04-26T14:17:45.07Z</time></trkpt><trkpt lat="43.8214912" lon="11.6221085"><ele>1034.7142857142858</ele><time>2026-04-26T14:17:51.069Z</time></trkpt><trkpt lat="43.8214294" lon="11.6221399"><ele>1036.0</ele><time>2026-04-26T14:21:22.059Z</time></trkpt><trkpt lat="43.8213574" lon="11.6221564"><ele>1036.0</ele><time>2026-04-26T14:21:28.076Z</time></trkpt><trkpt lat="43.8212963" lon="11.6221325"><ele>1036.0</ele><time>2026-04-26T14:21:31.06Z</time></trkpt><trkpt lat="43.8212263" lon="11.6220882"><ele>1036.0</ele><time>2026-04-26T14:21:34.059Z</time></trkpt><trkpt lat="43.8211569" lon="11.6220431"><ele>1036.0</ele><time>2026-04-26T14:21:37.055Z</time></trkpt><trkpt lat="43.821074" lon="11.6220493"><ele>1036.0</ele><time>2026-04-26T14:21:41.045Z</time></trkpt><trkpt lat="43.8210066" lon="11.622084"><ele>1036.0</ele><time>2026-04-26T14:22:05.053Z</time></trkpt><trkpt lat="43.8209523" lon="11.622144"><ele>1036.0</ele><time>2026-04-26T14:22:11.054Z</time></trkpt><trkpt lat="43.8209039" lon="11.6222165"><ele>1034.2857142857142</ele><time>2026-04-26T14:22:16.058Z</time></trkpt><trkpt lat="43.8208521" lon="11.6222734"><ele>1032.5714285714284</ele><time>2026-04-26T14:22:36.055Z</time></trkpt><trkpt lat="43.8208217" lon="11.622352"><ele>1030.857142857143</ele><time>2026-04-26T14:22:40.059Z</time></trkpt><trkpt lat="43.8207958" lon="11.6224642"><ele>1029.142857142857</ele><time>2026-04-26T14:22:44.043Z</time></trkpt><trkpt lat="43.8207738" lon="11.6225603"><ele>1027.4285714285713</ele><time>2026-04-26T14:22:47.053Z</time></trkpt><trkpt lat="43.8207451" lon="11.6226622"><ele>1025.7142857142858</ele><time>2026-04-26T14:22:51.053Z</time></trkpt><trkpt lat="43.8206755" lon="11.6226702"><ele>1024.0</ele><time>2026-04-26T14:22:55.058Z</time></trkpt><trkpt lat="43.8206078" lon="11.6226544"><ele>1024.0</ele><time>2026-04-26T14:22:59.052Z</time></trkpt><trkpt lat="43.820543" lon="11.6226731"><ele>1023.9999999999999</ele><time>2026-04-26T14:23:03.057Z</time></trkpt><trkpt lat="43.8204738" lon="11.6227116"><ele>1024.0</ele><time>2026-04-26T14:23:08.063Z</time></trkpt><trkpt lat="43.8204211" lon="11.6227738"><ele>1024.0</ele><time>2026-04-26T14:23:11.062Z</time></trkpt><trkpt lat="43.8203731" lon="11.6228743"><ele>1023.9999999999999</ele><time>2026-04-26T14:23:14.063Z</time></trkpt><trkpt lat="43.8203409" lon="11.6229616"><ele>1024.0</ele><time>2026-04-26T14:23:17.056Z</time></trkpt><trkpt lat="43.8202905" lon="11.6230177"><ele>1024.0</ele><time>2026-04-26T14:23:20.071Z</time></trkpt><trkpt lat="43.8202126" lon="11.6229987"><ele>1024.2857142857142</ele><time>2026-04-26T14:23:24.061Z</time></trkpt><trkpt lat="43.8201461" lon="11.6229598"><ele>1024.5714285714284</ele><time>2026-04-26T14:23:29.05Z</time></trkpt><trkpt lat="43.8200826" lon="11.6229231"><ele>1024.857142857143</ele><time>2026-04-26T14:23:32.052Z</time></trkpt><trkpt lat="43.8200442" lon="11.6228453"><ele>1025.142857142857</ele><time>2026-04-26T14:23:35.067Z</time></trkpt><trkpt lat="43.8200188" lon="11.6227525"><ele>1025.4285714285716</ele><time>2026-04-26T14:23:39.052Z</time></trkpt><trkpt lat="43.819972" lon="11.6226707"><ele>1025.7142857142858</ele><time>2026-04-26T14:23:43.057Z</time></trkpt><trkpt lat="43.8199189" lon="11.6225954"><ele>1026.0</ele><time>2026-04-26T14:23:46.053Z</time></trkpt><trkpt lat="43.8198642" lon="11.6225189"><ele>1026.0</ele><time>2026-04-26T14:23:49.052Z</time></trkpt><trkpt lat="43.8198102" lon="11.6224222"><ele>1026.0</ele><time>2026-04-26T14:23:53.053Z</time></trkpt><trkpt lat="43.819788" lon="11.6223275"><ele>1026.0</ele><time>2026-04-26T14:23:56.057Z</time></trkpt><trkpt lat="43.8197629" lon="11.6222382"><ele>1026.0</ele><time>2026-04-26T14:23:59.058Z</time></trkpt><trkpt lat="43.8197298" lon="11.6221441"><ele>1026.0</ele><time>2026-04-26T14:24:02.054Z</time></trkpt><trkpt lat="43.8196836" lon="11.62206"><ele>1026.0</ele><time>2026-04-26T14:24:05.053Z</time></trkpt><trkpt lat="43.8196288" lon="11.6219822"><ele>1025.7142857142858</ele><time>2026-04-26T14:24:08.051Z</time></trkpt><trkpt lat="43.819577" lon="11.6218919"><ele>1025.4285714285716</ele><time>2026-04-26T14:24:11.05Z</time></trkpt><trkpt lat="43.8195302" lon="11.6218164"><ele>1025.142857142857</ele><time>2026-04-26T14:24:15.058Z</time></trkpt><trkpt lat="43.8194687" lon="11.6217565"><ele>1024.857142857143</ele><time>2026-04-26T14:24:18.067Z</time></trkpt><trkpt lat="43.8194019" lon="11.6217164"><ele>1024.5714285714284</ele><time>2026-04-26T14:24:21.054Z</time></trkpt><trkpt lat="43.8193394" lon="11.621703"><ele>1024.2857142857142</ele><time>2026-04-26T14:24:27.063Z</time></trkpt><trkpt lat="43.8192742" lon="11.6216938"><ele>1024.0</ele><time>2026-04-26T14:25:27.054Z</time></trkpt><trkpt lat="43.8191903" lon="11.6216219"><ele>1024.0</ele><time>2026-04-26T14:27:20.079Z</time></trkpt><trkpt lat="43.8191273" lon="11.6215976"><ele>1023.9999999999999</ele><time>2026-04-26T14:27:48.054Z</time></trkpt><trkpt lat="43.8190741" lon="11.6215325"><ele>1024.0</ele><time>2026-04-26T14:27:55.068Z</time></trkpt><trkpt lat="43.8190276" lon="11.6214673"><ele>1024.0</ele><time>2026-04-26T14:29:45.048Z</time></trkpt><trkpt lat="43.8189735" lon="11.6213979"><ele>1023.9999999999999</ele><time>2026-04-26T14:29:51.054Z</time></trkpt><trkpt lat="43.8189246" lon="11.6213395"><ele>1024.0</ele><time>2026-04-26T14:30:03.048Z</time></trkpt><trkpt lat="43.8189039" lon="11.6212525"><ele>1024.0</ele><time>2026-04-26T14:32:49.055Z</time></trkpt><trkpt lat="43.8188903" lon="11.6211629"><ele>1021.8571428571428</ele><time>2026-04-26T14:33:30.053Z</time></trkpt><trkpt lat="43.8189502" lon="11.6211323"><ele>1019.7142857142856</ele><time>2026-04-26T14:33:54.037Z</time></trkpt><trkpt lat="43.8190201" lon="11.6211339"><ele>1017.5714285714286</ele><time>2026-04-26T14:34:10.05Z</time></trkpt><trkpt lat="43.8190817" lon="11.6211088"><ele>1015.4285714285713</ele><time>2026-04-26T14:34:18.06Z</time></trkpt><trkpt lat="43.8190837" lon="11.6209944"><ele>1013.2857142857142</ele><time>2026-04-26T14:37:54.1Z</time></trkpt><trkpt lat="43.8190454" lon="11.6209135"><ele>1011.1428571428571</ele><time>2026-04-26T14:38:02.043Z</time></trkpt><trkpt lat="43.8190206" lon="11.6208298"><ele>1009.0</ele><time>2026-04-26T14:38:16.04Z</time></trkpt><trkpt lat="43.8189685" lon="11.6207496"><ele>1009.0</ele><time>2026-04-26T14:38:23.046Z</time></trkpt><trkpt lat="43.8189149" lon="11.6206889"><ele>1009.0</ele><time>2026-04-26T14:38:27.053Z</time></trkpt><trkpt lat="43.8188493" lon="11.620638"><ele>1009.0</ele><time>2026-04-26T14:38:32.051Z</time></trkpt><trkpt lat="43.8187976" lon="11.6205834"><ele>1009.0</ele><time>2026-04-26T14:38:35.047Z</time></trkpt><trkpt lat="43.8187356" lon="11.6205525"><ele>1009.0</ele><time>2026-04-26T14:39:19.045Z</time></trkpt><trkpt lat="43.818773" lon="11.6204747"><ele>1009.0</ele><time>2026-04-26T14:40:53.047Z</time></trkpt><trkpt lat="43.8188331" lon="11.6204385"><ele>1009.0</ele><time>2026-04-26T14:40:59.045Z</time></trkpt><trkpt lat="43.8189081" lon="11.6204286"><ele>1008.9999999999999</ele><time>2026-04-26T14:41:04.048Z</time></trkpt><trkpt lat="43.8189792" lon="11.6204121"><ele>1009.0</ele><time>2026-04-26T14:41:08.038Z</time></trkpt><trkpt lat="43.8190493" lon="11.6204078"><ele>1009.0</ele><time>2026-04-26T14:41:12.047Z</time></trkpt><trkpt lat="43.8191307" lon="11.6203558"><ele>1009.0</ele><time>2026-04-26T14:41:16.04Z</time></trkpt><trkpt lat="43.8191757" lon="11.6202596"><ele>1008.9999999999999</ele><time>2026-04-26T14:41:19.048Z</time></trkpt><trkpt lat="43.8192201" lon="11.620173"><ele>1009.0</ele><time>2026-04-26T14:41:23.044Z</time></trkpt><trkpt lat="43.8192523" lon="11.6200766"><ele>1008.2857142857143</ele><time>2026-04-26T14:41:27.046Z</time></trkpt><trkpt lat="43.8192825" lon="11.619992"><ele>1007.5714285714284</ele><time>2026-04-26T14:41:30.047Z</time></trkpt><trkpt lat="43.8193209" lon="11.6198947"><ele>1006.8571428571428</ele><time>2026-04-26T14:41:34.04Z</time></trkpt><trkpt lat="43.8193538" lon="11.6197946"><ele>1006.1428571428571</ele><time>2026-04-26T14:41:38.041Z</time></trkpt><trkpt lat="43.8193759" lon="11.6197129"><ele>1005.4285714285713</ele><time>2026-04-26T14:41:41.037Z</time></trkpt><trkpt lat="43.819403" lon="11.6196151"><ele>1004.7142857142856</ele><time>2026-04-26T14:41:45.041Z</time></trkpt><trkpt lat="43.819425" lon="11.6195184"><ele>1003.9999999999999</ele><time>2026-04-26T14:42:14.038Z</time></trkpt><trkpt lat="43.8194397" lon="11.6194262"><ele>1003.9999999999999</ele><time>2026-04-26T14:42:18.041Z</time></trkpt><trkpt lat="43.8194536" lon="11.6193183"><ele>1004.0</ele><time>2026-04-26T14:42:22.043Z</time></trkpt><trkpt lat="43.8194605" lon="11.6192138"><ele>1003.9999999999999</ele><time>2026-04-26T14:42:26.046Z</time></trkpt><trkpt lat="43.8194383" lon="11.6191124"><ele>1003.9999999999999</ele><time>2026-04-26T14:42:31.044Z</time></trkpt><trkpt lat="43.8194151" lon="11.6190275"><ele>1004.0</ele><time>2026-04-26T14:42:35.043Z</time></trkpt><trkpt lat="43.8193925" lon="11.6189214"><ele>1003.9999999999999</ele><time>2026-04-26T14:42:40.046Z</time></trkpt><trkpt lat="43.8193649" lon="11.6188302"><ele>1003.9999999999999</ele><time>2026-04-26T14:42:43.043Z</time></trkpt><trkpt lat="43.8193349" lon="11.6187426"><ele>1006.142857142857</ele><time>2026-04-26T14:42:47.05Z</time></trkpt><trkpt lat="43.8192852" lon="11.6186618"><ele>1008.2857142857142</ele><time>2026-04-26T14:42:58.036Z</time></trkpt><trkpt lat="43.8192481" lon="11.6185825"><ele>1010.4285714285714</ele><time>2026-04-26T14:43:03.056Z</time></trkpt><trkpt lat="43.8192144" lon="11.6185053"><ele>1012.5714285714286</ele><time>2026-04-26T14:43:07.049Z</time></trkpt><trkpt lat="43.8191763" lon="11.6184214"><ele>1014.7142857142858</ele><time>2026-04-26T14:43:11.045Z</time></trkpt><trkpt lat="43.819163" lon="11.6183225"><ele>1016.857142857143</ele><time>2026-04-26T14:43:23.044Z</time></trkpt><trkpt lat="43.8192042" lon="11.6182356"><ele>1019.0000000000001</ele><time>2026-04-26T14:43:27.051Z</time></trkpt><trkpt lat="43.8192544" lon="11.6181737"><ele>1019.0000000000001</ele><time>2026-04-26T14:43:32.052Z</time></trkpt><trkpt lat="43.8192724" lon="11.6180754"><ele>1019.0</ele><time>2026-04-26T14:43:37.041Z</time></trkpt><trkpt lat="43.8192796" lon="11.6179858"><ele>1019.0000000000001</ele><time>2026-04-26T14:43:40.044Z</time></trkpt><trkpt lat="43.8192655" lon="11.6178706"><ele>1019.0000000000001</ele><time>2026-04-26T14:43:44.041Z</time></trkpt><trkpt lat="43.8192368" lon="11.6177928"><ele>1019.0</ele><time>2026-04-26T14:43:47.04Z</time></trkpt><trkpt lat="43.8191957" lon="11.6177247"><ele>1019.0000000000001</ele><time>2026-04-26T14:43:50.054Z</time></trkpt><trkpt lat="43.8191204" lon="11.6176817"><ele>1019.0000000000001</ele><time>2026-04-26T14:43:53.059Z</time></trkpt><trkpt lat="43.8190393" lon="11.6176449"><ele>1016.857142857143</ele><time>2026-04-26T14:43:57.04Z</time></trkpt><trkpt lat="43.8189668" lon="11.6176023"><ele>1014.7142857142858</ele><time>2026-04-26T14:44:01.048Z</time></trkpt><trkpt lat="43.8188991" lon="11.6176009"><ele>1012.5714285714286</ele><time>2026-04-26T14:44:04.052Z</time></trkpt><trkpt lat="43.8188168" lon="11.6176066"><ele>1010.4285714285714</ele><time>2026-04-26T14:44:07.04Z</time></trkpt><trkpt lat="43.8187529" lon="11.6176133"><ele>1008.2857142857142</ele><time>2026-04-26T14:44:10.045Z</time></trkpt><trkpt lat="43.8186829" lon="11.6175889"><ele>1006.142857142857</ele><time>2026-04-26T14:44:14.041Z</time></trkpt><trkpt lat="43.8186148" lon="11.6175367"><ele>1003.9999999999999</ele><time>2026-04-26T14:45:20.05Z</time></trkpt><trkpt lat="43.8185701" lon="11.6174432"><ele>1003.9999999999999</ele><time>2026-04-26T14:45:23.046Z</time></trkpt><trkpt lat="43.8185264" lon="11.6173579"><ele>1004.0</ele><time>2026-04-26T14:45:26.043Z</time></trkpt><trkpt lat="43.8184762" lon="11.6172938"><ele>1003.9999999999999</ele><time>2026-04-26T14:45:29.05Z</time></trkpt><trkpt lat="43.8184273" lon="11.6172372"><ele>1003.9999999999999</ele><time>2026-04-26T14:45:32.045Z</time></trkpt><trkpt lat="43.8183518" lon="11.6171986"><ele>1004.0</ele><time>2026-04-26T14:45:36.048Z</time></trkpt><trkpt lat="43.8182708" lon="11.6171855"><ele>1003.9999999999999</ele><time>2026-04-26T14:45:40.041Z</time></trkpt><trkpt lat="43.8182043" lon="11.6171927"><ele>1003.9999999999999</ele><time>2026-04-26T14:45:43.044Z</time></trkpt><trkpt lat="43.8181339" lon="11.6172309"><ele>1005.9999999999999</ele><time>2026-04-26T14:45:46.048Z</time></trkpt><trkpt lat="43.8180917" lon="11.6173004"><ele>1008.0</ele><time>2026-04-26T14:45:49.037Z</time></trkpt><trkpt lat="43.8180278" lon="11.6173566"><ele>1009.9999999999999</ele><time>2026-04-26T14:45:54.033Z</time></trkpt><trkpt lat="43.8179663" lon="11.6174191"><ele>1011.9999999999999</ele><time>2026-04-26T14:45:59.053Z</time></trkpt><trkpt lat="43.8179159" lon="11.6174745"><ele>1014.0</ele><time>2026-04-26T14:46:03.043Z</time></trkpt><trkpt lat="43.8178516" lon="11.6174809"><ele>1015.9999999999999</ele><time>2026-04-26T14:46:09.051Z</time></trkpt><trkpt lat="43.8177941" lon="11.6174383"><ele>1017.9999999999999</ele><time>2026-04-26T14:46:16.032Z</time></trkpt><trkpt lat="43.8178149" lon="11.6173305"><ele>1017.9999999999999</ele><time>2026-04-26T14:46:21.04Z</time></trkpt><trkpt lat="43.8178336" lon="11.6172271"><ele>1018.0</ele><time>2026-04-26T14:46:25.039Z</time></trkpt><trkpt lat="43.8178534" lon="11.6171297"><ele>1017.9999999999999</ele><time>2026-04-26T14:46:28.033Z</time></trkpt><trkpt lat="43.8178781" lon="11.617032"><ele>1017.9999999999999</ele><time>2026-04-26T14:46:32.042Z</time></trkpt><trkpt lat="43.8179011" lon="11.6169451"><ele>1018.0</ele><time>2026-04-26T14:46:35.037Z</time></trkpt><trkpt lat="43.8179227" lon="11.6168491"><ele>1017.9999999999999</ele><time>2026-04-26T14:46:39.039Z</time></trkpt><trkpt lat="43.8179438" lon="11.616762"><ele>1017.9999999999999</ele><time>2026-04-26T14:46:44.043Z</time></trkpt><trkpt lat="43.8179222" lon="11.6166653"><ele>1018.142857142857</ele><time>2026-04-26T14:49:40.041Z</time></trkpt><trkpt lat="43.8178749" lon="11.6165927"><ele>1018.2857142857142</ele><time>2026-04-26T14:49:45.046Z</time></trkpt><trkpt lat="43.8178143" lon="11.6165375"><ele>1018.4285714285714</ele><time>2026-04-26T14:49:55.045Z</time></trkpt><trkpt lat="43.8177818" lon="11.6164336"><ele>1018.5714285714286</ele><time>2026-04-26T14:50:00.047Z</time></trkpt><trkpt lat="43.8177885" lon="11.6163369"><ele>1018.7142857142858</ele><time>2026-04-26T14:50:03.047Z</time></trkpt><trkpt lat="43.8178461" lon="11.6162615"><ele>1018.857142857143</ele><time>2026-04-26T14:50:07.044Z</time></trkpt><trkpt lat="43.8179101" lon="11.6162202"><ele>1019.0000000000001</ele><time>2026-04-26T14:50:11.047Z</time></trkpt><trkpt lat="43.8179767" lon="11.6161491"><ele>1019.0000000000001</ele><time>2026-04-26T14:50:16.046Z</time></trkpt><trkpt lat="43.8180285" lon="11.6160735"><ele>1019.0</ele><time>2026-04-26T14:50:20.043Z</time></trkpt><trkpt lat="43.8180663" lon="11.615997"><ele>1019.0000000000001</ele><time>2026-04-26T14:50:23.047Z</time></trkpt><trkpt lat="43.8180998" lon="11.6158993"><ele>1019.0000000000001</ele><time>2026-04-26T14:50:27.046Z</time></trkpt><trkpt lat="43.8181377" lon="11.6157999"><ele>1019.0</ele><time>2026-04-26T14:50:31.044Z</time></trkpt><trkpt lat="43.818173" lon="11.6157199"><ele>1019.0000000000001</ele><time>2026-04-26T14:50:34.043Z</time></trkpt><trkpt lat="43.8181978" lon="11.6156395"><ele>1019.0000000000001</ele><time>2026-04-26T14:50:37.033Z</time></trkpt><trkpt lat="43.8182215" lon="11.6155387"><ele>1019.0000000000001</ele><time>2026-04-26T14:50:41.032Z</time></trkpt><trkpt lat="43.8182418" lon="11.6154462"><ele>1019.0</ele><time>2026-04-26T14:50:45.045Z</time></trkpt><trkpt lat="43.818292" lon="11.6153915"><ele>1019.0000000000001</ele><time>2026-04-26T14:50:48.045Z</time></trkpt><trkpt lat="43.8183517" lon="11.6153319"><ele>1019.0000000000001</ele><time>2026-04-26T14:51:09.041Z</time></trkpt><trkpt lat="43.8184191" lon="11.6152797"><ele>1019.0</ele><time>2026-04-26T14:51:14.048Z</time></trkpt><trkpt lat="43.8184754" lon="11.6152149"><ele>1019.0000000000001</ele><time>2026-04-26T14:51:18.049Z</time></trkpt><trkpt lat="43.8185044" lon="11.6151321"><ele>1019.0000000000001</ele><time>2026-04-26T14:51:21.041Z</time></trkpt><trkpt lat="43.8185477" lon="11.6150448"><ele>1018.5714285714287</ele><time>2026-04-26T14:51:25.042Z</time></trkpt><trkpt lat="43.8185744" lon="11.6149408"><ele>1018.1428571428571</ele><time>2026-04-26T14:51:29.04Z</time></trkpt><trkpt lat="43.8185985" lon="11.6148326"><ele>1017.7142857142858</ele><time>2026-04-26T14:51:33.043Z</time></trkpt><trkpt lat="43.818623" lon="11.6147494"><ele>1017.2857142857143</ele><time>2026-04-26T14:51:36.053Z</time></trkpt><trkpt lat="43.8186554" lon="11.6146716"><ele>1016.8571428571429</ele><time>2026-04-26T14:51:39.052Z</time></trkpt><trkpt lat="43.8187046" lon="11.6146059"><ele>1016.4285714285714</ele><time>2026-04-26T14:51:42.05Z</time></trkpt><trkpt lat="43.8187544" lon="11.614548"><ele>1016.0</ele><time>2026-04-26T14:51:45.041Z</time></trkpt><trkpt lat="43.8188163" lon="11.6144746"><ele>1016.0</ele><time>2026-04-26T14:51:49.042Z</time></trkpt><trkpt lat="43.8188803" lon="11.6144586"><ele>1016.0</ele><time>2026-04-26T14:51:52.055Z</time></trkpt><trkpt lat="43.8189443" lon="11.6144331"><ele>1016.0</ele><time>2026-04-26T14:51:55.037Z</time></trkpt><trkpt lat="43.8190134" lon="11.6144008"><ele>1016.0</ele><time>2026-04-26T14:51:58.042Z</time></trkpt><trkpt lat="43.8190837" lon="11.6143451"><ele>1016.0</ele><time>2026-04-26T14:52:01.047Z</time></trkpt><trkpt lat="43.8191397" lon="11.614255"><ele>1016.0</ele><time>2026-04-26T14:52:05.043Z</time></trkpt><trkpt lat="43.8191775" lon="11.6141799"><ele>1016.0</ele><time>2026-04-26T14:52:08.058Z</time></trkpt><trkpt lat="43.8192144" lon="11.6141004"><ele>1016.0</ele><time>2026-04-26T14:52:11.048Z</time></trkpt><trkpt lat="43.8192484" lon="11.6140248"><ele>1016.0</ele><time>2026-04-26T14:52:14.048Z</time></trkpt><trkpt lat="43.8192642" lon="11.6139376"><ele>1016.0</ele><time>2026-04-26T14:52:17.043Z</time></trkpt><trkpt lat="43.819313" lon="11.6138616"><ele>1016.0</ele><time>2026-04-26T14:52:20.049Z</time></trkpt><trkpt lat="43.8193711" lon="11.6138177"><ele>1016.0</ele><time>2026-04-26T14:52:23.051Z</time></trkpt><trkpt lat="43.8194469" lon="11.6137789"><ele>1016.0</ele><time>2026-04-26T14:52:27.039Z</time></trkpt><trkpt lat="43.8195063" lon="11.6137311"><ele>1016.0</ele><time>2026-04-26T14:52:30.054Z</time></trkpt><trkpt lat="43.8195583" lon="11.6136276"><ele>1014.6666666666667</ele><time>2026-04-26T14:52:33.047Z</time></trkpt><trkpt lat="43.8195757" lon="11.6135262"><ele>1013.3333333333334</ele><time>2026-04-26T14:52:36.048Z</time></trkpt><trkpt lat="43.8195606" lon="11.6134088"><ele>1012.0</ele><time>2026-04-26T14:52:40.044Z</time></trkpt><trkpt lat="43.8195394" lon="11.6133013"><ele>1010.6666666666667</ele><time>2026-04-26T14:52:44.036Z</time></trkpt><trkpt lat="43.819517" lon="11.6132141"><ele>1009.3333333333334</ele><time>2026-04-26T14:52:47.049Z</time></trkpt><trkpt lat="43.8194778" lon="11.6131108"><ele>1008.0</ele><time>2026-04-26T14:52:51.043Z</time></trkpt><trkpt lat="43.8194242" lon="11.6130465"><ele>1008.0</ele><time>2026-04-26T14:52:54.05Z</time></trkpt><trkpt lat="43.8193745" lon="11.6129709"><ele>1008.0</ele><time>2026-04-26T14:52:57.046Z</time></trkpt><trkpt lat="43.8193221" lon="11.6128976"><ele>1008.0</ele><time>2026-04-26T14:53:00.062Z</time></trkpt><trkpt lat="43.8192745" lon="11.6128368"><ele>1008.0</ele><time>2026-04-26T14:53:03.059Z</time></trkpt><trkpt lat="43.8192185" lon="11.6127532"><ele>1008.0</ele><time>2026-04-26T14:53:07.041Z</time></trkpt><trkpt lat="43.8191718" lon="11.6126857"><ele>1008.0</ele><time>2026-04-26T14:53:10.048Z</time></trkpt><trkpt lat="43.8191217" lon="11.6126317"><ele>1008.0</ele><time>2026-04-26T14:53:13.058Z</time></trkpt><trkpt lat="43.8190541" lon="11.6125947"><ele>1009.1666666666666</ele><time>2026-04-26T14:53:16.044Z</time></trkpt><trkpt lat="43.8189745" lon="11.6125624"><ele>1010.3333333333333</ele><time>2026-04-26T14:53:19.074Z</time></trkpt><trkpt lat="43.8188984" lon="11.6125436"><ele>1011.5</ele><time>2026-04-26T14:53:22.034Z</time></trkpt><trkpt lat="43.818817" lon="11.6125447"><ele>1012.6666666666666</ele><time>2026-04-26T14:53:25.141Z</time></trkpt><trkpt lat="43.8187378" lon="11.6125721"><ele>1013.8333333333333</ele><time>2026-04-26T14:56:55.045Z</time></trkpt><trkpt lat="43.818667" lon="11.6126258"><ele>1015.0</ele><time>2026-04-26T14:56:59.047Z</time></trkpt><trkpt lat="43.8186107" lon="11.6126742"><ele>1015.0</ele><time>2026-04-26T14:57:02.044Z</time></trkpt><trkpt lat="43.8185599" lon="11.6127287"><ele>1015.0</ele><time>2026-04-26T14:57:05.04Z</time></trkpt><trkpt lat="43.818499" lon="11.6127703"><ele>1015.0</ele><time>2026-04-26T14:57:08.04Z</time></trkpt><trkpt lat="43.8184376" lon="11.6128165"><ele>1015.0</ele><time>2026-04-26T14:57:11.038Z</time></trkpt><trkpt lat="43.8183553" lon="11.6128513"><ele>1015.0</ele><time>2026-04-26T14:57:14.055Z</time></trkpt><trkpt lat="43.8182737" lon="11.6128682"><ele>1015.0</ele><time>2026-04-26T14:57:17.044Z</time></trkpt><trkpt lat="43.8182003" lon="11.6128908"><ele>1015.0</ele><time>2026-04-26T14:57:19.043Z</time></trkpt><trkpt lat="43.8181186" lon="11.6129165"><ele>1016.8333333333333</ele><time>2026-04-26T14:57:22.052Z</time></trkpt><trkpt lat="43.8180285" lon="11.612961"><ele>1018.6666666666666</ele><time>2026-04-26T14:57:25.051Z</time></trkpt><trkpt lat="43.81796" lon="11.6130097"><ele>1020.5</ele><time>2026-04-26T14:57:28.051Z</time></trkpt><trkpt lat="43.8179028" lon="11.6130537"><ele>1022.3333333333333</ele><time>2026-04-26T14:57:31.051Z</time></trkpt><trkpt lat="43.8178303" lon="11.6131011"><ele>1024.1666666666667</ele><time>2026-04-26T14:57:34.047Z</time></trkpt><trkpt lat="43.8177725" lon="11.613138"><ele>1026.0</ele><time>2026-04-26T14:57:37.056Z</time></trkpt><trkpt lat="43.8176888" lon="11.6131391"><ele>1026.1428571428573</ele><time>2026-04-26T14:57:41.045Z</time></trkpt><trkpt lat="43.8176024" lon="11.6131324"><ele>1026.2857142857142</ele><time>2026-04-26T14:57:44.053Z</time></trkpt><trkpt lat="43.8175242" lon="11.6131332"><ele>1026.4285714285716</ele><time>2026-04-26T14:57:47.035Z</time></trkpt><trkpt lat="43.8174583" lon="11.6131346"><ele>1026.5714285714287</ele><time>2026-04-26T14:57:50.055Z</time></trkpt><trkpt lat="43.817388" lon="11.6131414"><ele>1026.7142857142858</ele><time>2026-04-26T14:57:53.038Z</time></trkpt><trkpt lat="43.8173154" lon="11.6131475"><ele>1026.857142857143</ele><time>2026-04-26T14:57:56.055Z</time></trkpt><trkpt lat="43.8172518" lon="11.6131628"><ele>1027.0</ele><time>2026-04-26T14:58:00.044Z</time></trkpt><trkpt lat="43.8171813" lon="11.6131555"><ele>1027.0</ele><time>2026-04-26T15:02:04.052Z</time></trkpt><trkpt lat="43.8170962" lon="11.6131583"><ele>1027.0</ele><time>2026-04-26T15:02:08.036Z</time></trkpt><trkpt lat="43.8170206" lon="11.6131446"><ele>1027.0</ele><time>2026-04-26T15:02:11.058Z</time></trkpt><trkpt lat="43.8169407" lon="11.6131185"><ele>1027.0</ele><time>2026-04-26T15:02:14.05Z</time></trkpt><trkpt lat="43.8168652" lon="11.613093"><ele>1027.0</ele><time>2026-04-26T15:02:18.041Z</time></trkpt><trkpt lat="43.8167783" lon="11.61309"><ele>1027.0</ele><time>2026-04-26T15:02:21.036Z</time></trkpt><trkpt lat="43.8166918" lon="11.6130739"><ele>1027.4285714285716</ele><time>2026-04-26T15:02:24.04Z</time></trkpt><trkpt lat="43.8166256" lon="11.6130744"><ele>1027.857142857143</ele><time>2026-04-26T15:02:26.043Z</time></trkpt><trkpt lat="43.8165515" lon="11.6130801"><ele>1028.2857142857142</ele><time>2026-04-26T15:02:29.055Z</time></trkpt><trkpt lat="43.8164893" lon="11.6130326"><ele>1028.7142857142858</ele><time>2026-04-26T15:02:33.042Z</time></trkpt><trkpt lat="43.8165144" lon="11.6129207"><ele>1029.142857142857</ele><time>2026-04-26T15:02:37.048Z</time></trkpt><trkpt lat="43.8165691" lon="11.6128623"><ele>1029.5714285714287</ele><time>2026-04-26T15:02:41.049Z</time></trkpt><trkpt lat="43.8166288" lon="11.6128177"><ele>1030.0</ele><time>2026-04-26T15:02:49.04Z</time></trkpt><trkpt lat="43.8166875" lon="11.6127528"><ele>1026.857142857143</ele><time>2026-04-26T15:02:52.046Z</time></trkpt><trkpt lat="43.8167366" lon="11.6126839"><ele>1023.7142857142857</ele><time>2026-04-26T15:02:55.036Z</time></trkpt><trkpt lat="43.8167605" lon="11.6125943"><ele>1020.5714285714286</ele><time>2026-04-26T15:02:58.041Z</time></trkpt><trkpt lat="43.8167633" lon="11.6125049"><ele>1017.4285714285714</ele><time>2026-04-26T15:03:00.049Z</time></trkpt><trkpt lat="43.8167503" lon="11.6123792"><ele>1014.2857142857142</ele><time>2026-04-26T15:03:03.043Z</time></trkpt><trkpt lat="43.8167146" lon="11.6122973"><ele>1011.1428571428571</ele><time>2026-04-26T15:03:05.043Z</time></trkpt><trkpt lat="43.8166499" lon="11.6122384"><ele>1008.0</ele><time>2026-04-26T15:03:07.046Z</time></trkpt><trkpt lat="43.8165831" lon="11.6122322"><ele>1008.0</ele><time>2026-04-26T15:03:09.027Z</time></trkpt><trkpt lat="43.8165098" lon="11.6122519"><ele>1008.0</ele><time>2026-04-26T15:03:11.035Z</time></trkpt><trkpt lat="43.8164445" lon="11.6123015"><ele>1008.0</ele><time>2026-04-26T15:03:13.04Z</time></trkpt><trkpt lat="43.8163896" lon="11.6123607"><ele>1008.0</ele><time>2026-04-26T15:03:15.048Z</time></trkpt><trkpt lat="43.8163367" lon="11.6124191"><ele>1008.0</ele><time>2026-04-26T15:03:17.046Z</time></trkpt><trkpt lat="43.8162752" lon="11.6124753"><ele>1008.0</ele><time>2026-04-26T15:03:19.035Z</time></trkpt><trkpt lat="43.8162096" lon="11.6125008"><ele>1008.0</ele><time>2026-04-26T15:03:21.053Z</time></trkpt><trkpt lat="43.8161428" lon="11.612525"><ele>1008.0</ele><time>2026-04-26T15:03:24.039Z</time></trkpt><trkpt lat="43.81607" lon="11.6125552"><ele>1008.0</ele><time>2026-04-26T15:03:31.044Z</time></trkpt><trkpt lat="43.8159917" lon="11.6125827"><ele>1008.0</ele><time>2026-04-26T15:03:35.039Z</time></trkpt><trkpt lat="43.8159115" lon="11.6125953"><ele>1008.0</ele><time>2026-04-26T15:03:39.041Z</time></trkpt><trkpt lat="43.8158322" lon="11.6125903"><ele>1008.0</ele><time>2026-04-26T15:03:43.049Z</time></trkpt><trkpt lat="43.8157508" lon="11.6125898"><ele>1008.0</ele><time>2026-04-26T15:03:46.04Z</time></trkpt><trkpt lat="43.8156803" lon="11.6126191"><ele>1008.0</ele><time>2026-04-26T15:03:49.042Z</time></trkpt><trkpt lat="43.8155867" lon="11.612658"><ele>1008.0</ele><time>2026-04-26T15:03:52.043Z</time></trkpt><trkpt lat="43.8155044" lon="11.6126908"><ele>1008.0</ele><time>2026-04-26T15:03:55.043Z</time></trkpt><trkpt lat="43.8154439" lon="11.6127173"><ele>1008.0</ele><time>2026-04-26T15:03:58.038Z</time></trkpt><trkpt lat="43.8153778" lon="11.6127186"><ele>1008.0</ele><time>2026-04-26T15:04:01.054Z</time></trkpt><trkpt lat="43.8153124" lon="11.6126888"><ele>1008.0</ele><time>2026-04-26T15:04:05.038Z</time></trkpt><trkpt lat="43.8152771" lon="11.612589"><ele>1008.0</ele><time>2026-04-26T15:04:09.043Z</time></trkpt><trkpt lat="43.8152218" lon="11.6125303"><ele>1008.0</ele><time>2026-04-26T15:04:12.05Z</time></trkpt><trkpt lat="43.8151641" lon="11.6124599"><ele>1008.0</ele><time>2026-04-26T15:04:16.046Z</time></trkpt><trkpt lat="43.8151382" lon="11.6123719"><ele>1008.0</ele><time>2026-04-26T15:04:19.038Z</time></trkpt><trkpt lat="43.8151709" lon="11.6122751"><ele>1008.0</ele><time>2026-04-26T15:04:23.043Z</time></trkpt><trkpt lat="43.8152241" lon="11.6122195"><ele>1008.0</ele><time>2026-04-26T15:04:26.047Z</time></trkpt><trkpt lat="43.8152777" lon="11.6121516"><ele>1008.0</ele><time>2026-04-26T15:04:29.057Z</time></trkpt><trkpt lat="43.8153135" lon="11.6120538"><ele>1005.1666666666666</ele><time>2026-04-26T15:04:32.049Z</time></trkpt><trkpt lat="43.8153264" lon="11.6119497"><ele>1002.3333333333333</ele><time>2026-04-26T15:04:35.047Z</time></trkpt><trkpt lat="43.8153261" lon="11.6118326"><ele>999.5</ele><time>2026-04-26T15:04:38.043Z</time></trkpt><trkpt lat="43.8152822" lon="11.6117115"><ele>996.6666666666666</ele><time>2026-04-26T15:04:41.036Z</time></trkpt><trkpt lat="43.8152438" lon="11.6116371"><ele>993.8333333333333</ele><time>2026-04-26T15:04:43.046Z</time></trkpt><trkpt lat="43.8151441" lon="11.6115899"><ele>991.0</ele><time>2026-04-26T15:04:46.038Z</time></trkpt><trkpt lat="43.8150581" lon="11.6115622"><ele>997.1666666666666</ele><time>2026-04-26T15:04:48.048Z</time></trkpt><trkpt lat="43.8149915" lon="11.6115564"><ele>1003.3333333333333</ele><time>2026-04-26T15:04:50.038Z</time></trkpt><trkpt lat="43.8149021" lon="11.6115149"><ele>1009.5</ele><time>2026-04-26T15:04:53.047Z</time></trkpt><trkpt lat="43.8148449" lon="11.6114356"><ele>1015.6666666666667</ele><time>2026-04-26T15:04:56.055Z</time></trkpt><trkpt lat="43.8148305" lon="11.611343"><ele>1021.8333333333334</ele><time>2026-04-26T15:04:59.047Z</time></trkpt><trkpt lat="43.8147949" lon="11.6112476"><ele>1028.0</ele><time>2026-04-26T15:05:02.063Z</time></trkpt><trkpt lat="43.8147529" lon="11.6111683"><ele>1025.0</ele><time>2026-04-26T15:05:04.042Z</time></trkpt><trkpt lat="43.8147209" lon="11.6110758"><ele>1022.0</ele><time>2026-04-26T15:05:06.056Z</time></trkpt><trkpt lat="43.8147066" lon="11.6109864"><ele>1019.0</ele><time>2026-04-26T15:05:08.04Z</time></trkpt><trkpt lat="43.8146823" lon="11.6108645"><ele>1016.0</ele><time>2026-04-26T15:05:10.037Z</time></trkpt><trkpt lat="43.8146824" lon="11.6107754"><ele>1013.0000000000001</ele><time>2026-04-26T15:05:12.053Z</time></trkpt><trkpt lat="43.8146753" lon="11.6106825"><ele>1010.0</ele><time>2026-04-26T15:05:14.039Z</time></trkpt><trkpt lat="43.8146238" lon="11.6105787"><ele>1010.0000000000001</ele><time>2026-04-26T15:05:17.039Z</time></trkpt><trkpt lat="43.8145617" lon="11.6105291"><ele>1010.0</ele><time>2026-04-26T15:05:19.054Z</time></trkpt><trkpt lat="43.8145009" lon="11.6104746"><ele>1010.0</ele><time>2026-04-26T15:05:21.049Z</time></trkpt><trkpt lat="43.8144217" lon="11.6104341"><ele>1010.0</ele><time>2026-04-26T15:05:23.042Z</time></trkpt><trkpt lat="43.8143564" lon="11.6103928"><ele>1010.0000000000001</ele><time>2026-04-26T15:05:25.047Z</time></trkpt><trkpt lat="43.8142767" lon="11.6103575"><ele>1010.0</ele><time>2026-04-26T15:05:27.049Z</time></trkpt><trkpt lat="43.8141793" lon="11.6103726"><ele>1013.1666666666667</ele><time>2026-04-26T15:05:29.041Z</time></trkpt><trkpt lat="43.8140931" lon="11.6103732"><ele>1016.3333333333334</ele><time>2026-04-26T15:05:31.039Z</time></trkpt><trkpt lat="43.8140182" lon="11.6103876"><ele>1019.5</ele><time>2026-04-26T15:05:33.038Z</time></trkpt><trkpt lat="43.8139345" lon="11.6104207"><ele>1022.6666666666667</ele><time>2026-04-26T15:05:35.052Z</time></trkpt><trkpt lat="43.8138693" lon="11.6104572"><ele>1025.8333333333333</ele><time>2026-04-26T15:05:37.04Z</time></trkpt><trkpt lat="43.8138326" lon="11.6105406"><ele>1029.0</ele><time>2026-04-26T15:05:39.034Z</time></trkpt><trkpt lat="43.813804" lon="11.6106249"><ele>1029.0</ele><time>2026-04-26T15:05:41.046Z</time></trkpt><trkpt lat="43.8137832" lon="11.610725"><ele>1029.0</ele><time>2026-04-26T15:05:44.043Z</time></trkpt><trkpt lat="43.8137533" lon="11.6108229"><ele>1029.0</ele><time>2026-04-26T15:10:18.047Z</time></trkpt><trkpt lat="43.8137328" lon="11.6109109"><ele>1029.0</ele><time>2026-04-26T15:10:22.051Z</time></trkpt><trkpt lat="43.8137011" lon="11.6109928"><ele>1029.0</ele><time>2026-04-26T15:10:26.054Z</time></trkpt><trkpt lat="43.81368" lon="11.6110815"><ele>1029.0</ele><time>2026-04-26T15:10:31.042Z</time></trkpt><trkpt lat="43.8136648" lon="11.6111733"><ele>1029.0</ele><time>2026-04-26T15:11:08.05Z</time></trkpt><trkpt lat="43.8136476" lon="11.6112724"><ele>1032.2857142857142</ele><time>2026-04-26T15:11:14.047Z</time></trkpt><trkpt lat="43.8136254" lon="11.6113811"><ele>1035.5714285714284</ele><time>2026-04-26T15:11:18.055Z</time></trkpt><trkpt lat="43.8136003" lon="11.6114879"><ele>1038.857142857143</ele><time>2026-04-26T15:11:22.06Z</time></trkpt><trkpt lat="43.8135725" lon="11.611571"><ele>1042.142857142857</ele><time>2026-04-26T15:11:25.044Z</time></trkpt><trkpt lat="43.8135534" lon="11.6116765"><ele>1045.4285714285713</ele><time>2026-04-26T15:11:29.05Z</time></trkpt><trkpt lat="43.8135434" lon="11.6117696"><ele>1048.7142857142858</ele><time>2026-04-26T15:11:32.039Z</time></trkpt><trkpt lat="43.8135173" lon="11.6118647"><ele>1052.0</ele><time>2026-04-26T15:11:35.046Z</time></trkpt><trkpt lat="43.8134899" lon="11.6119499"><ele>1051.6666666666667</ele><time>2026-04-26T15:11:38.041Z</time></trkpt><trkpt lat="43.8134617" lon="11.6120522"><ele>1051.3333333333335</ele><time>2026-04-26T15:11:41.046Z</time></trkpt><trkpt lat="43.813422" lon="11.6121617"><ele>1051.0</ele><time>2026-04-26T15:11:45.038Z</time></trkpt><trkpt lat="43.8133955" lon="11.6122539"><ele>1050.6666666666667</ele><time>2026-04-26T15:11:48.041Z</time></trkpt><trkpt lat="43.8133868" lon="11.6123541"><ele>1050.3333333333333</ele><time>2026-04-26T15:11:51.045Z</time></trkpt><trkpt lat="43.8133842" lon="11.6124565"><ele>1050.0</ele><time>2026-04-26T15:11:54.039Z</time></trkpt><trkpt lat="43.8133677" lon="11.6125498"><ele>1050.0</ele><time>2026-04-26T15:11:57.039Z</time></trkpt><trkpt lat="43.8133269" lon="11.6126305"><ele>1050.0</ele><time>2026-04-26T15:12:00.058Z</time></trkpt><trkpt lat="43.8132934" lon="11.6127079"><ele>1050.0</ele><time>2026-04-26T15:12:03.047Z</time></trkpt><trkpt lat="43.8132477" lon="11.6127698"><ele>1050.0</ele><time>2026-04-26T15:12:06.058Z</time></trkpt><trkpt lat="43.8132006" lon="11.6128466"><ele>1050.0</ele><time>2026-04-26T15:12:09.055Z</time></trkpt><trkpt lat="43.8131471" lon="11.6129067"><ele>1050.0</ele><time>2026-04-26T15:12:12.039Z</time></trkpt><trkpt lat="43.8130881" lon="11.6129564"><ele>1050.0</ele><time>2026-04-26T15:12:15.043Z</time></trkpt><trkpt lat="43.8130311" lon="11.6130263"><ele>1049.7142857142858</ele><time>2026-04-26T15:12:18.045Z</time></trkpt><trkpt lat="43.8129768" lon="11.6130875"><ele>1049.4285714285716</ele><time>2026-04-26T15:12:23.052Z</time></trkpt><trkpt lat="43.8129201" lon="11.6131602"><ele>1049.142857142857</ele><time>2026-04-26T15:12:27.048Z</time></trkpt><trkpt lat="43.8128799" lon="11.613252"><ele>1048.857142857143</ele><time>2026-04-26T15:12:31.06Z</time></trkpt><trkpt lat="43.8128356" lon="11.6133162"><ele>1048.5714285714287</ele><time>2026-04-26T15:12:34.058Z</time></trkpt><trkpt lat="43.8127823" lon="11.613388"><ele>1048.2857142857142</ele><time>2026-04-26T15:12:37.034Z</time></trkpt><trkpt lat="43.8127257" lon="11.6134372"><ele>1048.0</ele><time>2026-04-26T15:12:41.034Z</time></trkpt><trkpt lat="43.8126551" lon="11.6134915"><ele>1047.857142857143</ele><time>2026-04-26T15:12:45.043Z</time></trkpt><trkpt lat="43.8125879" lon="11.6135238"><ele>1047.7142857142858</ele><time>2026-04-26T15:12:48.041Z</time></trkpt><trkpt lat="43.8125216" lon="11.6135259"><ele>1047.5714285714287</ele><time>2026-04-26T15:12:51.041Z</time></trkpt><trkpt lat="43.8124606" lon="11.6134989"><ele>1047.4285714285716</ele><time>2026-04-26T15:12:54.045Z</time></trkpt><trkpt lat="43.8123945" lon="11.6134614"><ele>1047.2857142857142</ele><time>2026-04-26T15:12:57.044Z</time></trkpt><trkpt lat="43.8123285" lon="11.613433"><ele>1047.1428571428573</ele><time>2026-04-26T15:13:00.046Z</time></trkpt><trkpt lat="43.8122577" lon="11.6133957"><ele>1047.0</ele><time>2026-04-26T15:13:03.036Z</time></trkpt><trkpt lat="43.812185" lon="11.6133708"><ele>1047.0</ele><time>2026-04-26T15:13:06.04Z</time></trkpt><trkpt lat="43.8120966" lon="11.6133498"><ele>1047.0</ele><time>2026-04-26T15:13:09.048Z</time></trkpt><trkpt lat="43.812026" lon="11.6133317"><ele>1047.0</ele><time>2026-04-26T15:13:11.034Z</time></trkpt><trkpt lat="43.8119466" lon="11.6133075"><ele>1047.0</ele><time>2026-04-26T15:13:13.057Z</time></trkpt><trkpt lat="43.8118808" lon="11.6133089"><ele>1047.0</ele><time>2026-04-26T15:13:15.043Z</time></trkpt><trkpt lat="43.8117988" lon="11.6133663"><ele>1047.0</ele><time>2026-04-26T15:13:18.054Z</time></trkpt><trkpt lat="43.8117425" lon="11.6134151"><ele>1047.1666666666667</ele><time>2026-04-26T15:13:20.042Z</time></trkpt><trkpt lat="43.8116722" lon="11.6134383"><ele>1047.3333333333333</ele><time>2026-04-26T15:13:22.04Z</time></trkpt><trkpt lat="43.8115996" lon="11.6134604"><ele>1047.5</ele><time>2026-04-26T15:13:24.055Z</time></trkpt><trkpt lat="43.8115188" lon="11.61348"><ele>1047.6666666666665</ele><time>2026-04-26T15:13:27.046Z</time></trkpt><trkpt lat="43.8114347" lon="11.6134844"><ele>1047.8333333333333</ele><time>2026-04-26T15:13:30.052Z</time></trkpt><trkpt lat="43.8113608" lon="11.6134332"><ele>1048.0</ele><time>2026-04-26T15:13:33.038Z</time></trkpt><trkpt lat="43.8112918" lon="11.6133617"><ele>1048.0</ele><time>2026-04-26T15:13:35.052Z</time></trkpt><trkpt lat="43.8112171" lon="11.6133185"><ele>1048.0</ele><time>2026-04-26T15:13:37.07Z</time></trkpt><trkpt lat="43.8111391" lon="11.6132639"><ele>1048.0</ele><time>2026-04-26T15:13:40.039Z</time></trkpt><trkpt lat="43.8110886" lon="11.6132107"><ele>1048.0</ele><time>2026-04-26T15:13:43.057Z</time></trkpt><trkpt lat="43.811058" lon="11.6131329"><ele>1048.0</ele><time>2026-04-26T15:13:46.055Z</time></trkpt><trkpt lat="43.8110136" lon="11.6130546"><ele>1048.0</ele><time>2026-04-26T15:13:48.045Z</time></trkpt><trkpt lat="43.8109598" lon="11.6129688"><ele>1046.0</ele><time>2026-04-26T15:13:50.051Z</time></trkpt><trkpt lat="43.8109027" lon="11.6128758"><ele>1044.0</ele><time>2026-04-26T15:13:52.046Z</time></trkpt><trkpt lat="43.8108633" lon="11.612772"><ele>1042.0</ele><time>2026-04-26T15:13:54.058Z</time></trkpt><trkpt lat="43.8108448" lon="11.612679"><ele>1040.0</ele><time>2026-04-26T15:13:56.053Z</time></trkpt><trkpt lat="43.810818" lon="11.6125758"><ele>1038.0</ele><time>2026-04-26T15:13:59.052Z</time></trkpt><trkpt lat="43.8107887" lon="11.6124831"><ele>1036.0</ele><time>2026-04-26T15:14:09.032Z</time></trkpt><trkpt lat="43.8107309" lon="11.61243"><ele>1036.0</ele><time>2026-04-26T15:14:57.063Z</time></trkpt><trkpt lat="43.8106681" lon="11.6124155"><ele>1036.0</ele><time>2026-04-26T15:15:02.036Z</time></trkpt><trkpt lat="43.8105847" lon="11.6124"><ele>1036.0</ele><time>2026-04-26T15:15:06.058Z</time></trkpt><trkpt lat="43.8105176" lon="11.6124269"><ele>1036.0</ele><time>2026-04-26T15:15:12.063Z</time></trkpt><trkpt lat="43.8104549" lon="11.612445"><ele>1036.0</ele><time>2026-04-26T15:15:17.049Z</time></trkpt><trkpt lat="43.8103776" lon="11.6124423"><ele>1036.0</ele><time>2026-04-26T15:15:23.05Z</time></trkpt><trkpt lat="43.8103033" lon="11.6124497"><ele>1036.0</ele><time>2026-04-26T15:15:28.052Z</time></trkpt><trkpt lat="43.8102328" lon="11.6124601"><ele>1036.0</ele><time>2026-04-26T15:15:32.055Z</time></trkpt><trkpt lat="43.8101685" lon="11.6124783"><ele>1036.0</ele><time>2026-04-26T15:15:36.04Z</time></trkpt><trkpt lat="43.8100963" lon="11.612499"><ele>1036.0</ele><time>2026-04-26T15:15:40.057Z</time></trkpt><trkpt lat="43.8100143" lon="11.6125194"><ele>1036.0</ele><time>2026-04-26T15:15:44.036Z</time></trkpt><trkpt lat="43.8099275" lon="11.6125451"><ele>1036.0</ele><time>2026-04-26T15:15:47.05Z</time></trkpt><trkpt lat="43.8098558" lon="11.612556"><ele>1036.0</ele><time>2026-04-26T15:15:49.049Z</time></trkpt><trkpt lat="43.8097649" lon="11.6125401"><ele>1032.5714285714287</ele><time>2026-04-26T15:15:51.043Z</time></trkpt><trkpt lat="43.8097098" lon="11.6124863"><ele>1029.142857142857</ele><time>2026-04-26T15:15:53.047Z</time></trkpt><trkpt lat="43.8096607" lon="11.6124083"><ele>1025.7142857142858</ele><time>2026-04-26T15:15:55.046Z</time></trkpt><trkpt lat="43.809647" lon="11.6122872"><ele>1022.2857142857143</ele><time>2026-04-26T15:15:57.044Z</time></trkpt><trkpt lat="43.8096457" lon="11.6121721"><ele>1018.8571428571429</ele><time>2026-04-26T15:15:59.042Z</time></trkpt><trkpt lat="43.8096708" lon="11.6120893"><ele>1015.4285714285716</ele><time>2026-04-26T15:16:01.045Z</time></trkpt><trkpt lat="43.8097064" lon="11.6120164"><ele>1012.0000000000001</ele><time>2026-04-26T15:16:03.05Z</time></trkpt><trkpt lat="43.8097638" lon="11.6119385"><ele>1011.9999999999999</ele><time>2026-04-26T15:16:06.063Z</time></trkpt><trkpt lat="43.809803" lon="11.6118275"><ele>1012.0</ele><time>2026-04-26T15:16:09.042Z</time></trkpt><trkpt lat="43.8097904" lon="11.6117298"><ele>1012.0</ele><time>2026-04-26T15:16:11.044Z</time></trkpt><trkpt lat="43.8097572" lon="11.61163"><ele>1012.0</ele><time>2026-04-26T15:16:13.046Z</time></trkpt><trkpt lat="43.8097156" lon="11.6115401"><ele>1011.9999999999999</ele><time>2026-04-26T15:16:15.047Z</time></trkpt><trkpt lat="43.8096739" lon="11.6114625"><ele>1012.0</ele><time>2026-04-26T15:16:17.047Z</time></trkpt><trkpt lat="43.8096537" lon="11.6113645"><ele>1011.9999999999999</ele><time>2026-04-26T15:16:19.048Z</time></trkpt><trkpt lat="43.8096494" lon="11.6112731"><ele>1012.0</ele><time>2026-04-26T15:16:21.043Z</time></trkpt><trkpt lat="43.8096623" lon="11.6111559"><ele>1012.0</ele><time>2026-04-26T15:16:24.067Z</time></trkpt><trkpt lat="43.8097036" lon="11.611062"><ele>1012.0</ele><time>2026-04-26T15:16:27.05Z</time></trkpt><trkpt lat="43.8097275" lon="11.6109672"><ele>1011.9999999999999</ele><time>2026-04-26T15:16:34.054Z</time></trkpt><trkpt lat="43.8097466" lon="11.6108802"><ele>1012.0</ele><time>2026-04-26T15:16:38.042Z</time></trkpt><trkpt lat="43.8097427" lon="11.6107687"><ele>1011.9999999999999</ele><time>2026-04-26T15:16:41.044Z</time></trkpt><trkpt lat="43.8097399" lon="11.6106468"><ele>1012.0</ele><time>2026-04-26T15:16:44.045Z</time></trkpt><trkpt lat="43.8097407" lon="11.6105537"><ele>1012.0</ele><time>2026-04-26T15:16:47.052Z</time></trkpt><trkpt lat="43.8097082" lon="11.6104557"><ele>1012.0</ele><time>2026-04-26T15:16:50.044Z</time></trkpt><trkpt lat="43.8096806" lon="11.6103549"><ele>1011.9999999999999</ele><time>2026-04-26T15:16:53.063Z</time></trkpt><trkpt lat="43.8096546" lon="11.6102656"><ele>1012.0</ele><time>2026-04-26T15:16:56.048Z</time></trkpt><trkpt lat="43.8096553" lon="11.6101672"><ele>1010.9999999999999</ele><time>2026-04-26T15:17:01.06Z</time></trkpt><trkpt lat="43.8096761" lon="11.6100381"><ele>1010.0</ele><time>2026-04-26T15:17:04.041Z</time></trkpt><trkpt lat="43.8096824" lon="11.6099363"><ele>1009.0</ele><time>2026-04-26T15:17:06.051Z</time></trkpt><trkpt lat="43.8096717" lon="11.6098267"><ele>1008.0</ele><time>2026-04-26T15:17:08.054Z</time></trkpt><trkpt lat="43.8096742" lon="11.6097067"><ele>1006.9999999999999</ele><time>2026-04-26T15:17:10.049Z</time></trkpt><trkpt lat="43.8097125" lon="11.6096028"><ele>1006.0</ele><time>2026-04-26T15:17:13.052Z</time></trkpt><trkpt lat="43.8097384" lon="11.6094923"><ele>1004.6666666666666</ele><time>2026-04-26T15:17:16.044Z</time></trkpt><trkpt lat="43.8097366" lon="11.6093816"><ele>1003.3333333333333</ele><time>2026-04-26T15:17:19.044Z</time></trkpt><trkpt lat="43.8097114" lon="11.6092875"><ele>1002.0</ele><time>2026-04-26T15:17:22.054Z</time></trkpt><trkpt lat="43.8096888" lon="11.6091895"><ele>1000.6666666666667</ele><time>2026-04-26T15:17:25.03Z</time></trkpt><trkpt lat="43.8096491" lon="11.6090987"><ele>999.3333333333334</ele><time>2026-04-26T15:17:28.056Z</time></trkpt><trkpt lat="43.809621" lon="11.6090155"><ele>998.0</ele><time>2026-04-26T15:17:31.049Z</time></trkpt><trkpt lat="43.8095784" lon="11.6089152"><ele>998.0000000000001</ele><time>2026-04-26T15:17:35.047Z</time></trkpt><trkpt lat="43.8095658" lon="11.6087979"><ele>998.0</ele><time>2026-04-26T15:17:38.04Z</time></trkpt><trkpt lat="43.8095279" lon="11.6086861"><ele>998.0</ele><time>2026-04-26T15:17:41.05Z</time></trkpt><trkpt lat="43.8095035" lon="11.6085976"><ele>998.0</ele><time>2026-04-26T15:17:43.048Z</time></trkpt><trkpt lat="43.8094709" lon="11.608515"><ele>998.0000000000001</ele><time>2026-04-26T15:17:45.046Z</time></trkpt><trkpt lat="43.8094198" lon="11.6084057"><ele>998.0</ele><time>2026-04-26T15:17:48.056Z</time></trkpt><trkpt lat="43.809363" lon="11.6083059"><ele>994.6666666666667</ele><time>2026-04-26T15:17:51.037Z</time></trkpt><trkpt lat="43.8093135" lon="11.6082353"><ele>991.3333333333334</ele><time>2026-04-26T15:17:54.045Z</time></trkpt><trkpt lat="43.8092793" lon="11.6081565"><ele>988.0</ele><time>2026-04-26T15:17:57.051Z</time></trkpt><trkpt lat="43.8092107" lon="11.6081036"><ele>984.6666666666667</ele><time>2026-04-26T15:18:00.045Z</time></trkpt><trkpt lat="43.8091186" lon="11.6080842"><ele>981.3333333333334</ele><time>2026-04-26T15:18:03.041Z</time></trkpt><trkpt lat="43.8090362" lon="11.6080617"><ele>978.0</ele><time>2026-04-26T15:18:07.044Z</time></trkpt><trkpt lat="43.8089695" lon="11.6080454"><ele>978.0</ele><time>2026-04-26T15:18:10.056Z</time></trkpt><trkpt lat="43.808883" lon="11.6080194"><ele>978.0</ele><time>2026-04-26T15:18:13.049Z</time></trkpt><trkpt lat="43.8088101" lon="11.6079591"><ele>978.0</ele><time>2026-04-26T15:18:16.042Z</time></trkpt><trkpt lat="43.8087351" lon="11.6079017"><ele>978.0</ele><time>2026-04-26T15:18:19.04Z</time></trkpt><trkpt lat="43.8086729" lon="11.6078829"><ele>978.0</ele><time>2026-04-26T15:18:21.046Z</time></trkpt><trkpt lat="43.8085983" lon="11.6078953"><ele>978.0</ele><time>2026-04-26T15:18:23.047Z</time></trkpt><trkpt lat="43.8085328" lon="11.6079319"><ele>978.0</ele><time>2026-04-26T15:18:25.044Z</time></trkpt><trkpt lat="43.8084644" lon="11.6079806"><ele>978.0000000000001</ele><time>2026-04-26T15:18:27.042Z</time></trkpt><trkpt lat="43.8084073" lon="11.608023"><ele>978.0</ele><time>2026-04-26T15:18:29.054Z</time></trkpt><trkpt lat="43.808353" lon="11.6080677"><ele>978.0</ele><time>2026-04-26T15:18:31.052Z</time></trkpt><trkpt lat="43.8082957" lon="11.6081068"><ele>978.0000000000001</ele><time>2026-04-26T15:18:33.039Z</time></trkpt><trkpt lat="43.8082146" lon="11.6081163"><ele>978.0</ele><time>2026-04-26T15:18:36.08Z</time></trkpt><trkpt lat="43.808142" lon="11.608069"><ele>978.0</ele><time>2026-04-26T15:18:40.044Z</time></trkpt><trkpt lat="43.8081168" lon="11.6079874"><ele>978.0</ele><time>2026-04-26T15:18:44.041Z</time></trkpt><trkpt lat="43.8080621" lon="11.6079405"><ele>978.0000000000001</ele><time>2026-04-26T15:19:00.047Z</time></trkpt><trkpt lat="43.8079895" lon="11.6079557"><ele>978.0</ele><time>2026-04-26T15:19:19.038Z</time></trkpt><trkpt lat="43.8079708" lon="11.6080555"><ele>978.0</ele><time>2026-04-26T15:19:22.047Z</time></trkpt><trkpt lat="43.8080254" lon="11.6081335"><ele>978.0000000000001</ele><time>2026-04-26T15:19:26.033Z</time></trkpt><trkpt lat="43.8080883" lon="11.6081699"><ele>978.0</ele><time>2026-04-26T15:19:30.034Z</time></trkpt><trkpt lat="43.8081501" lon="11.6082163"><ele>978.0</ele><time>2026-04-26T15:30:59.049Z</time></trkpt><trkpt lat="43.8081725" lon="11.6081113"><ele>978.0</ele><time>2026-04-26T15:31:03.043Z</time></trkpt><trkpt lat="43.8081426" lon="11.6080324"><ele>978.0</ele><time>2026-04-26T15:31:06.044Z</time></trkpt><trkpt lat="43.8081452" lon="11.6079379"><ele>978.0</ele><time>2026-04-26T15:31:09.048Z</time></trkpt><trkpt lat="43.8081553" lon="11.6078259"><ele>978.0</ele><time>2026-04-26T15:31:12.047Z</time></trkpt><trkpt lat="43.8081755" lon="11.6077034"><ele>978.0</ele><time>2026-04-26T15:31:15.036Z</time></trkpt><trkpt lat="43.8082021" lon="11.6075914"><ele>978.0</ele><time>2026-04-26T15:31:18.037Z</time></trkpt><trkpt lat="43.8082343" lon="11.6074827"><ele>978.5</ele><time>2026-04-26T15:31:21.041Z</time></trkpt><trkpt lat="43.8082755" lon="11.6073764"><ele>979.0</ele><time>2026-04-26T15:31:24.042Z</time></trkpt><trkpt lat="43.8082988" lon="11.6072876"><ele>979.5</ele><time>2026-04-26T15:31:26.028Z</time></trkpt><trkpt lat="43.8083377" lon="11.6071782"><ele>980.0</ele><time>2026-04-26T15:31:29.043Z</time></trkpt><trkpt lat="43.8083937" lon="11.6070714"><ele>980.5</ele><time>2026-04-26T15:31:32.045Z</time></trkpt><trkpt lat="43.8084597" lon="11.606986"><ele>981.0</ele><time>2026-04-26T15:31:35.044Z</time></trkpt><trkpt lat="43.8085144" lon="11.6068936"><ele>983.0</ele><time>2026-04-26T15:31:38.05Z</time></trkpt><trkpt lat="43.8085119" lon="11.6067512"><ele>985.0</ele><time>2026-04-26T15:31:41.033Z</time></trkpt><trkpt lat="43.8084742" lon="11.6066613"><ele>987.0</ele><time>2026-04-26T15:31:43.045Z</time></trkpt><trkpt lat="43.8084343" lon="11.6065839"><ele>989.0</ele><time>2026-04-26T15:31:45.041Z</time></trkpt><trkpt lat="43.808396" lon="11.606452"><ele>991.0</ele><time>2026-04-26T15:31:48.043Z</time></trkpt><trkpt lat="43.8083634" lon="11.606351"><ele>993.0</ele><time>2026-04-26T15:31:50.053Z</time></trkpt><trkpt lat="43.8083375" lon="11.6062545"><ele>993.0</ele><time>2026-04-26T15:31:52.045Z</time></trkpt><trkpt lat="43.8083132" lon="11.6061637"><ele>993.0</ele><time>2026-04-26T15:31:54.045Z</time></trkpt><trkpt lat="43.808282" lon="11.606062"><ele>993.0</ele><time>2026-04-26T15:31:56.039Z</time></trkpt><trkpt lat="43.808246" lon="11.605931"><ele>993.0</ele><time>2026-04-26T15:31:58.041Z</time></trkpt><trkpt lat="43.8082107" lon="11.6057935"><ele>993.0</ele><time>2026-04-26T15:32:00.067Z</time></trkpt><trkpt lat="43.8081616" lon="11.6056684"><ele>995.5999999999999</ele><time>2026-04-26T15:32:02.04Z</time></trkpt><trkpt lat="43.8081231" lon="11.6055307"><ele>998.1999999999999</ele><time>2026-04-26T15:32:04.04Z</time></trkpt><trkpt lat="43.8080831" lon="11.6053914"><ele>1000.8</ele><time>2026-04-26T15:32:06.039Z</time></trkpt><trkpt lat="43.8080301" lon="11.6052676"><ele>1003.4</ele><time>2026-04-26T15:32:08.04Z</time></trkpt><trkpt lat="43.8079555" lon="11.6051772"><ele>1006.0</ele><time>2026-04-26T15:32:10.031Z</time></trkpt><trkpt lat="43.8078699" lon="11.6051303"><ele>1006.0</ele><time>2026-04-26T15:32:12.036Z</time></trkpt><trkpt lat="43.8077785" lon="11.6051299"><ele>1005.9999999999999</ele><time>2026-04-26T15:32:14.039Z</time></trkpt><trkpt lat="43.8076739" lon="11.6051528"><ele>1005.9999999999999</ele><time>2026-04-26T15:32:16.04Z</time></trkpt><trkpt lat="43.8075863" lon="11.6051856"><ele>1006.0</ele><time>2026-04-26T15:32:18.039Z</time></trkpt><trkpt lat="43.8074984" lon="11.6052137"><ele>1006.0</ele><time>2026-04-26T15:32:20.036Z</time></trkpt><trkpt lat="43.8074155" lon="11.6052344"><ele>1004.6666666666666</ele><time>2026-04-26T15:32:22.049Z</time></trkpt><trkpt lat="43.8073328" lon="11.605268"><ele>1003.3333333333333</ele><time>2026-04-26T15:32:24.048Z</time></trkpt><trkpt lat="43.8072531" lon="11.6053132"><ele>1002.0</ele><time>2026-04-26T15:32:26.044Z</time></trkpt><trkpt lat="43.807182" lon="11.6053442"><ele>1000.6666666666667</ele><time>2026-04-26T15:32:28.043Z</time></trkpt><trkpt lat="43.8070963" lon="11.6053785"><ele>999.3333333333334</ele><time>2026-04-26T15:32:30.036Z</time></trkpt><trkpt lat="43.8070299" lon="11.6054259"><ele>998.0</ele><time>2026-04-26T15:32:32.04Z</time></trkpt><trkpt lat="43.8069556" lon="11.6054452"><ele>998.0000000000001</ele><time>2026-04-26T15:32:34.05Z</time></trkpt><trkpt lat="43.8068812" lon="11.6054359"><ele>998.0</ele><time>2026-04-26T15:32:36.04Z</time></trkpt><trkpt lat="43.8068114" lon="11.6054309"><ele>998.0000000000001</ele><time>2026-04-26T15:32:38.04Z</time></trkpt><trkpt lat="43.8067417" lon="11.6054227"><ele>998.0000000000001</ele><time>2026-04-26T15:32:40.042Z</time></trkpt><trkpt lat="43.8066754" lon="11.6054058"><ele>998.0</ele><time>2026-04-26T15:32:42.045Z</time></trkpt><trkpt lat="43.8066104" lon="11.6053753"><ele>998.0000000000001</ele><time>2026-04-26T15:32:44.038Z</time></trkpt><trkpt lat="43.8065368" lon="11.6053476"><ele>998.0000000000001</ele><time>2026-04-26T15:32:47.047Z</time></trkpt><trkpt lat="43.8064667" lon="11.6053264"><ele>997.1666666666667</ele><time>2026-04-26T15:32:50.035Z</time></trkpt><trkpt lat="43.8063954" lon="11.6053018"><ele>996.3333333333334</ele><time>2026-04-26T15:32:53.042Z</time></trkpt><trkpt lat="43.8063327" lon="11.6052752"><ele>995.5</ele><time>2026-04-26T15:32:55.054Z</time></trkpt><trkpt lat="43.8062543" lon="11.6052182"><ele>994.6666666666667</ele><time>2026-04-26T15:32:58.049Z</time></trkpt><trkpt lat="43.80619" lon="11.6052145"><ele>993.8333333333334</ele><time>2026-04-26T15:33:54.05Z</time></trkpt><trkpt lat="43.8061035" lon="11.6052039"><ele>993.0</ele><time>2026-04-26T15:33:57.042Z</time></trkpt><trkpt lat="43.8060334" lon="11.6051792"><ele>993.8333333333334</ele><time>2026-04-26T15:33:59.054Z</time></trkpt><trkpt lat="43.8059633" lon="11.6051491"><ele>994.6666666666667</ele><time>2026-04-26T15:34:01.043Z</time></trkpt><trkpt lat="43.805882" lon="11.6050906"><ele>995.5</ele><time>2026-04-26T15:34:04.041Z</time></trkpt><trkpt lat="43.8058184" lon="11.6050307"><ele>996.3333333333334</ele><time>2026-04-26T15:34:06.053Z</time></trkpt><trkpt lat="43.805767" lon="11.6049552"><ele>997.1666666666667</ele><time>2026-04-26T15:34:08.048Z</time></trkpt><trkpt lat="43.805713" lon="11.6048894"><ele>998.0</ele><time>2026-04-26T15:34:10.041Z</time></trkpt><trkpt lat="43.8056554" lon="11.6048418"><ele>998.0000000000001</ele><time>2026-04-26T15:34:12.042Z</time></trkpt><trkpt lat="43.8055907" lon="11.6047612"><ele>998.0</ele><time>2026-04-26T15:34:14.04Z</time></trkpt><trkpt lat="43.8055293" lon="11.604686"><ele>998.0</ele><time>2026-04-26T15:34:16.042Z</time></trkpt><trkpt lat="43.8054741" lon="11.6046076"><ele>998.0</ele><time>2026-04-26T15:34:18.035Z</time></trkpt><trkpt lat="43.8053914" lon="11.6045325"><ele>998.0000000000001</ele><time>2026-04-26T15:34:21.042Z</time></trkpt><trkpt lat="43.8053185" lon="11.6044636"><ele>998.0</ele><time>2026-04-26T15:34:23.051Z</time></trkpt><trkpt lat="43.8052765" lon="11.6043722"><ele>995.5999999999999</ele><time>2026-04-26T15:34:25.032Z</time></trkpt><trkpt lat="43.8052302" lon="11.6042704"><ele>993.1999999999999</ele><time>2026-04-26T15:34:27.042Z</time></trkpt><trkpt lat="43.8051911" lon="11.6041526"><ele>990.8</ele><time>2026-04-26T15:34:30.03Z</time></trkpt><trkpt lat="43.8051696" lon="11.604055"><ele>988.4</ele><time>2026-04-26T15:34:32.026Z</time></trkpt><trkpt lat="43.8051577" lon="11.6039384"><ele>986.0</ele><time>2026-04-26T15:34:34.037Z</time></trkpt><trkpt lat="43.8051457" lon="11.6037793"><ele>990.75</ele><time>2026-04-26T15:34:36.044Z</time></trkpt><trkpt lat="43.8051455" lon="11.6036083"><ele>995.5</ele><time>2026-04-26T15:34:38.025Z</time></trkpt><trkpt lat="43.8051416" lon="11.6034557"><ele>1000.25</ele><time>2026-04-26T15:34:40.037Z</time></trkpt><trkpt lat="43.8051065" lon="11.6033019"><ele>1005.0</ele><time>2026-04-26T15:34:42.039Z</time></trkpt><trkpt lat="43.8050543" lon="11.6031341"><ele>1005.0</ele><time>2026-04-26T15:34:44.052Z</time></trkpt><trkpt lat="43.8050214" lon="11.6030595"><ele>1005.0</ele><time>2026-04-26T15:34:45.035Z</time></trkpt><trkpt lat="43.8049847" lon="11.6029874"><ele>1005.0</ele><time>2026-04-26T15:34:46.035Z</time></trkpt><trkpt lat="43.8048971" lon="11.6028422"><ele>1005.0</ele><time>2026-04-26T15:34:48.033Z</time></trkpt><trkpt lat="43.8048404" lon="11.6027671"><ele>1005.0</ele><time>2026-04-26T15:34:49.04Z</time></trkpt><trkpt lat="43.8047839" lon="11.6027083"><ele>1005.0</ele><time>2026-04-26T15:34:50.051Z</time></trkpt><trkpt lat="43.8047184" lon="11.6026608"><ele>1005.2857142857144</ele><time>2026-04-26T15:34:51.105Z</time></trkpt><trkpt lat="43.8046503" lon="11.6026145"><ele>1005.5714285714287</ele><time>2026-04-26T15:34:52.103Z</time></trkpt><trkpt lat="43.8045784" lon="11.6025845"><ele>1005.8571428571429</ele><time>2026-04-26T15:34:53.081Z</time></trkpt><trkpt lat="43.8045158" lon="11.6025584"><ele>1006.1428571428572</ele><time>2026-04-26T15:34:54.089Z</time></trkpt><trkpt lat="43.8044428" lon="11.6025435"><ele>1006.4285714285716</ele><time>2026-04-26T15:34:55.083Z</time></trkpt><trkpt lat="43.8043718" lon="11.6025414"><ele>1006.7142857142857</ele><time>2026-04-26T15:34:56.081Z</time></trkpt><trkpt lat="43.8043001" lon="11.6025441"><ele>1007.0</ele><time>2026-04-26T15:34:57.08Z</time></trkpt><trkpt lat="43.8042265" lon="11.6025575"><ele>1007.0</ele><time>2026-04-26T15:34:58.099Z</time></trkpt><trkpt lat="43.8041546" lon="11.6025869"><ele>1007.0</ele><time>2026-04-26T15:34:59.088Z</time></trkpt><trkpt lat="43.804086" lon="11.6026059"><ele>1007.0</ele><time>2026-04-26T15:35:00.086Z</time></trkpt><trkpt lat="43.804016" lon="11.6026235"><ele>1007.0</ele><time>2026-04-26T15:35:01.088Z</time></trkpt><trkpt lat="43.80395" lon="11.6026462"><ele>1007.0</ele><time>2026-04-26T15:35:02.098Z</time></trkpt><trkpt lat="43.8038847" lon="11.6026535"><ele>1007.0</ele><time>2026-04-26T15:35:03.085Z</time></trkpt><trkpt lat="43.803809" lon="11.602624"><ele>1007.0</ele><time>2026-04-26T15:35:04.09Z</time></trkpt><trkpt lat="43.8037406" lon="11.6025863"><ele>1007.0</ele><time>2026-04-26T15:35:05.079Z</time></trkpt><trkpt lat="43.8036765" lon="11.6025394"><ele>1007.0</ele><time>2026-04-26T15:35:06.095Z</time></trkpt><trkpt lat="43.8036128" lon="11.6025016"><ele>1007.0</ele><time>2026-04-26T15:35:07.09Z</time></trkpt><trkpt lat="43.8035516" lon="11.6024615"><ele>1007.0</ele><time>2026-04-26T15:35:08.087Z</time></trkpt><trkpt lat="43.8034935" lon="11.6024128"><ele>1007.0</ele><time>2026-04-26T15:35:09.095Z</time></trkpt><trkpt lat="43.803443" lon="11.6023513"><ele>1007.0</ele><time>2026-04-26T15:35:10.081Z</time></trkpt><trkpt lat="43.8033946" lon="11.6022851"><ele>1007.0</ele><time>2026-04-26T15:35:11.086Z</time></trkpt><trkpt lat="43.8033232" lon="11.6021842"><ele>1008.4000000000001</ele><time>2026-04-26T15:35:13.092Z</time></trkpt><trkpt lat="43.8032654" lon="11.6020954"><ele>1009.8000000000001</ele><time>2026-04-26T15:35:15.089Z</time></trkpt><trkpt lat="43.803187" lon="11.6020377"><ele>1011.2</ele><time>2026-04-26T15:35:17.084Z</time></trkpt><trkpt lat="43.8030927" lon="11.6019952"><ele>1012.6</ele><time>2026-04-26T15:35:19.082Z</time></trkpt><trkpt lat="43.8030039" lon="11.6020158"><ele>1014.0</ele><time>2026-04-26T15:35:21.084Z</time></trkpt><trkpt lat="43.8029054" lon="11.6020299"><ele>1014.0</ele><time>2026-04-26T15:35:23.072Z</time></trkpt><trkpt lat="43.8028081" lon="11.6020571"><ele>1014.0000000000001</ele><time>2026-04-26T15:35:25.087Z</time></trkpt><trkpt lat="43.8027246" lon="11.6020862"><ele>1014.0000000000001</ele><time>2026-04-26T15:35:27.085Z</time></trkpt><trkpt lat="43.8026499" lon="11.6021283"><ele>1014.0</ele><time>2026-04-26T15:35:29.084Z</time></trkpt><trkpt lat="43.8025543" lon="11.6021818"><ele>1014.0</ele><time>2026-04-26T15:35:31.081Z</time></trkpt><trkpt lat="43.8024705" lon="11.6022843"><ele>1013.0</ele><time>2026-04-26T15:35:33.087Z</time></trkpt><trkpt lat="43.8023824" lon="11.6023894"><ele>1012.0000000000001</ele><time>2026-04-26T15:35:35.076Z</time></trkpt><trkpt lat="43.8022818" lon="11.6024566"><ele>1011.0000000000001</ele><time>2026-04-26T15:35:37.099Z</time></trkpt><trkpt lat="43.8022107" lon="11.6025195"><ele>1010.0</ele><time>2026-04-26T15:35:39.084Z</time></trkpt><trkpt lat="43.8021428" lon="11.6025869"><ele>1009.0</ele><time>2026-04-26T15:35:41.076Z</time></trkpt><trkpt lat="43.8020814" lon="11.6026556"><ele>1008.9999999999999</ele><time>2026-04-26T15:35:43.091Z</time></trkpt><trkpt lat="43.8020185" lon="11.6027202"><ele>1009.0</ele><time>2026-04-26T15:35:45.092Z</time></trkpt><trkpt lat="43.8019558" lon="11.6027754"><ele>1009.0</ele><time>2026-04-26T15:35:47.086Z</time></trkpt><trkpt lat="43.8018956" lon="11.602849"><ele>1009.0</ele><time>2026-04-26T15:35:49.082Z</time></trkpt><trkpt lat="43.8018306" lon="11.6029298"><ele>1008.9999999999999</ele><time>2026-04-26T15:35:51.076Z</time></trkpt><trkpt lat="43.8017594" lon="11.6030225"><ele>1009.0</ele><time>2026-04-26T15:35:53.088Z</time></trkpt><trkpt lat="43.8017108" lon="11.6031384"><ele>1009.0</ele><time>2026-04-26T15:35:55.072Z</time></trkpt><trkpt lat="43.8016885" lon="11.6032719"><ele>1009.0000000000001</ele><time>2026-04-26T15:35:57.087Z</time></trkpt><trkpt lat="43.801659" lon="11.603412"><ele>1009.0000000000001</ele><time>2026-04-26T15:35:59.078Z</time></trkpt><trkpt lat="43.8016054" lon="11.6035211"><ele>1009.0</ele><time>2026-04-26T15:36:01.077Z</time></trkpt><trkpt lat="43.8015636" lon="11.6036424"><ele>1009.0</ele><time>2026-04-26T15:36:03.088Z</time></trkpt><trkpt lat="43.801498" lon="11.6037744"><ele>1008.9999999999999</ele><time>2026-04-26T15:36:05.082Z</time></trkpt><trkpt lat="43.8014287" lon="11.6039029"><ele>1009.0</ele><time>2026-04-26T15:36:07.077Z</time></trkpt><trkpt lat="43.8013523" lon="11.6040239"><ele>1009.0</ele><time>2026-04-26T15:36:09.085Z</time></trkpt><trkpt lat="43.8013005" lon="11.6040829"><ele>1009.0</ele><time>2026-04-26T15:36:10.095Z</time></trkpt><trkpt lat="43.8012602" lon="11.6041507"><ele>1008.9999999999999</ele><time>2026-04-26T15:36:11.08Z</time></trkpt><trkpt lat="43.801218" lon="11.6042178"><ele>1009.0</ele><time>2026-04-26T15:36:12.085Z</time></trkpt><trkpt lat="43.801177" lon="11.604286"><ele>1009.0</ele><time>2026-04-26T15:36:13.077Z</time></trkpt><trkpt lat="43.8010826" lon="11.6043978"><ele>1009.0</ele><time>2026-04-26T15:36:15.086Z</time></trkpt><trkpt lat="43.8009782" lon="11.6044921"><ele>1009.0</ele><time>2026-04-26T15:36:17.088Z</time></trkpt><trkpt lat="43.8008836" lon="11.6045892"><ele>1009.0</ele><time>2026-04-26T15:36:19.078Z</time></trkpt><trkpt lat="43.8007947" lon="11.604686"><ele>1005.2</ele><time>2026-04-26T15:36:21.086Z</time></trkpt><trkpt lat="43.8006872" lon="11.6047075"><ele>1001.4000000000001</ele><time>2026-04-26T15:36:23.085Z</time></trkpt><trkpt lat="43.8005822" lon="11.6046539"><ele>997.6</ele><time>2026-04-26T15:36:25.095Z</time></trkpt><trkpt lat="43.8004969" lon="11.604598"><ele>993.8</ele><time>2026-04-26T15:36:27.08Z</time></trkpt><trkpt lat="43.8004267" lon="11.6045589"><ele>990.0</ele><time>2026-04-26T15:36:29.087Z</time></trkpt><trkpt lat="43.8003608" lon="11.6045138"><ele>989.8</ele><time>2026-04-26T15:36:31.086Z</time></trkpt><trkpt lat="43.8002858" lon="11.6044698"><ele>989.6</ele><time>2026-04-26T15:36:33.082Z</time></trkpt><trkpt lat="43.800207" lon="11.6044026"><ele>989.4000000000001</ele><time>2026-04-26T15:36:35.083Z</time></trkpt><trkpt lat="43.800133" lon="11.6043295"><ele>989.2</ele><time>2026-04-26T15:36:37.084Z</time></trkpt><trkpt lat="43.8000586" lon="11.6042397"><ele>989.0</ele><time>2026-04-26T15:36:39.088Z</time></trkpt><trkpt lat="43.7999819" lon="11.6041537"><ele>989.0</ele><time>2026-04-26T15:36:41.076Z</time></trkpt><trkpt lat="43.7998944" lon="11.6041017"><ele>989.0000000000001</ele><time>2026-04-26T15:36:43.086Z</time></trkpt><trkpt lat="43.7997789" lon="11.6040535"><ele>989.0000000000001</ele><time>2026-04-26T15:36:45.091Z</time></trkpt><trkpt lat="43.7996546" lon="11.6040537"><ele>989.0</ele><time>2026-04-26T15:36:47.088Z</time></trkpt><trkpt lat="43.7995925" lon="11.6040768"><ele>989.0</ele><time>2026-04-26T15:36:48.083Z</time></trkpt><trkpt lat="43.7994787" lon="11.6040853"><ele>989.0</ele><time>2026-04-26T15:36:50.082Z</time></trkpt><trkpt lat="43.7993688" lon="11.6041009"><ele>989.0</ele><time>2026-04-26T15:36:52.101Z</time></trkpt><trkpt lat="43.7992555" lon="11.6040893"><ele>989.0</ele><time>2026-04-26T15:36:54.096Z</time></trkpt><trkpt lat="43.7991419" lon="11.604087"><ele>989.0</ele><time>2026-04-26T15:36:56.085Z</time></trkpt><trkpt lat="43.7990225" lon="11.6040644"><ele>989.8333333333334</ele><time>2026-04-26T15:36:58.083Z</time></trkpt><trkpt lat="43.7989142" lon="11.604019"><ele>990.6666666666667</ele><time>2026-04-26T15:37:00.101Z</time></trkpt><trkpt lat="43.798801" lon="11.6039716"><ele>991.5</ele><time>2026-04-26T15:37:02.099Z</time></trkpt><trkpt lat="43.7987391" lon="11.6039441"><ele>992.3333333333333</ele><time>2026-04-26T15:37:03.097Z</time></trkpt><trkpt lat="43.7986766" lon="11.6039148"><ele>993.1666666666666</ele><time>2026-04-26T15:37:04.099Z</time></trkpt><trkpt lat="43.7986131" lon="11.6038824"><ele>994.0</ele><time>2026-04-26T15:37:05.097Z</time></trkpt><trkpt lat="43.7984948" lon="11.603832"><ele>994.0</ele><time>2026-04-26T15:37:07.095Z</time></trkpt><trkpt lat="43.7984321" lon="11.6038145"><ele>994.0000000000001</ele><time>2026-04-26T15:37:08.096Z</time></trkpt><trkpt lat="43.7983197" lon="11.6037595"><ele>994.0000000000001</ele><time>2026-04-26T15:37:10.101Z</time></trkpt><trkpt lat="43.7982503" lon="11.6036916"><ele>994.0</ele><time>2026-04-26T15:37:12.095Z</time></trkpt><trkpt lat="43.7981938" lon="11.6035999"><ele>994.0</ele><time>2026-04-26T15:37:14.099Z</time></trkpt><trkpt lat="43.7981193" lon="11.6034722"><ele>994.0</ele><time>2026-04-26T15:37:16.103Z</time></trkpt><trkpt lat="43.7980314" lon="11.6033841"><ele>994.0000000000001</ele><time>2026-04-26T15:37:18.095Z</time></trkpt><trkpt lat="43.7979387" lon="11.6032862"><ele>994.0000000000001</ele><time>2026-04-26T15:37:20.098Z</time></trkpt><trkpt lat="43.7978637" lon="11.6031824"><ele>994.0</ele><time>2026-04-26T15:37:22.099Z</time></trkpt><trkpt lat="43.7977796" lon="11.6031288"><ele>994.0</ele><time>2026-04-26T15:37:24.094Z</time></trkpt><trkpt lat="43.7976831" lon="11.6031466"><ele>992.1666666666666</ele><time>2026-04-26T15:37:26.091Z</time></trkpt><trkpt lat="43.7975923" lon="11.6032194"><ele>990.3333333333333</ele><time>2026-04-26T15:37:28.094Z</time></trkpt><trkpt lat="43.7975382" lon="11.6032747"><ele>988.5</ele><time>2026-04-26T15:37:30.094Z</time></trkpt><trkpt lat="43.7974551" lon="11.6033153"><ele>986.6666666666667</ele><time>2026-04-26T15:37:36.087Z</time></trkpt><trkpt lat="43.7973621" lon="11.6033217"><ele>984.8333333333334</ele><time>2026-04-26T15:37:39.097Z</time></trkpt><trkpt lat="43.7972719" lon="11.603353"><ele>983.0</ele><time>2026-04-26T15:37:42.104Z</time></trkpt><trkpt lat="43.7971846" lon="11.6033796"><ele>982.9999999999999</ele><time>2026-04-26T15:37:45.089Z</time></trkpt><trkpt lat="43.7971131" lon="11.6034136"><ele>983.0</ele><time>2026-04-26T15:37:48.085Z</time></trkpt><trkpt lat="43.7970525" lon="11.6034498"><ele>982.9999999999999</ele><time>2026-04-26T15:37:51.091Z</time></trkpt><trkpt lat="43.7969912" lon="11.6034891"><ele>982.9999999999999</ele><time>2026-04-26T15:37:54.093Z</time></trkpt><trkpt lat="43.7969234" lon="11.6035469"><ele>983.0</ele><time>2026-04-26T15:37:58.095Z</time></trkpt><trkpt lat="43.7968483" lon="11.6035726"><ele>982.9999999999999</ele><time>2026-04-26T15:38:02.095Z</time></trkpt><trkpt lat="43.796782" lon="11.6036246"><ele>982.9999999999999</ele><time>2026-04-26T15:38:06.092Z</time></trkpt><trkpt lat="43.7967216" lon="11.6036604"><ele>984.3333333333334</ele><time>2026-04-26T15:38:09.093Z</time></trkpt><trkpt lat="43.7966689" lon="11.6037159"><ele>985.6666666666667</ele><time>2026-04-26T15:38:12.093Z</time></trkpt><trkpt lat="43.7966175" lon="11.6037721"><ele>987.0</ele><time>2026-04-26T15:38:15.093Z</time></trkpt><trkpt lat="43.7965601" lon="11.603829"><ele>988.3333333333333</ele><time>2026-04-26T15:38:18.101Z</time></trkpt><trkpt lat="43.7964908" lon="11.603902"><ele>989.6666666666666</ele><time>2026-04-26T15:38:21.095Z</time></trkpt><trkpt lat="43.7964201" lon="11.6039826"><ele>991.0</ele><time>2026-04-26T15:38:24.101Z</time></trkpt><trkpt lat="43.7963486" lon="11.6040428"><ele>990.9999999999999</ele><time>2026-04-26T15:38:27.099Z</time></trkpt><trkpt lat="43.796275" lon="11.6041034"><ele>991.0</ele><time>2026-04-26T15:38:30.09Z</time></trkpt><trkpt lat="43.7961991" lon="11.6041424"><ele>991.0</ele><time>2026-04-26T15:38:33.101Z</time></trkpt><trkpt lat="43.7961163" lon="11.6041257"><ele>991.0</ele><time>2026-04-26T15:38:36.081Z</time></trkpt><trkpt lat="43.7960528" lon="11.604071"><ele>990.9999999999999</ele><time>2026-04-26T15:38:39.095Z</time></trkpt><trkpt lat="43.7959948" lon="11.6039957"><ele>991.0</ele><time>2026-04-26T15:38:42.09Z</time></trkpt><trkpt lat="43.7959306" lon="11.6039362"><ele>991.3333333333333</ele><time>2026-04-26T15:38:46.097Z</time></trkpt><trkpt lat="43.795867" lon="11.6038488"><ele>991.6666666666666</ele><time>2026-04-26T15:38:50.094Z</time></trkpt><trkpt lat="43.7958172" lon="11.6037726"><ele>992.0</ele><time>2026-04-26T15:38:53.089Z</time></trkpt><trkpt lat="43.7957556" lon="11.603707"><ele>992.3333333333333</ele><time>2026-04-26T15:38:56.106Z</time></trkpt><trkpt lat="43.7956954" lon="11.6036484"><ele>992.6666666666666</ele><time>2026-04-26T15:38:59.095Z</time></trkpt><trkpt lat="43.7956283" lon="11.6035856"><ele>993.0</ele><time>2026-04-26T15:39:02.099Z</time></trkpt><trkpt lat="43.7955628" lon="11.6035105"><ele>993.0</ele><time>2026-04-26T15:39:05.084Z</time></trkpt><trkpt lat="43.795503" lon="11.6034545"><ele>993.0</ele><time>2026-04-26T15:39:08.092Z</time></trkpt><trkpt lat="43.7954372" lon="11.6033857"><ele>993.0</ele><time>2026-04-26T15:39:11.107Z</time></trkpt><trkpt lat="43.7953722" lon="11.6033201"><ele>993.0</ele><time>2026-04-26T15:39:15.106Z</time></trkpt><trkpt lat="43.7953123" lon="11.6032864"><ele>993.0</ele><time>2026-04-26T15:39:18.099Z</time></trkpt><trkpt lat="43.7952526" lon="11.6032443"><ele>993.0</ele><time>2026-04-26T15:39:21.093Z</time></trkpt><trkpt lat="43.7951846" lon="11.6032056"><ele>993.0</ele><time>2026-04-26T15:39:24.092Z</time></trkpt><trkpt lat="43.7951142" lon="11.6031862"><ele>994.3333333333334</ele><time>2026-04-26T15:39:27.098Z</time></trkpt><trkpt lat="43.7950391" lon="11.6031774"><ele>995.6666666666667</ele><time>2026-04-26T15:39:30.09Z</time></trkpt><trkpt lat="43.7949601" lon="11.6031614"><ele>997.0</ele><time>2026-04-26T15:39:33.1Z</time></trkpt><trkpt lat="43.7948814" lon="11.6031272"><ele>998.3333333333334</ele><time>2026-04-26T15:39:36.089Z</time></trkpt><trkpt lat="43.7948107" lon="11.6030571"><ele>999.6666666666667</ele><time>2026-04-26T15:39:39.09Z</time></trkpt><trkpt lat="43.7947371" lon="11.6029911"><ele>1001.0</ele><time>2026-04-26T15:39:42.098Z</time></trkpt><trkpt lat="43.7946717" lon="11.6029504"><ele>1001.0000000000001</ele><time>2026-04-26T15:39:45.09Z</time></trkpt><trkpt lat="43.7945983" lon="11.6028967"><ele>1001.0</ele><time>2026-04-26T15:39:50.09Z</time></trkpt><trkpt lat="43.7945338" lon="11.6028662"><ele>1001.0</ele><time>2026-04-26T15:39:53.09Z</time></trkpt><trkpt lat="43.7944635" lon="11.6028129"><ele>1001.0</ele><time>2026-04-26T15:39:57.098Z</time></trkpt><trkpt lat="43.7943846" lon="11.602781"><ele>1001.0000000000001</ele><time>2026-04-26T15:40:01.098Z</time></trkpt><trkpt lat="43.7943329" lon="11.6027277"><ele>1001.0</ele><time>2026-04-26T15:40:04.092Z</time></trkpt><trkpt lat="43.7942741" lon="11.6026498"><ele>1004.5000000000001</ele><time>2026-04-26T15:40:07.089Z</time></trkpt><trkpt lat="43.794225" lon="11.6025893"><ele>1008.0</ele><time>2026-04-26T15:40:10.091Z</time></trkpt><trkpt lat="43.7941697" lon="11.6025429"><ele>1011.5</ele><time>2026-04-26T15:40:12.086Z</time></trkpt><trkpt lat="43.7940859" lon="11.6025023"><ele>1015.0</ele><time>2026-04-26T15:40:16.096Z</time></trkpt><trkpt lat="43.7940123" lon="11.6024722"><ele>1018.5000000000001</ele><time>2026-04-26T15:40:19.088Z</time></trkpt><trkpt lat="43.7939456" lon="11.6024205"><ele>1022.0</ele><time>2026-04-26T15:40:23.089Z</time></trkpt><trkpt lat="43.7938763" lon="11.6023698"><ele>1022.0</ele><time>2026-04-26T15:40:26.088Z</time></trkpt><trkpt lat="43.7938144" lon="11.6023398"><ele>1022.0</ele><time>2026-04-26T15:40:29.101Z</time></trkpt><trkpt lat="43.7937505" lon="11.6023023"><ele>1022.0</ele><time>2026-04-26T15:40:33.095Z</time></trkpt><trkpt lat="43.7936764" lon="11.602297"><ele>1022.0</ele><time>2026-04-26T15:40:38.093Z</time></trkpt><trkpt lat="43.793596" lon="11.602303"><ele>1022.0</ele><time>2026-04-26T15:40:41.081Z</time></trkpt><trkpt lat="43.7935208" lon="11.6022937"><ele>1022.0</ele><time>2026-04-26T15:40:44.079Z</time></trkpt><trkpt lat="43.7934464" lon="11.602271"><ele>1022.0</ele><time>2026-04-26T15:40:47.086Z</time></trkpt><trkpt lat="43.7933673" lon="11.602259"><ele>1026.0</ele><time>2026-04-26T15:40:50.11Z</time></trkpt><trkpt lat="43.7933016" lon="11.6022341"><ele>1030.0</ele><time>2026-04-26T15:40:54.093Z</time></trkpt><trkpt lat="43.7932238" lon="11.6022391"><ele>1034.0</ele><time>2026-04-26T15:40:58.095Z</time></trkpt><trkpt lat="43.793148" lon="11.6022761"><ele>1038.0</ele><time>2026-04-26T15:41:03.099Z</time></trkpt><trkpt lat="43.793084" lon="11.6022584"><ele>1042.0</ele><time>2026-04-26T15:41:06.085Z</time></trkpt><trkpt lat="43.7930191" lon="11.6022607"><ele>1046.0</ele><time>2026-04-26T15:41:09.079Z</time></trkpt><trkpt lat="43.7929438" lon="11.6022792"><ele>1050.0</ele><time>2026-04-26T15:41:12.095Z</time></trkpt><trkpt lat="43.7928677" lon="11.602269"><ele>1050.0</ele><time>2026-04-26T15:43:01.101Z</time></trkpt><trkpt lat="43.7928068" lon="11.6022408"><ele>1050.0</ele><time>2026-04-26T15:43:04.098Z</time></trkpt><trkpt lat="43.7927244" lon="11.602243"><ele>1050.0</ele><time>2026-04-26T15:43:08.1Z</time></trkpt><trkpt lat="43.7926469" lon="11.6022393"><ele>1050.0</ele><time>2026-04-26T15:43:11.091Z</time></trkpt><trkpt lat="43.7925755" lon="11.6022309"><ele>1050.0</ele><time>2026-04-26T15:43:14.086Z</time></trkpt><trkpt lat="43.7924822" lon="11.6022295"><ele>1050.0</ele><time>2026-04-26T15:43:17.094Z</time></trkpt><trkpt lat="43.7924129" lon="11.6022365"><ele>1052.0</ele><time>2026-04-26T15:43:19.086Z</time></trkpt><trkpt lat="43.7923478" lon="11.6022191"><ele>1054.0</ele><time>2026-04-26T15:43:21.096Z</time></trkpt><trkpt lat="43.7922766" lon="11.6022048"><ele>1056.0</ele><time>2026-04-26T15:43:23.117Z</time></trkpt><trkpt lat="43.7921908" lon="11.6022129"><ele>1058.0</ele><time>2026-04-26T15:43:26.085Z</time></trkpt><trkpt lat="43.7921254" lon="11.602208"><ele>1060.0</ele><time>2026-04-26T15:43:28.1Z</time></trkpt><trkpt lat="43.7920404" lon="11.6021984"><ele>1062.0</ele><time>2026-04-26T15:43:31.087Z</time></trkpt><trkpt lat="43.7919679" lon="11.602182"><ele>1064.0</ele><time>2026-04-26T15:43:33.093Z</time></trkpt><trkpt lat="43.7919031" lon="11.6021663"><ele>1065.5</ele><time>2026-04-26T15:43:35.086Z</time></trkpt><trkpt lat="43.7918342" lon="11.6021697"><ele>1067.0</ele><time>2026-04-26T15:43:38.085Z</time></trkpt><trkpt lat="43.7917638" lon="11.6021504"><ele>1068.5</ele><time>2026-04-26T15:43:41.085Z</time></trkpt><trkpt lat="43.7916808" lon="11.6021336"><ele>1070.0</ele><time>2026-04-26T15:43:44.094Z</time></trkpt><trkpt lat="43.791606" lon="11.6021352"><ele>1071.5</ele><time>2026-04-26T15:43:47.079Z</time></trkpt><trkpt lat="43.7915123" lon="11.6021374"><ele>1073.0</ele><time>2026-04-26T15:43:50.091Z</time></trkpt><trkpt lat="43.7914279" lon="11.6021302"><ele>1073.0</ele><time>2026-04-26T15:43:52.106Z</time></trkpt><trkpt lat="43.7913581" lon="11.6021058"><ele>1073.0</ele><time>2026-04-26T15:43:54.088Z</time></trkpt><trkpt lat="43.7912751" lon="11.6021009"><ele>1073.0</ele><time>2026-04-26T15:43:56.091Z</time></trkpt><trkpt lat="43.7911932" lon="11.6021031"><ele>1073.0</ele><time>2026-04-26T15:43:58.091Z</time></trkpt><trkpt lat="43.7911035" lon="11.6021104"><ele>1073.0</ele><time>2026-04-26T15:44:00.088Z</time></trkpt><trkpt lat="43.7910197" lon="11.6021584"><ele>1073.0</ele><time>2026-04-26T15:44:02.098Z</time></trkpt><trkpt lat="43.7909288" lon="11.602198"><ele>1074.3333333333335</ele><time>2026-04-26T15:44:04.088Z</time></trkpt><trkpt lat="43.7908149" lon="11.6022524"><ele>1075.6666666666667</ele><time>2026-04-26T15:44:06.086Z</time></trkpt><trkpt lat="43.7907429" lon="11.6023154"><ele>1077.0</ele><time>2026-04-26T15:44:08.096Z</time></trkpt><trkpt lat="43.7906813" lon="11.6023831"><ele>1078.3333333333333</ele><time>2026-04-26T15:44:10.083Z</time></trkpt><trkpt lat="43.7906267" lon="11.6024448"><ele>1079.6666666666665</ele><time>2026-04-26T15:44:12.098Z</time></trkpt><trkpt lat="43.7905502" lon="11.602519"><ele>1081.0</ele><time>2026-04-26T15:44:15.084Z</time></trkpt><trkpt lat="43.7904923" lon="11.6025986"><ele>1081.0</ele><time>2026-04-26T15:44:18.085Z</time></trkpt><trkpt lat="43.7904295" lon="11.6026589"><ele>1081.0</ele><time>2026-04-26T15:44:22.095Z</time></trkpt><trkpt lat="43.7903535" lon="11.6026929"><ele>1081.0</ele><time>2026-04-26T15:44:26.084Z</time></trkpt><trkpt lat="43.7903047" lon="11.6027713"><ele>1081.0</ele><time>2026-04-26T15:44:29.103Z</time></trkpt><trkpt lat="43.7902743" lon="11.6028593"><ele>1081.0</ele><time>2026-04-26T15:44:32.094Z</time></trkpt><trkpt lat="43.7902342" lon="11.6029284"><ele>1081.0</ele><time>2026-04-26T15:44:35.092Z</time></trkpt><trkpt lat="43.7901731" lon="11.6030402"><ele>1081.6666666666665</ele><time>2026-04-26T15:44:38.093Z</time></trkpt><trkpt lat="43.7901086" lon="11.6030743"><ele>1082.3333333333333</ele><time>2026-04-26T15:44:40.103Z</time></trkpt><trkpt lat="43.7900419" lon="11.6031284"><ele>1083.0</ele><time>2026-04-26T15:44:42.092Z</time></trkpt><trkpt lat="43.7899781" lon="11.603181"><ele>1083.6666666666667</ele><time>2026-04-26T15:44:44.083Z</time></trkpt><trkpt lat="43.7899051" lon="11.6032444"><ele>1084.3333333333335</ele><time>2026-04-26T15:44:46.079Z</time></trkpt><trkpt lat="43.7898302" lon="11.6032972"><ele>1085.0</ele><time>2026-04-26T15:44:48.09Z</time></trkpt><trkpt lat="43.7897477" lon="11.6033466"><ele>1085.0</ele><time>2026-04-26T15:44:50.089Z</time></trkpt><trkpt lat="43.7896686" lon="11.6034016"><ele>1085.0</ele><time>2026-04-26T15:44:52.08Z</time></trkpt><trkpt lat="43.7896014" lon="11.6034446"><ele>1085.0</ele><time>2026-04-26T15:44:54.087Z</time></trkpt><trkpt lat="43.7895374" lon="11.603488"><ele>1085.0</ele><time>2026-04-26T15:44:56.084Z</time></trkpt><trkpt lat="43.7894734" lon="11.6035206"><ele>1085.0</ele><time>2026-04-26T15:44:58.091Z</time></trkpt><trkpt lat="43.7893889" lon="11.6035654"><ele>1085.0</ele><time>2026-04-26T15:45:00.092Z</time></trkpt><trkpt lat="43.7893153" lon="11.6036002"><ele>1084.1666666666667</ele><time>2026-04-26T15:45:02.091Z</time></trkpt><trkpt lat="43.7892437" lon="11.6036612"><ele>1083.3333333333335</ele><time>2026-04-26T15:45:04.082Z</time></trkpt><trkpt lat="43.789163" lon="11.603725"><ele>1082.5</ele><time>2026-04-26T15:45:06.095Z</time></trkpt><trkpt lat="43.7890828" lon="11.6037634"><ele>1081.6666666666667</ele><time>2026-04-26T15:45:08.088Z</time></trkpt><trkpt lat="43.7890088" lon="11.6038049"><ele>1080.8333333333333</ele><time>2026-04-26T15:45:10.083Z</time></trkpt><trkpt lat="43.788945" lon="11.6038356"><ele>1080.0</ele><time>2026-04-26T15:45:12.089Z</time></trkpt><trkpt lat="43.7888623" lon="11.6038337"><ele>1080.0</ele><time>2026-04-26T15:45:15.089Z</time></trkpt><trkpt lat="43.7887852" lon="11.6037922"><ele>1080.0</ele><time>2026-04-26T15:45:18.084Z</time></trkpt><trkpt lat="43.7887188" lon="11.6037754"><ele>1080.0</ele><time>2026-04-26T15:45:20.083Z</time></trkpt><trkpt lat="43.7886435" lon="11.603765"><ele>1080.0</ele><time>2026-04-26T15:45:22.084Z</time></trkpt><trkpt lat="43.7885741" lon="11.6037561"><ele>1080.0</ele><time>2026-04-26T15:45:24.086Z</time></trkpt><trkpt lat="43.7884974" lon="11.6037372"><ele>1080.0</ele><time>2026-04-26T15:45:26.083Z</time></trkpt><trkpt lat="43.7884139" lon="11.6037125"><ele>1079.8333333333333</ele><time>2026-04-26T15:45:29.082Z</time></trkpt><trkpt lat="43.7883123" lon="11.603704"><ele>1079.6666666666667</ele><time>2026-04-26T15:45:32.081Z</time></trkpt><trkpt lat="43.7882346" lon="11.6036975"><ele>1079.5</ele><time>2026-04-26T15:45:34.095Z</time></trkpt><trkpt lat="43.7881462" lon="11.6036918"><ele>1079.3333333333335</ele><time>2026-04-26T15:45:36.081Z</time></trkpt><trkpt lat="43.7880572" lon="11.6036765"><ele>1079.1666666666667</ele><time>2026-04-26T15:45:38.093Z</time></trkpt><trkpt lat="43.7879729" lon="11.6036602"><ele>1079.0</ele><time>2026-04-26T15:45:40.094Z</time></trkpt><trkpt lat="43.787894" lon="11.6036333"><ele>1079.0</ele><time>2026-04-26T15:45:42.087Z</time></trkpt><trkpt lat="43.7878222" lon="11.6036183"><ele>1079.0</ele><time>2026-04-26T15:45:44.079Z</time></trkpt><trkpt lat="43.7877546" lon="11.6035957"><ele>1079.0</ele><time>2026-04-26T15:45:46.101Z</time></trkpt><trkpt lat="43.7876732" lon="11.603581"><ele>1079.0</ele><time>2026-04-26T15:45:48.084Z</time></trkpt><trkpt lat="43.7875923" lon="11.6035623"><ele>1079.0</ele><time>2026-04-26T15:45:50.09Z</time></trkpt><trkpt lat="43.7875127" lon="11.6035556"><ele>1079.0</ele><time>2026-04-26T15:45:52.092Z</time></trkpt><trkpt lat="43.7874259" lon="11.6035212"><ele>1080.0</ele><time>2026-04-26T15:45:54.098Z</time></trkpt><trkpt lat="43.7873398" lon="11.6034948"><ele>1081.0</ele><time>2026-04-26T15:45:56.091Z</time></trkpt><trkpt lat="43.7872559" lon="11.6034803"><ele>1082.0</ele><time>2026-04-26T15:45:58.079Z</time></trkpt><trkpt lat="43.7871763" lon="11.6034701"><ele>1083.0</ele><time>2026-04-26T15:46:00.094Z</time></trkpt><trkpt lat="43.7870978" lon="11.6034514"><ele>1084.0</ele><time>2026-04-26T15:46:02.091Z</time></trkpt><trkpt lat="43.7870116" lon="11.603442"><ele>1085.0</ele><time>2026-04-26T15:46:04.086Z</time></trkpt><trkpt lat="43.786926" lon="11.6034237"><ele>1085.0</ele><time>2026-04-26T15:46:06.097Z</time></trkpt><trkpt lat="43.7868468" lon="11.6034024"><ele>1085.0</ele><time>2026-04-26T15:46:08.087Z</time></trkpt><trkpt lat="43.7867657" lon="11.6033764"><ele>1085.0</ele><time>2026-04-26T15:46:10.081Z</time></trkpt><trkpt lat="43.7866782" lon="11.6033498"><ele>1085.0</ele><time>2026-04-26T15:46:12.091Z</time></trkpt><trkpt lat="43.7865921" lon="11.6033254"><ele>1085.0</ele><time>2026-04-26T15:46:14.085Z</time></trkpt><trkpt lat="43.7865018" lon="11.6033019"><ele>1085.0</ele><time>2026-04-26T15:46:16.08Z</time></trkpt><trkpt lat="43.786422" lon="11.6032868"><ele>1083.5</ele><time>2026-04-26T15:46:18.088Z</time></trkpt><trkpt lat="43.7863422" lon="11.6032766"><ele>1082.0</ele><time>2026-04-26T15:46:20.098Z</time></trkpt><trkpt lat="43.7862684" lon="11.6032457"><ele>1080.5</ele><time>2026-04-26T15:46:22.084Z</time></trkpt><trkpt lat="43.7861934" lon="11.6032156"><ele>1079.0</ele><time>2026-04-26T15:46:24.082Z</time></trkpt><trkpt lat="43.7861203" lon="11.603194"><ele>1077.5</ele><time>2026-04-26T15:46:26.097Z</time></trkpt><trkpt lat="43.7860252" lon="11.6031896"><ele>1076.0</ele><time>2026-04-26T15:46:29.088Z</time></trkpt><trkpt lat="43.7859675" lon="11.603139"><ele>1075.3333333333335</ele><time>2026-04-26T15:46:31.087Z</time></trkpt><trkpt lat="43.7859089" lon="11.6031052"><ele>1074.6666666666667</ele><time>2026-04-26T15:46:33.086Z</time></trkpt><trkpt lat="43.785823" lon="11.6030603"><ele>1074.0</ele><time>2026-04-26T15:46:35.088Z</time></trkpt><trkpt lat="43.7857395" lon="11.603024"><ele>1073.3333333333333</ele><time>2026-04-26T15:46:37.084Z</time></trkpt><trkpt lat="43.7856659" lon="11.6029743"><ele>1072.6666666666665</ele><time>2026-04-26T15:46:39.083Z</time></trkpt><trkpt lat="43.7855795" lon="11.6029273"><ele>1072.0</ele><time>2026-04-26T15:46:41.081Z</time></trkpt><trkpt lat="43.7854822" lon="11.6028846"><ele>1072.0</ele><time>2026-04-26T15:46:43.095Z</time></trkpt><trkpt lat="43.7854" lon="11.6028439"><ele>1072.0</ele><time>2026-04-26T15:46:45.083Z</time></trkpt><trkpt lat="43.7853183" lon="11.6027969"><ele>1072.0</ele><time>2026-04-26T15:46:47.098Z</time></trkpt><trkpt lat="43.785222" lon="11.6027816"><ele>1072.0</ele><time>2026-04-26T15:46:49.095Z</time></trkpt><trkpt lat="43.785135" lon="11.6027369"><ele>1072.0</ele><time>2026-04-26T15:46:51.086Z</time></trkpt><trkpt lat="43.785042" lon="11.6027135"><ele>1072.5</ele><time>2026-04-26T15:46:53.094Z</time></trkpt><trkpt lat="43.7849528" lon="11.6026825"><ele>1073.0</ele><time>2026-04-26T15:46:55.093Z</time></trkpt><trkpt lat="43.784874" lon="11.6026331"><ele>1073.5</ele><time>2026-04-26T15:46:57.085Z</time></trkpt><trkpt lat="43.7848214" lon="11.6025511"><ele>1074.0</ele><time>2026-04-26T15:46:59.079Z</time></trkpt><trkpt lat="43.7847722" lon="11.602461"><ele>1074.5</ele><time>2026-04-26T15:47:01.092Z</time></trkpt><trkpt lat="43.7847322" lon="11.6023783"><ele>1075.0</ele><time>2026-04-26T15:47:03.097Z</time></trkpt><trkpt lat="43.7846956" lon="11.6022731"><ele>1075.0</ele><time>2026-04-26T15:47:05.089Z</time></trkpt><trkpt lat="43.7846421" lon="11.6021911"><ele>1075.0</ele><time>2026-04-26T15:47:07.084Z</time></trkpt><trkpt lat="43.7845956" lon="11.6021048"><ele>1075.0</ele><time>2026-04-26T15:47:09.084Z</time></trkpt><trkpt lat="43.7845504" lon="11.6020363"><ele>1075.0</ele><time>2026-04-26T15:47:11.101Z</time></trkpt><trkpt lat="43.7845022" lon="11.6019597"><ele>1075.0</ele><time>2026-04-26T15:47:13.105Z</time></trkpt><trkpt lat="43.7844476" lon="11.6018792"><ele>1075.0</ele><time>2026-04-26T15:47:15.08Z</time></trkpt><trkpt lat="43.7844007" lon="11.6017972"><ele>1074.6666666666665</ele><time>2026-04-26T15:47:17.083Z</time></trkpt><trkpt lat="43.7843621" lon="11.6017275"><ele>1074.3333333333333</ele><time>2026-04-26T15:47:19.088Z</time></trkpt><trkpt lat="43.7843074" lon="11.6016182"><ele>1074.0</ele><time>2026-04-26T15:47:22.085Z</time></trkpt><trkpt lat="43.7842563" lon="11.601553"><ele>1073.6666666666667</ele><time>2026-04-26T15:47:24.098Z</time></trkpt><trkpt lat="43.7841722" lon="11.6014774"><ele>1073.3333333333335</ele><time>2026-04-26T15:47:26.095Z</time></trkpt><trkpt lat="43.7841086" lon="11.6014162"><ele>1073.0</ele><time>2026-04-26T15:47:28.092Z</time></trkpt><trkpt lat="43.7840389" lon="11.6013523"><ele>1072.6666666666667</ele><time>2026-04-26T15:47:30.09Z</time></trkpt><trkpt lat="43.7839555" lon="11.6012978"><ele>1072.3333333333335</ele><time>2026-04-26T15:47:32.087Z</time></trkpt><trkpt lat="43.7838706" lon="11.60124"><ele>1072.0</ele><time>2026-04-26T15:47:34.094Z</time></trkpt><trkpt lat="43.7837934" lon="11.6011732"><ele>1071.6666666666667</ele><time>2026-04-26T15:47:36.085Z</time></trkpt><trkpt lat="43.7837281" lon="11.6011028"><ele>1071.3333333333333</ele><time>2026-04-26T15:47:38.079Z</time></trkpt><trkpt lat="43.7836613" lon="11.6010594"><ele>1071.0</ele><time>2026-04-26T15:47:40.09Z</time></trkpt><trkpt lat="43.7835846" lon="11.601044"><ele>1071.0</ele><time>2026-04-26T15:47:42.091Z</time></trkpt><trkpt lat="43.7835148" lon="11.6010539"><ele>1071.0</ele><time>2026-04-26T15:47:44.084Z</time></trkpt><trkpt lat="43.7834305" lon="11.601043"><ele>1071.0</ele><time>2026-04-26T15:47:47.104Z</time></trkpt><trkpt lat="43.7833956" lon="11.6009395"><ele>1071.0</ele><time>2026-04-26T15:47:50.086Z</time></trkpt><trkpt lat="43.7833342" lon="11.6008911"><ele>1071.0</ele><time>2026-04-26T15:47:53.091Z</time></trkpt><trkpt lat="43.7832713" lon="11.6009042"><ele>1071.0</ele><time>2026-04-26T15:47:55.106Z</time></trkpt><trkpt lat="43.7832041" lon="11.6009052"><ele>1071.0</ele><time>2026-04-26T15:47:57.09Z</time></trkpt><trkpt lat="43.7831311" lon="11.6009059"><ele>1070.1666666666667</ele><time>2026-04-26T15:48:00.083Z</time></trkpt><trkpt lat="43.7830694" lon="11.6009366"><ele>1069.3333333333333</ele><time>2026-04-26T15:48:26.09Z</time></trkpt><trkpt lat="43.7830135" lon="11.6009902"><ele>1068.5</ele><time>2026-04-26T15:48:30.088Z</time></trkpt><trkpt lat="43.7829454" lon="11.6009895"><ele>1067.6666666666665</ele><time>2026-04-26T15:48:46.086Z</time></trkpt><trkpt lat="43.7829468" lon="11.6008671"><ele>1066.8333333333333</ele><time>2026-04-26T15:48:49.077Z</time></trkpt><trkpt lat="43.7829705" lon="11.6007303"><ele>1066.0</ele><time>2026-04-26T15:48:51.078Z</time></trkpt><trkpt lat="43.7829751" lon="11.6005677"><ele>1066.0</ele><time>2026-04-26T15:48:53.075Z</time></trkpt><trkpt lat="43.7829731" lon="11.6004762"><ele>1066.0</ele><time>2026-04-26T15:48:54.085Z</time></trkpt><trkpt lat="43.782971" lon="11.6003822"><ele>1066.0</ele><time>2026-04-26T15:48:55.088Z</time></trkpt><trkpt lat="43.7829648" lon="11.6002866"><ele>1066.0</ele><time>2026-04-26T15:48:56.071Z</time></trkpt><trkpt lat="43.7829562" lon="11.6001866"><ele>1066.0</ele><time>2026-04-26T15:48:57.077Z</time></trkpt><trkpt lat="43.7829494" lon="11.6000836"><ele>1066.0</ele><time>2026-04-26T15:48:58.085Z</time></trkpt><trkpt lat="43.7829389" lon="11.5999701"><ele>1066.0</ele><time>2026-04-26T15:48:59.085Z</time></trkpt><trkpt lat="43.7829309" lon="11.5998517"><ele>1064.3333333333333</ele><time>2026-04-26T15:49:00.084Z</time></trkpt><trkpt lat="43.7829249" lon="11.5997327"><ele>1062.6666666666665</ele><time>2026-04-26T15:49:01.081Z</time></trkpt><trkpt lat="43.7829176" lon="11.5996107"><ele>1061.0</ele><time>2026-04-26T15:49:02.078Z</time></trkpt><trkpt lat="43.7829101" lon="11.599488"><ele>1059.3333333333333</ele><time>2026-04-26T15:49:03.078Z</time></trkpt><trkpt lat="43.7829023" lon="11.5993638"><ele>1057.6666666666667</ele><time>2026-04-26T15:49:04.085Z</time></trkpt><trkpt lat="43.7828964" lon="11.5992384"><ele>1056.0</ele><time>2026-04-26T15:49:05.082Z</time></trkpt><trkpt lat="43.7828854" lon="11.5991092"><ele>1056.3999999999999</ele><time>2026-04-26T15:49:06.076Z</time></trkpt><trkpt lat="43.7828685" lon="11.5989838"><ele>1056.8</ele><time>2026-04-26T15:49:07.085Z</time></trkpt><trkpt lat="43.7828408" lon="11.5988572"><ele>1057.1999999999998</ele><time>2026-04-26T15:49:08.075Z</time></trkpt><trkpt lat="43.7828046" lon="11.5987384"><ele>1057.6</ele><time>2026-04-26T15:49:09.077Z</time></trkpt><trkpt lat="43.782763" lon="11.598621"><ele>1058.0</ele><time>2026-04-26T15:49:10.081Z</time></trkpt><trkpt lat="43.7827185" lon="11.5985044"><ele>1054.0</ele><time>2026-04-26T15:49:11.082Z</time></trkpt><trkpt lat="43.7826705" lon="11.598387"><ele>1050.0</ele><time>2026-04-26T15:49:12.087Z</time></trkpt><trkpt lat="43.7826171" lon="11.5982708"><ele>1046.0</ele><time>2026-04-26T15:49:13.077Z</time></trkpt><trkpt lat="43.7825584" lon="11.5981582"><ele>1042.0</ele><time>2026-04-26T15:49:14.081Z</time></trkpt><trkpt lat="43.78249" lon="11.598054"><ele>1038.0</ele><time>2026-04-26T15:49:15.077Z</time></trkpt><trkpt lat="43.78241" lon="11.5979631"><ele>1038.0</ele><time>2026-04-26T15:49:16.083Z</time></trkpt><trkpt lat="43.782323" lon="11.5978849"><ele>1038.0</ele><time>2026-04-26T15:49:17.084Z</time></trkpt><trkpt lat="43.7822311" lon="11.5978193"><ele>1038.0</ele><time>2026-04-26T15:49:18.087Z</time></trkpt><trkpt lat="43.7821373" lon="11.5977613"><ele>1038.0</ele><time>2026-04-26T15:49:19.085Z</time></trkpt><trkpt lat="43.7820404" lon="11.5977032"><ele>1038.0</ele><time>2026-04-26T15:49:20.079Z</time></trkpt><trkpt lat="43.781946" lon="11.5976408"><ele>1038.4</ele><time>2026-04-26T15:49:21.087Z</time></trkpt><trkpt lat="43.7818511" lon="11.5975772"><ele>1038.8</ele><time>2026-04-26T15:49:22.085Z</time></trkpt><trkpt lat="43.7817572" lon="11.5975084"><ele>1039.2</ele><time>2026-04-26T15:49:23.077Z</time></trkpt><trkpt lat="43.7816653" lon="11.5974347"><ele>1039.6</ele><time>2026-04-26T15:49:24.093Z</time></trkpt><trkpt lat="43.7815791" lon="11.5973616"><ele>1040.0</ele><time>2026-04-26T15:49:25.087Z</time></trkpt><trkpt lat="43.7815002" lon="11.597285"><ele>1037.5</ele><time>2026-04-26T15:49:26.072Z</time></trkpt><trkpt lat="43.7814315" lon="11.5972089"><ele>1035.0</ele><time>2026-04-26T15:49:27.087Z</time></trkpt><trkpt lat="43.7813738" lon="11.5971334"><ele>1032.5</ele><time>2026-04-26T15:49:28.099Z</time></trkpt><trkpt lat="43.7813266" lon="11.5970662"><ele>1030.0</ele><time>2026-04-26T15:49:29.1Z</time></trkpt><trkpt lat="43.7812565" lon="11.596973"><ele>1027.5</ele><time>2026-04-26T15:49:31.095Z</time></trkpt><trkpt lat="43.7811725" lon="11.5969767"><ele>1025.0</ele><time>2026-04-26T15:49:33.079Z</time></trkpt><trkpt lat="43.7810773" lon="11.5969963"><ele>1024.0</ele><time>2026-04-26T15:49:35.076Z</time></trkpt><trkpt lat="43.7809864" lon="11.5970102"><ele>1023.0</ele><time>2026-04-26T15:49:37.08Z</time></trkpt><trkpt lat="43.7809087" lon="11.5970074"><ele>1022.0</ele><time>2026-04-26T15:49:39.077Z</time></trkpt><trkpt lat="43.7808193" lon="11.59702"><ele>1021.0</ele><time>2026-04-26T15:49:42.085Z</time></trkpt><trkpt lat="43.7807439" lon="11.5970602"><ele>1020.0000000000001</ele><time>2026-04-26T15:49:44.077Z</time></trkpt><trkpt lat="43.7806721" lon="11.5970894"><ele>1019.0</ele><time>2026-04-26T15:49:46.069Z</time></trkpt><trkpt lat="43.7805878" lon="11.5971215"><ele>1019.0000000000001</ele><time>2026-04-26T15:49:48.085Z</time></trkpt><trkpt lat="43.7804995" lon="11.5971382"><ele>1019.0</ele><time>2026-04-26T15:49:50.086Z</time></trkpt><trkpt lat="43.7804145" lon="11.5971343"><ele>1019.0</ele><time>2026-04-26T15:49:52.083Z</time></trkpt><trkpt lat="43.7803308" lon="11.5971014"><ele>1019.0</ele><time>2026-04-26T15:49:54.087Z</time></trkpt><trkpt lat="43.780255" lon="11.5970827"><ele>1019.0000000000001</ele><time>2026-04-26T15:49:56.08Z</time></trkpt><trkpt lat="43.7801754" lon="11.5970418"><ele>1019.0</ele><time>2026-04-26T15:49:58.073Z</time></trkpt><trkpt lat="43.7800959" lon="11.5969973"><ele>1021.6666666666667</ele><time>2026-04-26T15:50:00.082Z</time></trkpt><trkpt lat="43.7800207" lon="11.5969458"><ele>1024.3333333333335</ele><time>2026-04-26T15:50:02.097Z</time></trkpt><trkpt lat="43.7799492" lon="11.5969001"><ele>1027.0</ele><time>2026-04-26T15:50:04.092Z</time></trkpt><trkpt lat="43.7798741" lon="11.5968597"><ele>1029.6666666666667</ele><time>2026-04-26T15:50:06.096Z</time></trkpt><trkpt lat="43.7797928" lon="11.5968249"><ele>1032.3333333333333</ele><time>2026-04-26T15:50:08.085Z</time></trkpt><trkpt lat="43.779713" lon="11.596793"><ele>1035.0</ele><time>2026-04-26T15:50:10.084Z</time></trkpt><trkpt lat="43.7796361" lon="11.5967647"><ele>1035.0</ele><time>2026-04-26T15:50:12.083Z</time></trkpt><trkpt lat="43.779555" lon="11.5967354"><ele>1035.0</ele><time>2026-04-26T15:50:14.091Z</time></trkpt><trkpt lat="43.7794662" lon="11.5967004"><ele>1035.0</ele><time>2026-04-26T15:50:16.09Z</time></trkpt><trkpt lat="43.7793823" lon="11.5966559"><ele>1035.0</ele><time>2026-04-26T15:50:18.107Z</time></trkpt><trkpt lat="43.7792913" lon="11.5965942"><ele>1035.0</ele><time>2026-04-26T15:50:20.091Z</time></trkpt><trkpt lat="43.7791961" lon="11.5965197"><ele>1036.75</ele><time>2026-04-26T15:50:22.088Z</time></trkpt><trkpt lat="43.7790974" lon="11.5964495"><ele>1038.5</ele><time>2026-04-26T15:50:24.109Z</time></trkpt><trkpt lat="43.7789925" lon="11.5963764"><ele>1040.25</ele><time>2026-04-26T15:50:26.078Z</time></trkpt><trkpt lat="43.778886" lon="11.5962977"><ele>1042.0</ele><time>2026-04-26T15:50:28.082Z</time></trkpt><trkpt lat="43.7787808" lon="11.5962157"><ele>1042.4</ele><time>2026-04-26T15:50:30.076Z</time></trkpt><trkpt lat="43.7786875" lon="11.596116"><ele>1042.8000000000002</ele><time>2026-04-26T15:50:32.076Z</time></trkpt><trkpt lat="43.7785959" lon="11.5960039"><ele>1043.2</ele><time>2026-04-26T15:50:34.091Z</time></trkpt><trkpt lat="43.7785493" lon="11.5959307"><ele>1043.6000000000001</ele><time>2026-04-26T15:50:35.074Z</time></trkpt><trkpt lat="43.7785029" lon="11.5958523"><ele>1044.0</ele><time>2026-04-26T15:50:36.08Z</time></trkpt><trkpt lat="43.7784535" lon="11.5957708"><ele>1044.0</ele><time>2026-04-26T15:50:37.075Z</time></trkpt><trkpt lat="43.7783899" lon="11.5956913"><ele>1044.0</ele><time>2026-04-26T15:50:38.082Z</time></trkpt><trkpt lat="43.7783314" lon="11.5956258"><ele>1044.0</ele><time>2026-04-26T15:50:39.1Z</time></trkpt><trkpt lat="43.7782653" lon="11.5955714"><ele>1044.0</ele><time>2026-04-26T15:50:40.085Z</time></trkpt><trkpt lat="43.7781937" lon="11.595528"><ele>1044.0</ele><time>2026-04-26T15:50:41.079Z</time></trkpt><trkpt lat="43.7781262" lon="11.5954943"><ele>1044.0</ele><time>2026-04-26T15:50:42.094Z</time></trkpt><trkpt lat="43.7780605" lon="11.5954526"><ele>1044.0</ele><time>2026-04-26T15:50:43.079Z</time></trkpt><trkpt lat="43.7779982" lon="11.5954061"><ele>1044.0</ele><time>2026-04-26T15:50:44.085Z</time></trkpt><trkpt lat="43.7779409" lon="11.5953523"><ele>1044.0</ele><time>2026-04-26T15:50:45.095Z</time></trkpt><trkpt lat="43.7778377" lon="11.5952601"><ele>1044.0</ele><time>2026-04-26T15:50:47.075Z</time></trkpt><trkpt lat="43.777744" lon="11.5951815"><ele>1044.0</ele><time>2026-04-26T15:50:49.088Z</time></trkpt><trkpt lat="43.7776481" lon="11.5951161"><ele>1045.3333333333333</ele><time>2026-04-26T15:50:51.115Z</time></trkpt><trkpt lat="43.7775307" lon="11.5950489"><ele>1046.6666666666667</ele><time>2026-04-26T15:50:53.097Z</time></trkpt><trkpt lat="43.7774677" lon="11.5950109"><ele>1048.0</ele><time>2026-04-26T15:50:54.106Z</time></trkpt><trkpt lat="43.7774017" lon="11.5949702"><ele>1049.3333333333335</ele><time>2026-04-26T15:50:55.101Z</time></trkpt><trkpt lat="43.7773244" lon="11.5949301"><ele>1050.6666666666667</ele><time>2026-04-26T15:50:56.099Z</time></trkpt><trkpt lat="43.7772455" lon="11.5948825"><ele>1052.0</ele><time>2026-04-26T15:50:57.087Z</time></trkpt><trkpt lat="43.7771773" lon="11.5948338"><ele>1052.0</ele><time>2026-04-26T15:50:58.074Z</time></trkpt><trkpt lat="43.77711" lon="11.5948229"><ele>1052.0</ele><time>2026-04-26T15:50:59.085Z</time></trkpt><trkpt lat="43.7770373" lon="11.5948296"><ele>1052.0</ele><time>2026-04-26T15:51:00.083Z</time></trkpt><trkpt lat="43.7769675" lon="11.5948562"><ele>1052.0</ele><time>2026-04-26T15:51:01.073Z</time></trkpt><trkpt lat="43.7768811" lon="11.5949039"><ele>1052.0</ele><time>2026-04-26T15:51:02.099Z</time></trkpt><trkpt lat="43.7768068" lon="11.5949581"><ele>1052.0</ele><time>2026-04-26T15:51:03.09Z</time></trkpt><trkpt lat="43.7767279" lon="11.5950142"><ele>1052.0</ele><time>2026-04-26T15:51:04.09Z</time></trkpt><trkpt lat="43.7766464" lon="11.5950792"><ele>1052.0</ele><time>2026-04-26T15:51:05.087Z</time></trkpt><trkpt lat="43.7765657" lon="11.5951433"><ele>1052.0</ele><time>2026-04-26T15:51:06.092Z</time></trkpt><trkpt lat="43.7764868" lon="11.595206"><ele>1052.0</ele><time>2026-04-26T15:51:07.099Z</time></trkpt><trkpt lat="43.7764125" lon="11.5952802"><ele>1052.0</ele><time>2026-04-26T15:51:08.095Z</time></trkpt><trkpt lat="43.776348" lon="11.5953482"><ele>1052.0</ele><time>2026-04-26T15:51:09.097Z</time></trkpt><trkpt lat="43.77629" lon="11.5954259"><ele>1052.0</ele><time>2026-04-26T15:51:10.094Z</time></trkpt><trkpt lat="43.7762353" lon="11.5955145"><ele>1052.0</ele><time>2026-04-26T15:51:11.099Z</time></trkpt><trkpt lat="43.7761863" lon="11.5956072"><ele>1052.0</ele><time>2026-04-26T15:51:12.113Z</time></trkpt><trkpt lat="43.7761331" lon="11.5957025"><ele>1052.0</ele><time>2026-04-26T15:51:13.087Z</time></trkpt><trkpt lat="43.7760785" lon="11.5957968"><ele>1052.0</ele><time>2026-04-26T15:51:14.112Z</time></trkpt><trkpt lat="43.7760158" lon="11.5958897"><ele>1052.0</ele><time>2026-04-26T15:51:15.09Z</time></trkpt><trkpt lat="43.7759485" lon="11.5959773"><ele>1052.0</ele><time>2026-04-26T15:51:16.098Z</time></trkpt><trkpt lat="43.7758763" lon="11.5960558"><ele>1052.0</ele><time>2026-04-26T15:51:17.098Z</time></trkpt><trkpt lat="43.7757959" lon="11.5961247"><ele>1052.0</ele><time>2026-04-26T15:51:18.095Z</time></trkpt><trkpt lat="43.7757171" lon="11.5961891"><ele>1052.0</ele><time>2026-04-26T15:51:19.107Z</time></trkpt><trkpt lat="43.775634" lon="11.5962544"><ele>1052.0</ele><time>2026-04-26T15:51:20.096Z</time></trkpt><trkpt lat="43.7755436" lon="11.5963216"><ele>1052.0</ele><time>2026-04-26T15:51:21.091Z</time></trkpt><trkpt lat="43.775442" lon="11.5963861"><ele>1052.0</ele><time>2026-04-26T15:51:22.094Z</time></trkpt><trkpt lat="43.7753463" lon="11.596451"><ele>1052.0</ele><time>2026-04-26T15:51:23.096Z</time></trkpt><trkpt lat="43.7752532" lon="11.5965103"><ele>1052.0</ele><time>2026-04-26T15:51:24.088Z</time></trkpt><trkpt lat="43.7751645" lon="11.5965691"><ele>1055.0</ele><time>2026-04-26T15:51:25.105Z</time></trkpt><trkpt lat="43.7750799" lon="11.596625"><ele>1058.0</ele><time>2026-04-26T15:51:26.09Z</time></trkpt><trkpt lat="43.7749951" lon="11.5966841"><ele>1061.0</ele><time>2026-04-26T15:51:27.089Z</time></trkpt><trkpt lat="43.7749056" lon="11.5967452"><ele>1064.0</ele><time>2026-04-26T15:51:28.087Z</time></trkpt><trkpt lat="43.7748146" lon="11.5967998"><ele>1067.0</ele><time>2026-04-26T15:51:29.076Z</time></trkpt><trkpt lat="43.7747316" lon="11.5968603"><ele>1067.0</ele><time>2026-04-26T15:51:30.091Z</time></trkpt><trkpt lat="43.7746429" lon="11.5969036"><ele>1067.0</ele><time>2026-04-26T15:51:31.073Z</time></trkpt><trkpt lat="43.7745557" lon="11.5969462"><ele>1067.0</ele><time>2026-04-26T15:51:32.082Z</time></trkpt><trkpt lat="43.7744741" lon="11.59699"><ele>1067.0</ele><time>2026-04-26T15:51:33.1Z</time></trkpt><trkpt lat="43.7743954" lon="11.5970339"><ele>1067.0</ele><time>2026-04-26T15:51:34.083Z</time></trkpt><trkpt lat="43.7743179" lon="11.59708"><ele>1067.0</ele><time>2026-04-26T15:51:35.088Z</time></trkpt><trkpt lat="43.7742475" lon="11.5971296"><ele>1068.0</ele><time>2026-04-26T15:51:36.094Z</time></trkpt><trkpt lat="43.7741816" lon="11.5971806"><ele>1069.0</ele><time>2026-04-26T15:51:37.076Z</time></trkpt><trkpt lat="43.7741234" lon="11.5972321"><ele>1070.0</ele><time>2026-04-26T15:51:38.075Z</time></trkpt><trkpt lat="43.7740395" lon="11.5973246"><ele>1071.0</ele><time>2026-04-26T15:51:40.079Z</time></trkpt><trkpt lat="43.7739683" lon="11.5974158"><ele>1072.0</ele><time>2026-04-26T15:51:42.095Z</time></trkpt><trkpt lat="43.7739031" lon="11.5975098"><ele>1073.0</ele><time>2026-04-26T15:51:44.092Z</time></trkpt><trkpt lat="43.7738412" lon="11.5975889"><ele>1073.0</ele><time>2026-04-26T15:51:46.086Z</time></trkpt><trkpt lat="43.7737685" lon="11.5975786"><ele>1073.0</ele><time>2026-04-26T15:51:50.097Z</time></trkpt><trkpt lat="43.7737429" lon="11.59747"><ele>1073.0</ele><time>2026-04-26T15:51:54.098Z</time></trkpt><trkpt lat="43.7737253" lon="11.5973798"><ele>1073.0</ele><time>2026-04-26T15:51:57.089Z</time></trkpt><trkpt lat="43.7737131" lon="11.5972845"><ele>1073.0</ele><time>2026-04-26T15:52:00.09Z</time></trkpt><trkpt lat="43.7736942" lon="11.5971943"><ele>1073.0</ele><time>2026-04-26T15:52:02.097Z</time></trkpt><trkpt lat="43.7736654" lon="11.5970837"><ele>1073.0</ele><time>2026-04-26T15:52:06.08Z</time></trkpt><trkpt lat="43.7736606" lon="11.5969861"><ele>1075.0</ele><time>2026-04-26T15:52:09.082Z</time></trkpt><trkpt lat="43.7736009" lon="11.5968941"><ele>1077.0</ele><time>2026-04-26T15:52:12.093Z</time></trkpt><trkpt lat="43.7735305" lon="11.5968729"><ele>1079.0</ele><time>2026-04-26T15:52:15.072Z</time></trkpt><trkpt lat="43.7734761" lon="11.5968095"><ele>1081.0</ele><time>2026-04-26T15:52:18.089Z</time></trkpt><trkpt lat="43.7734136" lon="11.5967528"><ele>1083.0</ele><time>2026-04-26T15:52:20.095Z</time></trkpt><trkpt lat="43.7733592" lon="11.5966787"><ele>1085.0</ele><time>2026-04-26T15:52:23.088Z</time></trkpt><trkpt lat="43.7733153" lon="11.5965852"><ele>1088.8333333333335</ele><time>2026-04-26T15:52:29.095Z</time></trkpt><trkpt lat="43.773257" lon="11.5965131"><ele>1092.6666666666667</ele><time>2026-04-26T15:52:30.079Z</time></trkpt><trkpt lat="43.7731962" lon="11.5964612"><ele>1096.5</ele><time>2026-04-26T15:52:34.087Z</time></trkpt><trkpt lat="43.7731485" lon="11.5963777"><ele>1100.3333333333333</ele><time>2026-04-26T15:52:39.093Z</time></trkpt><trkpt lat="43.773104" lon="11.5962836"><ele>1104.1666666666665</ele><time>2026-04-26T15:52:42.08Z</time></trkpt><trkpt lat="43.7730472" lon="11.5961889"><ele>1108.0</ele><time>2026-04-26T15:52:44.085Z</time></trkpt><trkpt lat="43.7730093" lon="11.596102"><ele>1108.5</ele><time>2026-04-26T15:52:48.096Z</time></trkpt><trkpt lat="43.7729666" lon="11.5960159"><ele>1109.0</ele><time>2026-04-26T15:52:51.08Z</time></trkpt><trkpt lat="43.7729026" lon="11.595968"><ele>1109.5</ele><time>2026-04-26T15:52:54.089Z</time></trkpt><trkpt lat="43.7728349" lon="11.5959116"><ele>1110.0</ele><time>2026-04-26T15:52:57.083Z</time></trkpt><trkpt lat="43.7727776" lon="11.5958678"><ele>1110.5</ele><time>2026-04-26T15:52:59.093Z</time></trkpt><trkpt lat="43.772717" lon="11.5958153"><ele>1111.0</ele><time>2026-04-26T15:53:01.076Z</time></trkpt><trkpt lat="43.7726288" lon="11.595783"><ele>1114.1666666666665</ele><time>2026-04-26T15:53:03.082Z</time></trkpt><trkpt lat="43.7725217" lon="11.5957244"><ele>1117.3333333333333</ele><time>2026-04-26T15:53:05.089Z</time></trkpt><trkpt lat="43.772459" lon="11.5956762"><ele>1120.5</ele><time>2026-04-26T15:53:06.09Z</time></trkpt><trkpt lat="43.7724084" lon="11.5956234"><ele>1123.6666666666667</ele><time>2026-04-26T15:53:07.081Z</time></trkpt><trkpt lat="43.7723648" lon="11.5955547"><ele>1126.8333333333335</ele><time>2026-04-26T15:53:08.089Z</time></trkpt><trkpt lat="43.7723133" lon="11.5955007"><ele>1130.0</ele><time>2026-04-26T15:53:09.085Z</time></trkpt><trkpt lat="43.7722722" lon="11.5954192"><ele>1129.9999999999998</ele><time>2026-04-26T15:53:11.091Z</time></trkpt><trkpt lat="43.7722177" lon="11.5953541"><ele>1130.0</ele><time>2026-04-26T15:53:13.088Z</time></trkpt><trkpt lat="43.7721638" lon="11.5952847"><ele>1130.0</ele><time>2026-04-26T15:53:15.083Z</time></trkpt><trkpt lat="43.772094" lon="11.5952244"><ele>1130.0</ele><time>2026-04-26T15:53:17.081Z</time></trkpt><trkpt lat="43.7720351" lon="11.5951723"><ele>1130.0</ele><time>2026-04-26T15:53:19.075Z</time></trkpt><trkpt lat="43.7719646" lon="11.5951199"><ele>1129.9999999999998</ele><time>2026-04-26T15:53:21.106Z</time></trkpt><trkpt lat="43.7719024" lon="11.5950773"><ele>1130.0</ele><time>2026-04-26T15:53:23.087Z</time></trkpt><trkpt lat="43.7718293" lon="11.5950225"><ele>1132.6666666666667</ele><time>2026-04-26T15:53:26.096Z</time></trkpt><trkpt lat="43.7717709" lon="11.5949892"><ele>1135.3333333333335</ele><time>2026-04-26T15:53:28.108Z</time></trkpt><trkpt lat="43.7716534" lon="11.594885"><ele>1138.0</ele><time>2026-04-26T15:53:30.087Z</time></trkpt><trkpt lat="43.7716019" lon="11.5948339"><ele>1140.6666666666667</ele><time>2026-04-26T15:53:31.096Z</time></trkpt><trkpt lat="43.7715425" lon="11.5947798"><ele>1143.3333333333333</ele><time>2026-04-26T15:53:33.104Z</time></trkpt><trkpt lat="43.7714801" lon="11.5947023"><ele>1146.0</ele><time>2026-04-26T15:53:36.125Z</time></trkpt><trkpt lat="43.7714181" lon="11.5946307"><ele>1146.0</ele><time>2026-04-26T15:53:39.103Z</time></trkpt><trkpt lat="43.7713804" lon="11.5945598"><ele>1146.0</ele><time>2026-04-26T15:53:41.096Z</time></trkpt><trkpt lat="43.7713109" lon="11.5944653"><ele>1146.0</ele><time>2026-04-26T15:53:44.092Z</time></trkpt><trkpt lat="43.7712443" lon="11.594379"><ele>1146.0</ele><time>2026-04-26T15:53:47.105Z</time></trkpt><trkpt lat="43.7711761" lon="11.5942816"><ele>1146.0</ele><time>2026-04-26T15:53:50.089Z</time></trkpt><trkpt lat="43.7711135" lon="11.5942337"><ele>1146.0</ele><time>2026-04-26T15:53:52.093Z</time></trkpt><trkpt lat="43.7710595" lon="11.5941873"><ele>1145.2857142857142</ele><time>2026-04-26T15:53:54.091Z</time></trkpt><trkpt lat="43.7709925" lon="11.5941513"><ele>1144.5714285714287</ele><time>2026-04-26T15:53:56.093Z</time></trkpt><trkpt lat="43.7709261" lon="11.5941208"><ele>1143.857142857143</ele><time>2026-04-26T15:53:58.094Z</time></trkpt><trkpt lat="43.7708648" lon="11.5940741"><ele>1143.142857142857</ele><time>2026-04-26T15:54:00.084Z</time></trkpt><trkpt lat="43.7708043" lon="11.5939786"><ele>1142.4285714285716</ele><time>2026-04-26T15:54:02.092Z</time></trkpt><trkpt lat="43.7707636" lon="11.5938995"><ele>1141.7142857142858</ele><time>2026-04-26T15:54:04.086Z</time></trkpt><trkpt lat="43.7707102" lon="11.5938468"><ele>1141.0</ele><time>2026-04-26T15:54:06.091Z</time></trkpt><trkpt lat="43.7706334" lon="11.5937685"><ele>1141.0</ele><time>2026-04-26T15:54:09.085Z</time></trkpt><trkpt lat="43.7705921" lon="11.5936886"><ele>1141.0</ele><time>2026-04-26T15:54:12.097Z</time></trkpt><trkpt lat="43.7705448" lon="11.593589"><ele>1141.0</ele><time>2026-04-26T15:54:15.077Z</time></trkpt><trkpt lat="43.7705127" lon="11.5934695"><ele>1141.0</ele><time>2026-04-26T15:54:18.091Z</time></trkpt><trkpt lat="43.7704907" lon="11.5933706"><ele>1141.0</ele><time>2026-04-26T15:54:20.082Z</time></trkpt><trkpt lat="43.7704626" lon="11.5932551"><ele>1141.0</ele><time>2026-04-26T15:54:23.105Z</time></trkpt><trkpt lat="43.7704638" lon="11.5931456"><ele>1139.6666666666665</ele><time>2026-04-26T15:54:26.089Z</time></trkpt><trkpt lat="43.7704589" lon="11.593039"><ele>1138.3333333333333</ele><time>2026-04-26T15:55:03.087Z</time></trkpt><trkpt lat="43.7704571" lon="11.5929331"><ele>1137.0</ele><time>2026-04-26T15:55:06.081Z</time></trkpt><trkpt lat="43.7704563" lon="11.5928083"><ele>1135.6666666666667</ele><time>2026-04-26T15:55:09.1Z</time></trkpt><trkpt lat="43.770449" lon="11.5926707"><ele>1134.3333333333335</ele><time>2026-04-26T15:55:12.093Z</time></trkpt><trkpt lat="43.7704365" lon="11.5925637"><ele>1133.0</ele><time>2026-04-26T15:55:14.088Z</time></trkpt><trkpt lat="43.7704432" lon="11.592458"><ele>1132.3333333333335</ele><time>2026-04-26T15:55:16.067Z</time></trkpt><trkpt lat="43.7704222" lon="11.5923536"><ele>1131.6666666666667</ele><time>2026-04-26T15:55:18.079Z</time></trkpt><trkpt lat="43.7704188" lon="11.592242"><ele>1131.0</ele><time>2026-04-26T15:55:20.092Z</time></trkpt><trkpt lat="43.7704159" lon="11.592137"><ele>1130.3333333333333</ele><time>2026-04-26T15:55:22.093Z</time></trkpt><trkpt lat="43.77042" lon="11.5920381"><ele>1129.6666666666665</ele><time>2026-04-26T15:55:24.104Z</time></trkpt><trkpt lat="43.7704395" lon="11.5919195"><ele>1129.0</ele><time>2026-04-26T15:55:26.089Z</time></trkpt><trkpt lat="43.7704484" lon="11.5918055"><ele>1128.5</ele><time>2026-04-26T15:55:28.084Z</time></trkpt><trkpt lat="43.7704467" lon="11.5916826"><ele>1128.0</ele><time>2026-04-26T15:55:30.113Z</time></trkpt><trkpt lat="43.770449" lon="11.5915559"><ele>1127.5</ele><time>2026-04-26T15:55:32.097Z</time></trkpt><trkpt lat="43.7704565" lon="11.591431"><ele>1127.0</ele><time>2026-04-26T15:55:34.088Z</time></trkpt><trkpt lat="43.7704656" lon="11.5913074"><ele>1126.5</ele><time>2026-04-26T15:55:36.114Z</time></trkpt><trkpt lat="43.7704763" lon="11.5911884"><ele>1126.0</ele><time>2026-04-26T15:55:38.102Z</time></trkpt><trkpt lat="43.7704818" lon="11.591056"><ele>1127.2</ele><time>2026-04-26T15:55:40.102Z</time></trkpt><trkpt lat="43.7704957" lon="11.5909156"><ele>1128.3999999999999</ele><time>2026-04-26T15:55:42.085Z</time></trkpt><trkpt lat="43.7704991" lon="11.5907831"><ele>1129.6</ele><time>2026-04-26T15:55:44.092Z</time></trkpt><trkpt lat="43.7704934" lon="11.5906386"><ele>1130.8</ele><time>2026-04-26T15:55:46.107Z</time></trkpt><trkpt lat="43.7704819" lon="11.5905107"><ele>1132.0</ele><time>2026-04-26T15:55:48.105Z</time></trkpt><trkpt lat="43.7704734" lon="11.5903986"><ele>1131.0</ele><time>2026-04-26T15:55:50.102Z</time></trkpt><trkpt lat="43.7704567" lon="11.5902956"><ele>1130.0</ele><time>2026-04-26T15:55:52.103Z</time></trkpt><trkpt lat="43.7704304" lon="11.5901642"><ele>1129.0</ele><time>2026-04-26T15:55:54.103Z</time></trkpt><trkpt lat="43.7704093" lon="11.5900681"><ele>1128.0</ele><time>2026-04-26T15:55:55.095Z</time></trkpt><trkpt lat="43.7703797" lon="11.5899713"><ele>1127.0</ele><time>2026-04-26T15:55:56.101Z</time></trkpt><trkpt lat="43.7703249" lon="11.5898255"><ele>1126.0</ele><time>2026-04-26T15:55:58.092Z</time></trkpt><trkpt lat="43.7702798" lon="11.5896773"><ele>1126.0</ele><time>2026-04-26T15:56:00.085Z</time></trkpt><trkpt lat="43.7702316" lon="11.5895427"><ele>1126.0</ele><time>2026-04-26T15:56:02.116Z</time></trkpt><trkpt lat="43.7701964" lon="11.5894244"><ele>1126.0</ele><time>2026-04-26T15:56:04.1Z</time></trkpt><trkpt lat="43.7701662" lon="11.5893012"><ele>1126.0</ele><time>2026-04-26T15:56:06.118Z</time></trkpt><trkpt lat="43.7701313" lon="11.5891797"><ele>1126.0</ele><time>2026-04-26T15:56:08.083Z</time></trkpt><trkpt lat="43.7700975" lon="11.5890681"><ele>1127.0</ele><time>2026-04-26T15:56:10.111Z</time></trkpt><trkpt lat="43.770062" lon="11.5889514"><ele>1128.0</ele><time>2026-04-26T15:56:12.103Z</time></trkpt><trkpt lat="43.7700181" lon="11.5888394"><ele>1129.0</ele><time>2026-04-26T15:56:14.085Z</time></trkpt><trkpt lat="43.7699764" lon="11.5887299"><ele>1130.0</ele><time>2026-04-26T15:56:16.127Z</time></trkpt><trkpt lat="43.7699295" lon="11.5886187"><ele>1131.0</ele><time>2026-04-26T15:56:18.103Z</time></trkpt><trkpt lat="43.7698995" lon="11.5885094"><ele>1131.1666666666667</ele><time>2026-04-26T15:56:20.094Z</time></trkpt><trkpt lat="43.7698632" lon="11.5883986"><ele>1131.3333333333333</ele><time>2026-04-26T15:56:22.09Z</time></trkpt><trkpt lat="43.7698262" lon="11.5882849"><ele>1131.5</ele><time>2026-04-26T15:56:24.102Z</time></trkpt><trkpt lat="43.76979" lon="11.5881794"><ele>1131.6666666666665</ele><time>2026-04-26T15:56:26.093Z</time></trkpt><trkpt lat="43.7697579" lon="11.5880766"><ele>1131.8333333333333</ele><time>2026-04-26T15:56:28.102Z</time></trkpt><trkpt lat="43.7697325" lon="11.5879476"><ele>1132.0</ele><time>2026-04-26T15:56:30.087Z</time></trkpt><trkpt lat="43.7697032" lon="11.5878298"><ele>1131.5</ele><time>2026-04-26T15:56:32.097Z</time></trkpt><trkpt lat="43.7696795" lon="11.587724"><ele>1131.0</ele><time>2026-04-26T15:56:34.087Z</time></trkpt><trkpt lat="43.7696693" lon="11.5876221"><ele>1130.5</ele><time>2026-04-26T15:56:36.09Z</time></trkpt><trkpt lat="43.7696667" lon="11.587514"><ele>1130.0</ele><time>2026-04-26T15:56:38.106Z</time></trkpt><trkpt lat="43.7696529" lon="11.5873967"><ele>1129.5</ele><time>2026-04-26T15:56:40.092Z</time></trkpt><trkpt lat="43.7696337" lon="11.5872747"><ele>1129.0</ele><time>2026-04-26T15:56:42.09Z</time></trkpt><trkpt lat="43.7696142" lon="11.5871533"><ele>1129.0</ele><time>2026-04-26T15:56:44.107Z</time></trkpt><trkpt lat="43.7695893" lon="11.5870165"><ele>1129.0</ele><time>2026-04-26T15:56:46.094Z</time></trkpt><trkpt lat="43.7695604" lon="11.5868958"><ele>1129.0</ele><time>2026-04-26T15:56:48.095Z</time></trkpt><trkpt lat="43.7695251" lon="11.5867947"><ele>1129.0</ele><time>2026-04-26T15:56:50.1Z</time></trkpt><trkpt lat="43.7694659" lon="11.586689"><ele>1129.0</ele><time>2026-04-26T15:56:52.104Z</time></trkpt><trkpt lat="43.7694012" lon="11.5865947"><ele>1129.2</ele><time>2026-04-26T15:56:54.105Z</time></trkpt><trkpt lat="43.7693396" lon="11.5864977"><ele>1129.4</ele><time>2026-04-26T15:56:56.101Z</time></trkpt><trkpt lat="43.769275" lon="11.5863994"><ele>1129.6</ele><time>2026-04-26T15:56:58.095Z</time></trkpt><trkpt lat="43.7692042" lon="11.5863101"><ele>1129.8</ele><time>2026-04-26T15:57:00.074Z</time></trkpt><trkpt lat="43.7691238" lon="11.5862411"><ele>1130.0</ele><time>2026-04-26T15:57:02.084Z</time></trkpt><trkpt lat="43.7690527" lon="11.5861698"><ele>1130.8</ele><time>2026-04-26T15:57:04.079Z</time></trkpt><trkpt lat="43.768969" lon="11.5861059"><ele>1131.6</ele><time>2026-04-26T15:57:06.107Z</time></trkpt><trkpt lat="43.7688879" lon="11.5860573"><ele>1132.4</ele><time>2026-04-26T15:57:08.088Z</time></trkpt><trkpt lat="43.7688125" lon="11.5859777"><ele>1133.2</ele><time>2026-04-26T15:57:10.094Z</time></trkpt><trkpt lat="43.7687448" lon="11.5858888"><ele>1134.0</ele><time>2026-04-26T15:57:12.091Z</time></trkpt><trkpt lat="43.7686875" lon="11.5858136"><ele>1134.0</ele><time>2026-04-26T15:57:14.094Z</time></trkpt><trkpt lat="43.7686448" lon="11.5857392"><ele>1134.0</ele><time>2026-04-26T15:57:16.085Z</time></trkpt><trkpt lat="43.7686076" lon="11.5856366"><ele>1134.0</ele><time>2026-04-26T15:57:18.11Z</time></trkpt><trkpt lat="43.7685873" lon="11.5855335"><ele>1134.0</ele><time>2026-04-26T15:57:20.086Z</time></trkpt><trkpt lat="43.7685765" lon="11.5854341"><ele>1134.0</ele><time>2026-04-26T15:57:22.093Z</time></trkpt><trkpt lat="43.7685869" lon="11.5853333"><ele>1134.0</ele><time>2026-04-26T15:57:24.09Z</time></trkpt><trkpt lat="43.7686239" lon="11.5852112"><ele>1133.5</ele><time>2026-04-26T15:57:27.09Z</time></trkpt><trkpt lat="43.7686472" lon="11.5851284"><ele>1133.0</ele><time>2026-04-26T15:57:29.083Z</time></trkpt><trkpt lat="43.7686666" lon="11.5850041"><ele>1132.5</ele><time>2026-04-26T15:57:31.082Z</time></trkpt><trkpt lat="43.7686988" lon="11.5848772"><ele>1132.0</ele><time>2026-04-26T15:57:33.084Z</time></trkpt><trkpt lat="43.7687399" lon="11.5847647"><ele>1131.5</ele><time>2026-04-26T15:57:35.103Z</time></trkpt><trkpt lat="43.7687638" lon="11.5846725"><ele>1131.0</ele><time>2026-04-26T15:57:37.102Z</time></trkpt><trkpt lat="43.7688092" lon="11.5845586"><ele>1129.3333333333333</ele><time>2026-04-26T15:57:40.087Z</time></trkpt><trkpt lat="43.7688502" lon="11.5844916"><ele>1127.6666666666667</ele><time>2026-04-26T15:57:42.106Z</time></trkpt><trkpt lat="43.7688842" lon="11.5843864"><ele>1126.0</ele><time>2026-04-26T15:57:44.097Z</time></trkpt><trkpt lat="43.7689296" lon="11.5842624"><ele>1124.3333333333335</ele><time>2026-04-26T15:57:46.084Z</time></trkpt><trkpt lat="43.7689597" lon="11.5841587"><ele>1122.6666666666667</ele><time>2026-04-26T15:57:48.096Z</time></trkpt><trkpt lat="43.7689825" lon="11.5840123"><ele>1121.0</ele><time>2026-04-26T15:57:51.082Z</time></trkpt><trkpt lat="43.7689921" lon="11.5839043"><ele>1121.0</ele><time>2026-04-26T15:57:53.083Z</time></trkpt><trkpt lat="43.7689867" lon="11.5838127"><ele>1121.0</ele><time>2026-04-26T15:57:55.08Z</time></trkpt><trkpt lat="43.7689602" lon="11.5837212"><ele>1121.0</ele><time>2026-04-26T15:57:57.051Z</time></trkpt><trkpt lat="43.7689116" lon="11.5836245"><ele>1121.0</ele><time>2026-04-26T15:57:59.08Z</time></trkpt><trkpt lat="43.768846" lon="11.5835634"><ele>1121.0</ele><time>2026-04-26T15:58:01.091Z</time></trkpt><trkpt lat="43.7687724" lon="11.5835002"><ele>1121.0</ele><time>2026-04-26T15:58:03.064Z</time></trkpt><trkpt lat="43.7686911" lon="11.5834305"><ele>1119.3333333333335</ele><time>2026-04-26T15:58:05.078Z</time></trkpt><trkpt lat="43.7686195" lon="11.583381"><ele>1117.6666666666667</ele><time>2026-04-26T15:58:07.081Z</time></trkpt><trkpt lat="43.7685279" lon="11.5833405"><ele>1116.0</ele><time>2026-04-26T15:58:09.089Z</time></trkpt><trkpt lat="43.7684518" lon="11.5832736"><ele>1114.3333333333333</ele><time>2026-04-26T15:58:11.092Z</time></trkpt><trkpt lat="43.7683955" lon="11.5831695"><ele>1112.6666666666665</ele><time>2026-04-26T15:58:13.085Z</time></trkpt><trkpt lat="43.7683763" lon="11.5830585"><ele>1111.0</ele><time>2026-04-26T15:58:15.085Z</time></trkpt><trkpt lat="43.7684" lon="11.5829706"><ele>1111.0</ele><time>2026-04-26T15:58:17.008Z</time></trkpt><trkpt lat="43.7684665" lon="11.5829464"><ele>1111.0</ele><time>2026-04-26T15:58:19.08Z</time></trkpt><trkpt lat="43.7685284" lon="11.5830076"><ele>1111.0</ele><time>2026-04-26T15:58:21.082Z</time></trkpt><trkpt lat="43.7685858" lon="11.5830727"><ele>1111.0</ele><time>2026-04-26T15:58:23.093Z</time></trkpt><trkpt lat="43.7686532" lon="11.5831106"><ele>1111.0</ele><time>2026-04-26T15:58:25.083Z</time></trkpt><trkpt lat="43.7687215" lon="11.5831479"><ele>1111.0</ele><time>2026-04-26T15:58:27.087Z</time></trkpt><trkpt lat="43.7687907" lon="11.5831838"><ele>1111.0</ele><time>2026-04-26T15:58:29.076Z</time></trkpt><trkpt lat="43.768861" lon="11.5832253"><ele>1111.0</ele><time>2026-04-26T15:58:31.105Z</time></trkpt><trkpt lat="43.7689257" lon="11.5832721"><ele>1111.0</ele><time>2026-04-26T15:58:33.085Z</time></trkpt><trkpt lat="43.768984" lon="11.5833201"><ele>1111.0</ele><time>2026-04-26T15:58:35.099Z</time></trkpt><trkpt lat="43.7690425" lon="11.5833775"><ele>1111.0</ele><time>2026-04-26T15:58:37.086Z</time></trkpt><trkpt lat="43.7690957" lon="11.583435"><ele>1111.0</ele><time>2026-04-26T15:58:39.086Z</time></trkpt><trkpt lat="43.7691654" lon="11.5835054"><ele>1111.0</ele><time>2026-04-26T15:58:42.351Z</time></trkpt><trkpt lat="43.7692448" lon="11.5835701"><ele>1111.0</ele><time>2026-04-26T15:58:45.086Z</time></trkpt><trkpt lat="43.7692998" lon="11.5836147"><ele>1111.0</ele><time>2026-04-26T15:58:47.085Z</time></trkpt><trkpt lat="43.7693837" lon="11.58368"><ele>1111.0</ele><time>2026-04-26T15:58:49.077Z</time></trkpt><trkpt lat="43.769456" lon="11.5837535"><ele>1111.0</ele><time>2026-04-26T15:58:51.128Z</time></trkpt><trkpt lat="43.7695257" lon="11.5838581"><ele>1111.0</ele><time>2026-04-26T15:58:53.088Z</time></trkpt><trkpt lat="43.7695854" lon="11.5839495"><ele>1111.0</ele><time>2026-04-26T15:58:55.147Z</time></trkpt><trkpt lat="43.76963" lon="11.5840143"><ele>1110.8333333333333</ele><time>2026-04-26T15:58:56.093Z</time></trkpt><trkpt lat="43.7696961" lon="11.5840997"><ele>1110.6666666666665</ele><time>2026-04-26T15:58:59.008Z</time></trkpt><trkpt lat="43.7697455" lon="11.5841824"><ele>1110.5</ele><time>2026-04-26T15:59:02.013Z</time></trkpt><trkpt lat="43.769796" lon="11.5842448"><ele>1110.3333333333333</ele><time>2026-04-26T15:59:04.027Z</time></trkpt><trkpt lat="43.7698936" lon="11.5843194"><ele>1110.1666666666667</ele><time>2026-04-26T15:59:06.077Z</time></trkpt><trkpt lat="43.7699553" lon="11.5843584"><ele>1110.0</ele><time>2026-04-26T15:59:08.077Z</time></trkpt><trkpt lat="43.7700254" lon="11.5844415"><ele>1108.3333333333333</ele><time>2026-04-26T15:59:10.091Z</time></trkpt><trkpt lat="43.770092" lon="11.584513"><ele>1106.6666666666667</ele><time>2026-04-26T15:59:12.084Z</time></trkpt><trkpt lat="43.7701548" lon="11.5845755"><ele>1105.0</ele><time>2026-04-26T15:59:14.078Z</time></trkpt><trkpt lat="43.7702174" lon="11.5846507"><ele>1103.3333333333335</ele><time>2026-04-26T15:59:16.084Z</time></trkpt><trkpt lat="43.7702763" lon="11.5847438"><ele>1101.6666666666667</ele><time>2026-04-26T15:59:18.074Z</time></trkpt><trkpt lat="43.7703308" lon="11.5848328"><ele>1100.0</ele><time>2026-04-26T15:59:20.084Z</time></trkpt><trkpt lat="43.7703779" lon="11.5849077"><ele>1100.0</ele><time>2026-04-26T15:59:22.076Z</time></trkpt><trkpt lat="43.770393" lon="11.5849987"><ele>1100.0</ele><time>2026-04-26T15:59:24.088Z</time></trkpt><trkpt lat="43.7704126" lon="11.5850898"><ele>1100.0</ele><time>2026-04-26T15:59:26.074Z</time></trkpt><trkpt lat="43.7704391" lon="11.5852099"><ele>1100.0</ele><time>2026-04-26T15:59:28.078Z</time></trkpt><trkpt lat="43.7704488" lon="11.5853415"><ele>1100.0</ele><time>2026-04-26T15:59:30.078Z</time></trkpt><trkpt lat="43.77046" lon="11.5854723"><ele>1100.0</ele><time>2026-04-26T15:59:32.082Z</time></trkpt><trkpt lat="43.7704883" lon="11.5856003"><ele>1101.2</ele><time>2026-04-26T15:59:34.077Z</time></trkpt><trkpt lat="43.7705465" lon="11.5857267"><ele>1102.4</ele><time>2026-04-26T15:59:36.07Z</time></trkpt><trkpt lat="43.770602" lon="11.5858423"><ele>1103.6</ele><time>2026-04-26T15:59:38.075Z</time></trkpt><trkpt lat="43.770672" lon="11.5859182"><ele>1104.8</ele><time>2026-04-26T15:59:40.073Z</time></trkpt><trkpt lat="43.7707555" lon="11.5860161"><ele>1106.0</ele><time>2026-04-26T15:59:42.065Z</time></trkpt><trkpt lat="43.7708242" lon="11.5860806"><ele>1107.6</ele><time>2026-04-26T15:59:44.09Z</time></trkpt><trkpt lat="43.7708914" lon="11.5861782"><ele>1109.1999999999998</ele><time>2026-04-26T15:59:46.085Z</time></trkpt><trkpt lat="43.7709534" lon="11.5862625"><ele>1110.8000000000002</ele><time>2026-04-26T15:59:48.084Z</time></trkpt><trkpt lat="43.7710099" lon="11.5863567"><ele>1112.4</ele><time>2026-04-26T15:59:50.078Z</time></trkpt><trkpt lat="43.7710679" lon="11.5864552"><ele>1114.0</ele><time>2026-04-26T15:59:52.078Z</time></trkpt><trkpt lat="43.7711263" lon="11.5865495"><ele>1109.8333333333333</ele><time>2026-04-26T15:59:54.085Z</time></trkpt><trkpt lat="43.7711824" lon="11.5866334"><ele>1105.6666666666665</ele><time>2026-04-26T15:59:56.077Z</time></trkpt><trkpt lat="43.7712356" lon="11.5867221"><ele>1101.5</ele><time>2026-04-26T15:59:58.083Z</time></trkpt><trkpt lat="43.7712685" lon="11.5868241"><ele>1097.3333333333333</ele><time>2026-04-26T16:00:00.077Z</time></trkpt><trkpt lat="43.7712765" lon="11.5869675"><ele>1093.1666666666667</ele><time>2026-04-26T16:00:02.088Z</time></trkpt><trkpt lat="43.7712857" lon="11.5870801"><ele>1089.0</ele><time>2026-04-26T16:00:04.083Z</time></trkpt><trkpt lat="43.7713041" lon="11.5872272"><ele>1089.0</ele><time>2026-04-26T16:00:06.086Z</time></trkpt><trkpt lat="43.771327" lon="11.5873833"><ele>1089.0</ele><time>2026-04-26T16:00:08.078Z</time></trkpt><trkpt lat="43.7713153" lon="11.5875409"><ele>1089.0</ele><time>2026-04-26T16:00:10.081Z</time></trkpt><trkpt lat="43.7712865" lon="11.5876793"><ele>1089.0</ele><time>2026-04-26T16:00:12.075Z</time></trkpt><trkpt lat="43.7712669" lon="11.5877915"><ele>1089.0</ele><time>2026-04-26T16:00:14.077Z</time></trkpt><trkpt lat="43.7712991" lon="11.5878988"><ele>1089.2</ele><time>2026-04-26T16:00:16.087Z</time></trkpt><trkpt lat="43.7713645" lon="11.5879911"><ele>1089.4</ele><time>2026-04-26T16:00:18.078Z</time></trkpt><trkpt lat="43.7714437" lon="11.5880492"><ele>1089.6</ele><time>2026-04-26T16:00:20.077Z</time></trkpt><trkpt lat="43.7715334" lon="11.5881204"><ele>1089.8</ele><time>2026-04-26T16:00:22.074Z</time></trkpt><trkpt lat="43.7716138" lon="11.5881665"><ele>1090.0</ele><time>2026-04-26T16:00:24.063Z</time></trkpt><trkpt lat="43.7716943" lon="11.5881988"><ele>1090.0</ele><time>2026-04-26T16:00:26.071Z</time></trkpt><trkpt lat="43.7717688" lon="11.5882095"><ele>1090.0</ele><time>2026-04-26T16:00:28.074Z</time></trkpt><trkpt lat="43.7718398" lon="11.5882095"><ele>1090.0</ele><time>2026-04-26T16:00:30.069Z</time></trkpt><trkpt lat="43.7719385" lon="11.5881769"><ele>1090.0</ele><time>2026-04-26T16:00:33.07Z</time></trkpt><trkpt lat="43.7720136" lon="11.588155"><ele>1090.0</ele><time>2026-04-26T16:00:35.079Z</time></trkpt><trkpt lat="43.7720822" lon="11.588129"><ele>1090.0</ele><time>2026-04-26T16:00:37.069Z</time></trkpt><trkpt lat="43.7721509" lon="11.5881002"><ele>1089.5</ele><time>2026-04-26T16:00:39.066Z</time></trkpt><trkpt lat="43.7722278" lon="11.5880622"><ele>1089.0</ele><time>2026-04-26T16:00:41.057Z</time></trkpt><trkpt lat="43.7723324" lon="11.5880076"><ele>1088.5</ele><time>2026-04-26T16:00:43.069Z</time></trkpt><trkpt lat="43.772418" lon="11.5879712"><ele>1088.0</ele><time>2026-04-26T16:00:45.077Z</time></trkpt><trkpt lat="43.7724784" lon="11.5879407"><ele>1087.5</ele><time>2026-04-26T16:00:46.087Z</time></trkpt><trkpt lat="43.7725492" lon="11.5879063"><ele>1087.0</ele><time>2026-04-26T16:00:48.082Z</time></trkpt><trkpt lat="43.7726429" lon="11.5878657"><ele>1084.8333333333333</ele><time>2026-04-26T16:00:50.069Z</time></trkpt><trkpt lat="43.7727457" lon="11.5878012"><ele>1082.6666666666665</ele><time>2026-04-26T16:00:52.065Z</time></trkpt><trkpt lat="43.7728081" lon="11.587736"><ele>1080.5</ele><time>2026-04-26T16:00:54.07Z</time></trkpt><trkpt lat="43.7728676" lon="11.5876476"><ele>1078.3333333333333</ele><time>2026-04-26T16:00:56.075Z</time></trkpt><trkpt lat="43.7729119" lon="11.5875457"><ele>1076.1666666666667</ele><time>2026-04-26T16:00:58.066Z</time></trkpt><trkpt lat="43.7729413" lon="11.58745"><ele>1074.0</ele><time>2026-04-26T16:01:00.07Z</time></trkpt><trkpt lat="43.7729814" lon="11.5873447"><ele>1074.0</ele><time>2026-04-26T16:01:02.077Z</time></trkpt><trkpt lat="43.7730278" lon="11.5872496"><ele>1074.0</ele><time>2026-04-26T16:01:04.084Z</time></trkpt><trkpt lat="43.7730582" lon="11.5871693"><ele>1074.0</ele><time>2026-04-26T16:01:05.082Z</time></trkpt><trkpt lat="43.7730843" lon="11.5870469"><ele>1074.0</ele><time>2026-04-26T16:01:07.074Z</time></trkpt><trkpt lat="43.7731197" lon="11.5869235"><ele>1074.0</ele><time>2026-04-26T16:01:09.086Z</time></trkpt><trkpt lat="43.7731559" lon="11.5868119"><ele>1074.0</ele><time>2026-04-26T16:01:11.077Z</time></trkpt><trkpt lat="43.773216" lon="11.5866841"><ele>1073.0</ele><time>2026-04-26T16:01:13.079Z</time></trkpt><trkpt lat="43.7732677" lon="11.5866138"><ele>1072.0</ele><time>2026-04-26T16:01:15.079Z</time></trkpt><trkpt lat="43.7733294" lon="11.5865025"><ele>1071.0</ele><time>2026-04-26T16:01:17.086Z</time></trkpt><trkpt lat="43.7733801" lon="11.5864115"><ele>1070.0</ele><time>2026-04-26T16:01:19.083Z</time></trkpt><trkpt lat="43.773434" lon="11.5863411"><ele>1069.0</ele><time>2026-04-26T16:01:21.076Z</time></trkpt><trkpt lat="43.7734888" lon="11.586278"><ele>1068.0</ele><time>2026-04-26T16:01:23.073Z</time></trkpt><trkpt lat="43.7735372" lon="11.5862109"><ele>1066.8333333333333</ele><time>2026-04-26T16:01:25.086Z</time></trkpt><trkpt lat="43.7735679" lon="11.5861229"><ele>1065.6666666666667</ele><time>2026-04-26T16:01:29.092Z</time></trkpt><trkpt lat="43.7736388" lon="11.5860525"><ele>1064.5</ele><time>2026-04-26T16:01:57.073Z</time></trkpt><trkpt lat="43.7736832" lon="11.5859883"><ele>1063.3333333333335</ele><time>2026-04-26T16:01:59.08Z</time></trkpt><trkpt lat="43.7737416" lon="11.5859175"><ele>1062.1666666666667</ele><time>2026-04-26T16:02:01.096Z</time></trkpt><trkpt lat="43.7737982" lon="11.5858617"><ele>1061.0</ele><time>2026-04-26T16:02:03.073Z</time></trkpt><trkpt lat="43.7738719" lon="11.5857746"><ele>1061.0</ele><time>2026-04-26T16:02:05.079Z</time></trkpt><trkpt lat="43.7739336" lon="11.585723"><ele>1061.0</ele><time>2026-04-26T16:02:06.084Z</time></trkpt><trkpt lat="43.7739972" lon="11.5856646"><ele>1061.0</ele><time>2026-04-26T16:02:08.079Z</time></trkpt><trkpt lat="43.7740552" lon="11.5855795"><ele>1061.0</ele><time>2026-04-26T16:02:10.087Z</time></trkpt><trkpt lat="43.7741299" lon="11.5854981"><ele>1061.0</ele><time>2026-04-26T16:02:13.078Z</time></trkpt><trkpt lat="43.7741833" lon="11.5854242"><ele>1061.0</ele><time>2026-04-26T16:02:16.086Z</time></trkpt><trkpt lat="43.7742621" lon="11.5853558"><ele>1059.0000000000002</ele><time>2026-04-26T16:02:20.091Z</time></trkpt><trkpt lat="43.7743164" lon="11.5853107"><ele>1057.0</ele><time>2026-04-26T16:02:22.097Z</time></trkpt><trkpt lat="43.7743723" lon="11.58527"><ele>1055.0</ele><time>2026-04-26T16:02:25.087Z</time></trkpt><trkpt lat="43.7744365" lon="11.5852102"><ele>1053.0</ele><time>2026-04-26T16:02:29.086Z</time></trkpt><trkpt lat="43.7745034" lon="11.5851631"><ele>1051.0</ele><time>2026-04-26T16:02:31.082Z</time></trkpt><trkpt lat="43.7745807" lon="11.5851105"><ele>1049.0000000000002</ele><time>2026-04-26T16:02:33.084Z</time></trkpt><trkpt lat="43.7746403" lon="11.5850739"><ele>1047.0</ele><time>2026-04-26T16:02:36.089Z</time></trkpt><trkpt lat="43.7747105" lon="11.5851002"><ele>1046.5</ele><time>2026-04-26T16:02:39.098Z</time></trkpt><trkpt lat="43.7747814" lon="11.585166"><ele>1046.0</ele><time>2026-04-26T16:02:42.088Z</time></trkpt><trkpt lat="43.7748446" lon="11.5851767"><ele>1045.5</ele><time>2026-04-26T16:02:44.079Z</time></trkpt><trkpt lat="43.7749194" lon="11.585149"><ele>1045.0</ele><time>2026-04-26T16:02:46.084Z</time></trkpt><trkpt lat="43.7749624" lon="11.5850849"><ele>1044.5</ele><time>2026-04-26T16:02:48.074Z</time></trkpt><trkpt lat="43.774957" lon="11.5849648"><ele>1044.0</ele><time>2026-04-26T16:02:51.072Z</time></trkpt><trkpt lat="43.7748781" lon="11.5848897"><ele>1044.0</ele><time>2026-04-26T16:02:54.072Z</time></trkpt><trkpt lat="43.7748251" lon="11.5848166"><ele>1044.0</ele><time>2026-04-26T16:02:57.081Z</time></trkpt><trkpt lat="43.7747663" lon="11.5847303"><ele>1044.0</ele><time>2026-04-26T16:03:00.071Z</time></trkpt><trkpt lat="43.774733" lon="11.5846497"><ele>1044.0</ele><time>2026-04-26T16:03:03.089Z</time></trkpt><trkpt lat="43.7747461" lon="11.5845632"><ele>1044.0</ele><time>2026-04-26T16:03:09.094Z</time></trkpt><trkpt lat="43.7747476" lon="11.5846534"><ele>1044.0</ele><time>2026-04-26T16:03:23.029Z</time></trkpt><trkpt lat="43.7748021" lon="11.5847082"><ele>1044.0</ele><time>2026-04-26T16:03:58.08Z</time></trkpt><trkpt lat="43.7747883" lon="11.5848"><ele>1044.0</ele><time>2026-04-26T16:04:22.016Z</time></trkpt><trkpt lat="43.7748503" lon="11.5848509"><ele>1044.0</ele><time>2026-04-26T16:04:28.061Z</time></trkpt><trkpt lat="43.7748978" lon="11.5849118"><ele>1044.0</ele><time>2026-04-26T16:04:32.062Z</time></trkpt><trkpt lat="43.7749174" lon="11.5849961"><ele>1044.0</ele><time>2026-04-26T16:04:36.073Z</time></trkpt><trkpt lat="43.7749654" lon="11.585059"><ele>1044.0</ele><time>2026-04-26T16:04:52.037Z</time></trkpt><trkpt lat="43.7749558" lon="11.5849598"><ele>1044.0</ele><time>2026-04-26T16:05:21.081Z</time></trkpt><trkpt lat="43.7748893" lon="11.5849147"><ele>1044.0</ele><time>2026-04-26T16:05:30.022Z</time></trkpt><trkpt lat="43.7748578" lon="11.5848378"><ele>1044.0</ele><time>2026-04-26T16:05:35.047Z</time></trkpt><trkpt lat="43.7748158" lon="11.5847709"><ele>1044.0</ele><time>2026-04-26T16:05:42.03Z</time></trkpt><trkpt lat="43.7747908" lon="11.5846737"><ele>1044.0</ele><time>2026-04-26T16:05:51.043Z</time></trkpt><trkpt lat="43.7747457" lon="11.5846083"><ele>1044.0</ele><time>2026-04-26T16:05:59.052Z</time></trkpt><trkpt lat="43.7747299" lon="11.584413"><ele>1044.0</ele><time>2026-04-26T16:06:32.019Z</time></trkpt><trkpt lat="43.7747325" lon="11.5843027"><ele>1044.0</ele><time>2026-04-26T16:06:35.02Z</time></trkpt><trkpt lat="43.77476" lon="11.5842162"><ele>1042.7142857142858</ele><time>2026-04-26T16:06:39.051Z</time></trkpt><trkpt lat="43.7747874" lon="11.5841179"><ele>1041.4285714285713</ele><time>2026-04-26T16:06:43.023Z</time></trkpt><trkpt lat="43.7748054" lon="11.5840069"><ele>1040.142857142857</ele><time>2026-04-26T16:06:46.039Z</time></trkpt><trkpt lat="43.7748157" lon="11.583897"><ele>1038.857142857143</ele><time>2026-04-26T16:06:49.028Z</time></trkpt><trkpt lat="43.7748304" lon="11.5838058"><ele>1037.5714285714287</ele><time>2026-04-26T16:06:51.031Z</time></trkpt><trkpt lat="43.774849" lon="11.5837225"><ele>1036.2857142857142</ele><time>2026-04-26T16:06:53.082Z</time></trkpt><trkpt lat="43.7748706" lon="11.5836313"><ele>1035.0</ele><time>2026-04-26T16:06:55.031Z</time></trkpt><trkpt lat="43.7748569" lon="11.5835003"><ele>1034.0</ele><time>2026-04-26T16:06:58.034Z</time></trkpt><trkpt lat="43.7748195" lon="11.5834263"><ele>1033.0</ele><time>2026-04-26T16:07:00.033Z</time></trkpt><trkpt lat="43.7747601" lon="11.5833779"><ele>1032.0</ele><time>2026-04-26T16:07:02.017Z</time></trkpt><trkpt lat="43.7746892" lon="11.5833448"><ele>1031.0</ele><time>2026-04-26T16:07:04.017Z</time></trkpt><trkpt lat="43.7746176" lon="11.583324"><ele>1030.0</ele><time>2026-04-26T16:07:06.019Z</time></trkpt><trkpt lat="43.7745423" lon="11.5833361"><ele>1029.0</ele><time>2026-04-26T16:07:08.02Z</time></trkpt><trkpt lat="43.7744662" lon="11.5833419"><ele>1028.0</ele><time>2026-04-26T16:07:10.03Z</time></trkpt><trkpt lat="43.7743926" lon="11.5833688"><ele>1027.5</ele><time>2026-04-26T16:07:12.037Z</time></trkpt><trkpt lat="43.7743237" lon="11.583401"><ele>1027.0</ele><time>2026-04-26T16:07:14.037Z</time></trkpt><trkpt lat="43.7742508" lon="11.583446"><ele>1026.5</ele><time>2026-04-26T16:07:17.026Z</time></trkpt><trkpt lat="43.7741913" lon="11.5834851"><ele>1026.0</ele><time>2026-04-26T16:07:19.03Z</time></trkpt><trkpt lat="43.77414" lon="11.5835418"><ele>1025.5</ele><time>2026-04-26T16:07:21.023Z</time></trkpt><trkpt lat="43.7740687" lon="11.5836002"><ele>1025.0</ele><time>2026-04-26T16:07:24.026Z</time></trkpt><trkpt lat="43.7739931" lon="11.5836677"><ele>1026.8333333333335</ele><time>2026-04-26T16:07:27.018Z</time></trkpt><trkpt lat="43.7739213" lon="11.5837213"><ele>1028.6666666666667</ele><time>2026-04-26T16:07:29.017Z</time></trkpt><trkpt lat="43.7738576" lon="11.5837367"><ele>1030.5</ele><time>2026-04-26T16:07:31.02Z</time></trkpt><trkpt lat="43.7737823" lon="11.583791"><ele>1032.3333333333333</ele><time>2026-04-26T16:07:34.017Z</time></trkpt><trkpt lat="43.7737247" lon="11.5838279"><ele>1034.1666666666665</ele><time>2026-04-26T16:07:36.03Z</time></trkpt><trkpt lat="43.7736452" lon="11.5838621"><ele>1036.0</ele><time>2026-04-26T16:07:39.015Z</time></trkpt><trkpt lat="43.7735606" lon="11.5838994"><ele>1035.8333333333333</ele><time>2026-04-26T16:07:42.012Z</time></trkpt><trkpt lat="43.7734951" lon="11.583955"><ele>1035.6666666666665</ele><time>2026-04-26T16:07:45.014Z</time></trkpt><trkpt lat="43.7734312" lon="11.5839975"><ele>1035.5</ele><time>2026-04-26T16:07:49.012Z</time></trkpt><trkpt lat="43.7733702" lon="11.5839289"><ele>1035.3333333333333</ele><time>2026-04-26T16:07:53.014Z</time></trkpt><trkpt lat="43.7733436" lon="11.5838349"><ele>1035.1666666666667</ele><time>2026-04-26T16:07:56.018Z</time></trkpt><trkpt lat="43.7733361" lon="11.5837434"><ele>1035.0</ele><time>2026-04-26T16:08:02.017Z</time></trkpt><trkpt lat="43.7733621" lon="11.5836163"><ele>1033.5714285714284</ele><time>2026-04-26T16:08:06.011Z</time></trkpt><trkpt lat="43.7733866" lon="11.5835329"><ele>1032.142857142857</ele><time>2026-04-26T16:08:08.028Z</time></trkpt><trkpt lat="43.7734076" lon="11.5834414"><ele>1030.7142857142858</ele><time>2026-04-26T16:08:10.025Z</time></trkpt><trkpt lat="43.7734439" lon="11.5833413"><ele>1029.2857142857142</ele><time>2026-04-26T16:08:12.018Z</time></trkpt><trkpt lat="43.7734815" lon="11.5832496"><ele>1027.857142857143</ele><time>2026-04-26T16:08:14.023Z</time></trkpt><trkpt lat="43.7735073" lon="11.583158"><ele>1026.4285714285713</ele><time>2026-04-26T16:08:16.023Z</time></trkpt><trkpt lat="43.7735329" lon="11.5830722"><ele>1025.0</ele><time>2026-04-26T16:08:18.022Z</time></trkpt><trkpt lat="43.7735596" lon="11.5829568"><ele>1025.0</ele><time>2026-04-26T16:08:20.018Z</time></trkpt><trkpt lat="43.7735779" lon="11.5828683"><ele>1025.0</ele><time>2026-04-26T16:08:22.035Z</time></trkpt><trkpt lat="43.7736103" lon="11.5827795"><ele>1025.0</ele><time>2026-04-26T16:08:24.055Z</time></trkpt><trkpt lat="43.7736232" lon="11.5826699"><ele>1025.0</ele><time>2026-04-26T16:08:27.027Z</time></trkpt><trkpt lat="43.7736138" lon="11.5825813"><ele>1025.0</ele><time>2026-04-26T16:08:30.028Z</time></trkpt><trkpt lat="43.7736281" lon="11.5824752"><ele>1025.0</ele><time>2026-04-26T16:08:33.017Z</time></trkpt><trkpt lat="43.7736813" lon="11.5823729"><ele>1023.3333333333334</ele><time>2026-04-26T16:08:36.022Z</time></trkpt><trkpt lat="43.7737136" lon="11.5822699"><ele>1021.6666666666667</ele><time>2026-04-26T16:08:39.024Z</time></trkpt><trkpt lat="43.7737324" lon="11.5821594"><ele>1020.0</ele><time>2026-04-26T16:08:41.025Z</time></trkpt><trkpt lat="43.7737581" lon="11.5820364"><ele>1018.3333333333333</ele><time>2026-04-26T16:08:43.02Z</time></trkpt><trkpt lat="43.7737852" lon="11.5819366"><ele>1016.6666666666666</ele><time>2026-04-26T16:08:45.026Z</time></trkpt><trkpt lat="43.7738081" lon="11.5818454"><ele>1015.0</ele><time>2026-04-26T16:08:47.018Z</time></trkpt><trkpt lat="43.7737924" lon="11.5817276"><ele>1013.4999999999999</ele><time>2026-04-26T16:08:50.02Z</time></trkpt><trkpt lat="43.7737649" lon="11.5816113"><ele>1012.0</ele><time>2026-04-26T16:08:53.02Z</time></trkpt><trkpt lat="43.7737726" lon="11.5815058"><ele>1010.5</ele><time>2026-04-26T16:08:56.037Z</time></trkpt><trkpt lat="43.773773" lon="11.5813816"><ele>1009.0</ele><time>2026-04-26T16:08:59.024Z</time></trkpt><trkpt lat="43.773847" lon="11.5813325"><ele>1007.4999999999999</ele><time>2026-04-26T16:09:02.02Z</time></trkpt><trkpt lat="43.7739275" lon="11.5813003"><ele>1006.0</ele><time>2026-04-26T16:09:05.023Z</time></trkpt><trkpt lat="43.7739968" lon="11.5812819"><ele>1006.0</ele><time>2026-04-26T16:09:07.013Z</time></trkpt><trkpt lat="43.7740733" lon="11.5812407"><ele>1005.9999999999999</ele><time>2026-04-26T16:09:09.024Z</time></trkpt><trkpt lat="43.7741753" lon="11.5811871"><ele>1005.9999999999999</ele><time>2026-04-26T16:09:11.03Z</time></trkpt><trkpt lat="43.7742607" lon="11.5811143"><ele>1006.0</ele><time>2026-04-26T16:09:13.022Z</time></trkpt><trkpt lat="43.7743104" lon="11.58102"><ele>1006.0</ele><time>2026-04-26T16:09:15.023Z</time></trkpt><trkpt lat="43.7743551" lon="11.5809169"><ele>1004.8333333333333</ele><time>2026-04-26T16:09:17.017Z</time></trkpt><trkpt lat="43.7743651" lon="11.5807898"><ele>1003.6666666666666</ele><time>2026-04-26T16:09:19.008Z</time></trkpt><trkpt lat="43.7743942" lon="11.5806802"><ele>1002.5</ele><time>2026-04-26T16:09:21.024Z</time></trkpt><trkpt lat="43.7744128" lon="11.5805819"><ele>1001.3333333333333</ele><time>2026-04-26T16:09:23.012Z</time></trkpt><trkpt lat="43.7744523" lon="11.5804934"><ele>1000.1666666666666</ele><time>2026-04-26T16:09:25.024Z</time></trkpt><trkpt lat="43.774485" lon="11.5804169"><ele>999.0</ele><time>2026-04-26T16:09:27.028Z</time></trkpt><trkpt lat="43.7745288" lon="11.5803426"><ele>998.0</ele><time>2026-04-26T16:09:29.02Z</time></trkpt><trkpt lat="43.7745805" lon="11.5802762"><ele>997.0000000000001</ele><time>2026-04-26T16:09:31.027Z</time></trkpt><trkpt lat="43.7746357" lon="11.5802242"><ele>996.0</ele><time>2026-04-26T16:09:33.027Z</time></trkpt><trkpt lat="43.7746911" lon="11.5801638"><ele>995.0</ele><time>2026-04-26T16:09:35.027Z</time></trkpt><trkpt lat="43.7747515" lon="11.5801063"><ele>994.0000000000001</ele><time>2026-04-26T16:09:37.028Z</time></trkpt><trkpt lat="43.7747794" lon="11.5800186"><ele>993.0</ele><time>2026-04-26T16:09:40.037Z</time></trkpt><trkpt lat="43.7748183" lon="11.5799439"><ele>992.0</ele><time>2026-04-26T16:09:42.023Z</time></trkpt><trkpt lat="43.774858" lon="11.5798234"><ele>992.0000000000001</ele><time>2026-04-26T16:09:45.024Z</time></trkpt><trkpt lat="43.7748794" lon="11.5797411"><ele>992.0</ele><time>2026-04-26T16:09:47.015Z</time></trkpt><trkpt lat="43.7749428" lon="11.5795831"><ele>992.0</ele><time>2026-04-26T16:09:50.015Z</time></trkpt><trkpt lat="43.7749669" lon="11.5794874"><ele>992.0</ele><time>2026-04-26T16:09:52.014Z</time></trkpt><trkpt lat="43.7749986" lon="11.5793925"><ele>992.0000000000001</ele><time>2026-04-26T16:09:54.026Z</time></trkpt><trkpt lat="43.7750316" lon="11.5793028"><ele>992.0</ele><time>2026-04-26T16:09:56.024Z</time></trkpt><trkpt lat="43.7750733" lon="11.5792092"><ele>991.0000000000001</ele><time>2026-04-26T16:09:58.017Z</time></trkpt><trkpt lat="43.7751188" lon="11.5791138"><ele>990.0</ele><time>2026-04-26T16:10:00.014Z</time></trkpt><trkpt lat="43.7751596" lon="11.5789895"><ele>989.0</ele><time>2026-04-26T16:10:02.024Z</time></trkpt><trkpt lat="43.7752223" lon="11.5789147"><ele>988.0</ele><time>2026-04-26T16:10:04.016Z</time></trkpt><trkpt lat="43.7752955" lon="11.5788674"><ele>987.0000000000001</ele><time>2026-04-26T16:10:06.023Z</time></trkpt><trkpt lat="43.7753871" lon="11.578805"><ele>986.0</ele><time>2026-04-26T16:10:08.028Z</time></trkpt><trkpt lat="43.7754291" lon="11.5786868"><ele>983.6666666666667</ele><time>2026-04-26T16:10:10.942Z</time></trkpt><trkpt lat="43.7755026" lon="11.5785774"><ele>981.3333333333334</ele><time>2026-04-26T16:10:13.019Z</time></trkpt><trkpt lat="43.7755602" lon="11.5784681"><ele>979.0</ele><time>2026-04-26T16:10:15.021Z</time></trkpt><trkpt lat="43.7756048" lon="11.5783721"><ele>976.6666666666667</ele><time>2026-04-26T16:10:17.01Z</time></trkpt><trkpt lat="43.775629" lon="11.5782764"><ele>974.3333333333334</ele><time>2026-04-26T16:10:19.024Z</time></trkpt><trkpt lat="43.7756427" lon="11.5781861"><ele>972.0</ele><time>2026-04-26T16:10:21.019Z</time></trkpt><trkpt lat="43.7756507" lon="11.5780928"><ele>972.0</ele><time>2026-04-26T16:10:23.025Z</time></trkpt><trkpt lat="43.7756599" lon="11.5779886"><ele>972.0</ele><time>2026-04-26T16:10:26.957Z</time></trkpt><trkpt lat="43.7756231" lon="11.5779076"><ele>972.0</ele><time>2026-04-26T16:10:31.022Z</time></trkpt><trkpt lat="43.7755813" lon="11.5777997"><ele>972.0</ele><time>2026-04-26T16:10:33.96Z</time></trkpt><trkpt lat="43.7755613" lon="11.5777132"><ele>972.0</ele><time>2026-04-26T16:10:36.027Z</time></trkpt><trkpt lat="43.7755316" lon="11.5776044"><ele>972.0</ele><time>2026-04-26T16:10:39.016Z</time></trkpt><trkpt lat="43.77551" lon="11.5774902"><ele>971.8333333333334</ele><time>2026-04-26T16:10:42.018Z</time></trkpt><trkpt lat="43.7754822" lon="11.5773822"><ele>971.6666666666667</ele><time>2026-04-26T16:10:45.048Z</time></trkpt><trkpt lat="43.7754409" lon="11.5772826"><ele>971.5</ele><time>2026-04-26T16:10:48.016Z</time></trkpt><trkpt lat="43.7754052" lon="11.5771992"><ele>971.3333333333334</ele><time>2026-04-26T16:10:50.019Z</time></trkpt><trkpt lat="43.7753597" lon="11.577121"><ele>971.1666666666667</ele><time>2026-04-26T16:10:52.019Z</time></trkpt><trkpt lat="43.7753256" lon="11.5770286"><ele>971.0</ele><time>2026-04-26T16:10:54.039Z</time></trkpt><trkpt lat="43.7753013" lon="11.5769417"><ele>972.1666666666667</ele><time>2026-04-26T16:10:56.041Z</time></trkpt><trkpt lat="43.775275" lon="11.5768493"><ele>973.3333333333334</ele><time>2026-04-26T16:10:58.023Z</time></trkpt><trkpt lat="43.7752498" lon="11.5767573"><ele>974.5</ele><time>2026-04-26T16:11:00.029Z</time></trkpt><trkpt lat="43.7752334" lon="11.5766649"><ele>975.6666666666667</ele><time>2026-04-26T16:11:02.025Z</time></trkpt><trkpt lat="43.7752164" lon="11.576562"><ele>976.8333333333334</ele><time>2026-04-26T16:11:04.027Z</time></trkpt><trkpt lat="43.7751993" lon="11.5764614"><ele>978.0</ele><time>2026-04-26T16:11:06.025Z</time></trkpt><trkpt lat="43.7751641" lon="11.5763505"><ele>978.0</ele><time>2026-04-26T16:11:09.03Z</time></trkpt><trkpt lat="43.77514" lon="11.5762331"><ele>978.0</ele><time>2026-04-26T16:11:12.029Z</time></trkpt><trkpt lat="43.7751159" lon="11.5761323"><ele>978.0</ele><time>2026-04-26T16:11:14.015Z</time></trkpt><trkpt lat="43.7750874" lon="11.5760467"><ele>978.0</ele><time>2026-04-26T16:11:16.037Z</time></trkpt><trkpt lat="43.775055" lon="11.5759524"><ele>978.0</ele><time>2026-04-26T16:11:18.019Z</time></trkpt><trkpt lat="43.7750172" lon="11.5758512"><ele>978.0</ele><time>2026-04-26T16:11:20.025Z</time></trkpt><trkpt lat="43.7749859" lon="11.5757289"><ele>978.0</ele><time>2026-04-26T16:11:22.035Z</time></trkpt><trkpt lat="43.7749551" lon="11.5756397"><ele>978.0</ele><time>2026-04-26T16:11:24.029Z</time></trkpt><trkpt lat="43.774907" lon="11.5755464"><ele>978.0</ele><time>2026-04-26T16:11:26.027Z</time></trkpt><trkpt lat="43.774869" lon="11.5754442"><ele>978.0</ele><time>2026-04-26T16:11:28.032Z</time></trkpt><trkpt lat="43.7748166" lon="11.5753328"><ele>978.0</ele><time>2026-04-26T16:11:30.022Z</time></trkpt><trkpt lat="43.7747691" lon="11.5752431"><ele>978.0</ele><time>2026-04-26T16:11:32.03Z</time></trkpt><trkpt lat="43.7747292" lon="11.5751496"><ele>977.6666666666666</ele><time>2026-04-26T16:11:34.034Z</time></trkpt><trkpt lat="43.7746836" lon="11.5750532"><ele>977.3333333333333</ele><time>2026-04-26T16:11:36.018Z</time></trkpt><trkpt lat="43.774632" lon="11.5749609"><ele>977.0</ele><time>2026-04-26T16:11:38.044Z</time></trkpt><trkpt lat="43.7745881" lon="11.5748687"><ele>976.6666666666666</ele><time>2026-04-26T16:11:40.026Z</time></trkpt><trkpt lat="43.7745515" lon="11.574779"><ele>976.3333333333333</ele><time>2026-04-26T16:11:42.02Z</time></trkpt><trkpt lat="43.7745224" lon="11.5746878"><ele>976.0</ele><time>2026-04-26T16:11:44.034Z</time></trkpt><trkpt lat="43.7744933" lon="11.5745998"><ele>975.8571428571427</ele><time>2026-04-26T16:11:46.027Z</time></trkpt><trkpt lat="43.7744821" lon="11.5745066"><ele>975.7142857142857</ele><time>2026-04-26T16:11:48.024Z</time></trkpt><trkpt lat="43.7744695" lon="11.5743834"><ele>975.5714285714284</ele><time>2026-04-26T16:11:51.016Z</time></trkpt><trkpt lat="43.7744651" lon="11.5742934"><ele>975.4285714285713</ele><time>2026-04-26T16:11:53.035Z</time></trkpt><trkpt lat="43.7744552" lon="11.5741968"><ele>975.2857142857142</ele><time>2026-04-26T16:11:55.03Z</time></trkpt><trkpt lat="43.7744433" lon="11.5740983"><ele>975.1428571428571</ele><time>2026-04-26T16:11:57.029Z</time></trkpt><trkpt lat="43.774437" lon="11.5739974"><ele>975.0</ele><time>2026-04-26T16:11:59.029Z</time></trkpt><trkpt lat="43.7744361" lon="11.5738829"><ele>975.0</ele><time>2026-04-26T16:12:02.037Z</time></trkpt><trkpt lat="43.7744454" lon="11.5737643"><ele>975.0</ele><time>2026-04-26T16:12:05.027Z</time></trkpt><trkpt lat="43.7744244" lon="11.5736542"><ele>975.0</ele><time>2026-04-26T16:12:08.021Z</time></trkpt><trkpt lat="43.7743905" lon="11.5735441"><ele>975.0</ele><time>2026-04-26T16:12:11.037Z</time></trkpt><trkpt lat="43.7743552" lon="11.5734546"><ele>975.0</ele><time>2026-04-26T16:12:13.027Z</time></trkpt><trkpt lat="43.7743139" lon="11.5733797"><ele>975.0</ele><time>2026-04-26T16:12:15.04Z</time></trkpt><trkpt lat="43.7742588" lon="11.5732716"><ele>974.5</ele><time>2026-04-26T16:12:18.023Z</time></trkpt><trkpt lat="43.774207" lon="11.5731961"><ele>974.0</ele><time>2026-04-26T16:12:20.026Z</time></trkpt><trkpt lat="43.7741458" lon="11.573124"><ele>973.5</ele><time>2026-04-26T16:12:22.017Z</time></trkpt><trkpt lat="43.7740815" lon="11.5730545"><ele>973.0</ele><time>2026-04-26T16:12:24.039Z</time></trkpt><trkpt lat="43.7740141" lon="11.5729627"><ele>972.5</ele><time>2026-04-26T16:12:26.022Z</time></trkpt><trkpt lat="43.7739349" lon="11.5728729"><ele>972.0</ele><time>2026-04-26T16:12:28.053Z</time></trkpt><trkpt lat="43.7738605" lon="11.5728132"><ele>970.3333333333334</ele><time>2026-04-26T16:12:30.015Z</time></trkpt><trkpt lat="43.7737918" lon="11.5727557"><ele>968.6666666666667</ele><time>2026-04-26T16:12:32.037Z</time></trkpt><trkpt lat="43.7737265" lon="11.5727172"><ele>967.0</ele><time>2026-04-26T16:12:34.02Z</time></trkpt><trkpt lat="43.7736445" lon="11.5726702"><ele>965.3333333333334</ele><time>2026-04-26T16:12:36.031Z</time></trkpt><trkpt lat="43.7735823" lon="11.5726299"><ele>963.6666666666667</ele><time>2026-04-26T16:12:38.032Z</time></trkpt><trkpt lat="43.7735105" lon="11.5725866"><ele>962.0</ele><time>2026-04-26T16:12:40.026Z</time></trkpt><trkpt lat="43.7734444" lon="11.5725282"><ele>961.6666666666667</ele><time>2026-04-26T16:12:43.018Z</time></trkpt><trkpt lat="43.773392" lon="11.5724568"><ele>961.3333333333334</ele><time>2026-04-26T16:12:46.031Z</time></trkpt><trkpt lat="43.7733404" lon="11.5723486"><ele>961.0</ele><time>2026-04-26T16:12:49.023Z</time></trkpt><trkpt lat="43.7732994" lon="11.57226"><ele>960.6666666666667</ele><time>2026-04-26T16:12:51.017Z</time></trkpt><trkpt lat="43.7732636" lon="11.572166"><ele>960.3333333333334</ele><time>2026-04-26T16:12:53.023Z</time></trkpt><trkpt lat="43.7732197" lon="11.572033"><ele>960.0</ele><time>2026-04-26T16:12:56.018Z</time></trkpt><trkpt lat="43.7732043" lon="11.5719353"><ele>959.8333333333334</ele><time>2026-04-26T16:12:58.034Z</time></trkpt><trkpt lat="43.7731968" lon="11.571813"><ele>959.6666666666667</ele><time>2026-04-26T16:13:01.032Z</time></trkpt><trkpt lat="43.7731979" lon="11.5717189"><ele>959.5</ele><time>2026-04-26T16:13:03.026Z</time></trkpt><trkpt lat="43.7731931" lon="11.5715869"><ele>959.3333333333334</ele><time>2026-04-26T16:13:06.042Z</time></trkpt><trkpt lat="43.7731803" lon="11.5714923"><ele>959.1666666666667</ele><time>2026-04-26T16:13:08.023Z</time></trkpt><trkpt lat="43.7731665" lon="11.571405"><ele>959.0</ele><time>2026-04-26T16:13:10.034Z</time></trkpt><trkpt lat="43.7731241" lon="11.5713174"><ele>959.0000000000001</ele><time>2026-04-26T16:13:12.024Z</time></trkpt><trkpt lat="43.7730711" lon="11.5712217"><ele>959.0</ele><time>2026-04-26T16:13:15.024Z</time></trkpt><trkpt lat="43.7730289" lon="11.5711528"><ele>959.0</ele><time>2026-04-26T16:13:17.025Z</time></trkpt><trkpt lat="43.7729897" lon="11.5710281"><ele>959.0</ele><time>2026-04-26T16:13:20.018Z</time></trkpt><trkpt lat="43.7729753" lon="11.5709325"><ele>959.0000000000001</ele><time>2026-04-26T16:13:22.029Z</time></trkpt><trkpt lat="43.7729602" lon="11.5707868"><ele>959.0</ele><time>2026-04-26T16:13:24.025Z</time></trkpt><trkpt lat="43.7729415" lon="11.570693"><ele>959.1666666666667</ele><time>2026-04-26T16:13:26.025Z</time></trkpt><trkpt lat="43.772928" lon="11.5705853"><ele>959.3333333333334</ele><time>2026-04-26T16:13:29.019Z</time></trkpt><trkpt lat="43.7729045" lon="11.5704789"><ele>959.5</ele><time>2026-04-26T16:13:32.027Z</time></trkpt><trkpt lat="43.7728773" lon="11.5703956"><ele>959.6666666666667</ele><time>2026-04-26T16:13:34.024Z</time></trkpt><trkpt lat="43.7728437" lon="11.5702998"><ele>959.8333333333334</ele><time>2026-04-26T16:13:36.024Z</time></trkpt><trkpt lat="43.772799" lon="11.5702101"><ele>960.0</ele><time>2026-04-26T16:13:38.026Z</time></trkpt><trkpt lat="43.7727652" lon="11.5701211"><ele>960.5</ele><time>2026-04-26T16:13:40.018Z</time></trkpt><trkpt lat="43.7727592" lon="11.5700197"><ele>961.0</ele><time>2026-04-26T16:13:42.015Z</time></trkpt><trkpt lat="43.7727592" lon="11.5699266"><ele>961.5</ele><time>2026-04-26T16:13:44.029Z</time></trkpt><trkpt lat="43.7727471" lon="11.5698048"><ele>962.0</ele><time>2026-04-26T16:13:46.02Z</time></trkpt><trkpt lat="43.7727146" lon="11.5696897"><ele>962.5</ele><time>2026-04-26T16:13:48.043Z</time></trkpt><trkpt lat="43.7726582" lon="11.5696239"><ele>963.0</ele><time>2026-04-26T16:13:50.021Z</time></trkpt><trkpt lat="43.7725915" lon="11.5695781"><ele>963.2857142857144</ele><time>2026-04-26T16:13:53.024Z</time></trkpt><trkpt lat="43.7725294" lon="11.5695518"><ele>963.5714285714287</ele><time>2026-04-26T16:13:55.029Z</time></trkpt><trkpt lat="43.7724608" lon="11.5695449"><ele>963.8571428571429</ele><time>2026-04-26T16:13:57.022Z</time></trkpt><trkpt lat="43.7723668" lon="11.5695145"><ele>964.1428571428572</ele><time>2026-04-26T16:14:00.029Z</time></trkpt><trkpt lat="43.7723025" lon="11.5694749"><ele>964.4285714285716</ele><time>2026-04-26T16:14:02.019Z</time></trkpt><trkpt lat="43.7722344" lon="11.5694209"><ele>964.7142857142857</ele><time>2026-04-26T16:14:05.02Z</time></trkpt><trkpt lat="43.7721845" lon="11.5693618"><ele>965.0</ele><time>2026-04-26T16:14:08.029Z</time></trkpt><trkpt lat="43.7721087" lon="11.5693078"><ele>967.1666666666667</ele><time>2026-04-26T16:14:11.024Z</time></trkpt><trkpt lat="43.7720441" lon="11.5692413"><ele>969.3333333333334</ele><time>2026-04-26T16:14:14.025Z</time></trkpt><trkpt lat="43.7719804" lon="11.5692014"><ele>971.5</ele><time>2026-04-26T16:14:18.032Z</time></trkpt><trkpt lat="43.7719123" lon="11.5691285"><ele>973.6666666666667</ele><time>2026-04-26T16:14:21.018Z</time></trkpt><trkpt lat="43.7718452" lon="11.5690673"><ele>975.8333333333334</ele><time>2026-04-26T16:14:24.019Z</time></trkpt><trkpt lat="43.7717862" lon="11.5689979"><ele>978.0</ele><time>2026-04-26T16:14:27.02Z</time></trkpt><trkpt lat="43.7717262" lon="11.5689127"><ele>978.8333333333334</ele><time>2026-04-26T16:14:30.03Z</time></trkpt><trkpt lat="43.7716464" lon="11.5688272"><ele>979.6666666666667</ele><time>2026-04-26T16:14:33.023Z</time></trkpt><trkpt lat="43.771587" lon="11.5687422"><ele>980.5</ele><time>2026-04-26T16:14:36.025Z</time></trkpt><trkpt lat="43.7715392" lon="11.5686828"><ele>981.3333333333334</ele><time>2026-04-26T16:14:39.025Z</time></trkpt><trkpt lat="43.771482" lon="11.568623"><ele>982.1666666666667</ele><time>2026-04-26T16:14:42.017Z</time></trkpt><trkpt lat="43.7714249" lon="11.5685759"><ele>983.0</ele><time>2026-04-26T16:14:45.027Z</time></trkpt><trkpt lat="43.7713687" lon="11.5685177"><ele>984.0000000000001</ele><time>2026-04-26T16:14:48.026Z</time></trkpt><trkpt lat="43.7712945" lon="11.5684489"><ele>985.0</ele><time>2026-04-26T16:14:51.019Z</time></trkpt><trkpt lat="43.7712368" lon="11.568389"><ele>986.0</ele><time>2026-04-26T16:14:53.03Z</time></trkpt><trkpt lat="43.7711892" lon="11.568318"><ele>987.0</ele><time>2026-04-26T16:14:55.022Z</time></trkpt><trkpt lat="43.7711307" lon="11.5682237"><ele>988.0000000000001</ele><time>2026-04-26T16:14:58.012Z</time></trkpt><trkpt lat="43.7710572" lon="11.5681472"><ele>989.0</ele><time>2026-04-26T16:15:01.023Z</time></trkpt><trkpt lat="43.7709938" lon="11.568061"><ele>989.0</ele><time>2026-04-26T16:15:04.019Z</time></trkpt><trkpt lat="43.770952" lon="11.5679851"><ele>988.9999999999999</ele><time>2026-04-26T16:15:07.023Z</time></trkpt><trkpt lat="43.7709029" lon="11.5678878"><ele>989.0</ele><time>2026-04-26T16:15:10.023Z</time></trkpt><trkpt lat="43.7708611" lon="11.5678222"><ele>989.0</ele><time>2026-04-26T16:15:12.031Z</time></trkpt><trkpt lat="43.7708131" lon="11.5677517"><ele>988.9999999999999</ele><time>2026-04-26T16:15:14.026Z</time></trkpt><trkpt lat="43.7707605" lon="11.5676814"><ele>989.0</ele><time>2026-04-26T16:15:16.036Z</time></trkpt><trkpt lat="43.770697" lon="11.5675994"><ele>989.0</ele><time>2026-04-26T16:15:19.018Z</time></trkpt><trkpt lat="43.7706584" lon="11.5675254"><ele>991.0</ele><time>2026-04-26T16:15:21.028Z</time></trkpt><trkpt lat="43.7706101" lon="11.5674591"><ele>992.9999999999999</ele><time>2026-04-26T16:15:23.036Z</time></trkpt><trkpt lat="43.770577" lon="11.5673849"><ele>995.0</ele><time>2026-04-26T16:15:25.028Z</time></trkpt><trkpt lat="43.7705252" lon="11.5673214"><ele>997.0</ele><time>2026-04-26T16:15:27.014Z</time></trkpt><trkpt lat="43.7704747" lon="11.5672631"><ele>998.9999999999999</ele><time>2026-04-26T16:15:29.017Z</time></trkpt><trkpt lat="43.7704267" lon="11.5671959"><ele>1001.0</ele><time>2026-04-26T16:15:31.028Z</time></trkpt><trkpt lat="43.7703564" lon="11.5671193"><ele>1003.0</ele><time>2026-04-26T16:15:34.026Z</time></trkpt><trkpt lat="43.7703035" lon="11.5670504"><ele>1003.9999999999999</ele><time>2026-04-26T16:15:36.018Z</time></trkpt><trkpt lat="43.7702484" lon="11.5669789"><ele>1005.0</ele><time>2026-04-26T16:15:38.027Z</time></trkpt><trkpt lat="43.770197" lon="11.566902"><ele>1006.0</ele><time>2026-04-26T16:15:40.022Z</time></trkpt><trkpt lat="43.7701534" lon="11.5668258"><ele>1007.0</ele><time>2026-04-26T16:15:42.028Z</time></trkpt><trkpt lat="43.7701002" lon="11.5667197"><ele>1007.9999999999999</ele><time>2026-04-26T16:15:45.027Z</time></trkpt><trkpt lat="43.7700467" lon="11.5666345"><ele>1009.0</ele><time>2026-04-26T16:15:48.017Z</time></trkpt><trkpt lat="43.7700004" lon="11.5665642"><ele>1009.0</ele><time>2026-04-26T16:15:51.029Z</time></trkpt><trkpt lat="43.7699499" lon="11.5664809"><ele>1009.0</ele><time>2026-04-26T16:15:55.032Z</time></trkpt><trkpt lat="43.7698951" lon="11.566437"><ele>1009.0</ele><time>2026-04-26T16:15:57.016Z</time></trkpt><trkpt lat="43.7698387" lon="11.5663676"><ele>1009.0</ele><time>2026-04-26T16:16:00.032Z</time></trkpt><trkpt lat="43.7697913" lon="11.566307"><ele>1009.0</ele><time>2026-04-26T16:16:02.026Z</time></trkpt><trkpt lat="43.7697358" lon="11.5662263"><ele>1009.0</ele><time>2026-04-26T16:16:05.029Z</time></trkpt><trkpt lat="43.7696936" lon="11.5661529"><ele>1009.0</ele><time>2026-04-26T16:16:07.028Z</time></trkpt><trkpt lat="43.769658" lon="11.5660626"><ele>1010.9999999999999</ele><time>2026-04-26T16:16:09.024Z</time></trkpt><trkpt lat="43.7696126" lon="11.5659677"><ele>1013.0</ele><time>2026-04-26T16:16:12.015Z</time></trkpt><trkpt lat="43.7695467" lon="11.5659157"><ele>1015.0</ele><time>2026-04-26T16:16:15.023Z</time></trkpt><trkpt lat="43.7694726" lon="11.5658884"><ele>1017.0</ele><time>2026-04-26T16:16:18.026Z</time></trkpt><trkpt lat="43.7693764" lon="11.5658783"><ele>1018.9999999999999</ele><time>2026-04-26T16:16:21.021Z</time></trkpt><trkpt lat="43.7692869" lon="11.5658817"><ele>1021.0</ele><time>2026-04-26T16:16:24.025Z</time></trkpt><trkpt lat="43.7692169" lon="11.5658724"><ele>1021.0</ele><time>2026-04-26T16:16:26.019Z</time></trkpt><trkpt lat="43.7691508" lon="11.5658733"><ele>1021.0</ele><time>2026-04-26T16:16:29.012Z</time></trkpt><trkpt lat="43.7692131" lon="11.5658988"><ele>1021.0</ele><time>2026-04-26T16:16:46.017Z</time></trkpt><trkpt lat="43.7692705" lon="11.5658541"><ele>1021.0</ele><time>2026-04-26T16:16:54.02Z</time></trkpt><trkpt lat="43.7693457" lon="11.5658044"><ele>1021.0</ele><time>2026-04-26T16:16:57.044Z</time></trkpt><trkpt lat="43.7694056" lon="11.5657317"><ele>1021.0</ele><time>2026-04-26T16:17:00.025Z</time></trkpt><trkpt lat="43.7694633" lon="11.5656908"><ele>1021.0</ele><time>2026-04-26T16:17:03.019Z</time></trkpt><trkpt lat="43.7695222" lon="11.5656538"><ele>1022.5714285714286</ele><time>2026-04-26T16:17:06.018Z</time></trkpt><trkpt lat="43.7695576" lon="11.5655657"><ele>1024.142857142857</ele><time>2026-04-26T16:17:09.011Z</time></trkpt><trkpt lat="43.769586" lon="11.5654837"><ele>1025.7142857142858</ele><time>2026-04-26T16:17:12.011Z</time></trkpt><trkpt lat="43.7695902" lon="11.5653837"><ele>1027.2857142857142</ele><time>2026-04-26T16:17:15.023Z</time></trkpt><trkpt lat="43.7695819" lon="11.5652827"><ele>1028.857142857143</ele><time>2026-04-26T16:17:18.045Z</time></trkpt><trkpt lat="43.7695946" lon="11.5651913"><ele>1030.4285714285713</ele><time>2026-04-26T16:17:21.024Z</time></trkpt><trkpt lat="43.7696089" lon="11.565076"><ele>1032.0</ele><time>2026-04-26T16:17:25.026Z</time></trkpt><trkpt lat="43.7695871" lon="11.5649688"><ele>1033.5714285714284</ele><time>2026-04-26T16:17:28.02Z</time></trkpt><trkpt lat="43.7695854" lon="11.5648661"><ele>1035.142857142857</ele><time>2026-04-26T16:17:31.026Z</time></trkpt><trkpt lat="43.7696199" lon="11.5647763"><ele>1036.7142857142858</ele><time>2026-04-26T16:19:16.016Z</time></trkpt><trkpt lat="43.76964" lon="11.5646796"><ele>1038.2857142857142</ele><time>2026-04-26T16:19:21.016Z</time></trkpt><trkpt lat="43.7696802" lon="11.5645914"><ele>1039.857142857143</ele><time>2026-04-26T16:19:24.031Z</time></trkpt><trkpt lat="43.7696984" lon="11.5644963"><ele>1041.4285714285713</ele><time>2026-04-26T16:19:27.019Z</time></trkpt><trkpt lat="43.7697136" lon="11.5643897"><ele>1043.0</ele><time>2026-04-26T16:19:31.018Z</time></trkpt><trkpt lat="43.7697232" lon="11.564291"><ele>1043.3333333333335</ele><time>2026-04-26T16:19:34.027Z</time></trkpt><trkpt lat="43.7697457" lon="11.5641821"><ele>1043.6666666666667</ele><time>2026-04-26T16:19:37.024Z</time></trkpt><trkpt lat="43.7697742" lon="11.5640702"><ele>1044.0</ele><time>2026-04-26T16:19:40.019Z</time></trkpt><trkpt lat="43.7698068" lon="11.5639956"><ele>1044.3333333333333</ele><time>2026-04-26T16:19:48.037Z</time></trkpt><trkpt lat="43.7698647" lon="11.5639294"><ele>1044.6666666666665</ele><time>2026-04-26T16:19:52.019Z</time></trkpt><trkpt lat="43.769925" lon="11.5638868"><ele>1045.0</ele><time>2026-04-26T16:19:56.022Z</time></trkpt><trkpt lat="43.7700034" lon="11.5638635"><ele>1045.0</ele><time>2026-04-26T16:20:01.037Z</time></trkpt><trkpt lat="43.7700682" lon="11.5638064"><ele>1045.0</ele><time>2026-04-26T16:20:05.016Z</time></trkpt><trkpt lat="43.7701284" lon="11.5637694"><ele>1045.0</ele><time>2026-04-26T16:20:19.044Z</time></trkpt><trkpt lat="43.7701904" lon="11.5637489"><ele>1045.0</ele><time>2026-04-26T16:20:25.015Z</time></trkpt><trkpt lat="43.7702566" lon="11.5636841"><ele>1045.0</ele><time>2026-04-26T16:20:29.022Z</time></trkpt><trkpt lat="43.7703052" lon="11.563627"><ele>1045.0</ele><time>2026-04-26T16:20:32.025Z</time></trkpt><trkpt lat="43.7703772" lon="11.5635642"><ele>1045.0</ele><time>2026-04-26T16:21:18.034Z</time></trkpt><trkpt lat="43.7704553" lon="11.5635574"><ele>1042.6666666666665</ele><time>2026-04-26T16:21:27.037Z</time></trkpt><trkpt lat="43.7705315" lon="11.5635054"><ele>1040.3333333333333</ele><time>2026-04-26T16:21:31.034Z</time></trkpt><trkpt lat="43.7705907" lon="11.5634657"><ele>1038.0</ele><time>2026-04-26T16:21:34.014Z</time></trkpt><trkpt lat="43.7706434" lon="11.5634157"><ele>1035.6666666666667</ele><time>2026-04-26T16:21:37.023Z</time></trkpt><trkpt lat="43.7707214" lon="11.5633984"><ele>1033.3333333333335</ele><time>2026-04-26T16:21:40.035Z</time></trkpt><trkpt lat="43.7707944" lon="11.5633713"><ele>1031.0</ele><time>2026-04-26T16:21:43.025Z</time></trkpt><trkpt lat="43.7708782" lon="11.5633379"><ele>1031.0</ele><time>2026-04-26T16:21:47.023Z</time></trkpt><trkpt lat="43.7709344" lon="11.5632809"><ele>1031.0</ele><time>2026-04-26T16:21:50.015Z</time></trkpt><trkpt lat="43.770997" lon="11.563217"><ele>1031.0</ele><time>2026-04-26T16:21:54.03Z</time></trkpt><trkpt lat="43.7710768" lon="11.5631737"><ele>1031.0</ele><time>2026-04-26T16:21:58.028Z</time></trkpt><trkpt lat="43.7711528" lon="11.5631247"><ele>1031.0</ele><time>2026-04-26T16:22:01.017Z</time></trkpt><trkpt lat="43.7712249" lon="11.5630653"><ele>1031.0</ele><time>2026-04-26T16:22:04.03Z</time></trkpt><trkpt lat="43.7712838" lon="11.5630342"><ele>1028.0</ele><time>2026-04-26T16:22:06.018Z</time></trkpt><trkpt lat="43.771366" lon="11.5630078"><ele>1025.0</ele><time>2026-04-26T16:22:08.012Z</time></trkpt><trkpt lat="43.7714555" lon="11.5629967"><ele>1022.0</ele><time>2026-04-26T16:22:10.014Z</time></trkpt><trkpt lat="43.7715294" lon="11.563019"><ele>1019.0</ele><time>2026-04-26T16:22:12.028Z</time></trkpt><trkpt lat="43.7716041" lon="11.5630698"><ele>1016.0000000000001</ele><time>2026-04-26T16:22:15.018Z</time></trkpt><trkpt lat="43.771687" lon="11.5631209"><ele>1013.0</ele><time>2026-04-26T16:22:19.026Z</time></trkpt><trkpt lat="43.7717686" lon="11.5631671"><ele>1013.0000000000001</ele><time>2026-04-26T16:22:22.017Z</time></trkpt><trkpt lat="43.7718371" lon="11.5632007"><ele>1013.0</ele><time>2026-04-26T16:22:23.977Z</time></trkpt><trkpt lat="43.7719168" lon="11.5632409"><ele>1013.0</ele><time>2026-04-26T16:22:26.034Z</time></trkpt><trkpt lat="43.7719982" lon="11.563279"><ele>1013.0</ele><time>2026-04-26T16:22:28.018Z</time></trkpt><trkpt lat="43.7720695" lon="11.5633388"><ele>1013.0000000000001</ele><time>2026-04-26T16:22:30.019Z</time></trkpt><trkpt lat="43.7721298" lon="11.5633675"><ele>1013.0</ele><time>2026-04-26T16:22:32.022Z</time></trkpt><trkpt lat="43.7722104" lon="11.5634"><ele>1009.4285714285714</ele><time>2026-04-26T16:22:35.017Z</time></trkpt><trkpt lat="43.7722715" lon="11.5634383"><ele>1005.8571428571429</ele><time>2026-04-26T16:22:37.018Z</time></trkpt><trkpt lat="43.7723319" lon="11.5634813"><ele>1002.2857142857143</ele><time>2026-04-26T16:22:39.023Z</time></trkpt><trkpt lat="43.7723929" lon="11.5635127"><ele>998.7142857142858</ele><time>2026-04-26T16:22:44.013Z</time></trkpt><trkpt lat="43.7724508" lon="11.563568"><ele>995.1428571428571</ele><time>2026-04-26T16:22:52.027Z</time></trkpt><trkpt lat="43.7725168" lon="11.5636165"><ele>991.5714285714287</ele><time>2026-04-26T16:22:56.024Z</time></trkpt><trkpt lat="43.7725829" lon="11.5636351"><ele>988.0</ele><time>2026-04-26T16:23:00.024Z</time></trkpt><trkpt lat="43.7726611" lon="11.563648"><ele>985.6666666666666</ele><time>2026-04-26T16:23:14.012Z</time></trkpt><trkpt lat="43.7727259" lon="11.5636375"><ele>983.3333333333333</ele><time>2026-04-26T16:23:18.012Z</time></trkpt><trkpt lat="43.7727831" lon="11.5635424"><ele>981.0</ele><time>2026-04-26T16:24:17.01Z</time></trkpt><trkpt lat="43.7728071" lon="11.5634602"><ele>978.6666666666667</ele><time>2026-04-26T16:24:19.019Z</time></trkpt><trkpt lat="43.7728343" lon="11.5633693"><ele>976.3333333333334</ele><time>2026-04-26T16:24:21.023Z</time></trkpt><trkpt lat="43.7728726" lon="11.5632559"><ele>974.0</ele><time>2026-04-26T16:24:24.019Z</time></trkpt><trkpt lat="43.7728818" lon="11.5631355"><ele>974.0</ele><time>2026-04-26T16:24:27.027Z</time></trkpt><trkpt lat="43.7729019" lon="11.5630456"><ele>974.0</ele><time>2026-04-26T16:24:29.018Z</time></trkpt><trkpt lat="43.7729151" lon="11.562916"><ele>974.0</ele><time>2026-04-26T16:24:32.013Z</time></trkpt><trkpt lat="43.7729225" lon="11.562814"><ele>974.0</ele><time>2026-04-26T16:24:34.016Z</time></trkpt><trkpt lat="43.7729376" lon="11.5627281"><ele>974.0</ele><time>2026-04-26T16:24:36.011Z</time></trkpt><trkpt lat="43.7729317" lon="11.5626249"><ele>974.0</ele><time>2026-04-26T16:24:38.015Z</time></trkpt><trkpt lat="43.772912" lon="11.5625281"><ele>974.0</ele><time>2026-04-26T16:24:40.019Z</time></trkpt><trkpt lat="43.7728911" lon="11.5624422"><ele>973.6666666666667</ele><time>2026-04-26T16:24:42.01Z</time></trkpt><trkpt lat="43.7728794" lon="11.5623232"><ele>973.3333333333334</ele><time>2026-04-26T16:24:45.013Z</time></trkpt><trkpt lat="43.7728648" lon="11.5622297"><ele>973.0</ele><time>2026-04-26T16:24:47.016Z</time></trkpt><trkpt lat="43.7728385" lon="11.5621106"><ele>972.6666666666667</ele><time>2026-04-26T16:24:50.016Z</time></trkpt><trkpt lat="43.772804" lon="11.5620217"><ele>972.3333333333334</ele><time>2026-04-26T16:24:52.022Z</time></trkpt><trkpt lat="43.7727835" lon="11.5619196"><ele>972.0</ele><time>2026-04-26T16:24:55.018Z</time></trkpt><trkpt lat="43.7727462" lon="11.5618159"><ele>971.8333333333334</ele><time>2026-04-26T16:24:58.012Z</time></trkpt><trkpt lat="43.7727225" lon="11.5617297"><ele>971.6666666666667</ele><time>2026-04-26T16:25:00.018Z</time></trkpt><trkpt lat="43.7727027" lon="11.5616325"><ele>971.5</ele><time>2026-04-26T16:25:02.016Z</time></trkpt><trkpt lat="43.7726916" lon="11.5615419"><ele>971.3333333333334</ele><time>2026-04-26T16:25:04.032Z</time></trkpt><trkpt lat="43.7726809" lon="11.5614193"><ele>971.1666666666667</ele><time>2026-04-26T16:25:07.02Z</time></trkpt><trkpt lat="43.7726546" lon="11.5612943"><ele>971.0</ele><time>2026-04-26T16:25:10.014Z</time></trkpt><trkpt lat="43.7726314" lon="11.5611688"><ele>973.5000000000001</ele><time>2026-04-26T16:25:13.028Z</time></trkpt><trkpt lat="43.7726071" lon="11.561047"><ele>976.0</ele><time>2026-04-26T16:25:16.02Z</time></trkpt><trkpt lat="43.772574" lon="11.5609637"><ele>978.5</ele><time>2026-04-26T16:25:18.016Z</time></trkpt><trkpt lat="43.7725406" lon="11.5608461"><ele>981.0</ele><time>2026-04-26T16:25:21.018Z</time></trkpt><trkpt lat="43.7725066" lon="11.5607638"><ele>983.5000000000001</ele><time>2026-04-26T16:25:23.015Z</time></trkpt><trkpt lat="43.7724556" lon="11.5606843"><ele>986.0</ele><time>2026-04-26T16:25:25.013Z</time></trkpt><trkpt lat="43.772394" lon="11.5605834"><ele>986.0</ele><time>2026-04-26T16:25:28.019Z</time></trkpt><trkpt lat="43.772345" lon="11.5605281"><ele>986.0</ele><time>2026-04-26T16:25:30.02Z</time></trkpt><trkpt lat="43.7722905" lon="11.5604707"><ele>986.0</ele><time>2026-04-26T16:25:32.02Z</time></trkpt><trkpt lat="43.772237" lon="11.5604112"><ele>986.0</ele><time>2026-04-26T16:25:34.007Z</time></trkpt><trkpt lat="43.7721773" lon="11.5603762"><ele>986.0</ele><time>2026-04-26T16:25:36.02Z</time></trkpt><trkpt lat="43.7720984" lon="11.5603377"><ele>986.0</ele><time>2026-04-26T16:25:39.021Z</time></trkpt><trkpt lat="43.7720265" lon="11.5603184"><ele>986.0</ele><time>2026-04-26T16:25:42.024Z</time></trkpt><trkpt lat="43.771946" lon="11.560309"><ele>983.8333333333334</ele><time>2026-04-26T16:25:45.019Z</time></trkpt><trkpt lat="43.7718539" lon="11.56029"><ele>981.6666666666667</ele><time>2026-04-26T16:25:48.011Z</time></trkpt><trkpt lat="43.7717842" lon="11.5602907"><ele>979.5</ele><time>2026-04-26T16:25:50.018Z</time></trkpt><trkpt lat="43.771711" lon="11.5602837"><ele>977.3333333333333</ele><time>2026-04-26T16:25:52.012Z</time></trkpt><trkpt lat="43.7716445" lon="11.5602965"><ele>975.1666666666666</ele><time>2026-04-26T16:25:54.012Z</time></trkpt><trkpt lat="43.7715507" lon="11.5603237"><ele>973.0</ele><time>2026-04-26T16:25:57.014Z</time></trkpt><trkpt lat="43.7714772" lon="11.5603463"><ele>972.9999999999999</ele><time>2026-04-26T16:25:59.018Z</time></trkpt><trkpt lat="43.7714015" lon="11.5603582"><ele>973.0</ele><time>2026-04-26T16:26:01.013Z</time></trkpt><trkpt lat="43.7713347" lon="11.5603836"><ele>973.0</ele><time>2026-04-26T16:26:03.02Z</time></trkpt><trkpt lat="43.7712635" lon="11.5604468"><ele>973.0</ele><time>2026-04-26T16:26:06.009Z</time></trkpt><trkpt lat="43.7711883" lon="11.5605302"><ele>972.9999999999999</ele><time>2026-04-26T16:26:09.022Z</time></trkpt><trkpt lat="43.771129" lon="11.5605779"><ele>973.0</ele><time>2026-04-26T16:26:11.021Z</time></trkpt><trkpt lat="43.7710765" lon="11.5606405"><ele>976.1666666666666</ele><time>2026-04-26T16:26:13.018Z</time></trkpt><trkpt lat="43.771008" lon="11.5606583"><ele>979.3333333333333</ele><time>2026-04-26T16:26:16.01Z</time></trkpt><trkpt lat="43.7709379" lon="11.5606322"><ele>982.5</ele><time>2026-04-26T16:26:19.019Z</time></trkpt><trkpt lat="43.770872" lon="11.5605364"><ele>985.6666666666667</ele><time>2026-04-26T16:26:23.017Z</time></trkpt><trkpt lat="43.7708138" lon="11.5604803"><ele>988.8333333333334</ele><time>2026-04-26T16:26:25.028Z</time></trkpt><trkpt lat="43.7707453" lon="11.5604648"><ele>992.0</ele><time>2026-04-26T16:26:27.019Z</time></trkpt><trkpt lat="43.7706662" lon="11.5604647"><ele>992.0000000000001</ele><time>2026-04-26T16:26:29.023Z</time></trkpt><trkpt lat="43.7705988" lon="11.560493"><ele>992.0</ele><time>2026-04-26T16:26:31.013Z</time></trkpt><trkpt lat="43.7705276" lon="11.5605107"><ele>992.0</ele><time>2026-04-26T16:26:33.014Z</time></trkpt><trkpt lat="43.7704442" lon="11.5605145"><ele>992.0</ele><time>2026-04-26T16:26:35.017Z</time></trkpt><trkpt lat="43.7703589" lon="11.5605074"><ele>992.0000000000001</ele><time>2026-04-26T16:26:37.014Z</time></trkpt><trkpt lat="43.7702657" lon="11.5605066"><ele>992.0</ele><time>2026-04-26T16:26:39.022Z</time></trkpt><trkpt lat="43.7701956" lon="11.56049"><ele>990.5000000000001</ele><time>2026-04-26T16:26:41.022Z</time></trkpt><trkpt lat="43.7701145" lon="11.5605068"><ele>989.0</ele><time>2026-04-26T16:26:44.005Z</time></trkpt><trkpt lat="43.7700532" lon="11.5605281"><ele>987.5</ele><time>2026-04-26T16:26:46.027Z</time></trkpt><trkpt lat="43.7699721" lon="11.5605846"><ele>986.0</ele><time>2026-04-26T16:26:49.021Z</time></trkpt><trkpt lat="43.7699024" lon="11.5605992"><ele>984.5000000000001</ele><time>2026-04-26T16:26:52.009Z</time></trkpt><trkpt lat="43.7698246" lon="11.5606105"><ele>983.0</ele><time>2026-04-26T16:26:55.019Z</time></trkpt><trkpt lat="43.7697575" lon="11.5606284"><ele>982.9999999999999</ele><time>2026-04-26T16:26:58.014Z</time></trkpt><trkpt lat="43.7697141" lon="11.5606959"><ele>983.0</ele><time>2026-04-26T16:27:00.022Z</time></trkpt><trkpt lat="43.7696634" lon="11.5607826"><ele>982.9999999999999</ele><time>2026-04-26T16:27:02.017Z</time></trkpt><trkpt lat="43.7696276" lon="11.5608778"><ele>982.9999999999999</ele><time>2026-04-26T16:27:04.018Z</time></trkpt><trkpt lat="43.7695892" lon="11.5609751"><ele>983.0</ele><time>2026-04-26T16:27:06.011Z</time></trkpt><trkpt lat="43.7695587" lon="11.5610546"><ele>982.9999999999999</ele><time>2026-04-26T16:27:08.02Z</time></trkpt><trkpt lat="43.7695159" lon="11.5611217"><ele>982.9999999999999</ele><time>2026-04-26T16:27:10.012Z</time></trkpt><trkpt lat="43.7694714" lon="11.5611842"><ele>983.8333333333334</ele><time>2026-04-26T16:27:12.025Z</time></trkpt><trkpt lat="43.7694041" lon="11.5612634"><ele>984.6666666666667</ele><time>2026-04-26T16:27:15.014Z</time></trkpt><trkpt lat="43.7693477" lon="11.5613107"><ele>985.5</ele><time>2026-04-26T16:27:18.024Z</time></trkpt><trkpt lat="43.7692738" lon="11.5613708"><ele>986.3333333333333</ele><time>2026-04-26T16:27:21.021Z</time></trkpt><trkpt lat="43.7692191" lon="11.561442"><ele>987.1666666666666</ele><time>2026-04-26T16:27:24.007Z</time></trkpt><trkpt lat="43.7691461" lon="11.5614752"><ele>988.0</ele><time>2026-04-26T16:27:27.019Z</time></trkpt><trkpt lat="43.7690799" lon="11.5614802"><ele>987.9999999999999</ele><time>2026-04-26T16:27:29.017Z</time></trkpt><trkpt lat="43.769003" lon="11.561521"><ele>988.0</ele><time>2026-04-26T16:27:32.013Z</time></trkpt><trkpt lat="43.7689466" lon="11.5615716"><ele>988.0</ele><time>2026-04-26T16:27:34.021Z</time></trkpt><trkpt lat="43.7688729" lon="11.5616465"><ele>988.0</ele><time>2026-04-26T16:27:37.019Z</time></trkpt><trkpt lat="43.7688044" lon="11.5617273"><ele>987.9999999999999</ele><time>2026-04-26T16:27:40.012Z</time></trkpt><trkpt lat="43.7687341" lon="11.5617888"><ele>988.0</ele><time>2026-04-26T16:27:42.015Z</time></trkpt><trkpt lat="43.7686592" lon="11.5618524"><ele>987.9999999999999</ele><time>2026-04-26T16:27:44.021Z</time></trkpt><trkpt lat="43.7685929" lon="11.561911"><ele>988.0</ele><time>2026-04-26T16:27:46.01Z</time></trkpt><trkpt lat="43.7685276" lon="11.5619612"><ele>988.0</ele><time>2026-04-26T16:27:48.019Z</time></trkpt><trkpt lat="43.768455" lon="11.5620133"><ele>988.0</ele><time>2026-04-26T16:27:50.009Z</time></trkpt><trkpt lat="43.7683622" lon="11.5620705"><ele>987.9999999999999</ele><time>2026-04-26T16:27:52.016Z</time></trkpt><trkpt lat="43.7682965" lon="11.5621189"><ele>988.0</ele><time>2026-04-26T16:27:54.021Z</time></trkpt><trkpt lat="43.7682276" lon="11.56216"><ele>986.8333333333333</ele><time>2026-04-26T16:27:57.022Z</time></trkpt><trkpt lat="43.7681541" lon="11.5621706"><ele>985.6666666666666</ele><time>2026-04-26T16:28:00.027Z</time></trkpt><trkpt lat="43.7680676" lon="11.5621168"><ele>984.5</ele><time>2026-04-26T16:28:03.013Z</time></trkpt><trkpt lat="43.7680207" lon="11.5620511"><ele>983.3333333333333</ele><time>2026-04-26T16:28:05.011Z</time></trkpt><trkpt lat="43.7679686" lon="11.561963"><ele>982.1666666666666</ele><time>2026-04-26T16:28:07.018Z</time></trkpt><trkpt lat="43.7679219" lon="11.5618659"><ele>981.0</ele><time>2026-04-26T16:28:09.014Z</time></trkpt><trkpt lat="43.7678846" lon="11.5617845"><ele>981.0</ele><time>2026-04-26T16:28:11.016Z</time></trkpt><trkpt lat="43.7678317" lon="11.5617061"><ele>981.0</ele><time>2026-04-26T16:28:13.019Z</time></trkpt><trkpt lat="43.7677807" lon="11.5616309"><ele>981.0</ele><time>2026-04-26T16:28:15.015Z</time></trkpt><trkpt lat="43.7677192" lon="11.5615657"><ele>981.0</ele><time>2026-04-26T16:28:17.013Z</time></trkpt><trkpt lat="43.7676465" lon="11.5615022"><ele>981.0</ele><time>2026-04-26T16:28:19.019Z</time></trkpt><trkpt lat="43.7675751" lon="11.5614617"><ele>981.0</ele><time>2026-04-26T16:28:21.02Z</time></trkpt><trkpt lat="43.7675044" lon="11.5614481"><ele>980.8333333333334</ele><time>2026-04-26T16:28:23.009Z</time></trkpt><trkpt lat="43.7674401" lon="11.5614171"><ele>980.6666666666667</ele><time>2026-04-26T16:28:25.014Z</time></trkpt><trkpt lat="43.7673749" lon="11.5613486"><ele>980.5</ele><time>2026-04-26T16:28:28.01Z</time></trkpt><trkpt lat="43.7673206" lon="11.5612695"><ele>980.3333333333334</ele><time>2026-04-26T16:28:30.016Z</time></trkpt><trkpt lat="43.7672691" lon="11.5611774"><ele>980.1666666666667</ele><time>2026-04-26T16:28:33.019Z</time></trkpt><trkpt lat="43.7672031" lon="11.5611132"><ele>980.0</ele><time>2026-04-26T16:28:36.017Z</time></trkpt><trkpt lat="43.7671468" lon="11.5610687"><ele>979.6666666666667</ele><time>2026-04-26T16:28:38.016Z</time></trkpt><trkpt lat="43.7670744" lon="11.5610509"><ele>979.3333333333334</ele><time>2026-04-26T16:28:40.014Z</time></trkpt><trkpt lat="43.7669937" lon="11.5610595"><ele>979.0</ele><time>2026-04-26T16:28:42.023Z</time></trkpt><trkpt lat="43.766911" lon="11.5610793"><ele>978.6666666666667</ele><time>2026-04-26T16:28:44.018Z</time></trkpt><trkpt lat="43.7668216" lon="11.5610842"><ele>978.3333333333334</ele><time>2026-04-26T16:28:46.023Z</time></trkpt><trkpt lat="43.7667493" lon="11.5610301"><ele>978.0</ele><time>2026-04-26T16:28:48.013Z</time></trkpt><trkpt lat="43.7667051" lon="11.5609356"><ele>978.0</ele><time>2026-04-26T16:28:50.013Z</time></trkpt><trkpt lat="43.7666825" lon="11.5608282"><ele>978.0</ele><time>2026-04-26T16:28:52.013Z</time></trkpt><trkpt lat="43.7666739" lon="11.560712"><ele>978.0</ele><time>2026-04-26T16:28:54.014Z</time></trkpt><trkpt lat="43.7666643" lon="11.5606014"><ele>978.0</ele><time>2026-04-26T16:28:56.019Z</time></trkpt><trkpt lat="43.7666496" lon="11.5604854"><ele>978.0</ele><time>2026-04-26T16:28:58.02Z</time></trkpt><trkpt lat="43.7666428" lon="11.5603791"><ele>978.0</ele><time>2026-04-26T16:29:00.017Z</time></trkpt><trkpt lat="43.7666378" lon="11.5602795"><ele>977.3333333333334</ele><time>2026-04-26T16:29:02.008Z</time></trkpt><trkpt lat="43.7666469" lon="11.5601911"><ele>976.6666666666667</ele><time>2026-04-26T16:29:04.03Z</time></trkpt><trkpt lat="43.7666732" lon="11.5600914"><ele>976.0</ele><time>2026-04-26T16:29:06.019Z</time></trkpt><trkpt lat="43.7666928" lon="11.5599864"><ele>975.3333333333334</ele><time>2026-04-26T16:29:08.019Z</time></trkpt><trkpt lat="43.7667194" lon="11.5598752"><ele>974.6666666666667</ele><time>2026-04-26T16:29:11.014Z</time></trkpt><trkpt lat="43.7667642" lon="11.5597898"><ele>974.0</ele><time>2026-04-26T16:29:14.019Z</time></trkpt><trkpt lat="43.7668058" lon="11.5597021"><ele>974.0000000000001</ele><time>2026-04-26T16:29:17.02Z</time></trkpt><trkpt lat="43.7668603" lon="11.5595977"><ele>974.0</ele><time>2026-04-26T16:29:20.015Z</time></trkpt><trkpt lat="43.7668939" lon="11.5595149"><ele>974.0</ele><time>2026-04-26T16:29:22.02Z</time></trkpt><trkpt lat="43.7669077" lon="11.5594191"><ele>974.0</ele><time>2026-04-26T16:29:24.018Z</time></trkpt><trkpt lat="43.7669178" lon="11.5593027"><ele>974.0000000000001</ele><time>2026-04-26T16:29:26.007Z</time></trkpt><trkpt lat="43.7669132" lon="11.5592091"><ele>974.0</ele><time>2026-04-26T16:29:28.015Z</time></trkpt><trkpt lat="43.7669036" lon="11.5591102"><ele>972.8333333333334</ele><time>2026-04-26T16:29:30.011Z</time></trkpt><trkpt lat="43.7668664" lon="11.5590036"><ele>971.6666666666667</ele><time>2026-04-26T16:29:32.017Z</time></trkpt><trkpt lat="43.7668421" lon="11.5589219"><ele>970.5</ele><time>2026-04-26T16:29:34.019Z</time></trkpt><trkpt lat="43.7667995" lon="11.558844"><ele>969.3333333333333</ele><time>2026-04-26T16:29:36.019Z</time></trkpt><trkpt lat="43.7667417" lon="11.5587337"><ele>968.1666666666666</ele><time>2026-04-26T16:29:39.024Z</time></trkpt><trkpt lat="43.7666964" lon="11.558664"><ele>967.0</ele><time>2026-04-26T16:29:41.012Z</time></trkpt><trkpt lat="43.7666524" lon="11.5585972"><ele>965.4999999999999</ele><time>2026-04-26T16:29:43.02Z</time></trkpt><trkpt lat="43.766616" lon="11.5585151"><ele>964.0</ele><time>2026-04-26T16:29:45.019Z</time></trkpt><trkpt lat="43.7665746" lon="11.5584316"><ele>962.5</ele><time>2026-04-26T16:29:47.022Z</time></trkpt><trkpt lat="43.7665314" lon="11.5583182"><ele>961.0</ele><time>2026-04-26T16:29:50.019Z</time></trkpt><trkpt lat="43.7664706" lon="11.5582234"><ele>959.4999999999999</ele><time>2026-04-26T16:29:53.017Z</time></trkpt><trkpt lat="43.76643" lon="11.5581559"><ele>958.0</ele><time>2026-04-26T16:29:55.026Z</time></trkpt><trkpt lat="43.7663734" lon="11.5580672"><ele>957.9999999999999</ele><time>2026-04-26T16:29:58.011Z</time></trkpt><trkpt lat="43.7663594" lon="11.5579812"><ele>958.0</ele><time>2026-04-26T16:30:00.023Z</time></trkpt><trkpt lat="43.7664022" lon="11.5578677"><ele>958.0</ele><time>2026-04-26T16:30:03.022Z</time></trkpt><trkpt lat="43.766452" lon="11.5578074"><ele>958.0</ele><time>2026-04-26T16:30:05.019Z</time></trkpt><trkpt lat="43.7665042" lon="11.5577384"><ele>957.9999999999999</ele><time>2026-04-26T16:30:07.02Z</time></trkpt><trkpt lat="43.7665803" lon="11.5576635"><ele>958.0</ele><time>2026-04-26T16:30:10.021Z</time></trkpt><trkpt lat="43.76664" lon="11.5575858"><ele>958.3333333333333</ele><time>2026-04-26T16:30:12.02Z</time></trkpt><trkpt lat="43.7667226" lon="11.5575307"><ele>958.6666666666666</ele><time>2026-04-26T16:30:15.018Z</time></trkpt><trkpt lat="43.7667825" lon="11.5574995"><ele>959.0</ele><time>2026-04-26T16:30:17.025Z</time></trkpt><trkpt lat="43.7668639" lon="11.5574288"><ele>959.3333333333333</ele><time>2026-04-26T16:30:20.031Z</time></trkpt><trkpt lat="43.76692" lon="11.5573781"><ele>959.6666666666666</ele><time>2026-04-26T16:30:22.009Z</time></trkpt><trkpt lat="43.7669715" lon="11.5573226"><ele>960.0</ele><time>2026-04-26T16:30:24.022Z</time></trkpt><trkpt lat="43.7670243" lon="11.5572556"><ele>958.6666666666666</ele><time>2026-04-26T16:30:26.011Z</time></trkpt><trkpt lat="43.767102" lon="11.5571767"><ele>957.3333333333333</ele><time>2026-04-26T16:30:29.015Z</time></trkpt><trkpt lat="43.7671523" lon="11.5571163"><ele>956.0</ele><time>2026-04-26T16:30:31.018Z</time></trkpt><trkpt lat="43.7672165" lon="11.5570914"><ele>954.6666666666666</ele><time>2026-04-26T16:30:33.02Z</time></trkpt><trkpt lat="43.7672826" lon="11.5570797"><ele>953.3333333333333</ele><time>2026-04-26T16:30:35.014Z</time></trkpt><trkpt lat="43.7673668" lon="11.5570922"><ele>952.0</ele><time>2026-04-26T16:30:38.022Z</time></trkpt><trkpt lat="43.7674482" lon="11.5570952"><ele>951.9999999999999</ele><time>2026-04-26T16:30:41.023Z</time></trkpt><trkpt lat="43.767524" lon="11.5571265"><ele>952.0</ele><time>2026-04-26T16:30:44.022Z</time></trkpt><trkpt lat="43.7675863" lon="11.5571652"><ele>952.0</ele><time>2026-04-26T16:30:47.016Z</time></trkpt><trkpt lat="43.7676529" lon="11.5572071"><ele>952.0</ele><time>2026-04-26T16:30:50.021Z</time></trkpt><trkpt lat="43.767727" lon="11.5572825"><ele>951.9999999999999</ele><time>2026-04-26T16:30:53.012Z</time></trkpt><trkpt lat="43.7677831" lon="11.5573261"><ele>952.0</ele><time>2026-04-26T16:30:55.02Z</time></trkpt><trkpt lat="43.7678744" lon="11.557341"><ele>949.5714285714286</ele><time>2026-04-26T16:30:58.014Z</time></trkpt><trkpt lat="43.767942" lon="11.5573699"><ele>947.1428571428571</ele><time>2026-04-26T16:31:01.019Z</time></trkpt><trkpt lat="43.7680173" lon="11.5574237"><ele>944.7142857142858</ele><time>2026-04-26T16:31:04.023Z</time></trkpt><trkpt lat="43.7680868" lon="11.5574276"><ele>942.2857142857143</ele><time>2026-04-26T16:31:08.019Z</time></trkpt><trkpt lat="43.768155" lon="11.5574562"><ele>939.8571428571429</ele><time>2026-04-26T16:31:17.02Z</time></trkpt><trkpt lat="43.768209" lon="11.5575198"><ele>937.4285714285716</ele><time>2026-04-26T16:33:58.021Z</time></trkpt><trkpt lat="43.7682291" lon="11.5576027"><ele>935.0000000000001</ele><time>2026-04-26T16:34:03.014Z</time></trkpt><trkpt lat="43.7682159" lon="11.5576944"><ele>935.0000000000001</ele><time>2026-04-26T16:34:20.02Z</time></trkpt><trkpt lat="43.7681971" lon="11.5577842"><ele>935.0</ele><time>2026-04-26T16:35:25.02Z</time></trkpt><trkpt lat="43.7681786" lon="11.5578694"><ele>935.0</ele><time>2026-04-26T16:35:28.018Z</time></trkpt><trkpt lat="43.7681707" lon="11.5580049"><ele>935.0</ele><time>2026-04-26T16:35:31.019Z</time></trkpt><trkpt lat="43.7681769" lon="11.5580947"><ele>935.0000000000001</ele><time>2026-04-26T16:35:33.018Z</time></trkpt><trkpt lat="43.7681882" lon="11.5581839"><ele>935.0</ele><time>2026-04-26T16:35:35.023Z</time></trkpt><trkpt lat="43.7682434" lon="11.5582825"><ele>935.1666666666667</ele><time>2026-04-26T16:35:38.012Z</time></trkpt><trkpt lat="43.7683062" lon="11.5582898"><ele>935.3333333333334</ele><time>2026-04-26T16:35:40.011Z</time></trkpt><trkpt lat="43.7683898" lon="11.558288"><ele>935.5</ele><time>2026-04-26T16:35:43.012Z</time></trkpt><trkpt lat="43.7684772" lon="11.5582895"><ele>935.6666666666667</ele><time>2026-04-26T16:35:46.01Z</time></trkpt><trkpt lat="43.7685668" lon="11.5582856"><ele>935.8333333333334</ele><time>2026-04-26T16:35:49.008Z</time></trkpt><trkpt lat="43.7686262" lon="11.5582506"><ele>936.0</ele><time>2026-04-26T16:35:51.014Z</time></trkpt><trkpt lat="43.7686842" lon="11.5582038"><ele>936.0</ele><time>2026-04-26T16:35:53.01Z</time></trkpt><trkpt lat="43.7687603" lon="11.5581251"><ele>936.0</ele><time>2026-04-26T16:35:56.015Z</time></trkpt><trkpt lat="43.7688118" lon="11.5580735"><ele>936.0</ele><time>2026-04-26T16:35:58.017Z</time></trkpt><trkpt lat="43.7688661" lon="11.5579924"><ele>936.0</ele><time>2026-04-26T16:36:00.024Z</time></trkpt><trkpt lat="43.7689192" lon="11.5578655"><ele>936.0</ele><time>2026-04-26T16:36:02.01Z</time></trkpt><trkpt lat="43.7689626" lon="11.5577665"><ele>936.0</ele><time>2026-04-26T16:36:04.008Z</time></trkpt><trkpt lat="43.7690011" lon="11.5576935"><ele>935.0</ele><time>2026-04-26T16:36:06.014Z</time></trkpt><trkpt lat="43.7690347" lon="11.5576084"><ele>934.0</ele><time>2026-04-26T16:36:08.008Z</time></trkpt><trkpt lat="43.7690725" lon="11.5575352"><ele>933.0</ele><time>2026-04-26T16:36:10.024Z</time></trkpt><trkpt lat="43.7691351" lon="11.5574615"><ele>932.0</ele><time>2026-04-26T16:36:13.022Z</time></trkpt><trkpt lat="43.7691878" lon="11.5573858"><ele>931.0</ele><time>2026-04-26T16:36:17.014Z</time></trkpt><trkpt lat="43.7692409" lon="11.5573244"><ele>930.0</ele><time>2026-04-26T16:36:20.016Z</time></trkpt><trkpt lat="43.769308" lon="11.5572361"><ele>928.5714285714286</ele><time>2026-04-26T16:36:23.018Z</time></trkpt><trkpt lat="43.7693725" lon="11.5571807"><ele>927.1428571428571</ele><time>2026-04-26T16:36:27.018Z</time></trkpt><trkpt lat="43.7694418" lon="11.5571525"><ele>925.7142857142857</ele><time>2026-04-26T16:36:30.017Z</time></trkpt><trkpt lat="43.769517" lon="11.5571368"><ele>924.2857142857142</ele><time>2026-04-26T16:36:33.018Z</time></trkpt><trkpt lat="43.7695918" lon="11.5571336"><ele>922.8571428571429</ele><time>2026-04-26T16:36:38.022Z</time></trkpt><trkpt lat="43.7696587" lon="11.5571078"><ele>921.4285714285713</ele><time>2026-04-26T16:36:43.013Z</time></trkpt><trkpt lat="43.769733" lon="11.5570915"><ele>919.9999999999999</ele><time>2026-04-26T16:36:49.018Z</time></trkpt><trkpt lat="43.7698102" lon="11.5570616"><ele>917.6666666666667</ele><time>2026-04-26T16:36:54.022Z</time></trkpt><trkpt lat="43.7698944" lon="11.5570235"><ele>915.3333333333334</ele><time>2026-04-26T16:36:57.024Z</time></trkpt><trkpt lat="43.7699594" lon="11.5570013"><ele>913.0</ele><time>2026-04-26T16:36:59.014Z</time></trkpt><trkpt lat="43.770027" lon="11.556984"><ele>910.6666666666667</ele><time>2026-04-26T16:37:01.018Z</time></trkpt><trkpt lat="43.7701067" lon="11.5569528"><ele>908.3333333333334</ele><time>2026-04-26T16:37:04.013Z</time></trkpt><trkpt lat="43.7701811" lon="11.5569309"><ele>906.0</ele><time>2026-04-26T16:37:07.015Z</time></trkpt><trkpt lat="43.7702445" lon="11.5568784"><ele>904.142857142857</ele><time>2026-04-26T16:37:10.013Z</time></trkpt><trkpt lat="43.7702976" lon="11.5568242"><ele>902.2857142857142</ele><time>2026-04-26T16:37:13.015Z</time></trkpt><trkpt lat="43.770365" lon="11.5568083"><ele>900.4285714285713</ele><time>2026-04-26T16:37:16.009Z</time></trkpt><trkpt lat="43.770417" lon="11.5568607"><ele>898.5714285714284</ele><time>2026-04-26T16:37:18.006Z</time></trkpt><trkpt lat="43.7704436" lon="11.5569419"><ele>896.7142857142858</ele><time>2026-04-26T16:37:20.02Z</time></trkpt><trkpt lat="43.7704524" lon="11.557046"><ele>894.8571428571429</ele><time>2026-04-26T16:37:23.012Z</time></trkpt><trkpt lat="43.7704591" lon="11.5571355"><ele>893.0</ele><time>2026-04-26T16:37:26.01Z</time></trkpt><trkpt lat="43.7704684" lon="11.5572451"><ele>893.0000000000001</ele><time>2026-04-26T16:37:30.01Z</time></trkpt><trkpt lat="43.7704383" lon="11.5573478"><ele>893.0</ele><time>2026-04-26T16:37:34.017Z</time></trkpt><trkpt lat="43.770395" lon="11.5574541"><ele>893.0</ele><time>2026-04-26T16:37:37.016Z</time></trkpt><trkpt lat="43.770416" lon="11.5575664"><ele>893.0</ele><time>2026-04-26T16:37:40.01Z</time></trkpt><trkpt lat="43.7704678" lon="11.5576305"><ele>893.0000000000001</ele><time>2026-04-26T16:54:39.009Z</time></trkpt><trkpt lat="43.77053" lon="11.5576123"><ele>893.0</ele><time>2026-04-26T16:54:42.023Z</time></trkpt><trkpt lat="43.7706099" lon="11.5575954"><ele>893.0000000000001</ele><time>2026-04-26T16:54:46.013Z</time></trkpt><trkpt lat="43.7706823" lon="11.5575841"><ele>893.0</ele><time>2026-04-26T16:54:51.017Z</time></trkpt><trkpt lat="43.7707452" lon="11.5575543"><ele>893.0</ele><time>2026-04-26T16:54:54.025Z</time></trkpt><trkpt lat="43.7708117" lon="11.5574947"><ele>893.0</ele><time>2026-04-26T16:54:57.021Z</time></trkpt><trkpt lat="43.7708877" lon="11.5574274"><ele>893.0000000000001</ele><time>2026-04-26T16:55:00.006Z</time></trkpt><trkpt lat="43.7709546" lon="11.5573691"><ele>893.0</ele><time>2026-04-26T16:55:03.006Z</time></trkpt><trkpt lat="43.7710153" lon="11.5573252"><ele>892.2857142857143</ele><time>2026-04-26T16:55:13.01Z</time></trkpt><trkpt lat="43.7710661" lon="11.5572652"><ele>891.5714285714287</ele><time>2026-04-26T16:55:19.023Z</time></trkpt><trkpt lat="43.771134" lon="11.5572873"><ele>890.8571428571429</ele><time>2026-04-26T16:55:23.015Z</time></trkpt><trkpt lat="43.7711829" lon="11.5573566"><ele>890.1428571428571</ele><time>2026-04-26T16:55:27.008Z</time></trkpt><trkpt lat="43.7712442" lon="11.5574117"><ele>889.4285714285714</ele><time>2026-04-26T16:55:30.03Z</time></trkpt><trkpt lat="43.7713025" lon="11.5574664"><ele>888.7142857142857</ele><time>2026-04-26T16:55:36.031Z</time></trkpt><trkpt lat="43.7713703" lon="11.5574489"><ele>888.0</ele><time>2026-04-26T16:55:43.015Z</time></trkpt><trkpt lat="43.771435" lon="11.5573947"><ele>888.0</ele><time>2026-04-26T16:55:48.018Z</time></trkpt><trkpt lat="43.7714904" lon="11.5573461"><ele>888.0</ele><time>2026-04-26T16:55:52.023Z</time></trkpt><trkpt lat="43.771537" lon="11.5572837"><ele>888.0</ele><time>2026-04-26T16:55:56.001Z</time></trkpt><trkpt lat="43.7715988" lon="11.557225"><ele>888.0</ele><time>2026-04-26T16:55:59.009Z</time></trkpt><trkpt lat="43.7716625" lon="11.5572027"><ele>888.0</ele><time>2026-04-26T16:56:02.013Z</time></trkpt><trkpt lat="43.7717274" lon="11.5571797"><ele>888.0</ele><time>2026-04-26T16:56:05.026Z</time></trkpt><trkpt lat="43.7717926" lon="11.557194"><ele>888.0</ele><time>2026-04-26T16:56:08.035Z</time></trkpt><trkpt lat="43.7718587" lon="11.5571886"><ele>888.7142857142857</ele><time>2026-04-26T16:56:11.002Z</time></trkpt><trkpt lat="43.7719239" lon="11.5571771"><ele>889.4285714285714</ele><time>2026-04-26T16:56:14.019Z</time></trkpt><trkpt lat="43.7719895" lon="11.5571697"><ele>890.1428571428571</ele><time>2026-04-26T16:56:17.009Z</time></trkpt><trkpt lat="43.7720521" lon="11.5571542"><ele>890.8571428571429</ele><time>2026-04-26T16:56:20.021Z</time></trkpt><trkpt lat="43.7721098" lon="11.5571024"><ele>891.5714285714287</ele><time>2026-04-26T16:56:24.031Z</time></trkpt><trkpt lat="43.7721718" lon="11.5570495"><ele>892.2857142857143</ele><time>2026-04-26T16:56:28.03Z</time></trkpt><trkpt lat="43.7722262" lon="11.5569968"><ele>893.0</ele><time>2026-04-26T16:56:32.008Z</time></trkpt><trkpt lat="43.7722733" lon="11.5569225"><ele>888.3333333333334</ele><time>2026-04-26T16:56:35.021Z</time></trkpt><trkpt lat="43.7723055" lon="11.5568414"><ele>883.6666666666667</ele><time>2026-04-26T16:56:38.02Z</time></trkpt><trkpt lat="43.7723758" lon="11.556767"><ele>879.0</ele><time>2026-04-26T16:56:44.016Z</time></trkpt><trkpt lat="43.7724303" lon="11.5567036"><ele>874.3333333333333</ele><time>2026-04-26T16:56:47.009Z</time></trkpt><trkpt lat="43.7724855" lon="11.5566187"><ele>869.6666666666666</ele><time>2026-04-26T16:56:51.01Z</time></trkpt><trkpt lat="43.7725493" lon="11.5565694"><ele>865.0</ele><time>2026-04-26T16:56:55.01Z</time></trkpt><trkpt lat="43.7725934" lon="11.5564964"><ele>864.9999999999999</ele><time>2026-04-26T16:56:58.012Z</time></trkpt><trkpt lat="43.7726565" lon="11.5564292"><ele>865.0</ele><time>2026-04-26T16:57:02.012Z</time></trkpt><trkpt lat="43.7727" lon="11.5563571"><ele>865.0</ele><time>2026-04-26T16:57:06.008Z</time></trkpt><trkpt lat="43.772763" lon="11.5562962"><ele>865.0</ele><time>2026-04-26T16:57:10.01Z</time></trkpt><trkpt lat="43.7728302" lon="11.5562204"><ele>864.9999999999999</ele><time>2026-04-26T16:57:13.021Z</time></trkpt><trkpt lat="43.7729045" lon="11.556154"><ele>865.0</ele><time>2026-04-26T16:57:17.004Z</time></trkpt><trkpt lat="43.7729905" lon="11.556077"><ele>862.3333333333333</ele><time>2026-04-26T16:57:20.019Z</time></trkpt><trkpt lat="43.7730655" lon="11.556014"><ele>859.6666666666666</ele><time>2026-04-26T16:57:22.028Z</time></trkpt><trkpt lat="43.7731234" lon="11.5559618"><ele>857.0</ele><time>2026-04-26T16:57:24.01Z</time></trkpt><trkpt lat="43.773182" lon="11.5559244"><ele>854.3333333333333</ele><time>2026-04-26T16:57:26.021Z</time></trkpt><trkpt lat="43.7732775" lon="11.5558909"><ele>851.6666666666666</ele><time>2026-04-26T16:57:29.006Z</time></trkpt><trkpt lat="43.7733456" lon="11.5558864"><ele>849.0</ele><time>2026-04-26T16:57:31.026Z</time></trkpt><trkpt lat="43.7734088" lon="11.5558801"><ele>849.0</ele><time>2026-04-26T16:57:33.016Z</time></trkpt><trkpt lat="43.7734728" lon="11.5558915"><ele>849.0</ele><time>2026-04-26T16:57:35.017Z</time></trkpt><trkpt lat="43.7735469" lon="11.5559007"><ele>849.0</ele><time>2026-04-26T16:57:37.009Z</time></trkpt><trkpt lat="43.7736238" lon="11.5559388"><ele>849.0</ele><time>2026-04-26T16:57:39.022Z</time></trkpt><trkpt lat="43.773663" lon="11.5560463"><ele>849.0</ele><time>2026-04-26T16:57:42.027Z</time></trkpt><trkpt lat="43.773687" lon="11.556134"><ele>849.0</ele><time>2026-04-26T16:57:44.007Z</time></trkpt><trkpt lat="43.773732" lon="11.5562334"><ele>849.5</ele><time>2026-04-26T16:57:47.019Z</time></trkpt><trkpt lat="43.7737747" lon="11.5563091"><ele>850.0</ele><time>2026-04-26T16:57:49.022Z</time></trkpt><trkpt lat="43.7738138" lon="11.5564027"><ele>850.5</ele><time>2026-04-26T16:57:51.023Z</time></trkpt><trkpt lat="43.7738343" lon="11.5564989"><ele>851.0</ele><time>2026-04-26T16:57:53.011Z</time></trkpt><trkpt lat="43.7738546" lon="11.5566074"><ele>851.5</ele><time>2026-04-26T16:57:55.02Z</time></trkpt><trkpt lat="43.7738778" lon="11.5567037"><ele>852.0</ele><time>2026-04-26T16:57:57.029Z</time></trkpt><trkpt lat="43.7738955" lon="11.5568231"><ele>852.0</ele><time>2026-04-26T16:58:00.014Z</time></trkpt><trkpt lat="43.7739292" lon="11.5569476"><ele>852.0</ele><time>2026-04-26T16:58:03.03Z</time></trkpt><trkpt lat="43.7739525" lon="11.5570378"><ele>852.0</ele><time>2026-04-26T16:58:05.017Z</time></trkpt><trkpt lat="43.773973" lon="11.5571232"><ele>852.0</ele><time>2026-04-26T16:58:07.01Z</time></trkpt><trkpt lat="43.7739948" lon="11.5572388"><ele>852.0</ele><time>2026-04-26T16:58:10.017Z</time></trkpt><trkpt lat="43.7740225" lon="11.5573277"><ele>852.0</ele><time>2026-04-26T16:58:12.025Z</time></trkpt><trkpt lat="43.7740548" lon="11.5574097"><ele>853.9999999999999</ele><time>2026-04-26T16:58:14.018Z</time></trkpt><trkpt lat="43.7740993" lon="11.5574765"><ele>856.0</ele><time>2026-04-26T16:58:16.025Z</time></trkpt><trkpt lat="43.7741463" lon="11.5575557"><ele>858.0</ele><time>2026-04-26T16:58:18.018Z</time></trkpt><trkpt lat="43.7741865" lon="11.5576291"><ele>860.0</ele><time>2026-04-26T16:58:20.018Z</time></trkpt><trkpt lat="43.7742343" lon="11.5577053"><ele>862.0</ele><time>2026-04-26T16:58:22.021Z</time></trkpt><trkpt lat="43.774293" lon="11.5578058"><ele>863.9999999999999</ele><time>2026-04-26T16:58:25.018Z</time></trkpt><trkpt lat="43.7743374" lon="11.5578742"><ele>866.0</ele><time>2026-04-26T16:58:26.997Z</time></trkpt><trkpt lat="43.774389" lon="11.5579491"><ele>865.9999999999999</ele><time>2026-04-26T16:58:29.072Z</time></trkpt><trkpt lat="43.7744207" lon="11.5580287"><ele>866.0</ele><time>2026-04-26T16:58:31.072Z</time></trkpt><trkpt lat="43.7744245" lon="11.5581201"><ele>866.0</ele><time>2026-04-26T16:58:33.015Z</time></trkpt><trkpt lat="43.7744119" lon="11.5582346"><ele>866.0</ele><time>2026-04-26T16:58:35.021Z</time></trkpt><trkpt lat="43.7744241" lon="11.5583206"><ele>866.0</ele><time>2026-04-26T16:58:37.021Z</time></trkpt><trkpt lat="43.774408" lon="11.5584337"><ele>865.9999999999999</ele><time>2026-04-26T16:58:40.025Z</time></trkpt><trkpt lat="43.7743773" lon="11.5585425"><ele>866.0</ele><time>2026-04-26T16:58:43.022Z</time></trkpt><trkpt lat="43.7743963" lon="11.5586484"><ele>867.9999999999999</ele><time>2026-04-26T16:58:46.019Z</time></trkpt><trkpt lat="43.7744432" lon="11.5587321"><ele>870.0</ele><time>2026-04-26T16:58:48.011Z</time></trkpt><trkpt lat="43.7745179" lon="11.5587695"><ele>872.0</ele><time>2026-04-26T16:58:51.026Z</time></trkpt><trkpt lat="43.7745813" lon="11.5587917"><ele>874.0</ele><time>2026-04-26T16:58:53.016Z</time></trkpt><trkpt lat="43.7746425" lon="11.5588394"><ele>876.0</ele><time>2026-04-26T16:58:55.017Z</time></trkpt><trkpt lat="43.7747166" lon="11.558877"><ele>877.9999999999999</ele><time>2026-04-26T16:58:57.01Z</time></trkpt><trkpt lat="43.7747901" lon="11.5589073"><ele>880.0</ele><time>2026-04-26T16:58:59.025Z</time></trkpt><trkpt lat="43.7748544" lon="11.5589386"><ele>879.9999999999999</ele><time>2026-04-26T16:59:01.025Z</time></trkpt><trkpt lat="43.7749232" lon="11.558998"><ele>880.0</ele><time>2026-04-26T16:59:03.012Z</time></trkpt><trkpt lat="43.7749807" lon="11.5590606"><ele>880.0</ele><time>2026-04-26T16:59:05.021Z</time></trkpt><trkpt lat="43.7750419" lon="11.5591616"><ele>880.0</ele><time>2026-04-26T16:59:07.014Z</time></trkpt><trkpt lat="43.775112" lon="11.5592377"><ele>879.9999999999999</ele><time>2026-04-26T16:59:09.035Z</time></trkpt><trkpt lat="43.7751822" lon="11.5592967"><ele>880.0</ele><time>2026-04-26T16:59:11.011Z</time></trkpt><trkpt lat="43.7752602" lon="11.5593335"><ele>879.4999999999999</ele><time>2026-04-26T16:59:13.032Z</time></trkpt><trkpt lat="43.7753407" lon="11.55929"><ele>879.0</ele><time>2026-04-26T16:59:15.02Z</time></trkpt><trkpt lat="43.7754144" lon="11.5592294"><ele>878.5</ele><time>2026-04-26T16:59:17.008Z</time></trkpt><trkpt lat="43.7754705" lon="11.5591569"><ele>878.0</ele><time>2026-04-26T16:59:19.023Z</time></trkpt><trkpt lat="43.775527" lon="11.5590848"><ele>877.4999999999999</ele><time>2026-04-26T16:59:21.004Z</time></trkpt><trkpt lat="43.775594" lon="11.5589994"><ele>877.0</ele><time>2026-04-26T16:59:24.015Z</time></trkpt><trkpt lat="43.7756817" lon="11.5589704"><ele>876.9999999999999</ele><time>2026-04-26T16:59:27.007Z</time></trkpt><trkpt lat="43.7757487" lon="11.5589802"><ele>877.0</ele><time>2026-04-26T16:59:29.018Z</time></trkpt><trkpt lat="43.7758139" lon="11.5589948"><ele>877.0</ele><time>2026-04-26T16:59:31.026Z</time></trkpt><trkpt lat="43.7758909" lon="11.5590663"><ele>877.0</ele><time>2026-04-26T16:59:33.055Z</time></trkpt><trkpt lat="43.7759478" lon="11.5591469"><ele>876.9999999999999</ele><time>2026-04-26T16:59:35.015Z</time></trkpt><trkpt lat="43.7760196" lon="11.5592367"><ele>877.0</ele><time>2026-04-26T16:59:37.027Z</time></trkpt><trkpt lat="43.7760758" lon="11.5593092"><ele>874.6666666666666</ele><time>2026-04-26T16:59:39.016Z</time></trkpt><trkpt lat="43.7761506" lon="11.5593693"><ele>872.3333333333333</ele><time>2026-04-26T16:59:41.02Z</time></trkpt><trkpt lat="43.7762177" lon="11.5594014"><ele>870.0</ele><time>2026-04-26T16:59:43.022Z</time></trkpt><trkpt lat="43.7762803" lon="11.5594183"><ele>867.6666666666667</ele><time>2026-04-26T16:59:45.027Z</time></trkpt><trkpt lat="43.7763515" lon="11.5594314"><ele>865.3333333333334</ele><time>2026-04-26T16:59:47.019Z</time></trkpt><trkpt lat="43.7764446" lon="11.559437"><ele>863.0</ele><time>2026-04-26T16:59:49.021Z</time></trkpt><trkpt lat="43.7765267" lon="11.5594194"><ele>863.0000000000001</ele><time>2026-04-26T16:59:51.024Z</time></trkpt><trkpt lat="43.7766094" lon="11.5594057"><ele>863.0</ele><time>2026-04-26T16:59:53.022Z</time></trkpt><trkpt lat="43.7766863" lon="11.5593893"><ele>863.0</ele><time>2026-04-26T16:59:55.002Z</time></trkpt><trkpt lat="43.77678" lon="11.5594131"><ele>863.0</ele><time>2026-04-26T16:59:58.018Z</time></trkpt><trkpt lat="43.7768427" lon="11.55946"><ele>863.0000000000001</ele><time>2026-04-26T17:00:00.026Z</time></trkpt><trkpt lat="43.7769078" lon="11.559502"><ele>863.0</ele><time>2026-04-26T17:00:02.01Z</time></trkpt><trkpt lat="43.7769738" lon="11.5595388"><ele>863.0000000000001</ele><time>2026-04-26T17:00:04.012Z</time></trkpt><trkpt lat="43.7770362" lon="11.5595901"><ele>863.0</ele><time>2026-04-26T17:00:06.016Z</time></trkpt><trkpt lat="43.7771046" lon="11.5596587"><ele>863.0</ele><time>2026-04-26T17:00:08.023Z</time></trkpt><trkpt lat="43.7771729" lon="11.5597843"><ele>863.0</ele><time>2026-04-26T17:00:10.028Z</time></trkpt><trkpt lat="43.777223" lon="11.5598962"><ele>863.0000000000001</ele><time>2026-04-26T17:00:12.014Z</time></trkpt><trkpt lat="43.7772781" lon="11.5599788"><ele>863.0</ele><time>2026-04-26T17:00:14.03Z</time></trkpt><trkpt lat="43.7773152" lon="11.5600538"><ele>863.0000000000001</ele><time>2026-04-26T17:00:16.013Z</time></trkpt><trkpt lat="43.7773623" lon="11.5601478"><ele>863.0</ele><time>2026-04-26T17:00:18.014Z</time></trkpt><trkpt lat="43.7773979" lon="11.5602413"><ele>863.0</ele><time>2026-04-26T17:00:20.007Z</time></trkpt><trkpt lat="43.7774274" lon="11.5603341"><ele>863.0</ele><time>2026-04-26T17:00:22.031Z</time></trkpt><trkpt lat="43.7774696" lon="11.5604161"><ele>863.0000000000001</ele><time>2026-04-26T17:00:24.028Z</time></trkpt><trkpt lat="43.7775125" lon="11.5605038"><ele>863.0</ele><time>2026-04-26T17:00:26.023Z</time></trkpt><trkpt lat="43.7775522" lon="11.5605948"><ele>864.0000000000001</ele><time>2026-04-26T17:00:28.041Z</time></trkpt><trkpt lat="43.777591" lon="11.5606913"><ele>865.0</ele><time>2026-04-26T17:00:30.017Z</time></trkpt><trkpt lat="43.7776306" lon="11.5607794"><ele>866.0</ele><time>2026-04-26T17:00:32.018Z</time></trkpt><trkpt lat="43.7776569" lon="11.5608598"><ele>867.0</ele><time>2026-04-26T17:00:34.028Z</time></trkpt><trkpt lat="43.7776797" lon="11.5609412"><ele>868.0</ele><time>2026-04-26T17:00:36.023Z</time></trkpt><trkpt lat="43.7777094" lon="11.5610187"><ele>869.0000000000001</ele><time>2026-04-26T17:00:38.011Z</time></trkpt><trkpt lat="43.77773" lon="11.5611089"><ele>870.0</ele><time>2026-04-26T17:00:41.024Z</time></trkpt><trkpt lat="43.7777723" lon="11.5611739"><ele>865.6666666666666</ele><time>2026-04-26T17:01:14.017Z</time></trkpt><trkpt lat="43.7777857" lon="11.561079"><ele>861.3333333333333</ele><time>2026-04-26T17:01:18.021Z</time></trkpt><trkpt lat="43.7777843" lon="11.5609734"><ele>857.0</ele><time>2026-04-26T17:01:21.013Z</time></trkpt><trkpt lat="43.7777882" lon="11.5608597"><ele>852.6666666666666</ele><time>2026-04-26T17:01:23.021Z</time></trkpt><trkpt lat="43.7777882" lon="11.5607313"><ele>848.3333333333333</ele><time>2026-04-26T17:01:25.023Z</time></trkpt><trkpt lat="43.7778017" lon="11.5606071"><ele>844.0</ele><time>2026-04-26T17:01:27.008Z</time></trkpt><trkpt lat="43.7778483" lon="11.5604892"><ele>844.0</ele><time>2026-04-26T17:01:30.02Z</time></trkpt><trkpt lat="43.7779067" lon="11.5603848"><ele>844.0</ele><time>2026-04-26T17:01:32.022Z</time></trkpt><trkpt lat="43.777951" lon="11.5602843"><ele>844.0</ele><time>2026-04-26T17:01:34.025Z</time></trkpt><trkpt lat="43.7779797" lon="11.5601928"><ele>844.0</ele><time>2026-04-26T17:01:36.028Z</time></trkpt><trkpt lat="43.7780069" lon="11.5600629"><ele>844.0</ele><time>2026-04-26T17:01:38.022Z</time></trkpt><trkpt lat="43.7780316" lon="11.5599238"><ele>842.8571428571429</ele><time>2026-04-26T17:01:40.02Z</time></trkpt><trkpt lat="43.7780512" lon="11.559815"><ele>841.7142857142858</ele><time>2026-04-26T17:01:42.011Z</time></trkpt><trkpt lat="43.7780766" lon="11.5597019"><ele>840.5714285714286</ele><time>2026-04-26T17:01:44.006Z</time></trkpt><trkpt lat="43.7780921" lon="11.5596086"><ele>839.4285714285714</ele><time>2026-04-26T17:01:46.019Z</time></trkpt><trkpt lat="43.7780989" lon="11.5595217"><ele>838.2857142857142</ele><time>2026-04-26T17:01:48.031Z</time></trkpt><trkpt lat="43.7781033" lon="11.5594302"><ele>837.1428571428571</ele><time>2026-04-26T17:01:50.01Z</time></trkpt><trkpt lat="43.7781167" lon="11.5593237"><ele>836.0</ele><time>2026-04-26T17:01:52.022Z</time></trkpt><trkpt lat="43.778111" lon="11.5592028"><ele>834.5999999999999</ele><time>2026-04-26T17:01:54.007Z</time></trkpt><trkpt lat="43.7780954" lon="11.5590819"><ele>833.2</ele><time>2026-04-26T17:01:56.017Z</time></trkpt><trkpt lat="43.7780656" lon="11.5589548"><ele>831.8</ele><time>2026-04-26T17:01:59.034Z</time></trkpt><trkpt lat="43.7780419" lon="11.5588434"><ele>830.4000000000001</ele><time>2026-04-26T17:02:01.008Z</time></trkpt><trkpt lat="43.7780216" lon="11.5587246"><ele>829.0</ele><time>2026-04-26T17:02:03.012Z</time></trkpt><trkpt lat="43.7779982" lon="11.5586002"><ele>827.9999999999999</ele><time>2026-04-26T17:02:05.017Z</time></trkpt><trkpt lat="43.7779884" lon="11.558496"><ele>827.0</ele><time>2026-04-26T17:02:07.018Z</time></trkpt><trkpt lat="43.7780509" lon="11.5583917"><ele>826.0</ele><time>2026-04-26T17:02:09.011Z</time></trkpt><trkpt lat="43.778118" lon="11.5583806"><ele>825.0</ele><time>2026-04-26T17:02:11.022Z</time></trkpt><trkpt lat="43.7781917" lon="11.5584325"><ele>823.9999999999999</ele><time>2026-04-26T17:02:13.019Z</time></trkpt><trkpt lat="43.7782519" lon="11.5585134"><ele>823.0</ele><time>2026-04-26T17:02:15.013Z</time></trkpt><trkpt lat="43.778291" lon="11.5585955"><ele>823.0</ele><time>2026-04-26T17:02:17.016Z</time></trkpt><trkpt lat="43.7783265" lon="11.5586793"><ele>823.0</ele><time>2026-04-26T17:02:19.023Z</time></trkpt><trkpt lat="43.7783541" lon="11.5587665"><ele>823.0</ele><time>2026-04-26T17:02:22.015Z</time></trkpt><trkpt lat="43.7784304" lon="11.5587842"><ele>823.0</ele><time>2026-04-26T17:02:26.018Z</time></trkpt><trkpt lat="43.7784703" lon="11.5587062"><ele>823.0</ele><time>2026-04-26T17:02:35.011Z</time></trkpt><trkpt lat="43.7784226" lon="11.5586194"><ele>823.0</ele><time>2026-04-26T17:02:38.016Z</time></trkpt><trkpt lat="43.7783728" lon="11.5585609"><ele>823.0</ele><time>2026-04-26T17:02:40.011Z</time></trkpt><trkpt lat="43.7783159" lon="11.558482"><ele>822.9999999999999</ele><time>2026-04-26T17:02:43.004Z</time></trkpt><trkpt lat="43.7782602" lon="11.5584114"><ele>823.0</ele><time>2026-04-26T17:02:45.012Z</time></trkpt><trkpt lat="43.7781905" lon="11.5583559"><ele>823.0</ele><time>2026-04-26T17:02:47.014Z</time></trkpt><trkpt lat="43.7780969" lon="11.5583262"><ele>823.0</ele><time>2026-04-26T17:02:49.013Z</time></trkpt><trkpt lat="43.7780343" lon="11.5583153"><ele>822.9999999999999</ele><time>2026-04-26T17:02:51.007Z</time></trkpt><trkpt lat="43.7780122" lon="11.5582207"><ele>823.0</ele><time>2026-04-26T17:02:54.021Z</time></trkpt><trkpt lat="43.7780943" lon="11.5581562"><ele>822.9999999999999</ele><time>2026-04-26T17:02:57.024Z</time></trkpt><trkpt lat="43.7781707" lon="11.5581124"><ele>823.0</ele><time>2026-04-26T17:03:00.013Z</time></trkpt><trkpt lat="43.7782306" lon="11.5580562"><ele>823.0</ele><time>2026-04-26T17:03:03.018Z</time></trkpt><trkpt lat="43.7782948" lon="11.5579737"><ele>823.0</ele><time>2026-04-26T17:03:06.014Z</time></trkpt><trkpt lat="43.7783556" lon="11.5579075"><ele>822.9999999999999</ele><time>2026-04-26T17:03:09.019Z</time></trkpt><trkpt lat="43.7784149" lon="11.5578217"><ele>823.0</ele><time>2026-04-26T17:03:12.011Z</time></trkpt><trkpt lat="43.778465" lon="11.5577197"><ele>820.8333333333333</ele><time>2026-04-26T17:03:15.014Z</time></trkpt><trkpt lat="43.7785022" lon="11.5576421"><ele>818.6666666666666</ele><time>2026-04-26T17:03:17.013Z</time></trkpt><trkpt lat="43.778533" lon="11.5575509"><ele>816.5</ele><time>2026-04-26T17:03:19.012Z</time></trkpt><trkpt lat="43.7785347" lon="11.5574494"><ele>814.3333333333333</ele><time>2026-04-26T17:03:21.014Z</time></trkpt><trkpt lat="43.7785433" lon="11.5573324"><ele>812.1666666666666</ele><time>2026-04-26T17:03:24.019Z</time></trkpt><trkpt lat="43.7785736" lon="11.5572203"><ele>810.0</ele><time>2026-04-26T17:03:27.025Z</time></trkpt><trkpt lat="43.7786174" lon="11.5571136"><ele>806.6666666666666</ele><time>2026-04-26T17:03:30.011Z</time></trkpt><trkpt lat="43.7786473" lon="11.5570353"><ele>803.3333333333333</ele><time>2026-04-26T17:03:32.005Z</time></trkpt><trkpt lat="43.7786981" lon="11.5569704"><ele>800.0</ele><time>2026-04-26T17:03:34.012Z</time></trkpt><trkpt lat="43.7787782" lon="11.5568989"><ele>796.6666666666666</ele><time>2026-04-26T17:03:37.011Z</time></trkpt><trkpt lat="43.7788474" lon="11.556864"><ele>793.3333333333333</ele><time>2026-04-26T17:03:39.01Z</time></trkpt><trkpt lat="43.7789049" lon="11.5568264"><ele>790.0</ele><time>2026-04-26T17:03:41.011Z</time></trkpt><trkpt lat="43.7789885" lon="11.556802"><ele>789.9999999999999</ele><time>2026-04-26T17:03:44.012Z</time></trkpt><trkpt lat="43.7790753" lon="11.5567886"><ele>790.0</ele><time>2026-04-26T17:03:47.012Z</time></trkpt><trkpt lat="43.7791416" lon="11.5567603"><ele>790.0</ele><time>2026-04-26T17:03:49.012Z</time></trkpt><trkpt lat="43.7791909" lon="11.5566442"><ele>790.0</ele><time>2026-04-26T17:03:52.024Z</time></trkpt><trkpt lat="43.7791696" lon="11.5565394"><ele>789.9999999999999</ele><time>2026-04-26T17:03:54.022Z</time></trkpt><trkpt lat="43.7791394" lon="11.5564532"><ele>790.0</ele><time>2026-04-26T17:03:56.019Z</time></trkpt><trkpt lat="43.779093" lon="11.5563914"><ele>789.9999999999999</ele><time>2026-04-26T17:03:58.018Z</time></trkpt><trkpt lat="43.7790098" lon="11.5563574"><ele>790.0</ele><time>2026-04-26T17:04:00.013Z</time></trkpt><trkpt lat="43.778938" lon="11.5563113"><ele>790.0</ele><time>2026-04-26T17:04:02.009Z</time></trkpt><trkpt lat="43.7788705" lon="11.5562573"><ele>790.0</ele><time>2026-04-26T17:04:04.007Z</time></trkpt><trkpt lat="43.7788218" lon="11.5561743"><ele>789.9999999999999</ele><time>2026-04-26T17:04:06.015Z</time></trkpt><trkpt lat="43.778779" lon="11.5560664"><ele>790.0</ele><time>2026-04-26T17:04:08.008Z</time></trkpt><trkpt lat="43.7787612" lon="11.555953"><ele>788.1428571428571</ele><time>2026-04-26T17:04:10.016Z</time></trkpt><trkpt lat="43.7787394" lon="11.5558612"><ele>786.2857142857143</ele><time>2026-04-26T17:04:12.015Z</time></trkpt><trkpt lat="43.778711" lon="11.5557438"><ele>784.4285714285714</ele><time>2026-04-26T17:04:15.012Z</time></trkpt><trkpt lat="43.7787028" lon="11.5556479"><ele>782.5714285714286</ele><time>2026-04-26T17:04:17.007Z</time></trkpt><trkpt lat="43.7787003" lon="11.5555527"><ele>780.7142857142858</ele><time>2026-04-26T17:04:19.016Z</time></trkpt><trkpt lat="43.778696" lon="11.5554521"><ele>778.8571428571429</ele><time>2026-04-26T17:04:21.02Z</time></trkpt><trkpt lat="43.7786793" lon="11.5553591"><ele>777.0</ele><time>2026-04-26T17:04:23.015Z</time></trkpt><trkpt lat="43.778656" lon="11.5552667"><ele>775.3333333333334</ele><time>2026-04-26T17:04:26.011Z</time></trkpt><trkpt lat="43.7786291" lon="11.5551822"><ele>773.6666666666666</ele><time>2026-04-26T17:04:30.014Z</time></trkpt><trkpt lat="43.7786196" lon="11.5550656"><ele>772.0</ele><time>2026-04-26T17:04:33.005Z</time></trkpt><trkpt lat="43.7786182" lon="11.5549685"><ele>770.3333333333333</ele><time>2026-04-26T17:04:35.009Z</time></trkpt><trkpt lat="43.7786208" lon="11.5548587"><ele>768.6666666666666</ele><time>2026-04-26T17:04:37.025Z</time></trkpt><trkpt lat="43.7786095" lon="11.5547303"><ele>767.0</ele><time>2026-04-26T17:04:39.01Z</time></trkpt><trkpt lat="43.7785901" lon="11.5546158"><ele>767.3333333333333</ele><time>2026-04-26T17:04:41.01Z</time></trkpt><trkpt lat="43.7785314" lon="11.5545078"><ele>767.6666666666666</ele><time>2026-04-26T17:04:43.019Z</time></trkpt><trkpt lat="43.7784593" lon="11.5544344"><ele>768.0</ele><time>2026-04-26T17:04:45.01Z</time></trkpt><trkpt lat="43.7783907" lon="11.5543574"><ele>768.3333333333333</ele><time>2026-04-26T17:04:47.016Z</time></trkpt><trkpt lat="43.7783339" lon="11.5542749"><ele>768.6666666666666</ele><time>2026-04-26T17:04:49.013Z</time></trkpt><trkpt lat="43.7782778" lon="11.5541799"><ele>769.0</ele><time>2026-04-26T17:04:51.015Z</time></trkpt><trkpt lat="43.7782376" lon="11.554085"><ele>768.9999999999999</ele><time>2026-04-26T17:04:53.019Z</time></trkpt><trkpt lat="43.778176" lon="11.553998"><ele>769.0</ele><time>2026-04-26T17:04:55.017Z</time></trkpt><trkpt lat="43.7781069" lon="11.5539519"><ele>769.0</ele><time>2026-04-26T17:04:57.02Z</time></trkpt><trkpt lat="43.7780374" lon="11.5539166"><ele>769.0</ele><time>2026-04-26T17:04:59.01Z</time></trkpt><trkpt lat="43.7779635" lon="11.5538767"><ele>768.9999999999999</ele><time>2026-04-26T17:05:01.014Z</time></trkpt><trkpt lat="43.7778873" lon="11.5538514"><ele>769.0</ele><time>2026-04-26T17:05:03.015Z</time></trkpt><trkpt lat="43.7778287" lon="11.5537898"><ele>767.8571428571428</ele><time>2026-04-26T17:05:06.013Z</time></trkpt><trkpt lat="43.7778411" lon="11.5536877"><ele>766.7142857142858</ele><time>2026-04-26T17:05:10.016Z</time></trkpt><trkpt lat="43.7778773" lon="11.5536133"><ele>765.5714285714286</ele><time>2026-04-26T17:05:12.012Z</time></trkpt><trkpt lat="43.7779445" lon="11.5535272"><ele>764.4285714285713</ele><time>2026-04-26T17:05:14.018Z</time></trkpt><trkpt lat="43.7779849" lon="11.5534472"><ele>763.2857142857142</ele><time>2026-04-26T17:05:16.015Z</time></trkpt><trkpt lat="43.7780125" lon="11.5533604"><ele>762.1428571428571</ele><time>2026-04-26T17:05:18.016Z</time></trkpt><trkpt lat="43.7780517" lon="11.5532884"><ele>761.0</ele><time>2026-04-26T17:05:20.016Z</time></trkpt><trkpt lat="43.7780903" lon="11.5532148"><ele>761.0</ele><time>2026-04-26T17:05:22.016Z</time></trkpt><trkpt lat="43.7781273" lon="11.55312"><ele>761.0</ele><time>2026-04-26T17:05:24.019Z</time></trkpt><trkpt lat="43.778175" lon="11.5530134"><ele>761.0</ele><time>2026-04-26T17:05:26.015Z</time></trkpt><trkpt lat="43.7782154" lon="11.5529202"><ele>761.0</ele><time>2026-04-26T17:05:28.017Z</time></trkpt><trkpt lat="43.7782561" lon="11.5528085"><ele>761.0</ele><time>2026-04-26T17:05:30.011Z</time></trkpt><trkpt lat="43.7783071" lon="11.5526964"><ele>761.0</ele><time>2026-04-26T17:05:32.014Z</time></trkpt><trkpt lat="43.7783432" lon="11.5526138"><ele>759.9999999999999</ele><time>2026-04-26T17:05:34.01Z</time></trkpt><trkpt lat="43.7783908" lon="11.5525312"><ele>759.0</ele><time>2026-04-26T17:05:38.009Z</time></trkpt><trkpt lat="43.7784185" lon="11.5524523"><ele>758.0</ele><time>2026-04-26T17:05:44.018Z</time></trkpt><trkpt lat="43.7784757" lon="11.5524135"><ele>757.0</ele><time>2026-04-26T17:05:49.013Z</time></trkpt><trkpt lat="43.7785495" lon="11.5524111"><ele>756.0</ele><time>2026-04-26T17:05:52.012Z</time></trkpt><trkpt lat="43.7786165" lon="11.5524116"><ele>754.9999999999999</ele><time>2026-04-26T17:05:54.014Z</time></trkpt><trkpt lat="43.7786959" lon="11.5523808"><ele>754.0</ele><time>2026-04-26T17:05:56.009Z</time></trkpt><trkpt lat="43.7787688" lon="11.5523519"><ele>751.0</ele><time>2026-04-26T17:05:58.022Z</time></trkpt><trkpt lat="43.7788518" lon="11.55233"><ele>748.0</ele><time>2026-04-26T17:06:00.01Z</time></trkpt><trkpt lat="43.7789305" lon="11.5523086"><ele>745.0</ele><time>2026-04-26T17:06:02.01Z</time></trkpt><trkpt lat="43.779024" lon="11.5522564"><ele>742.0</ele><time>2026-04-26T17:06:05.01Z</time></trkpt><trkpt lat="43.7790874" lon="11.5521734"><ele>739.0</ele><time>2026-04-26T17:06:07.007Z</time></trkpt><trkpt lat="43.7791283" lon="11.5520658"><ele>736.0</ele><time>2026-04-26T17:06:09.011Z</time></trkpt><trkpt lat="43.7791345" lon="11.5519497"><ele>735.8333333333334</ele><time>2026-04-26T17:06:11.013Z</time></trkpt><trkpt lat="43.7791255" lon="11.5518351"><ele>735.6666666666667</ele><time>2026-04-26T17:06:13.01Z</time></trkpt><trkpt lat="43.7791058" lon="11.5517244"><ele>735.5</ele><time>2026-04-26T17:06:15.005Z</time></trkpt><trkpt lat="43.7790983" lon="11.5516181"><ele>735.3333333333334</ele><time>2026-04-26T17:06:17.018Z</time></trkpt><trkpt lat="43.7791013" lon="11.551507"><ele>735.1666666666666</ele><time>2026-04-26T17:06:19.009Z</time></trkpt><trkpt lat="43.7790973" lon="11.551394"><ele>735.0</ele><time>2026-04-26T17:06:21.004Z</time></trkpt><trkpt lat="43.7790839" lon="11.5512733"><ele>733.0</ele><time>2026-04-26T17:06:23.016Z</time></trkpt><trkpt lat="43.7790607" lon="11.551172"><ele>731.0</ele><time>2026-04-26T17:06:24.975Z</time></trkpt><trkpt lat="43.7790343" lon="11.5510857"><ele>729.0</ele><time>2026-04-26T17:06:27.013Z</time></trkpt><trkpt lat="43.7789928" lon="11.5509879"><ele>727.0</ele><time>2026-04-26T17:06:30.011Z</time></trkpt><trkpt lat="43.7789135" lon="11.5508897"><ele>725.0</ele><time>2026-04-26T17:06:33.011Z</time></trkpt><trkpt lat="43.7788514" lon="11.5508241"><ele>723.0</ele><time>2026-04-26T17:06:35.008Z</time></trkpt><trkpt lat="43.7787903" lon="11.550749"><ele>723.0</ele><time>2026-04-26T17:06:37.02Z</time></trkpt><trkpt lat="43.7787176" lon="11.5506514"><ele>723.0</ele><time>2026-04-26T17:06:39.013Z</time></trkpt><trkpt lat="43.7786437" lon="11.5505585"><ele>723.0</ele><time>2026-04-26T17:06:41.021Z</time></trkpt><trkpt lat="43.7785652" lon="11.5504795"><ele>723.0</ele><time>2026-04-26T17:06:43.006Z</time></trkpt><trkpt lat="43.7784803" lon="11.5504464"><ele>723.0</ele><time>2026-04-26T17:06:44.997Z</time></trkpt><trkpt lat="43.7783931" lon="11.5504627"><ele>724.1666666666666</ele><time>2026-04-26T17:06:48.007Z</time></trkpt><trkpt lat="43.7783259" lon="11.5504947"><ele>725.3333333333334</ele><time>2026-04-26T17:06:50.012Z</time></trkpt><trkpt lat="43.7782602" lon="11.5504968"><ele>726.5</ele><time>2026-04-26T17:06:52.004Z</time></trkpt><trkpt lat="43.7781853" lon="11.5504853"><ele>727.6666666666667</ele><time>2026-04-26T17:06:54.018Z</time></trkpt><trkpt lat="43.7780853" lon="11.5504681"><ele>728.8333333333334</ele><time>2026-04-26T17:06:57.013Z</time></trkpt><trkpt lat="43.7780196" lon="11.5504208"><ele>730.0</ele><time>2026-04-26T17:06:59.025Z</time></trkpt><trkpt lat="43.7779637" lon="11.5503497"><ele>727.8333333333334</ele><time>2026-04-26T17:07:01.01Z</time></trkpt><trkpt lat="43.7779172" lon="11.5502577"><ele>725.6666666666667</ele><time>2026-04-26T17:07:03.013Z</time></trkpt><trkpt lat="43.7778757" lon="11.5501897"><ele>723.5</ele><time>2026-04-26T17:07:05.009Z</time></trkpt><trkpt lat="43.7778175" lon="11.550098"><ele>721.3333333333334</ele><time>2026-04-26T17:07:07.019Z</time></trkpt><trkpt lat="43.7777659" lon="11.5500161"><ele>719.1666666666666</ele><time>2026-04-26T17:07:09.014Z</time></trkpt><trkpt lat="43.7777173" lon="11.5499072"><ele>717.0</ele><time>2026-04-26T17:07:11.017Z</time></trkpt><trkpt lat="43.7776748" lon="11.5497981"><ele>717.0</ele><time>2026-04-26T17:07:13.019Z</time></trkpt><trkpt lat="43.7776227" lon="11.549707"><ele>717.0</ele><time>2026-04-26T17:07:15.009Z</time></trkpt><trkpt lat="43.7775607" lon="11.5496587"><ele>717.0</ele><time>2026-04-26T17:07:17.008Z</time></trkpt><trkpt lat="43.7774892" lon="11.5496541"><ele>717.0</ele><time>2026-04-26T17:07:19.016Z</time></trkpt><trkpt lat="43.7773791" lon="11.5496514"><ele>717.0</ele><time>2026-04-26T17:07:21.009Z</time></trkpt><trkpt lat="43.7772913" lon="11.5496559"><ele>717.0</ele><time>2026-04-26T17:07:23.009Z</time></trkpt><trkpt lat="43.7772152" lon="11.5496457"><ele>717.0</ele><time>2026-04-26T17:07:27.003Z</time></trkpt><trkpt lat="43.7771181" lon="11.5496434"><ele>717.0</ele><time>2026-04-26T17:07:30.015Z</time></trkpt><trkpt lat="43.7770468" lon="11.5496245"><ele>717.0</ele><time>2026-04-26T17:07:32.014Z</time></trkpt><trkpt lat="43.776973" lon="11.5496179"><ele>717.0</ele><time>2026-04-26T17:07:36.012Z</time></trkpt><trkpt lat="43.7768929" lon="11.5496258"><ele>717.0</ele><time>2026-04-26T17:07:40.007Z</time></trkpt><trkpt lat="43.7768121" lon="11.5496257"><ele>717.0</ele><time>2026-04-26T17:07:43.018Z</time></trkpt><trkpt lat="43.7767319" lon="11.5496296"><ele>716.6666666666666</ele><time>2026-04-26T17:07:45.006Z</time></trkpt><trkpt lat="43.7766655" lon="11.5496281"><ele>716.3333333333334</ele><time>2026-04-26T17:07:47.01Z</time></trkpt><trkpt lat="43.776602" lon="11.5496361"><ele>716.0</ele><time>2026-04-26T17:07:49.014Z</time></trkpt><trkpt lat="43.7765182" lon="11.5496851"><ele>715.6666666666667</ele><time>2026-04-26T17:07:52.013Z</time></trkpt><trkpt lat="43.7764274" lon="11.5497053"><ele>715.3333333333334</ele><time>2026-04-26T17:07:55.016Z</time></trkpt><trkpt lat="43.7763572" lon="11.5496893"><ele>715.0</ele><time>2026-04-26T17:07:58.014Z</time></trkpt><trkpt lat="43.7763163" lon="11.5496136"><ele>712.6666666666667</ele><time>2026-04-26T17:08:01.02Z</time></trkpt><trkpt lat="43.7763662" lon="11.5495319"><ele>710.3333333333334</ele><time>2026-04-26T17:08:04.013Z</time></trkpt><trkpt lat="43.7764069" lon="11.5494149"><ele>708.0</ele><time>2026-04-26T17:08:07.02Z</time></trkpt><trkpt lat="43.7764344" lon="11.5492879"><ele>705.6666666666666</ele><time>2026-04-26T17:08:10.013Z</time></trkpt><trkpt lat="43.776472" lon="11.5491805"><ele>703.3333333333333</ele><time>2026-04-26T17:08:13.02Z</time></trkpt><trkpt lat="43.7765185" lon="11.5490929"><ele>701.0</ele><time>2026-04-26T17:08:15.014Z</time></trkpt><trkpt lat="43.7765574" lon="11.5490034"><ele>701.0</ele><time>2026-04-26T17:08:17.017Z</time></trkpt><trkpt lat="43.7765867" lon="11.5489196"><ele>701.0</ele><time>2026-04-26T17:08:19.013Z</time></trkpt><trkpt lat="43.7765828" lon="11.5488292"><ele>701.0</ele><time>2026-04-26T17:08:21.01Z</time></trkpt><trkpt lat="43.7765646" lon="11.5487237"><ele>701.0</ele><time>2026-04-26T17:08:24.01Z</time></trkpt><trkpt lat="43.7765632" lon="11.5486306"><ele>701.0</ele><time>2026-04-26T17:08:27.015Z</time></trkpt><trkpt lat="43.7765517" lon="11.5485256"><ele>701.0</ele><time>2026-04-26T17:08:30.01Z</time></trkpt><trkpt lat="43.7765244" lon="11.5484117"><ele>701.0</ele><time>2026-04-26T17:08:33.016Z</time></trkpt><trkpt lat="43.7765135" lon="11.5482694"><ele>699.4285714285714</ele><time>2026-04-26T17:08:36.02Z</time></trkpt><trkpt lat="43.7765103" lon="11.5481715"><ele>697.8571428571428</ele><time>2026-04-26T17:08:38.017Z</time></trkpt><trkpt lat="43.7765067" lon="11.548072"><ele>696.2857142857142</ele><time>2026-04-26T17:08:40.025Z</time></trkpt><trkpt lat="43.7764902" lon="11.5479622"><ele>694.7142857142858</ele><time>2026-04-26T17:08:43.01Z</time></trkpt><trkpt lat="43.7764589" lon="11.547857"><ele>693.1428571428571</ele><time>2026-04-26T17:08:46.012Z</time></trkpt><trkpt lat="43.7764185" lon="11.5477774"><ele>691.5714285714286</ele><time>2026-04-26T17:08:48.014Z</time></trkpt><trkpt lat="43.7763741" lon="11.5477079"><ele>690.0</ele><time>2026-04-26T17:08:50.01Z</time></trkpt><trkpt lat="43.7763264" lon="11.5476034"><ele>688.6666666666666</ele><time>2026-04-26T17:08:53.014Z</time></trkpt><trkpt lat="43.776306" lon="11.5474906"><ele>687.3333333333334</ele><time>2026-04-26T17:08:56.017Z</time></trkpt><trkpt lat="43.776308" lon="11.5473776"><ele>686.0</ele><time>2026-04-26T17:08:59.009Z</time></trkpt><trkpt lat="43.7763038" lon="11.5472793"><ele>684.6666666666667</ele><time>2026-04-26T17:09:01.009Z</time></trkpt><trkpt lat="43.7762881" lon="11.5471822"><ele>683.3333333333334</ele><time>2026-04-26T17:09:03.006Z</time></trkpt><trkpt lat="43.7762824" lon="11.5470759"><ele>682.0</ele><time>2026-04-26T17:09:05.022Z</time></trkpt><trkpt lat="43.7762661" lon="11.5469515"><ele>680.8571428571429</ele><time>2026-04-26T17:09:07.019Z</time></trkpt><trkpt lat="43.7762518" lon="11.5468647"><ele>679.7142857142858</ele><time>2026-04-26T17:09:09.007Z</time></trkpt><trkpt lat="43.7762671" lon="11.5467655"><ele>678.5714285714287</ele><time>2026-04-26T17:09:11.006Z</time></trkpt><trkpt lat="43.7763036" lon="11.5466749"><ele>677.4285714285714</ele><time>2026-04-26T17:09:13.008Z</time></trkpt><trkpt lat="43.7763645" lon="11.5466444"><ele>676.2857142857143</ele><time>2026-04-26T17:09:15.015Z</time></trkpt><trkpt lat="43.7764431" lon="11.5466164"><ele>675.1428571428572</ele><time>2026-04-26T17:09:18.016Z</time></trkpt><trkpt lat="43.7764811" lon="11.5465467"><ele>674.0</ele><time>2026-04-26T17:09:20.009Z</time></trkpt><trkpt lat="43.7765226" lon="11.5464685"><ele>674.0</ele><time>2026-04-26T17:09:22.025Z</time></trkpt><trkpt lat="43.7765711" lon="11.546374"><ele>674.0</ele><time>2026-04-26T17:09:25.011Z</time></trkpt><trkpt lat="43.7766345" lon="11.5463591"><ele>674.0</ele><time>2026-04-26T17:09:31.007Z</time></trkpt><trkpt lat="43.7767067" lon="11.5464157"><ele>674.0</ele><time>2026-04-26T17:09:38.007Z</time></trkpt><trkpt lat="43.7767878" lon="11.5464664"><ele>674.0</ele><time>2026-04-26T17:09:41.007Z</time></trkpt><trkpt lat="43.7768538" lon="11.5465155"><ele>674.0</ele><time>2026-04-26T17:09:44.007Z</time></trkpt><trkpt lat="43.7769253" lon="11.5465637"><ele>670.2857142857143</ele><time>2026-04-26T17:09:49.01Z</time></trkpt><trkpt lat="43.7769891" lon="11.5466062"><ele>666.5714285714286</ele><time>2026-04-26T17:09:53.011Z</time></trkpt><trkpt lat="43.7770448" lon="11.546661"><ele>662.8571428571429</ele><time>2026-04-26T17:09:56.013Z</time></trkpt><trkpt lat="43.7771198" lon="11.5467049"><ele>659.1428571428571</ele><time>2026-04-26T17:09:59.012Z</time></trkpt><trkpt lat="43.7771819" lon="11.5467666"><ele>655.4285714285714</ele><time>2026-04-26T17:10:02.008Z</time></trkpt><trkpt lat="43.7772224" lon="11.5468366"><ele>651.7142857142858</ele><time>2026-04-26T17:10:05.009Z</time></trkpt><trkpt lat="43.7772701" lon="11.5469241"><ele>648.0</ele><time>2026-04-26T17:10:09Z</time></trkpt><trkpt lat="43.7773351" lon="11.5469914"><ele>648.0</ele><time>2026-04-26T17:10:13.009Z</time></trkpt><trkpt lat="43.7773983" lon="11.5470251"><ele>648.0</ele><time>2026-04-26T17:10:16.002Z</time></trkpt><trkpt lat="43.777463" lon="11.5470046"><ele>648.0</ele><time>2026-04-26T17:10:21.006Z</time></trkpt><trkpt lat="43.7774939" lon="11.5469191"><ele>648.0</ele><time>2026-04-26T17:10:25.007Z</time></trkpt><trkpt lat="43.7775241" lon="11.546825"><ele>648.0</ele><time>2026-04-26T17:10:28.013Z</time></trkpt><trkpt lat="43.7775424" lon="11.546738"><ele>648.0</ele><time>2026-04-26T17:10:30.004Z</time></trkpt><trkpt lat="43.7775911" lon="11.5466482"><ele>648.0</ele><time>2026-04-26T17:10:33.024Z</time></trkpt><trkpt lat="43.7776303" lon="11.5465465"><ele>648.0</ele><time>2026-04-26T17:10:36.003Z</time></trkpt><trkpt lat="43.7776582" lon="11.5464415"><ele>648.0</ele><time>2026-04-26T17:10:39.008Z</time></trkpt><trkpt lat="43.777678" lon="11.5463475"><ele>648.0</ele><time>2026-04-26T17:10:41.009Z</time></trkpt><trkpt lat="43.7776955" lon="11.5462532"><ele>648.0</ele><time>2026-04-26T17:10:43.018Z</time></trkpt><trkpt lat="43.7777022" lon="11.5461293"><ele>648.0</ele><time>2026-04-26T17:10:46.016Z</time></trkpt><trkpt lat="43.7777039" lon="11.5460328"><ele>648.0</ele><time>2026-04-26T17:10:48.008Z</time></trkpt><trkpt lat="43.7777118" lon="11.5459416"><ele>648.0</ele><time>2026-04-26T17:10:50.011Z</time></trkpt><trkpt lat="43.7777352" lon="11.5458584"><ele>642.0</ele><time>2026-04-26T17:10:54.005Z</time></trkpt><trkpt lat="43.7777687" lon="11.5457499"><ele>636.0</ele><time>2026-04-26T17:10:58.011Z</time></trkpt><trkpt lat="43.7777852" lon="11.5456244"><ele>630.0</ele><time>2026-04-26T17:11:01.02Z</time></trkpt><trkpt lat="43.7777931" lon="11.5455239"><ele>624.0</ele><time>2026-04-26T17:11:03.007Z</time></trkpt><trkpt lat="43.7778026" lon="11.545416"><ele>618.0</ele><time>2026-04-26T17:11:05.016Z</time></trkpt><trkpt lat="43.7778117" lon="11.5453043"><ele>612.0</ele><time>2026-04-26T17:11:07.013Z</time></trkpt><trkpt lat="43.7778293" lon="11.5452055"><ele>611.0</ele><time>2026-04-26T17:11:09.007Z</time></trkpt><trkpt lat="43.7778461" lon="11.5450869"><ele>610.0</ele><time>2026-04-26T17:11:11.008Z</time></trkpt><trkpt lat="43.7778647" lon="11.5449906"><ele>609.0</ele><time>2026-04-26T17:11:13.006Z</time></trkpt><trkpt lat="43.7778939" lon="11.5448894"><ele>608.0</ele><time>2026-04-26T17:11:16.009Z</time></trkpt><trkpt lat="43.7779167" lon="11.5447975"><ele>607.0</ele><time>2026-04-26T17:11:18.015Z</time></trkpt><trkpt lat="43.7779494" lon="11.5446876"><ele>606.0</ele><time>2026-04-26T17:11:21.003Z</time></trkpt><trkpt lat="43.7779531" lon="11.5445908"><ele>605.0</ele><time>2026-04-26T17:11:24.001Z</time></trkpt><trkpt lat="43.777925" lon="11.5444732"><ele>604.0</ele><time>2026-04-26T17:11:27.009Z</time></trkpt><trkpt lat="43.7779202" lon="11.5443641"><ele>603.0</ele><time>2026-04-26T17:11:30.011Z</time></trkpt><trkpt lat="43.7779591" lon="11.5442689"><ele>602.0</ele><time>2026-04-26T17:11:33.006Z</time></trkpt><trkpt lat="43.7779813" lon="11.5441747"><ele>601.0</ele><time>2026-04-26T17:11:36.012Z</time></trkpt><trkpt lat="43.7780091" lon="11.5440781"><ele>600.0</ele><time>2026-04-26T17:11:39.005Z</time></trkpt><trkpt lat="43.7780336" lon="11.5439808"><ele>599.9999999999999</ele><time>2026-04-26T17:11:41.006Z</time></trkpt><trkpt lat="43.7780721" lon="11.5439034"><ele>600.0</ele><time>2026-04-26T17:11:43.009Z</time></trkpt><trkpt lat="43.7781137" lon="11.5438236"><ele>600.0</ele><time>2026-04-26T17:11:45.009Z</time></trkpt><trkpt lat="43.7781654" lon="11.5437477"><ele>600.0</ele><time>2026-04-26T17:11:47.009Z</time></trkpt><trkpt lat="43.7782254" lon="11.5436798"><ele>600.0</ele><time>2026-04-26T17:11:50.008Z</time></trkpt><trkpt lat="43.7782685" lon="11.5436072"><ele>599.9999999999999</ele><time>2026-04-26T17:11:52.009Z</time></trkpt><trkpt lat="43.7783224" lon="11.5435291"><ele>600.0</ele><time>2026-04-26T17:11:54.009Z</time></trkpt><trkpt lat="43.7783882" lon="11.5434519"><ele>601.1666666666666</ele><time>2026-04-26T17:11:57.007Z</time></trkpt><trkpt lat="43.7784606" lon="11.5433853"><ele>602.3333333333334</ele><time>2026-04-26T17:12:00.011Z</time></trkpt><trkpt lat="43.7785029" lon="11.5433165"><ele>603.5</ele><time>2026-04-26T17:12:02.005Z</time></trkpt><trkpt lat="43.7785629" lon="11.5432281"><ele>604.6666666666667</ele><time>2026-04-26T17:12:04.01Z</time></trkpt><trkpt lat="43.7786232" lon="11.5431478"><ele>605.8333333333334</ele><time>2026-04-26T17:12:06.009Z</time></trkpt><trkpt lat="43.7786768" lon="11.5430965"><ele>607.0</ele><time>2026-04-26T17:12:09.006Z</time></trkpt><trkpt lat="43.7787272" lon="11.5430259"><ele>603.6666666666667</ele><time>2026-04-26T17:12:13.008Z</time></trkpt><trkpt lat="43.7787563" lon="11.5429479"><ele>600.3333333333334</ele><time>2026-04-26T17:12:16.022Z</time></trkpt><trkpt lat="43.7787753" lon="11.5428572"><ele>597.0</ele><time>2026-04-26T17:12:19.005Z</time></trkpt><trkpt lat="43.7788018" lon="11.542719"><ele>593.6666666666666</ele><time>2026-04-26T17:12:22.002Z</time></trkpt><trkpt lat="43.7788435" lon="11.5426324"><ele>590.3333333333333</ele><time>2026-04-26T17:12:24.016Z</time></trkpt><trkpt lat="43.7788981" lon="11.5425278"><ele>587.0</ele><time>2026-04-26T17:12:26.003Z</time></trkpt><trkpt lat="43.7789457" lon="11.5424415"><ele>585.1666666666666</ele><time>2026-04-26T17:12:28.006Z</time></trkpt><trkpt lat="43.778998" lon="11.5423723"><ele>583.3333333333333</ele><time>2026-04-26T17:12:31.005Z</time></trkpt><trkpt lat="43.7790725" lon="11.5423078"><ele>581.5</ele><time>2026-04-26T17:12:34.004Z</time></trkpt><trkpt lat="43.7791323" lon="11.5422394"><ele>579.6666666666666</ele><time>2026-04-26T17:12:37.004Z</time></trkpt><trkpt lat="43.7791854" lon="11.542157"><ele>577.8333333333334</ele><time>2026-04-26T17:12:40.006Z</time></trkpt><trkpt lat="43.7792258" lon="11.5420765"><ele>576.0</ele><time>2026-04-26T17:12:42.005Z</time></trkpt><trkpt lat="43.7792672" lon="11.5419756"><ele>575.1666666666666</ele><time>2026-04-26T17:12:44.007Z</time></trkpt><trkpt lat="43.7792992" lon="11.541863"><ele>574.3333333333334</ele><time>2026-04-26T17:12:47.004Z</time></trkpt><trkpt lat="43.7792591" lon="11.5417559"><ele>573.5</ele><time>2026-04-26T17:12:50.01Z</time></trkpt><trkpt lat="43.7792162" lon="11.5416831"><ele>572.6666666666667</ele><time>2026-04-26T17:12:52.01Z</time></trkpt><trkpt lat="43.7791617" lon="11.5416072"><ele>571.8333333333334</ele><time>2026-04-26T17:12:54.014Z</time></trkpt><trkpt lat="43.7791155" lon="11.5415371"><ele>571.0</ele><time>2026-04-26T17:12:57.02Z</time></trkpt><trkpt lat="43.7790994" lon="11.5414493"><ele>571.0</ele><time>2026-04-26T17:13:28.019Z</time></trkpt><trkpt lat="43.7791537" lon="11.5413472"><ele>571.0</ele><time>2026-04-26T17:13:31.003Z</time></trkpt><trkpt lat="43.779197" lon="11.5412208"><ele>571.0</ele><time>2026-04-26T17:13:34.005Z</time></trkpt><trkpt lat="43.779202" lon="11.5410845"><ele>571.0</ele><time>2026-04-26T17:13:36.005Z</time></trkpt><trkpt lat="43.7791733" lon="11.540967"><ele>571.0</ele><time>2026-04-26T17:13:38.012Z</time></trkpt><trkpt lat="43.7791403" lon="11.5408685"><ele>569.8333333333334</ele><time>2026-04-26T17:13:40.002Z</time></trkpt><trkpt lat="43.7791097" lon="11.5407796"><ele>568.6666666666667</ele><time>2026-04-26T17:13:42.011Z</time></trkpt><trkpt lat="43.7790738" lon="11.5406642"><ele>567.5</ele><time>2026-04-26T17:13:44.01Z</time></trkpt><trkpt lat="43.7790352" lon="11.5405404"><ele>566.3333333333334</ele><time>2026-04-26T17:13:46.009Z</time></trkpt><trkpt lat="43.7789915" lon="11.5404235"><ele>565.1666666666666</ele><time>2026-04-26T17:13:48.007Z</time></trkpt><trkpt lat="43.778974" lon="11.5403057"><ele>564.0</ele><time>2026-04-26T17:13:50.011Z</time></trkpt><trkpt lat="43.7789349" lon="11.540174"><ele>562.75</ele><time>2026-04-26T17:13:52.016Z</time></trkpt><trkpt lat="43.7789052" lon="11.5400138"><ele>561.5</ele><time>2026-04-26T17:13:54.012Z</time></trkpt><trkpt lat="43.7788642" lon="11.5398467"><ele>560.25</ele><time>2026-04-26T17:13:56.007Z</time></trkpt><trkpt lat="43.778834" lon="11.5396728"><ele>559.0</ele><time>2026-04-26T17:13:58.013Z</time></trkpt><trkpt lat="43.7788168" lon="11.5395184"><ele>558.6</ele><time>2026-04-26T17:14:00.02Z</time></trkpt><trkpt lat="43.7788206" lon="11.5393641"><ele>558.2</ele><time>2026-04-26T17:14:02.02Z</time></trkpt><trkpt lat="43.7788676" lon="11.5392374"><ele>557.8000000000001</ele><time>2026-04-26T17:14:04.002Z</time></trkpt><trkpt lat="43.7789533" lon="11.5391446"><ele>557.4</ele><time>2026-04-26T17:14:06.006Z</time></trkpt><trkpt lat="43.7790518" lon="11.5390504"><ele>557.0</ele><time>2026-04-26T17:14:07.996Z</time></trkpt><trkpt lat="43.7791116" lon="11.5390056"><ele>557.0</ele><time>2026-04-26T17:14:09.005Z</time></trkpt><trkpt lat="43.7791714" lon="11.5389559"><ele>557.0</ele><time>2026-04-26T17:14:10.007Z</time></trkpt><trkpt lat="43.7792278" lon="11.5388972"><ele>557.0</ele><time>2026-04-26T17:14:11Z</time></trkpt><trkpt lat="43.7792803" lon="11.5388359"><ele>557.0</ele><time>2026-04-26T17:14:12Z</time></trkpt><trkpt lat="43.7793262" lon="11.538766"><ele>557.0</ele><time>2026-04-26T17:14:13.02Z</time></trkpt><trkpt lat="43.7793662" lon="11.5386865"><ele>557.0</ele><time>2026-04-26T17:14:14.004Z</time></trkpt><trkpt lat="43.7793938" lon="11.5385941"><ele>557.0</ele><time>2026-04-26T17:14:15.016Z</time></trkpt><trkpt lat="43.7794129" lon="11.5385038"><ele>563.4</ele><time>2026-04-26T17:14:16.014Z</time></trkpt><trkpt lat="43.7794259" lon="11.5384112"><ele>569.8000000000001</ele><time>2026-04-26T17:14:17.084Z</time></trkpt><trkpt lat="43.7794509" lon="11.5382448"><ele>576.2</ele><time>2026-04-26T17:14:19.07Z</time></trkpt><trkpt lat="43.7794542" lon="11.538089"><ele>582.6</ele><time>2026-04-26T17:14:21.066Z</time></trkpt><trkpt lat="43.7794282" lon="11.5379363"><ele>589.0</ele><time>2026-04-26T17:14:23.061Z</time></trkpt><trkpt lat="43.7793971" lon="11.5378599"><ele>589.0</ele><time>2026-04-26T17:14:24.051Z</time></trkpt><trkpt lat="43.7793518" lon="11.5377003"><ele>589.0</ele><time>2026-04-26T17:14:26.058Z</time></trkpt><trkpt lat="43.7793448" lon="11.5376131"><ele>589.0</ele><time>2026-04-26T17:14:27.058Z</time></trkpt><trkpt lat="43.7793494" lon="11.537522"><ele>589.0</ele><time>2026-04-26T17:14:28.039Z</time></trkpt><trkpt lat="43.7793627" lon="11.5374342"><ele>589.0</ele><time>2026-04-26T17:14:29.06Z</time></trkpt><trkpt lat="43.7793803" lon="11.5373427"><ele>589.0</ele><time>2026-04-26T17:14:30.07Z</time></trkpt><trkpt lat="43.7793905" lon="11.5372453"><ele>589.0</ele><time>2026-04-26T17:14:31.057Z</time></trkpt><trkpt lat="43.7793955" lon="11.537149"><ele>589.0</ele><time>2026-04-26T17:14:32.056Z</time></trkpt><trkpt lat="43.7793991" lon="11.5370437"><ele>589.0</ele><time>2026-04-26T17:14:33.062Z</time></trkpt><trkpt lat="43.7793972" lon="11.5369381"><ele>589.0</ele><time>2026-04-26T17:14:34.059Z</time></trkpt><trkpt lat="43.7793906" lon="11.5368306"><ele>589.0</ele><time>2026-04-26T17:14:35.064Z</time></trkpt><trkpt lat="43.7793825" lon="11.5367311"><ele>589.0</ele><time>2026-04-26T17:14:36.056Z</time></trkpt><trkpt lat="43.779377" lon="11.5366294"><ele>589.0</ele><time>2026-04-26T17:14:37.064Z</time></trkpt><trkpt lat="43.7793713" lon="11.5365253"><ele>589.0</ele><time>2026-04-26T17:14:38.062Z</time></trkpt><trkpt lat="43.7793659" lon="11.5364221"><ele>589.0</ele><time>2026-04-26T17:14:39.062Z</time></trkpt><trkpt lat="43.7793568" lon="11.5363194"><ele>589.0</ele><time>2026-04-26T17:14:40.041Z</time></trkpt><trkpt lat="43.7793452" lon="11.5362119"><ele>589.0</ele><time>2026-04-26T17:14:41.053Z</time></trkpt><trkpt lat="43.779332" lon="11.5360996"><ele>589.0</ele><time>2026-04-26T17:14:42.056Z</time></trkpt><trkpt lat="43.7793174" lon="11.5359891"><ele>589.0</ele><time>2026-04-26T17:14:43.059Z</time></trkpt><trkpt lat="43.7793121" lon="11.535885"><ele>588.0</ele><time>2026-04-26T17:14:44.06Z</time></trkpt><trkpt lat="43.7793125" lon="11.5357765"><ele>587.0</ele><time>2026-04-26T17:14:45.061Z</time></trkpt><trkpt lat="43.7793201" lon="11.5356801"><ele>586.0</ele><time>2026-04-26T17:14:46.052Z</time></trkpt><trkpt lat="43.7793323" lon="11.5355629"><ele>585.0</ele><time>2026-04-26T17:14:47.051Z</time></trkpt><trkpt lat="43.779381" lon="11.535482"><ele>584.0</ele><time>2026-04-26T17:14:48.057Z</time></trkpt><trkpt lat="43.7794303" lon="11.5354082"><ele>583.0</ele><time>2026-04-26T17:14:49.053Z</time></trkpt><trkpt lat="43.7794695" lon="11.5353177"><ele>581.0</ele><time>2026-04-26T17:14:50.053Z</time></trkpt><trkpt lat="43.7794997" lon="11.5352288"><ele>579.0</ele><time>2026-04-26T17:14:51.052Z</time></trkpt><trkpt lat="43.7795158" lon="11.5351439"><ele>577.0</ele><time>2026-04-26T17:14:52.044Z</time></trkpt><trkpt lat="43.7794953" lon="11.5349896"><ele>575.0</ele><time>2026-04-26T17:14:54.053Z</time></trkpt><trkpt lat="43.7794751" lon="11.5349032"><ele>573.0</ele><time>2026-04-26T17:14:55.047Z</time></trkpt><trkpt lat="43.7794555" lon="11.5347291"><ele>571.0</ele><time>2026-04-26T17:14:57.051Z</time></trkpt><trkpt lat="43.7794609" lon="11.5346303"><ele>568.5</ele><time>2026-04-26T17:14:58.051Z</time></trkpt><trkpt lat="43.7794738" lon="11.5345249"><ele>566.0</ele><time>2026-04-26T17:14:59.049Z</time></trkpt><trkpt lat="43.7794877" lon="11.5344311"><ele>563.5</ele><time>2026-04-26T17:15:00.058Z</time></trkpt><trkpt lat="43.7795042" lon="11.5343216"><ele>561.0</ele><time>2026-04-26T17:15:01.047Z</time></trkpt><trkpt lat="43.7795366" lon="11.5342062"><ele>558.5</ele><time>2026-04-26T17:15:02.052Z</time></trkpt><trkpt lat="43.7795683" lon="11.534098"><ele>556.0</ele><time>2026-04-26T17:15:03.048Z</time></trkpt><trkpt lat="43.7796049" lon="11.5339817"><ele>556.0</ele><time>2026-04-26T17:15:04.054Z</time></trkpt><trkpt lat="43.779641" lon="11.5338614"><ele>556.0</ele><time>2026-04-26T17:15:05.049Z</time></trkpt><trkpt lat="43.779674" lon="11.533751"><ele>556.0</ele><time>2026-04-26T17:15:06.054Z</time></trkpt><trkpt lat="43.7797012" lon="11.5336441"><ele>556.0</ele><time>2026-04-26T17:15:07.07Z</time></trkpt><trkpt lat="43.7797272" lon="11.5335377"><ele>556.0</ele><time>2026-04-26T17:15:08.056Z</time></trkpt><trkpt lat="43.7797478" lon="11.5334325"><ele>556.0</ele><time>2026-04-26T17:15:09.056Z</time></trkpt><trkpt lat="43.7797663" lon="11.5333323"><ele>553.2</ele><time>2026-04-26T17:15:10.056Z</time></trkpt><trkpt lat="43.7797853" lon="11.5332476"><ele>550.4000000000001</ele><time>2026-04-26T17:15:11.044Z</time></trkpt><trkpt lat="43.7798358" lon="11.5331115"><ele>547.6</ele><time>2026-04-26T17:15:13.055Z</time></trkpt><trkpt lat="43.7798974" lon="11.532999"><ele>544.8000000000001</ele><time>2026-04-26T17:15:15.066Z</time></trkpt><trkpt lat="43.7799911" lon="11.5329076"><ele>542.0</ele><time>2026-04-26T17:15:17.045Z</time></trkpt><trkpt lat="43.7800942" lon="11.5328439"><ele>539.8000000000001</ele><time>2026-04-26T17:15:19.048Z</time></trkpt><trkpt lat="43.7801824" lon="11.5327498"><ele>537.6</ele><time>2026-04-26T17:15:21.053Z</time></trkpt><trkpt lat="43.7802101" lon="11.5325712"><ele>535.4000000000001</ele><time>2026-04-26T17:15:23.055Z</time></trkpt><trkpt lat="43.7802146" lon="11.5324634"><ele>533.2</ele><time>2026-04-26T17:15:24.053Z</time></trkpt><trkpt lat="43.7802214" lon="11.5323485"><ele>531.0</ele><time>2026-04-26T17:15:25.059Z</time></trkpt><trkpt lat="43.7802319" lon="11.5322249"><ele>533.2</ele><time>2026-04-26T17:15:26.062Z</time></trkpt><trkpt lat="43.7802475" lon="11.5320966"><ele>535.4000000000001</ele><time>2026-04-26T17:15:27.06Z</time></trkpt><trkpt lat="43.7802556" lon="11.5319645"><ele>537.6</ele><time>2026-04-26T17:15:28.052Z</time></trkpt><trkpt lat="43.780269" lon="11.5318338"><ele>539.8000000000001</ele><time>2026-04-26T17:15:29.053Z</time></trkpt><trkpt lat="43.7802781" lon="11.5317047"><ele>542.0</ele><time>2026-04-26T17:15:30.059Z</time></trkpt><trkpt lat="43.7802867" lon="11.5315733"><ele>542.0</ele><time>2026-04-26T17:15:31.052Z</time></trkpt><trkpt lat="43.7802975" lon="11.5314549"><ele>542.0</ele><time>2026-04-26T17:15:32.063Z</time></trkpt><trkpt lat="43.7803099" lon="11.5313548"><ele>542.0</ele><time>2026-04-26T17:15:33.057Z</time></trkpt><trkpt lat="43.7803277" lon="11.5312698"><ele>542.0</ele><time>2026-04-26T17:15:34.06Z</time></trkpt><trkpt lat="43.7803577" lon="11.5311833"><ele>542.0</ele><time>2026-04-26T17:15:35.044Z</time></trkpt><trkpt lat="43.7803934" lon="11.5311018"><ele>542.0</ele><time>2026-04-26T17:15:36.062Z</time></trkpt><trkpt lat="43.7804373" lon="11.531014"><ele>542.0</ele><time>2026-04-26T17:15:37.059Z</time></trkpt><trkpt lat="43.7804812" lon="11.5309213"><ele>539.8333333333333</ele><time>2026-04-26T17:15:38.068Z</time></trkpt><trkpt lat="43.7805334" lon="11.5308335"><ele>537.6666666666666</ele><time>2026-04-26T17:15:39.054Z</time></trkpt><trkpt lat="43.7805954" lon="11.5307393"><ele>535.5</ele><time>2026-04-26T17:15:40.059Z</time></trkpt><trkpt lat="43.7806492" lon="11.5306457"><ele>533.3333333333334</ele><time>2026-04-26T17:15:41.063Z</time></trkpt><trkpt lat="43.7806999" lon="11.5305537"><ele>531.1666666666667</ele><time>2026-04-26T17:15:42.072Z</time></trkpt><trkpt lat="43.7807535" lon="11.5304547"><ele>529.0</ele><time>2026-04-26T17:15:43.067Z</time></trkpt><trkpt lat="43.7808029" lon="11.530353"><ele>527.3333333333334</ele><time>2026-04-26T17:15:44.061Z</time></trkpt><trkpt lat="43.7808482" lon="11.5302446"><ele>525.6666666666667</ele><time>2026-04-26T17:15:45.067Z</time></trkpt><trkpt lat="43.7808929" lon="11.5301429"><ele>524.0</ele><time>2026-04-26T17:15:46.065Z</time></trkpt><trkpt lat="43.7809325" lon="11.5300447"><ele>522.3333333333334</ele><time>2026-04-26T17:15:47.055Z</time></trkpt><trkpt lat="43.7809654" lon="11.5299505"><ele>520.6666666666666</ele><time>2026-04-26T17:15:48.079Z</time></trkpt><trkpt lat="43.7809782" lon="11.5298431"><ele>519.0</ele><time>2026-04-26T17:15:49.053Z</time></trkpt><trkpt lat="43.7809803" lon="11.5297368"><ele>519.0</ele><time>2026-04-26T17:15:50.061Z</time></trkpt><trkpt lat="43.7809661" lon="11.5296284"><ele>519.0</ele><time>2026-04-26T17:15:51.061Z</time></trkpt><trkpt lat="43.7809396" lon="11.529519"><ele>519.0</ele><time>2026-04-26T17:15:52.068Z</time></trkpt><trkpt lat="43.7809099" lon="11.5294069"><ele>519.0</ele><time>2026-04-26T17:15:53.069Z</time></trkpt><trkpt lat="43.7808748" lon="11.5292867"><ele>519.0</ele><time>2026-04-26T17:15:54.062Z</time></trkpt><trkpt lat="43.7808382" lon="11.5291641"><ele>519.0</ele><time>2026-04-26T17:15:55.061Z</time></trkpt><trkpt lat="43.780795" lon="11.5290338"><ele>518.6</ele><time>2026-04-26T17:15:56.065Z</time></trkpt><trkpt lat="43.7807516" lon="11.5289009"><ele>518.2</ele><time>2026-04-26T17:15:57.058Z</time></trkpt><trkpt lat="43.7807013" lon="11.5287737"><ele>517.8000000000001</ele><time>2026-04-26T17:15:58.055Z</time></trkpt><trkpt lat="43.7806538" lon="11.5286358"><ele>517.4</ele><time>2026-04-26T17:15:59.061Z</time></trkpt><trkpt lat="43.7806033" lon="11.5284988"><ele>517.0</ele><time>2026-04-26T17:16:00.055Z</time></trkpt><trkpt lat="43.7805541" lon="11.5283616"><ele>517.0</ele><time>2026-04-26T17:16:01.068Z</time></trkpt><trkpt lat="43.7805115" lon="11.5282215"><ele>517.0</ele><time>2026-04-26T17:16:02.058Z</time></trkpt><trkpt lat="43.7804665" lon="11.528085"><ele>517.0</ele><time>2026-04-26T17:16:03.071Z</time></trkpt><trkpt lat="43.7804251" lon="11.5279719"><ele>517.0</ele><time>2026-04-26T17:16:04.062Z</time></trkpt><trkpt lat="43.7803995" lon="11.5278668"><ele>517.0</ele><time>2026-04-26T17:16:05.06Z</time></trkpt><trkpt lat="43.7803811" lon="11.5277191"><ele>514.8333333333334</ele><time>2026-04-26T17:16:07.065Z</time></trkpt><trkpt lat="43.780416" lon="11.5275978"><ele>512.6666666666667</ele><time>2026-04-26T17:16:09.063Z</time></trkpt><trkpt lat="43.7805095" lon="11.5275094"><ele>510.5</ele><time>2026-04-26T17:16:11.066Z</time></trkpt><trkpt lat="43.7805781" lon="11.5274726"><ele>508.33333333333337</ele><time>2026-04-26T17:16:12.065Z</time></trkpt><trkpt lat="43.780653" lon="11.5274491"><ele>506.1666666666667</ele><time>2026-04-26T17:16:13.06Z</time></trkpt><trkpt lat="43.7807304" lon="11.5274372"><ele>504.0</ele><time>2026-04-26T17:16:14.063Z</time></trkpt><trkpt lat="43.7807966" lon="11.5274335"><ele>504.0</ele><time>2026-04-26T17:16:15.063Z</time></trkpt><trkpt lat="43.7809153" lon="11.5274372"><ele>504.0</ele><time>2026-04-26T17:16:17.051Z</time></trkpt><trkpt lat="43.781034" lon="11.5274082"><ele>504.0</ele><time>2026-04-26T17:16:19.063Z</time></trkpt><trkpt lat="43.7811079" lon="11.5273643"><ele>504.0</ele><time>2026-04-26T17:16:20.06Z</time></trkpt><trkpt lat="43.7811856" lon="11.5273117"><ele>504.0</ele><time>2026-04-26T17:16:21.058Z</time></trkpt><trkpt lat="43.7812602" lon="11.5272537"><ele>504.0</ele><time>2026-04-26T17:16:22.055Z</time></trkpt><trkpt lat="43.781312" lon="11.5271864"><ele>504.0</ele><time>2026-04-26T17:16:23.061Z</time></trkpt><trkpt lat="43.7813939" lon="11.5270744"><ele>504.0</ele><time>2026-04-26T17:16:25.059Z</time></trkpt><trkpt lat="43.7814921" lon="11.526975"><ele>504.0</ele><time>2026-04-26T17:16:27.066Z</time></trkpt><trkpt lat="43.7815926" lon="11.5268851"><ele>504.0</ele><time>2026-04-26T17:16:29.06Z</time></trkpt><trkpt lat="43.7817098" lon="11.5268322"><ele>504.0</ele><time>2026-04-26T17:16:31.065Z</time></trkpt><trkpt lat="43.7818278" lon="11.5268307"><ele>504.0</ele><time>2026-04-26T17:16:33.051Z</time></trkpt><trkpt lat="43.7818892" lon="11.5268515"><ele>504.0</ele><time>2026-04-26T17:16:34.06Z</time></trkpt><trkpt lat="43.7820114" lon="11.5268707"><ele>504.0</ele><time>2026-04-26T17:16:36.064Z</time></trkpt><trkpt lat="43.7820789" lon="11.5268761"><ele>504.0</ele><time>2026-04-26T17:16:37.061Z</time></trkpt><trkpt lat="43.7821436" lon="11.5268677"><ele>504.0</ele><time>2026-04-26T17:16:38.059Z</time></trkpt><trkpt lat="43.782242" lon="11.5267815"><ele>504.0</ele><time>2026-04-26T17:16:40.052Z</time></trkpt><trkpt lat="43.7822726" lon="11.5267031"><ele>504.0</ele><time>2026-04-26T17:16:41.059Z</time></trkpt><trkpt lat="43.7823239" lon="11.5265778"><ele>504.0</ele><time>2026-04-26T17:16:43.062Z</time></trkpt><trkpt lat="43.7824222" lon="11.5264938"><ele>504.0</ele><time>2026-04-26T17:16:45.056Z</time></trkpt><trkpt lat="43.7824891" lon="11.5264658"><ele>504.0</ele><time>2026-04-26T17:16:46.057Z</time></trkpt><trkpt lat="43.782562" lon="11.5264445"><ele>504.0</ele><time>2026-04-26T17:16:47.055Z</time></trkpt><trkpt lat="43.7826347" lon="11.5264424"><ele>505.0</ele><time>2026-04-26T17:16:48.054Z</time></trkpt><trkpt lat="43.7827166" lon="11.5264296"><ele>506.0</ele><time>2026-04-26T17:16:49.061Z</time></trkpt><trkpt lat="43.7828046" lon="11.5264273"><ele>507.0</ele><time>2026-04-26T17:16:50.051Z</time></trkpt><trkpt lat="43.7829037" lon="11.52641"><ele>508.0</ele><time>2026-04-26T17:16:51.057Z</time></trkpt><trkpt lat="43.7829863" lon="11.5264049"><ele>509.0</ele><time>2026-04-26T17:16:52.051Z</time></trkpt><trkpt lat="43.7830781" lon="11.5263986"><ele>510.0</ele><time>2026-04-26T17:16:53.056Z</time></trkpt><trkpt lat="43.7831673" lon="11.5263893"><ele>510.0</ele><time>2026-04-26T17:16:54.054Z</time></trkpt><trkpt lat="43.7832685" lon="11.5263777"><ele>510.0</ele><time>2026-04-26T17:16:55.052Z</time></trkpt><trkpt lat="43.78335" lon="11.5263581"><ele>510.0</ele><time>2026-04-26T17:16:56.055Z</time></trkpt><trkpt lat="43.7834318" lon="11.5263619"><ele>510.0</ele><time>2026-04-26T17:16:57.059Z</time></trkpt><trkpt lat="43.7835062" lon="11.5263814"><ele>510.0</ele><time>2026-04-26T17:16:58.059Z</time></trkpt><trkpt lat="43.7835856" lon="11.5264091"><ele>510.0</ele><time>2026-04-26T17:16:59.064Z</time></trkpt><trkpt lat="43.7836583" lon="11.5264359"><ele>508.1666666666667</ele><time>2026-04-26T17:17:00.056Z</time></trkpt><trkpt lat="43.7837323" lon="11.526468"><ele>506.33333333333337</ele><time>2026-04-26T17:17:01.053Z</time></trkpt><trkpt lat="43.783812" lon="11.526493"><ele>504.5</ele><time>2026-04-26T17:17:02.054Z</time></trkpt><trkpt lat="43.7838802" lon="11.5265302"><ele>502.6666666666667</ele><time>2026-04-26T17:17:03.072Z</time></trkpt><trkpt lat="43.7839546" lon="11.5265683"><ele>500.83333333333337</ele><time>2026-04-26T17:17:04.046Z</time></trkpt><trkpt lat="43.7840319" lon="11.5266161"><ele>499.0</ele><time>2026-04-26T17:17:05.059Z</time></trkpt><trkpt lat="43.7841039" lon="11.526646"><ele>499.0</ele><time>2026-04-26T17:17:06.049Z</time></trkpt><trkpt lat="43.784193" lon="11.5266829"><ele>499.0</ele><time>2026-04-26T17:17:07.061Z</time></trkpt><trkpt lat="43.7842649" lon="11.5267127"><ele>499.0</ele><time>2026-04-26T17:17:08.054Z</time></trkpt><trkpt lat="43.7843362" lon="11.5267472"><ele>499.0</ele><time>2026-04-26T17:17:09.054Z</time></trkpt><trkpt lat="43.7844507" lon="11.5267875"><ele>499.0</ele><time>2026-04-26T17:17:11.051Z</time></trkpt><trkpt lat="43.7845827" lon="11.5267639"><ele>497.0</ele><time>2026-04-26T17:17:13.053Z</time></trkpt><trkpt lat="43.7846919" lon="11.5267579"><ele>495.0</ele><time>2026-04-26T17:17:15.047Z</time></trkpt><trkpt lat="43.7847813" lon="11.5267932"><ele>493.0</ele><time>2026-04-26T17:17:16.059Z</time></trkpt><trkpt lat="43.7848698" lon="11.526816"><ele>491.0</ele><time>2026-04-26T17:17:17.048Z</time></trkpt><trkpt lat="43.7849731" lon="11.5268371"><ele>489.0</ele><time>2026-04-26T17:17:18.045Z</time></trkpt><trkpt lat="43.785092" lon="11.5268403"><ele>489.0</ele><time>2026-04-26T17:17:19.057Z</time></trkpt><trkpt lat="43.7851743" lon="11.5268067"><ele>489.0</ele><time>2026-04-26T17:17:20.05Z</time></trkpt><trkpt lat="43.785264" lon="11.5267532"><ele>489.0</ele><time>2026-04-26T17:17:21.042Z</time></trkpt><trkpt lat="43.7853342" lon="11.5267094"><ele>489.0</ele><time>2026-04-26T17:17:22.049Z</time></trkpt><trkpt lat="43.7854121" lon="11.5266835"><ele>489.0</ele><time>2026-04-26T17:17:23.057Z</time></trkpt><trkpt lat="43.7854898" lon="11.5266629"><ele>489.0</ele><time>2026-04-26T17:17:24.058Z</time></trkpt><trkpt lat="43.7855669" lon="11.5266319"><ele>491.2</ele><time>2026-04-26T17:17:25.05Z</time></trkpt><trkpt lat="43.7856289" lon="11.5264889"><ele>493.4</ele><time>2026-04-26T17:17:27.052Z</time></trkpt><trkpt lat="43.7856246" lon="11.5263711"><ele>495.6</ele><time>2026-04-26T17:17:28.05Z</time></trkpt><trkpt lat="43.7855736" lon="11.5262702"><ele>497.8</ele><time>2026-04-26T17:17:29.05Z</time></trkpt><trkpt lat="43.7855351" lon="11.5261716"><ele>500.0</ele><time>2026-04-26T17:17:30.057Z</time></trkpt><trkpt lat="43.7854907" lon="11.5260659"><ele>504.0</ele><time>2026-04-26T17:17:31.055Z</time></trkpt><trkpt lat="43.7854479" lon="11.5259611"><ele>508.0</ele><time>2026-04-26T17:17:32.048Z</time></trkpt><trkpt lat="43.7853991" lon="11.5258499"><ele>512.0</ele><time>2026-04-26T17:17:33.046Z</time></trkpt><trkpt lat="43.7853415" lon="11.5257428"><ele>516.0</ele><time>2026-04-26T17:17:34.056Z</time></trkpt><trkpt lat="43.7852821" lon="11.5256302"><ele>520.0</ele><time>2026-04-26T17:17:35.052Z</time></trkpt><trkpt lat="43.7852148" lon="11.5255215"><ele>516.3333333333334</ele><time>2026-04-26T17:17:36.06Z</time></trkpt><trkpt lat="43.7851568" lon="11.525401"><ele>512.6666666666667</ele><time>2026-04-26T17:17:37.055Z</time></trkpt><trkpt lat="43.785103" lon="11.5252887"><ele>509.0</ele><time>2026-04-26T17:17:38.05Z</time></trkpt><trkpt lat="43.7850442" lon="11.5251948"><ele>505.33333333333337</ele><time>2026-04-26T17:17:39.053Z</time></trkpt><trkpt lat="43.7849972" lon="11.5251122"><ele>501.6666666666667</ele><time>2026-04-26T17:17:40.055Z</time></trkpt><trkpt lat="43.7849642" lon="11.5250292"><ele>498.0</ele><time>2026-04-26T17:17:41.049Z</time></trkpt><trkpt lat="43.7849399" lon="11.5249465"><ele>498.0</ele><time>2026-04-26T17:17:42.05Z</time></trkpt><trkpt lat="43.7849233" lon="11.5247584"><ele>498.0</ele><time>2026-04-26T17:17:44.045Z</time></trkpt><trkpt lat="43.7849063" lon="11.5246686"><ele>498.0</ele><time>2026-04-26T17:17:45.048Z</time></trkpt><trkpt lat="43.7848639" lon="11.5245958"><ele>498.0</ele><time>2026-04-26T17:17:46.053Z</time></trkpt><trkpt lat="43.7848256" lon="11.5245217"><ele>498.0</ele><time>2026-04-26T17:17:47.05Z</time></trkpt><trkpt lat="43.7847769" lon="11.5244544"><ele>498.0</ele><time>2026-04-26T17:17:48.05Z</time></trkpt><trkpt lat="43.7847479" lon="11.5243762"><ele>501.3333333333333</ele><time>2026-04-26T17:17:49.047Z</time></trkpt><trkpt lat="43.7847121" lon="11.5242897"><ele>504.66666666666663</ele><time>2026-04-26T17:17:50.056Z</time></trkpt><trkpt lat="43.7846845" lon="11.5241918"><ele>508.0</ele><time>2026-04-26T17:17:51.056Z</time></trkpt><trkpt lat="43.7846667" lon="11.5240964"><ele>511.3333333333333</ele><time>2026-04-26T17:17:52.059Z</time></trkpt><trkpt lat="43.7846419" lon="11.5240119"><ele>514.6666666666666</ele><time>2026-04-26T17:17:53.051Z</time></trkpt><trkpt lat="43.7846166" lon="11.5239313"><ele>518.0</ele><time>2026-04-26T17:17:54.059Z</time></trkpt><trkpt lat="43.7845251" lon="11.523815"><ele>518.0</ele><time>2026-04-26T17:17:56.071Z</time></trkpt><trkpt lat="43.7844625" lon="11.5237914"><ele>518.0</ele><time>2026-04-26T17:17:57.051Z</time></trkpt><trkpt lat="43.7843777" lon="11.5237824"><ele>518.0</ele><time>2026-04-26T17:17:58.06Z</time></trkpt><trkpt lat="43.7842993" lon="11.5237544"><ele>518.0</ele><time>2026-04-26T17:17:59.052Z</time></trkpt><trkpt lat="43.7842207" lon="11.5237028"><ele>518.0</ele><time>2026-04-26T17:18:00.056Z</time></trkpt><trkpt lat="43.7841217" lon="11.5236031"><ele>518.0</ele><time>2026-04-26T17:18:02.056Z</time></trkpt><trkpt lat="43.7840796" lon="11.5235342"><ele>518.1999999999999</ele><time>2026-04-26T17:18:03.057Z</time></trkpt><trkpt lat="43.7840358" lon="11.5233878"><ele>518.4</ele><time>2026-04-26T17:18:05.059Z</time></trkpt><trkpt lat="43.7840267" lon="11.523215"><ele>518.5999999999999</ele><time>2026-04-26T17:18:07.061Z</time></trkpt><trkpt lat="43.7840382" lon="11.5231178"><ele>518.8</ele><time>2026-04-26T17:18:08.065Z</time></trkpt><trkpt lat="43.7840305" lon="11.5230119"><ele>519.0</ele><time>2026-04-26T17:18:09.057Z</time></trkpt><trkpt lat="43.784015" lon="11.5228931"><ele>519.0</ele><time>2026-04-26T17:18:10.053Z</time></trkpt><trkpt lat="43.7839918" lon="11.5227829"><ele>519.0</ele><time>2026-04-26T17:18:11.065Z</time></trkpt><trkpt lat="43.7839604" lon="11.5226967"><ele>519.0</ele><time>2026-04-26T17:18:12.056Z</time></trkpt><trkpt lat="43.7839478" lon="11.5226061"><ele>519.0</ele><time>2026-04-26T17:18:13.05Z</time></trkpt><trkpt lat="43.7839475" lon="11.5225077"><ele>519.0</ele><time>2026-04-26T17:18:14.056Z</time></trkpt><trkpt lat="43.7839725" lon="11.5224084"><ele>519.0</ele><time>2026-04-26T17:18:15.062Z</time></trkpt><trkpt lat="43.7839902" lon="11.5223163"><ele>519.0</ele><time>2026-04-26T17:18:16.047Z</time></trkpt><trkpt lat="43.7839967" lon="11.5222241"><ele>521.6666666666666</ele><time>2026-04-26T17:18:17.047Z</time></trkpt><trkpt lat="43.783962" lon="11.5220581"><ele>524.3333333333334</ele><time>2026-04-26T17:18:19.053Z</time></trkpt><trkpt lat="43.7839049" lon="11.5219963"><ele>527.0</ele><time>2026-04-26T17:18:20.064Z</time></trkpt><trkpt lat="43.7838377" lon="11.5219662"><ele>529.6666666666667</ele><time>2026-04-26T17:18:21.053Z</time></trkpt><trkpt lat="43.7837644" lon="11.5219539"><ele>532.3333333333334</ele><time>2026-04-26T17:18:22.062Z</time></trkpt><trkpt lat="43.7836855" lon="11.5219417"><ele>535.0</ele><time>2026-04-26T17:18:23.061Z</time></trkpt><trkpt lat="43.7836209" lon="11.521914"><ele>535.0</ele><time>2026-04-26T17:18:24.052Z</time></trkpt><trkpt lat="43.7835553" lon="11.5218805"><ele>535.0</ele><time>2026-04-26T17:18:25.053Z</time></trkpt><trkpt lat="43.7834975" lon="11.5218318"><ele>535.0</ele><time>2026-04-26T17:18:26.057Z</time></trkpt><trkpt lat="43.7834427" lon="11.5217684"><ele>535.0</ele><time>2026-04-26T17:18:27.057Z</time></trkpt><trkpt lat="43.7833862" lon="11.5216965"><ele>535.0</ele><time>2026-04-26T17:18:28.061Z</time></trkpt><trkpt lat="43.783341" lon="11.5216076"><ele>535.0</ele><time>2026-04-26T17:18:29.064Z</time></trkpt><trkpt lat="43.7833012" lon="11.5215105"><ele>535.0</ele><time>2026-04-26T17:18:30.069Z</time></trkpt><trkpt lat="43.7832597" lon="11.5214091"><ele>530.4</ele><time>2026-04-26T17:18:31.069Z</time></trkpt><trkpt lat="43.7832275" lon="11.5212916"><ele>525.8</ele><time>2026-04-26T17:18:32.058Z</time></trkpt><trkpt lat="43.7831932" lon="11.5211661"><ele>521.2</ele><time>2026-04-26T17:18:33.057Z</time></trkpt><trkpt lat="43.7831528" lon="11.5210468"><ele>516.6</ele><time>2026-04-26T17:18:34.063Z</time></trkpt><trkpt lat="43.783122" lon="11.5209266"><ele>512.0</ele><time>2026-04-26T17:18:35.056Z</time></trkpt><trkpt lat="43.7831074" lon="11.5208066"><ele>511.99999999999994</ele><time>2026-04-26T17:18:36.057Z</time></trkpt><trkpt lat="43.7830936" lon="11.5206755"><ele>512.0</ele><time>2026-04-26T17:18:37.052Z</time></trkpt><trkpt lat="43.7830853" lon="11.5205492"><ele>512.0</ele><time>2026-04-26T17:18:38.06Z</time></trkpt><trkpt lat="43.7830708" lon="11.5204328"><ele>512.0</ele><time>2026-04-26T17:18:39.052Z</time></trkpt><trkpt lat="43.7830641" lon="11.5203195"><ele>511.99999999999994</ele><time>2026-04-26T17:18:40.049Z</time></trkpt><trkpt lat="43.7830567" lon="11.5202117"><ele>512.0</ele><time>2026-04-26T17:18:41.056Z</time></trkpt><trkpt lat="43.7830525" lon="11.5201189"><ele>511.40000000000003</ele><time>2026-04-26T17:18:42.067Z</time></trkpt><trkpt lat="43.7830954" lon="11.5199643"><ele>510.80000000000007</ele><time>2026-04-26T17:18:44.053Z</time></trkpt><trkpt lat="43.7831738" lon="11.519803"><ele>510.2</ele><time>2026-04-26T17:18:46.064Z</time></trkpt><trkpt lat="43.7832334" lon="11.5197026"><ele>509.6</ele><time>2026-04-26T17:18:47.059Z</time></trkpt><trkpt lat="43.7832965" lon="11.5196071"><ele>509.0</ele><time>2026-04-26T17:18:48.053Z</time></trkpt><trkpt lat="43.7833415" lon="11.5195282"><ele>509.2</ele><time>2026-04-26T17:18:49.051Z</time></trkpt><trkpt lat="43.7833902" lon="11.5194113"><ele>509.4</ele><time>2026-04-26T17:18:50.059Z</time></trkpt><trkpt lat="43.7834418" lon="11.5193095"><ele>509.6</ele><time>2026-04-26T17:18:51.051Z</time></trkpt><trkpt lat="43.7835033" lon="11.5192049"><ele>509.8</ele><time>2026-04-26T17:18:52.057Z</time></trkpt><trkpt lat="43.7835559" lon="11.5191009"><ele>510.0</ele><time>2026-04-26T17:18:53.06Z</time></trkpt><trkpt lat="43.7836115" lon="11.5189985"><ele>510.0</ele><time>2026-04-26T17:18:54.062Z</time></trkpt><trkpt lat="43.7836677" lon="11.5189038"><ele>510.0</ele><time>2026-04-26T17:18:55.056Z</time></trkpt><trkpt lat="43.7837257" lon="11.5188077"><ele>510.0</ele><time>2026-04-26T17:18:56.061Z</time></trkpt><trkpt lat="43.7837955" lon="11.5187284"><ele>510.0</ele><time>2026-04-26T17:18:57.056Z</time></trkpt><trkpt lat="43.7838744" lon="11.5186496"><ele>510.0</ele><time>2026-04-26T17:18:58.066Z</time></trkpt><trkpt lat="43.7839542" lon="11.5185702"><ele>507.8</ele><time>2026-04-26T17:18:59.067Z</time></trkpt><trkpt lat="43.7840402" lon="11.5185015"><ele>505.6</ele><time>2026-04-26T17:19:00.056Z</time></trkpt><trkpt lat="43.7841198" lon="11.5184553"><ele>503.4</ele><time>2026-04-26T17:19:01.062Z</time></trkpt><trkpt lat="43.784213" lon="11.5184154"><ele>501.2</ele><time>2026-04-26T17:19:02.056Z</time></trkpt><trkpt lat="43.7843054" lon="11.5183727"><ele>499.0</ele><time>2026-04-26T17:19:03.061Z</time></trkpt><trkpt lat="43.7843958" lon="11.5183136"><ele>499.0</ele><time>2026-04-26T17:19:04.056Z</time></trkpt><trkpt lat="43.7844831" lon="11.5182388"><ele>499.0</ele><time>2026-04-26T17:19:05.058Z</time></trkpt><trkpt lat="43.7845626" lon="11.5181533"><ele>499.0</ele><time>2026-04-26T17:19:06.061Z</time></trkpt><trkpt lat="43.7846381" lon="11.5180652"><ele>499.0</ele><time>2026-04-26T17:19:07.064Z</time></trkpt><trkpt lat="43.7847082" lon="11.5179676"><ele>499.0</ele><time>2026-04-26T17:19:08.061Z</time></trkpt><trkpt lat="43.7847638" lon="11.5178695"><ele>497.00000000000006</ele><time>2026-04-26T17:19:09.063Z</time></trkpt><trkpt lat="43.7848059" lon="11.517755"><ele>495.0</ele><time>2026-04-26T17:19:10.068Z</time></trkpt><trkpt lat="43.7848315" lon="11.5176353"><ele>493.0</ele><time>2026-04-26T17:19:11.051Z</time></trkpt><trkpt lat="43.7848597" lon="11.5175311"><ele>491.0</ele><time>2026-04-26T17:19:12.068Z</time></trkpt><trkpt lat="43.7848796" lon="11.5174196"><ele>489.00000000000006</ele><time>2026-04-26T17:19:13.064Z</time></trkpt><trkpt lat="43.7849187" lon="11.5173273"><ele>487.0</ele><time>2026-04-26T17:19:14.067Z</time></trkpt><trkpt lat="43.7849664" lon="11.5172587"><ele>487.00000000000006</ele><time>2026-04-26T17:19:15.072Z</time></trkpt><trkpt lat="43.7850665" lon="11.5171657"><ele>487.0</ele><time>2026-04-26T17:19:17.063Z</time></trkpt><trkpt lat="43.7851309" lon="11.5171426"><ele>487.0</ele><time>2026-04-26T17:19:18.071Z</time></trkpt><trkpt lat="43.7851996" lon="11.5171307"><ele>487.0</ele><time>2026-04-26T17:19:19.067Z</time></trkpt><trkpt lat="43.7852733" lon="11.5171226"><ele>487.00000000000006</ele><time>2026-04-26T17:19:20.054Z</time></trkpt><trkpt lat="43.7853426" lon="11.5171055"><ele>487.0</ele><time>2026-04-26T17:19:21.062Z</time></trkpt><trkpt lat="43.7854092" lon="11.5170731"><ele>484.83333333333337</ele><time>2026-04-26T17:19:22.06Z</time></trkpt><trkpt lat="43.7854813" lon="11.5170407"><ele>482.6666666666667</ele><time>2026-04-26T17:19:23.067Z</time></trkpt><trkpt lat="43.7855541" lon="11.5170002"><ele>480.5</ele><time>2026-04-26T17:19:24.066Z</time></trkpt><trkpt lat="43.7856214" lon="11.5169406"><ele>478.33333333333337</ele><time>2026-04-26T17:19:25.064Z</time></trkpt><trkpt lat="43.7856901" lon="11.5168719"><ele>476.1666666666667</ele><time>2026-04-26T17:19:26.06Z</time></trkpt><trkpt lat="43.7857548" lon="11.5167863"><ele>474.0</ele><time>2026-04-26T17:19:27.066Z</time></trkpt><trkpt lat="43.7858219" lon="11.5166941"><ele>474.0</ele><time>2026-04-26T17:19:28.063Z</time></trkpt><trkpt lat="43.7858861" lon="11.5165963"><ele>474.0</ele><time>2026-04-26T17:19:29.059Z</time></trkpt><trkpt lat="43.7859542" lon="11.5165034"><ele>474.0</ele><time>2026-04-26T17:19:30.068Z</time></trkpt><trkpt lat="43.7860236" lon="11.5164081"><ele>474.0</ele><time>2026-04-26T17:19:31.065Z</time></trkpt><trkpt lat="43.7860904" lon="11.5163185"><ele>474.0</ele><time>2026-04-26T17:19:32.064Z</time></trkpt><trkpt lat="43.7861524" lon="11.5162357"><ele>476.0</ele><time>2026-04-26T17:19:33.056Z</time></trkpt><trkpt lat="43.7862113" lon="11.5161498"><ele>478.0</ele><time>2026-04-26T17:19:34.064Z</time></trkpt><trkpt lat="43.7862663" lon="11.516059"><ele>480.0</ele><time>2026-04-26T17:19:35.063Z</time></trkpt><trkpt lat="43.7863082" lon="11.5159543"><ele>482.0</ele><time>2026-04-26T17:19:36.058Z</time></trkpt><trkpt lat="43.7863336" lon="11.5158426"><ele>484.0</ele><time>2026-04-26T17:19:37.051Z</time></trkpt><trkpt lat="43.7863597" lon="11.5157365"><ele>486.0</ele><time>2026-04-26T17:19:38.047Z</time></trkpt><trkpt lat="43.7863897" lon="11.5156443"><ele>486.0</ele><time>2026-04-26T17:19:39.052Z</time></trkpt><trkpt lat="43.7864204" lon="11.5155609"><ele>486.0</ele><time>2026-04-26T17:19:40.055Z</time></trkpt><trkpt lat="43.7865061" lon="11.5154297"><ele>486.0</ele><time>2026-04-26T17:19:42.06Z</time></trkpt><trkpt lat="43.7865638" lon="11.5153763"><ele>486.0</ele><time>2026-04-26T17:19:43.055Z</time></trkpt><trkpt lat="43.7866577" lon="11.5152755"><ele>486.0</ele><time>2026-04-26T17:19:45.054Z</time></trkpt><trkpt lat="43.7867236" lon="11.5151318"><ele>485.2857142857143</ele><time>2026-04-26T17:19:47.06Z</time></trkpt><trkpt lat="43.7867313" lon="11.5150358"><ele>484.57142857142856</ele><time>2026-04-26T17:19:48.059Z</time></trkpt><trkpt lat="43.7867198" lon="11.514939"><ele>483.85714285714283</ele><time>2026-04-26T17:19:49.058Z</time></trkpt><trkpt lat="43.7866955" lon="11.5148479"><ele>483.1428571428571</ele><time>2026-04-26T17:19:50.06Z</time></trkpt><trkpt lat="43.7866486" lon="11.5147695"><ele>482.42857142857144</ele><time>2026-04-26T17:19:51.056Z</time></trkpt><trkpt lat="43.7865828" lon="11.5147067"><ele>481.71428571428567</ele><time>2026-04-26T17:19:52.064Z</time></trkpt><trkpt lat="43.7865081" lon="11.5146597"><ele>480.99999999999994</ele><time>2026-04-26T17:19:53.059Z</time></trkpt><trkpt lat="43.7864276" lon="11.5146239"><ele>481.00000000000006</ele><time>2026-04-26T17:19:54.064Z</time></trkpt><trkpt lat="43.786342" lon="11.5146112"><ele>481.0</ele><time>2026-04-26T17:19:55.065Z</time></trkpt><trkpt lat="43.7862581" lon="11.5146192"><ele>481.0</ele><time>2026-04-26T17:19:56.056Z</time></trkpt><trkpt lat="43.7861835" lon="11.5146192"><ele>481.0</ele><time>2026-04-26T17:19:57.062Z</time></trkpt><trkpt lat="43.7861148" lon="11.5146083"><ele>481.00000000000006</ele><time>2026-04-26T17:19:58.057Z</time></trkpt><trkpt lat="43.7860401" lon="11.5145721"><ele>481.0</ele><time>2026-04-26T17:19:59.06Z</time></trkpt><trkpt lat="43.7859693" lon="11.5145251"><ele>481.50000000000006</ele><time>2026-04-26T17:20:00.059Z</time></trkpt><trkpt lat="43.7859009" lon="11.5144664"><ele>482.0</ele><time>2026-04-26T17:20:01.048Z</time></trkpt><trkpt lat="43.7858328" lon="11.5143994"><ele>482.5</ele><time>2026-04-26T17:20:02.064Z</time></trkpt><trkpt lat="43.7857657" lon="11.5143238"><ele>483.0</ele><time>2026-04-26T17:20:03.059Z</time></trkpt><trkpt lat="43.7856964" lon="11.5142447"><ele>483.50000000000006</ele><time>2026-04-26T17:20:04.062Z</time></trkpt><trkpt lat="43.7856303" lon="11.5141604"><ele>484.0</ele><time>2026-04-26T17:20:05.057Z</time></trkpt><trkpt lat="43.7855565" lon="11.5140776"><ele>484.0</ele><time>2026-04-26T17:20:06.056Z</time></trkpt><trkpt lat="43.7854837" lon="11.5139989"><ele>484.0</ele><time>2026-04-26T17:20:07.058Z</time></trkpt><trkpt lat="43.7854064" lon="11.5139298"><ele>484.0</ele><time>2026-04-26T17:20:08.063Z</time></trkpt><trkpt lat="43.7853235" lon="11.5138642"><ele>484.0</ele><time>2026-04-26T17:20:09.057Z</time></trkpt><trkpt lat="43.7852321" lon="11.5137873"><ele>484.0</ele><time>2026-04-26T17:20:10.056Z</time></trkpt><trkpt lat="43.7851379" lon="11.5137235"><ele>485.4</ele><time>2026-04-26T17:20:11.063Z</time></trkpt><trkpt lat="43.7850315" lon="11.5136544"><ele>486.79999999999995</ele><time>2026-04-26T17:20:12.052Z</time></trkpt><trkpt lat="43.7849372" lon="11.5135937"><ele>488.20000000000005</ele><time>2026-04-26T17:20:13.059Z</time></trkpt><trkpt lat="43.7848423" lon="11.5135334"><ele>489.6</ele><time>2026-04-26T17:20:14.066Z</time></trkpt><trkpt lat="43.7847551" lon="11.5134698"><ele>491.0</ele><time>2026-04-26T17:20:15.062Z</time></trkpt><trkpt lat="43.7846713" lon="11.5134046"><ele>491.0</ele><time>2026-04-26T17:20:16.061Z</time></trkpt><trkpt lat="43.78459" lon="11.5133276"><ele>491.0</ele><time>2026-04-26T17:20:17.059Z</time></trkpt><trkpt lat="43.7845121" lon="11.5132451"><ele>491.0</ele><time>2026-04-26T17:20:18.063Z</time></trkpt><trkpt lat="43.7844375" lon="11.5131557"><ele>491.0</ele><time>2026-04-26T17:20:19.063Z</time></trkpt><trkpt lat="43.7843613" lon="11.5130681"><ele>491.0</ele><time>2026-04-26T17:20:20.056Z</time></trkpt><trkpt lat="43.7842857" lon="11.5129831"><ele>491.6</ele><time>2026-04-26T17:20:21.062Z</time></trkpt><trkpt lat="43.7842122" lon="11.5128913"><ele>492.20000000000005</ele><time>2026-04-26T17:20:22.069Z</time></trkpt><trkpt lat="43.7841389" lon="11.5128028"><ele>492.79999999999995</ele><time>2026-04-26T17:20:23.057Z</time></trkpt><trkpt lat="43.7840652" lon="11.5127207"><ele>493.4</ele><time>2026-04-26T17:20:24.069Z</time></trkpt><trkpt lat="43.7839818" lon="11.512648"><ele>494.0</ele><time>2026-04-26T17:20:25.067Z</time></trkpt><trkpt lat="43.783898" lon="11.512582"><ele>494.0</ele><time>2026-04-26T17:20:26.07Z</time></trkpt><trkpt lat="43.7838069" lon="11.512522"><ele>494.0</ele><time>2026-04-26T17:20:27.063Z</time></trkpt><trkpt lat="43.7837122" lon="11.5124647"><ele>494.0</ele><time>2026-04-26T17:20:28.062Z</time></trkpt><trkpt lat="43.7836135" lon="11.5124132"><ele>494.0</ele><time>2026-04-26T17:20:29.07Z</time></trkpt><trkpt lat="43.7835158" lon="11.5123637"><ele>494.0</ele><time>2026-04-26T17:20:30.066Z</time></trkpt><trkpt lat="43.7834225" lon="11.512316"><ele>495.6</ele><time>2026-04-26T17:20:31.063Z</time></trkpt><trkpt lat="43.7833315" lon="11.5122589"><ele>497.2</ele><time>2026-04-26T17:20:32.055Z</time></trkpt><trkpt lat="43.78324" lon="11.5121967"><ele>498.80000000000007</ele><time>2026-04-26T17:20:33.069Z</time></trkpt><trkpt lat="43.783156" lon="11.51213"><ele>500.40000000000003</ele><time>2026-04-26T17:20:34.063Z</time></trkpt><trkpt lat="43.783078" lon="11.5120555"><ele>502.0</ele><time>2026-04-26T17:20:35.065Z</time></trkpt><trkpt lat="43.7830022" lon="11.5119777"><ele>502.00000000000006</ele><time>2026-04-26T17:20:36.076Z</time></trkpt><trkpt lat="43.7829295" lon="11.511898"><ele>502.0</ele><time>2026-04-26T17:20:37.059Z</time></trkpt><trkpt lat="43.7828638" lon="11.511818"><ele>502.0</ele><time>2026-04-26T17:20:38.062Z</time></trkpt><trkpt lat="43.7828133" lon="11.5117311"><ele>502.0</ele><time>2026-04-26T17:20:39.074Z</time></trkpt><trkpt lat="43.7827684" lon="11.51164"><ele>502.00000000000006</ele><time>2026-04-26T17:20:40.067Z</time></trkpt><trkpt lat="43.7827294" lon="11.5115439"><ele>502.0</ele><time>2026-04-26T17:20:41.061Z</time></trkpt><trkpt lat="43.782701" lon="11.511442"><ele>500.40000000000003</ele><time>2026-04-26T17:20:42.06Z</time></trkpt><trkpt lat="43.7826796" lon="11.5113316"><ele>498.80000000000007</ele><time>2026-04-26T17:20:43.067Z</time></trkpt><trkpt lat="43.7826598" lon="11.511212"><ele>497.2</ele><time>2026-04-26T17:20:44.067Z</time></trkpt><trkpt lat="43.7826378" lon="11.5110855"><ele>495.6</ele><time>2026-04-26T17:20:45.067Z</time></trkpt><trkpt lat="43.7826181" lon="11.5109526"><ele>494.0</ele><time>2026-04-26T17:20:46.067Z</time></trkpt><trkpt lat="43.7825969" lon="11.5108135"><ele>494.0</ele><time>2026-04-26T17:20:47.068Z</time></trkpt><trkpt lat="43.7825729" lon="11.510669"><ele>494.0</ele><time>2026-04-26T17:20:48.064Z</time></trkpt><trkpt lat="43.7825516" lon="11.5105248"><ele>494.0</ele><time>2026-04-26T17:20:49.071Z</time></trkpt><trkpt lat="43.7825307" lon="11.5103757"><ele>494.0</ele><time>2026-04-26T17:20:50.068Z</time></trkpt><trkpt lat="43.7825095" lon="11.5102246"><ele>494.0</ele><time>2026-04-26T17:20:51.075Z</time></trkpt><trkpt lat="43.7824851" lon="11.5100744"><ele>495.2</ele><time>2026-04-26T17:20:52.062Z</time></trkpt><trkpt lat="43.782459" lon="11.5099272"><ele>496.4</ele><time>2026-04-26T17:20:53.063Z</time></trkpt><trkpt lat="43.7824372" lon="11.5097857"><ele>497.6</ele><time>2026-04-26T17:20:54.068Z</time></trkpt><trkpt lat="43.782417" lon="11.5096526"><ele>498.8</ele><time>2026-04-26T17:20:55.063Z</time></trkpt><trkpt lat="43.7823997" lon="11.5095284"><ele>500.0</ele><time>2026-04-26T17:20:56.06Z</time></trkpt><trkpt lat="43.782382" lon="11.5094122"><ele>500.0</ele><time>2026-04-26T17:20:57.063Z</time></trkpt><trkpt lat="43.7823683" lon="11.5093135"><ele>500.0</ele><time>2026-04-26T17:20:58.06Z</time></trkpt><trkpt lat="43.782369" lon="11.5092239"><ele>500.0</ele><time>2026-04-26T17:20:59.063Z</time></trkpt><trkpt lat="43.7823885" lon="11.5090818"><ele>500.0</ele><time>2026-04-26T17:21:01.062Z</time></trkpt><trkpt lat="43.7824229" lon="11.5090067"><ele>500.0</ele><time>2026-04-26T17:21:02.063Z</time></trkpt><trkpt lat="43.7824671" lon="11.5089438"><ele>500.0</ele><time>2026-04-26T17:21:03.065Z</time></trkpt><trkpt lat="43.7825163" lon="11.5088773"><ele>500.0</ele><time>2026-04-26T17:21:04.074Z</time></trkpt><trkpt lat="43.7825743" lon="11.5088288"><ele>499.99999999999994</ele><time>2026-04-26T17:21:05.074Z</time></trkpt><trkpt lat="43.7826424" lon="11.508774"><ele>500.0</ele><time>2026-04-26T17:21:06.059Z</time></trkpt><trkpt lat="43.7827166" lon="11.5087204"><ele>500.0</ele><time>2026-04-26T17:21:07.065Z</time></trkpt><trkpt lat="43.7827941" lon="11.5086711"><ele>500.0</ele><time>2026-04-26T17:21:08.07Z</time></trkpt><trkpt lat="43.7828771" lon="11.5086109"><ele>499.99999999999994</ele><time>2026-04-26T17:21:09.057Z</time></trkpt><trkpt lat="43.782965" lon="11.5085491"><ele>500.0</ele><time>2026-04-26T17:21:10.06Z</time></trkpt><trkpt lat="43.7830543" lon="11.5084847"><ele>500.6</ele><time>2026-04-26T17:21:11.063Z</time></trkpt><trkpt lat="43.7831472" lon="11.5084251"><ele>501.2</ele><time>2026-04-26T17:21:12.063Z</time></trkpt><trkpt lat="43.7832397" lon="11.50836"><ele>501.79999999999995</ele><time>2026-04-26T17:21:13.056Z</time></trkpt><trkpt lat="43.7833334" lon="11.5082949"><ele>502.4</ele><time>2026-04-26T17:21:14.074Z</time></trkpt><trkpt lat="43.7834257" lon="11.5082298"><ele>503.0</ele><time>2026-04-26T17:21:15.063Z</time></trkpt><trkpt lat="43.7835154" lon="11.5081591"><ele>503.49999999999994</ele><time>2026-04-26T17:21:16.068Z</time></trkpt><trkpt lat="43.7835999" lon="11.5080842"><ele>504.0</ele><time>2026-04-26T17:21:17.068Z</time></trkpt><trkpt lat="43.7836787" lon="11.5080189"><ele>504.5</ele><time>2026-04-26T17:21:18.08Z</time></trkpt><trkpt lat="43.7837536" lon="11.5079611"><ele>505.0</ele><time>2026-04-26T17:21:19.067Z</time></trkpt><trkpt lat="43.7838242" lon="11.5079144"><ele>505.49999999999994</ele><time>2026-04-26T17:21:20.069Z</time></trkpt><trkpt lat="43.7838949" lon="11.5078666"><ele>506.0</ele><time>2026-04-26T17:21:21.069Z</time></trkpt><trkpt lat="43.7839651" lon="11.5078226"><ele>505.49999999999994</ele><time>2026-04-26T17:21:22.065Z</time></trkpt><trkpt lat="43.7840371" lon="11.5077818"><ele>505.0</ele><time>2026-04-26T17:21:23.063Z</time></trkpt><trkpt lat="43.7841118" lon="11.5077526"><ele>504.5</ele><time>2026-04-26T17:21:24.065Z</time></trkpt><trkpt lat="43.7841873" lon="11.507731"><ele>504.0</ele><time>2026-04-26T17:21:25.059Z</time></trkpt><trkpt lat="43.7842651" lon="11.5077102"><ele>503.49999999999994</ele><time>2026-04-26T17:21:26.068Z</time></trkpt><trkpt lat="43.7843465" lon="11.5076911"><ele>503.0</ele><time>2026-04-26T17:21:27.065Z</time></trkpt><trkpt lat="43.7844338" lon="11.5076745"><ele>502.99999999999994</ele><time>2026-04-26T17:21:28.064Z</time></trkpt><trkpt lat="43.7845207" lon="11.5076581"><ele>503.0</ele><time>2026-04-26T17:21:29.057Z</time></trkpt><trkpt lat="43.7846107" lon="11.5076455"><ele>503.0</ele><time>2026-04-26T17:21:30.064Z</time></trkpt><trkpt lat="43.7846998" lon="11.507632"><ele>503.0</ele><time>2026-04-26T17:21:31.068Z</time></trkpt><trkpt lat="43.7847911" lon="11.5076192"><ele>502.99999999999994</ele><time>2026-04-26T17:21:32.063Z</time></trkpt><trkpt lat="43.7848713" lon="11.5076051"><ele>503.0</ele><time>2026-04-26T17:21:33.07Z</time></trkpt><trkpt lat="43.7849395" lon="11.5075874"><ele>502.99999999999994</ele><time>2026-04-26T17:21:34.058Z</time></trkpt><trkpt lat="43.7850038" lon="11.507574"><ele>503.0</ele><time>2026-04-26T17:21:35.059Z</time></trkpt><trkpt lat="43.7850883" lon="11.5075571"><ele>503.0</ele><time>2026-04-26T17:21:37.066Z</time></trkpt><trkpt lat="43.7851619" lon="11.5075175"><ele>503.0</ele><time>2026-04-26T17:21:43.066Z</time></trkpt><trkpt lat="43.7851761" lon="11.5074162"><ele>502.99999999999994</ele><time>2026-04-26T17:21:45.06Z</time></trkpt><trkpt lat="43.7851539" lon="11.5072773"><ele>503.0</ele><time>2026-04-26T17:21:47.061Z</time></trkpt><trkpt lat="43.7851353" lon="11.5071906"><ele>502.99999999999994</ele><time>2026-04-26T17:21:48.062Z</time></trkpt><trkpt lat="43.7851169" lon="11.507093"><ele>503.0</ele><time>2026-04-26T17:21:49.07Z</time></trkpt><trkpt lat="43.7850988" lon="11.506994"><ele>503.0</ele><time>2026-04-26T17:21:50.063Z</time></trkpt><trkpt lat="43.7850783" lon="11.5068807"><ele>503.0</ele><time>2026-04-26T17:21:51.066Z</time></trkpt><trkpt lat="43.7850572" lon="11.5067581"><ele>502.99999999999994</ele><time>2026-04-26T17:21:52.067Z</time></trkpt><trkpt lat="43.7850338" lon="11.5066287"><ele>503.0</ele><time>2026-04-26T17:21:53.064Z</time></trkpt><trkpt lat="43.7850124" lon="11.5064962"><ele>502.2</ele><time>2026-04-26T17:21:54.067Z</time></trkpt><trkpt lat="43.7849922" lon="11.506359"><ele>501.4</ele><time>2026-04-26T17:21:55.068Z</time></trkpt><trkpt lat="43.7849712" lon="11.5062132"><ele>500.59999999999997</ele><time>2026-04-26T17:21:56.065Z</time></trkpt><trkpt lat="43.7849503" lon="11.5060634"><ele>499.79999999999995</ele><time>2026-04-26T17:21:57.063Z</time></trkpt><trkpt lat="43.7849317" lon="11.5059097"><ele>499.0</ele><time>2026-04-26T17:21:58.07Z</time></trkpt><trkpt lat="43.7849135" lon="11.5057536"><ele>497.6</ele><time>2026-04-26T17:21:59.067Z</time></trkpt><trkpt lat="43.784896" lon="11.5055963"><ele>496.2</ele><time>2026-04-26T17:22:00.071Z</time></trkpt><trkpt lat="43.7848779" lon="11.5054437"><ele>494.80000000000007</ele><time>2026-04-26T17:22:01.068Z</time></trkpt><trkpt lat="43.7848563" lon="11.505293"><ele>493.40000000000003</ele><time>2026-04-26T17:22:02.058Z</time></trkpt><trkpt lat="43.7848347" lon="11.5051476"><ele>492.0</ele><time>2026-04-26T17:22:03.063Z</time></trkpt><trkpt lat="43.7848074" lon="11.5050067"><ele>491.40000000000003</ele><time>2026-04-26T17:22:04.056Z</time></trkpt><trkpt lat="43.784779" lon="11.5048683"><ele>490.80000000000007</ele><time>2026-04-26T17:22:05.063Z</time></trkpt><trkpt lat="43.7847569" lon="11.5047301"><ele>490.2</ele><time>2026-04-26T17:22:06.062Z</time></trkpt><trkpt lat="43.7847312" lon="11.5045925"><ele>489.6</ele><time>2026-04-26T17:22:07.054Z</time></trkpt><trkpt lat="43.7847069" lon="11.504461"><ele>489.0</ele><time>2026-04-26T17:22:08.071Z</time></trkpt><trkpt lat="43.784681" lon="11.5043248"><ele>488.0</ele><time>2026-04-26T17:22:09.064Z</time></trkpt><trkpt lat="43.7846576" lon="11.5041914"><ele>487.0</ele><time>2026-04-26T17:22:10.066Z</time></trkpt><trkpt lat="43.7846354" lon="11.5040556"><ele>486.0</ele><time>2026-04-26T17:22:11.072Z</time></trkpt><trkpt lat="43.7846115" lon="11.5039277"><ele>485.0</ele><time>2026-04-26T17:22:12.064Z</time></trkpt><trkpt lat="43.7845819" lon="11.5037933"><ele>484.0</ele><time>2026-04-26T17:22:13.079Z</time></trkpt><trkpt lat="43.7845498" lon="11.5036569"><ele>484.0</ele><time>2026-04-26T17:22:14.064Z</time></trkpt><trkpt lat="43.7845199" lon="11.5035186"><ele>484.0</ele><time>2026-04-26T17:22:15.068Z</time></trkpt><trkpt lat="43.7844959" lon="11.5033828"><ele>484.0</ele><time>2026-04-26T17:22:16.059Z</time></trkpt><trkpt lat="43.7844802" lon="11.5032455"><ele>484.0</ele><time>2026-04-26T17:22:17.063Z</time></trkpt><trkpt lat="43.7844804" lon="11.5031077"><ele>484.0</ele><time>2026-04-26T17:22:18.058Z</time></trkpt><trkpt lat="43.7844993" lon="11.5029755"><ele>483.4</ele><time>2026-04-26T17:22:19.06Z</time></trkpt><trkpt lat="43.7845284" lon="11.5028492"><ele>482.79999999999995</ele><time>2026-04-26T17:22:20.07Z</time></trkpt><trkpt lat="43.7845517" lon="11.5027104"><ele>482.20000000000005</ele><time>2026-04-26T17:22:21.064Z</time></trkpt><trkpt lat="43.7845776" lon="11.5025807"><ele>481.6</ele><time>2026-04-26T17:22:22.054Z</time></trkpt><trkpt lat="43.7846069" lon="11.5024519"><ele>481.0</ele><time>2026-04-26T17:22:23.069Z</time></trkpt><trkpt lat="43.7846325" lon="11.5023194"><ele>481.0</ele><time>2026-04-26T17:22:24.064Z</time></trkpt><trkpt lat="43.7846479" lon="11.5021852"><ele>481.0</ele><time>2026-04-26T17:22:25.066Z</time></trkpt><trkpt lat="43.7846543" lon="11.5020494"><ele>481.0</ele><time>2026-04-26T17:22:26.064Z</time></trkpt><trkpt lat="43.7846483" lon="11.5019174"><ele>481.0</ele><time>2026-04-26T17:22:27.053Z</time></trkpt><trkpt lat="43.784629" lon="11.501792"><ele>481.0</ele><time>2026-04-26T17:22:28.05Z</time></trkpt><trkpt lat="43.784602" lon="11.5016596"><ele>480.6</ele><time>2026-04-26T17:22:29.051Z</time></trkpt><trkpt lat="43.7845661" lon="11.5015418"><ele>480.20000000000005</ele><time>2026-04-26T17:22:30.055Z</time></trkpt><trkpt lat="43.7845246" lon="11.5014194"><ele>479.79999999999995</ele><time>2026-04-26T17:22:31.05Z</time></trkpt><trkpt lat="43.7844762" lon="11.5013014"><ele>479.4</ele><time>2026-04-26T17:22:32.044Z</time></trkpt><trkpt lat="43.7844264" lon="11.5011816"><ele>479.0</ele><time>2026-04-26T17:22:33.046Z</time></trkpt><trkpt lat="43.7843794" lon="11.5010593"><ele>477.79999999999995</ele><time>2026-04-26T17:22:34.057Z</time></trkpt><trkpt lat="43.7843309" lon="11.5009409"><ele>476.59999999999997</ele><time>2026-04-26T17:22:35.056Z</time></trkpt><trkpt lat="43.7842899" lon="11.5008193"><ele>475.4</ele><time>2026-04-26T17:22:36.068Z</time></trkpt><trkpt lat="43.7842643" lon="11.5006881"><ele>474.2</ele><time>2026-04-26T17:22:37.066Z</time></trkpt><trkpt lat="43.7842594" lon="11.500551"><ele>473.0</ele><time>2026-04-26T17:22:38.064Z</time></trkpt><trkpt lat="43.7842694" lon="11.5004104"><ele>471.59999999999997</ele><time>2026-04-26T17:22:39.06Z</time></trkpt><trkpt lat="43.7842907" lon="11.5002726"><ele>470.19999999999993</ele><time>2026-04-26T17:22:40.069Z</time></trkpt><trkpt lat="43.7843201" lon="11.5001311"><ele>468.8</ele><time>2026-04-26T17:22:41.064Z</time></trkpt><trkpt lat="43.7843527" lon="11.4999877"><ele>467.4</ele><time>2026-04-26T17:22:42.064Z</time></trkpt><trkpt lat="43.7843818" lon="11.4998431"><ele>466.0</ele><time>2026-04-26T17:22:43.066Z</time></trkpt><trkpt lat="43.7844135" lon="11.4996962"><ele>465.0</ele><time>2026-04-26T17:22:44.069Z</time></trkpt><trkpt lat="43.7844434" lon="11.4995501"><ele>464.0</ele><time>2026-04-26T17:22:45.07Z</time></trkpt><trkpt lat="43.7844738" lon="11.4994025"><ele>463.0</ele><time>2026-04-26T17:22:46.065Z</time></trkpt><trkpt lat="43.7844955" lon="11.4992529"><ele>462.0</ele><time>2026-04-26T17:22:47.073Z</time></trkpt><trkpt lat="43.7845015" lon="11.4991087"><ele>461.0</ele><time>2026-04-26T17:22:48.068Z</time></trkpt><trkpt lat="43.7844843" lon="11.4989647"><ele>461.0</ele><time>2026-04-26T17:22:49.07Z</time></trkpt></trkseg></trk></gpx>